<?xml version="1.0" encoding="UTF-8" standalone="yes"?>
<gpx
 xmlns="http://www.topografix.com/GPX/1/1"
 creator="OziExplorer Version 3956f - http://www.oziexplorer.com"
 version="1.1"
 xmlns:xsi="http://www.w3.org/2001/XMLSchema-instance"
 xsi:schemaLocation="http://www.topografix.com/GPX/1/1 http://www.topografix.com/GPX/1/1/gpx.xsd">
<metadata>
 <time>2025-10-17T13:36:54Z</time>
 <bounds minlat="31.740981" minlon="35.080746" maxlat="31.784227" maxlon="35.154049"/>
</metadata>
<trk>
 <name>Sataf-Hadasa-Aminadav-IMBA-Refaim-H</name>
 <desc>Sataf-Hadasa-Aminadav-IMBA-Refaim-H</desc>
<trkseg>
<trkpt lat="31.7744060" lon="35.1250030">
<ele>721.399963</ele>
<time>2025-10-17T16:36:54.264Z</time>
</trkpt>
<trkpt lat="31.7744580" lon="35.1250340">
<ele>721.000000</ele>
<time>2025-10-17T16:36:54.264Z</time>
</trkpt>
<trkpt lat="31.7745240" lon="35.1250700">
<ele>720.400024</ele>
<time>2025-10-17T16:36:54.264Z</time>
</trkpt>
<trkpt lat="31.7745900" lon="35.1251050">
<ele>720.200012</ele>
<time>2025-10-17T16:36:54.264Z</time>
</trkpt>
<trkpt lat="31.7746560" lon="35.1251440">
<ele>719.799988</ele>
<time>2025-10-17T16:36:54.264Z</time>
</trkpt>
<trkpt lat="31.7748760" lon="35.1252780">
<ele>718.000000</ele>
<time>2025-10-17T16:36:54.264Z</time>
</trkpt>
<trkpt lat="31.7750370" lon="35.1253780">
<ele>716.799988</ele>
<time>2025-10-17T16:36:54.264Z</time>
</trkpt>
<trkpt lat="31.7752060" lon="35.1254790">
<ele>715.800049</ele>
<time>2025-10-17T16:36:54.264Z</time>
</trkpt>
<trkpt lat="31.7753750" lon="35.1255750">
<ele>714.400024</ele>
<time>2025-10-17T16:36:54.264Z</time>
</trkpt>
<trkpt lat="31.7754540" lon="35.1256190">
<ele>714.000000</ele>
<time>2025-10-17T16:36:54.264Z</time>
</trkpt>
<trkpt lat="31.7755320" lon="35.1256630">
<ele>713.400024</ele>
<time>2025-10-17T16:36:54.264Z</time>
</trkpt>
<trkpt lat="31.7756060" lon="35.1257050">
<ele>712.800049</ele>
<time>2025-10-17T16:36:54.264Z</time>
</trkpt>
<trkpt lat="31.7756640" lon="35.1257410">
<ele>712.000000</ele>
<time>2025-10-17T16:36:54.265Z</time>
</trkpt>
<trkpt lat="31.7757050" lon="35.1257810">
<ele>710.599976</ele>
<time>2025-10-17T16:36:54.265Z</time>
</trkpt>
<trkpt lat="31.7757320" lon="35.1258480">
<ele>710.200012</ele>
<time>2025-10-17T16:36:54.265Z</time>
</trkpt>
<trkpt lat="31.7757240" lon="35.1258980">
<ele>709.200012</ele>
<time>2025-10-17T16:36:54.265Z</time>
</trkpt>
<trkpt lat="31.7757090" lon="35.1259570">
<ele>708.600037</ele>
<time>2025-10-17T16:36:54.265Z</time>
</trkpt>
<trkpt lat="31.7756880" lon="35.1260130">
<ele>708.000000</ele>
<time>2025-10-17T16:36:54.265Z</time>
</trkpt>
<trkpt lat="31.7756650" lon="35.1260750">
<ele>707.599976</ele>
<time>2025-10-17T16:36:54.265Z</time>
</trkpt>
<trkpt lat="31.7756510" lon="35.1261140">
<ele>707.200012</ele>
<time>2025-10-17T16:36:54.265Z</time>
</trkpt>
<trkpt lat="31.7756340" lon="35.1261610">
<ele>707.000000</ele>
<time>2025-10-17T16:36:54.265Z</time>
</trkpt>
<trkpt lat="31.7756150" lon="35.1262150">
<ele>707.000000</ele>
<time>2025-10-17T16:36:54.265Z</time>
</trkpt>
<trkpt lat="31.7756030" lon="35.1262510">
<ele>706.800049</ele>
<time>2025-10-17T16:36:54.265Z</time>
</trkpt>
<trkpt lat="31.7755760" lon="35.1263380">
<ele>706.800049</ele>
<time>2025-10-17T16:36:54.265Z</time>
</trkpt>
<trkpt lat="31.7755670" lon="35.1263800">
<ele>707.000000</ele>
<time>2025-10-17T16:36:54.265Z</time>
</trkpt>
<trkpt lat="31.7755610" lon="35.1264220">
<ele>707.000000</ele>
<time>2025-10-17T16:36:54.265Z</time>
</trkpt>
<trkpt lat="31.7755580" lon="35.1264620">
<ele>707.000000</ele>
<time>2025-10-17T16:36:54.265Z</time>
</trkpt>
<trkpt lat="31.7755590" lon="35.1265000">
<ele>707.000000</ele>
<time>2025-10-17T16:36:54.265Z</time>
</trkpt>
<trkpt lat="31.7755590" lon="35.1265360">
<ele>707.200012</ele>
<time>2025-10-17T16:36:54.265Z</time>
</trkpt>
<trkpt lat="31.7755580" lon="35.1265710">
<ele>707.400024</ele>
<time>2025-10-17T16:36:54.265Z</time>
</trkpt>
<trkpt lat="31.7755570" lon="35.1266040">
<ele>707.400024</ele>
<time>2025-10-17T16:36:54.266Z</time>
</trkpt>
<trkpt lat="31.7755560" lon="35.1266370">
<ele>707.799988</ele>
<time>2025-10-17T16:36:54.266Z</time>
</trkpt>
<trkpt lat="31.7755580" lon="35.1266710">
<ele>707.799988</ele>
<time>2025-10-17T16:36:54.266Z</time>
</trkpt>
<trkpt lat="31.7755590" lon="35.1267040">
<ele>707.799988</ele>
<time>2025-10-17T16:36:54.266Z</time>
</trkpt>
<trkpt lat="31.7755640" lon="35.1267440">
<ele>707.799988</ele>
<time>2025-10-17T16:36:54.266Z</time>
</trkpt>
<trkpt lat="31.7755670" lon="35.1267720">
<ele>707.799988</ele>
<time>2025-10-17T16:36:54.266Z</time>
</trkpt>
<trkpt lat="31.7755710" lon="35.1268080">
<ele>707.799988</ele>
<time>2025-10-17T16:36:54.266Z</time>
</trkpt>
<trkpt lat="31.7755760" lon="35.1268820">
<ele>707.799988</ele>
<time>2025-10-17T16:36:54.266Z</time>
</trkpt>
<trkpt lat="31.7755800" lon="35.1272350">
<ele>708.199951</ele>
<time>2025-10-17T16:36:54.266Z</time>
</trkpt>
<trkpt lat="31.7756340" lon="35.1274990">
<ele>708.199951</ele>
<time>2025-10-17T16:36:54.266Z</time>
</trkpt>
<trkpt lat="31.7756440" lon="35.1275770">
<ele>708.199951</ele>
<time>2025-10-17T16:36:54.266Z</time>
</trkpt>
<trkpt lat="31.7756480" lon="35.1276140">
<ele>708.199951</ele>
<time>2025-10-17T16:36:54.266Z</time>
</trkpt>
<trkpt lat="31.7756570" lon="35.1276500">
<ele>708.199951</ele>
<time>2025-10-17T16:36:54.266Z</time>
</trkpt>
<trkpt lat="31.7757010" lon="35.1277580">
<ele>708.199951</ele>
<time>2025-10-17T16:36:54.266Z</time>
</trkpt>
<trkpt lat="31.7757390" lon="35.1277940">
<ele>708.000000</ele>
<time>2025-10-17T16:36:54.266Z</time>
</trkpt>
<trkpt lat="31.7757690" lon="35.1278050">
<ele>708.000000</ele>
<time>2025-10-17T16:36:54.266Z</time>
</trkpt>
<trkpt lat="31.7758380" lon="35.1277970">
<ele>708.000000</ele>
<time>2025-10-17T16:36:54.267Z</time>
</trkpt>
<trkpt lat="31.7758650" lon="35.1277900">
<ele>708.000000</ele>
<time>2025-10-17T16:36:54.267Z</time>
</trkpt>
<trkpt lat="31.7758900" lon="35.1277850">
<ele>708.000000</ele>
<time>2025-10-17T16:36:54.267Z</time>
</trkpt>
<trkpt lat="31.7759170" lon="35.1277830">
<ele>708.000000</ele>
<time>2025-10-17T16:36:54.267Z</time>
</trkpt>
<trkpt lat="31.7759330" lon="35.1277830">
<ele>707.799988</ele>
<time>2025-10-17T16:36:54.267Z</time>
</trkpt>
<trkpt lat="31.7759510" lon="35.1277810">
<ele>707.799988</ele>
<time>2025-10-17T16:36:54.267Z</time>
</trkpt>
<trkpt lat="31.7759680" lon="35.1277750">
<ele>707.599976</ele>
<time>2025-10-17T16:36:54.267Z</time>
</trkpt>
<trkpt lat="31.7759860" lon="35.1277710">
<ele>707.599976</ele>
<time>2025-10-17T16:36:54.267Z</time>
</trkpt>
<trkpt lat="31.7760190" lon="35.1277700">
<ele>707.599976</ele>
<time>2025-10-17T16:36:54.267Z</time>
</trkpt>
<trkpt lat="31.7760330" lon="35.1277650">
<ele>707.599976</ele>
<time>2025-10-17T16:36:54.267Z</time>
</trkpt>
<trkpt lat="31.7760410" lon="35.1277510">
<ele>707.799988</ele>
<time>2025-10-17T16:36:54.267Z</time>
</trkpt>
<trkpt lat="31.7760370" lon="35.1277310">
<ele>707.799988</ele>
<time>2025-10-17T16:36:54.267Z</time>
</trkpt>
<trkpt lat="31.7760270" lon="35.1277210">
<ele>708.000000</ele>
<time>2025-10-17T16:36:54.267Z</time>
</trkpt>
<trkpt lat="31.7760160" lon="35.1277280">
<ele>708.000000</ele>
<time>2025-10-17T16:36:54.267Z</time>
</trkpt>
<trkpt lat="31.7760030" lon="35.1277420">
<ele>708.000000</ele>
<time>2025-10-17T16:36:54.267Z</time>
</trkpt>
<trkpt lat="31.7759790" lon="35.1277510">
<ele>708.000000</ele>
<time>2025-10-17T16:36:54.267Z</time>
</trkpt>
<trkpt lat="31.7759320" lon="35.1277440">
<ele>708.000000</ele>
<time>2025-10-17T16:36:54.267Z</time>
</trkpt>
<trkpt lat="31.7759020" lon="35.1277400">
<ele>708.000000</ele>
<time>2025-10-17T16:36:54.267Z</time>
</trkpt>
<trkpt lat="31.7758740" lon="35.1277440">
<ele>708.000000</ele>
<time>2025-10-17T16:36:54.268Z</time>
</trkpt>
<trkpt lat="31.7758530" lon="35.1277510">
<ele>708.000000</ele>
<time>2025-10-17T16:36:54.268Z</time>
</trkpt>
<trkpt lat="31.7758390" lon="35.1277610">
<ele>707.799988</ele>
<time>2025-10-17T16:36:54.268Z</time>
</trkpt>
<trkpt lat="31.7758350" lon="35.1277710">
<ele>707.799988</ele>
<time>2025-10-17T16:36:54.268Z</time>
</trkpt>
<trkpt lat="31.7758330" lon="35.1277830">
<ele>707.799988</ele>
<time>2025-10-17T16:36:54.268Z</time>
</trkpt>
<trkpt lat="31.7758330" lon="35.1277970">
<ele>707.799988</ele>
<time>2025-10-17T16:36:54.268Z</time>
</trkpt>
<trkpt lat="31.7758360" lon="35.1278130">
<ele>707.599976</ele>
<time>2025-10-17T16:36:54.268Z</time>
</trkpt>
<trkpt lat="31.7758410" lon="35.1278270">
<ele>707.400024</ele>
<time>2025-10-17T16:36:54.268Z</time>
</trkpt>
<trkpt lat="31.7758480" lon="35.1278350">
<ele>707.400024</ele>
<time>2025-10-17T16:36:54.268Z</time>
</trkpt>
<trkpt lat="31.7758590" lon="35.1278380">
<ele>707.400024</ele>
<time>2025-10-17T16:36:54.268Z</time>
</trkpt>
<trkpt lat="31.7758720" lon="35.1278350">
<ele>707.400024</ele>
<time>2025-10-17T16:36:54.268Z</time>
</trkpt>
<trkpt lat="31.7758910" lon="35.1278330">
<ele>707.400024</ele>
<time>2025-10-17T16:36:54.268Z</time>
</trkpt>
<trkpt lat="31.7759220" lon="35.1278560">
<ele>707.400024</ele>
<time>2025-10-17T16:36:54.268Z</time>
</trkpt>
<trkpt lat="31.7759410" lon="35.1278720">
<ele>707.400024</ele>
<time>2025-10-17T16:36:54.268Z</time>
</trkpt>
<trkpt lat="31.7759600" lon="35.1278890">
<ele>707.200012</ele>
<time>2025-10-17T16:36:54.268Z</time>
</trkpt>
<trkpt lat="31.7759810" lon="35.1279220">
<ele>707.200012</ele>
<time>2025-10-17T16:36:54.268Z</time>
</trkpt>
<trkpt lat="31.7760110" lon="35.1279590">
<ele>706.399963</ele>
<time>2025-10-17T16:36:54.268Z</time>
</trkpt>
<trkpt lat="31.7760550" lon="35.1279880">
<ele>706.000000</ele>
<time>2025-10-17T16:36:54.268Z</time>
</trkpt>
<trkpt lat="31.7761050" lon="35.1280110">
<ele>705.799988</ele>
<time>2025-10-17T16:36:54.269Z</time>
</trkpt>
<trkpt lat="31.7761540" lon="35.1280330">
<ele>705.400024</ele>
<time>2025-10-17T16:36:54.269Z</time>
</trkpt>
<trkpt lat="31.7761950" lon="35.1280630">
<ele>705.199951</ele>
<time>2025-10-17T16:36:54.269Z</time>
</trkpt>
<trkpt lat="31.7762330" lon="35.1281020">
<ele>704.200012</ele>
<time>2025-10-17T16:36:54.269Z</time>
</trkpt>
<trkpt lat="31.7762720" lon="35.1281420">
<ele>703.799988</ele>
<time>2025-10-17T16:36:54.269Z</time>
</trkpt>
<trkpt lat="31.7763020" lon="35.1281830">
<ele>703.399963</ele>
<time>2025-10-17T16:36:54.269Z</time>
</trkpt>
<trkpt lat="31.7763340" lon="35.1282150">
<ele>703.000000</ele>
<time>2025-10-17T16:36:54.269Z</time>
</trkpt>
<trkpt lat="31.7763770" lon="35.1282390">
<ele>702.600037</ele>
<time>2025-10-17T16:36:54.269Z</time>
</trkpt>
<trkpt lat="31.7764650" lon="35.1282800">
<ele>702.399963</ele>
<time>2025-10-17T16:36:54.269Z</time>
</trkpt>
<trkpt lat="31.7765030" lon="35.1283090">
<ele>701.799988</ele>
<time>2025-10-17T16:36:54.269Z</time>
</trkpt>
<trkpt lat="31.7765350" lon="35.1283360">
<ele>701.200012</ele>
<time>2025-10-17T16:36:54.269Z</time>
</trkpt>
<trkpt lat="31.7765580" lon="35.1283630">
<ele>700.799988</ele>
<time>2025-10-17T16:36:54.269Z</time>
</trkpt>
<trkpt lat="31.7765700" lon="35.1283900">
<ele>700.599976</ele>
<time>2025-10-17T16:36:54.269Z</time>
</trkpt>
<trkpt lat="31.7765770" lon="35.1284200">
<ele>700.000000</ele>
<time>2025-10-17T16:36:54.269Z</time>
</trkpt>
<trkpt lat="31.7765790" lon="35.1284430">
<ele>700.000000</ele>
<time>2025-10-17T16:36:54.269Z</time>
</trkpt>
<trkpt lat="31.7765790" lon="35.1284500">
<ele>699.600037</ele>
<time>2025-10-17T16:36:54.269Z</time>
</trkpt>
<trkpt lat="31.7765790" lon="35.1284500">
<ele>699.199951</ele>
<time>2025-10-17T16:36:54.269Z</time>
</trkpt>
<trkpt lat="31.7765890" lon="35.1287090">
<ele>692.199951</ele>
<time>2025-10-17T16:36:54.269Z</time>
</trkpt>
<trkpt lat="31.7765900" lon="35.1287410">
<ele>692.000061</ele>
<time>2025-10-17T16:36:54.270Z</time>
</trkpt>
<trkpt lat="31.7765910" lon="35.1287690">
<ele>691.799988</ele>
<time>2025-10-17T16:36:54.270Z</time>
</trkpt>
<trkpt lat="31.7765920" lon="35.1287850">
<ele>691.400024</ele>
<time>2025-10-17T16:36:54.270Z</time>
</trkpt>
<trkpt lat="31.7765920" lon="35.1287920">
<ele>691.200012</ele>
<time>2025-10-17T16:36:54.270Z</time>
</trkpt>
<trkpt lat="31.7765920" lon="35.1287920">
<ele>690.800049</ele>
<time>2025-10-17T16:36:54.270Z</time>
</trkpt>
<trkpt lat="31.7765160" lon="35.1289110">
<ele>688.200012</ele>
<time>2025-10-17T16:36:54.270Z</time>
</trkpt>
<trkpt lat="31.7764240" lon="35.1289460">
<ele>688.200012</ele>
<time>2025-10-17T16:36:54.270Z</time>
</trkpt>
<trkpt lat="31.7763590" lon="35.1289570">
<ele>687.800049</ele>
<time>2025-10-17T16:36:54.270Z</time>
</trkpt>
<trkpt lat="31.7762920" lon="35.1289590">
<ele>687.599976</ele>
<time>2025-10-17T16:36:54.270Z</time>
</trkpt>
<trkpt lat="31.7762250" lon="35.1289460">
<ele>687.000000</ele>
<time>2025-10-17T16:36:54.270Z</time>
</trkpt>
<trkpt lat="31.7761590" lon="35.1289280">
<ele>686.600037</ele>
<time>2025-10-17T16:36:54.270Z</time>
</trkpt>
<trkpt lat="31.7760950" lon="35.1289130">
<ele>686.000000</ele>
<time>2025-10-17T16:36:54.270Z</time>
</trkpt>
<trkpt lat="31.7760370" lon="35.1288980">
<ele>685.599976</ele>
<time>2025-10-17T16:36:54.270Z</time>
</trkpt>
<trkpt lat="31.7759780" lon="35.1288850">
<ele>684.800049</ele>
<time>2025-10-17T16:36:54.270Z</time>
</trkpt>
<trkpt lat="31.7758530" lon="35.1288650">
<ele>683.600037</ele>
<time>2025-10-17T16:36:54.270Z</time>
</trkpt>
<trkpt lat="31.7755750" lon="35.1288210">
<ele>682.400024</ele>
<time>2025-10-17T16:36:54.270Z</time>
</trkpt>
<trkpt lat="31.7754290" lon="35.1288040">
<ele>681.800049</ele>
<time>2025-10-17T16:36:54.270Z</time>
</trkpt>
<trkpt lat="31.7753560" lon="35.1287900">
<ele>681.200012</ele>
<time>2025-10-17T16:36:54.270Z</time>
</trkpt>
<trkpt lat="31.7751330" lon="35.1287420">
<ele>680.000000</ele>
<time>2025-10-17T16:36:54.270Z</time>
</trkpt>
<trkpt lat="31.7749030" lon="35.1286670">
<ele>679.400024</ele>
<time>2025-10-17T16:36:54.271Z</time>
</trkpt>
<trkpt lat="31.7748270" lon="35.1286320">
<ele>678.999939</ele>
<time>2025-10-17T16:36:54.271Z</time>
</trkpt>
<trkpt lat="31.7746090" lon="35.1285070">
<ele>677.600037</ele>
<time>2025-10-17T16:36:54.271Z</time>
</trkpt>
<trkpt lat="31.7745340" lon="35.1284670">
<ele>677.199951</ele>
<time>2025-10-17T16:36:54.271Z</time>
</trkpt>
<trkpt lat="31.7743820" lon="35.1283780">
<ele>676.400024</ele>
<time>2025-10-17T16:36:54.271Z</time>
</trkpt>
<trkpt lat="31.7741320" lon="35.1282110">
<ele>674.600037</ele>
<time>2025-10-17T16:36:54.271Z</time>
</trkpt>
<trkpt lat="31.7739910" lon="35.1280810">
<ele>673.000061</ele>
<time>2025-10-17T16:36:54.271Z</time>
</trkpt>
<trkpt lat="31.7739320" lon="35.1280210">
<ele>672.599976</ele>
<time>2025-10-17T16:36:54.271Z</time>
</trkpt>
<trkpt lat="31.7738620" lon="35.1279450">
<ele>671.800049</ele>
<time>2025-10-17T16:36:54.271Z</time>
</trkpt>
<trkpt lat="31.7737760" lon="35.1277980">
<ele>670.600037</ele>
<time>2025-10-17T16:36:54.271Z</time>
</trkpt>
<trkpt lat="31.7737470" lon="35.1276860">
<ele>670.400024</ele>
<time>2025-10-17T16:36:54.271Z</time>
</trkpt>
<trkpt lat="31.7737410" lon="35.1276040">
<ele>670.000061</ele>
<time>2025-10-17T16:36:54.271Z</time>
</trkpt>
<trkpt lat="31.7737410" lon="35.1275000">
<ele>668.800049</ele>
<time>2025-10-17T16:36:54.271Z</time>
</trkpt>
<trkpt lat="31.7737420" lon="35.1273920">
<ele>668.000000</ele>
<time>2025-10-17T16:36:54.271Z</time>
</trkpt>
<trkpt lat="31.7737420" lon="35.1272790">
<ele>666.799988</ele>
<time>2025-10-17T16:36:54.271Z</time>
</trkpt>
<trkpt lat="31.7737280" lon="35.1270480">
<ele>665.800049</ele>
<time>2025-10-17T16:36:54.271Z</time>
</trkpt>
<trkpt lat="31.7736980" lon="35.1269420">
<ele>665.599976</ele>
<time>2025-10-17T16:36:54.271Z</time>
</trkpt>
<trkpt lat="31.7736420" lon="35.1268570">
<ele>664.000000</ele>
<time>2025-10-17T16:36:54.271Z</time>
</trkpt>
<trkpt lat="31.7735670" lon="35.1268000">
<ele>662.800049</ele>
<time>2025-10-17T16:36:54.271Z</time>
</trkpt>
<trkpt lat="31.7734840" lon="35.1267680">
<ele>662.399963</ele>
<time>2025-10-17T16:36:54.272Z</time>
</trkpt>
<trkpt lat="31.7733960" lon="35.1267520">
<ele>661.799988</ele>
<time>2025-10-17T16:36:54.272Z</time>
</trkpt>
<trkpt lat="31.7732870" lon="35.1267420">
<ele>661.600037</ele>
<time>2025-10-17T16:36:54.272Z</time>
</trkpt>
<trkpt lat="31.7732140" lon="35.1267340">
<ele>661.199951</ele>
<time>2025-10-17T16:36:54.272Z</time>
</trkpt>
<trkpt lat="31.7730350" lon="35.1266770">
<ele>660.400024</ele>
<time>2025-10-17T16:36:54.272Z</time>
</trkpt>
<trkpt lat="31.7729490" lon="35.1266320">
<ele>660.200012</ele>
<time>2025-10-17T16:36:54.272Z</time>
</trkpt>
<trkpt lat="31.7727830" lon="35.1265520">
<ele>658.600037</ele>
<time>2025-10-17T16:36:54.272Z</time>
</trkpt>
<trkpt lat="31.7727020" lon="35.1265220">
<ele>658.199951</ele>
<time>2025-10-17T16:36:54.272Z</time>
</trkpt>
<trkpt lat="31.7726250" lon="35.1264980">
<ele>657.599976</ele>
<time>2025-10-17T16:36:54.272Z</time>
</trkpt>
<trkpt lat="31.7725470" lon="35.1264790">
<ele>657.400024</ele>
<time>2025-10-17T16:36:54.272Z</time>
</trkpt>
<trkpt lat="31.7724660" lon="35.1264670">
<ele>657.000000</ele>
<time>2025-10-17T16:36:54.272Z</time>
</trkpt>
<trkpt lat="31.7721110" lon="35.1264170">
<ele>656.599976</ele>
<time>2025-10-17T16:36:54.272Z</time>
</trkpt>
<trkpt lat="31.7717660" lon="35.1263650">
<ele>655.400024</ele>
<time>2025-10-17T16:36:54.272Z</time>
</trkpt>
<trkpt lat="31.7716780" lon="35.1263680">
<ele>655.000000</ele>
<time>2025-10-17T16:36:54.272Z</time>
</trkpt>
<trkpt lat="31.7715250" lon="35.1263740">
<ele>653.999939</ele>
<time>2025-10-17T16:36:54.272Z</time>
</trkpt>
<trkpt lat="31.7713270" lon="35.1263680">
<ele>653.599976</ele>
<time>2025-10-17T16:36:54.272Z</time>
</trkpt>
<trkpt lat="31.7711480" lon="35.1263340">
<ele>652.600037</ele>
<time>2025-10-17T16:36:54.272Z</time>
</trkpt>
<trkpt lat="31.7710830" lon="35.1263190">
<ele>651.799988</ele>
<time>2025-10-17T16:36:54.272Z</time>
</trkpt>
<trkpt lat="31.7710070" lon="35.1263000">
<ele>651.200012</ele>
<time>2025-10-17T16:36:54.273Z</time>
</trkpt>
<trkpt lat="31.7709150" lon="35.1262760">
<ele>650.200012</ele>
<time>2025-10-17T16:36:54.273Z</time>
</trkpt>
<trkpt lat="31.7708520" lon="35.1262650">
<ele>650.000000</ele>
<time>2025-10-17T16:36:54.273Z</time>
</trkpt>
<trkpt lat="31.7707780" lon="35.1262520">
<ele>649.399963</ele>
<time>2025-10-17T16:36:54.273Z</time>
</trkpt>
<trkpt lat="31.7707070" lon="35.1262370">
<ele>649.000000</ele>
<time>2025-10-17T16:36:54.273Z</time>
</trkpt>
<trkpt lat="31.7706310" lon="35.1262080">
<ele>648.400024</ele>
<time>2025-10-17T16:36:54.273Z</time>
</trkpt>
<trkpt lat="31.7705860" lon="35.1261820">
<ele>647.599976</ele>
<time>2025-10-17T16:36:54.273Z</time>
</trkpt>
<trkpt lat="31.7705160" lon="35.1261380">
<ele>646.600037</ele>
<time>2025-10-17T16:36:54.273Z</time>
</trkpt>
<trkpt lat="31.7704700" lon="35.1261090">
<ele>646.200012</ele>
<time>2025-10-17T16:36:54.273Z</time>
</trkpt>
<trkpt lat="31.7704150" lon="35.1260710">
<ele>645.400024</ele>
<time>2025-10-17T16:36:54.273Z</time>
</trkpt>
<trkpt lat="31.7703550" lon="35.1260300">
<ele>644.599976</ele>
<time>2025-10-17T16:36:54.274Z</time>
</trkpt>
<trkpt lat="31.7703120" lon="35.1259980">
<ele>644.599976</ele>
<time>2025-10-17T16:36:54.274Z</time>
</trkpt>
<trkpt lat="31.7702810" lon="35.1259730">
<ele>644.400024</ele>
<time>2025-10-17T16:36:54.274Z</time>
</trkpt>
<trkpt lat="31.7702460" lon="35.1259400">
<ele>644.400024</ele>
<time>2025-10-17T16:36:54.274Z</time>
</trkpt>
<trkpt lat="31.7702180" lon="35.1259060">
<ele>644.200012</ele>
<time>2025-10-17T16:36:54.274Z</time>
</trkpt>
<trkpt lat="31.7701910" lon="35.1258630">
<ele>644.200012</ele>
<time>2025-10-17T16:36:54.274Z</time>
</trkpt>
<trkpt lat="31.7701760" lon="35.1258250">
<ele>644.200012</ele>
<time>2025-10-17T16:36:54.274Z</time>
</trkpt>
<trkpt lat="31.7701630" lon="35.1257860">
<ele>644.400024</ele>
<time>2025-10-17T16:36:54.274Z</time>
</trkpt>
<trkpt lat="31.7701570" lon="35.1257560">
<ele>644.400024</ele>
<time>2025-10-17T16:36:54.274Z</time>
</trkpt>
<trkpt lat="31.7701500" lon="35.1257220">
<ele>644.799988</ele>
<time>2025-10-17T16:36:54.274Z</time>
</trkpt>
<trkpt lat="31.7701430" lon="35.1256780">
<ele>644.799988</ele>
<time>2025-10-17T16:36:54.274Z</time>
</trkpt>
<trkpt lat="31.7701410" lon="35.1256330">
<ele>645.400024</ele>
<time>2025-10-17T16:36:54.274Z</time>
</trkpt>
<trkpt lat="31.7701430" lon="35.1255510">
<ele>645.600037</ele>
<time>2025-10-17T16:36:54.274Z</time>
</trkpt>
<trkpt lat="31.7701690" lon="35.1254410">
<ele>646.200012</ele>
<time>2025-10-17T16:36:54.274Z</time>
</trkpt>
<trkpt lat="31.7701820" lon="35.1254040">
<ele>646.399963</ele>
<time>2025-10-17T16:36:54.274Z</time>
</trkpt>
<trkpt lat="31.7701910" lon="35.1253800">
<ele>646.600037</ele>
<time>2025-10-17T16:36:54.274Z</time>
</trkpt>
<trkpt lat="31.7702030" lon="35.1253520">
<ele>646.800049</ele>
<time>2025-10-17T16:36:54.274Z</time>
</trkpt>
<trkpt lat="31.7702160" lon="35.1253190">
<ele>647.000000</ele>
<time>2025-10-17T16:36:54.274Z</time>
</trkpt>
<trkpt lat="31.7702280" lon="35.1252910">
<ele>647.200012</ele>
<time>2025-10-17T16:36:54.274Z</time>
</trkpt>
<trkpt lat="31.7702400" lon="35.1252710">
<ele>647.400024</ele>
<time>2025-10-17T16:36:54.274Z</time>
</trkpt>
<trkpt lat="31.7702540" lon="35.1252460">
<ele>647.799988</ele>
<time>2025-10-17T16:36:54.275Z</time>
</trkpt>
<trkpt lat="31.7702670" lon="35.1252180">
<ele>648.200012</ele>
<time>2025-10-17T16:36:54.275Z</time>
</trkpt>
<trkpt lat="31.7702830" lon="35.1251830">
<ele>648.400024</ele>
<time>2025-10-17T16:36:54.275Z</time>
</trkpt>
<trkpt lat="31.7703110" lon="35.1251240">
<ele>649.000000</ele>
<time>2025-10-17T16:36:54.275Z</time>
</trkpt>
<trkpt lat="31.7703200" lon="35.1251040">
<ele>649.399963</ele>
<time>2025-10-17T16:36:54.275Z</time>
</trkpt>
<trkpt lat="31.7703300" lon="35.1250780">
<ele>649.600037</ele>
<time>2025-10-17T16:36:54.275Z</time>
</trkpt>
<trkpt lat="31.7703410" lon="35.1250510">
<ele>649.799988</ele>
<time>2025-10-17T16:36:54.275Z</time>
</trkpt>
<trkpt lat="31.7703630" lon="35.1250040">
<ele>650.599976</ele>
<time>2025-10-17T16:36:54.275Z</time>
</trkpt>
<trkpt lat="31.7703750" lon="35.1249870">
<ele>650.999939</ele>
<time>2025-10-17T16:36:54.275Z</time>
</trkpt>
<trkpt lat="31.7703890" lon="35.1249650">
<ele>651.200012</ele>
<time>2025-10-17T16:36:54.275Z</time>
</trkpt>
<trkpt lat="31.7704070" lon="35.1249410">
<ele>651.799988</ele>
<time>2025-10-17T16:36:54.275Z</time>
</trkpt>
<trkpt lat="31.7704230" lon="35.1249200">
<ele>652.000000</ele>
<time>2025-10-17T16:36:54.275Z</time>
</trkpt>
<trkpt lat="31.7704360" lon="35.1248990">
<ele>652.199951</ele>
<time>2025-10-17T16:36:54.275Z</time>
</trkpt>
<trkpt lat="31.7704460" lon="35.1248830">
<ele>652.399963</ele>
<time>2025-10-17T16:36:54.275Z</time>
</trkpt>
<trkpt lat="31.7704590" lon="35.1248630">
<ele>652.799988</ele>
<time>2025-10-17T16:36:54.275Z</time>
</trkpt>
<trkpt lat="31.7704730" lon="35.1248400">
<ele>653.200012</ele>
<time>2025-10-17T16:36:54.275Z</time>
</trkpt>
<trkpt lat="31.7704850" lon="35.1248260">
<ele>653.399963</ele>
<time>2025-10-17T16:36:54.275Z</time>
</trkpt>
<trkpt lat="31.7705030" lon="35.1248050">
<ele>653.599976</ele>
<time>2025-10-17T16:36:54.275Z</time>
</trkpt>
<trkpt lat="31.7705140" lon="35.1247910">
<ele>653.800049</ele>
<time>2025-10-17T16:36:54.275Z</time>
</trkpt>
<trkpt lat="31.7705240" lon="35.1247710">
<ele>654.200012</ele>
<time>2025-10-17T16:36:54.276Z</time>
</trkpt>
<trkpt lat="31.7705340" lon="35.1247500">
<ele>654.400024</ele>
<time>2025-10-17T16:36:54.276Z</time>
</trkpt>
<trkpt lat="31.7705460" lon="35.1247250">
<ele>654.799988</ele>
<time>2025-10-17T16:36:54.276Z</time>
</trkpt>
<trkpt lat="31.7705560" lon="35.1247050">
<ele>655.000000</ele>
<time>2025-10-17T16:36:54.276Z</time>
</trkpt>
<trkpt lat="31.7705660" lon="35.1246880">
<ele>655.400024</ele>
<time>2025-10-17T16:36:54.276Z</time>
</trkpt>
<trkpt lat="31.7705780" lon="35.1246670">
<ele>655.400024</ele>
<time>2025-10-17T16:36:54.276Z</time>
</trkpt>
<trkpt lat="31.7705890" lon="35.1246460">
<ele>655.600037</ele>
<time>2025-10-17T16:36:54.276Z</time>
</trkpt>
<trkpt lat="31.7706010" lon="35.1246230">
<ele>655.799988</ele>
<time>2025-10-17T16:36:54.276Z</time>
</trkpt>
<trkpt lat="31.7706120" lon="35.1246100">
<ele>655.799988</ele>
<time>2025-10-17T16:36:54.276Z</time>
</trkpt>
<trkpt lat="31.7706250" lon="35.1245940">
<ele>656.000000</ele>
<time>2025-10-17T16:36:54.276Z</time>
</trkpt>
<trkpt lat="31.7706380" lon="35.1245790">
<ele>656.200012</ele>
<time>2025-10-17T16:36:54.276Z</time>
</trkpt>
<trkpt lat="31.7706520" lon="35.1245570">
<ele>656.200012</ele>
<time>2025-10-17T16:36:54.276Z</time>
</trkpt>
<trkpt lat="31.7706630" lon="35.1245390">
<ele>656.599976</ele>
<time>2025-10-17T16:36:54.276Z</time>
</trkpt>
<trkpt lat="31.7706700" lon="35.1245230">
<ele>656.800049</ele>
<time>2025-10-17T16:36:54.276Z</time>
</trkpt>
<trkpt lat="31.7706800" lon="35.1245030">
<ele>657.000000</ele>
<time>2025-10-17T16:36:54.276Z</time>
</trkpt>
<trkpt lat="31.7706890" lon="35.1244860">
<ele>657.200012</ele>
<time>2025-10-17T16:36:54.276Z</time>
</trkpt>
<trkpt lat="31.7707000" lon="35.1244710">
<ele>657.400024</ele>
<time>2025-10-17T16:36:54.276Z</time>
</trkpt>
<trkpt lat="31.7707120" lon="35.1244520">
<ele>657.400024</ele>
<time>2025-10-17T16:36:54.276Z</time>
</trkpt>
<trkpt lat="31.7707240" lon="35.1244380">
<ele>657.599976</ele>
<time>2025-10-17T16:36:54.276Z</time>
</trkpt>
<trkpt lat="31.7707340" lon="35.1244270">
<ele>657.799988</ele>
<time>2025-10-17T16:36:54.276Z</time>
</trkpt>
<trkpt lat="31.7707460" lon="35.1244130">
<ele>657.799988</ele>
<time>2025-10-17T16:36:54.276Z</time>
</trkpt>
<trkpt lat="31.7707600" lon="35.1243960">
<ele>658.000000</ele>
<time>2025-10-17T16:36:54.276Z</time>
</trkpt>
<trkpt lat="31.7707730" lon="35.1243830">
<ele>658.199951</ele>
<time>2025-10-17T16:36:54.276Z</time>
</trkpt>
<trkpt lat="31.7707860" lon="35.1243710">
<ele>658.199951</ele>
<time>2025-10-17T16:36:54.276Z</time>
</trkpt>
<trkpt lat="31.7707950" lon="35.1243590">
<ele>658.600037</ele>
<time>2025-10-17T16:36:54.276Z</time>
</trkpt>
<trkpt lat="31.7708050" lon="35.1243430">
<ele>658.600037</ele>
<time>2025-10-17T16:36:54.277Z</time>
</trkpt>
<trkpt lat="31.7708160" lon="35.1243280">
<ele>659.000000</ele>
<time>2025-10-17T16:36:54.277Z</time>
</trkpt>
<trkpt lat="31.7708310" lon="35.1243120">
<ele>659.200012</ele>
<time>2025-10-17T16:36:54.277Z</time>
</trkpt>
<trkpt lat="31.7708400" lon="35.1243000">
<ele>659.200012</ele>
<time>2025-10-17T16:36:54.277Z</time>
</trkpt>
<trkpt lat="31.7708510" lon="35.1242840">
<ele>659.399963</ele>
<time>2025-10-17T16:36:54.277Z</time>
</trkpt>
<trkpt lat="31.7708600" lon="35.1242670">
<ele>659.399963</ele>
<time>2025-10-17T16:36:54.277Z</time>
</trkpt>
<trkpt lat="31.7708670" lon="35.1242510">
<ele>659.800049</ele>
<time>2025-10-17T16:36:54.277Z</time>
</trkpt>
<trkpt lat="31.7708770" lon="35.1242350">
<ele>659.800049</ele>
<time>2025-10-17T16:36:54.277Z</time>
</trkpt>
<trkpt lat="31.7708880" lon="35.1242210">
<ele>660.000000</ele>
<time>2025-10-17T16:36:54.277Z</time>
</trkpt>
<trkpt lat="31.7709010" lon="35.1242050">
<ele>660.200012</ele>
<time>2025-10-17T16:36:54.277Z</time>
</trkpt>
<trkpt lat="31.7709130" lon="35.1241880">
<ele>660.400024</ele>
<time>2025-10-17T16:36:54.277Z</time>
</trkpt>
<trkpt lat="31.7709230" lon="35.1241720">
<ele>660.400024</ele>
<time>2025-10-17T16:36:54.277Z</time>
</trkpt>
<trkpt lat="31.7709350" lon="35.1241550">
<ele>660.799988</ele>
<time>2025-10-17T16:36:54.277Z</time>
</trkpt>
<trkpt lat="31.7709480" lon="35.1241390">
<ele>661.199951</ele>
<time>2025-10-17T16:36:54.277Z</time>
</trkpt>
<trkpt lat="31.7709620" lon="35.1241240">
<ele>661.400024</ele>
<time>2025-10-17T16:36:54.277Z</time>
</trkpt>
<trkpt lat="31.7709770" lon="35.1241100">
<ele>661.600037</ele>
<time>2025-10-17T16:36:54.277Z</time>
</trkpt>
<trkpt lat="31.7709920" lon="35.1240950">
<ele>661.600037</ele>
<time>2025-10-17T16:36:54.277Z</time>
</trkpt>
<trkpt lat="31.7710060" lon="35.1240800">
<ele>661.600037</ele>
<time>2025-10-17T16:36:54.277Z</time>
</trkpt>
<trkpt lat="31.7710160" lon="35.1240650">
<ele>661.799988</ele>
<time>2025-10-17T16:36:54.277Z</time>
</trkpt>
<trkpt lat="31.7710250" lon="35.1240520">
<ele>661.799988</ele>
<time>2025-10-17T16:36:54.277Z</time>
</trkpt>
<trkpt lat="31.7710380" lon="35.1240400">
<ele>662.000000</ele>
<time>2025-10-17T16:36:54.277Z</time>
</trkpt>
<trkpt lat="31.7710510" lon="35.1240240">
<ele>662.000000</ele>
<time>2025-10-17T16:36:54.277Z</time>
</trkpt>
<trkpt lat="31.7710590" lon="35.1240130">
<ele>662.200012</ele>
<time>2025-10-17T16:36:54.278Z</time>
</trkpt>
<trkpt lat="31.7710720" lon="35.1239980">
<ele>662.399963</ele>
<time>2025-10-17T16:36:54.278Z</time>
</trkpt>
<trkpt lat="31.7710850" lon="35.1239840">
<ele>662.599976</ele>
<time>2025-10-17T16:36:54.278Z</time>
</trkpt>
<trkpt lat="31.7710960" lon="35.1239670">
<ele>662.599976</ele>
<time>2025-10-17T16:36:54.278Z</time>
</trkpt>
<trkpt lat="31.7711030" lon="35.1239470">
<ele>662.800049</ele>
<time>2025-10-17T16:36:54.278Z</time>
</trkpt>
<trkpt lat="31.7711130" lon="35.1239300">
<ele>663.200012</ele>
<time>2025-10-17T16:36:54.278Z</time>
</trkpt>
<trkpt lat="31.7711260" lon="35.1239160">
<ele>663.400024</ele>
<time>2025-10-17T16:36:54.278Z</time>
</trkpt>
<trkpt lat="31.7711400" lon="35.1239040">
<ele>663.599976</ele>
<time>2025-10-17T16:36:54.278Z</time>
</trkpt>
<trkpt lat="31.7711530" lon="35.1238930">
<ele>663.799988</ele>
<time>2025-10-17T16:36:54.278Z</time>
</trkpt>
<trkpt lat="31.7711650" lon="35.1238800">
<ele>663.799988</ele>
<time>2025-10-17T16:36:54.278Z</time>
</trkpt>
<trkpt lat="31.7711770" lon="35.1238660">
<ele>664.000000</ele>
<time>2025-10-17T16:36:54.278Z</time>
</trkpt>
<trkpt lat="31.7711900" lon="35.1238510">
<ele>664.199951</ele>
<time>2025-10-17T16:36:54.278Z</time>
</trkpt>
<trkpt lat="31.7712010" lon="35.1238350">
<ele>664.400024</ele>
<time>2025-10-17T16:36:54.278Z</time>
</trkpt>
<trkpt lat="31.7712130" lon="35.1238210">
<ele>664.400024</ele>
<time>2025-10-17T16:36:54.278Z</time>
</trkpt>
<trkpt lat="31.7712270" lon="35.1238080">
<ele>664.600037</ele>
<time>2025-10-17T16:36:54.278Z</time>
</trkpt>
<trkpt lat="31.7712450" lon="35.1237930">
<ele>664.799988</ele>
<time>2025-10-17T16:36:54.278Z</time>
</trkpt>
<trkpt lat="31.7712590" lon="35.1237810">
<ele>664.799988</ele>
<time>2025-10-17T16:36:54.278Z</time>
</trkpt>
<trkpt lat="31.7712700" lon="35.1237700">
<ele>665.000000</ele>
<time>2025-10-17T16:36:54.278Z</time>
</trkpt>
<trkpt lat="31.7712840" lon="35.1237570">
<ele>665.000000</ele>
<time>2025-10-17T16:36:54.278Z</time>
</trkpt>
<trkpt lat="31.7713010" lon="35.1237420">
<ele>665.200012</ele>
<time>2025-10-17T16:36:54.278Z</time>
</trkpt>
<trkpt lat="31.7713140" lon="35.1237270">
<ele>665.599976</ele>
<time>2025-10-17T16:36:54.278Z</time>
</trkpt>
<trkpt lat="31.7713240" lon="35.1237150">
<ele>665.599976</ele>
<time>2025-10-17T16:36:54.278Z</time>
</trkpt>
<trkpt lat="31.7713390" lon="35.1237020">
<ele>665.800049</ele>
<time>2025-10-17T16:36:54.278Z</time>
</trkpt>
<trkpt lat="31.7713530" lon="35.1236890">
<ele>666.000000</ele>
<time>2025-10-17T16:36:54.278Z</time>
</trkpt>
<trkpt lat="31.7713650" lon="35.1236750">
<ele>666.000000</ele>
<time>2025-10-17T16:36:54.279Z</time>
</trkpt>
<trkpt lat="31.7713810" lon="35.1236590">
<ele>666.000000</ele>
<time>2025-10-17T16:36:54.279Z</time>
</trkpt>
<trkpt lat="31.7713910" lon="35.1236480">
<ele>666.200012</ele>
<time>2025-10-17T16:36:54.279Z</time>
</trkpt>
<trkpt lat="31.7714030" lon="35.1236360">
<ele>666.200012</ele>
<time>2025-10-17T16:36:54.279Z</time>
</trkpt>
<trkpt lat="31.7714170" lon="35.1236220">
<ele>666.400024</ele>
<time>2025-10-17T16:36:54.279Z</time>
</trkpt>
<trkpt lat="31.7714260" lon="35.1236110">
<ele>666.400024</ele>
<time>2025-10-17T16:36:54.279Z</time>
</trkpt>
<trkpt lat="31.7714340" lon="35.1235930">
<ele>666.599976</ele>
<time>2025-10-17T16:36:54.279Z</time>
</trkpt>
<trkpt lat="31.7714440" lon="35.1235780">
<ele>666.799988</ele>
<time>2025-10-17T16:36:54.279Z</time>
</trkpt>
<trkpt lat="31.7714540" lon="35.1235670">
<ele>667.000061</ele>
<time>2025-10-17T16:36:54.279Z</time>
</trkpt>
<trkpt lat="31.7714680" lon="35.1235590">
<ele>667.200012</ele>
<time>2025-10-17T16:36:54.279Z</time>
</trkpt>
<trkpt lat="31.7714820" lon="35.1235480">
<ele>667.400024</ele>
<time>2025-10-17T16:36:54.279Z</time>
</trkpt>
<trkpt lat="31.7714950" lon="35.1235330">
<ele>667.600037</ele>
<time>2025-10-17T16:36:54.279Z</time>
</trkpt>
<trkpt lat="31.7715050" lon="35.1235190">
<ele>667.600037</ele>
<time>2025-10-17T16:36:54.279Z</time>
</trkpt>
<trkpt lat="31.7715160" lon="35.1235040">
<ele>667.799988</ele>
<time>2025-10-17T16:36:54.279Z</time>
</trkpt>
<trkpt lat="31.7715280" lon="35.1234890">
<ele>667.799988</ele>
<time>2025-10-17T16:36:54.279Z</time>
</trkpt>
<trkpt lat="31.7715390" lon="35.1234730">
<ele>668.000000</ele>
<time>2025-10-17T16:36:54.279Z</time>
</trkpt>
<trkpt lat="31.7715530" lon="35.1234540">
<ele>668.399963</ele>
<time>2025-10-17T16:36:54.279Z</time>
</trkpt>
<trkpt lat="31.7715580" lon="35.1234420">
<ele>668.399963</ele>
<time>2025-10-17T16:36:54.279Z</time>
</trkpt>
<trkpt lat="31.7715700" lon="35.1234290">
<ele>668.600037</ele>
<time>2025-10-17T16:36:54.279Z</time>
</trkpt>
<trkpt lat="31.7715830" lon="35.1234130">
<ele>668.600037</ele>
<time>2025-10-17T16:36:54.279Z</time>
</trkpt>
<trkpt lat="31.7716000" lon="35.1233940">
<ele>668.800049</ele>
<time>2025-10-17T16:36:54.280Z</time>
</trkpt>
<trkpt lat="31.7716130" lon="35.1233810">
<ele>668.800049</ele>
<time>2025-10-17T16:36:54.280Z</time>
</trkpt>
<trkpt lat="31.7716220" lon="35.1233680">
<ele>669.000000</ele>
<time>2025-10-17T16:36:54.280Z</time>
</trkpt>
<trkpt lat="31.7716320" lon="35.1233540">
<ele>669.200012</ele>
<time>2025-10-17T16:36:54.280Z</time>
</trkpt>
<trkpt lat="31.7716420" lon="35.1233380">
<ele>669.400024</ele>
<time>2025-10-17T16:36:54.280Z</time>
</trkpt>
<trkpt lat="31.7716510" lon="35.1233190">
<ele>669.599976</ele>
<time>2025-10-17T16:36:54.280Z</time>
</trkpt>
<trkpt lat="31.7716580" lon="35.1233000">
<ele>669.799988</ele>
<time>2025-10-17T16:36:54.280Z</time>
</trkpt>
<trkpt lat="31.7716670" lon="35.1232790">
<ele>670.000061</ele>
<time>2025-10-17T16:36:54.280Z</time>
</trkpt>
<trkpt lat="31.7716740" lon="35.1232570">
<ele>670.200012</ele>
<time>2025-10-17T16:36:54.280Z</time>
</trkpt>
<trkpt lat="31.7716820" lon="35.1232350">
<ele>670.400024</ele>
<time>2025-10-17T16:36:54.280Z</time>
</trkpt>
<trkpt lat="31.7716920" lon="35.1232070">
<ele>670.400024</ele>
<time>2025-10-17T16:36:54.280Z</time>
</trkpt>
<trkpt lat="31.7717010" lon="35.1231840">
<ele>670.799988</ele>
<time>2025-10-17T16:36:54.280Z</time>
</trkpt>
<trkpt lat="31.7717080" lon="35.1231670">
<ele>670.799988</ele>
<time>2025-10-17T16:36:54.280Z</time>
</trkpt>
<trkpt lat="31.7717150" lon="35.1231470">
<ele>671.000000</ele>
<time>2025-10-17T16:36:54.280Z</time>
</trkpt>
<trkpt lat="31.7717190" lon="35.1231260">
<ele>671.200012</ele>
<time>2025-10-17T16:36:54.280Z</time>
</trkpt>
<trkpt lat="31.7717260" lon="35.1231010">
<ele>671.399963</ele>
<time>2025-10-17T16:36:54.280Z</time>
</trkpt>
<trkpt lat="31.7717270" lon="35.1230790">
<ele>671.399963</ele>
<time>2025-10-17T16:36:54.280Z</time>
</trkpt>
<trkpt lat="31.7717280" lon="35.1230590">
<ele>671.600037</ele>
<time>2025-10-17T16:36:54.280Z</time>
</trkpt>
<trkpt lat="31.7717270" lon="35.1230290">
<ele>671.800049</ele>
<time>2025-10-17T16:36:54.280Z</time>
</trkpt>
<trkpt lat="31.7717180" lon="35.1229940">
<ele>672.000000</ele>
<time>2025-10-17T16:36:54.280Z</time>
</trkpt>
<trkpt lat="31.7717000" lon="35.1229530">
<ele>672.000000</ele>
<time>2025-10-17T16:36:54.280Z</time>
</trkpt>
<trkpt lat="31.7716730" lon="35.1229080">
<ele>672.000000</ele>
<time>2025-10-17T16:36:54.280Z</time>
</trkpt>
<trkpt lat="31.7716530" lon="35.1228830">
<ele>672.200012</ele>
<time>2025-10-17T16:36:54.281Z</time>
</trkpt>
<trkpt lat="31.7716260" lon="35.1228560">
<ele>672.200012</ele>
<time>2025-10-17T16:36:54.281Z</time>
</trkpt>
<trkpt lat="31.7715950" lon="35.1228390">
<ele>672.200012</ele>
<time>2025-10-17T16:36:54.281Z</time>
</trkpt>
<trkpt lat="31.7715650" lon="35.1228250">
<ele>672.200012</ele>
<time>2025-10-17T16:36:54.281Z</time>
</trkpt>
<trkpt lat="31.7715340" lon="35.1228030">
<ele>672.200012</ele>
<time>2025-10-17T16:36:54.281Z</time>
</trkpt>
<trkpt lat="31.7715030" lon="35.1227780">
<ele>672.200012</ele>
<time>2025-10-17T16:36:54.281Z</time>
</trkpt>
<trkpt lat="31.7714710" lon="35.1227510">
<ele>672.200012</ele>
<time>2025-10-17T16:36:54.281Z</time>
</trkpt>
<trkpt lat="31.7714390" lon="35.1227210">
<ele>672.200012</ele>
<time>2025-10-17T16:36:54.281Z</time>
</trkpt>
<trkpt lat="31.7714030" lon="35.1226930">
<ele>672.200012</ele>
<time>2025-10-17T16:36:54.281Z</time>
</trkpt>
<trkpt lat="31.7713650" lon="35.1226720">
<ele>672.200012</ele>
<time>2025-10-17T16:36:54.281Z</time>
</trkpt>
<trkpt lat="31.7713240" lon="35.1226530">
<ele>672.200012</ele>
<time>2025-10-17T16:36:54.281Z</time>
</trkpt>
<trkpt lat="31.7712860" lon="35.1226290">
<ele>672.200012</ele>
<time>2025-10-17T16:36:54.281Z</time>
</trkpt>
<trkpt lat="31.7712490" lon="35.1226050">
<ele>672.200012</ele>
<time>2025-10-17T16:36:54.281Z</time>
</trkpt>
<trkpt lat="31.7710130" lon="35.1224730">
<ele>672.599976</ele>
<time>2025-10-17T16:36:54.281Z</time>
</trkpt>
<trkpt lat="31.7709810" lon="35.1224550">
<ele>672.599976</ele>
<time>2025-10-17T16:36:54.281Z</time>
</trkpt>
<trkpt lat="31.7709550" lon="35.1224400">
<ele>672.599976</ele>
<time>2025-10-17T16:36:54.281Z</time>
</trkpt>
<trkpt lat="31.7709250" lon="35.1224230">
<ele>672.599976</ele>
<time>2025-10-17T16:36:54.281Z</time>
</trkpt>
<trkpt lat="31.7708970" lon="35.1224060">
<ele>673.000061</ele>
<time>2025-10-17T16:36:54.281Z</time>
</trkpt>
<trkpt lat="31.7708690" lon="35.1223900">
<ele>673.000061</ele>
<time>2025-10-17T16:36:54.281Z</time>
</trkpt>
<trkpt lat="31.7708370" lon="35.1223710">
<ele>673.200012</ele>
<time>2025-10-17T16:36:54.281Z</time>
</trkpt>
<trkpt lat="31.7708160" lon="35.1223570">
<ele>673.400024</ele>
<time>2025-10-17T16:36:54.281Z</time>
</trkpt>
<trkpt lat="31.7707920" lon="35.1223390">
<ele>673.400024</ele>
<time>2025-10-17T16:36:54.282Z</time>
</trkpt>
<trkpt lat="31.7707680" lon="35.1223220">
<ele>673.400024</ele>
<time>2025-10-17T16:36:54.282Z</time>
</trkpt>
<trkpt lat="31.7707470" lon="35.1223090">
<ele>673.599976</ele>
<time>2025-10-17T16:36:54.282Z</time>
</trkpt>
<trkpt lat="31.7707230" lon="35.1222990">
<ele>674.199951</ele>
<time>2025-10-17T16:36:54.282Z</time>
</trkpt>
<trkpt lat="31.7706970" lon="35.1222870">
<ele>674.399963</ele>
<time>2025-10-17T16:36:54.282Z</time>
</trkpt>
<trkpt lat="31.7706770" lon="35.1222790">
<ele>674.600037</ele>
<time>2025-10-17T16:36:54.282Z</time>
</trkpt>
<trkpt lat="31.7706520" lon="35.1222740">
<ele>674.600037</ele>
<time>2025-10-17T16:36:54.282Z</time>
</trkpt>
<trkpt lat="31.7706220" lon="35.1222740">
<ele>674.799988</ele>
<time>2025-10-17T16:36:54.282Z</time>
</trkpt>
<trkpt lat="31.7706030" lon="35.1222740">
<ele>674.799988</ele>
<time>2025-10-17T16:36:54.282Z</time>
</trkpt>
<trkpt lat="31.7705780" lon="35.1222740">
<ele>674.799988</ele>
<time>2025-10-17T16:36:54.282Z</time>
</trkpt>
<trkpt lat="31.7705530" lon="35.1222700">
<ele>674.799988</ele>
<time>2025-10-17T16:36:54.282Z</time>
</trkpt>
<trkpt lat="31.7705240" lon="35.1222620">
<ele>674.799988</ele>
<time>2025-10-17T16:36:54.282Z</time>
</trkpt>
<trkpt lat="31.7704930" lon="35.1222490">
<ele>674.799988</ele>
<time>2025-10-17T16:36:54.282Z</time>
</trkpt>
<trkpt lat="31.7704460" lon="35.1222300">
<ele>674.799988</ele>
<time>2025-10-17T16:36:54.282Z</time>
</trkpt>
<trkpt lat="31.7704020" lon="35.1222140">
<ele>674.799988</ele>
<time>2025-10-17T16:36:54.282Z</time>
</trkpt>
<trkpt lat="31.7703610" lon="35.1222030">
<ele>674.799988</ele>
<time>2025-10-17T16:36:54.282Z</time>
</trkpt>
<trkpt lat="31.7703100" lon="35.1221890">
<ele>674.799988</ele>
<time>2025-10-17T16:36:54.282Z</time>
</trkpt>
<trkpt lat="31.7702560" lon="35.1221740">
<ele>674.600037</ele>
<time>2025-10-17T16:36:54.282Z</time>
</trkpt>
<trkpt lat="31.7701850" lon="35.1221580">
<ele>674.399963</ele>
<time>2025-10-17T16:36:54.282Z</time>
</trkpt>
<trkpt lat="31.7700690" lon="35.1221440">
<ele>673.799988</ele>
<time>2025-10-17T16:36:54.282Z</time>
</trkpt>
<trkpt lat="31.7698280" lon="35.1221240">
<ele>673.000061</ele>
<time>2025-10-17T16:36:54.283Z</time>
</trkpt>
<trkpt lat="31.7697610" lon="35.1221230">
<ele>672.799988</ele>
<time>2025-10-17T16:36:54.283Z</time>
</trkpt>
<trkpt lat="31.7696730" lon="35.1221240">
<ele>672.400024</ele>
<time>2025-10-17T16:36:54.283Z</time>
</trkpt>
<trkpt lat="31.7695820" lon="35.1221330">
<ele>671.800049</ele>
<time>2025-10-17T16:36:54.283Z</time>
</trkpt>
<trkpt lat="31.7694870" lon="35.1221500">
<ele>670.400024</ele>
<time>2025-10-17T16:36:54.283Z</time>
</trkpt>
<trkpt lat="31.7693720" lon="35.1221780">
<ele>669.799988</ele>
<time>2025-10-17T16:36:54.283Z</time>
</trkpt>
<trkpt lat="31.7692960" lon="35.1222000">
<ele>668.600037</ele>
<time>2025-10-17T16:36:54.283Z</time>
</trkpt>
<trkpt lat="31.7689970" lon="35.1223130">
<ele>666.599976</ele>
<time>2025-10-17T16:36:54.283Z</time>
</trkpt>
<trkpt lat="31.7688770" lon="35.1223630">
<ele>666.200012</ele>
<time>2025-10-17T16:36:54.283Z</time>
</trkpt>
<trkpt lat="31.7687960" lon="35.1223930">
<ele>665.000000</ele>
<time>2025-10-17T16:36:54.283Z</time>
</trkpt>
<trkpt lat="31.7685970" lon="35.1224650">
<ele>663.799988</ele>
<time>2025-10-17T16:36:54.283Z</time>
</trkpt>
<trkpt lat="31.7683780" lon="35.1225360">
<ele>661.799988</ele>
<time>2025-10-17T16:36:54.283Z</time>
</trkpt>
<trkpt lat="31.7682960" lon="35.1225600">
<ele>660.599976</ele>
<time>2025-10-17T16:36:54.283Z</time>
</trkpt>
<trkpt lat="31.7681910" lon="35.1225850">
<ele>660.200012</ele>
<time>2025-10-17T16:36:54.283Z</time>
</trkpt>
<trkpt lat="31.7680800" lon="35.1225960">
<ele>659.000000</ele>
<time>2025-10-17T16:36:54.283Z</time>
</trkpt>
<trkpt lat="31.7678360" lon="35.1225860">
<ele>656.599976</ele>
<time>2025-10-17T16:36:54.283Z</time>
</trkpt>
<trkpt lat="31.7677570" lon="35.1225720">
<ele>656.000000</ele>
<time>2025-10-17T16:36:54.283Z</time>
</trkpt>
<trkpt lat="31.7676700" lon="35.1225520">
<ele>654.799988</ele>
<time>2025-10-17T16:36:54.283Z</time>
</trkpt>
<trkpt lat="31.7675930" lon="35.1225350">
<ele>654.200012</ele>
<time>2025-10-17T16:36:54.283Z</time>
</trkpt>
<trkpt lat="31.7675240" lon="35.1225210">
<ele>653.000000</ele>
<time>2025-10-17T16:36:54.283Z</time>
</trkpt>
<trkpt lat="31.7674620" lon="35.1225100">
<ele>652.600037</ele>
<time>2025-10-17T16:36:54.284Z</time>
</trkpt>
<trkpt lat="31.7674070" lon="35.1225090">
<ele>651.400024</ele>
<time>2025-10-17T16:36:54.284Z</time>
</trkpt>
<trkpt lat="31.7673650" lon="35.1225220">
<ele>650.399963</ele>
<time>2025-10-17T16:36:54.284Z</time>
</trkpt>
<trkpt lat="31.7673460" lon="35.1225550">
<ele>650.000000</ele>
<time>2025-10-17T16:36:54.284Z</time>
</trkpt>
<trkpt lat="31.7673550" lon="35.1226090">
<ele>649.199951</ele>
<time>2025-10-17T16:36:54.284Z</time>
</trkpt>
<trkpt lat="31.7673810" lon="35.1226710">
<ele>649.000000</ele>
<time>2025-10-17T16:36:54.284Z</time>
</trkpt>
<trkpt lat="31.7674660" lon="35.1228170">
<ele>647.799988</ele>
<time>2025-10-17T16:36:54.284Z</time>
</trkpt>
<trkpt lat="31.7675260" lon="35.1228880">
<ele>647.000000</ele>
<time>2025-10-17T16:36:54.284Z</time>
</trkpt>
<trkpt lat="31.7676000" lon="35.1229560">
<ele>646.200012</ele>
<time>2025-10-17T16:36:54.284Z</time>
</trkpt>
<trkpt lat="31.7676790" lon="35.1230230">
<ele>644.799988</ele>
<time>2025-10-17T16:36:54.284Z</time>
</trkpt>
<trkpt lat="31.7677550" lon="35.1230970">
<ele>643.000000</ele>
<time>2025-10-17T16:36:54.284Z</time>
</trkpt>
<trkpt lat="31.7678980" lon="35.1232560">
<ele>641.000000</ele>
<time>2025-10-17T16:36:54.284Z</time>
</trkpt>
<trkpt lat="31.7679670" lon="35.1233280">
<ele>640.399963</ele>
<time>2025-10-17T16:36:54.284Z</time>
</trkpt>
<trkpt lat="31.7680260" lon="35.1233920">
<ele>639.199951</ele>
<time>2025-10-17T16:36:54.284Z</time>
</trkpt>
<trkpt lat="31.7680710" lon="35.1234510">
<ele>638.000000</ele>
<time>2025-10-17T16:36:54.284Z</time>
</trkpt>
<trkpt lat="31.7680930" lon="35.1235110">
<ele>636.400024</ele>
<time>2025-10-17T16:36:54.284Z</time>
</trkpt>
<trkpt lat="31.7680890" lon="35.1235700">
<ele>635.599976</ele>
<time>2025-10-17T16:36:54.284Z</time>
</trkpt>
<trkpt lat="31.7680590" lon="35.1236250">
<ele>633.600037</ele>
<time>2025-10-17T16:36:54.284Z</time>
</trkpt>
<trkpt lat="31.7680060" lon="35.1236640">
<ele>632.599976</ele>
<time>2025-10-17T16:36:54.284Z</time>
</trkpt>
<trkpt lat="31.7679360" lon="35.1237040">
<ele>631.599976</ele>
<time>2025-10-17T16:36:54.284Z</time>
</trkpt>
<trkpt lat="31.7678560" lon="35.1237540">
<ele>630.799988</ele>
<time>2025-10-17T16:36:54.284Z</time>
</trkpt>
<trkpt lat="31.7677640" lon="35.1238110">
<ele>629.799988</ele>
<time>2025-10-17T16:36:54.284Z</time>
</trkpt>
<trkpt lat="31.7676620" lon="35.1238670">
<ele>628.399963</ele>
<time>2025-10-17T16:36:54.284Z</time>
</trkpt>
<trkpt lat="31.7675490" lon="35.1239160">
<ele>627.399963</ele>
<time>2025-10-17T16:36:54.284Z</time>
</trkpt>
<trkpt lat="31.7674260" lon="35.1239540">
<ele>625.799988</ele>
<time>2025-10-17T16:36:54.284Z</time>
</trkpt>
<trkpt lat="31.7672970" lon="35.1239750">
<ele>624.799988</ele>
<time>2025-10-17T16:36:54.284Z</time>
</trkpt>
<trkpt lat="31.7671700" lon="35.1239820">
<ele>622.799988</ele>
<time>2025-10-17T16:36:54.284Z</time>
</trkpt>
<trkpt lat="31.7669220" lon="35.1239790">
<ele>618.799988</ele>
<time>2025-10-17T16:36:54.284Z</time>
</trkpt>
<trkpt lat="31.7668050" lon="35.1239770">
<ele>617.400024</ele>
<time>2025-10-17T16:36:54.284Z</time>
</trkpt>
<trkpt lat="31.7666960" lon="35.1239770">
<ele>614.400024</ele>
<time>2025-10-17T16:36:54.284Z</time>
</trkpt>
<trkpt lat="31.7665940" lon="35.1239720">
<ele>612.000000</ele>
<time>2025-10-17T16:36:54.284Z</time>
</trkpt>
<trkpt lat="31.7665010" lon="35.1239590">
<ele>611.000000</ele>
<time>2025-10-17T16:36:54.284Z</time>
</trkpt>
<trkpt lat="31.7664160" lon="35.1239430">
<ele>609.200012</ele>
<time>2025-10-17T16:36:54.284Z</time>
</trkpt>
<trkpt lat="31.7663360" lon="35.1239260">
<ele>607.600037</ele>
<time>2025-10-17T16:36:54.285Z</time>
</trkpt>
<trkpt lat="31.7662620" lon="35.1239000">
<ele>606.000000</ele>
<time>2025-10-17T16:36:54.285Z</time>
</trkpt>
<trkpt lat="31.7661890" lon="35.1238730">
<ele>605.400024</ele>
<time>2025-10-17T16:36:54.285Z</time>
</trkpt>
<trkpt lat="31.7661180" lon="35.1238600">
<ele>604.600037</ele>
<time>2025-10-17T16:36:54.285Z</time>
</trkpt>
<trkpt lat="31.7660660" lon="35.1238680">
<ele>603.799988</ele>
<time>2025-10-17T16:36:54.285Z</time>
</trkpt>
<trkpt lat="31.7660370" lon="35.1238960">
<ele>602.600037</ele>
<time>2025-10-17T16:36:54.285Z</time>
</trkpt>
<trkpt lat="31.7660300" lon="35.1239440">
<ele>600.799988</ele>
<time>2025-10-17T16:36:54.285Z</time>
</trkpt>
<trkpt lat="31.7660380" lon="35.1240040">
<ele>600.000000</ele>
<time>2025-10-17T16:36:54.285Z</time>
</trkpt>
<trkpt lat="31.7660560" lon="35.1240670">
<ele>599.000000</ele>
<time>2025-10-17T16:36:54.285Z</time>
</trkpt>
<trkpt lat="31.7660830" lon="35.1241350">
<ele>598.400024</ele>
<time>2025-10-17T16:36:54.285Z</time>
</trkpt>
<trkpt lat="31.7661110" lon="35.1242100">
<ele>597.599976</ele>
<time>2025-10-17T16:36:54.285Z</time>
</trkpt>
<trkpt lat="31.7661370" lon="35.1242860">
<ele>597.000000</ele>
<time>2025-10-17T16:36:54.285Z</time>
</trkpt>
<trkpt lat="31.7661600" lon="35.1243620">
<ele>595.599976</ele>
<time>2025-10-17T16:36:54.285Z</time>
</trkpt>
<trkpt lat="31.7662180" lon="35.1245180">
<ele>593.600037</ele>
<time>2025-10-17T16:36:54.285Z</time>
</trkpt>
<trkpt lat="31.7662830" lon="35.1246640">
<ele>592.000000</ele>
<time>2025-10-17T16:36:54.285Z</time>
</trkpt>
<trkpt lat="31.7663150" lon="35.1247310">
<ele>591.200012</ele>
<time>2025-10-17T16:36:54.285Z</time>
</trkpt>
<trkpt lat="31.7663470" lon="35.1247920">
<ele>590.600037</ele>
<time>2025-10-17T16:36:54.285Z</time>
</trkpt>
<trkpt lat="31.7663770" lon="35.1248490">
<ele>588.600037</ele>
<time>2025-10-17T16:36:54.285Z</time>
</trkpt>
<trkpt lat="31.7664100" lon="35.1249000">
<ele>588.200012</ele>
<time>2025-10-17T16:36:54.285Z</time>
</trkpt>
<trkpt lat="31.7664450" lon="35.1249530">
<ele>587.200012</ele>
<time>2025-10-17T16:36:54.285Z</time>
</trkpt>
<trkpt lat="31.7665640" lon="35.1251170">
<ele>585.799988</ele>
<time>2025-10-17T16:36:54.286Z</time>
</trkpt>
<trkpt lat="31.7666530" lon="35.1252220">
<ele>584.200012</ele>
<time>2025-10-17T16:36:54.286Z</time>
</trkpt>
<trkpt lat="31.7666910" lon="35.1252630">
<ele>583.799988</ele>
<time>2025-10-17T16:36:54.286Z</time>
</trkpt>
<trkpt lat="31.7667240" lon="35.1252990">
<ele>582.799988</ele>
<time>2025-10-17T16:36:54.286Z</time>
</trkpt>
<trkpt lat="31.7667550" lon="35.1253360">
<ele>582.200012</ele>
<time>2025-10-17T16:36:54.286Z</time>
</trkpt>
<trkpt lat="31.7667760" lon="35.1253750">
<ele>580.799988</ele>
<time>2025-10-17T16:36:54.286Z</time>
</trkpt>
<trkpt lat="31.7667820" lon="35.1254090">
<ele>580.200012</ele>
<time>2025-10-17T16:36:54.286Z</time>
</trkpt>
<trkpt lat="31.7667740" lon="35.1254390">
<ele>579.200012</ele>
<time>2025-10-17T16:36:54.286Z</time>
</trkpt>
<trkpt lat="31.7667560" lon="35.1254640">
<ele>578.799988</ele>
<time>2025-10-17T16:36:54.286Z</time>
</trkpt>
<trkpt lat="31.7667310" lon="35.1254870">
<ele>577.200012</ele>
<time>2025-10-17T16:36:54.286Z</time>
</trkpt>
<trkpt lat="31.7666580" lon="35.1255270">
<ele>575.799988</ele>
<time>2025-10-17T16:36:54.286Z</time>
</trkpt>
<trkpt lat="31.7666120" lon="35.1255520">
<ele>575.000000</ele>
<time>2025-10-17T16:36:54.286Z</time>
</trkpt>
<trkpt lat="31.7665640" lon="35.1255770">
<ele>574.799988</ele>
<time>2025-10-17T16:36:54.286Z</time>
</trkpt>
<trkpt lat="31.7664520" lon="35.1256060">
<ele>572.799988</ele>
<time>2025-10-17T16:36:54.286Z</time>
</trkpt>
<trkpt lat="31.7663960" lon="35.1256170">
<ele>571.399963</ele>
<time>2025-10-17T16:36:54.286Z</time>
</trkpt>
<trkpt lat="31.7663460" lon="35.1256260">
<ele>570.799988</ele>
<time>2025-10-17T16:36:54.286Z</time>
</trkpt>
<trkpt lat="31.7662930" lon="35.1256360">
<ele>570.000000</ele>
<time>2025-10-17T16:36:54.286Z</time>
</trkpt>
<trkpt lat="31.7662400" lon="35.1256450">
<ele>569.400024</ele>
<time>2025-10-17T16:36:54.286Z</time>
</trkpt>
<trkpt lat="31.7661900" lon="35.1256520">
<ele>568.000000</ele>
<time>2025-10-17T16:36:54.286Z</time>
</trkpt>
<trkpt lat="31.7661450" lon="35.1256620">
<ele>566.599976</ele>
<time>2025-10-17T16:36:54.286Z</time>
</trkpt>
<trkpt lat="31.7661040" lon="35.1256660">
<ele>566.200012</ele>
<time>2025-10-17T16:36:54.286Z</time>
</trkpt>
<trkpt lat="31.7660630" lon="35.1256630">
<ele>565.399963</ele>
<time>2025-10-17T16:36:54.287Z</time>
</trkpt>
<trkpt lat="31.7660200" lon="35.1256550">
<ele>565.000000</ele>
<time>2025-10-17T16:36:54.287Z</time>
</trkpt>
<trkpt lat="31.7659760" lon="35.1256400">
<ele>563.200012</ele>
<time>2025-10-17T16:36:54.287Z</time>
</trkpt>
<trkpt lat="31.7659300" lon="35.1256210">
<ele>562.599976</ele>
<time>2025-10-17T16:36:54.287Z</time>
</trkpt>
<trkpt lat="31.7658850" lon="35.1256020">
<ele>561.799988</ele>
<time>2025-10-17T16:36:54.287Z</time>
</trkpt>
<trkpt lat="31.7658460" lon="35.1255850">
<ele>561.400024</ele>
<time>2025-10-17T16:36:54.287Z</time>
</trkpt>
<trkpt lat="31.7658060" lon="35.1255690">
<ele>560.600037</ele>
<time>2025-10-17T16:36:54.287Z</time>
</trkpt>
<trkpt lat="31.7657170" lon="35.1255360">
<ele>559.200012</ele>
<time>2025-10-17T16:36:54.287Z</time>
</trkpt>
<trkpt lat="31.7656670" lon="35.1255180">
<ele>558.000000</ele>
<time>2025-10-17T16:36:54.287Z</time>
</trkpt>
<trkpt lat="31.7656200" lon="35.1254930">
<ele>557.600037</ele>
<time>2025-10-17T16:36:54.287Z</time>
</trkpt>
<trkpt lat="31.7655710" lon="35.1254510">
<ele>556.400024</ele>
<time>2025-10-17T16:36:54.287Z</time>
</trkpt>
<trkpt lat="31.7655460" lon="35.1254170">
<ele>555.799988</ele>
<time>2025-10-17T16:36:54.287Z</time>
</trkpt>
<trkpt lat="31.7655170" lon="35.1253740">
<ele>554.399963</ele>
<time>2025-10-17T16:36:54.287Z</time>
</trkpt>
<trkpt lat="31.7654920" lon="35.1253300">
<ele>554.000000</ele>
<time>2025-10-17T16:36:54.287Z</time>
</trkpt>
<trkpt lat="31.7654650" lon="35.1252900">
<ele>553.799988</ele>
<time>2025-10-17T16:36:54.287Z</time>
</trkpt>
<trkpt lat="31.7654330" lon="35.1252620">
<ele>553.599976</ele>
<time>2025-10-17T16:36:54.287Z</time>
</trkpt>
<trkpt lat="31.7654000" lon="35.1252490">
<ele>553.000000</ele>
<time>2025-10-17T16:36:54.287Z</time>
</trkpt>
<trkpt lat="31.7653650" lon="35.1252500">
<ele>552.799988</ele>
<time>2025-10-17T16:36:54.287Z</time>
</trkpt>
<trkpt lat="31.7653340" lon="35.1252660">
<ele>552.799988</ele>
<time>2025-10-17T16:36:54.287Z</time>
</trkpt>
<trkpt lat="31.7653110" lon="35.1252900">
<ele>552.000000</ele>
<time>2025-10-17T16:36:54.287Z</time>
</trkpt>
<trkpt lat="31.7652990" lon="35.1253170">
<ele>551.599976</ele>
<time>2025-10-17T16:36:54.287Z</time>
</trkpt>
<trkpt lat="31.7652980" lon="35.1253520">
<ele>551.000000</ele>
<time>2025-10-17T16:36:54.287Z</time>
</trkpt>
<trkpt lat="31.7653060" lon="35.1254000">
<ele>550.799988</ele>
<time>2025-10-17T16:36:54.287Z</time>
</trkpt>
<trkpt lat="31.7653310" lon="35.1255100">
<ele>550.200012</ele>
<time>2025-10-17T16:36:54.287Z</time>
</trkpt>
<trkpt lat="31.7653420" lon="35.1255670">
<ele>549.399963</ele>
<time>2025-10-17T16:36:54.287Z</time>
</trkpt>
<trkpt lat="31.7653460" lon="35.1256200">
<ele>549.000000</ele>
<time>2025-10-17T16:36:54.288Z</time>
</trkpt>
<trkpt lat="31.7653460" lon="35.1256740">
<ele>548.400024</ele>
<time>2025-10-17T16:36:54.288Z</time>
</trkpt>
<trkpt lat="31.7653430" lon="35.1257280">
<ele>547.799988</ele>
<time>2025-10-17T16:36:54.288Z</time>
</trkpt>
<trkpt lat="31.7653420" lon="35.1257830">
<ele>547.000000</ele>
<time>2025-10-17T16:36:54.288Z</time>
</trkpt>
<trkpt lat="31.7653460" lon="35.1258360">
<ele>546.200012</ele>
<time>2025-10-17T16:36:54.288Z</time>
</trkpt>
<trkpt lat="31.7653530" lon="35.1258870">
<ele>546.000000</ele>
<time>2025-10-17T16:36:54.288Z</time>
</trkpt>
<trkpt lat="31.7653620" lon="35.1259350">
<ele>545.200012</ele>
<time>2025-10-17T16:36:54.288Z</time>
</trkpt>
<trkpt lat="31.7653890" lon="35.1260850">
<ele>544.000000</ele>
<time>2025-10-17T16:36:54.288Z</time>
</trkpt>
<trkpt lat="31.7653970" lon="35.1261360">
<ele>542.799988</ele>
<time>2025-10-17T16:36:54.288Z</time>
</trkpt>
<trkpt lat="31.7653900" lon="35.1262240">
<ele>541.799988</ele>
<time>2025-10-17T16:36:54.288Z</time>
</trkpt>
<trkpt lat="31.7653730" lon="35.1262550">
<ele>540.799988</ele>
<time>2025-10-17T16:36:54.288Z</time>
</trkpt>
<trkpt lat="31.7653540" lon="35.1262800">
<ele>540.000000</ele>
<time>2025-10-17T16:36:54.288Z</time>
</trkpt>
<trkpt lat="31.7653390" lon="35.1263020">
<ele>539.200012</ele>
<time>2025-10-17T16:36:54.288Z</time>
</trkpt>
<trkpt lat="31.7653180" lon="35.1263310">
<ele>539.000000</ele>
<time>2025-10-17T16:36:54.288Z</time>
</trkpt>
<trkpt lat="31.7652980" lon="35.1263520">
<ele>538.399963</ele>
<time>2025-10-17T16:36:54.288Z</time>
</trkpt>
<trkpt lat="31.7652710" lon="35.1263800">
<ele>538.200012</ele>
<time>2025-10-17T16:36:54.288Z</time>
</trkpt>
<trkpt lat="31.7652500" lon="35.1264080">
<ele>538.200012</ele>
<time>2025-10-17T16:36:54.288Z</time>
</trkpt>
<trkpt lat="31.7652210" lon="35.1264700">
<ele>537.000000</ele>
<time>2025-10-17T16:36:54.288Z</time>
</trkpt>
<trkpt lat="31.7652100" lon="35.1265050">
<ele>535.799988</ele>
<time>2025-10-17T16:36:54.288Z</time>
</trkpt>
<trkpt lat="31.7651830" lon="35.1265800">
<ele>534.799988</ele>
<time>2025-10-17T16:36:54.288Z</time>
</trkpt>
<trkpt lat="31.7651640" lon="35.1266070">
<ele>534.000000</ele>
<time>2025-10-17T16:36:54.288Z</time>
</trkpt>
<trkpt lat="31.7651430" lon="35.1266310">
<ele>532.200012</ele>
<time>2025-10-17T16:36:54.289Z</time>
</trkpt>
<trkpt lat="31.7651160" lon="35.1266520">
<ele>531.400024</ele>
<time>2025-10-17T16:36:54.289Z</time>
</trkpt>
<trkpt lat="31.7650860" lon="35.1266700">
<ele>530.200012</ele>
<time>2025-10-17T16:36:54.289Z</time>
</trkpt>
<trkpt lat="31.7650530" lon="35.1266940">
<ele>529.799988</ele>
<time>2025-10-17T16:36:54.289Z</time>
</trkpt>
<trkpt lat="31.7650210" lon="35.1267210">
<ele>529.000000</ele>
<time>2025-10-17T16:36:54.289Z</time>
</trkpt>
<trkpt lat="31.7649570" lon="35.1267630">
<ele>527.400024</ele>
<time>2025-10-17T16:36:54.289Z</time>
</trkpt>
<trkpt lat="31.7648860" lon="35.1268090">
<ele>526.000000</ele>
<time>2025-10-17T16:36:54.289Z</time>
</trkpt>
<trkpt lat="31.7648420" lon="35.1268530">
<ele>525.200012</ele>
<time>2025-10-17T16:36:54.289Z</time>
</trkpt>
<trkpt lat="31.7648150" lon="35.1268810">
<ele>524.600037</ele>
<time>2025-10-17T16:36:54.289Z</time>
</trkpt>
<trkpt lat="31.7647890" lon="35.1269070">
<ele>524.000000</ele>
<time>2025-10-17T16:36:54.289Z</time>
</trkpt>
<trkpt lat="31.7647570" lon="35.1269260">
<ele>523.400024</ele>
<time>2025-10-17T16:36:54.289Z</time>
</trkpt>
<trkpt lat="31.7647190" lon="35.1269360">
<ele>523.200012</ele>
<time>2025-10-17T16:36:54.289Z</time>
</trkpt>
<trkpt lat="31.7646710" lon="35.1269430">
<ele>522.799988</ele>
<time>2025-10-17T16:36:54.289Z</time>
</trkpt>
<trkpt lat="31.7646390" lon="35.1269400">
<ele>522.000000</ele>
<time>2025-10-17T16:36:54.289Z</time>
</trkpt>
<trkpt lat="31.7646000" lon="35.1269320">
<ele>521.399963</ele>
<time>2025-10-17T16:36:54.289Z</time>
</trkpt>
<trkpt lat="31.7645660" lon="35.1269250">
<ele>520.200012</ele>
<time>2025-10-17T16:36:54.289Z</time>
</trkpt>
<trkpt lat="31.7645300" lon="35.1269220">
<ele>519.799988</ele>
<time>2025-10-17T16:36:54.289Z</time>
</trkpt>
<trkpt lat="31.7644740" lon="35.1269090">
<ele>519.000000</ele>
<time>2025-10-17T16:36:54.289Z</time>
</trkpt>
<trkpt lat="31.7644330" lon="35.1269040">
<ele>518.399963</ele>
<time>2025-10-17T16:36:54.289Z</time>
</trkpt>
<trkpt lat="31.7644040" lon="35.1268980">
<ele>518.200012</ele>
<time>2025-10-17T16:36:54.289Z</time>
</trkpt>
<trkpt lat="31.7643710" lon="35.1268850">
<ele>517.599976</ele>
<time>2025-10-17T16:36:54.289Z</time>
</trkpt>
<trkpt lat="31.7643380" lon="35.1268650">
<ele>517.200012</ele>
<time>2025-10-17T16:36:54.289Z</time>
</trkpt>
<trkpt lat="31.7643210" lon="35.1268560">
<ele>516.599976</ele>
<time>2025-10-17T16:36:54.289Z</time>
</trkpt>
<trkpt lat="31.7643030" lon="35.1268440">
<ele>516.200012</ele>
<time>2025-10-17T16:36:54.289Z</time>
</trkpt>
<trkpt lat="31.7642850" lon="35.1268300">
<ele>515.799988</ele>
<time>2025-10-17T16:36:54.289Z</time>
</trkpt>
<trkpt lat="31.7642290" lon="35.1268050">
<ele>515.000000</ele>
<time>2025-10-17T16:36:54.289Z</time>
</trkpt>
<trkpt lat="31.7641470" lon="35.1267860">
<ele>513.799988</ele>
<time>2025-10-17T16:36:54.290Z</time>
</trkpt>
<trkpt lat="31.7641220" lon="35.1267790">
<ele>513.799988</ele>
<time>2025-10-17T16:36:54.290Z</time>
</trkpt>
<trkpt lat="31.7640980" lon="35.1267740">
<ele>513.399963</ele>
<time>2025-10-17T16:36:54.290Z</time>
</trkpt>
<trkpt lat="31.7640450" lon="35.1267810">
<ele>513.000000</ele>
<time>2025-10-17T16:36:54.290Z</time>
</trkpt>
<trkpt lat="31.7640160" lon="35.1267950">
<ele>512.200012</ele>
<time>2025-10-17T16:36:54.290Z</time>
</trkpt>
<trkpt lat="31.7639770" lon="35.1268170">
<ele>512.000000</ele>
<time>2025-10-17T16:36:54.290Z</time>
</trkpt>
<trkpt lat="31.7639500" lon="35.1268330">
<ele>511.600006</ele>
<time>2025-10-17T16:36:54.290Z</time>
</trkpt>
<trkpt lat="31.7638940" lon="35.1268590">
<ele>510.799988</ele>
<time>2025-10-17T16:36:54.290Z</time>
</trkpt>
<trkpt lat="31.7638660" lon="35.1268710">
<ele>510.200012</ele>
<time>2025-10-17T16:36:54.290Z</time>
</trkpt>
<trkpt lat="31.7638380" lon="35.1268880">
<ele>509.400024</ele>
<time>2025-10-17T16:36:54.290Z</time>
</trkpt>
<trkpt lat="31.7638180" lon="35.1269110">
<ele>509.000000</ele>
<time>2025-10-17T16:36:54.290Z</time>
</trkpt>
<trkpt lat="31.7638100" lon="35.1269410">
<ele>508.599976</ele>
<time>2025-10-17T16:36:54.290Z</time>
</trkpt>
<trkpt lat="31.7638130" lon="35.1269780">
<ele>507.600006</ele>
<time>2025-10-17T16:36:54.290Z</time>
</trkpt>
<trkpt lat="31.7638200" lon="35.1270220">
<ele>507.200012</ele>
<time>2025-10-17T16:36:54.290Z</time>
</trkpt>
<trkpt lat="31.7638330" lon="35.1270670">
<ele>506.199982</ele>
<time>2025-10-17T16:36:54.290Z</time>
</trkpt>
<trkpt lat="31.7638500" lon="35.1271070">
<ele>505.800018</ele>
<time>2025-10-17T16:36:54.290Z</time>
</trkpt>
<trkpt lat="31.7638640" lon="35.1271420">
<ele>505.200012</ele>
<time>2025-10-17T16:36:54.290Z</time>
</trkpt>
<trkpt lat="31.7638770" lon="35.1271760">
<ele>504.999969</ele>
<time>2025-10-17T16:36:54.290Z</time>
</trkpt>
<trkpt lat="31.7638850" lon="35.1272080">
<ele>504.600006</ele>
<time>2025-10-17T16:36:54.290Z</time>
</trkpt>
<trkpt lat="31.7638930" lon="35.1272410">
<ele>504.399994</ele>
<time>2025-10-17T16:36:54.290Z</time>
</trkpt>
<trkpt lat="31.7639040" lon="35.1272730">
<ele>503.799988</ele>
<time>2025-10-17T16:36:54.290Z</time>
</trkpt>
<trkpt lat="31.7639170" lon="35.1273050">
<ele>503.199982</ele>
<time>2025-10-17T16:36:54.291Z</time>
</trkpt>
<trkpt lat="31.7639360" lon="35.1273420">
<ele>502.800018</ele>
<time>2025-10-17T16:36:54.291Z</time>
</trkpt>
<trkpt lat="31.7639510" lon="35.1273670">
<ele>502.200012</ele>
<time>2025-10-17T16:36:54.291Z</time>
</trkpt>
<trkpt lat="31.7639690" lon="35.1273990">
<ele>501.999969</ele>
<time>2025-10-17T16:36:54.291Z</time>
</trkpt>
<trkpt lat="31.7639880" lon="35.1274320">
<ele>501.600006</ele>
<time>2025-10-17T16:36:54.291Z</time>
</trkpt>
<trkpt lat="31.7640100" lon="35.1274680">
<ele>501.400024</ele>
<time>2025-10-17T16:36:54.291Z</time>
</trkpt>
<trkpt lat="31.7640440" lon="35.1275050">
<ele>501.000000</ele>
<time>2025-10-17T16:36:54.291Z</time>
</trkpt>
<trkpt lat="31.7640840" lon="35.1275410">
<ele>500.399994</ele>
<time>2025-10-17T16:36:54.291Z</time>
</trkpt>
<trkpt lat="31.7641250" lon="35.1275740">
<ele>499.800018</ele>
<time>2025-10-17T16:36:54.291Z</time>
</trkpt>
<trkpt lat="31.7641690" lon="35.1276100">
<ele>499.600006</ele>
<time>2025-10-17T16:36:54.291Z</time>
</trkpt>
<trkpt lat="31.7642140" lon="35.1276540">
<ele>499.200012</ele>
<time>2025-10-17T16:36:54.291Z</time>
</trkpt>
<trkpt lat="31.7642590" lon="35.1277020">
<ele>498.400024</ele>
<time>2025-10-17T16:36:54.291Z</time>
</trkpt>
<trkpt lat="31.7643040" lon="35.1277520">
<ele>497.000000</ele>
<time>2025-10-17T16:36:54.291Z</time>
</trkpt>
<trkpt lat="31.7643530" lon="35.1277940">
<ele>495.000000</ele>
<time>2025-10-17T16:36:54.291Z</time>
</trkpt>
<trkpt lat="31.7644660" lon="35.1278490">
<ele>493.600006</ele>
<time>2025-10-17T16:36:54.291Z</time>
</trkpt>
<trkpt lat="31.7645030" lon="35.1278640">
<ele>493.399994</ele>
<time>2025-10-17T16:36:54.291Z</time>
</trkpt>
<trkpt lat="31.7645410" lon="35.1278780">
<ele>493.399994</ele>
<time>2025-10-17T16:36:54.291Z</time>
</trkpt>
<trkpt lat="31.7645750" lon="35.1278870">
<ele>493.200012</ele>
<time>2025-10-17T16:36:54.291Z</time>
</trkpt>
<trkpt lat="31.7646080" lon="35.1278930">
<ele>493.200012</ele>
<time>2025-10-17T16:36:54.291Z</time>
</trkpt>
<trkpt lat="31.7646390" lon="35.1278960">
<ele>493.200012</ele>
<time>2025-10-17T16:36:54.291Z</time>
</trkpt>
<trkpt lat="31.7646690" lon="35.1278990">
<ele>493.200012</ele>
<time>2025-10-17T16:36:54.292Z</time>
</trkpt>
<trkpt lat="31.7647000" lon="35.1278980">
<ele>493.799988</ele>
<time>2025-10-17T16:36:54.292Z</time>
</trkpt>
<trkpt lat="31.7647720" lon="35.1278940">
<ele>494.599976</ele>
<time>2025-10-17T16:36:54.292Z</time>
</trkpt>
<trkpt lat="31.7648340" lon="35.1278870">
<ele>495.000000</ele>
<time>2025-10-17T16:36:54.292Z</time>
</trkpt>
<trkpt lat="31.7648680" lon="35.1278810">
<ele>495.199982</ele>
<time>2025-10-17T16:36:54.292Z</time>
</trkpt>
<trkpt lat="31.7649020" lon="35.1278750">
<ele>495.400024</ele>
<time>2025-10-17T16:36:54.292Z</time>
</trkpt>
<trkpt lat="31.7649350" lon="35.1278670">
<ele>495.400024</ele>
<time>2025-10-17T16:36:54.292Z</time>
</trkpt>
<trkpt lat="31.7650010" lon="35.1278460">
<ele>495.600006</ele>
<time>2025-10-17T16:36:54.292Z</time>
</trkpt>
<trkpt lat="31.7651000" lon="35.1278130">
<ele>495.799988</ele>
<time>2025-10-17T16:36:54.292Z</time>
</trkpt>
<trkpt lat="31.7651350" lon="35.1278040">
<ele>496.200012</ele>
<time>2025-10-17T16:36:54.292Z</time>
</trkpt>
<trkpt lat="31.7652380" lon="35.1277690">
<ele>496.399994</ele>
<time>2025-10-17T16:36:54.292Z</time>
</trkpt>
<trkpt lat="31.7653930" lon="35.1277140">
<ele>496.600006</ele>
<time>2025-10-17T16:36:54.292Z</time>
</trkpt>
<trkpt lat="31.7654660" lon="35.1276930">
<ele>497.000000</ele>
<time>2025-10-17T16:36:54.292Z</time>
</trkpt>
<trkpt lat="31.7655920" lon="35.1276560">
<ele>497.000000</ele>
<time>2025-10-17T16:36:54.292Z</time>
</trkpt>
<trkpt lat="31.7657980" lon="35.1275950">
<ele>497.200012</ele>
<time>2025-10-17T16:36:54.293Z</time>
</trkpt>
<trkpt lat="31.7658380" lon="35.1275820">
<ele>497.399994</ele>
<time>2025-10-17T16:36:54.293Z</time>
</trkpt>
<trkpt lat="31.7659560" lon="35.1275520">
<ele>497.399994</ele>
<time>2025-10-17T16:36:54.293Z</time>
</trkpt>
<trkpt lat="31.7659890" lon="35.1275470">
<ele>497.399994</ele>
<time>2025-10-17T16:36:54.293Z</time>
</trkpt>
<trkpt lat="31.7661570" lon="35.1275490">
<ele>497.399994</ele>
<time>2025-10-17T16:36:54.293Z</time>
</trkpt>
<trkpt lat="31.7661770" lon="35.1275490">
<ele>497.399994</ele>
<time>2025-10-17T16:36:54.293Z</time>
</trkpt>
<trkpt lat="31.7661980" lon="35.1275490">
<ele>497.599976</ele>
<time>2025-10-17T16:36:54.293Z</time>
</trkpt>
<trkpt lat="31.7664520" lon="35.1275430">
<ele>497.599976</ele>
<time>2025-10-17T16:36:54.293Z</time>
</trkpt>
<trkpt lat="31.7665410" lon="35.1275470">
<ele>497.599976</ele>
<time>2025-10-17T16:36:54.293Z</time>
</trkpt>
<trkpt lat="31.7667110" lon="35.1275840">
<ele>497.599976</ele>
<time>2025-10-17T16:36:54.293Z</time>
</trkpt>
<trkpt lat="31.7667880" lon="35.1276140">
<ele>497.800018</ele>
<time>2025-10-17T16:36:54.293Z</time>
</trkpt>
<trkpt lat="31.7668250" lon="35.1276320">
<ele>498.000000</ele>
<time>2025-10-17T16:36:54.293Z</time>
</trkpt>
<trkpt lat="31.7668600" lon="35.1276520">
<ele>498.400024</ele>
<time>2025-10-17T16:36:54.293Z</time>
</trkpt>
<trkpt lat="31.7668950" lon="35.1276710">
<ele>498.600006</ele>
<time>2025-10-17T16:36:54.293Z</time>
</trkpt>
<trkpt lat="31.7669330" lon="35.1276930">
<ele>498.600006</ele>
<time>2025-10-17T16:36:54.293Z</time>
</trkpt>
<trkpt lat="31.7669710" lon="35.1277160">
<ele>498.799988</ele>
<time>2025-10-17T16:36:54.294Z</time>
</trkpt>
<trkpt lat="31.7670000" lon="35.1277350">
<ele>498.799988</ele>
<time>2025-10-17T16:36:54.294Z</time>
</trkpt>
<trkpt lat="31.7670350" lon="35.1277590">
<ele>499.000031</ele>
<time>2025-10-17T16:36:54.294Z</time>
</trkpt>
<trkpt lat="31.7670680" lon="35.1277860">
<ele>499.200012</ele>
<time>2025-10-17T16:36:54.294Z</time>
</trkpt>
<trkpt lat="31.7670860" lon="35.1277980">
<ele>499.200012</ele>
<time>2025-10-17T16:36:54.294Z</time>
</trkpt>
<trkpt lat="31.7671030" lon="35.1278100">
<ele>499.000031</ele>
<time>2025-10-17T16:36:54.294Z</time>
</trkpt>
<trkpt lat="31.7671840" lon="35.1278620">
<ele>499.200012</ele>
<time>2025-10-17T16:36:54.294Z</time>
</trkpt>
<trkpt lat="31.7672140" lon="35.1278840">
<ele>499.200012</ele>
<time>2025-10-17T16:36:54.294Z</time>
</trkpt>
<trkpt lat="31.7672530" lon="35.1279120">
<ele>499.200012</ele>
<time>2025-10-17T16:36:54.294Z</time>
</trkpt>
<trkpt lat="31.7672530" lon="35.1279120">
<ele>499.200012</ele>
<time>2025-10-17T16:36:54.294Z</time>
</trkpt>
<trkpt lat="31.7673670" lon="35.1279940">
<ele>499.200012</ele>
<time>2025-10-17T16:36:54.294Z</time>
</trkpt>
<trkpt lat="31.7675420" lon="35.1281090">
<ele>499.000031</ele>
<time>2025-10-17T16:36:54.294Z</time>
</trkpt>
<trkpt lat="31.7675420" lon="35.1281090">
<ele>499.000031</ele>
<time>2025-10-17T16:36:54.294Z</time>
</trkpt>
<trkpt lat="31.7676640" lon="35.1281730">
<ele>498.799988</ele>
<time>2025-10-17T16:36:54.294Z</time>
</trkpt>
<trkpt lat="31.7677060" lon="35.1281920">
<ele>498.600006</ele>
<time>2025-10-17T16:36:54.294Z</time>
</trkpt>
<trkpt lat="31.7677470" lon="35.1282140">
<ele>498.199982</ele>
<time>2025-10-17T16:36:54.294Z</time>
</trkpt>
<trkpt lat="31.7678260" lon="35.1282700">
<ele>498.000000</ele>
<time>2025-10-17T16:36:54.294Z</time>
</trkpt>
<trkpt lat="31.7678910" lon="35.1283290">
<ele>498.000000</ele>
<time>2025-10-17T16:36:54.295Z</time>
</trkpt>
<trkpt lat="31.7679240" lon="35.1283560">
<ele>498.000000</ele>
<time>2025-10-17T16:36:54.295Z</time>
</trkpt>
<trkpt lat="31.7679570" lon="35.1283820">
<ele>498.000000</ele>
<time>2025-10-17T16:36:54.295Z</time>
</trkpt>
<trkpt lat="31.7679910" lon="35.1284020">
<ele>498.000000</ele>
<time>2025-10-17T16:36:54.295Z</time>
</trkpt>
<trkpt lat="31.7680260" lon="35.1284160">
<ele>498.000000</ele>
<time>2025-10-17T16:36:54.295Z</time>
</trkpt>
<trkpt lat="31.7680790" lon="35.1284580">
<ele>498.000000</ele>
<time>2025-10-17T16:36:54.295Z</time>
</trkpt>
<trkpt lat="31.7680960" lon="35.1284920">
<ele>498.000000</ele>
<time>2025-10-17T16:36:54.295Z</time>
</trkpt>
<trkpt lat="31.7681140" lon="35.1285370">
<ele>498.000000</ele>
<time>2025-10-17T16:36:54.295Z</time>
</trkpt>
<trkpt lat="31.7681140" lon="35.1285370">
<ele>498.000000</ele>
<time>2025-10-17T16:36:54.295Z</time>
</trkpt>
<trkpt lat="31.7681310" lon="35.1285740">
<ele>498.000000</ele>
<time>2025-10-17T16:36:54.295Z</time>
</trkpt>
<trkpt lat="31.7681430" lon="35.1286120">
<ele>498.199982</ele>
<time>2025-10-17T16:36:54.295Z</time>
</trkpt>
<trkpt lat="31.7681640" lon="35.1286900">
<ele>498.199982</ele>
<time>2025-10-17T16:36:54.295Z</time>
</trkpt>
<trkpt lat="31.7681640" lon="35.1286900">
<ele>498.400024</ele>
<time>2025-10-17T16:36:54.295Z</time>
</trkpt>
<trkpt lat="31.7681750" lon="35.1287300">
<ele>498.400024</ele>
<time>2025-10-17T16:36:54.295Z</time>
</trkpt>
<trkpt lat="31.7682000" lon="35.1288070">
<ele>498.600006</ele>
<time>2025-10-17T16:36:54.295Z</time>
</trkpt>
<trkpt lat="31.7682060" lon="35.1288270">
<ele>498.600006</ele>
<time>2025-10-17T16:36:54.295Z</time>
</trkpt>
<trkpt lat="31.7682120" lon="35.1288480">
<ele>498.799988</ele>
<time>2025-10-17T16:36:54.295Z</time>
</trkpt>
<trkpt lat="31.7682310" lon="35.1289300">
<ele>498.799988</ele>
<time>2025-10-17T16:36:54.295Z</time>
</trkpt>
<trkpt lat="31.7682370" lon="35.1289720">
<ele>499.200012</ele>
<time>2025-10-17T16:36:54.295Z</time>
</trkpt>
<trkpt lat="31.7682650" lon="35.1291870">
<ele>499.399994</ele>
<time>2025-10-17T16:36:54.295Z</time>
</trkpt>
<trkpt lat="31.7682830" lon="35.1292770">
<ele>500.000000</ele>
<time>2025-10-17T16:36:54.296Z</time>
</trkpt>
<trkpt lat="31.7682830" lon="35.1292770">
<ele>500.399994</ele>
<time>2025-10-17T16:36:54.296Z</time>
</trkpt>
<trkpt lat="31.7683600" lon="35.1295870">
<ele>500.600006</ele>
<time>2025-10-17T16:36:54.296Z</time>
</trkpt>
<trkpt lat="31.7684080" lon="35.1297200">
<ele>500.600006</ele>
<time>2025-10-17T16:36:54.296Z</time>
</trkpt>
<trkpt lat="31.7684230" lon="35.1297610">
<ele>500.600006</ele>
<time>2025-10-17T16:36:54.296Z</time>
</trkpt>
<trkpt lat="31.7684490" lon="35.1298420">
<ele>500.200012</ele>
<time>2025-10-17T16:36:54.296Z</time>
</trkpt>
<trkpt lat="31.7684600" lon="35.1298820">
<ele>500.200012</ele>
<time>2025-10-17T16:36:54.296Z</time>
</trkpt>
<trkpt lat="31.7684780" lon="35.1299490">
<ele>500.399994</ele>
<time>2025-10-17T16:36:54.296Z</time>
</trkpt>
<trkpt lat="31.7684870" lon="35.1299840">
<ele>500.200012</ele>
<time>2025-10-17T16:36:54.296Z</time>
</trkpt>
<trkpt lat="31.7684980" lon="35.1300170">
<ele>500.399994</ele>
<time>2025-10-17T16:36:54.296Z</time>
</trkpt>
<trkpt lat="31.7685080" lon="35.1300500">
<ele>500.399994</ele>
<time>2025-10-17T16:36:54.296Z</time>
</trkpt>
<trkpt lat="31.7685160" lon="35.1300850">
<ele>500.399994</ele>
<time>2025-10-17T16:36:54.296Z</time>
</trkpt>
<trkpt lat="31.7685390" lon="35.1301570">
<ele>500.600006</ele>
<time>2025-10-17T16:36:54.296Z</time>
</trkpt>
<trkpt lat="31.7685490" lon="35.1301820">
<ele>501.199982</ele>
<time>2025-10-17T16:36:54.296Z</time>
</trkpt>
<trkpt lat="31.7685610" lon="35.1302150">
<ele>501.600006</ele>
<time>2025-10-17T16:36:54.296Z</time>
</trkpt>
<trkpt lat="31.7686150" lon="35.1303860">
<ele>501.799988</ele>
<time>2025-10-17T16:36:54.296Z</time>
</trkpt>
<trkpt lat="31.7686470" lon="35.1304410">
<ele>501.999969</ele>
<time>2025-10-17T16:36:54.296Z</time>
</trkpt>
<trkpt lat="31.7686650" lon="35.1304680">
<ele>502.200012</ele>
<time>2025-10-17T16:36:54.296Z</time>
</trkpt>
<trkpt lat="31.7686930" lon="35.1304950">
<ele>502.399994</ele>
<time>2025-10-17T16:36:54.296Z</time>
</trkpt>
<trkpt lat="31.7687540" lon="35.1305360">
<ele>502.599976</ele>
<time>2025-10-17T16:36:54.296Z</time>
</trkpt>
<trkpt lat="31.7687860" lon="35.1305510">
<ele>502.599976</ele>
<time>2025-10-17T16:36:54.297Z</time>
</trkpt>
<trkpt lat="31.7688170" lon="35.1305660">
<ele>502.599976</ele>
<time>2025-10-17T16:36:54.297Z</time>
</trkpt>
<trkpt lat="31.7688720" lon="35.1305940">
<ele>502.599976</ele>
<time>2025-10-17T16:36:54.297Z</time>
</trkpt>
<trkpt lat="31.7689330" lon="35.1306160">
<ele>502.599976</ele>
<time>2025-10-17T16:36:54.297Z</time>
</trkpt>
<trkpt lat="31.7689650" lon="35.1306270">
<ele>502.800018</ele>
<time>2025-10-17T16:36:54.297Z</time>
</trkpt>
<trkpt lat="31.7690290" lon="35.1306440">
<ele>503.000000</ele>
<time>2025-10-17T16:36:54.297Z</time>
</trkpt>
<trkpt lat="31.7690960" lon="35.1306580">
<ele>503.000000</ele>
<time>2025-10-17T16:36:54.297Z</time>
</trkpt>
<trkpt lat="31.7691300" lon="35.1306650">
<ele>503.000000</ele>
<time>2025-10-17T16:36:54.297Z</time>
</trkpt>
<trkpt lat="31.7691620" lon="35.1306730">
<ele>503.000000</ele>
<time>2025-10-17T16:36:54.297Z</time>
</trkpt>
<trkpt lat="31.7693360" lon="35.1307070">
<ele>502.599976</ele>
<time>2025-10-17T16:36:54.297Z</time>
</trkpt>
<trkpt lat="31.7693830" lon="35.1307220">
<ele>502.599976</ele>
<time>2025-10-17T16:36:54.297Z</time>
</trkpt>
<trkpt lat="31.7694230" lon="35.1307380">
<ele>502.599976</ele>
<time>2025-10-17T16:36:54.297Z</time>
</trkpt>
<trkpt lat="31.7694540" lon="35.1307530">
<ele>502.599976</ele>
<time>2025-10-17T16:36:54.297Z</time>
</trkpt>
<trkpt lat="31.7694770" lon="35.1307690">
<ele>502.599976</ele>
<time>2025-10-17T16:36:54.297Z</time>
</trkpt>
<trkpt lat="31.7694930" lon="35.1307880">
<ele>502.599976</ele>
<time>2025-10-17T16:36:54.297Z</time>
</trkpt>
<trkpt lat="31.7695010" lon="35.1308170">
<ele>502.599976</ele>
<time>2025-10-17T16:36:54.297Z</time>
</trkpt>
<trkpt lat="31.7695010" lon="35.1308170">
<ele>502.800018</ele>
<time>2025-10-17T16:36:54.297Z</time>
</trkpt>
<trkpt lat="31.7695040" lon="35.1308290">
<ele>502.800018</ele>
<time>2025-10-17T16:36:54.297Z</time>
</trkpt>
<trkpt lat="31.7695220" lon="35.1308530">
<ele>502.800018</ele>
<time>2025-10-17T16:36:54.298Z</time>
</trkpt>
<trkpt lat="31.7695390" lon="35.1308650">
<ele>503.000000</ele>
<time>2025-10-17T16:36:54.298Z</time>
</trkpt>
<trkpt lat="31.7695540" lon="35.1308680">
<ele>503.199982</ele>
<time>2025-10-17T16:36:54.298Z</time>
</trkpt>
<trkpt lat="31.7695720" lon="35.1308660">
<ele>503.199982</ele>
<time>2025-10-17T16:36:54.298Z</time>
</trkpt>
<trkpt lat="31.7695910" lon="35.1308600">
<ele>503.399994</ele>
<time>2025-10-17T16:36:54.298Z</time>
</trkpt>
<trkpt lat="31.7696350" lon="35.1308410">
<ele>503.399994</ele>
<time>2025-10-17T16:36:54.298Z</time>
</trkpt>
<trkpt lat="31.7696590" lon="35.1308270">
<ele>503.399994</ele>
<time>2025-10-17T16:36:54.298Z</time>
</trkpt>
<trkpt lat="31.7696830" lon="35.1308130">
<ele>503.399994</ele>
<time>2025-10-17T16:36:54.298Z</time>
</trkpt>
<trkpt lat="31.7697060" lon="35.1307940">
<ele>503.600006</ele>
<time>2025-10-17T16:36:54.298Z</time>
</trkpt>
<trkpt lat="31.7697290" lon="35.1307750">
<ele>503.600006</ele>
<time>2025-10-17T16:36:54.298Z</time>
</trkpt>
<trkpt lat="31.7697290" lon="35.1307750">
<ele>503.600006</ele>
<time>2025-10-17T16:36:54.298Z</time>
</trkpt>
<trkpt lat="31.7698920" lon="35.1306670">
<ele>503.799988</ele>
<time>2025-10-17T16:36:54.298Z</time>
</trkpt>
<trkpt lat="31.7700520" lon="35.1305890">
<ele>504.199982</ele>
<time>2025-10-17T16:36:54.298Z</time>
</trkpt>
<trkpt lat="31.7701080" lon="35.1305590">
<ele>504.000000</ele>
<time>2025-10-17T16:36:54.298Z</time>
</trkpt>
<trkpt lat="31.7701710" lon="35.1305310">
<ele>504.199982</ele>
<time>2025-10-17T16:36:54.298Z</time>
</trkpt>
<trkpt lat="31.7704190" lon="35.1304410">
<ele>504.799988</ele>
<time>2025-10-17T16:36:54.298Z</time>
</trkpt>
<trkpt lat="31.7706750" lon="35.1303440">
<ele>505.399994</ele>
<time>2025-10-17T16:36:54.298Z</time>
</trkpt>
<trkpt lat="31.7707090" lon="35.1303340">
<ele>505.399994</ele>
<time>2025-10-17T16:36:54.298Z</time>
</trkpt>
<trkpt lat="31.7707460" lon="35.1303260">
<ele>505.399994</ele>
<time>2025-10-17T16:36:54.298Z</time>
</trkpt>
<trkpt lat="31.7707460" lon="35.1303260">
<ele>505.399994</ele>
<time>2025-10-17T16:36:54.298Z</time>
</trkpt>
<trkpt lat="31.7708150" lon="35.1303090">
<ele>505.399994</ele>
<time>2025-10-17T16:36:54.298Z</time>
</trkpt>
<trkpt lat="31.7709140" lon="35.1302930">
<ele>505.599976</ele>
<time>2025-10-17T16:36:54.299Z</time>
</trkpt>
<trkpt lat="31.7709560" lon="35.1302840">
<ele>505.800018</ele>
<time>2025-10-17T16:36:54.299Z</time>
</trkpt>
<trkpt lat="31.7709830" lon="35.1302780">
<ele>506.000000</ele>
<time>2025-10-17T16:36:54.299Z</time>
</trkpt>
<trkpt lat="31.7710170" lon="35.1302710">
<ele>506.199982</ele>
<time>2025-10-17T16:36:54.299Z</time>
</trkpt>
<trkpt lat="31.7711320" lon="35.1302490">
<ele>506.400024</ele>
<time>2025-10-17T16:36:54.299Z</time>
</trkpt>
<trkpt lat="31.7711320" lon="35.1302490">
<ele>506.400024</ele>
<time>2025-10-17T16:36:54.299Z</time>
</trkpt>
<trkpt lat="31.7711670" lon="35.1302390">
<ele>506.600006</ele>
<time>2025-10-17T16:36:54.299Z</time>
</trkpt>
<trkpt lat="31.7712040" lon="35.1302350">
<ele>506.600006</ele>
<time>2025-10-17T16:36:54.299Z</time>
</trkpt>
<trkpt lat="31.7712730" lon="35.1302400">
<ele>506.799988</ele>
<time>2025-10-17T16:36:54.299Z</time>
</trkpt>
<trkpt lat="31.7714080" lon="35.1302940">
<ele>507.000000</ele>
<time>2025-10-17T16:36:54.299Z</time>
</trkpt>
<trkpt lat="31.7715700" lon="35.1303870">
<ele>507.399994</ele>
<time>2025-10-17T16:36:54.299Z</time>
</trkpt>
<trkpt lat="31.7716330" lon="35.1304360">
<ele>507.399994</ele>
<time>2025-10-17T16:36:54.299Z</time>
</trkpt>
<trkpt lat="31.7717160" lon="35.1305140">
<ele>507.600006</ele>
<time>2025-10-17T16:36:54.299Z</time>
</trkpt>
<trkpt lat="31.7717820" lon="35.1306060">
<ele>507.799988</ele>
<time>2025-10-17T16:36:54.299Z</time>
</trkpt>
<trkpt lat="31.7718130" lon="35.1306750">
<ele>507.799988</ele>
<time>2025-10-17T16:36:54.299Z</time>
</trkpt>
<trkpt lat="31.7718130" lon="35.1306750">
<ele>507.799988</ele>
<time>2025-10-17T16:36:54.299Z</time>
</trkpt>
<trkpt lat="31.7718280" lon="35.1307090">
<ele>507.799988</ele>
<time>2025-10-17T16:36:54.299Z</time>
</trkpt>
<trkpt lat="31.7718570" lon="35.1307810">
<ele>507.799988</ele>
<time>2025-10-17T16:36:54.299Z</time>
</trkpt>
<trkpt lat="31.7718960" lon="35.1308890">
<ele>508.200012</ele>
<time>2025-10-17T16:36:54.299Z</time>
</trkpt>
<trkpt lat="31.7719070" lon="35.1309240">
<ele>508.399994</ele>
<time>2025-10-17T16:36:54.299Z</time>
</trkpt>
<trkpt lat="31.7719160" lon="35.1309540">
<ele>508.399994</ele>
<time>2025-10-17T16:36:54.299Z</time>
</trkpt>
<trkpt lat="31.7719250" lon="35.1309960">
<ele>508.599976</ele>
<time>2025-10-17T16:36:54.299Z</time>
</trkpt>
<trkpt lat="31.7719320" lon="35.1310310">
<ele>508.800018</ele>
<time>2025-10-17T16:36:54.299Z</time>
</trkpt>
<trkpt lat="31.7719400" lon="35.1310680">
<ele>508.800018</ele>
<time>2025-10-17T16:36:54.299Z</time>
</trkpt>
<trkpt lat="31.7719520" lon="35.1311410">
<ele>509.000000</ele>
<time>2025-10-17T16:36:54.299Z</time>
</trkpt>
<trkpt lat="31.7719660" lon="35.1312120">
<ele>509.600006</ele>
<time>2025-10-17T16:36:54.300Z</time>
</trkpt>
<trkpt lat="31.7719820" lon="35.1313230">
<ele>509.799988</ele>
<time>2025-10-17T16:36:54.300Z</time>
</trkpt>
<trkpt lat="31.7719820" lon="35.1313230">
<ele>510.000000</ele>
<time>2025-10-17T16:36:54.300Z</time>
</trkpt>
<trkpt lat="31.7720010" lon="35.1314670">
<ele>510.399994</ele>
<time>2025-10-17T16:36:54.300Z</time>
</trkpt>
<trkpt lat="31.7720040" lon="35.1315020">
<ele>510.600006</ele>
<time>2025-10-17T16:36:54.300Z</time>
</trkpt>
<trkpt lat="31.7720040" lon="35.1315020">
<ele>510.799988</ele>
<time>2025-10-17T16:36:54.300Z</time>
</trkpt>
<trkpt lat="31.7720070" lon="35.1315390">
<ele>510.799988</ele>
<time>2025-10-17T16:36:54.300Z</time>
</trkpt>
<trkpt lat="31.7720030" lon="35.1316130">
<ele>511.000000</ele>
<time>2025-10-17T16:36:54.300Z</time>
</trkpt>
<trkpt lat="31.7719990" lon="35.1316520">
<ele>511.000000</ele>
<time>2025-10-17T16:36:54.300Z</time>
</trkpt>
<trkpt lat="31.7719940" lon="35.1316940">
<ele>511.200012</ele>
<time>2025-10-17T16:36:54.300Z</time>
</trkpt>
<trkpt lat="31.7719890" lon="35.1317350">
<ele>511.200012</ele>
<time>2025-10-17T16:36:54.300Z</time>
</trkpt>
<trkpt lat="31.7719820" lon="35.1317760">
<ele>511.399994</ele>
<time>2025-10-17T16:36:54.300Z</time>
</trkpt>
<trkpt lat="31.7719780" lon="35.1318150">
<ele>511.399994</ele>
<time>2025-10-17T16:36:54.300Z</time>
</trkpt>
<trkpt lat="31.7719730" lon="35.1318550">
<ele>511.800018</ele>
<time>2025-10-17T16:36:54.300Z</time>
</trkpt>
<trkpt lat="31.7719690" lon="35.1318870">
<ele>512.000000</ele>
<time>2025-10-17T16:36:54.300Z</time>
</trkpt>
<trkpt lat="31.7719650" lon="35.1319320">
<ele>512.200012</ele>
<time>2025-10-17T16:36:54.300Z</time>
</trkpt>
<trkpt lat="31.7719640" lon="35.1319710">
<ele>512.200012</ele>
<time>2025-10-17T16:36:54.300Z</time>
</trkpt>
<trkpt lat="31.7719620" lon="35.1320090">
<ele>512.400024</ele>
<time>2025-10-17T16:36:54.300Z</time>
</trkpt>
<trkpt lat="31.7719640" lon="35.1320290">
<ele>512.400024</ele>
<time>2025-10-17T16:36:54.300Z</time>
</trkpt>
<trkpt lat="31.7719650" lon="35.1320490">
<ele>512.400024</ele>
<time>2025-10-17T16:36:54.300Z</time>
</trkpt>
<trkpt lat="31.7719680" lon="35.1321290">
<ele>512.599976</ele>
<time>2025-10-17T16:36:54.300Z</time>
</trkpt>
<trkpt lat="31.7719680" lon="35.1321290">
<ele>512.599976</ele>
<time>2025-10-17T16:36:54.300Z</time>
</trkpt>
<trkpt lat="31.7719710" lon="35.1321690">
<ele>512.799988</ele>
<time>2025-10-17T16:36:54.300Z</time>
</trkpt>
<trkpt lat="31.7719770" lon="35.1322520">
<ele>512.799988</ele>
<time>2025-10-17T16:36:54.300Z</time>
</trkpt>
<trkpt lat="31.7719770" lon="35.1322520">
<ele>512.799988</ele>
<time>2025-10-17T16:36:54.300Z</time>
</trkpt>
<trkpt lat="31.7719800" lon="35.1322870">
<ele>512.799988</ele>
<time>2025-10-17T16:36:54.301Z</time>
</trkpt>
<trkpt lat="31.7719900" lon="35.1323830">
<ele>512.799988</ele>
<time>2025-10-17T16:36:54.301Z</time>
</trkpt>
<trkpt lat="31.7719940" lon="35.1324170">
<ele>513.000000</ele>
<time>2025-10-17T16:36:54.301Z</time>
</trkpt>
<trkpt lat="31.7720000" lon="35.1324590">
<ele>513.000000</ele>
<time>2025-10-17T16:36:54.301Z</time>
</trkpt>
<trkpt lat="31.7720060" lon="35.1324990">
<ele>513.200012</ele>
<time>2025-10-17T16:36:54.301Z</time>
</trkpt>
<trkpt lat="31.7720120" lon="35.1325400">
<ele>513.399963</ele>
<time>2025-10-17T16:36:54.301Z</time>
</trkpt>
<trkpt lat="31.7720180" lon="35.1325830">
<ele>513.600037</ele>
<time>2025-10-17T16:36:54.301Z</time>
</trkpt>
<trkpt lat="31.7720230" lon="35.1326250">
<ele>513.600037</ele>
<time>2025-10-17T16:36:54.301Z</time>
</trkpt>
<trkpt lat="31.7720290" lon="35.1326690">
<ele>513.799988</ele>
<time>2025-10-17T16:36:54.301Z</time>
</trkpt>
<trkpt lat="31.7720310" lon="35.1328270">
<ele>514.000000</ele>
<time>2025-10-17T16:36:54.301Z</time>
</trkpt>
<trkpt lat="31.7720310" lon="35.1328650">
<ele>514.200012</ele>
<time>2025-10-17T16:36:54.301Z</time>
</trkpt>
<trkpt lat="31.7720330" lon="35.1329040">
<ele>514.200012</ele>
<time>2025-10-17T16:36:54.301Z</time>
</trkpt>
<trkpt lat="31.7720370" lon="35.1329440">
<ele>514.200012</ele>
<time>2025-10-17T16:36:54.301Z</time>
</trkpt>
<trkpt lat="31.7720420" lon="35.1329830">
<ele>514.400024</ele>
<time>2025-10-17T16:36:54.301Z</time>
</trkpt>
<trkpt lat="31.7720490" lon="35.1330280">
<ele>514.400024</ele>
<time>2025-10-17T16:36:54.301Z</time>
</trkpt>
<trkpt lat="31.7720520" lon="35.1330590">
<ele>514.400024</ele>
<time>2025-10-17T16:36:54.301Z</time>
</trkpt>
<trkpt lat="31.7720560" lon="35.1330970">
<ele>514.599976</ele>
<time>2025-10-17T16:36:54.301Z</time>
</trkpt>
<trkpt lat="31.7720640" lon="35.1331370">
<ele>515.000000</ele>
<time>2025-10-17T16:36:54.301Z</time>
</trkpt>
<trkpt lat="31.7720690" lon="35.1331750">
<ele>515.000000</ele>
<time>2025-10-17T16:36:54.301Z</time>
</trkpt>
<trkpt lat="31.7720720" lon="35.1332130">
<ele>515.200012</ele>
<time>2025-10-17T16:36:54.301Z</time>
</trkpt>
<trkpt lat="31.7720830" lon="35.1332920">
<ele>515.799988</ele>
<time>2025-10-17T16:36:54.301Z</time>
</trkpt>
<trkpt lat="31.7720920" lon="35.1333290">
<ele>515.799988</ele>
<time>2025-10-17T16:36:54.301Z</time>
</trkpt>
<trkpt lat="31.7721010" lon="35.1333660">
<ele>516.000000</ele>
<time>2025-10-17T16:36:54.301Z</time>
</trkpt>
<trkpt lat="31.7721010" lon="35.1333660">
<ele>516.000000</ele>
<time>2025-10-17T16:36:54.301Z</time>
</trkpt>
<trkpt lat="31.7721090" lon="35.1334060">
<ele>516.000000</ele>
<time>2025-10-17T16:36:54.301Z</time>
</trkpt>
<trkpt lat="31.7721220" lon="35.1334840">
<ele>516.000000</ele>
<time>2025-10-17T16:36:54.301Z</time>
</trkpt>
<trkpt lat="31.7721300" lon="35.1335220">
<ele>516.000000</ele>
<time>2025-10-17T16:36:54.301Z</time>
</trkpt>
<trkpt lat="31.7721380" lon="35.1335610">
<ele>516.400024</ele>
<time>2025-10-17T16:36:54.302Z</time>
</trkpt>
<trkpt lat="31.7721460" lon="35.1336010">
<ele>516.400024</ele>
<time>2025-10-17T16:36:54.302Z</time>
</trkpt>
<trkpt lat="31.7721510" lon="35.1336390">
<ele>516.599976</ele>
<time>2025-10-17T16:36:54.302Z</time>
</trkpt>
<trkpt lat="31.7721560" lon="35.1336770">
<ele>516.599976</ele>
<time>2025-10-17T16:36:54.302Z</time>
</trkpt>
<trkpt lat="31.7721630" lon="35.1337140">
<ele>516.599976</ele>
<time>2025-10-17T16:36:54.302Z</time>
</trkpt>
<trkpt lat="31.7721700" lon="35.1337500">
<ele>516.599976</ele>
<time>2025-10-17T16:36:54.302Z</time>
</trkpt>
<trkpt lat="31.7721760" lon="35.1337860">
<ele>516.799988</ele>
<time>2025-10-17T16:36:54.302Z</time>
</trkpt>
<trkpt lat="31.7721810" lon="35.1338220">
<ele>517.000000</ele>
<time>2025-10-17T16:36:54.302Z</time>
</trkpt>
<trkpt lat="31.7721890" lon="35.1338640">
<ele>517.000000</ele>
<time>2025-10-17T16:36:54.302Z</time>
</trkpt>
<trkpt lat="31.7721970" lon="35.1339060">
<ele>517.200012</ele>
<time>2025-10-17T16:36:54.302Z</time>
</trkpt>
<trkpt lat="31.7722050" lon="35.1339460">
<ele>517.400024</ele>
<time>2025-10-17T16:36:54.302Z</time>
</trkpt>
<trkpt lat="31.7722100" lon="35.1339840">
<ele>517.599976</ele>
<time>2025-10-17T16:36:54.302Z</time>
</trkpt>
<trkpt lat="31.7722120" lon="35.1340140">
<ele>517.599976</ele>
<time>2025-10-17T16:36:54.302Z</time>
</trkpt>
<trkpt lat="31.7722180" lon="35.1340560">
<ele>517.599976</ele>
<time>2025-10-17T16:36:54.302Z</time>
</trkpt>
<trkpt lat="31.7722230" lon="35.1340990">
<ele>517.599976</ele>
<time>2025-10-17T16:36:54.302Z</time>
</trkpt>
<trkpt lat="31.7722270" lon="35.1341310">
<ele>517.400024</ele>
<time>2025-10-17T16:36:54.302Z</time>
</trkpt>
<trkpt lat="31.7722320" lon="35.1341680">
<ele>517.599976</ele>
<time>2025-10-17T16:36:54.302Z</time>
</trkpt>
<trkpt lat="31.7722370" lon="35.1342050">
<ele>517.599976</ele>
<time>2025-10-17T16:36:54.302Z</time>
</trkpt>
<trkpt lat="31.7722370" lon="35.1342050">
<ele>517.599976</ele>
<time>2025-10-17T16:36:54.302Z</time>
</trkpt>
<trkpt lat="31.7722500" lon="35.1343170">
<ele>517.599976</ele>
<time>2025-10-17T16:36:54.302Z</time>
</trkpt>
<trkpt lat="31.7722520" lon="35.1343530">
<ele>517.799988</ele>
<time>2025-10-17T16:36:54.302Z</time>
</trkpt>
<trkpt lat="31.7722610" lon="35.1344970">
<ele>518.000000</ele>
<time>2025-10-17T16:36:54.302Z</time>
</trkpt>
<trkpt lat="31.7722600" lon="35.1345240">
<ele>518.200012</ele>
<time>2025-10-17T16:36:54.302Z</time>
</trkpt>
<trkpt lat="31.7722580" lon="35.1345600">
<ele>518.399963</ele>
<time>2025-10-17T16:36:54.302Z</time>
</trkpt>
<trkpt lat="31.7722540" lon="35.1346020">
<ele>518.799988</ele>
<time>2025-10-17T16:36:54.302Z</time>
</trkpt>
<trkpt lat="31.7722520" lon="35.1346380">
<ele>518.799988</ele>
<time>2025-10-17T16:36:54.302Z</time>
</trkpt>
<trkpt lat="31.7722300" lon="35.1347700">
<ele>519.400024</ele>
<time>2025-10-17T16:36:54.302Z</time>
</trkpt>
<trkpt lat="31.7721980" lon="35.1349010">
<ele>520.000000</ele>
<time>2025-10-17T16:36:54.303Z</time>
</trkpt>
<trkpt lat="31.7721890" lon="35.1349390">
<ele>520.200012</ele>
<time>2025-10-17T16:36:54.303Z</time>
</trkpt>
<trkpt lat="31.7721760" lon="35.1349740">
<ele>520.200012</ele>
<time>2025-10-17T16:36:54.303Z</time>
</trkpt>
<trkpt lat="31.7721590" lon="35.1350050">
<ele>520.200012</ele>
<time>2025-10-17T16:36:54.303Z</time>
</trkpt>
<trkpt lat="31.7721380" lon="35.1350360">
<ele>520.200012</ele>
<time>2025-10-17T16:36:54.303Z</time>
</trkpt>
<trkpt lat="31.7721080" lon="35.1350620">
<ele>520.400024</ele>
<time>2025-10-17T16:36:54.303Z</time>
</trkpt>
<trkpt lat="31.7720780" lon="35.1350880">
<ele>520.400024</ele>
<time>2025-10-17T16:36:54.303Z</time>
</trkpt>
<trkpt lat="31.7720360" lon="35.1351090">
<ele>520.599976</ele>
<time>2025-10-17T16:36:54.303Z</time>
</trkpt>
<trkpt lat="31.7720010" lon="35.1351210">
<ele>520.599976</ele>
<time>2025-10-17T16:36:54.303Z</time>
</trkpt>
<trkpt lat="31.7719720" lon="35.1351290">
<ele>520.599976</ele>
<time>2025-10-17T16:36:54.303Z</time>
</trkpt>
<trkpt lat="31.7719320" lon="35.1351370">
<ele>520.599976</ele>
<time>2025-10-17T16:36:54.303Z</time>
</trkpt>
<trkpt lat="31.7718910" lon="35.1351450">
<ele>520.599976</ele>
<time>2025-10-17T16:36:54.303Z</time>
</trkpt>
<trkpt lat="31.7718520" lon="35.1351500">
<ele>520.599976</ele>
<time>2025-10-17T16:36:54.303Z</time>
</trkpt>
<trkpt lat="31.7718140" lon="35.1351490">
<ele>520.599976</ele>
<time>2025-10-17T16:36:54.303Z</time>
</trkpt>
<trkpt lat="31.7717810" lon="35.1351440">
<ele>520.599976</ele>
<time>2025-10-17T16:36:54.303Z</time>
</trkpt>
<trkpt lat="31.7716520" lon="35.1350960">
<ele>520.599976</ele>
<time>2025-10-17T16:36:54.303Z</time>
</trkpt>
<trkpt lat="31.7714450" lon="35.1350080">
<ele>520.000000</ele>
<time>2025-10-17T16:36:54.303Z</time>
</trkpt>
<trkpt lat="31.7713610" lon="35.1349860">
<ele>519.599976</ele>
<time>2025-10-17T16:36:54.303Z</time>
</trkpt>
<trkpt lat="31.7712810" lon="35.1349630">
<ele>519.400024</ele>
<time>2025-10-17T16:36:54.303Z</time>
</trkpt>
<trkpt lat="31.7710800" lon="35.1349770">
<ele>519.200012</ele>
<time>2025-10-17T16:36:54.303Z</time>
</trkpt>
<trkpt lat="31.7709960" lon="35.1350130">
<ele>519.000000</ele>
<time>2025-10-17T16:36:54.303Z</time>
</trkpt>
<trkpt lat="31.7708570" lon="35.1351150">
<ele>518.799988</ele>
<time>2025-10-17T16:36:54.303Z</time>
</trkpt>
<trkpt lat="31.7708160" lon="35.1351420">
<ele>518.799988</ele>
<time>2025-10-17T16:36:54.304Z</time>
</trkpt>
<trkpt lat="31.7707810" lon="35.1351650">
<ele>518.799988</ele>
<time>2025-10-17T16:36:54.304Z</time>
</trkpt>
<trkpt lat="31.7707500" lon="35.1351910">
<ele>518.799988</ele>
<time>2025-10-17T16:36:54.304Z</time>
</trkpt>
<trkpt lat="31.7706970" lon="35.1352420">
<ele>519.000000</ele>
<time>2025-10-17T16:36:54.304Z</time>
</trkpt>
<trkpt lat="31.7706620" lon="35.1352790">
<ele>519.000000</ele>
<time>2025-10-17T16:36:54.304Z</time>
</trkpt>
<trkpt lat="31.7706350" lon="35.1353140">
<ele>519.000000</ele>
<time>2025-10-17T16:36:54.304Z</time>
</trkpt>
<trkpt lat="31.7705890" lon="35.1353930">
<ele>519.000000</ele>
<time>2025-10-17T16:36:54.304Z</time>
</trkpt>
<trkpt lat="31.7705720" lon="35.1354280">
<ele>519.000000</ele>
<time>2025-10-17T16:36:54.304Z</time>
</trkpt>
<trkpt lat="31.7705480" lon="35.1354770">
<ele>519.200012</ele>
<time>2025-10-17T16:36:54.304Z</time>
</trkpt>
<trkpt lat="31.7705070" lon="35.1355550">
<ele>519.400024</ele>
<time>2025-10-17T16:36:54.304Z</time>
</trkpt>
<trkpt lat="31.7704890" lon="35.1355970">
<ele>519.599976</ele>
<time>2025-10-17T16:36:54.304Z</time>
</trkpt>
<trkpt lat="31.7704890" lon="35.1355970">
<ele>519.599976</ele>
<time>2025-10-17T16:36:54.304Z</time>
</trkpt>
<trkpt lat="31.7704230" lon="35.1357660">
<ele>519.599976</ele>
<time>2025-10-17T16:36:54.304Z</time>
</trkpt>
<trkpt lat="31.7704030" lon="35.1358090">
<ele>519.599976</ele>
<time>2025-10-17T16:36:54.304Z</time>
</trkpt>
<trkpt lat="31.7703880" lon="35.1358520">
<ele>519.599976</ele>
<time>2025-10-17T16:36:54.304Z</time>
</trkpt>
<trkpt lat="31.7703720" lon="35.1358950">
<ele>519.599976</ele>
<time>2025-10-17T16:36:54.304Z</time>
</trkpt>
<trkpt lat="31.7703590" lon="35.1359260">
<ele>519.599976</ele>
<time>2025-10-17T16:36:54.304Z</time>
</trkpt>
<trkpt lat="31.7703430" lon="35.1359630">
<ele>519.599976</ele>
<time>2025-10-17T16:36:54.304Z</time>
</trkpt>
<trkpt lat="31.7703280" lon="35.1360000">
<ele>519.599976</ele>
<time>2025-10-17T16:36:54.304Z</time>
</trkpt>
<trkpt lat="31.7703140" lon="35.1360400">
<ele>519.599976</ele>
<time>2025-10-17T16:36:54.304Z</time>
</trkpt>
<trkpt lat="31.7703000" lon="35.1360800">
<ele>519.799988</ele>
<time>2025-10-17T16:36:54.304Z</time>
</trkpt>
<trkpt lat="31.7702840" lon="35.1361200">
<ele>519.799988</ele>
<time>2025-10-17T16:36:54.305Z</time>
</trkpt>
<trkpt lat="31.7702670" lon="35.1361590">
<ele>520.000000</ele>
<time>2025-10-17T16:36:54.305Z</time>
</trkpt>
<trkpt lat="31.7702480" lon="35.1361990">
<ele>520.000000</ele>
<time>2025-10-17T16:36:54.305Z</time>
</trkpt>
<trkpt lat="31.7702120" lon="35.1362860">
<ele>520.400024</ele>
<time>2025-10-17T16:36:54.305Z</time>
</trkpt>
<trkpt lat="31.7701980" lon="35.1363320">
<ele>520.599976</ele>
<time>2025-10-17T16:36:54.305Z</time>
</trkpt>
<trkpt lat="31.7701860" lon="35.1363770">
<ele>520.599976</ele>
<time>2025-10-17T16:36:54.305Z</time>
</trkpt>
<trkpt lat="31.7701750" lon="35.1364200">
<ele>520.799988</ele>
<time>2025-10-17T16:36:54.305Z</time>
</trkpt>
<trkpt lat="31.7701610" lon="35.1365040">
<ele>520.799988</ele>
<time>2025-10-17T16:36:54.305Z</time>
</trkpt>
<trkpt lat="31.7701480" lon="35.1366360">
<ele>520.799988</ele>
<time>2025-10-17T16:36:54.305Z</time>
</trkpt>
<trkpt lat="31.7701430" lon="35.1366820">
<ele>520.799988</ele>
<time>2025-10-17T16:36:54.305Z</time>
</trkpt>
<trkpt lat="31.7701360" lon="35.1367280">
<ele>520.799988</ele>
<time>2025-10-17T16:36:54.305Z</time>
</trkpt>
<trkpt lat="31.7701270" lon="35.1367730">
<ele>520.799988</ele>
<time>2025-10-17T16:36:54.305Z</time>
</trkpt>
<trkpt lat="31.7701150" lon="35.1368600">
<ele>520.799988</ele>
<time>2025-10-17T16:36:54.305Z</time>
</trkpt>
<trkpt lat="31.7701100" lon="35.1369050">
<ele>520.799988</ele>
<time>2025-10-17T16:36:54.305Z</time>
</trkpt>
<trkpt lat="31.7701120" lon="35.1370750">
<ele>521.200012</ele>
<time>2025-10-17T16:36:54.305Z</time>
</trkpt>
<trkpt lat="31.7701190" lon="35.1371530">
<ele>521.200012</ele>
<time>2025-10-17T16:36:54.305Z</time>
</trkpt>
<trkpt lat="31.7701250" lon="35.1372010">
<ele>521.399963</ele>
<time>2025-10-17T16:36:54.305Z</time>
</trkpt>
<trkpt lat="31.7701270" lon="35.1372290">
<ele>521.399963</ele>
<time>2025-10-17T16:36:54.305Z</time>
</trkpt>
<trkpt lat="31.7701290" lon="35.1372680">
<ele>521.600037</ele>
<time>2025-10-17T16:36:54.305Z</time>
</trkpt>
<trkpt lat="31.7701310" lon="35.1373080">
<ele>521.600037</ele>
<time>2025-10-17T16:36:54.305Z</time>
</trkpt>
<trkpt lat="31.7701340" lon="35.1373590">
<ele>522.000000</ele>
<time>2025-10-17T16:36:54.305Z</time>
</trkpt>
<trkpt lat="31.7701390" lon="35.1374030">
<ele>522.000000</ele>
<time>2025-10-17T16:36:54.305Z</time>
</trkpt>
<trkpt lat="31.7701490" lon="35.1376200">
<ele>522.599976</ele>
<time>2025-10-17T16:36:54.305Z</time>
</trkpt>
<trkpt lat="31.7701460" lon="35.1376670">
<ele>522.599976</ele>
<time>2025-10-17T16:36:54.306Z</time>
</trkpt>
<trkpt lat="31.7701380" lon="35.1377650">
<ele>523.000000</ele>
<time>2025-10-17T16:36:54.306Z</time>
</trkpt>
<trkpt lat="31.7701040" lon="35.1379070">
<ele>523.200012</ele>
<time>2025-10-17T16:36:54.306Z</time>
</trkpt>
<trkpt lat="31.7700640" lon="35.1379860">
<ele>523.200012</ele>
<time>2025-10-17T16:36:54.306Z</time>
</trkpt>
<trkpt lat="31.7699770" lon="35.1381070">
<ele>523.200012</ele>
<time>2025-10-17T16:36:54.306Z</time>
</trkpt>
<trkpt lat="31.7699340" lon="35.1381470">
<ele>523.200012</ele>
<time>2025-10-17T16:36:54.306Z</time>
</trkpt>
<trkpt lat="31.7698970" lon="35.1381760">
<ele>523.200012</ele>
<time>2025-10-17T16:36:54.306Z</time>
</trkpt>
<trkpt lat="31.7697010" lon="35.1383160">
<ele>523.599976</ele>
<time>2025-10-17T16:36:54.306Z</time>
</trkpt>
<trkpt lat="31.7696360" lon="35.1383680">
<ele>524.000000</ele>
<time>2025-10-17T16:36:54.306Z</time>
</trkpt>
<trkpt lat="31.7695910" lon="35.1384030">
<ele>524.000000</ele>
<time>2025-10-17T16:36:54.306Z</time>
</trkpt>
<trkpt lat="31.7695540" lon="35.1384360">
<ele>524.200012</ele>
<time>2025-10-17T16:36:54.306Z</time>
</trkpt>
<trkpt lat="31.7695180" lon="35.1384710">
<ele>524.200012</ele>
<time>2025-10-17T16:36:54.306Z</time>
</trkpt>
<trkpt lat="31.7694530" lon="35.1385240">
<ele>524.399963</ele>
<time>2025-10-17T16:36:54.306Z</time>
</trkpt>
<trkpt lat="31.7694070" lon="35.1385650">
<ele>524.200012</ele>
<time>2025-10-17T16:36:54.306Z</time>
</trkpt>
<trkpt lat="31.7693680" lon="35.1386000">
<ele>524.200012</ele>
<time>2025-10-17T16:36:54.306Z</time>
</trkpt>
<trkpt lat="31.7693310" lon="35.1386370">
<ele>524.200012</ele>
<time>2025-10-17T16:36:54.306Z</time>
</trkpt>
<trkpt lat="31.7691330" lon="35.1388480">
<ele>524.000000</ele>
<time>2025-10-17T16:36:54.306Z</time>
</trkpt>
<trkpt lat="31.7690960" lon="35.1388880">
<ele>524.000000</ele>
<time>2025-10-17T16:36:54.306Z</time>
</trkpt>
<trkpt lat="31.7690390" lon="35.1389620">
<ele>524.000000</ele>
<time>2025-10-17T16:36:54.306Z</time>
</trkpt>
<trkpt lat="31.7690090" lon="35.1390010">
<ele>524.000000</ele>
<time>2025-10-17T16:36:54.306Z</time>
</trkpt>
<trkpt lat="31.7689870" lon="35.1390430">
<ele>524.000000</ele>
<time>2025-10-17T16:36:54.306Z</time>
</trkpt>
<trkpt lat="31.7689650" lon="35.1390840">
<ele>524.000000</ele>
<time>2025-10-17T16:36:54.306Z</time>
</trkpt>
<trkpt lat="31.7689450" lon="35.1391240">
<ele>524.000000</ele>
<time>2025-10-17T16:36:54.306Z</time>
</trkpt>
<trkpt lat="31.7689260" lon="35.1391660">
<ele>524.000000</ele>
<time>2025-10-17T16:36:54.306Z</time>
</trkpt>
<trkpt lat="31.7688880" lon="35.1392540">
<ele>524.399963</ele>
<time>2025-10-17T16:36:54.306Z</time>
</trkpt>
<trkpt lat="31.7688540" lon="35.1393930">
<ele>525.000000</ele>
<time>2025-10-17T16:36:54.306Z</time>
</trkpt>
<trkpt lat="31.7688380" lon="35.1394870">
<ele>525.200012</ele>
<time>2025-10-17T16:36:54.306Z</time>
</trkpt>
<trkpt lat="31.7688340" lon="35.1395380">
<ele>525.200012</ele>
<time>2025-10-17T16:36:54.307Z</time>
</trkpt>
<trkpt lat="31.7688340" lon="35.1396000">
<ele>525.200012</ele>
<time>2025-10-17T16:36:54.307Z</time>
</trkpt>
<trkpt lat="31.7688360" lon="35.1396410">
<ele>525.400024</ele>
<time>2025-10-17T16:36:54.307Z</time>
</trkpt>
<trkpt lat="31.7688370" lon="35.1396920">
<ele>525.599976</ele>
<time>2025-10-17T16:36:54.307Z</time>
</trkpt>
<trkpt lat="31.7688380" lon="35.1399260">
<ele>526.000000</ele>
<time>2025-10-17T16:36:54.307Z</time>
</trkpt>
<trkpt lat="31.7688340" lon="35.1399790">
<ele>526.000000</ele>
<time>2025-10-17T16:36:54.307Z</time>
</trkpt>
<trkpt lat="31.7688340" lon="35.1400170">
<ele>526.200012</ele>
<time>2025-10-17T16:36:54.307Z</time>
</trkpt>
<trkpt lat="31.7688370" lon="35.1400730">
<ele>526.400024</ele>
<time>2025-10-17T16:36:54.307Z</time>
</trkpt>
<trkpt lat="31.7688410" lon="35.1401090">
<ele>526.400024</ele>
<time>2025-10-17T16:36:54.307Z</time>
</trkpt>
<trkpt lat="31.7688450" lon="35.1401520">
<ele>526.400024</ele>
<time>2025-10-17T16:36:54.307Z</time>
</trkpt>
<trkpt lat="31.7688460" lon="35.1401980">
<ele>526.599976</ele>
<time>2025-10-17T16:36:54.307Z</time>
</trkpt>
<trkpt lat="31.7688430" lon="35.1402360">
<ele>527.000000</ele>
<time>2025-10-17T16:36:54.307Z</time>
</trkpt>
<trkpt lat="31.7688410" lon="35.1402780">
<ele>527.000000</ele>
<time>2025-10-17T16:36:54.307Z</time>
</trkpt>
<trkpt lat="31.7688450" lon="35.1403180">
<ele>527.200012</ele>
<time>2025-10-17T16:36:54.307Z</time>
</trkpt>
<trkpt lat="31.7688460" lon="35.1404250">
<ele>527.400024</ele>
<time>2025-10-17T16:36:54.307Z</time>
</trkpt>
<trkpt lat="31.7688490" lon="35.1404750">
<ele>527.599976</ele>
<time>2025-10-17T16:36:54.307Z</time>
</trkpt>
<trkpt lat="31.7688500" lon="35.1405210">
<ele>527.599976</ele>
<time>2025-10-17T16:36:54.307Z</time>
</trkpt>
<trkpt lat="31.7688540" lon="35.1405590">
<ele>527.599976</ele>
<time>2025-10-17T16:36:54.307Z</time>
</trkpt>
<trkpt lat="31.7688600" lon="35.1406180">
<ele>527.799988</ele>
<time>2025-10-17T16:36:54.307Z</time>
</trkpt>
<trkpt lat="31.7688610" lon="35.1406630">
<ele>527.799988</ele>
<time>2025-10-17T16:36:54.307Z</time>
</trkpt>
<trkpt lat="31.7688640" lon="35.1407080">
<ele>528.000000</ele>
<time>2025-10-17T16:36:54.307Z</time>
</trkpt>
<trkpt lat="31.7688670" lon="35.1407430">
<ele>528.000000</ele>
<time>2025-10-17T16:36:54.307Z</time>
</trkpt>
<trkpt lat="31.7688760" lon="35.1408000">
<ele>528.000000</ele>
<time>2025-10-17T16:36:54.307Z</time>
</trkpt>
<trkpt lat="31.7688840" lon="35.1408570">
<ele>528.000000</ele>
<time>2025-10-17T16:36:54.307Z</time>
</trkpt>
<trkpt lat="31.7688920" lon="35.1409080">
<ele>528.000000</ele>
<time>2025-10-17T16:36:54.307Z</time>
</trkpt>
<trkpt lat="31.7689000" lon="35.1409610">
<ele>528.200012</ele>
<time>2025-10-17T16:36:54.307Z</time>
</trkpt>
<trkpt lat="31.7689060" lon="35.1410050">
<ele>528.200012</ele>
<time>2025-10-17T16:36:54.308Z</time>
</trkpt>
<trkpt lat="31.7689150" lon="35.1410710">
<ele>528.200012</ele>
<time>2025-10-17T16:36:54.308Z</time>
</trkpt>
<trkpt lat="31.7689230" lon="35.1411250">
<ele>528.200012</ele>
<time>2025-10-17T16:36:54.308Z</time>
</trkpt>
<trkpt lat="31.7689310" lon="35.1411800">
<ele>528.400024</ele>
<time>2025-10-17T16:36:54.308Z</time>
</trkpt>
<trkpt lat="31.7689380" lon="35.1412350">
<ele>528.400024</ele>
<time>2025-10-17T16:36:54.308Z</time>
</trkpt>
<trkpt lat="31.7689480" lon="35.1413440">
<ele>528.599976</ele>
<time>2025-10-17T16:36:54.308Z</time>
</trkpt>
<trkpt lat="31.7689520" lon="35.1413950">
<ele>528.599976</ele>
<time>2025-10-17T16:36:54.308Z</time>
</trkpt>
<trkpt lat="31.7689560" lon="35.1414490">
<ele>528.799988</ele>
<time>2025-10-17T16:36:54.308Z</time>
</trkpt>
<trkpt lat="31.7689580" lon="35.1415430">
<ele>528.799988</ele>
<time>2025-10-17T16:36:54.308Z</time>
</trkpt>
<trkpt lat="31.7689550" lon="35.1416060">
<ele>528.599976</ele>
<time>2025-10-17T16:36:54.308Z</time>
</trkpt>
<trkpt lat="31.7689450" lon="35.1416560">
<ele>528.799988</ele>
<time>2025-10-17T16:36:54.308Z</time>
</trkpt>
<trkpt lat="31.7689390" lon="35.1417570">
<ele>528.799988</ele>
<time>2025-10-17T16:36:54.308Z</time>
</trkpt>
<trkpt lat="31.7689340" lon="35.1418140">
<ele>528.799988</ele>
<time>2025-10-17T16:36:54.308Z</time>
</trkpt>
<trkpt lat="31.7689290" lon="35.1418710">
<ele>528.799988</ele>
<time>2025-10-17T16:36:54.308Z</time>
</trkpt>
<trkpt lat="31.7689070" lon="35.1420010">
<ele>528.599976</ele>
<time>2025-10-17T16:36:54.308Z</time>
</trkpt>
<trkpt lat="31.7688940" lon="35.1420530">
<ele>528.599976</ele>
<time>2025-10-17T16:36:54.308Z</time>
</trkpt>
<trkpt lat="31.7688870" lon="35.1421030">
<ele>528.599976</ele>
<time>2025-10-17T16:36:54.308Z</time>
</trkpt>
<trkpt lat="31.7688820" lon="35.1421520">
<ele>528.799988</ele>
<time>2025-10-17T16:36:54.308Z</time>
</trkpt>
<trkpt lat="31.7688760" lon="35.1422000">
<ele>529.000000</ele>
<time>2025-10-17T16:36:54.308Z</time>
</trkpt>
<trkpt lat="31.7688730" lon="35.1422440">
<ele>529.000000</ele>
<time>2025-10-17T16:36:54.308Z</time>
</trkpt>
<trkpt lat="31.7688690" lon="35.1422880">
<ele>528.799988</ele>
<time>2025-10-17T16:36:54.308Z</time>
</trkpt>
<trkpt lat="31.7688640" lon="35.1423400">
<ele>528.799988</ele>
<time>2025-10-17T16:36:54.308Z</time>
</trkpt>
<trkpt lat="31.7688610" lon="35.1423930">
<ele>528.799988</ele>
<time>2025-10-17T16:36:54.308Z</time>
</trkpt>
<trkpt lat="31.7688510" lon="35.1425990">
<ele>528.599976</ele>
<time>2025-10-17T16:36:54.308Z</time>
</trkpt>
<trkpt lat="31.7688570" lon="35.1428120">
<ele>528.799988</ele>
<time>2025-10-17T16:36:54.309Z</time>
</trkpt>
<trkpt lat="31.7688830" lon="35.1429130">
<ele>528.799988</ele>
<time>2025-10-17T16:36:54.309Z</time>
</trkpt>
<trkpt lat="31.7688990" lon="35.1429520">
<ele>528.799988</ele>
<time>2025-10-17T16:36:54.309Z</time>
</trkpt>
<trkpt lat="31.7689510" lon="35.1430480">
<ele>528.799988</ele>
<time>2025-10-17T16:36:54.309Z</time>
</trkpt>
<trkpt lat="31.7690480" lon="35.1431670">
<ele>528.599976</ele>
<time>2025-10-17T16:36:54.309Z</time>
</trkpt>
<trkpt lat="31.7691250" lon="35.1432670">
<ele>528.000000</ele>
<time>2025-10-17T16:36:54.309Z</time>
</trkpt>
<trkpt lat="31.7692020" lon="35.1433480">
<ele>527.799988</ele>
<time>2025-10-17T16:36:54.309Z</time>
</trkpt>
<trkpt lat="31.7692430" lon="35.1433870">
<ele>527.599976</ele>
<time>2025-10-17T16:36:54.309Z</time>
</trkpt>
<trkpt lat="31.7692840" lon="35.1434230">
<ele>527.400024</ele>
<time>2025-10-17T16:36:54.309Z</time>
</trkpt>
<trkpt lat="31.7693270" lon="35.1434560">
<ele>527.799988</ele>
<time>2025-10-17T16:36:54.309Z</time>
</trkpt>
<trkpt lat="31.7694010" lon="35.1435030">
<ele>527.799988</ele>
<time>2025-10-17T16:36:54.309Z</time>
</trkpt>
<trkpt lat="31.7694450" lon="35.1435280">
<ele>527.799988</ele>
<time>2025-10-17T16:36:54.309Z</time>
</trkpt>
<trkpt lat="31.7694960" lon="35.1435550">
<ele>528.000000</ele>
<time>2025-10-17T16:36:54.309Z</time>
</trkpt>
<trkpt lat="31.7695390" lon="35.1435770">
<ele>528.200012</ele>
<time>2025-10-17T16:36:54.309Z</time>
</trkpt>
<trkpt lat="31.7695820" lon="35.1436000">
<ele>528.200012</ele>
<time>2025-10-17T16:36:54.309Z</time>
</trkpt>
<trkpt lat="31.7696210" lon="35.1436210">
<ele>528.200012</ele>
<time>2025-10-17T16:36:54.309Z</time>
</trkpt>
<trkpt lat="31.7696590" lon="35.1436430">
<ele>528.200012</ele>
<time>2025-10-17T16:36:54.309Z</time>
</trkpt>
<trkpt lat="31.7697090" lon="35.1436670">
<ele>528.200012</ele>
<time>2025-10-17T16:36:54.310Z</time>
</trkpt>
<trkpt lat="31.7697490" lon="35.1436870">
<ele>528.200012</ele>
<time>2025-10-17T16:36:54.310Z</time>
</trkpt>
<trkpt lat="31.7697920" lon="35.1437070">
<ele>528.200012</ele>
<time>2025-10-17T16:36:54.310Z</time>
</trkpt>
<trkpt lat="31.7698350" lon="35.1437270">
<ele>528.200012</ele>
<time>2025-10-17T16:36:54.310Z</time>
</trkpt>
<trkpt lat="31.7698690" lon="35.1437440">
<ele>528.400024</ele>
<time>2025-10-17T16:36:54.310Z</time>
</trkpt>
<trkpt lat="31.7699210" lon="35.1437730">
<ele>528.200012</ele>
<time>2025-10-17T16:36:54.310Z</time>
</trkpt>
<trkpt lat="31.7700080" lon="35.1438190">
<ele>528.599976</ele>
<time>2025-10-17T16:36:54.310Z</time>
</trkpt>
<trkpt lat="31.7702160" lon="35.1439220">
<ele>529.000000</ele>
<time>2025-10-17T16:36:54.310Z</time>
</trkpt>
<trkpt lat="31.7702590" lon="35.1439450">
<ele>529.000000</ele>
<time>2025-10-17T16:36:54.310Z</time>
</trkpt>
<trkpt lat="31.7703510" lon="35.1439840">
<ele>529.000000</ele>
<time>2025-10-17T16:36:54.310Z</time>
</trkpt>
<trkpt lat="31.7704390" lon="35.1440330">
<ele>528.799988</ele>
<time>2025-10-17T16:36:54.310Z</time>
</trkpt>
<trkpt lat="31.7704880" lon="35.1440580">
<ele>528.799988</ele>
<time>2025-10-17T16:36:54.310Z</time>
</trkpt>
<trkpt lat="31.7706160" lon="35.1441150">
<ele>528.799988</ele>
<time>2025-10-17T16:36:54.310Z</time>
</trkpt>
<trkpt lat="31.7706570" lon="35.1441370">
<ele>528.799988</ele>
<time>2025-10-17T16:36:54.310Z</time>
</trkpt>
<trkpt lat="31.7706960" lon="35.1441620">
<ele>529.000000</ele>
<time>2025-10-17T16:36:54.310Z</time>
</trkpt>
<trkpt lat="31.7707360" lon="35.1441870">
<ele>529.000000</ele>
<time>2025-10-17T16:36:54.310Z</time>
</trkpt>
<trkpt lat="31.7707740" lon="35.1442120">
<ele>529.000000</ele>
<time>2025-10-17T16:36:54.310Z</time>
</trkpt>
<trkpt lat="31.7708140" lon="35.1442380">
<ele>529.000000</ele>
<time>2025-10-17T16:36:54.311Z</time>
</trkpt>
<trkpt lat="31.7708540" lon="35.1442650">
<ele>529.000000</ele>
<time>2025-10-17T16:36:54.311Z</time>
</trkpt>
<trkpt lat="31.7710450" lon="35.1444180">
<ele>529.399963</ele>
<time>2025-10-17T16:36:54.311Z</time>
</trkpt>
<trkpt lat="31.7710800" lon="35.1444490">
<ele>529.399963</ele>
<time>2025-10-17T16:36:54.311Z</time>
</trkpt>
<trkpt lat="31.7711160" lon="35.1444800">
<ele>529.399963</ele>
<time>2025-10-17T16:36:54.311Z</time>
</trkpt>
<trkpt lat="31.7711530" lon="35.1445120">
<ele>529.600037</ele>
<time>2025-10-17T16:36:54.311Z</time>
</trkpt>
<trkpt lat="31.7713160" lon="35.1446930">
<ele>529.399963</ele>
<time>2025-10-17T16:36:54.311Z</time>
</trkpt>
<trkpt lat="31.7713460" lon="35.1447360">
<ele>529.399963</ele>
<time>2025-10-17T16:36:54.311Z</time>
</trkpt>
<trkpt lat="31.7713720" lon="35.1447800">
<ele>529.399963</ele>
<time>2025-10-17T16:36:54.311Z</time>
</trkpt>
<trkpt lat="31.7714200" lon="35.1448700">
<ele>529.399963</ele>
<time>2025-10-17T16:36:54.311Z</time>
</trkpt>
<trkpt lat="31.7714340" lon="35.1449160">
<ele>529.399963</ele>
<time>2025-10-17T16:36:54.311Z</time>
</trkpt>
<trkpt lat="31.7714440" lon="35.1449610">
<ele>529.799988</ele>
<time>2025-10-17T16:36:54.311Z</time>
</trkpt>
<trkpt lat="31.7714520" lon="35.1450040">
<ele>529.799988</ele>
<time>2025-10-17T16:36:54.311Z</time>
</trkpt>
<trkpt lat="31.7714590" lon="35.1450460">
<ele>530.000000</ele>
<time>2025-10-17T16:36:54.311Z</time>
</trkpt>
<trkpt lat="31.7714680" lon="35.1450910">
<ele>530.000000</ele>
<time>2025-10-17T16:36:54.311Z</time>
</trkpt>
<trkpt lat="31.7714760" lon="35.1451400">
<ele>530.000000</ele>
<time>2025-10-17T16:36:54.312Z</time>
</trkpt>
<trkpt lat="31.7714900" lon="35.1452410">
<ele>530.200012</ele>
<time>2025-10-17T16:36:54.312Z</time>
</trkpt>
<trkpt lat="31.7714890" lon="35.1452960">
<ele>530.400024</ele>
<time>2025-10-17T16:36:54.312Z</time>
</trkpt>
<trkpt lat="31.7714870" lon="35.1453320">
<ele>530.599976</ele>
<time>2025-10-17T16:36:54.312Z</time>
</trkpt>
<trkpt lat="31.7714850" lon="35.1453770">
<ele>530.599976</ele>
<time>2025-10-17T16:36:54.312Z</time>
</trkpt>
<trkpt lat="31.7714840" lon="35.1454330">
<ele>530.799988</ele>
<time>2025-10-17T16:36:54.312Z</time>
</trkpt>
<trkpt lat="31.7714860" lon="35.1454830">
<ele>530.799988</ele>
<time>2025-10-17T16:36:54.312Z</time>
</trkpt>
<trkpt lat="31.7714910" lon="35.1456260">
<ele>531.000000</ele>
<time>2025-10-17T16:36:54.312Z</time>
</trkpt>
<trkpt lat="31.7715010" lon="35.1457190">
<ele>531.200012</ele>
<time>2025-10-17T16:36:54.312Z</time>
</trkpt>
<trkpt lat="31.7715270" lon="35.1459540">
<ele>531.599976</ele>
<time>2025-10-17T16:36:54.312Z</time>
</trkpt>
<trkpt lat="31.7715350" lon="35.1460010">
<ele>531.799988</ele>
<time>2025-10-17T16:36:54.312Z</time>
</trkpt>
<trkpt lat="31.7715420" lon="35.1460490">
<ele>532.000000</ele>
<time>2025-10-17T16:36:54.312Z</time>
</trkpt>
<trkpt lat="31.7715510" lon="35.1460980">
<ele>532.200012</ele>
<time>2025-10-17T16:36:54.312Z</time>
</trkpt>
<trkpt lat="31.7715700" lon="35.1461900">
<ele>532.200012</ele>
<time>2025-10-17T16:36:54.312Z</time>
</trkpt>
<trkpt lat="31.7715840" lon="35.1462490">
<ele>532.200012</ele>
<time>2025-10-17T16:36:54.312Z</time>
</trkpt>
<trkpt lat="31.7716230" lon="35.1463800">
<ele>532.399963</ele>
<time>2025-10-17T16:36:54.312Z</time>
</trkpt>
<trkpt lat="31.7716590" lon="35.1464710">
<ele>532.399963</ele>
<time>2025-10-17T16:36:54.313Z</time>
</trkpt>
<trkpt lat="31.7717740" lon="35.1466960">
<ele>532.399963</ele>
<time>2025-10-17T16:36:54.313Z</time>
</trkpt>
<trkpt lat="31.7717910" lon="35.1467360">
<ele>532.399963</ele>
<time>2025-10-17T16:36:54.313Z</time>
</trkpt>
<trkpt lat="31.7718340" lon="35.1468150">
<ele>532.600037</ele>
<time>2025-10-17T16:36:54.313Z</time>
</trkpt>
<trkpt lat="31.7718600" lon="35.1468510">
<ele>532.600037</ele>
<time>2025-10-17T16:36:54.313Z</time>
</trkpt>
<trkpt lat="31.7719080" lon="35.1469260">
<ele>532.600037</ele>
<time>2025-10-17T16:36:54.313Z</time>
</trkpt>
<trkpt lat="31.7719290" lon="35.1469540">
<ele>532.600037</ele>
<time>2025-10-17T16:36:54.313Z</time>
</trkpt>
<trkpt lat="31.7719560" lon="35.1469910">
<ele>532.600037</ele>
<time>2025-10-17T16:36:54.313Z</time>
</trkpt>
<trkpt lat="31.7719820" lon="35.1470240">
<ele>532.600037</ele>
<time>2025-10-17T16:36:54.313Z</time>
</trkpt>
<trkpt lat="31.7720170" lon="35.1470690">
<ele>532.600037</ele>
<time>2025-10-17T16:36:54.313Z</time>
</trkpt>
<trkpt lat="31.7721310" lon="35.1471980">
<ele>532.600037</ele>
<time>2025-10-17T16:36:54.313Z</time>
</trkpt>
<trkpt lat="31.7721660" lon="35.1472280">
<ele>532.600037</ele>
<time>2025-10-17T16:36:54.313Z</time>
</trkpt>
<trkpt lat="31.7722000" lon="35.1472620">
<ele>532.600037</ele>
<time>2025-10-17T16:36:54.313Z</time>
</trkpt>
<trkpt lat="31.7722670" lon="35.1473300">
<ele>532.799988</ele>
<time>2025-10-17T16:36:54.313Z</time>
</trkpt>
<trkpt lat="31.7723290" lon="35.1474000">
<ele>532.600037</ele>
<time>2025-10-17T16:36:54.313Z</time>
</trkpt>
<trkpt lat="31.7723620" lon="35.1474360">
<ele>532.600037</ele>
<time>2025-10-17T16:36:54.313Z</time>
</trkpt>
<trkpt lat="31.7724340" lon="35.1475060">
<ele>532.600037</ele>
<time>2025-10-17T16:36:54.313Z</time>
</trkpt>
<trkpt lat="31.7724340" lon="35.1475060">
<ele>532.600037</ele>
<time>2025-10-17T16:36:54.313Z</time>
</trkpt>
<trkpt lat="31.7725420" lon="35.1476200">
<ele>532.600037</ele>
<time>2025-10-17T16:36:54.313Z</time>
</trkpt>
<trkpt lat="31.7726210" lon="35.1476810">
<ele>532.600037</ele>
<time>2025-10-17T16:36:54.313Z</time>
</trkpt>
<trkpt lat="31.7726600" lon="35.1477130">
<ele>532.600037</ele>
<time>2025-10-17T16:36:54.314Z</time>
</trkpt>
<trkpt lat="31.7726980" lon="35.1477460">
<ele>532.600037</ele>
<time>2025-10-17T16:36:54.314Z</time>
</trkpt>
<trkpt lat="31.7727710" lon="35.1478170">
<ele>532.799988</ele>
<time>2025-10-17T16:36:54.314Z</time>
</trkpt>
<trkpt lat="31.7729880" lon="35.1480270">
<ele>533.000000</ele>
<time>2025-10-17T16:36:54.314Z</time>
</trkpt>
<trkpt lat="31.7730220" lon="35.1480600">
<ele>533.000000</ele>
<time>2025-10-17T16:36:54.314Z</time>
</trkpt>
<trkpt lat="31.7730550" lon="35.1480930">
<ele>533.000000</ele>
<time>2025-10-17T16:36:54.314Z</time>
</trkpt>
<trkpt lat="31.7731930" lon="35.1482090">
<ele>533.000000</ele>
<time>2025-10-17T16:36:54.314Z</time>
</trkpt>
<trkpt lat="31.7732290" lon="35.1482310">
<ele>533.000000</ele>
<time>2025-10-17T16:36:54.314Z</time>
</trkpt>
<trkpt lat="31.7732640" lon="35.1482510">
<ele>533.200012</ele>
<time>2025-10-17T16:36:54.314Z</time>
</trkpt>
<trkpt lat="31.7733010" lon="35.1482740">
<ele>533.200012</ele>
<time>2025-10-17T16:36:54.314Z</time>
</trkpt>
<trkpt lat="31.7733380" lon="35.1483030">
<ele>533.200012</ele>
<time>2025-10-17T16:36:54.314Z</time>
</trkpt>
<trkpt lat="31.7733760" lon="35.1483380">
<ele>533.200012</ele>
<time>2025-10-17T16:36:54.314Z</time>
</trkpt>
<trkpt lat="31.7734140" lon="35.1483820">
<ele>533.200012</ele>
<time>2025-10-17T16:36:54.314Z</time>
</trkpt>
<trkpt lat="31.7734470" lon="35.1484300">
<ele>533.200012</ele>
<time>2025-10-17T16:36:54.314Z</time>
</trkpt>
<trkpt lat="31.7734750" lon="35.1484780">
<ele>533.200012</ele>
<time>2025-10-17T16:36:54.314Z</time>
</trkpt>
<trkpt lat="31.7734990" lon="35.1485240">
<ele>533.200012</ele>
<time>2025-10-17T16:36:54.314Z</time>
</trkpt>
<trkpt lat="31.7735190" lon="35.1485690">
<ele>533.200012</ele>
<time>2025-10-17T16:36:54.314Z</time>
</trkpt>
<trkpt lat="31.7735340" lon="35.1486140">
<ele>533.200012</ele>
<time>2025-10-17T16:36:54.315Z</time>
</trkpt>
<trkpt lat="31.7735480" lon="35.1486610">
<ele>533.200012</ele>
<time>2025-10-17T16:36:54.315Z</time>
</trkpt>
<trkpt lat="31.7735570" lon="35.1487080">
<ele>533.200012</ele>
<time>2025-10-17T16:36:54.315Z</time>
</trkpt>
<trkpt lat="31.7735830" lon="35.1488590">
<ele>533.200012</ele>
<time>2025-10-17T16:36:54.315Z</time>
</trkpt>
<trkpt lat="31.7735910" lon="35.1489120">
<ele>533.200012</ele>
<time>2025-10-17T16:36:54.315Z</time>
</trkpt>
<trkpt lat="31.7735950" lon="35.1489620">
<ele>533.200012</ele>
<time>2025-10-17T16:36:54.315Z</time>
</trkpt>
<trkpt lat="31.7736030" lon="35.1490140">
<ele>533.200012</ele>
<time>2025-10-17T16:36:54.315Z</time>
</trkpt>
<trkpt lat="31.7736120" lon="35.1490640">
<ele>533.200012</ele>
<time>2025-10-17T16:36:54.315Z</time>
</trkpt>
<trkpt lat="31.7736190" lon="35.1491110">
<ele>533.200012</ele>
<time>2025-10-17T16:36:54.315Z</time>
</trkpt>
<trkpt lat="31.7736250" lon="35.1491570">
<ele>533.400024</ele>
<time>2025-10-17T16:36:54.315Z</time>
</trkpt>
<trkpt lat="31.7736390" lon="35.1492500">
<ele>533.400024</ele>
<time>2025-10-17T16:36:54.315Z</time>
</trkpt>
<trkpt lat="31.7736440" lon="35.1493390">
<ele>533.400024</ele>
<time>2025-10-17T16:36:54.315Z</time>
</trkpt>
<trkpt lat="31.7736460" lon="35.1493830">
<ele>533.400024</ele>
<time>2025-10-17T16:36:54.315Z</time>
</trkpt>
<trkpt lat="31.7736500" lon="35.1494260">
<ele>533.599976</ele>
<time>2025-10-17T16:36:54.315Z</time>
</trkpt>
<trkpt lat="31.7736550" lon="35.1494670">
<ele>533.799988</ele>
<time>2025-10-17T16:36:54.315Z</time>
</trkpt>
<trkpt lat="31.7736630" lon="35.1495090">
<ele>534.000000</ele>
<time>2025-10-17T16:36:54.315Z</time>
</trkpt>
<trkpt lat="31.7736750" lon="35.1495580">
<ele>534.200012</ele>
<time>2025-10-17T16:36:54.315Z</time>
</trkpt>
<trkpt lat="31.7737270" lon="35.1496970">
<ele>534.599976</ele>
<time>2025-10-17T16:36:54.315Z</time>
</trkpt>
<trkpt lat="31.7737470" lon="35.1497380">
<ele>534.799988</ele>
<time>2025-10-17T16:36:54.315Z</time>
</trkpt>
<trkpt lat="31.7737690" lon="35.1497790">
<ele>534.799988</ele>
<time>2025-10-17T16:36:54.315Z</time>
</trkpt>
<trkpt lat="31.7738500" lon="35.1499240">
<ele>535.000000</ele>
<time>2025-10-17T16:36:54.315Z</time>
</trkpt>
<trkpt lat="31.7738700" lon="35.1499570">
<ele>535.200012</ele>
<time>2025-10-17T16:36:54.316Z</time>
</trkpt>
<trkpt lat="31.7738910" lon="35.1499900">
<ele>535.200012</ele>
<time>2025-10-17T16:36:54.316Z</time>
</trkpt>
<trkpt lat="31.7739980" lon="35.1501390">
<ele>535.799988</ele>
<time>2025-10-17T16:36:54.316Z</time>
</trkpt>
<trkpt lat="31.7740190" lon="35.1501670">
<ele>536.200012</ele>
<time>2025-10-17T16:36:54.316Z</time>
</trkpt>
<trkpt lat="31.7740360" lon="35.1501990">
<ele>536.200012</ele>
<time>2025-10-17T16:36:54.316Z</time>
</trkpt>
<trkpt lat="31.7740490" lon="35.1502340">
<ele>536.400024</ele>
<time>2025-10-17T16:36:54.316Z</time>
</trkpt>
<trkpt lat="31.7740460" lon="35.1502710">
<ele>536.400024</ele>
<time>2025-10-17T16:36:54.316Z</time>
</trkpt>
<trkpt lat="31.7740430" lon="35.1503080">
<ele>536.599976</ele>
<time>2025-10-17T16:36:54.316Z</time>
</trkpt>
<trkpt lat="31.7740240" lon="35.1503430">
<ele>536.599976</ele>
<time>2025-10-17T16:36:54.316Z</time>
</trkpt>
<trkpt lat="31.7739950" lon="35.1503750">
<ele>536.400024</ele>
<time>2025-10-17T16:36:54.316Z</time>
</trkpt>
<trkpt lat="31.7739590" lon="35.1504020">
<ele>536.400024</ele>
<time>2025-10-17T16:36:54.316Z</time>
</trkpt>
<trkpt lat="31.7739210" lon="35.1504280">
<ele>536.400024</ele>
<time>2025-10-17T16:36:54.316Z</time>
</trkpt>
<trkpt lat="31.7738890" lon="35.1504570">
<ele>536.400024</ele>
<time>2025-10-17T16:36:54.316Z</time>
</trkpt>
<trkpt lat="31.7738580" lon="35.1504870">
<ele>536.200012</ele>
<time>2025-10-17T16:36:54.316Z</time>
</trkpt>
<trkpt lat="31.7737900" lon="35.1505520">
<ele>536.000000</ele>
<time>2025-10-17T16:36:54.316Z</time>
</trkpt>
<trkpt lat="31.7736980" lon="35.1506520">
<ele>535.600037</ele>
<time>2025-10-17T16:36:54.316Z</time>
</trkpt>
<trkpt lat="31.7736720" lon="35.1506910">
<ele>535.600037</ele>
<time>2025-10-17T16:36:54.316Z</time>
</trkpt>
<trkpt lat="31.7736020" lon="35.1508090">
<ele>535.200012</ele>
<time>2025-10-17T16:36:54.316Z</time>
</trkpt>
<trkpt lat="31.7735830" lon="35.1508500">
<ele>535.200012</ele>
<time>2025-10-17T16:36:54.316Z</time>
</trkpt>
<trkpt lat="31.7735700" lon="35.1508920">
<ele>535.000000</ele>
<time>2025-10-17T16:36:54.316Z</time>
</trkpt>
<trkpt lat="31.7735600" lon="35.1509360">
<ele>535.200012</ele>
<time>2025-10-17T16:36:54.317Z</time>
</trkpt>
<trkpt lat="31.7735550" lon="35.1509780">
<ele>535.399963</ele>
<time>2025-10-17T16:36:54.317Z</time>
</trkpt>
<trkpt lat="31.7735520" lon="35.1510210">
<ele>535.399963</ele>
<time>2025-10-17T16:36:54.317Z</time>
</trkpt>
<trkpt lat="31.7735580" lon="35.1511090">
<ele>535.600037</ele>
<time>2025-10-17T16:36:54.317Z</time>
</trkpt>
<trkpt lat="31.7735610" lon="35.1511540">
<ele>535.600037</ele>
<time>2025-10-17T16:36:54.317Z</time>
</trkpt>
<trkpt lat="31.7735650" lon="35.1512020">
<ele>535.799988</ele>
<time>2025-10-17T16:36:54.317Z</time>
</trkpt>
<trkpt lat="31.7735670" lon="35.1512500">
<ele>535.799988</ele>
<time>2025-10-17T16:36:54.317Z</time>
</trkpt>
<trkpt lat="31.7735670" lon="35.1512970">
<ele>535.799988</ele>
<time>2025-10-17T16:36:54.317Z</time>
</trkpt>
<trkpt lat="31.7735680" lon="35.1513880">
<ele>536.000000</ele>
<time>2025-10-17T16:36:54.317Z</time>
</trkpt>
<trkpt lat="31.7735680" lon="35.1514280">
<ele>536.200012</ele>
<time>2025-10-17T16:36:54.317Z</time>
</trkpt>
<trkpt lat="31.7735670" lon="35.1515070">
<ele>536.400024</ele>
<time>2025-10-17T16:36:54.317Z</time>
</trkpt>
<trkpt lat="31.7735600" lon="35.1515860">
<ele>536.799988</ele>
<time>2025-10-17T16:36:54.317Z</time>
</trkpt>
<trkpt lat="31.7735560" lon="35.1516260">
<ele>536.799988</ele>
<time>2025-10-17T16:36:54.317Z</time>
</trkpt>
<trkpt lat="31.7735550" lon="35.1516660">
<ele>537.000000</ele>
<time>2025-10-17T16:36:54.317Z</time>
</trkpt>
<trkpt lat="31.7735560" lon="35.1517090">
<ele>537.200012</ele>
<time>2025-10-17T16:36:54.317Z</time>
</trkpt>
<trkpt lat="31.7735570" lon="35.1517420">
<ele>537.599976</ele>
<time>2025-10-17T16:36:54.317Z</time>
</trkpt>
<trkpt lat="31.7735590" lon="35.1517950">
<ele>537.599976</ele>
<time>2025-10-17T16:36:54.317Z</time>
</trkpt>
<trkpt lat="31.7735660" lon="35.1518820">
<ele>537.799988</ele>
<time>2025-10-17T16:36:54.317Z</time>
</trkpt>
<trkpt lat="31.7735780" lon="35.1519570">
<ele>538.000000</ele>
<time>2025-10-17T16:36:54.317Z</time>
</trkpt>
<trkpt lat="31.7735800" lon="35.1520870">
<ele>538.200012</ele>
<time>2025-10-17T16:36:54.317Z</time>
</trkpt>
<trkpt lat="31.7735550" lon="35.1522400">
<ele>538.600037</ele>
<time>2025-10-17T16:36:54.317Z</time>
</trkpt>
<trkpt lat="31.7735460" lon="35.1522730">
<ele>538.799988</ele>
<time>2025-10-17T16:36:54.317Z</time>
</trkpt>
<trkpt lat="31.7735370" lon="35.1523110">
<ele>539.000000</ele>
<time>2025-10-17T16:36:54.317Z</time>
</trkpt>
<trkpt lat="31.7735250" lon="35.1523530">
<ele>539.000000</ele>
<time>2025-10-17T16:36:54.318Z</time>
</trkpt>
<trkpt lat="31.7735110" lon="35.1523840">
<ele>539.000000</ele>
<time>2025-10-17T16:36:54.318Z</time>
</trkpt>
<trkpt lat="31.7734960" lon="35.1524170">
<ele>539.000000</ele>
<time>2025-10-17T16:36:54.318Z</time>
</trkpt>
<trkpt lat="31.7734820" lon="35.1524450">
<ele>539.400024</ele>
<time>2025-10-17T16:36:54.318Z</time>
</trkpt>
<trkpt lat="31.7734620" lon="35.1524850">
<ele>539.599976</ele>
<time>2025-10-17T16:36:54.318Z</time>
</trkpt>
<trkpt lat="31.7734460" lon="35.1525190">
<ele>539.799988</ele>
<time>2025-10-17T16:36:54.318Z</time>
</trkpt>
<trkpt lat="31.7734270" lon="35.1525520">
<ele>539.799988</ele>
<time>2025-10-17T16:36:54.318Z</time>
</trkpt>
<trkpt lat="31.7734120" lon="35.1525800">
<ele>540.000000</ele>
<time>2025-10-17T16:36:54.318Z</time>
</trkpt>
<trkpt lat="31.7733940" lon="35.1526170">
<ele>540.000000</ele>
<time>2025-10-17T16:36:54.318Z</time>
</trkpt>
<trkpt lat="31.7733750" lon="35.1526530">
<ele>540.200012</ele>
<time>2025-10-17T16:36:54.318Z</time>
</trkpt>
<trkpt lat="31.7733620" lon="35.1526870">
<ele>540.399963</ele>
<time>2025-10-17T16:36:54.318Z</time>
</trkpt>
<trkpt lat="31.7733510" lon="35.1527210">
<ele>540.600037</ele>
<time>2025-10-17T16:36:54.318Z</time>
</trkpt>
<trkpt lat="31.7733410" lon="35.1527470">
<ele>540.799988</ele>
<time>2025-10-17T16:36:54.318Z</time>
</trkpt>
<trkpt lat="31.7733250" lon="35.1527900">
<ele>541.000000</ele>
<time>2025-10-17T16:36:54.318Z</time>
</trkpt>
<trkpt lat="31.7733110" lon="35.1528240">
<ele>541.400024</ele>
<time>2025-10-17T16:36:54.318Z</time>
</trkpt>
<trkpt lat="31.7732950" lon="35.1528550">
<ele>541.599976</ele>
<time>2025-10-17T16:36:54.318Z</time>
</trkpt>
<trkpt lat="31.7732840" lon="35.1528800">
<ele>542.000000</ele>
<time>2025-10-17T16:36:54.318Z</time>
</trkpt>
<trkpt lat="31.7732700" lon="35.1529100">
<ele>542.200012</ele>
<time>2025-10-17T16:36:54.318Z</time>
</trkpt>
<trkpt lat="31.7732490" lon="35.1529410">
<ele>542.599976</ele>
<time>2025-10-17T16:36:54.318Z</time>
</trkpt>
<trkpt lat="31.7732330" lon="35.1529670">
<ele>542.599976</ele>
<time>2025-10-17T16:36:54.318Z</time>
</trkpt>
<trkpt lat="31.7732150" lon="35.1529950">
<ele>542.799988</ele>
<time>2025-10-17T16:36:54.318Z</time>
</trkpt>
<trkpt lat="31.7732010" lon="35.1530170">
<ele>543.000000</ele>
<time>2025-10-17T16:36:54.318Z</time>
</trkpt>
<trkpt lat="31.7731820" lon="35.1530480">
<ele>543.200012</ele>
<time>2025-10-17T16:36:54.318Z</time>
</trkpt>
<trkpt lat="31.7731680" lon="35.1530730">
<ele>543.200012</ele>
<time>2025-10-17T16:36:54.318Z</time>
</trkpt>
<trkpt lat="31.7731540" lon="35.1530990">
<ele>543.399963</ele>
<time>2025-10-17T16:36:54.318Z</time>
</trkpt>
<trkpt lat="31.7731430" lon="35.1531200">
<ele>543.399963</ele>
<time>2025-10-17T16:36:54.318Z</time>
</trkpt>
<trkpt lat="31.7731240" lon="35.1531450">
<ele>543.399963</ele>
<time>2025-10-17T16:36:54.318Z</time>
</trkpt>
<trkpt lat="31.7731050" lon="35.1531690">
<ele>543.399963</ele>
<time>2025-10-17T16:36:54.318Z</time>
</trkpt>
<trkpt lat="31.7730870" lon="35.1531910">
<ele>543.600037</ele>
<time>2025-10-17T16:36:54.319Z</time>
</trkpt>
<trkpt lat="31.7730700" lon="35.1532140">
<ele>543.600037</ele>
<time>2025-10-17T16:36:54.319Z</time>
</trkpt>
<trkpt lat="31.7730550" lon="35.1532300">
<ele>543.600037</ele>
<time>2025-10-17T16:36:54.319Z</time>
</trkpt>
<trkpt lat="31.7730300" lon="35.1532500">
<ele>543.600037</ele>
<time>2025-10-17T16:36:54.319Z</time>
</trkpt>
<trkpt lat="31.7730100" lon="35.1532640">
<ele>543.600037</ele>
<time>2025-10-17T16:36:54.319Z</time>
</trkpt>
<trkpt lat="31.7729920" lon="35.1532790">
<ele>543.600037</ele>
<time>2025-10-17T16:36:54.319Z</time>
</trkpt>
<trkpt lat="31.7729770" lon="35.1532900">
<ele>543.799988</ele>
<time>2025-10-17T16:36:54.319Z</time>
</trkpt>
<trkpt lat="31.7729590" lon="35.1533000">
<ele>544.000000</ele>
<time>2025-10-17T16:36:54.319Z</time>
</trkpt>
<trkpt lat="31.7729330" lon="35.1533120">
<ele>544.200012</ele>
<time>2025-10-17T16:36:54.319Z</time>
</trkpt>
<trkpt lat="31.7729120" lon="35.1533240">
<ele>544.400024</ele>
<time>2025-10-17T16:36:54.319Z</time>
</trkpt>
<trkpt lat="31.7728930" lon="35.1533390">
<ele>544.599976</ele>
<time>2025-10-17T16:36:54.319Z</time>
</trkpt>
<trkpt lat="31.7728760" lon="35.1533490">
<ele>544.599976</ele>
<time>2025-10-17T16:36:54.319Z</time>
</trkpt>
<trkpt lat="31.7728520" lon="35.1533670">
<ele>544.799988</ele>
<time>2025-10-17T16:36:54.319Z</time>
</trkpt>
<trkpt lat="31.7728340" lon="35.1533810">
<ele>544.799988</ele>
<time>2025-10-17T16:36:54.319Z</time>
</trkpt>
<trkpt lat="31.7728150" lon="35.1533950">
<ele>545.000000</ele>
<time>2025-10-17T16:36:54.319Z</time>
</trkpt>
<trkpt lat="31.7728000" lon="35.1534060">
<ele>545.200012</ele>
<time>2025-10-17T16:36:54.319Z</time>
</trkpt>
<trkpt lat="31.7727780" lon="35.1534220">
<ele>545.200012</ele>
<time>2025-10-17T16:36:54.319Z</time>
</trkpt>
<trkpt lat="31.7727560" lon="35.1534370">
<ele>545.400024</ele>
<time>2025-10-17T16:36:54.319Z</time>
</trkpt>
<trkpt lat="31.7727370" lon="35.1534490">
<ele>545.400024</ele>
<time>2025-10-17T16:36:54.319Z</time>
</trkpt>
<trkpt lat="31.7727190" lon="35.1534600">
<ele>545.599976</ele>
<time>2025-10-17T16:36:54.319Z</time>
</trkpt>
<trkpt lat="31.7727040" lon="35.1534690">
<ele>545.599976</ele>
<time>2025-10-17T16:36:54.319Z</time>
</trkpt>
<trkpt lat="31.7726840" lon="35.1534840">
<ele>545.799988</ele>
<time>2025-10-17T16:36:54.319Z</time>
</trkpt>
<trkpt lat="31.7726680" lon="35.1534990">
<ele>545.799988</ele>
<time>2025-10-17T16:36:54.319Z</time>
</trkpt>
<trkpt lat="31.7726520" lon="35.1535140">
<ele>546.200012</ele>
<time>2025-10-17T16:36:54.319Z</time>
</trkpt>
<trkpt lat="31.7726360" lon="35.1535270">
<ele>546.200012</ele>
<time>2025-10-17T16:36:54.319Z</time>
</trkpt>
<trkpt lat="31.7726210" lon="35.1535370">
<ele>546.600037</ele>
<time>2025-10-17T16:36:54.319Z</time>
</trkpt>
<trkpt lat="31.7726030" lon="35.1535480">
<ele>546.799988</ele>
<time>2025-10-17T16:36:54.320Z</time>
</trkpt>
<trkpt lat="31.7725800" lon="35.1535600">
<ele>546.799988</ele>
<time>2025-10-17T16:36:54.320Z</time>
</trkpt>
<trkpt lat="31.7725620" lon="35.1535670">
<ele>547.200012</ele>
<time>2025-10-17T16:36:54.320Z</time>
</trkpt>
<trkpt lat="31.7725430" lon="35.1535730">
<ele>547.200012</ele>
<time>2025-10-17T16:36:54.320Z</time>
</trkpt>
<trkpt lat="31.7725210" lon="35.1535860">
<ele>547.400024</ele>
<time>2025-10-17T16:36:54.320Z</time>
</trkpt>
<trkpt lat="31.7725020" lon="35.1535970">
<ele>547.599976</ele>
<time>2025-10-17T16:36:54.320Z</time>
</trkpt>
<trkpt lat="31.7724820" lon="35.1536080">
<ele>547.799988</ele>
<time>2025-10-17T16:36:54.320Z</time>
</trkpt>
<trkpt lat="31.7724660" lon="35.1536160">
<ele>548.000000</ele>
<time>2025-10-17T16:36:54.320Z</time>
</trkpt>
<trkpt lat="31.7724460" lon="35.1536220">
<ele>548.000000</ele>
<time>2025-10-17T16:36:54.320Z</time>
</trkpt>
<trkpt lat="31.7724270" lon="35.1536300">
<ele>548.200012</ele>
<time>2025-10-17T16:36:54.320Z</time>
</trkpt>
<trkpt lat="31.7724060" lon="35.1536410">
<ele>548.400024</ele>
<time>2025-10-17T16:36:54.320Z</time>
</trkpt>
<trkpt lat="31.7723940" lon="35.1536460">
<ele>548.599976</ele>
<time>2025-10-17T16:36:54.320Z</time>
</trkpt>
<trkpt lat="31.7723780" lon="35.1536520">
<ele>548.799988</ele>
<time>2025-10-17T16:36:54.320Z</time>
</trkpt>
<trkpt lat="31.7723600" lon="35.1536570">
<ele>549.000000</ele>
<time>2025-10-17T16:36:54.320Z</time>
</trkpt>
<trkpt lat="31.7723430" lon="35.1536590">
<ele>549.200012</ele>
<time>2025-10-17T16:36:54.320Z</time>
</trkpt>
<trkpt lat="31.7723270" lon="35.1536610">
<ele>549.600037</ele>
<time>2025-10-17T16:36:54.320Z</time>
</trkpt>
<trkpt lat="31.7723080" lon="35.1536620">
<ele>549.799988</ele>
<time>2025-10-17T16:36:54.320Z</time>
</trkpt>
<trkpt lat="31.7722880" lon="35.1536640">
<ele>550.200012</ele>
<time>2025-10-17T16:36:54.320Z</time>
</trkpt>
<trkpt lat="31.7722660" lon="35.1536640">
<ele>550.400024</ele>
<time>2025-10-17T16:36:54.320Z</time>
</trkpt>
<trkpt lat="31.7722420" lon="35.1536620">
<ele>550.599976</ele>
<time>2025-10-17T16:36:54.320Z</time>
</trkpt>
<trkpt lat="31.7722260" lon="35.1536610">
<ele>550.599976</ele>
<time>2025-10-17T16:36:54.320Z</time>
</trkpt>
<trkpt lat="31.7722060" lon="35.1536600">
<ele>550.599976</ele>
<time>2025-10-17T16:36:54.320Z</time>
</trkpt>
<trkpt lat="31.7721810" lon="35.1536610">
<ele>550.799988</ele>
<time>2025-10-17T16:36:54.320Z</time>
</trkpt>
<trkpt lat="31.7721640" lon="35.1536620">
<ele>550.799988</ele>
<time>2025-10-17T16:36:54.320Z</time>
</trkpt>
<trkpt lat="31.7721400" lon="35.1536630">
<ele>551.000000</ele>
<time>2025-10-17T16:36:54.320Z</time>
</trkpt>
<trkpt lat="31.7721250" lon="35.1536640">
<ele>551.000000</ele>
<time>2025-10-17T16:36:54.320Z</time>
</trkpt>
<trkpt lat="31.7721060" lon="35.1536650">
<ele>551.200012</ele>
<time>2025-10-17T16:36:54.320Z</time>
</trkpt>
<trkpt lat="31.7720900" lon="35.1536630">
<ele>551.400024</ele>
<time>2025-10-17T16:36:54.320Z</time>
</trkpt>
<trkpt lat="31.7720690" lon="35.1536620">
<ele>551.599976</ele>
<time>2025-10-17T16:36:54.321Z</time>
</trkpt>
<trkpt lat="31.7720530" lon="35.1536650">
<ele>551.799988</ele>
<time>2025-10-17T16:36:54.321Z</time>
</trkpt>
<trkpt lat="31.7720350" lon="35.1536700">
<ele>552.000000</ele>
<time>2025-10-17T16:36:54.321Z</time>
</trkpt>
<trkpt lat="31.7720160" lon="35.1536720">
<ele>552.200012</ele>
<time>2025-10-17T16:36:54.321Z</time>
</trkpt>
<trkpt lat="31.7719970" lon="35.1536710">
<ele>552.399963</ele>
<time>2025-10-17T16:36:54.321Z</time>
</trkpt>
<trkpt lat="31.7719770" lon="35.1536690">
<ele>552.599976</ele>
<time>2025-10-17T16:36:54.321Z</time>
</trkpt>
<trkpt lat="31.7719530" lon="35.1536710">
<ele>552.599976</ele>
<time>2025-10-17T16:36:54.321Z</time>
</trkpt>
<trkpt lat="31.7719300" lon="35.1536740">
<ele>552.799988</ele>
<time>2025-10-17T16:36:54.321Z</time>
</trkpt>
<trkpt lat="31.7719070" lon="35.1536770">
<ele>553.000000</ele>
<time>2025-10-17T16:36:54.321Z</time>
</trkpt>
<trkpt lat="31.7718880" lon="35.1536780">
<ele>553.000000</ele>
<time>2025-10-17T16:36:54.321Z</time>
</trkpt>
<trkpt lat="31.7718650" lon="35.1536790">
<ele>553.200012</ele>
<time>2025-10-17T16:36:54.321Z</time>
</trkpt>
<trkpt lat="31.7718440" lon="35.1536790">
<ele>553.200012</ele>
<time>2025-10-17T16:36:54.321Z</time>
</trkpt>
<trkpt lat="31.7718220" lon="35.1536800">
<ele>553.200012</ele>
<time>2025-10-17T16:36:54.321Z</time>
</trkpt>
<trkpt lat="31.7717990" lon="35.1536810">
<ele>553.400024</ele>
<time>2025-10-17T16:36:54.321Z</time>
</trkpt>
<trkpt lat="31.7717760" lon="35.1536820">
<ele>553.599976</ele>
<time>2025-10-17T16:36:54.321Z</time>
</trkpt>
<trkpt lat="31.7717510" lon="35.1536810">
<ele>553.799988</ele>
<time>2025-10-17T16:36:54.321Z</time>
</trkpt>
<trkpt lat="31.7717270" lon="35.1536820">
<ele>554.000000</ele>
<time>2025-10-17T16:36:54.321Z</time>
</trkpt>
<trkpt lat="31.7717000" lon="35.1536830">
<ele>554.000000</ele>
<time>2025-10-17T16:36:54.321Z</time>
</trkpt>
<trkpt lat="31.7716750" lon="35.1536850">
<ele>554.200012</ele>
<time>2025-10-17T16:36:54.321Z</time>
</trkpt>
<trkpt lat="31.7716500" lon="35.1536860">
<ele>554.200012</ele>
<time>2025-10-17T16:36:54.321Z</time>
</trkpt>
<trkpt lat="31.7716230" lon="35.1536850">
<ele>554.399963</ele>
<time>2025-10-17T16:36:54.321Z</time>
</trkpt>
<trkpt lat="31.7715980" lon="35.1536830">
<ele>554.399963</ele>
<time>2025-10-17T16:36:54.321Z</time>
</trkpt>
<trkpt lat="31.7715750" lon="35.1536800">
<ele>554.600037</ele>
<time>2025-10-17T16:36:54.321Z</time>
</trkpt>
<trkpt lat="31.7715520" lon="35.1536810">
<ele>554.600037</ele>
<time>2025-10-17T16:36:54.321Z</time>
</trkpt>
<trkpt lat="31.7715280" lon="35.1536800">
<ele>554.600037</ele>
<time>2025-10-17T16:36:54.321Z</time>
</trkpt>
<trkpt lat="31.7715050" lon="35.1536790">
<ele>554.799988</ele>
<time>2025-10-17T16:36:54.321Z</time>
</trkpt>
<trkpt lat="31.7714820" lon="35.1536770">
<ele>554.799988</ele>
<time>2025-10-17T16:36:54.321Z</time>
</trkpt>
<trkpt lat="31.7714570" lon="35.1536740">
<ele>554.799988</ele>
<time>2025-10-17T16:36:54.322Z</time>
</trkpt>
<trkpt lat="31.7714340" lon="35.1536730">
<ele>554.799988</ele>
<time>2025-10-17T16:36:54.322Z</time>
</trkpt>
<trkpt lat="31.7714090" lon="35.1536720">
<ele>555.000000</ele>
<time>2025-10-17T16:36:54.322Z</time>
</trkpt>
<trkpt lat="31.7713830" lon="35.1536710">
<ele>555.000000</ele>
<time>2025-10-17T16:36:54.322Z</time>
</trkpt>
<trkpt lat="31.7713590" lon="35.1536710">
<ele>555.000000</ele>
<time>2025-10-17T16:36:54.322Z</time>
</trkpt>
<trkpt lat="31.7713350" lon="35.1536720">
<ele>555.200012</ele>
<time>2025-10-17T16:36:54.322Z</time>
</trkpt>
<trkpt lat="31.7713120" lon="35.1536720">
<ele>555.599976</ele>
<time>2025-10-17T16:36:54.322Z</time>
</trkpt>
<trkpt lat="31.7712880" lon="35.1536730">
<ele>555.599976</ele>
<time>2025-10-17T16:36:54.322Z</time>
</trkpt>
<trkpt lat="31.7712640" lon="35.1536750">
<ele>555.799988</ele>
<time>2025-10-17T16:36:54.322Z</time>
</trkpt>
<trkpt lat="31.7712400" lon="35.1536750">
<ele>555.799988</ele>
<time>2025-10-17T16:36:54.322Z</time>
</trkpt>
<trkpt lat="31.7712140" lon="35.1536760">
<ele>556.000000</ele>
<time>2025-10-17T16:36:54.322Z</time>
</trkpt>
<trkpt lat="31.7711870" lon="35.1536760">
<ele>556.000000</ele>
<time>2025-10-17T16:36:54.322Z</time>
</trkpt>
<trkpt lat="31.7711600" lon="35.1536770">
<ele>556.000000</ele>
<time>2025-10-17T16:36:54.322Z</time>
</trkpt>
<trkpt lat="31.7711330" lon="35.1536790">
<ele>556.400024</ele>
<time>2025-10-17T16:36:54.322Z</time>
</trkpt>
<trkpt lat="31.7711060" lon="35.1536820">
<ele>556.400024</ele>
<time>2025-10-17T16:36:54.322Z</time>
</trkpt>
<trkpt lat="31.7710780" lon="35.1536850">
<ele>556.599976</ele>
<time>2025-10-17T16:36:54.322Z</time>
</trkpt>
<trkpt lat="31.7710490" lon="35.1536850">
<ele>556.799988</ele>
<time>2025-10-17T16:36:54.322Z</time>
</trkpt>
<trkpt lat="31.7710210" lon="35.1536830">
<ele>556.799988</ele>
<time>2025-10-17T16:36:54.322Z</time>
</trkpt>
<trkpt lat="31.7709920" lon="35.1536820">
<ele>557.000000</ele>
<time>2025-10-17T16:36:54.322Z</time>
</trkpt>
<trkpt lat="31.7709630" lon="35.1536800">
<ele>557.000000</ele>
<time>2025-10-17T16:36:54.323Z</time>
</trkpt>
<trkpt lat="31.7709330" lon="35.1536790">
<ele>557.200012</ele>
<time>2025-10-17T16:36:54.323Z</time>
</trkpt>
<trkpt lat="31.7709050" lon="35.1536760">
<ele>557.200012</ele>
<time>2025-10-17T16:36:54.323Z</time>
</trkpt>
<trkpt lat="31.7708760" lon="35.1536740">
<ele>557.200012</ele>
<time>2025-10-17T16:36:54.323Z</time>
</trkpt>
<trkpt lat="31.7708470" lon="35.1536710">
<ele>557.200012</ele>
<time>2025-10-17T16:36:54.323Z</time>
</trkpt>
<trkpt lat="31.7708150" lon="35.1536690">
<ele>557.399963</ele>
<time>2025-10-17T16:36:54.323Z</time>
</trkpt>
<trkpt lat="31.7707810" lon="35.1536680">
<ele>557.399963</ele>
<time>2025-10-17T16:36:54.323Z</time>
</trkpt>
<trkpt lat="31.7707480" lon="35.1536720">
<ele>557.600037</ele>
<time>2025-10-17T16:36:54.323Z</time>
</trkpt>
<trkpt lat="31.7707160" lon="35.1536790">
<ele>557.600037</ele>
<time>2025-10-17T16:36:54.323Z</time>
</trkpt>
<trkpt lat="31.7706750" lon="35.1536880">
<ele>557.600037</ele>
<time>2025-10-17T16:36:54.323Z</time>
</trkpt>
<trkpt lat="31.7706410" lon="35.1536990">
<ele>557.799988</ele>
<time>2025-10-17T16:36:54.323Z</time>
</trkpt>
<trkpt lat="31.7706140" lon="35.1537070">
<ele>557.799988</ele>
<time>2025-10-17T16:36:54.323Z</time>
</trkpt>
<trkpt lat="31.7705840" lon="35.1537160">
<ele>557.799988</ele>
<time>2025-10-17T16:36:54.323Z</time>
</trkpt>
<trkpt lat="31.7704670" lon="35.1537600">
<ele>558.200012</ele>
<time>2025-10-17T16:36:54.323Z</time>
</trkpt>
<trkpt lat="31.7704420" lon="35.1537700">
<ele>558.200012</ele>
<time>2025-10-17T16:36:54.323Z</time>
</trkpt>
<trkpt lat="31.7704060" lon="35.1537840">
<ele>558.200012</ele>
<time>2025-10-17T16:36:54.323Z</time>
</trkpt>
<trkpt lat="31.7702690" lon="35.1538740">
<ele>558.200012</ele>
<time>2025-10-17T16:36:54.323Z</time>
</trkpt>
<trkpt lat="31.7702390" lon="35.1538960">
<ele>558.200012</ele>
<time>2025-10-17T16:36:54.323Z</time>
</trkpt>
<trkpt lat="31.7701520" lon="35.1539520">
<ele>558.400024</ele>
<time>2025-10-17T16:36:54.323Z</time>
</trkpt>
<trkpt lat="31.7701360" lon="35.1539630">
<ele>558.599976</ele>
<time>2025-10-17T16:36:54.323Z</time>
</trkpt>
<trkpt lat="31.7701220" lon="35.1539710">
<ele>558.599976</ele>
<time>2025-10-17T16:36:54.325Z</time>
</trkpt>
<trkpt lat="31.7701040" lon="35.1539790">
<ele>559.000000</ele>
<time>2025-10-17T16:36:54.325Z</time>
</trkpt>
<trkpt lat="31.7700850" lon="35.1539870">
<ele>559.400024</ele>
<time>2025-10-17T16:36:54.325Z</time>
</trkpt>
<trkpt lat="31.7700500" lon="35.1540010">
<ele>559.599976</ele>
<time>2025-10-17T16:36:54.325Z</time>
</trkpt>
<trkpt lat="31.7700330" lon="35.1540120">
<ele>559.799988</ele>
<time>2025-10-17T16:36:54.325Z</time>
</trkpt>
<trkpt lat="31.7700160" lon="35.1540210">
<ele>559.799988</ele>
<time>2025-10-17T16:36:54.325Z</time>
</trkpt>
<trkpt lat="31.7699970" lon="35.1540270">
<ele>560.000000</ele>
<time>2025-10-17T16:36:54.325Z</time>
</trkpt>
<trkpt lat="31.7699820" lon="35.1540310">
<ele>560.399963</ele>
<time>2025-10-17T16:36:54.325Z</time>
</trkpt>
<trkpt lat="31.7699670" lon="35.1540350">
<ele>560.600037</ele>
<time>2025-10-17T16:36:54.325Z</time>
</trkpt>
<trkpt lat="31.7699560" lon="35.1540400">
<ele>560.799988</ele>
<time>2025-10-17T16:36:54.325Z</time>
</trkpt>
<trkpt lat="31.7699450" lon="35.1540440">
<ele>561.000000</ele>
<time>2025-10-17T16:36:54.325Z</time>
</trkpt>
<trkpt lat="31.7699350" lon="35.1540490">
<ele>561.000000</ele>
<time>2025-10-17T16:36:54.325Z</time>
</trkpt>
<trkpt lat="31.7699250" lon="35.1540490">
<ele>561.400024</ele>
<time>2025-10-17T16:36:54.325Z</time>
</trkpt>
<trkpt lat="31.7699190" lon="35.1540430">
<ele>561.400024</ele>
<time>2025-10-17T16:36:54.325Z</time>
</trkpt>
<trkpt lat="31.7699140" lon="35.1540310">
<ele>561.599976</ele>
<time>2025-10-17T16:36:54.325Z</time>
</trkpt>
<trkpt lat="31.7699070" lon="35.1540180">
<ele>561.400024</ele>
<time>2025-10-17T16:36:54.325Z</time>
</trkpt>
<trkpt lat="31.7699010" lon="35.1540040">
<ele>561.599976</ele>
<time>2025-10-17T16:36:54.325Z</time>
</trkpt>
<trkpt lat="31.7699010" lon="35.1540040">
<ele>561.799988</ele>
<time>2025-10-17T16:36:54.325Z</time>
</trkpt>
<trkpt lat="31.7698950" lon="35.1539760">
<ele>561.799988</ele>
<time>2025-10-17T16:36:54.325Z</time>
</trkpt>
<trkpt lat="31.7698950" lon="35.1539550">
<ele>561.799988</ele>
<time>2025-10-17T16:36:54.325Z</time>
</trkpt>
<trkpt lat="31.7698950" lon="35.1539550">
<ele>561.799988</ele>
<time>2025-10-17T16:36:54.326Z</time>
</trkpt>
<trkpt lat="31.7698910" lon="35.1539180">
<ele>562.000000</ele>
<time>2025-10-17T16:36:54.326Z</time>
</trkpt>
<trkpt lat="31.7698880" lon="35.1539030">
<ele>562.000000</ele>
<time>2025-10-17T16:36:54.326Z</time>
</trkpt>
<trkpt lat="31.7698860" lon="35.1538840">
<ele>562.000000</ele>
<time>2025-10-17T16:36:54.326Z</time>
</trkpt>
<trkpt lat="31.7698840" lon="35.1538640">
<ele>562.000000</ele>
<time>2025-10-17T16:36:54.326Z</time>
</trkpt>
<trkpt lat="31.7698800" lon="35.1538420">
<ele>562.000000</ele>
<time>2025-10-17T16:36:54.326Z</time>
</trkpt>
<trkpt lat="31.7698790" lon="35.1538260">
<ele>562.000000</ele>
<time>2025-10-17T16:36:54.326Z</time>
</trkpt>
<trkpt lat="31.7698780" lon="35.1538100">
<ele>562.200012</ele>
<time>2025-10-17T16:36:54.326Z</time>
</trkpt>
<trkpt lat="31.7698780" lon="35.1537890">
<ele>562.200012</ele>
<time>2025-10-17T16:36:54.326Z</time>
</trkpt>
<trkpt lat="31.7698780" lon="35.1537620">
<ele>562.200012</ele>
<time>2025-10-17T16:36:54.326Z</time>
</trkpt>
<trkpt lat="31.7698820" lon="35.1536960">
<ele>562.400024</ele>
<time>2025-10-17T16:36:54.326Z</time>
</trkpt>
<trkpt lat="31.7698890" lon="35.1536480">
<ele>562.599976</ele>
<time>2025-10-17T16:36:54.326Z</time>
</trkpt>
<trkpt lat="31.7698950" lon="35.1536280">
<ele>562.599976</ele>
<time>2025-10-17T16:36:54.326Z</time>
</trkpt>
<trkpt lat="31.7699010" lon="35.1535900">
<ele>562.799988</ele>
<time>2025-10-17T16:36:54.326Z</time>
</trkpt>
<trkpt lat="31.7699090" lon="35.1535190">
<ele>563.200012</ele>
<time>2025-10-17T16:36:54.326Z</time>
</trkpt>
<trkpt lat="31.7699150" lon="35.1534790">
<ele>563.399963</ele>
<time>2025-10-17T16:36:54.326Z</time>
</trkpt>
<trkpt lat="31.7698990" lon="35.1534290">
<ele>563.600037</ele>
<time>2025-10-17T16:36:54.326Z</time>
</trkpt>
<trkpt lat="31.7698930" lon="35.1534060">
<ele>563.600037</ele>
<time>2025-10-17T16:36:54.326Z</time>
</trkpt>
<trkpt lat="31.7698900" lon="35.1533750">
<ele>563.799988</ele>
<time>2025-10-17T16:36:54.326Z</time>
</trkpt>
<trkpt lat="31.7698940" lon="35.1533420">
<ele>564.000000</ele>
<time>2025-10-17T16:36:54.326Z</time>
</trkpt>
<trkpt lat="31.7699000" lon="35.1533170">
<ele>564.200012</ele>
<time>2025-10-17T16:36:54.327Z</time>
</trkpt>
<trkpt lat="31.7699050" lon="35.1532980">
<ele>564.400024</ele>
<time>2025-10-17T16:36:54.327Z</time>
</trkpt>
<trkpt lat="31.7699130" lon="35.1532740">
<ele>564.400024</ele>
<time>2025-10-17T16:36:54.327Z</time>
</trkpt>
<trkpt lat="31.7699240" lon="35.1532460">
<ele>564.599976</ele>
<time>2025-10-17T16:36:54.327Z</time>
</trkpt>
<trkpt lat="31.7699340" lon="35.1532230">
<ele>564.599976</ele>
<time>2025-10-17T16:36:54.327Z</time>
</trkpt>
<trkpt lat="31.7699460" lon="35.1532010">
<ele>564.799988</ele>
<time>2025-10-17T16:36:54.327Z</time>
</trkpt>
<trkpt lat="31.7699650" lon="35.1531630">
<ele>565.200012</ele>
<time>2025-10-17T16:36:54.327Z</time>
</trkpt>
<trkpt lat="31.7699780" lon="35.1531380">
<ele>565.399963</ele>
<time>2025-10-17T16:36:54.327Z</time>
</trkpt>
<trkpt lat="31.7699910" lon="35.1531180">
<ele>565.399963</ele>
<time>2025-10-17T16:36:54.327Z</time>
</trkpt>
<trkpt lat="31.7700010" lon="35.1530970">
<ele>565.600037</ele>
<time>2025-10-17T16:36:54.327Z</time>
</trkpt>
<trkpt lat="31.7700050" lon="35.1530780">
<ele>565.600037</ele>
<time>2025-10-17T16:36:54.327Z</time>
</trkpt>
<trkpt lat="31.7700030" lon="35.1530520">
<ele>565.799988</ele>
<time>2025-10-17T16:36:54.327Z</time>
</trkpt>
<trkpt lat="31.7699970" lon="35.1530350">
<ele>566.000000</ele>
<time>2025-10-17T16:36:54.327Z</time>
</trkpt>
<trkpt lat="31.7699860" lon="35.1530100">
<ele>566.200012</ele>
<time>2025-10-17T16:36:54.327Z</time>
</trkpt>
<trkpt lat="31.7699760" lon="35.1529960">
<ele>566.400024</ele>
<time>2025-10-17T16:36:54.327Z</time>
</trkpt>
<trkpt lat="31.7699650" lon="35.1529820">
<ele>566.799988</ele>
<time>2025-10-17T16:36:54.327Z</time>
</trkpt>
<trkpt lat="31.7699510" lon="35.1529710">
<ele>567.000000</ele>
<time>2025-10-17T16:36:54.327Z</time>
</trkpt>
<trkpt lat="31.7699350" lon="35.1529640">
<ele>567.400024</ele>
<time>2025-10-17T16:36:54.327Z</time>
</trkpt>
<trkpt lat="31.7699180" lon="35.1529560">
<ele>567.799988</ele>
<time>2025-10-17T16:36:54.327Z</time>
</trkpt>
<trkpt lat="31.7699040" lon="35.1529460">
<ele>568.000000</ele>
<time>2025-10-17T16:36:54.327Z</time>
</trkpt>
<trkpt lat="31.7698940" lon="35.1529290">
<ele>568.200012</ele>
<time>2025-10-17T16:36:54.327Z</time>
</trkpt>
<trkpt lat="31.7698880" lon="35.1529070">
<ele>568.200012</ele>
<time>2025-10-17T16:36:54.328Z</time>
</trkpt>
<trkpt lat="31.7698830" lon="35.1528810">
<ele>568.399963</ele>
<time>2025-10-17T16:36:54.328Z</time>
</trkpt>
<trkpt lat="31.7698830" lon="35.1528810">
<ele>568.600037</ele>
<time>2025-10-17T16:36:54.328Z</time>
</trkpt>
<trkpt lat="31.7698760" lon="35.1528510">
<ele>568.600037</ele>
<time>2025-10-17T16:36:54.328Z</time>
</trkpt>
<trkpt lat="31.7698720" lon="35.1528300">
<ele>569.000000</ele>
<time>2025-10-17T16:36:54.328Z</time>
</trkpt>
<trkpt lat="31.7698680" lon="35.1528070">
<ele>569.400024</ele>
<time>2025-10-17T16:36:54.328Z</time>
</trkpt>
<trkpt lat="31.7698720" lon="35.1527870">
<ele>569.799988</ele>
<time>2025-10-17T16:36:54.328Z</time>
</trkpt>
<trkpt lat="31.7698810" lon="35.1527720">
<ele>570.200012</ele>
<time>2025-10-17T16:36:54.328Z</time>
</trkpt>
<trkpt lat="31.7698940" lon="35.1527550">
<ele>570.599976</ele>
<time>2025-10-17T16:36:54.328Z</time>
</trkpt>
<trkpt lat="31.7699110" lon="35.1527380">
<ele>570.799988</ele>
<time>2025-10-17T16:36:54.328Z</time>
</trkpt>
<trkpt lat="31.7699310" lon="35.1527230">
<ele>571.200012</ele>
<time>2025-10-17T16:36:54.328Z</time>
</trkpt>
<trkpt lat="31.7699520" lon="35.1527100">
<ele>571.200012</ele>
<time>2025-10-17T16:36:54.328Z</time>
</trkpt>
<trkpt lat="31.7699730" lon="35.1526960">
<ele>571.399963</ele>
<time>2025-10-17T16:36:54.328Z</time>
</trkpt>
<trkpt lat="31.7699910" lon="35.1526840">
<ele>571.600037</ele>
<time>2025-10-17T16:36:54.328Z</time>
</trkpt>
<trkpt lat="31.7700100" lon="35.1526730">
<ele>571.799988</ele>
<time>2025-10-17T16:36:54.328Z</time>
</trkpt>
<trkpt lat="31.7700310" lon="35.1526590">
<ele>571.799988</ele>
<time>2025-10-17T16:36:54.328Z</time>
</trkpt>
<trkpt lat="31.7700510" lon="35.1526460">
<ele>571.799988</ele>
<time>2025-10-17T16:36:54.328Z</time>
</trkpt>
<trkpt lat="31.7700710" lon="35.1526320">
<ele>571.799988</ele>
<time>2025-10-17T16:36:54.328Z</time>
</trkpt>
<trkpt lat="31.7700900" lon="35.1526170">
<ele>571.799988</ele>
<time>2025-10-17T16:36:54.328Z</time>
</trkpt>
<trkpt lat="31.7701090" lon="35.1526020">
<ele>572.000000</ele>
<time>2025-10-17T16:36:54.329Z</time>
</trkpt>
<trkpt lat="31.7701310" lon="35.1525850">
<ele>572.000000</ele>
<time>2025-10-17T16:36:54.329Z</time>
</trkpt>
<trkpt lat="31.7701480" lon="35.1525730">
<ele>572.000000</ele>
<time>2025-10-17T16:36:54.329Z</time>
</trkpt>
<trkpt lat="31.7701590" lon="35.1525600">
<ele>572.200012</ele>
<time>2025-10-17T16:36:54.329Z</time>
</trkpt>
<trkpt lat="31.7701730" lon="35.1525470">
<ele>572.200012</ele>
<time>2025-10-17T16:36:54.329Z</time>
</trkpt>
<trkpt lat="31.7701890" lon="35.1525320">
<ele>572.200012</ele>
<time>2025-10-17T16:36:54.329Z</time>
</trkpt>
<trkpt lat="31.7701980" lon="35.1525210">
<ele>572.400024</ele>
<time>2025-10-17T16:36:54.329Z</time>
</trkpt>
<trkpt lat="31.7702110" lon="35.1525070">
<ele>572.599976</ele>
<time>2025-10-17T16:36:54.329Z</time>
</trkpt>
<trkpt lat="31.7702270" lon="35.1524910">
<ele>572.799988</ele>
<time>2025-10-17T16:36:54.329Z</time>
</trkpt>
<trkpt lat="31.7702410" lon="35.1524780">
<ele>572.799988</ele>
<time>2025-10-17T16:36:54.329Z</time>
</trkpt>
<trkpt lat="31.7702540" lon="35.1524650">
<ele>573.000000</ele>
<time>2025-10-17T16:36:54.329Z</time>
</trkpt>
<trkpt lat="31.7702630" lon="35.1524540">
<ele>573.000000</ele>
<time>2025-10-17T16:36:54.329Z</time>
</trkpt>
<trkpt lat="31.7702790" lon="35.1524400">
<ele>573.000000</ele>
<time>2025-10-17T16:36:54.329Z</time>
</trkpt>
<trkpt lat="31.7702920" lon="35.1524270">
<ele>573.400024</ele>
<time>2025-10-17T16:36:54.329Z</time>
</trkpt>
<trkpt lat="31.7703060" lon="35.1524130">
<ele>573.599976</ele>
<time>2025-10-17T16:36:54.329Z</time>
</trkpt>
<trkpt lat="31.7703150" lon="35.1524040">
<ele>574.000000</ele>
<time>2025-10-17T16:36:54.329Z</time>
</trkpt>
<trkpt lat="31.7703260" lon="35.1523900">
<ele>574.000000</ele>
<time>2025-10-17T16:36:54.329Z</time>
</trkpt>
<trkpt lat="31.7703430" lon="35.1523760">
<ele>574.200012</ele>
<time>2025-10-17T16:36:54.329Z</time>
</trkpt>
<trkpt lat="31.7703560" lon="35.1523620">
<ele>574.200012</ele>
<time>2025-10-17T16:36:54.329Z</time>
</trkpt>
<trkpt lat="31.7703670" lon="35.1523500">
<ele>574.200012</ele>
<time>2025-10-17T16:36:54.329Z</time>
</trkpt>
<trkpt lat="31.7703780" lon="35.1523350">
<ele>574.399963</ele>
<time>2025-10-17T16:36:54.329Z</time>
</trkpt>
<trkpt lat="31.7703900" lon="35.1523180">
<ele>574.399963</ele>
<time>2025-10-17T16:36:54.329Z</time>
</trkpt>
<trkpt lat="31.7704030" lon="35.1522990">
<ele>574.600037</ele>
<time>2025-10-17T16:36:54.329Z</time>
</trkpt>
<trkpt lat="31.7704140" lon="35.1522810">
<ele>574.600037</ele>
<time>2025-10-17T16:36:54.330Z</time>
</trkpt>
<trkpt lat="31.7704220" lon="35.1522660">
<ele>575.000000</ele>
<time>2025-10-17T16:36:54.330Z</time>
</trkpt>
<trkpt lat="31.7704340" lon="35.1522480">
<ele>575.000000</ele>
<time>2025-10-17T16:36:54.330Z</time>
</trkpt>
<trkpt lat="31.7704470" lon="35.1522270">
<ele>575.200012</ele>
<time>2025-10-17T16:36:54.330Z</time>
</trkpt>
<trkpt lat="31.7704590" lon="35.1522090">
<ele>575.400024</ele>
<time>2025-10-17T16:36:54.330Z</time>
</trkpt>
<trkpt lat="31.7704690" lon="35.1521910">
<ele>575.599976</ele>
<time>2025-10-17T16:36:54.330Z</time>
</trkpt>
<trkpt lat="31.7704750" lon="35.1521770">
<ele>575.599976</ele>
<time>2025-10-17T16:36:54.330Z</time>
</trkpt>
<trkpt lat="31.7704840" lon="35.1521620">
<ele>576.000000</ele>
<time>2025-10-17T16:36:54.330Z</time>
</trkpt>
<trkpt lat="31.7704950" lon="35.1521460">
<ele>576.200012</ele>
<time>2025-10-17T16:36:54.330Z</time>
</trkpt>
<trkpt lat="31.7705120" lon="35.1521310">
<ele>576.400024</ele>
<time>2025-10-17T16:36:54.330Z</time>
</trkpt>
<trkpt lat="31.7705250" lon="35.1521210">
<ele>576.599976</ele>
<time>2025-10-17T16:36:54.330Z</time>
</trkpt>
<trkpt lat="31.7705440" lon="35.1521100">
<ele>576.799988</ele>
<time>2025-10-17T16:36:54.330Z</time>
</trkpt>
<trkpt lat="31.7705670" lon="35.1520970">
<ele>577.200012</ele>
<time>2025-10-17T16:36:54.330Z</time>
</trkpt>
<trkpt lat="31.7705870" lon="35.1520870">
<ele>577.399963</ele>
<time>2025-10-17T16:36:54.330Z</time>
</trkpt>
<trkpt lat="31.7706080" lon="35.1520770">
<ele>577.600037</ele>
<time>2025-10-17T16:36:54.330Z</time>
</trkpt>
<trkpt lat="31.7706260" lon="35.1520680">
<ele>577.799988</ele>
<time>2025-10-17T16:36:54.330Z</time>
</trkpt>
<trkpt lat="31.7706510" lon="35.1520590">
<ele>578.000000</ele>
<time>2025-10-17T16:36:54.330Z</time>
</trkpt>
<trkpt lat="31.7706710" lon="35.1520530">
<ele>578.000000</ele>
<time>2025-10-17T16:36:54.330Z</time>
</trkpt>
<trkpt lat="31.7706900" lon="35.1520500">
<ele>578.200012</ele>
<time>2025-10-17T16:36:54.330Z</time>
</trkpt>
<trkpt lat="31.7707060" lon="35.1520470">
<ele>578.400024</ele>
<time>2025-10-17T16:36:54.330Z</time>
</trkpt>
<trkpt lat="31.7707280" lon="35.1520440">
<ele>578.400024</ele>
<time>2025-10-17T16:36:54.330Z</time>
</trkpt>
<trkpt lat="31.7707520" lon="35.1520380">
<ele>578.400024</ele>
<time>2025-10-17T16:36:54.330Z</time>
</trkpt>
<trkpt lat="31.7707730" lon="35.1520330">
<ele>578.799988</ele>
<time>2025-10-17T16:36:54.330Z</time>
</trkpt>
<trkpt lat="31.7707950" lon="35.1520290">
<ele>578.599976</ele>
<time>2025-10-17T16:36:54.330Z</time>
</trkpt>
<trkpt lat="31.7708140" lon="35.1520290">
<ele>578.599976</ele>
<time>2025-10-17T16:36:54.330Z</time>
</trkpt>
<trkpt lat="31.7708410" lon="35.1520280">
<ele>578.799988</ele>
<time>2025-10-17T16:36:54.330Z</time>
</trkpt>
<trkpt lat="31.7708640" lon="35.1520260">
<ele>579.000000</ele>
<time>2025-10-17T16:36:54.330Z</time>
</trkpt>
<trkpt lat="31.7708880" lon="35.1520220">
<ele>579.200012</ele>
<time>2025-10-17T16:36:54.331Z</time>
</trkpt>
<trkpt lat="31.7709050" lon="35.1520180">
<ele>579.200012</ele>
<time>2025-10-17T16:36:54.331Z</time>
</trkpt>
<trkpt lat="31.7709270" lon="35.1520130">
<ele>579.200012</ele>
<time>2025-10-17T16:36:54.331Z</time>
</trkpt>
<trkpt lat="31.7709540" lon="35.1520060">
<ele>579.200012</ele>
<time>2025-10-17T16:36:54.331Z</time>
</trkpt>
<trkpt lat="31.7709750" lon="35.1519990">
<ele>579.200012</ele>
<time>2025-10-17T16:36:54.331Z</time>
</trkpt>
<trkpt lat="31.7709960" lon="35.1519890">
<ele>579.399963</ele>
<time>2025-10-17T16:36:54.331Z</time>
</trkpt>
<trkpt lat="31.7710140" lon="35.1519810">
<ele>579.399963</ele>
<time>2025-10-17T16:36:54.331Z</time>
</trkpt>
<trkpt lat="31.7710380" lon="35.1519680">
<ele>579.600037</ele>
<time>2025-10-17T16:36:54.331Z</time>
</trkpt>
<trkpt lat="31.7710560" lon="35.1519560">
<ele>579.600037</ele>
<time>2025-10-17T16:36:54.331Z</time>
</trkpt>
<trkpt lat="31.7710750" lon="35.1519430">
<ele>579.799988</ele>
<time>2025-10-17T16:36:54.331Z</time>
</trkpt>
<trkpt lat="31.7710900" lon="35.1519350">
<ele>579.799988</ele>
<time>2025-10-17T16:36:54.331Z</time>
</trkpt>
<trkpt lat="31.7711070" lon="35.1519240">
<ele>580.000000</ele>
<time>2025-10-17T16:36:54.331Z</time>
</trkpt>
<trkpt lat="31.7711250" lon="35.1519120">
<ele>580.000000</ele>
<time>2025-10-17T16:36:54.331Z</time>
</trkpt>
<trkpt lat="31.7711460" lon="35.1518980">
<ele>580.200012</ele>
<time>2025-10-17T16:36:54.331Z</time>
</trkpt>
<trkpt lat="31.7711580" lon="35.1518910">
<ele>580.400024</ele>
<time>2025-10-17T16:36:54.331Z</time>
</trkpt>
<trkpt lat="31.7711770" lon="35.1518850">
<ele>580.599976</ele>
<time>2025-10-17T16:36:54.331Z</time>
</trkpt>
<trkpt lat="31.7711970" lon="35.1518780">
<ele>580.799988</ele>
<time>2025-10-17T16:36:54.331Z</time>
</trkpt>
<trkpt lat="31.7712170" lon="35.1518700">
<ele>581.000000</ele>
<time>2025-10-17T16:36:54.331Z</time>
</trkpt>
<trkpt lat="31.7712360" lon="35.1518610">
<ele>581.200012</ele>
<time>2025-10-17T16:36:54.331Z</time>
</trkpt>
<trkpt lat="31.7712610" lon="35.1518500">
<ele>581.400024</ele>
<time>2025-10-17T16:36:54.331Z</time>
</trkpt>
<trkpt lat="31.7712780" lon="35.1518440">
<ele>581.400024</ele>
<time>2025-10-17T16:36:54.331Z</time>
</trkpt>
<trkpt lat="31.7713000" lon="35.1518310">
<ele>581.599976</ele>
<time>2025-10-17T16:36:54.331Z</time>
</trkpt>
<trkpt lat="31.7713170" lon="35.1518160">
<ele>581.599976</ele>
<time>2025-10-17T16:36:54.331Z</time>
</trkpt>
<trkpt lat="31.7713340" lon="35.1517990">
<ele>581.799988</ele>
<time>2025-10-17T16:36:54.331Z</time>
</trkpt>
<trkpt lat="31.7713450" lon="35.1517830">
<ele>581.799988</ele>
<time>2025-10-17T16:36:54.331Z</time>
</trkpt>
<trkpt lat="31.7713580" lon="35.1517650">
<ele>582.000000</ele>
<time>2025-10-17T16:36:54.331Z</time>
</trkpt>
<trkpt lat="31.7713680" lon="35.1517430">
<ele>582.200012</ele>
<time>2025-10-17T16:36:54.332Z</time>
</trkpt>
<trkpt lat="31.7713770" lon="35.1517140">
<ele>582.399963</ele>
<time>2025-10-17T16:36:54.332Z</time>
</trkpt>
<trkpt lat="31.7713810" lon="35.1516910">
<ele>582.600037</ele>
<time>2025-10-17T16:36:54.332Z</time>
</trkpt>
<trkpt lat="31.7713810" lon="35.1516730">
<ele>582.600037</ele>
<time>2025-10-17T16:36:54.332Z</time>
</trkpt>
<trkpt lat="31.7713800" lon="35.1516470">
<ele>582.799988</ele>
<time>2025-10-17T16:36:54.332Z</time>
</trkpt>
<trkpt lat="31.7713710" lon="35.1516280">
<ele>583.000000</ele>
<time>2025-10-17T16:36:54.332Z</time>
</trkpt>
<trkpt lat="31.7713570" lon="35.1516120">
<ele>583.200012</ele>
<time>2025-10-17T16:36:54.332Z</time>
</trkpt>
<trkpt lat="31.7713440" lon="35.1516010">
<ele>583.599976</ele>
<time>2025-10-17T16:36:54.332Z</time>
</trkpt>
<trkpt lat="31.7713270" lon="35.1515870">
<ele>583.599976</ele>
<time>2025-10-17T16:36:54.332Z</time>
</trkpt>
<trkpt lat="31.7713050" lon="35.1515740">
<ele>583.799988</ele>
<time>2025-10-17T16:36:54.332Z</time>
</trkpt>
<trkpt lat="31.7712850" lon="35.1515650">
<ele>584.000000</ele>
<time>2025-10-17T16:36:54.332Z</time>
</trkpt>
<trkpt lat="31.7712630" lon="35.1515590">
<ele>584.200012</ele>
<time>2025-10-17T16:36:54.332Z</time>
</trkpt>
<trkpt lat="31.7712450" lon="35.1515550">
<ele>584.400024</ele>
<time>2025-10-17T16:36:54.332Z</time>
</trkpt>
<trkpt lat="31.7712170" lon="35.1515500">
<ele>584.599976</ele>
<time>2025-10-17T16:36:54.332Z</time>
</trkpt>
<trkpt lat="31.7711940" lon="35.1515440">
<ele>584.799988</ele>
<time>2025-10-17T16:36:54.332Z</time>
</trkpt>
<trkpt lat="31.7711700" lon="35.1515360">
<ele>584.799988</ele>
<time>2025-10-17T16:36:54.332Z</time>
</trkpt>
<trkpt lat="31.7711520" lon="35.1515290">
<ele>584.799988</ele>
<time>2025-10-17T16:36:54.332Z</time>
</trkpt>
<trkpt lat="31.7711290" lon="35.1515180">
<ele>585.000000</ele>
<time>2025-10-17T16:36:54.332Z</time>
</trkpt>
<trkpt lat="31.7711050" lon="35.1515030">
<ele>585.000000</ele>
<time>2025-10-17T16:36:54.332Z</time>
</trkpt>
<trkpt lat="31.7710810" lon="35.1514830">
<ele>585.399963</ele>
<time>2025-10-17T16:36:54.332Z</time>
</trkpt>
<trkpt lat="31.7710660" lon="35.1514690">
<ele>585.399963</ele>
<time>2025-10-17T16:36:54.332Z</time>
</trkpt>
<trkpt lat="31.7710500" lon="35.1514510">
<ele>585.399963</ele>
<time>2025-10-17T16:36:54.332Z</time>
</trkpt>
<trkpt lat="31.7710350" lon="35.1514260">
<ele>585.600037</ele>
<time>2025-10-17T16:36:54.332Z</time>
</trkpt>
<trkpt lat="31.7710250" lon="35.1514050">
<ele>585.600037</ele>
<time>2025-10-17T16:36:54.332Z</time>
</trkpt>
<trkpt lat="31.7710180" lon="35.1513880">
<ele>585.600037</ele>
<time>2025-10-17T16:36:54.332Z</time>
</trkpt>
<trkpt lat="31.7710110" lon="35.1513660">
<ele>585.799988</ele>
<time>2025-10-17T16:36:54.332Z</time>
</trkpt>
<trkpt lat="31.7710020" lon="35.1513430">
<ele>585.799988</ele>
<time>2025-10-17T16:36:54.332Z</time>
</trkpt>
<trkpt lat="31.7709900" lon="35.1513190">
<ele>586.200012</ele>
<time>2025-10-17T16:36:54.333Z</time>
</trkpt>
<trkpt lat="31.7709820" lon="35.1513020">
<ele>586.400024</ele>
<time>2025-10-17T16:36:54.333Z</time>
</trkpt>
<trkpt lat="31.7709760" lon="35.1512850">
<ele>586.599976</ele>
<time>2025-10-17T16:36:54.333Z</time>
</trkpt>
<trkpt lat="31.7709720" lon="35.1512630">
<ele>586.799988</ele>
<time>2025-10-17T16:36:54.333Z</time>
</trkpt>
<trkpt lat="31.7709700" lon="35.1512350">
<ele>586.799988</ele>
<time>2025-10-17T16:36:54.333Z</time>
</trkpt>
<trkpt lat="31.7709700" lon="35.1512120">
<ele>587.000000</ele>
<time>2025-10-17T16:36:54.333Z</time>
</trkpt>
<trkpt lat="31.7709690" lon="35.1511860">
<ele>587.200012</ele>
<time>2025-10-17T16:36:54.333Z</time>
</trkpt>
<trkpt lat="31.7709710" lon="35.1511640">
<ele>587.599976</ele>
<time>2025-10-17T16:36:54.333Z</time>
</trkpt>
<trkpt lat="31.7709730" lon="35.1511370">
<ele>587.599976</ele>
<time>2025-10-17T16:36:54.333Z</time>
</trkpt>
<trkpt lat="31.7709780" lon="35.1511060">
<ele>587.799988</ele>
<time>2025-10-17T16:36:54.333Z</time>
</trkpt>
<trkpt lat="31.7709810" lon="35.1510800">
<ele>588.000000</ele>
<time>2025-10-17T16:36:54.333Z</time>
</trkpt>
<trkpt lat="31.7709850" lon="35.1510550">
<ele>588.399963</ele>
<time>2025-10-17T16:36:54.333Z</time>
</trkpt>
<trkpt lat="31.7709870" lon="35.1510340">
<ele>588.600037</ele>
<time>2025-10-17T16:36:54.333Z</time>
</trkpt>
<trkpt lat="31.7709880" lon="35.1510090">
<ele>588.799988</ele>
<time>2025-10-17T16:36:54.333Z</time>
</trkpt>
<trkpt lat="31.7709880" lon="35.1509790">
<ele>589.000000</ele>
<time>2025-10-17T16:36:54.333Z</time>
</trkpt>
<trkpt lat="31.7709860" lon="35.1509540">
<ele>589.200012</ele>
<time>2025-10-17T16:36:54.333Z</time>
</trkpt>
<trkpt lat="31.7709830" lon="35.1509330">
<ele>589.400024</ele>
<time>2025-10-17T16:36:54.333Z</time>
</trkpt>
<trkpt lat="31.7709780" lon="35.1509060">
<ele>589.400024</ele>
<time>2025-10-17T16:36:54.333Z</time>
</trkpt>
<trkpt lat="31.7709700" lon="35.1508740">
<ele>589.799988</ele>
<time>2025-10-17T16:36:54.333Z</time>
</trkpt>
<trkpt lat="31.7709600" lon="35.1508460">
<ele>590.000000</ele>
<time>2025-10-17T16:36:54.333Z</time>
</trkpt>
<trkpt lat="31.7709460" lon="35.1508140">
<ele>590.000000</ele>
<time>2025-10-17T16:36:54.333Z</time>
</trkpt>
<trkpt lat="31.7709340" lon="35.1507900">
<ele>590.000000</ele>
<time>2025-10-17T16:36:54.333Z</time>
</trkpt>
<trkpt lat="31.7709190" lon="35.1507630">
<ele>590.400024</ele>
<time>2025-10-17T16:36:54.333Z</time>
</trkpt>
<trkpt lat="31.7709020" lon="35.1507340">
<ele>590.600037</ele>
<time>2025-10-17T16:36:54.333Z</time>
</trkpt>
<trkpt lat="31.7708870" lon="35.1507130">
<ele>590.600037</ele>
<time>2025-10-17T16:36:54.333Z</time>
</trkpt>
<trkpt lat="31.7708710" lon="35.1506930">
<ele>590.600037</ele>
<time>2025-10-17T16:36:54.333Z</time>
</trkpt>
<trkpt lat="31.7708570" lon="35.1506800">
<ele>590.799988</ele>
<time>2025-10-17T16:36:54.333Z</time>
</trkpt>
<trkpt lat="31.7708360" lon="35.1506610">
<ele>590.799988</ele>
<time>2025-10-17T16:36:54.334Z</time>
</trkpt>
<trkpt lat="31.7708170" lon="35.1506470">
<ele>591.000000</ele>
<time>2025-10-17T16:36:54.334Z</time>
</trkpt>
<trkpt lat="31.7707990" lon="35.1506370">
<ele>591.400024</ele>
<time>2025-10-17T16:36:54.334Z</time>
</trkpt>
<trkpt lat="31.7707840" lon="35.1506320">
<ele>591.400024</ele>
<time>2025-10-17T16:36:54.334Z</time>
</trkpt>
<trkpt lat="31.7707660" lon="35.1506270">
<ele>591.200012</ele>
<time>2025-10-17T16:36:54.334Z</time>
</trkpt>
<trkpt lat="31.7707460" lon="35.1506250">
<ele>591.599976</ele>
<time>2025-10-17T16:36:54.334Z</time>
</trkpt>
<trkpt lat="31.7707220" lon="35.1506220">
<ele>591.599976</ele>
<time>2025-10-17T16:36:54.334Z</time>
</trkpt>
<trkpt lat="31.7707010" lon="35.1506220">
<ele>592.000000</ele>
<time>2025-10-17T16:36:54.334Z</time>
</trkpt>
<trkpt lat="31.7706850" lon="35.1506220">
<ele>592.000000</ele>
<time>2025-10-17T16:36:54.334Z</time>
</trkpt>
<trkpt lat="31.7706620" lon="35.1506230">
<ele>592.200012</ele>
<time>2025-10-17T16:36:54.334Z</time>
</trkpt>
<trkpt lat="31.7706420" lon="35.1506240">
<ele>592.200012</ele>
<time>2025-10-17T16:36:54.334Z</time>
</trkpt>
<trkpt lat="31.7706230" lon="35.1506240">
<ele>592.200012</ele>
<time>2025-10-17T16:36:54.334Z</time>
</trkpt>
<trkpt lat="31.7706080" lon="35.1506230">
<ele>592.400024</ele>
<time>2025-10-17T16:36:54.334Z</time>
</trkpt>
<trkpt lat="31.7705880" lon="35.1506210">
<ele>592.599976</ele>
<time>2025-10-17T16:36:54.334Z</time>
</trkpt>
<trkpt lat="31.7705640" lon="35.1506140">
<ele>592.799988</ele>
<time>2025-10-17T16:36:54.334Z</time>
</trkpt>
<trkpt lat="31.7705480" lon="35.1506030">
<ele>592.799988</ele>
<time>2025-10-17T16:36:54.334Z</time>
</trkpt>
<trkpt lat="31.7705340" lon="35.1505880">
<ele>593.000000</ele>
<time>2025-10-17T16:36:54.334Z</time>
</trkpt>
<trkpt lat="31.7705240" lon="35.1505730">
<ele>593.000000</ele>
<time>2025-10-17T16:36:54.334Z</time>
</trkpt>
<trkpt lat="31.7705130" lon="35.1505530">
<ele>593.000000</ele>
<time>2025-10-17T16:36:54.334Z</time>
</trkpt>
<trkpt lat="31.7705030" lon="35.1505270">
<ele>593.200012</ele>
<time>2025-10-17T16:36:54.334Z</time>
</trkpt>
<trkpt lat="31.7704940" lon="35.1505060">
<ele>593.200012</ele>
<time>2025-10-17T16:36:54.334Z</time>
</trkpt>
<trkpt lat="31.7704870" lon="35.1504820">
<ele>593.200012</ele>
<time>2025-10-17T16:36:54.334Z</time>
</trkpt>
<trkpt lat="31.7704820" lon="35.1504620">
<ele>593.399963</ele>
<time>2025-10-17T16:36:54.334Z</time>
</trkpt>
<trkpt lat="31.7704770" lon="35.1504330">
<ele>593.399963</ele>
<time>2025-10-17T16:36:54.334Z</time>
</trkpt>
<trkpt lat="31.7704740" lon="35.1504060">
<ele>593.600037</ele>
<time>2025-10-17T16:36:54.334Z</time>
</trkpt>
<trkpt lat="31.7704710" lon="35.1503800">
<ele>593.600037</ele>
<time>2025-10-17T16:36:54.334Z</time>
</trkpt>
<trkpt lat="31.7704680" lon="35.1503580">
<ele>593.799988</ele>
<time>2025-10-17T16:36:54.334Z</time>
</trkpt>
<trkpt lat="31.7704600" lon="35.1503250">
<ele>593.799988</ele>
<time>2025-10-17T16:36:54.334Z</time>
</trkpt>
<trkpt lat="31.7704550" lon="35.1502980">
<ele>594.000000</ele>
<time>2025-10-17T16:36:54.335Z</time>
</trkpt>
<trkpt lat="31.7704550" lon="35.1502670">
<ele>594.000000</ele>
<time>2025-10-17T16:36:54.335Z</time>
</trkpt>
<trkpt lat="31.7704550" lon="35.1502400">
<ele>594.000000</ele>
<time>2025-10-17T16:36:54.335Z</time>
</trkpt>
<trkpt lat="31.7704550" lon="35.1502090">
<ele>594.000000</ele>
<time>2025-10-17T16:36:54.335Z</time>
</trkpt>
<trkpt lat="31.7704510" lon="35.1501760">
<ele>594.200012</ele>
<time>2025-10-17T16:36:54.335Z</time>
</trkpt>
<trkpt lat="31.7704490" lon="35.1501520">
<ele>594.200012</ele>
<time>2025-10-17T16:36:54.335Z</time>
</trkpt>
<trkpt lat="31.7704380" lon="35.1500690">
<ele>594.400024</ele>
<time>2025-10-17T16:36:54.335Z</time>
</trkpt>
<trkpt lat="31.7704270" lon="35.1500520">
<ele>594.400024</ele>
<time>2025-10-17T16:36:54.335Z</time>
</trkpt>
<trkpt lat="31.7704200" lon="35.1500390">
<ele>594.400024</ele>
<time>2025-10-17T16:36:54.335Z</time>
</trkpt>
<trkpt lat="31.7704120" lon="35.1500170">
<ele>594.400024</ele>
<time>2025-10-17T16:36:54.335Z</time>
</trkpt>
<trkpt lat="31.7704070" lon="35.1499870">
<ele>594.599976</ele>
<time>2025-10-17T16:36:54.335Z</time>
</trkpt>
<trkpt lat="31.7704070" lon="35.1499640">
<ele>594.599976</ele>
<time>2025-10-17T16:36:54.335Z</time>
</trkpt>
<trkpt lat="31.7704100" lon="35.1499390">
<ele>594.599976</ele>
<time>2025-10-17T16:36:54.335Z</time>
</trkpt>
<trkpt lat="31.7704140" lon="35.1499170">
<ele>594.599976</ele>
<time>2025-10-17T16:36:54.335Z</time>
</trkpt>
<trkpt lat="31.7704200" lon="35.1498840">
<ele>594.599976</ele>
<time>2025-10-17T16:36:54.335Z</time>
</trkpt>
<trkpt lat="31.7704190" lon="35.1498560">
<ele>594.599976</ele>
<time>2025-10-17T16:36:54.335Z</time>
</trkpt>
<trkpt lat="31.7704060" lon="35.1498110">
<ele>594.799988</ele>
<time>2025-10-17T16:36:54.335Z</time>
</trkpt>
<trkpt lat="31.7703950" lon="35.1497870">
<ele>594.799988</ele>
<time>2025-10-17T16:36:54.335Z</time>
</trkpt>
<trkpt lat="31.7703820" lon="35.1497610">
<ele>594.799988</ele>
<time>2025-10-17T16:36:54.335Z</time>
</trkpt>
<trkpt lat="31.7703690" lon="35.1497340">
<ele>594.799988</ele>
<time>2025-10-17T16:36:54.335Z</time>
</trkpt>
<trkpt lat="31.7703070" lon="35.1496220">
<ele>594.599976</ele>
<time>2025-10-17T16:36:54.335Z</time>
</trkpt>
<trkpt lat="31.7702940" lon="35.1495970">
<ele>594.599976</ele>
<time>2025-10-17T16:36:54.335Z</time>
</trkpt>
<trkpt lat="31.7702840" lon="35.1495780">
<ele>594.599976</ele>
<time>2025-10-17T16:36:54.335Z</time>
</trkpt>
<trkpt lat="31.7702300" lon="35.1494760">
<ele>595.200012</ele>
<time>2025-10-17T16:36:54.335Z</time>
</trkpt>
<trkpt lat="31.7702130" lon="35.1494360">
<ele>595.599976</ele>
<time>2025-10-17T16:36:54.335Z</time>
</trkpt>
<trkpt lat="31.7702030" lon="35.1494140">
<ele>595.799988</ele>
<time>2025-10-17T16:36:54.335Z</time>
</trkpt>
<trkpt lat="31.7701920" lon="35.1493870">
<ele>596.000000</ele>
<time>2025-10-17T16:36:54.336Z</time>
</trkpt>
<trkpt lat="31.7701820" lon="35.1493660">
<ele>596.200012</ele>
<time>2025-10-17T16:36:54.336Z</time>
</trkpt>
<trkpt lat="31.7701750" lon="35.1493490">
<ele>596.200012</ele>
<time>2025-10-17T16:36:54.336Z</time>
</trkpt>
<trkpt lat="31.7701660" lon="35.1493290">
<ele>596.600037</ele>
<time>2025-10-17T16:36:54.336Z</time>
</trkpt>
<trkpt lat="31.7701570" lon="35.1493070">
<ele>596.799988</ele>
<time>2025-10-17T16:36:54.336Z</time>
</trkpt>
<trkpt lat="31.7701480" lon="35.1492890">
<ele>596.799988</ele>
<time>2025-10-17T16:36:54.336Z</time>
</trkpt>
<trkpt lat="31.7701370" lon="35.1492690">
<ele>597.000000</ele>
<time>2025-10-17T16:36:54.336Z</time>
</trkpt>
<trkpt lat="31.7701280" lon="35.1492550">
<ele>597.200012</ele>
<time>2025-10-17T16:36:54.336Z</time>
</trkpt>
<trkpt lat="31.7701130" lon="35.1492320">
<ele>597.200012</ele>
<time>2025-10-17T16:36:54.336Z</time>
</trkpt>
<trkpt lat="31.7700970" lon="35.1492150">
<ele>597.200012</ele>
<time>2025-10-17T16:36:54.336Z</time>
</trkpt>
<trkpt lat="31.7700820" lon="35.1491990">
<ele>597.599976</ele>
<time>2025-10-17T16:36:54.336Z</time>
</trkpt>
<trkpt lat="31.7700710" lon="35.1491850">
<ele>597.599976</ele>
<time>2025-10-17T16:36:54.336Z</time>
</trkpt>
<trkpt lat="31.7700580" lon="35.1491630">
<ele>597.799988</ele>
<time>2025-10-17T16:36:54.336Z</time>
</trkpt>
<trkpt lat="31.7700450" lon="35.1491430">
<ele>597.799988</ele>
<time>2025-10-17T16:36:54.336Z</time>
</trkpt>
<trkpt lat="31.7700320" lon="35.1491230">
<ele>598.000000</ele>
<time>2025-10-17T16:36:54.336Z</time>
</trkpt>
<trkpt lat="31.7700240" lon="35.1491070">
<ele>598.000000</ele>
<time>2025-10-17T16:36:54.336Z</time>
</trkpt>
<trkpt lat="31.7700140" lon="35.1490870">
<ele>598.400024</ele>
<time>2025-10-17T16:36:54.336Z</time>
</trkpt>
<trkpt lat="31.7700040" lon="35.1490600">
<ele>598.599976</ele>
<time>2025-10-17T16:36:54.336Z</time>
</trkpt>
<trkpt lat="31.7699980" lon="35.1490380">
<ele>598.599976</ele>
<time>2025-10-17T16:36:54.336Z</time>
</trkpt>
<trkpt lat="31.7699920" lon="35.1490160">
<ele>599.000000</ele>
<time>2025-10-17T16:36:54.336Z</time>
</trkpt>
<trkpt lat="31.7699850" lon="35.1489970">
<ele>599.200012</ele>
<time>2025-10-17T16:36:54.336Z</time>
</trkpt>
<trkpt lat="31.7699810" lon="35.1489730">
<ele>599.399963</ele>
<time>2025-10-17T16:36:54.336Z</time>
</trkpt>
<trkpt lat="31.7699780" lon="35.1489470">
<ele>599.600037</ele>
<time>2025-10-17T16:36:54.336Z</time>
</trkpt>
<trkpt lat="31.7699760" lon="35.1489260">
<ele>599.799988</ele>
<time>2025-10-17T16:36:54.336Z</time>
</trkpt>
<trkpt lat="31.7699750" lon="35.1489070">
<ele>600.000000</ele>
<time>2025-10-17T16:36:54.336Z</time>
</trkpt>
<trkpt lat="31.7699760" lon="35.1488850">
<ele>600.200012</ele>
<time>2025-10-17T16:36:54.336Z</time>
</trkpt>
<trkpt lat="31.7699800" lon="35.1488560">
<ele>600.400024</ele>
<time>2025-10-17T16:36:54.336Z</time>
</trkpt>
<trkpt lat="31.7699850" lon="35.1488310">
<ele>600.599976</ele>
<time>2025-10-17T16:36:54.337Z</time>
</trkpt>
<trkpt lat="31.7699840" lon="35.1488030">
<ele>600.799988</ele>
<time>2025-10-17T16:36:54.337Z</time>
</trkpt>
<trkpt lat="31.7699830" lon="35.1487790">
<ele>601.000000</ele>
<time>2025-10-17T16:36:54.337Z</time>
</trkpt>
<trkpt lat="31.7699820" lon="35.1487500">
<ele>601.000000</ele>
<time>2025-10-17T16:36:54.337Z</time>
</trkpt>
<trkpt lat="31.7699790" lon="35.1487140">
<ele>601.200012</ele>
<time>2025-10-17T16:36:54.337Z</time>
</trkpt>
<trkpt lat="31.7699790" lon="35.1486840">
<ele>601.200012</ele>
<time>2025-10-17T16:36:54.337Z</time>
</trkpt>
<trkpt lat="31.7699800" lon="35.1486620">
<ele>601.200012</ele>
<time>2025-10-17T16:36:54.337Z</time>
</trkpt>
<trkpt lat="31.7699800" lon="35.1486310">
<ele>601.200012</ele>
<time>2025-10-17T16:36:54.337Z</time>
</trkpt>
<trkpt lat="31.7699770" lon="35.1486030">
<ele>601.200012</ele>
<time>2025-10-17T16:36:54.337Z</time>
</trkpt>
<trkpt lat="31.7699770" lon="35.1485760">
<ele>601.400024</ele>
<time>2025-10-17T16:36:54.337Z</time>
</trkpt>
<trkpt lat="31.7699770" lon="35.1485510">
<ele>601.599976</ele>
<time>2025-10-17T16:36:54.337Z</time>
</trkpt>
<trkpt lat="31.7699750" lon="35.1485320">
<ele>601.799988</ele>
<time>2025-10-17T16:36:54.337Z</time>
</trkpt>
<trkpt lat="31.7699750" lon="35.1485080">
<ele>601.799988</ele>
<time>2025-10-17T16:36:54.337Z</time>
</trkpt>
<trkpt lat="31.7699780" lon="35.1484820">
<ele>602.000000</ele>
<time>2025-10-17T16:36:54.337Z</time>
</trkpt>
<trkpt lat="31.7699790" lon="35.1484590">
<ele>602.200012</ele>
<time>2025-10-17T16:36:54.337Z</time>
</trkpt>
<trkpt lat="31.7699800" lon="35.1484380">
<ele>602.200012</ele>
<time>2025-10-17T16:36:54.337Z</time>
</trkpt>
<trkpt lat="31.7699820" lon="35.1484220">
<ele>602.399963</ele>
<time>2025-10-17T16:36:54.337Z</time>
</trkpt>
<trkpt lat="31.7699840" lon="35.1483960">
<ele>602.399963</ele>
<time>2025-10-17T16:36:54.337Z</time>
</trkpt>
<trkpt lat="31.7699830" lon="35.1483750">
<ele>602.600037</ele>
<time>2025-10-17T16:36:54.337Z</time>
</trkpt>
<trkpt lat="31.7699830" lon="35.1483490">
<ele>602.799988</ele>
<time>2025-10-17T16:36:54.337Z</time>
</trkpt>
<trkpt lat="31.7699830" lon="35.1483280">
<ele>603.000000</ele>
<time>2025-10-17T16:36:54.337Z</time>
</trkpt>
<trkpt lat="31.7699830" lon="35.1483000">
<ele>603.000000</ele>
<time>2025-10-17T16:36:54.337Z</time>
</trkpt>
<trkpt lat="31.7699830" lon="35.1482700">
<ele>603.000000</ele>
<time>2025-10-17T16:36:54.337Z</time>
</trkpt>
<trkpt lat="31.7699830" lon="35.1482350">
<ele>603.000000</ele>
<time>2025-10-17T16:36:54.337Z</time>
</trkpt>
<trkpt lat="31.7699840" lon="35.1482070">
<ele>603.000000</ele>
<time>2025-10-17T16:36:54.337Z</time>
</trkpt>
<trkpt lat="31.7699840" lon="35.1481850">
<ele>603.000000</ele>
<time>2025-10-17T16:36:54.337Z</time>
</trkpt>
<trkpt lat="31.7699810" lon="35.1481520">
<ele>603.000000</ele>
<time>2025-10-17T16:36:54.338Z</time>
</trkpt>
<trkpt lat="31.7699790" lon="35.1481260">
<ele>603.000000</ele>
<time>2025-10-17T16:36:54.338Z</time>
</trkpt>
<trkpt lat="31.7699780" lon="35.1481000">
<ele>603.000000</ele>
<time>2025-10-17T16:36:54.338Z</time>
</trkpt>
<trkpt lat="31.7699770" lon="35.1480770">
<ele>603.200012</ele>
<time>2025-10-17T16:36:54.338Z</time>
</trkpt>
<trkpt lat="31.7699760" lon="35.1480520">
<ele>603.200012</ele>
<time>2025-10-17T16:36:54.338Z</time>
</trkpt>
<trkpt lat="31.7699740" lon="35.1480240">
<ele>603.400024</ele>
<time>2025-10-17T16:36:54.338Z</time>
</trkpt>
<trkpt lat="31.7699700" lon="35.1479900">
<ele>603.599976</ele>
<time>2025-10-17T16:36:54.338Z</time>
</trkpt>
<trkpt lat="31.7699680" lon="35.1479630">
<ele>603.599976</ele>
<time>2025-10-17T16:36:54.338Z</time>
</trkpt>
<trkpt lat="31.7699670" lon="35.1479410">
<ele>603.799988</ele>
<time>2025-10-17T16:36:54.338Z</time>
</trkpt>
<trkpt lat="31.7699560" lon="35.1477630">
<ele>604.000000</ele>
<time>2025-10-17T16:36:54.338Z</time>
</trkpt>
<trkpt lat="31.7699560" lon="35.1477290">
<ele>604.200012</ele>
<time>2025-10-17T16:36:54.338Z</time>
</trkpt>
<trkpt lat="31.7699490" lon="35.1475580">
<ele>604.799988</ele>
<time>2025-10-17T16:36:54.338Z</time>
</trkpt>
<trkpt lat="31.7699470" lon="35.1475280">
<ele>604.799988</ele>
<time>2025-10-17T16:36:54.338Z</time>
</trkpt>
<trkpt lat="31.7699430" lon="35.1474930">
<ele>604.799988</ele>
<time>2025-10-17T16:36:54.338Z</time>
</trkpt>
<trkpt lat="31.7699390" lon="35.1474640">
<ele>604.799988</ele>
<time>2025-10-17T16:36:54.338Z</time>
</trkpt>
<trkpt lat="31.7699230" lon="35.1473880">
<ele>605.200012</ele>
<time>2025-10-17T16:36:54.338Z</time>
</trkpt>
<trkpt lat="31.7698780" lon="35.1472280">
<ele>605.599976</ele>
<time>2025-10-17T16:36:54.338Z</time>
</trkpt>
<trkpt lat="31.7698690" lon="35.1472000">
<ele>605.799988</ele>
<time>2025-10-17T16:36:54.338Z</time>
</trkpt>
<trkpt lat="31.7698010" lon="35.1470620">
<ele>606.200012</ele>
<time>2025-10-17T16:36:54.338Z</time>
</trkpt>
<trkpt lat="31.7697340" lon="35.1469700">
<ele>606.000000</ele>
<time>2025-10-17T16:36:54.338Z</time>
</trkpt>
<trkpt lat="31.7696360" lon="35.1468650">
<ele>606.200012</ele>
<time>2025-10-17T16:36:54.338Z</time>
</trkpt>
<trkpt lat="31.7695770" lon="35.1468020">
<ele>606.200012</ele>
<time>2025-10-17T16:36:54.338Z</time>
</trkpt>
<trkpt lat="31.7695560" lon="35.1467770">
<ele>606.200012</ele>
<time>2025-10-17T16:36:54.338Z</time>
</trkpt>
<trkpt lat="31.7695410" lon="35.1467570">
<ele>606.200012</ele>
<time>2025-10-17T16:36:54.338Z</time>
</trkpt>
<trkpt lat="31.7694330" lon="35.1466070">
<ele>606.400024</ele>
<time>2025-10-17T16:36:54.338Z</time>
</trkpt>
<trkpt lat="31.7694080" lon="35.1465680">
<ele>606.200012</ele>
<time>2025-10-17T16:36:54.338Z</time>
</trkpt>
<trkpt lat="31.7693800" lon="35.1465280">
<ele>606.200012</ele>
<time>2025-10-17T16:36:54.338Z</time>
</trkpt>
<trkpt lat="31.7692980" lon="35.1464130">
<ele>605.400024</ele>
<time>2025-10-17T16:36:54.338Z</time>
</trkpt>
<trkpt lat="31.7692770" lon="35.1463830">
<ele>605.599976</ele>
<time>2025-10-17T16:36:54.338Z</time>
</trkpt>
<trkpt lat="31.7692500" lon="35.1463490">
<ele>605.400024</ele>
<time>2025-10-17T16:36:54.338Z</time>
</trkpt>
<trkpt lat="31.7692180" lon="35.1463080">
<ele>605.200012</ele>
<time>2025-10-17T16:36:54.338Z</time>
</trkpt>
<trkpt lat="31.7691140" lon="35.1461590">
<ele>605.200012</ele>
<time>2025-10-17T16:36:54.338Z</time>
</trkpt>
<trkpt lat="31.7690760" lon="35.1460920">
<ele>605.200012</ele>
<time>2025-10-17T16:36:54.339Z</time>
</trkpt>
<trkpt lat="31.7690590" lon="35.1460630">
<ele>605.200012</ele>
<time>2025-10-17T16:36:54.339Z</time>
</trkpt>
<trkpt lat="31.7690070" lon="35.1459890">
<ele>605.599976</ele>
<time>2025-10-17T16:36:54.339Z</time>
</trkpt>
<trkpt lat="31.7688710" lon="35.1458430">
<ele>605.799988</ele>
<time>2025-10-17T16:36:54.339Z</time>
</trkpt>
<trkpt lat="31.7688390" lon="35.1458120">
<ele>605.799988</ele>
<time>2025-10-17T16:36:54.339Z</time>
</trkpt>
<trkpt lat="31.7687410" lon="35.1457160">
<ele>605.799988</ele>
<time>2025-10-17T16:36:54.339Z</time>
</trkpt>
<trkpt lat="31.7685980" lon="35.1456030">
<ele>606.200012</ele>
<time>2025-10-17T16:36:54.339Z</time>
</trkpt>
<trkpt lat="31.7685520" lon="35.1455670">
<ele>606.599976</ele>
<time>2025-10-17T16:36:54.339Z</time>
</trkpt>
<trkpt lat="31.7684400" lon="35.1454940">
<ele>606.599976</ele>
<time>2025-10-17T16:36:54.339Z</time>
</trkpt>
<trkpt lat="31.7683520" lon="35.1454290">
<ele>607.000000</ele>
<time>2025-10-17T16:36:54.339Z</time>
</trkpt>
<trkpt lat="31.7683060" lon="35.1454010">
<ele>607.000000</ele>
<time>2025-10-17T16:36:54.339Z</time>
</trkpt>
<trkpt lat="31.7682570" lon="35.1453750">
<ele>607.000000</ele>
<time>2025-10-17T16:36:54.339Z</time>
</trkpt>
<trkpt lat="31.7682170" lon="35.1453570">
<ele>607.000000</ele>
<time>2025-10-17T16:36:54.339Z</time>
</trkpt>
<trkpt lat="31.7681080" lon="35.1453170">
<ele>606.200012</ele>
<time>2025-10-17T16:36:54.339Z</time>
</trkpt>
<trkpt lat="31.7680600" lon="35.1452990">
<ele>605.799988</ele>
<time>2025-10-17T16:36:54.339Z</time>
</trkpt>
<trkpt lat="31.7680200" lon="35.1452830">
<ele>605.599976</ele>
<time>2025-10-17T16:36:54.339Z</time>
</trkpt>
<trkpt lat="31.7679710" lon="35.1452620">
<ele>605.400024</ele>
<time>2025-10-17T16:36:54.339Z</time>
</trkpt>
<trkpt lat="31.7677880" lon="35.1451880">
<ele>605.400024</ele>
<time>2025-10-17T16:36:54.339Z</time>
</trkpt>
<trkpt lat="31.7677470" lon="35.1451720">
<ele>605.599976</ele>
<time>2025-10-17T16:36:54.339Z</time>
</trkpt>
<trkpt lat="31.7676980" lon="35.1451520">
<ele>605.599976</ele>
<time>2025-10-17T16:36:54.339Z</time>
</trkpt>
<trkpt lat="31.7676580" lon="35.1451340">
<ele>606.000000</ele>
<time>2025-10-17T16:36:54.339Z</time>
</trkpt>
<trkpt lat="31.7676180" lon="35.1451150">
<ele>606.000000</ele>
<time>2025-10-17T16:36:54.339Z</time>
</trkpt>
<trkpt lat="31.7675840" lon="35.1450990">
<ele>606.000000</ele>
<time>2025-10-17T16:36:54.339Z</time>
</trkpt>
<trkpt lat="31.7675350" lon="35.1450800">
<ele>605.799988</ele>
<time>2025-10-17T16:36:54.339Z</time>
</trkpt>
<trkpt lat="31.7674950" lon="35.1450620">
<ele>606.200012</ele>
<time>2025-10-17T16:36:54.339Z</time>
</trkpt>
<trkpt lat="31.7674570" lon="35.1450420">
<ele>606.200012</ele>
<time>2025-10-17T16:36:54.339Z</time>
</trkpt>
<trkpt lat="31.7674180" lon="35.1450200">
<ele>606.200012</ele>
<time>2025-10-17T16:36:54.339Z</time>
</trkpt>
<trkpt lat="31.7673860" lon="35.1450020">
<ele>606.000000</ele>
<time>2025-10-17T16:36:54.339Z</time>
</trkpt>
<trkpt lat="31.7673380" lon="35.1449730">
<ele>606.000000</ele>
<time>2025-10-17T16:36:54.339Z</time>
</trkpt>
<trkpt lat="31.7672960" lon="35.1449490">
<ele>605.799988</ele>
<time>2025-10-17T16:36:54.339Z</time>
</trkpt>
<trkpt lat="31.7672550" lon="35.1449230">
<ele>606.000000</ele>
<time>2025-10-17T16:36:54.339Z</time>
</trkpt>
<trkpt lat="31.7672200" lon="35.1449020">
<ele>606.000000</ele>
<time>2025-10-17T16:36:54.339Z</time>
</trkpt>
<trkpt lat="31.7671030" lon="35.1448270">
<ele>606.000000</ele>
<time>2025-10-17T16:36:54.340Z</time>
</trkpt>
<trkpt lat="31.7670710" lon="35.1448070">
<ele>606.000000</ele>
<time>2025-10-17T16:36:54.340Z</time>
</trkpt>
<trkpt lat="31.7670380" lon="35.1447840">
<ele>606.000000</ele>
<time>2025-10-17T16:36:54.340Z</time>
</trkpt>
<trkpt lat="31.7670030" lon="35.1447620">
<ele>606.000000</ele>
<time>2025-10-17T16:36:54.340Z</time>
</trkpt>
<trkpt lat="31.7669710" lon="35.1447400">
<ele>606.000000</ele>
<time>2025-10-17T16:36:54.340Z</time>
</trkpt>
<trkpt lat="31.7669400" lon="35.1447170">
<ele>606.000000</ele>
<time>2025-10-17T16:36:54.340Z</time>
</trkpt>
<trkpt lat="31.7669080" lon="35.1446940">
<ele>606.000000</ele>
<time>2025-10-17T16:36:54.340Z</time>
</trkpt>
<trkpt lat="31.7668100" lon="35.1446140">
<ele>606.000000</ele>
<time>2025-10-17T16:36:54.340Z</time>
</trkpt>
<trkpt lat="31.7667830" lon="35.1445860">
<ele>606.000000</ele>
<time>2025-10-17T16:36:54.340Z</time>
</trkpt>
<trkpt lat="31.7667070" lon="35.1445040">
<ele>606.000000</ele>
<time>2025-10-17T16:36:54.340Z</time>
</trkpt>
<trkpt lat="31.7666440" lon="35.1444150">
<ele>606.000000</ele>
<time>2025-10-17T16:36:54.340Z</time>
</trkpt>
<trkpt lat="31.7666180" lon="35.1443750">
<ele>605.799988</ele>
<time>2025-10-17T16:36:54.340Z</time>
</trkpt>
<trkpt lat="31.7664930" lon="35.1441690">
<ele>605.599976</ele>
<time>2025-10-17T16:36:54.340Z</time>
</trkpt>
<trkpt lat="31.7664790" lon="35.1441090">
<ele>605.599976</ele>
<time>2025-10-17T16:36:54.340Z</time>
</trkpt>
<trkpt lat="31.7664610" lon="35.1439910">
<ele>605.599976</ele>
<time>2025-10-17T16:36:54.340Z</time>
</trkpt>
<trkpt lat="31.7664600" lon="35.1439480">
<ele>605.599976</ele>
<time>2025-10-17T16:36:54.340Z</time>
</trkpt>
<trkpt lat="31.7664600" lon="35.1439070">
<ele>605.599976</ele>
<time>2025-10-17T16:36:54.340Z</time>
</trkpt>
<trkpt lat="31.7664650" lon="35.1438780">
<ele>605.799988</ele>
<time>2025-10-17T16:36:54.340Z</time>
</trkpt>
<trkpt lat="31.7664750" lon="35.1438340">
<ele>606.200012</ele>
<time>2025-10-17T16:36:54.340Z</time>
</trkpt>
<trkpt lat="31.7664820" lon="35.1438020">
<ele>606.799988</ele>
<time>2025-10-17T16:36:54.340Z</time>
</trkpt>
<trkpt lat="31.7664860" lon="35.1437690">
<ele>607.200012</ele>
<time>2025-10-17T16:36:54.340Z</time>
</trkpt>
<trkpt lat="31.7664860" lon="35.1437440">
<ele>607.399963</ele>
<time>2025-10-17T16:36:54.340Z</time>
</trkpt>
<trkpt lat="31.7664830" lon="35.1437070">
<ele>608.000000</ele>
<time>2025-10-17T16:36:54.340Z</time>
</trkpt>
<trkpt lat="31.7664780" lon="35.1436760">
<ele>608.000000</ele>
<time>2025-10-17T16:36:54.340Z</time>
</trkpt>
<trkpt lat="31.7664720" lon="35.1436500">
<ele>608.200012</ele>
<time>2025-10-17T16:36:54.340Z</time>
</trkpt>
<trkpt lat="31.7664670" lon="35.1436210">
<ele>608.400024</ele>
<time>2025-10-17T16:36:54.340Z</time>
</trkpt>
<trkpt lat="31.7664610" lon="35.1435920">
<ele>608.799988</ele>
<time>2025-10-17T16:36:54.340Z</time>
</trkpt>
<trkpt lat="31.7664540" lon="35.1435640">
<ele>608.799988</ele>
<time>2025-10-17T16:36:54.340Z</time>
</trkpt>
<trkpt lat="31.7664460" lon="35.1435340">
<ele>608.799988</ele>
<time>2025-10-17T16:36:54.340Z</time>
</trkpt>
<trkpt lat="31.7664420" lon="35.1435130">
<ele>608.799988</ele>
<time>2025-10-17T16:36:54.340Z</time>
</trkpt>
<trkpt lat="31.7664400" lon="35.1434870">
<ele>609.200012</ele>
<time>2025-10-17T16:36:54.340Z</time>
</trkpt>
<trkpt lat="31.7664390" lon="35.1434510">
<ele>609.599976</ele>
<time>2025-10-17T16:36:54.341Z</time>
</trkpt>
<trkpt lat="31.7664420" lon="35.1434190">
<ele>609.799988</ele>
<time>2025-10-17T16:36:54.341Z</time>
</trkpt>
<trkpt lat="31.7664470" lon="35.1433930">
<ele>610.200012</ele>
<time>2025-10-17T16:36:54.341Z</time>
</trkpt>
<trkpt lat="31.7664540" lon="35.1433620">
<ele>610.399963</ele>
<time>2025-10-17T16:36:54.341Z</time>
</trkpt>
<trkpt lat="31.7664610" lon="35.1433290">
<ele>610.600037</ele>
<time>2025-10-17T16:36:54.341Z</time>
</trkpt>
<trkpt lat="31.7664660" lon="35.1432930">
<ele>610.799988</ele>
<time>2025-10-17T16:36:54.341Z</time>
</trkpt>
<trkpt lat="31.7664710" lon="35.1432560">
<ele>610.799988</ele>
<time>2025-10-17T16:36:54.341Z</time>
</trkpt>
<trkpt lat="31.7664760" lon="35.1432160">
<ele>610.799988</ele>
<time>2025-10-17T16:36:54.341Z</time>
</trkpt>
<trkpt lat="31.7664810" lon="35.1431730">
<ele>611.000000</ele>
<time>2025-10-17T16:36:54.341Z</time>
</trkpt>
<trkpt lat="31.7664850" lon="35.1431290">
<ele>611.200012</ele>
<time>2025-10-17T16:36:54.341Z</time>
</trkpt>
<trkpt lat="31.7664870" lon="35.1430720">
<ele>611.200012</ele>
<time>2025-10-17T16:36:54.341Z</time>
</trkpt>
<trkpt lat="31.7664900" lon="35.1430270">
<ele>611.400024</ele>
<time>2025-10-17T16:36:54.341Z</time>
</trkpt>
<trkpt lat="31.7664950" lon="35.1429830">
<ele>611.400024</ele>
<time>2025-10-17T16:36:54.341Z</time>
</trkpt>
<trkpt lat="31.7664980" lon="35.1429490">
<ele>611.599976</ele>
<time>2025-10-17T16:36:54.341Z</time>
</trkpt>
<trkpt lat="31.7664990" lon="35.1429060">
<ele>611.599976</ele>
<time>2025-10-17T16:36:54.341Z</time>
</trkpt>
<trkpt lat="31.7664960" lon="35.1428520">
<ele>611.599976</ele>
<time>2025-10-17T16:36:54.341Z</time>
</trkpt>
<trkpt lat="31.7664920" lon="35.1428060">
<ele>611.599976</ele>
<time>2025-10-17T16:36:54.341Z</time>
</trkpt>
<trkpt lat="31.7664920" lon="35.1427700">
<ele>611.599976</ele>
<time>2025-10-17T16:36:54.341Z</time>
</trkpt>
<trkpt lat="31.7664920" lon="35.1427270">
<ele>611.599976</ele>
<time>2025-10-17T16:36:54.341Z</time>
</trkpt>
<trkpt lat="31.7664900" lon="35.1426760">
<ele>611.599976</ele>
<time>2025-10-17T16:36:54.341Z</time>
</trkpt>
<trkpt lat="31.7664860" lon="35.1426340">
<ele>611.599976</ele>
<time>2025-10-17T16:36:54.341Z</time>
</trkpt>
<trkpt lat="31.7664820" lon="35.1425960">
<ele>611.599976</ele>
<time>2025-10-17T16:36:54.341Z</time>
</trkpt>
<trkpt lat="31.7664800" lon="35.1425670">
<ele>611.599976</ele>
<time>2025-10-17T16:36:54.341Z</time>
</trkpt>
<trkpt lat="31.7664820" lon="35.1425330">
<ele>611.599976</ele>
<time>2025-10-17T16:36:54.341Z</time>
</trkpt>
<trkpt lat="31.7664850" lon="35.1424980">
<ele>611.599976</ele>
<time>2025-10-17T16:36:54.341Z</time>
</trkpt>
<trkpt lat="31.7664860" lon="35.1424550">
<ele>611.599976</ele>
<time>2025-10-17T16:36:54.342Z</time>
</trkpt>
<trkpt lat="31.7664890" lon="35.1424150">
<ele>611.599976</ele>
<time>2025-10-17T16:36:54.342Z</time>
</trkpt>
<trkpt lat="31.7664950" lon="35.1422370">
<ele>611.400024</ele>
<time>2025-10-17T16:36:54.342Z</time>
</trkpt>
<trkpt lat="31.7664970" lon="35.1421110">
<ele>611.400024</ele>
<time>2025-10-17T16:36:54.342Z</time>
</trkpt>
<trkpt lat="31.7665010" lon="35.1420710">
<ele>611.400024</ele>
<time>2025-10-17T16:36:54.342Z</time>
</trkpt>
<trkpt lat="31.7665040" lon="35.1419450">
<ele>611.400024</ele>
<time>2025-10-17T16:36:54.342Z</time>
</trkpt>
<trkpt lat="31.7665080" lon="35.1419030">
<ele>611.400024</ele>
<time>2025-10-17T16:36:54.342Z</time>
</trkpt>
<trkpt lat="31.7665150" lon="35.1418250">
<ele>611.400024</ele>
<time>2025-10-17T16:36:54.342Z</time>
</trkpt>
<trkpt lat="31.7665890" lon="35.1415220">
<ele>611.599976</ele>
<time>2025-10-17T16:36:54.342Z</time>
</trkpt>
<trkpt lat="31.7666010" lon="35.1414930">
<ele>611.599976</ele>
<time>2025-10-17T16:36:54.342Z</time>
</trkpt>
<trkpt lat="31.7666120" lon="35.1414630">
<ele>611.599976</ele>
<time>2025-10-17T16:36:54.342Z</time>
</trkpt>
<trkpt lat="31.7666220" lon="35.1414330">
<ele>611.599976</ele>
<time>2025-10-17T16:36:54.342Z</time>
</trkpt>
<trkpt lat="31.7666410" lon="35.1413750">
<ele>612.200012</ele>
<time>2025-10-17T16:36:54.342Z</time>
</trkpt>
<trkpt lat="31.7666480" lon="35.1413510">
<ele>612.200012</ele>
<time>2025-10-17T16:36:54.342Z</time>
</trkpt>
<trkpt lat="31.7666540" lon="35.1413180">
<ele>612.400024</ele>
<time>2025-10-17T16:36:54.342Z</time>
</trkpt>
<trkpt lat="31.7666650" lon="35.1412790">
<ele>612.599976</ele>
<time>2025-10-17T16:36:54.342Z</time>
</trkpt>
<trkpt lat="31.7666810" lon="35.1412460">
<ele>612.599976</ele>
<time>2025-10-17T16:36:54.342Z</time>
</trkpt>
<trkpt lat="31.7666940" lon="35.1412130">
<ele>612.799988</ele>
<time>2025-10-17T16:36:54.342Z</time>
</trkpt>
<trkpt lat="31.7667190" lon="35.1411420">
<ele>612.799988</ele>
<time>2025-10-17T16:36:54.342Z</time>
</trkpt>
<trkpt lat="31.7667390" lon="35.1410720">
<ele>612.799988</ele>
<time>2025-10-17T16:36:54.342Z</time>
</trkpt>
<trkpt lat="31.7668140" lon="35.1408230">
<ele>613.399963</ele>
<time>2025-10-17T16:36:54.342Z</time>
</trkpt>
<trkpt lat="31.7668260" lon="35.1407900">
<ele>613.600037</ele>
<time>2025-10-17T16:36:54.343Z</time>
</trkpt>
<trkpt lat="31.7668770" lon="35.1405760">
<ele>614.000000</ele>
<time>2025-10-17T16:36:54.343Z</time>
</trkpt>
<trkpt lat="31.7668840" lon="35.1405180">
<ele>614.000000</ele>
<time>2025-10-17T16:36:54.343Z</time>
</trkpt>
<trkpt lat="31.7668840" lon="35.1404500">
<ele>614.200012</ele>
<time>2025-10-17T16:36:54.343Z</time>
</trkpt>
<trkpt lat="31.7668860" lon="35.1404100">
<ele>614.400024</ele>
<time>2025-10-17T16:36:54.343Z</time>
</trkpt>
<trkpt lat="31.7668870" lon="35.1403810">
<ele>614.400024</ele>
<time>2025-10-17T16:36:54.343Z</time>
</trkpt>
<trkpt lat="31.7668830" lon="35.1403550">
<ele>614.599976</ele>
<time>2025-10-17T16:36:54.343Z</time>
</trkpt>
<trkpt lat="31.7668800" lon="35.1403280">
<ele>614.599976</ele>
<time>2025-10-17T16:36:54.343Z</time>
</trkpt>
<trkpt lat="31.7668780" lon="35.1403020">
<ele>614.799988</ele>
<time>2025-10-17T16:36:54.343Z</time>
</trkpt>
<trkpt lat="31.7668640" lon="35.1402000">
<ele>614.799988</ele>
<time>2025-10-17T16:36:54.343Z</time>
</trkpt>
<trkpt lat="31.7668520" lon="35.1401370">
<ele>615.200012</ele>
<time>2025-10-17T16:36:54.343Z</time>
</trkpt>
<trkpt lat="31.7668160" lon="35.1400220">
<ele>615.400024</ele>
<time>2025-10-17T16:36:54.343Z</time>
</trkpt>
<trkpt lat="31.7668020" lon="35.1399920">
<ele>615.400024</ele>
<time>2025-10-17T16:36:54.343Z</time>
</trkpt>
<trkpt lat="31.7667920" lon="35.1399550">
<ele>615.599976</ele>
<time>2025-10-17T16:36:54.343Z</time>
</trkpt>
<trkpt lat="31.7667850" lon="35.1399220">
<ele>615.799988</ele>
<time>2025-10-17T16:36:54.343Z</time>
</trkpt>
<trkpt lat="31.7667550" lon="35.1397510">
<ele>616.000000</ele>
<time>2025-10-17T16:36:54.343Z</time>
</trkpt>
<trkpt lat="31.7667490" lon="35.1397240">
<ele>616.000000</ele>
<time>2025-10-17T16:36:54.343Z</time>
</trkpt>
<trkpt lat="31.7667360" lon="35.1396570">
<ele>616.599976</ele>
<time>2025-10-17T16:36:54.343Z</time>
</trkpt>
<trkpt lat="31.7667250" lon="35.1396120">
<ele>616.799988</ele>
<time>2025-10-17T16:36:54.343Z</time>
</trkpt>
<trkpt lat="31.7666760" lon="35.1394590">
<ele>617.599976</ele>
<time>2025-10-17T16:36:54.343Z</time>
</trkpt>
<trkpt lat="31.7666450" lon="35.1393910">
<ele>618.000000</ele>
<time>2025-10-17T16:36:54.343Z</time>
</trkpt>
<trkpt lat="31.7666270" lon="35.1393550">
<ele>618.200012</ele>
<time>2025-10-17T16:36:54.343Z</time>
</trkpt>
<trkpt lat="31.7666060" lon="35.1393140">
<ele>618.399963</ele>
<time>2025-10-17T16:36:54.343Z</time>
</trkpt>
<trkpt lat="31.7665870" lon="35.1392820">
<ele>618.399963</ele>
<time>2025-10-17T16:36:54.344Z</time>
</trkpt>
<trkpt lat="31.7665670" lon="35.1392490">
<ele>618.399963</ele>
<time>2025-10-17T16:36:54.344Z</time>
</trkpt>
<trkpt lat="31.7665510" lon="35.1392240">
<ele>618.399963</ele>
<time>2025-10-17T16:36:54.344Z</time>
</trkpt>
<trkpt lat="31.7665300" lon="35.1391890">
<ele>618.399963</ele>
<time>2025-10-17T16:36:54.344Z</time>
</trkpt>
<trkpt lat="31.7665080" lon="35.1391540">
<ele>618.399963</ele>
<time>2025-10-17T16:36:54.344Z</time>
</trkpt>
<trkpt lat="31.7664800" lon="35.1391120">
<ele>618.399963</ele>
<time>2025-10-17T16:36:54.344Z</time>
</trkpt>
<trkpt lat="31.7664610" lon="35.1390850">
<ele>618.399963</ele>
<time>2025-10-17T16:36:54.344Z</time>
</trkpt>
<trkpt lat="31.7664360" lon="35.1390540">
<ele>618.600037</ele>
<time>2025-10-17T16:36:54.344Z</time>
</trkpt>
<trkpt lat="31.7664010" lon="35.1390250">
<ele>618.799988</ele>
<time>2025-10-17T16:36:54.344Z</time>
</trkpt>
<trkpt lat="31.7663760" lon="35.1389990">
<ele>619.000000</ele>
<time>2025-10-17T16:36:54.344Z</time>
</trkpt>
<trkpt lat="31.7663530" lon="35.1389740">
<ele>619.000000</ele>
<time>2025-10-17T16:36:54.344Z</time>
</trkpt>
<trkpt lat="31.7663290" lon="35.1389530">
<ele>618.600037</ele>
<time>2025-10-17T16:36:54.344Z</time>
</trkpt>
<trkpt lat="31.7663060" lon="35.1389370">
<ele>618.399963</ele>
<time>2025-10-17T16:36:54.344Z</time>
</trkpt>
<trkpt lat="31.7662700" lon="35.1389180">
<ele>618.200012</ele>
<time>2025-10-17T16:36:54.344Z</time>
</trkpt>
<trkpt lat="31.7662450" lon="35.1389060">
<ele>618.000000</ele>
<time>2025-10-17T16:36:54.344Z</time>
</trkpt>
<trkpt lat="31.7662120" lon="35.1388930">
<ele>617.799988</ele>
<time>2025-10-17T16:36:54.344Z</time>
</trkpt>
<trkpt lat="31.7661810" lon="35.1388830">
<ele>617.799988</ele>
<time>2025-10-17T16:36:54.344Z</time>
</trkpt>
<trkpt lat="31.7661460" lon="35.1388730">
<ele>617.599976</ele>
<time>2025-10-17T16:36:54.344Z</time>
</trkpt>
<trkpt lat="31.7661020" lon="35.1388580">
<ele>617.799988</ele>
<time>2025-10-17T16:36:54.344Z</time>
</trkpt>
<trkpt lat="31.7660260" lon="35.1388360">
<ele>617.200012</ele>
<time>2025-10-17T16:36:54.344Z</time>
</trkpt>
<trkpt lat="31.7659800" lon="35.1388240">
<ele>617.200012</ele>
<time>2025-10-17T16:36:54.344Z</time>
</trkpt>
<trkpt lat="31.7659190" lon="35.1388070">
<ele>617.000000</ele>
<time>2025-10-17T16:36:54.344Z</time>
</trkpt>
<trkpt lat="31.7657490" lon="35.1387440">
<ele>616.400024</ele>
<time>2025-10-17T16:36:54.344Z</time>
</trkpt>
<trkpt lat="31.7655990" lon="35.1387170">
<ele>615.400024</ele>
<time>2025-10-17T16:36:54.344Z</time>
</trkpt>
<trkpt lat="31.7655320" lon="35.1387190">
<ele>614.599976</ele>
<time>2025-10-17T16:36:54.344Z</time>
</trkpt>
<trkpt lat="31.7654640" lon="35.1387250">
<ele>613.600037</ele>
<time>2025-10-17T16:36:54.344Z</time>
</trkpt>
<trkpt lat="31.7654130" lon="35.1387270">
<ele>613.200012</ele>
<time>2025-10-17T16:36:54.345Z</time>
</trkpt>
<trkpt lat="31.7652600" lon="35.1387360">
<ele>611.799988</ele>
<time>2025-10-17T16:36:54.345Z</time>
</trkpt>
<trkpt lat="31.7651350" lon="35.1387570">
<ele>610.799988</ele>
<time>2025-10-17T16:36:54.345Z</time>
</trkpt>
<trkpt lat="31.7650660" lon="35.1387710">
<ele>610.600037</ele>
<time>2025-10-17T16:36:54.345Z</time>
</trkpt>
<trkpt lat="31.7649960" lon="35.1387850">
<ele>609.400024</ele>
<time>2025-10-17T16:36:54.345Z</time>
</trkpt>
<trkpt lat="31.7648570" lon="35.1388090">
<ele>608.599976</ele>
<time>2025-10-17T16:36:54.345Z</time>
</trkpt>
<trkpt lat="31.7647890" lon="35.1388220">
<ele>608.400024</ele>
<time>2025-10-17T16:36:54.345Z</time>
</trkpt>
<trkpt lat="31.7647200" lon="35.1388360">
<ele>608.400024</ele>
<time>2025-10-17T16:36:54.345Z</time>
</trkpt>
<trkpt lat="31.7645170" lon="35.1388800">
<ele>608.200012</ele>
<time>2025-10-17T16:36:54.345Z</time>
</trkpt>
<trkpt lat="31.7643690" lon="35.1389180">
<ele>608.000000</ele>
<time>2025-10-17T16:36:54.345Z</time>
</trkpt>
<trkpt lat="31.7643020" lon="35.1389360">
<ele>608.000000</ele>
<time>2025-10-17T16:36:54.345Z</time>
</trkpt>
<trkpt lat="31.7640190" lon="35.1389900">
<ele>607.200012</ele>
<time>2025-10-17T16:36:54.345Z</time>
</trkpt>
<trkpt lat="31.7639420" lon="35.1389980">
<ele>606.000000</ele>
<time>2025-10-17T16:36:54.345Z</time>
</trkpt>
<trkpt lat="31.7638630" lon="35.1390030">
<ele>605.599976</ele>
<time>2025-10-17T16:36:54.345Z</time>
</trkpt>
<trkpt lat="31.7637840" lon="35.1390100">
<ele>605.000000</ele>
<time>2025-10-17T16:36:54.345Z</time>
</trkpt>
<trkpt lat="31.7636260" lon="35.1390390">
<ele>604.399963</ele>
<time>2025-10-17T16:36:54.345Z</time>
</trkpt>
<trkpt lat="31.7635540" lon="35.1390710">
<ele>603.799988</ele>
<time>2025-10-17T16:36:54.345Z</time>
</trkpt>
<trkpt lat="31.7634880" lon="35.1391070">
<ele>603.400024</ele>
<time>2025-10-17T16:36:54.345Z</time>
</trkpt>
<trkpt lat="31.7634410" lon="35.1391340">
<ele>602.600037</ele>
<time>2025-10-17T16:36:54.345Z</time>
</trkpt>
<trkpt lat="31.7633860" lon="35.1391590">
<ele>602.000000</ele>
<time>2025-10-17T16:36:54.345Z</time>
</trkpt>
<trkpt lat="31.7633200" lon="35.1391780">
<ele>601.200012</ele>
<time>2025-10-17T16:36:54.345Z</time>
</trkpt>
<trkpt lat="31.7632660" lon="35.1391890">
<ele>601.000000</ele>
<time>2025-10-17T16:36:54.345Z</time>
</trkpt>
<trkpt lat="31.7632140" lon="35.1392000">
<ele>600.799988</ele>
<time>2025-10-17T16:36:54.345Z</time>
</trkpt>
<trkpt lat="31.7631760" lon="35.1392080">
<ele>600.599976</ele>
<time>2025-10-17T16:36:54.345Z</time>
</trkpt>
<trkpt lat="31.7631310" lon="35.1392180">
<ele>600.599976</ele>
<time>2025-10-17T16:36:54.345Z</time>
</trkpt>
<trkpt lat="31.7630790" lon="35.1392330">
<ele>600.599976</ele>
<time>2025-10-17T16:36:54.346Z</time>
</trkpt>
<trkpt lat="31.7630340" lon="35.1392470">
<ele>600.599976</ele>
<time>2025-10-17T16:36:54.346Z</time>
</trkpt>
<trkpt lat="31.7630000" lon="35.1392570">
<ele>600.599976</ele>
<time>2025-10-17T16:36:54.346Z</time>
</trkpt>
<trkpt lat="31.7629580" lon="35.1392710">
<ele>600.599976</ele>
<time>2025-10-17T16:36:54.346Z</time>
</trkpt>
<trkpt lat="31.7628740" lon="35.1393030">
<ele>601.200012</ele>
<time>2025-10-17T16:36:54.346Z</time>
</trkpt>
<trkpt lat="31.7628370" lon="35.1393170">
<ele>601.400024</ele>
<time>2025-10-17T16:36:54.346Z</time>
</trkpt>
<trkpt lat="31.7628080" lon="35.1393300">
<ele>601.599976</ele>
<time>2025-10-17T16:36:54.346Z</time>
</trkpt>
<trkpt lat="31.7627730" lon="35.1393520">
<ele>602.000000</ele>
<time>2025-10-17T16:36:54.346Z</time>
</trkpt>
<trkpt lat="31.7627370" lon="35.1393800">
<ele>602.200012</ele>
<time>2025-10-17T16:36:54.346Z</time>
</trkpt>
<trkpt lat="31.7627070" lon="35.1394020">
<ele>602.399963</ele>
<time>2025-10-17T16:36:54.346Z</time>
</trkpt>
<trkpt lat="31.7626780" lon="35.1394200">
<ele>602.600037</ele>
<time>2025-10-17T16:36:54.346Z</time>
</trkpt>
<trkpt lat="31.7626570" lon="35.1394350">
<ele>602.799988</ele>
<time>2025-10-17T16:36:54.346Z</time>
</trkpt>
<trkpt lat="31.7626300" lon="35.1394510">
<ele>603.200012</ele>
<time>2025-10-17T16:36:54.346Z</time>
</trkpt>
<trkpt lat="31.7625980" lon="35.1394750">
<ele>603.400024</ele>
<time>2025-10-17T16:36:54.346Z</time>
</trkpt>
<trkpt lat="31.7625760" lon="35.1394990">
<ele>603.799988</ele>
<time>2025-10-17T16:36:54.346Z</time>
</trkpt>
<trkpt lat="31.7625570" lon="35.1395250">
<ele>604.000000</ele>
<time>2025-10-17T16:36:54.346Z</time>
</trkpt>
<trkpt lat="31.7625430" lon="35.1395440">
<ele>604.200012</ele>
<time>2025-10-17T16:36:54.346Z</time>
</trkpt>
<trkpt lat="31.7625210" lon="35.1395740">
<ele>604.399963</ele>
<time>2025-10-17T16:36:54.346Z</time>
</trkpt>
<trkpt lat="31.7625030" lon="35.1395960">
<ele>604.600037</ele>
<time>2025-10-17T16:36:54.346Z</time>
</trkpt>
<trkpt lat="31.7624860" lon="35.1396190">
<ele>605.000000</ele>
<time>2025-10-17T16:36:54.346Z</time>
</trkpt>
<trkpt lat="31.7624740" lon="35.1396460">
<ele>605.200012</ele>
<time>2025-10-17T16:36:54.346Z</time>
</trkpt>
<trkpt lat="31.7624660" lon="35.1396690">
<ele>605.400024</ele>
<time>2025-10-17T16:36:54.346Z</time>
</trkpt>
<trkpt lat="31.7624530" lon="35.1397060">
<ele>605.400024</ele>
<time>2025-10-17T16:36:54.346Z</time>
</trkpt>
<trkpt lat="31.7624400" lon="35.1397310">
<ele>605.599976</ele>
<time>2025-10-17T16:36:54.346Z</time>
</trkpt>
<trkpt lat="31.7624250" lon="35.1397700">
<ele>605.799988</ele>
<time>2025-10-17T16:36:54.346Z</time>
</trkpt>
<trkpt lat="31.7624150" lon="35.1398030">
<ele>606.000000</ele>
<time>2025-10-17T16:36:54.347Z</time>
</trkpt>
<trkpt lat="31.7624090" lon="35.1398290">
<ele>606.000000</ele>
<time>2025-10-17T16:36:54.347Z</time>
</trkpt>
<trkpt lat="31.7624010" lon="35.1398600">
<ele>606.200012</ele>
<time>2025-10-17T16:36:54.347Z</time>
</trkpt>
<trkpt lat="31.7623940" lon="35.1398890">
<ele>606.400024</ele>
<time>2025-10-17T16:36:54.347Z</time>
</trkpt>
<trkpt lat="31.7623890" lon="35.1399180">
<ele>606.799988</ele>
<time>2025-10-17T16:36:54.347Z</time>
</trkpt>
<trkpt lat="31.7623860" lon="35.1399480">
<ele>607.000000</ele>
<time>2025-10-17T16:36:54.347Z</time>
</trkpt>
<trkpt lat="31.7623830" lon="35.1399780">
<ele>607.000000</ele>
<time>2025-10-17T16:36:54.347Z</time>
</trkpt>
<trkpt lat="31.7623830" lon="35.1400090">
<ele>607.600037</ele>
<time>2025-10-17T16:36:54.347Z</time>
</trkpt>
<trkpt lat="31.7623830" lon="35.1400410">
<ele>607.799988</ele>
<time>2025-10-17T16:36:54.347Z</time>
</trkpt>
<trkpt lat="31.7623860" lon="35.1400740">
<ele>608.000000</ele>
<time>2025-10-17T16:36:54.347Z</time>
</trkpt>
<trkpt lat="31.7623910" lon="35.1401090">
<ele>608.000000</ele>
<time>2025-10-17T16:36:54.347Z</time>
</trkpt>
<trkpt lat="31.7623960" lon="35.1401440">
<ele>608.400024</ele>
<time>2025-10-17T16:36:54.347Z</time>
</trkpt>
<trkpt lat="31.7623990" lon="35.1401770">
<ele>608.400024</ele>
<time>2025-10-17T16:36:54.347Z</time>
</trkpt>
<trkpt lat="31.7624040" lon="35.1402070">
<ele>608.599976</ele>
<time>2025-10-17T16:36:54.347Z</time>
</trkpt>
<trkpt lat="31.7624100" lon="35.1402370">
<ele>608.799988</ele>
<time>2025-10-17T16:36:54.347Z</time>
</trkpt>
<trkpt lat="31.7624140" lon="35.1402680">
<ele>608.799988</ele>
<time>2025-10-17T16:36:54.347Z</time>
</trkpt>
<trkpt lat="31.7624180" lon="35.1402990">
<ele>609.000000</ele>
<time>2025-10-17T16:36:54.347Z</time>
</trkpt>
<trkpt lat="31.7624190" lon="35.1403310">
<ele>609.000000</ele>
<time>2025-10-17T16:36:54.347Z</time>
</trkpt>
<trkpt lat="31.7624200" lon="35.1403620">
<ele>609.400024</ele>
<time>2025-10-17T16:36:54.347Z</time>
</trkpt>
<trkpt lat="31.7624250" lon="35.1403930">
<ele>609.599976</ele>
<time>2025-10-17T16:36:54.347Z</time>
</trkpt>
<trkpt lat="31.7624300" lon="35.1404230">
<ele>609.799988</ele>
<time>2025-10-17T16:36:54.347Z</time>
</trkpt>
<trkpt lat="31.7624360" lon="35.1404540">
<ele>609.799988</ele>
<time>2025-10-17T16:36:54.347Z</time>
</trkpt>
<trkpt lat="31.7624430" lon="35.1404850">
<ele>610.000000</ele>
<time>2025-10-17T16:36:54.347Z</time>
</trkpt>
<trkpt lat="31.7624460" lon="35.1405160">
<ele>610.200012</ele>
<time>2025-10-17T16:36:54.347Z</time>
</trkpt>
<trkpt lat="31.7624480" lon="35.1405480">
<ele>610.399963</ele>
<time>2025-10-17T16:36:54.348Z</time>
</trkpt>
<trkpt lat="31.7624530" lon="35.1405820">
<ele>610.600037</ele>
<time>2025-10-17T16:36:54.348Z</time>
</trkpt>
<trkpt lat="31.7624600" lon="35.1406170">
<ele>610.600037</ele>
<time>2025-10-17T16:36:54.348Z</time>
</trkpt>
<trkpt lat="31.7624630" lon="35.1406530">
<ele>610.799988</ele>
<time>2025-10-17T16:36:54.348Z</time>
</trkpt>
<trkpt lat="31.7624660" lon="35.1406870">
<ele>610.799988</ele>
<time>2025-10-17T16:36:54.348Z</time>
</trkpt>
<trkpt lat="31.7624710" lon="35.1407220">
<ele>611.000000</ele>
<time>2025-10-17T16:36:54.348Z</time>
</trkpt>
<trkpt lat="31.7624740" lon="35.1407550">
<ele>611.200012</ele>
<time>2025-10-17T16:36:54.348Z</time>
</trkpt>
<trkpt lat="31.7624740" lon="35.1407860">
<ele>611.400024</ele>
<time>2025-10-17T16:36:54.348Z</time>
</trkpt>
<trkpt lat="31.7624760" lon="35.1408160">
<ele>611.400024</ele>
<time>2025-10-17T16:36:54.348Z</time>
</trkpt>
<trkpt lat="31.7624800" lon="35.1408450">
<ele>611.400024</ele>
<time>2025-10-17T16:36:54.348Z</time>
</trkpt>
<trkpt lat="31.7624850" lon="35.1408730">
<ele>611.599976</ele>
<time>2025-10-17T16:36:54.348Z</time>
</trkpt>
<trkpt lat="31.7624880" lon="35.1409000">
<ele>611.599976</ele>
<time>2025-10-17T16:36:54.348Z</time>
</trkpt>
<trkpt lat="31.7624870" lon="35.1409290">
<ele>611.799988</ele>
<time>2025-10-17T16:36:54.348Z</time>
</trkpt>
<trkpt lat="31.7624860" lon="35.1409590">
<ele>611.799988</ele>
<time>2025-10-17T16:36:54.348Z</time>
</trkpt>
<trkpt lat="31.7624850" lon="35.1409890">
<ele>612.000000</ele>
<time>2025-10-17T16:36:54.348Z</time>
</trkpt>
<trkpt lat="31.7624870" lon="35.1410170">
<ele>612.200012</ele>
<time>2025-10-17T16:36:54.348Z</time>
</trkpt>
<trkpt lat="31.7624930" lon="35.1410470">
<ele>612.400024</ele>
<time>2025-10-17T16:36:54.348Z</time>
</trkpt>
<trkpt lat="31.7624990" lon="35.1410780">
<ele>612.599976</ele>
<time>2025-10-17T16:36:54.348Z</time>
</trkpt>
<trkpt lat="31.7625040" lon="35.1411090">
<ele>612.799988</ele>
<time>2025-10-17T16:36:54.348Z</time>
</trkpt>
<trkpt lat="31.7625090" lon="35.1411410">
<ele>613.000000</ele>
<time>2025-10-17T16:36:54.348Z</time>
</trkpt>
<trkpt lat="31.7625140" lon="35.1411720">
<ele>613.000000</ele>
<time>2025-10-17T16:36:54.348Z</time>
</trkpt>
<trkpt lat="31.7625180" lon="35.1412060">
<ele>613.200012</ele>
<time>2025-10-17T16:36:54.348Z</time>
</trkpt>
<trkpt lat="31.7625220" lon="35.1412390">
<ele>613.399963</ele>
<time>2025-10-17T16:36:54.348Z</time>
</trkpt>
<trkpt lat="31.7625270" lon="35.1412720">
<ele>613.799988</ele>
<time>2025-10-17T16:36:54.348Z</time>
</trkpt>
<trkpt lat="31.7625340" lon="35.1413040">
<ele>613.799988</ele>
<time>2025-10-17T16:36:54.348Z</time>
</trkpt>
<trkpt lat="31.7625410" lon="35.1413330">
<ele>614.000000</ele>
<time>2025-10-17T16:36:54.348Z</time>
</trkpt>
<trkpt lat="31.7625460" lon="35.1413640">
<ele>614.400024</ele>
<time>2025-10-17T16:36:54.348Z</time>
</trkpt>
<trkpt lat="31.7625490" lon="35.1413940">
<ele>614.799988</ele>
<time>2025-10-17T16:36:54.348Z</time>
</trkpt>
<trkpt lat="31.7625500" lon="35.1414230">
<ele>615.000000</ele>
<time>2025-10-17T16:36:54.349Z</time>
</trkpt>
<trkpt lat="31.7625510" lon="35.1414500">
<ele>615.200012</ele>
<time>2025-10-17T16:36:54.349Z</time>
</trkpt>
<trkpt lat="31.7625530" lon="35.1414750">
<ele>615.400024</ele>
<time>2025-10-17T16:36:54.349Z</time>
</trkpt>
<trkpt lat="31.7625570" lon="35.1415020">
<ele>615.799988</ele>
<time>2025-10-17T16:36:54.349Z</time>
</trkpt>
<trkpt lat="31.7625610" lon="35.1415280">
<ele>615.799988</ele>
<time>2025-10-17T16:36:54.349Z</time>
</trkpt>
<trkpt lat="31.7625660" lon="35.1415550">
<ele>616.200012</ele>
<time>2025-10-17T16:36:54.349Z</time>
</trkpt>
<trkpt lat="31.7625690" lon="35.1415810">
<ele>616.599976</ele>
<time>2025-10-17T16:36:54.349Z</time>
</trkpt>
<trkpt lat="31.7625720" lon="35.1416070">
<ele>616.799988</ele>
<time>2025-10-17T16:36:54.349Z</time>
</trkpt>
<trkpt lat="31.7625750" lon="35.1416320">
<ele>617.200012</ele>
<time>2025-10-17T16:36:54.349Z</time>
</trkpt>
<trkpt lat="31.7625770" lon="35.1416570">
<ele>617.400024</ele>
<time>2025-10-17T16:36:54.349Z</time>
</trkpt>
<trkpt lat="31.7625780" lon="35.1416820">
<ele>617.599976</ele>
<time>2025-10-17T16:36:54.349Z</time>
</trkpt>
<trkpt lat="31.7625810" lon="35.1417060">
<ele>617.599976</ele>
<time>2025-10-17T16:36:54.349Z</time>
</trkpt>
<trkpt lat="31.7625840" lon="35.1417300">
<ele>618.000000</ele>
<time>2025-10-17T16:36:54.349Z</time>
</trkpt>
<trkpt lat="31.7625900" lon="35.1417540">
<ele>618.000000</ele>
<time>2025-10-17T16:36:54.349Z</time>
</trkpt>
<trkpt lat="31.7625950" lon="35.1417780">
<ele>618.399963</ele>
<time>2025-10-17T16:36:54.349Z</time>
</trkpt>
<trkpt lat="31.7625990" lon="35.1418010">
<ele>618.399963</ele>
<time>2025-10-17T16:36:54.349Z</time>
</trkpt>
<trkpt lat="31.7626000" lon="35.1418240">
<ele>618.600037</ele>
<time>2025-10-17T16:36:54.349Z</time>
</trkpt>
<trkpt lat="31.7626010" lon="35.1418460">
<ele>618.799988</ele>
<time>2025-10-17T16:36:54.349Z</time>
</trkpt>
<trkpt lat="31.7626040" lon="35.1418690">
<ele>619.000000</ele>
<time>2025-10-17T16:36:54.349Z</time>
</trkpt>
<trkpt lat="31.7626080" lon="35.1418920">
<ele>619.400024</ele>
<time>2025-10-17T16:36:54.349Z</time>
</trkpt>
<trkpt lat="31.7626120" lon="35.1419140">
<ele>619.400024</ele>
<time>2025-10-17T16:36:54.349Z</time>
</trkpt>
<trkpt lat="31.7626140" lon="35.1419380">
<ele>619.599976</ele>
<time>2025-10-17T16:36:54.349Z</time>
</trkpt>
<trkpt lat="31.7626160" lon="35.1419610">
<ele>619.799988</ele>
<time>2025-10-17T16:36:54.349Z</time>
</trkpt>
<trkpt lat="31.7626170" lon="35.1419820">
<ele>620.000000</ele>
<time>2025-10-17T16:36:54.349Z</time>
</trkpt>
<trkpt lat="31.7626190" lon="35.1420020">
<ele>620.000000</ele>
<time>2025-10-17T16:36:54.349Z</time>
</trkpt>
<trkpt lat="31.7626240" lon="35.1420240">
<ele>620.200012</ele>
<time>2025-10-17T16:36:54.350Z</time>
</trkpt>
<trkpt lat="31.7626290" lon="35.1420450">
<ele>620.400024</ele>
<time>2025-10-17T16:36:54.350Z</time>
</trkpt>
<trkpt lat="31.7626340" lon="35.1420650">
<ele>620.599976</ele>
<time>2025-10-17T16:36:54.350Z</time>
</trkpt>
<trkpt lat="31.7626370" lon="35.1420850">
<ele>620.799988</ele>
<time>2025-10-17T16:36:54.350Z</time>
</trkpt>
<trkpt lat="31.7626380" lon="35.1421070">
<ele>620.799988</ele>
<time>2025-10-17T16:36:54.350Z</time>
</trkpt>
<trkpt lat="31.7626390" lon="35.1421300">
<ele>621.200012</ele>
<time>2025-10-17T16:36:54.350Z</time>
</trkpt>
<trkpt lat="31.7626400" lon="35.1421510">
<ele>621.200012</ele>
<time>2025-10-17T16:36:54.350Z</time>
</trkpt>
<trkpt lat="31.7626440" lon="35.1421730">
<ele>621.399963</ele>
<time>2025-10-17T16:36:54.350Z</time>
</trkpt>
<trkpt lat="31.7626470" lon="35.1421950">
<ele>621.600037</ele>
<time>2025-10-17T16:36:54.350Z</time>
</trkpt>
<trkpt lat="31.7626500" lon="35.1422170">
<ele>621.799988</ele>
<time>2025-10-17T16:36:54.350Z</time>
</trkpt>
<trkpt lat="31.7626530" lon="35.1422390">
<ele>621.799988</ele>
<time>2025-10-17T16:36:54.350Z</time>
</trkpt>
<trkpt lat="31.7626560" lon="35.1422620">
<ele>622.000000</ele>
<time>2025-10-17T16:36:54.350Z</time>
</trkpt>
<trkpt lat="31.7626580" lon="35.1422850">
<ele>622.200012</ele>
<time>2025-10-17T16:36:54.350Z</time>
</trkpt>
<trkpt lat="31.7626580" lon="35.1423080">
<ele>622.400024</ele>
<time>2025-10-17T16:36:54.350Z</time>
</trkpt>
<trkpt lat="31.7626590" lon="35.1423280">
<ele>622.400024</ele>
<time>2025-10-17T16:36:54.350Z</time>
</trkpt>
<trkpt lat="31.7626610" lon="35.1423480">
<ele>622.400024</ele>
<time>2025-10-17T16:36:54.350Z</time>
</trkpt>
<trkpt lat="31.7626640" lon="35.1423680">
<ele>622.599976</ele>
<time>2025-10-17T16:36:54.350Z</time>
</trkpt>
<trkpt lat="31.7626680" lon="35.1423900">
<ele>622.799988</ele>
<time>2025-10-17T16:36:54.350Z</time>
</trkpt>
<trkpt lat="31.7626700" lon="35.1424110">
<ele>623.000000</ele>
<time>2025-10-17T16:36:54.350Z</time>
</trkpt>
<trkpt lat="31.7626710" lon="35.1424330">
<ele>623.200012</ele>
<time>2025-10-17T16:36:54.350Z</time>
</trkpt>
<trkpt lat="31.7626710" lon="35.1424530">
<ele>623.400024</ele>
<time>2025-10-17T16:36:54.350Z</time>
</trkpt>
<trkpt lat="31.7626760" lon="35.1424760">
<ele>623.400024</ele>
<time>2025-10-17T16:36:54.350Z</time>
</trkpt>
<trkpt lat="31.7626830" lon="35.1424950">
<ele>623.599976</ele>
<time>2025-10-17T16:36:54.350Z</time>
</trkpt>
<trkpt lat="31.7626900" lon="35.1425130">
<ele>623.799988</ele>
<time>2025-10-17T16:36:54.350Z</time>
</trkpt>
<trkpt lat="31.7626920" lon="35.1425330">
<ele>623.799988</ele>
<time>2025-10-17T16:36:54.350Z</time>
</trkpt>
<trkpt lat="31.7626940" lon="35.1425550">
<ele>624.000000</ele>
<time>2025-10-17T16:36:54.350Z</time>
</trkpt>
<trkpt lat="31.7626960" lon="35.1425780">
<ele>624.200012</ele>
<time>2025-10-17T16:36:54.350Z</time>
</trkpt>
<trkpt lat="31.7626970" lon="35.1426010">
<ele>624.200012</ele>
<time>2025-10-17T16:36:54.350Z</time>
</trkpt>
<trkpt lat="31.7627000" lon="35.1426250">
<ele>624.399963</ele>
<time>2025-10-17T16:36:54.351Z</time>
</trkpt>
<trkpt lat="31.7627020" lon="35.1426460">
<ele>624.600037</ele>
<time>2025-10-17T16:36:54.351Z</time>
</trkpt>
<trkpt lat="31.7627020" lon="35.1426670">
<ele>624.600037</ele>
<time>2025-10-17T16:36:54.351Z</time>
</trkpt>
<trkpt lat="31.7627020" lon="35.1426880">
<ele>624.799988</ele>
<time>2025-10-17T16:36:54.351Z</time>
</trkpt>
<trkpt lat="31.7627060" lon="35.1427080">
<ele>625.000000</ele>
<time>2025-10-17T16:36:54.351Z</time>
</trkpt>
<trkpt lat="31.7627120" lon="35.1427280">
<ele>625.399963</ele>
<time>2025-10-17T16:36:54.351Z</time>
</trkpt>
<trkpt lat="31.7627180" lon="35.1427500">
<ele>625.599976</ele>
<time>2025-10-17T16:36:54.351Z</time>
</trkpt>
<trkpt lat="31.7627220" lon="35.1427700">
<ele>625.599976</ele>
<time>2025-10-17T16:36:54.351Z</time>
</trkpt>
<trkpt lat="31.7627260" lon="35.1427920">
<ele>625.799988</ele>
<time>2025-10-17T16:36:54.351Z</time>
</trkpt>
<trkpt lat="31.7627290" lon="35.1428130">
<ele>625.799988</ele>
<time>2025-10-17T16:36:54.351Z</time>
</trkpt>
<trkpt lat="31.7627340" lon="35.1428350">
<ele>626.200012</ele>
<time>2025-10-17T16:36:54.351Z</time>
</trkpt>
<trkpt lat="31.7627400" lon="35.1428550">
<ele>626.200012</ele>
<time>2025-10-17T16:36:54.351Z</time>
</trkpt>
<trkpt lat="31.7627450" lon="35.1428760">
<ele>626.400024</ele>
<time>2025-10-17T16:36:54.351Z</time>
</trkpt>
<trkpt lat="31.7627470" lon="35.1428960">
<ele>626.599976</ele>
<time>2025-10-17T16:36:54.351Z</time>
</trkpt>
<trkpt lat="31.7627500" lon="35.1429170">
<ele>626.799988</ele>
<time>2025-10-17T16:36:54.351Z</time>
</trkpt>
<trkpt lat="31.7627530" lon="35.1429380">
<ele>627.000000</ele>
<time>2025-10-17T16:36:54.351Z</time>
</trkpt>
<trkpt lat="31.7627580" lon="35.1429590">
<ele>627.199951</ele>
<time>2025-10-17T16:36:54.351Z</time>
</trkpt>
<trkpt lat="31.7627640" lon="35.1429800">
<ele>627.399963</ele>
<time>2025-10-17T16:36:54.351Z</time>
</trkpt>
<trkpt lat="31.7627700" lon="35.1430010">
<ele>627.399963</ele>
<time>2025-10-17T16:36:54.351Z</time>
</trkpt>
<trkpt lat="31.7627750" lon="35.1430230">
<ele>627.600037</ele>
<time>2025-10-17T16:36:54.351Z</time>
</trkpt>
<trkpt lat="31.7627810" lon="35.1430450">
<ele>627.600037</ele>
<time>2025-10-17T16:36:54.351Z</time>
</trkpt>
<trkpt lat="31.7627860" lon="35.1430690">
<ele>628.000000</ele>
<time>2025-10-17T16:36:54.351Z</time>
</trkpt>
<trkpt lat="31.7627880" lon="35.1430910">
<ele>628.000000</ele>
<time>2025-10-17T16:36:54.351Z</time>
</trkpt>
<trkpt lat="31.7627910" lon="35.1431120">
<ele>628.200012</ele>
<time>2025-10-17T16:36:54.351Z</time>
</trkpt>
<trkpt lat="31.7627950" lon="35.1431320">
<ele>628.200012</ele>
<time>2025-10-17T16:36:54.351Z</time>
</trkpt>
<trkpt lat="31.7628010" lon="35.1431510">
<ele>628.399963</ele>
<time>2025-10-17T16:36:54.351Z</time>
</trkpt>
<trkpt lat="31.7628080" lon="35.1431710">
<ele>628.599976</ele>
<time>2025-10-17T16:36:54.352Z</time>
</trkpt>
<trkpt lat="31.7628130" lon="35.1431900">
<ele>628.599976</ele>
<time>2025-10-17T16:36:54.352Z</time>
</trkpt>
<trkpt lat="31.7628180" lon="35.1432110">
<ele>628.800049</ele>
<time>2025-10-17T16:36:54.352Z</time>
</trkpt>
<trkpt lat="31.7628250" lon="35.1432300">
<ele>628.800049</ele>
<time>2025-10-17T16:36:54.352Z</time>
</trkpt>
<trkpt lat="31.7628340" lon="35.1432490">
<ele>629.200012</ele>
<time>2025-10-17T16:36:54.352Z</time>
</trkpt>
<trkpt lat="31.7628440" lon="35.1432670">
<ele>629.200012</ele>
<time>2025-10-17T16:36:54.352Z</time>
</trkpt>
<trkpt lat="31.7628530" lon="35.1432870">
<ele>629.400024</ele>
<time>2025-10-17T16:36:54.352Z</time>
</trkpt>
<trkpt lat="31.7628630" lon="35.1433050">
<ele>629.599976</ele>
<time>2025-10-17T16:36:54.352Z</time>
</trkpt>
<trkpt lat="31.7628710" lon="35.1433240">
<ele>629.799988</ele>
<time>2025-10-17T16:36:54.352Z</time>
</trkpt>
<trkpt lat="31.7628790" lon="35.1433430">
<ele>629.799988</ele>
<time>2025-10-17T16:36:54.352Z</time>
</trkpt>
<trkpt lat="31.7628850" lon="35.1433620">
<ele>630.199951</ele>
<time>2025-10-17T16:36:54.352Z</time>
</trkpt>
<trkpt lat="31.7628930" lon="35.1433850">
<ele>630.400024</ele>
<time>2025-10-17T16:36:54.352Z</time>
</trkpt>
<trkpt lat="31.7629030" lon="35.1434050">
<ele>630.400024</ele>
<time>2025-10-17T16:36:54.352Z</time>
</trkpt>
<trkpt lat="31.7629120" lon="35.1434240">
<ele>630.600037</ele>
<time>2025-10-17T16:36:54.352Z</time>
</trkpt>
<trkpt lat="31.7629230" lon="35.1434440">
<ele>630.799988</ele>
<time>2025-10-17T16:36:54.352Z</time>
</trkpt>
<trkpt lat="31.7629360" lon="35.1434630">
<ele>631.000000</ele>
<time>2025-10-17T16:36:54.352Z</time>
</trkpt>
<trkpt lat="31.7629500" lon="35.1434820">
<ele>631.200012</ele>
<time>2025-10-17T16:36:54.352Z</time>
</trkpt>
<trkpt lat="31.7629620" lon="35.1435010">
<ele>631.399963</ele>
<time>2025-10-17T16:36:54.352Z</time>
</trkpt>
<trkpt lat="31.7629700" lon="35.1435220">
<ele>631.599976</ele>
<time>2025-10-17T16:36:54.352Z</time>
</trkpt>
<trkpt lat="31.7629770" lon="35.1435440">
<ele>631.800049</ele>
<time>2025-10-17T16:36:54.352Z</time>
</trkpt>
<trkpt lat="31.7629840" lon="35.1435660">
<ele>632.000000</ele>
<time>2025-10-17T16:36:54.352Z</time>
</trkpt>
<trkpt lat="31.7629930" lon="35.1435870">
<ele>632.200012</ele>
<time>2025-10-17T16:36:54.352Z</time>
</trkpt>
<trkpt lat="31.7630020" lon="35.1436070">
<ele>632.400024</ele>
<time>2025-10-17T16:36:54.352Z</time>
</trkpt>
<trkpt lat="31.7630120" lon="35.1436290">
<ele>632.400024</ele>
<time>2025-10-17T16:36:54.352Z</time>
</trkpt>
<trkpt lat="31.7630210" lon="35.1436500">
<ele>632.599976</ele>
<time>2025-10-17T16:36:54.352Z</time>
</trkpt>
<trkpt lat="31.7630310" lon="35.1436690">
<ele>632.599976</ele>
<time>2025-10-17T16:36:54.352Z</time>
</trkpt>
<trkpt lat="31.7630390" lon="35.1436860">
<ele>632.799988</ele>
<time>2025-10-17T16:36:54.352Z</time>
</trkpt>
<trkpt lat="31.7630480" lon="35.1437070">
<ele>633.000000</ele>
<time>2025-10-17T16:36:54.353Z</time>
</trkpt>
<trkpt lat="31.7630540" lon="35.1437280">
<ele>633.199951</ele>
<time>2025-10-17T16:36:54.353Z</time>
</trkpt>
<trkpt lat="31.7630600" lon="35.1437490">
<ele>633.199951</ele>
<time>2025-10-17T16:36:54.353Z</time>
</trkpt>
<trkpt lat="31.7630680" lon="35.1437680">
<ele>633.600037</ele>
<time>2025-10-17T16:36:54.353Z</time>
</trkpt>
<trkpt lat="31.7630760" lon="35.1437900">
<ele>633.799988</ele>
<time>2025-10-17T16:36:54.353Z</time>
</trkpt>
<trkpt lat="31.7630830" lon="35.1438150">
<ele>634.000000</ele>
<time>2025-10-17T16:36:54.353Z</time>
</trkpt>
<trkpt lat="31.7630940" lon="35.1438390">
<ele>634.200012</ele>
<time>2025-10-17T16:36:54.353Z</time>
</trkpt>
<trkpt lat="31.7631050" lon="35.1438620">
<ele>634.200012</ele>
<time>2025-10-17T16:36:54.353Z</time>
</trkpt>
<trkpt lat="31.7631170" lon="35.1438860">
<ele>634.399963</ele>
<time>2025-10-17T16:36:54.353Z</time>
</trkpt>
<trkpt lat="31.7631250" lon="35.1439140">
<ele>634.399963</ele>
<time>2025-10-17T16:36:54.353Z</time>
</trkpt>
<trkpt lat="31.7631360" lon="35.1439420">
<ele>634.800049</ele>
<time>2025-10-17T16:36:54.353Z</time>
</trkpt>
<trkpt lat="31.7631470" lon="35.1439700">
<ele>634.800049</ele>
<time>2025-10-17T16:36:54.353Z</time>
</trkpt>
<trkpt lat="31.7631590" lon="35.1439960">
<ele>635.200012</ele>
<time>2025-10-17T16:36:54.353Z</time>
</trkpt>
<trkpt lat="31.7631720" lon="35.1440190">
<ele>635.400024</ele>
<time>2025-10-17T16:36:54.353Z</time>
</trkpt>
<trkpt lat="31.7631830" lon="35.1440400">
<ele>635.599976</ele>
<time>2025-10-17T16:36:54.353Z</time>
</trkpt>
<trkpt lat="31.7631910" lon="35.1440600">
<ele>636.000000</ele>
<time>2025-10-17T16:36:54.353Z</time>
</trkpt>
<trkpt lat="31.7631990" lon="35.1440780">
<ele>636.000000</ele>
<time>2025-10-17T16:36:54.353Z</time>
</trkpt>
<trkpt lat="31.7632090" lon="35.1440960">
<ele>636.199951</ele>
<time>2025-10-17T16:36:54.353Z</time>
</trkpt>
<trkpt lat="31.7632170" lon="35.1441130">
<ele>636.400024</ele>
<time>2025-10-17T16:36:54.353Z</time>
</trkpt>
<trkpt lat="31.7632230" lon="35.1441310">
<ele>636.600037</ele>
<time>2025-10-17T16:36:54.353Z</time>
</trkpt>
<trkpt lat="31.7632310" lon="35.1441500">
<ele>636.799988</ele>
<time>2025-10-17T16:36:54.353Z</time>
</trkpt>
<trkpt lat="31.7632420" lon="35.1441680">
<ele>637.200012</ele>
<time>2025-10-17T16:36:54.353Z</time>
</trkpt>
<trkpt lat="31.7632500" lon="35.1441870">
<ele>637.399963</ele>
<time>2025-10-17T16:36:54.353Z</time>
</trkpt>
<trkpt lat="31.7632560" lon="35.1442030">
<ele>637.599976</ele>
<time>2025-10-17T16:36:54.354Z</time>
</trkpt>
<trkpt lat="31.7632610" lon="35.1442210">
<ele>637.599976</ele>
<time>2025-10-17T16:36:54.354Z</time>
</trkpt>
<trkpt lat="31.7632700" lon="35.1442390">
<ele>637.800049</ele>
<time>2025-10-17T16:36:54.354Z</time>
</trkpt>
<trkpt lat="31.7632810" lon="35.1442560">
<ele>638.000000</ele>
<time>2025-10-17T16:36:54.354Z</time>
</trkpt>
<trkpt lat="31.7632910" lon="35.1442720">
<ele>638.000000</ele>
<time>2025-10-17T16:36:54.354Z</time>
</trkpt>
<trkpt lat="31.7633000" lon="35.1442900">
<ele>638.200012</ele>
<time>2025-10-17T16:36:54.354Z</time>
</trkpt>
<trkpt lat="31.7633090" lon="35.1443060">
<ele>638.200012</ele>
<time>2025-10-17T16:36:54.354Z</time>
</trkpt>
<trkpt lat="31.7633180" lon="35.1443260">
<ele>638.599976</ele>
<time>2025-10-17T16:36:54.354Z</time>
</trkpt>
<trkpt lat="31.7633240" lon="35.1443500">
<ele>638.799988</ele>
<time>2025-10-17T16:36:54.354Z</time>
</trkpt>
<trkpt lat="31.7633320" lon="35.1443730">
<ele>639.000000</ele>
<time>2025-10-17T16:36:54.354Z</time>
</trkpt>
<trkpt lat="31.7633440" lon="35.1443930">
<ele>639.000000</ele>
<time>2025-10-17T16:36:54.354Z</time>
</trkpt>
<trkpt lat="31.7633570" lon="35.1444110">
<ele>639.199951</ele>
<time>2025-10-17T16:36:54.354Z</time>
</trkpt>
<trkpt lat="31.7633710" lon="35.1444300">
<ele>639.199951</ele>
<time>2025-10-17T16:36:54.354Z</time>
</trkpt>
<trkpt lat="31.7633820" lon="35.1444500">
<ele>639.400024</ele>
<time>2025-10-17T16:36:54.354Z</time>
</trkpt>
<trkpt lat="31.7633910" lon="35.1444700">
<ele>639.600037</ele>
<time>2025-10-17T16:36:54.354Z</time>
</trkpt>
<trkpt lat="31.7634010" lon="35.1444900">
<ele>639.799988</ele>
<time>2025-10-17T16:36:54.354Z</time>
</trkpt>
<trkpt lat="31.7634100" lon="35.1445100">
<ele>639.799988</ele>
<time>2025-10-17T16:36:54.354Z</time>
</trkpt>
<trkpt lat="31.7634180" lon="35.1445280">
<ele>640.000000</ele>
<time>2025-10-17T16:36:54.354Z</time>
</trkpt>
<trkpt lat="31.7634280" lon="35.1445460">
<ele>640.000000</ele>
<time>2025-10-17T16:36:54.354Z</time>
</trkpt>
<trkpt lat="31.7634360" lon="35.1445650">
<ele>640.200012</ele>
<time>2025-10-17T16:36:54.354Z</time>
</trkpt>
<trkpt lat="31.7634430" lon="35.1445850">
<ele>640.399963</ele>
<time>2025-10-17T16:36:54.354Z</time>
</trkpt>
<trkpt lat="31.7634500" lon="35.1446050">
<ele>640.399963</ele>
<time>2025-10-17T16:36:54.354Z</time>
</trkpt>
<trkpt lat="31.7634590" lon="35.1446260">
<ele>640.800049</ele>
<time>2025-10-17T16:36:54.354Z</time>
</trkpt>
<trkpt lat="31.7634670" lon="35.1446480">
<ele>640.800049</ele>
<time>2025-10-17T16:36:54.354Z</time>
</trkpt>
<trkpt lat="31.7634790" lon="35.1446690">
<ele>641.000000</ele>
<time>2025-10-17T16:36:54.354Z</time>
</trkpt>
<trkpt lat="31.7634890" lon="35.1446900">
<ele>641.200012</ele>
<time>2025-10-17T16:36:54.354Z</time>
</trkpt>
<trkpt lat="31.7634970" lon="35.1447100">
<ele>641.400024</ele>
<time>2025-10-17T16:36:54.354Z</time>
</trkpt>
<trkpt lat="31.7635050" lon="35.1447300">
<ele>641.599976</ele>
<time>2025-10-17T16:36:54.355Z</time>
</trkpt>
<trkpt lat="31.7635150" lon="35.1447490">
<ele>641.799988</ele>
<time>2025-10-17T16:36:54.355Z</time>
</trkpt>
<trkpt lat="31.7635250" lon="35.1447620">
<ele>642.200012</ele>
<time>2025-10-17T16:36:54.355Z</time>
</trkpt>
<trkpt lat="31.7635400" lon="35.1447650">
<ele>642.200012</ele>
<time>2025-10-17T16:36:54.355Z</time>
</trkpt>
<trkpt lat="31.7635560" lon="35.1447640">
<ele>642.400024</ele>
<time>2025-10-17T16:36:54.355Z</time>
</trkpt>
<trkpt lat="31.7635720" lon="35.1447630">
<ele>642.600037</ele>
<time>2025-10-17T16:36:54.355Z</time>
</trkpt>
<trkpt lat="31.7635840" lon="35.1447640">
<ele>642.600037</ele>
<time>2025-10-17T16:36:54.355Z</time>
</trkpt>
<trkpt lat="31.7635870" lon="35.1447650">
<ele>642.799988</ele>
<time>2025-10-17T16:36:54.355Z</time>
</trkpt>
<trkpt lat="31.7635870" lon="35.1447650">
<ele>642.799988</ele>
<time>2025-10-17T16:36:54.355Z</time>
</trkpt>
<trkpt lat="31.7635870" lon="35.1447650">
<ele>642.799988</ele>
<time>2025-10-17T16:36:54.355Z</time>
</trkpt>
<trkpt lat="31.7636160" lon="35.1448820">
<ele>643.800049</ele>
<time>2025-10-17T16:36:54.355Z</time>
</trkpt>
<trkpt lat="31.7636200" lon="35.1449030">
<ele>643.800049</ele>
<time>2025-10-17T16:36:54.355Z</time>
</trkpt>
<trkpt lat="31.7636330" lon="35.1449420">
<ele>644.000000</ele>
<time>2025-10-17T16:36:54.355Z</time>
</trkpt>
<trkpt lat="31.7636380" lon="35.1449660">
<ele>644.000000</ele>
<time>2025-10-17T16:36:54.355Z</time>
</trkpt>
<trkpt lat="31.7636620" lon="35.1451210">
<ele>645.000061</ele>
<time>2025-10-17T16:36:54.355Z</time>
</trkpt>
<trkpt lat="31.7637000" lon="35.1452530">
<ele>645.799988</ele>
<time>2025-10-17T16:36:54.355Z</time>
</trkpt>
<trkpt lat="31.7637120" lon="35.1452970">
<ele>646.200012</ele>
<time>2025-10-17T16:36:54.355Z</time>
</trkpt>
<trkpt lat="31.7637510" lon="35.1454400">
<ele>647.200012</ele>
<time>2025-10-17T16:36:54.355Z</time>
</trkpt>
<trkpt lat="31.7637590" lon="35.1454640">
<ele>647.400024</ele>
<time>2025-10-17T16:36:54.355Z</time>
</trkpt>
<trkpt lat="31.7637640" lon="35.1454880">
<ele>647.599976</ele>
<time>2025-10-17T16:36:54.355Z</time>
</trkpt>
<trkpt lat="31.7637720" lon="35.1455160">
<ele>647.799988</ele>
<time>2025-10-17T16:36:54.355Z</time>
</trkpt>
<trkpt lat="31.7637780" lon="35.1455340">
<ele>647.799988</ele>
<time>2025-10-17T16:36:54.355Z</time>
</trkpt>
<trkpt lat="31.7637820" lon="35.1455560">
<ele>647.999939</ele>
<time>2025-10-17T16:36:54.355Z</time>
</trkpt>
<trkpt lat="31.7637810" lon="35.1455810">
<ele>648.200012</ele>
<time>2025-10-17T16:36:54.356Z</time>
</trkpt>
<trkpt lat="31.7637860" lon="35.1456110">
<ele>648.400024</ele>
<time>2025-10-17T16:36:54.356Z</time>
</trkpt>
<trkpt lat="31.7637940" lon="35.1456440">
<ele>648.400024</ele>
<time>2025-10-17T16:36:54.356Z</time>
</trkpt>
<trkpt lat="31.7638000" lon="35.1456690">
<ele>648.599976</ele>
<time>2025-10-17T16:36:54.356Z</time>
</trkpt>
<trkpt lat="31.7638030" lon="35.1456910">
<ele>648.799988</ele>
<time>2025-10-17T16:36:54.356Z</time>
</trkpt>
<trkpt lat="31.7638050" lon="35.1457180">
<ele>648.799988</ele>
<time>2025-10-17T16:36:54.356Z</time>
</trkpt>
<trkpt lat="31.7638080" lon="35.1457460">
<ele>649.399963</ele>
<time>2025-10-17T16:36:54.356Z</time>
</trkpt>
<trkpt lat="31.7638130" lon="35.1457720">
<ele>649.399963</ele>
<time>2025-10-17T16:36:54.356Z</time>
</trkpt>
<trkpt lat="31.7638200" lon="35.1457960">
<ele>649.799988</ele>
<time>2025-10-17T16:36:54.356Z</time>
</trkpt>
<trkpt lat="31.7638250" lon="35.1458200">
<ele>650.000000</ele>
<time>2025-10-17T16:36:54.356Z</time>
</trkpt>
<trkpt lat="31.7638300" lon="35.1458450">
<ele>650.200012</ele>
<time>2025-10-17T16:36:54.356Z</time>
</trkpt>
<trkpt lat="31.7638350" lon="35.1458680">
<ele>650.599976</ele>
<time>2025-10-17T16:36:54.356Z</time>
</trkpt>
<trkpt lat="31.7638370" lon="35.1458910">
<ele>650.799988</ele>
<time>2025-10-17T16:36:54.356Z</time>
</trkpt>
<trkpt lat="31.7638350" lon="35.1459140">
<ele>650.999939</ele>
<time>2025-10-17T16:36:54.356Z</time>
</trkpt>
<trkpt lat="31.7638330" lon="35.1459380">
<ele>650.999939</ele>
<time>2025-10-17T16:36:54.356Z</time>
</trkpt>
<trkpt lat="31.7638330" lon="35.1459640">
<ele>651.400024</ele>
<time>2025-10-17T16:36:54.356Z</time>
</trkpt>
<trkpt lat="31.7638340" lon="35.1459940">
<ele>651.599976</ele>
<time>2025-10-17T16:36:54.356Z</time>
</trkpt>
<trkpt lat="31.7638340" lon="35.1460180">
<ele>651.799988</ele>
<time>2025-10-17T16:36:54.356Z</time>
</trkpt>
<trkpt lat="31.7638350" lon="35.1460430">
<ele>652.000000</ele>
<time>2025-10-17T16:36:54.356Z</time>
</trkpt>
<trkpt lat="31.7638340" lon="35.1460620">
<ele>652.399963</ele>
<time>2025-10-17T16:36:54.356Z</time>
</trkpt>
<trkpt lat="31.7638310" lon="35.1460890">
<ele>652.399963</ele>
<time>2025-10-17T16:36:54.356Z</time>
</trkpt>
<trkpt lat="31.7638290" lon="35.1461050">
<ele>652.600037</ele>
<time>2025-10-17T16:36:54.356Z</time>
</trkpt>
<trkpt lat="31.7638280" lon="35.1461320">
<ele>652.799988</ele>
<time>2025-10-17T16:36:54.356Z</time>
</trkpt>
<trkpt lat="31.7638280" lon="35.1461520">
<ele>652.799988</ele>
<time>2025-10-17T16:36:54.356Z</time>
</trkpt>
<trkpt lat="31.7638270" lon="35.1461760">
<ele>653.000000</ele>
<time>2025-10-17T16:36:54.356Z</time>
</trkpt>
<trkpt lat="31.7638250" lon="35.1462040">
<ele>653.000000</ele>
<time>2025-10-17T16:36:54.356Z</time>
</trkpt>
<trkpt lat="31.7638270" lon="35.1462280">
<ele>653.399963</ele>
<time>2025-10-17T16:36:54.356Z</time>
</trkpt>
<trkpt lat="31.7638240" lon="35.1462460">
<ele>653.399963</ele>
<time>2025-10-17T16:36:54.356Z</time>
</trkpt>
<trkpt lat="31.7638200" lon="35.1462680">
<ele>653.599976</ele>
<time>2025-10-17T16:36:54.357Z</time>
</trkpt>
<trkpt lat="31.7638150" lon="35.1462930">
<ele>653.800049</ele>
<time>2025-10-17T16:36:54.357Z</time>
</trkpt>
<trkpt lat="31.7638090" lon="35.1463200">
<ele>653.999939</ele>
<time>2025-10-17T16:36:54.357Z</time>
</trkpt>
<trkpt lat="31.7638030" lon="35.1463420">
<ele>654.200012</ele>
<time>2025-10-17T16:36:54.357Z</time>
</trkpt>
<trkpt lat="31.7637970" lon="35.1463650">
<ele>654.400024</ele>
<time>2025-10-17T16:36:54.357Z</time>
</trkpt>
<trkpt lat="31.7637930" lon="35.1463810">
<ele>654.599976</ele>
<time>2025-10-17T16:36:54.357Z</time>
</trkpt>
<trkpt lat="31.7637860" lon="35.1464020">
<ele>654.599976</ele>
<time>2025-10-17T16:36:54.357Z</time>
</trkpt>
<trkpt lat="31.7637810" lon="35.1464250">
<ele>654.799988</ele>
<time>2025-10-17T16:36:54.357Z</time>
</trkpt>
<trkpt lat="31.7637770" lon="35.1464470">
<ele>655.000000</ele>
<time>2025-10-17T16:36:54.357Z</time>
</trkpt>
<trkpt lat="31.7637700" lon="35.1464670">
<ele>655.199951</ele>
<time>2025-10-17T16:36:54.357Z</time>
</trkpt>
<trkpt lat="31.7637630" lon="35.1464880">
<ele>655.400024</ele>
<time>2025-10-17T16:36:54.357Z</time>
</trkpt>
<trkpt lat="31.7637560" lon="35.1465080">
<ele>655.400024</ele>
<time>2025-10-17T16:36:54.357Z</time>
</trkpt>
<trkpt lat="31.7637470" lon="35.1465280">
<ele>655.600037</ele>
<time>2025-10-17T16:36:54.357Z</time>
</trkpt>
<trkpt lat="31.7637400" lon="35.1465490">
<ele>655.799988</ele>
<time>2025-10-17T16:36:54.357Z</time>
</trkpt>
<trkpt lat="31.7637320" lon="35.1465670">
<ele>656.000000</ele>
<time>2025-10-17T16:36:54.357Z</time>
</trkpt>
<trkpt lat="31.7637250" lon="35.1465860">
<ele>656.200012</ele>
<time>2025-10-17T16:36:54.357Z</time>
</trkpt>
<trkpt lat="31.7637190" lon="35.1466070">
<ele>656.200012</ele>
<time>2025-10-17T16:36:54.357Z</time>
</trkpt>
<trkpt lat="31.7637130" lon="35.1466270">
<ele>656.399963</ele>
<time>2025-10-17T16:36:54.357Z</time>
</trkpt>
<trkpt lat="31.7637060" lon="35.1466510">
<ele>656.599976</ele>
<time>2025-10-17T16:36:54.357Z</time>
</trkpt>
<trkpt lat="31.7637020" lon="35.1466680">
<ele>656.800049</ele>
<time>2025-10-17T16:36:54.357Z</time>
</trkpt>
<trkpt lat="31.7636970" lon="35.1466880">
<ele>657.000000</ele>
<time>2025-10-17T16:36:54.357Z</time>
</trkpt>
<trkpt lat="31.7636910" lon="35.1467140">
<ele>657.000000</ele>
<time>2025-10-17T16:36:54.357Z</time>
</trkpt>
<trkpt lat="31.7636820" lon="35.1467340">
<ele>657.200012</ele>
<time>2025-10-17T16:36:54.358Z</time>
</trkpt>
<trkpt lat="31.7636740" lon="35.1467520">
<ele>657.200012</ele>
<time>2025-10-17T16:36:54.358Z</time>
</trkpt>
<trkpt lat="31.7636690" lon="35.1467690">
<ele>657.599976</ele>
<time>2025-10-17T16:36:54.358Z</time>
</trkpt>
<trkpt lat="31.7636630" lon="35.1467890">
<ele>658.000000</ele>
<time>2025-10-17T16:36:54.358Z</time>
</trkpt>
<trkpt lat="31.7636560" lon="35.1468110">
<ele>658.000000</ele>
<time>2025-10-17T16:36:54.358Z</time>
</trkpt>
<trkpt lat="31.7636520" lon="35.1468270">
<ele>658.199951</ele>
<time>2025-10-17T16:36:54.358Z</time>
</trkpt>
<trkpt lat="31.7636470" lon="35.1468430">
<ele>658.400024</ele>
<time>2025-10-17T16:36:54.358Z</time>
</trkpt>
<trkpt lat="31.7636410" lon="35.1468570">
<ele>658.400024</ele>
<time>2025-10-17T16:36:54.358Z</time>
</trkpt>
<trkpt lat="31.7636340" lon="35.1468780">
<ele>658.600037</ele>
<time>2025-10-17T16:36:54.358Z</time>
</trkpt>
<trkpt lat="31.7636290" lon="35.1469000">
<ele>658.600037</ele>
<time>2025-10-17T16:36:54.358Z</time>
</trkpt>
<trkpt lat="31.7636220" lon="35.1469200">
<ele>658.799988</ele>
<time>2025-10-17T16:36:54.358Z</time>
</trkpt>
<trkpt lat="31.7636140" lon="35.1469380">
<ele>659.200012</ele>
<time>2025-10-17T16:36:54.358Z</time>
</trkpt>
<trkpt lat="31.7636080" lon="35.1469570">
<ele>659.200012</ele>
<time>2025-10-17T16:36:54.358Z</time>
</trkpt>
<trkpt lat="31.7636050" lon="35.1469770">
<ele>659.399963</ele>
<time>2025-10-17T16:36:54.358Z</time>
</trkpt>
<trkpt lat="31.7636010" lon="35.1469960">
<ele>659.599976</ele>
<time>2025-10-17T16:36:54.358Z</time>
</trkpt>
<trkpt lat="31.7635950" lon="35.1470200">
<ele>660.000000</ele>
<time>2025-10-17T16:36:54.358Z</time>
</trkpt>
<trkpt lat="31.7635910" lon="35.1470390">
<ele>660.200012</ele>
<time>2025-10-17T16:36:54.358Z</time>
</trkpt>
<trkpt lat="31.7635860" lon="35.1470520">
<ele>660.400024</ele>
<time>2025-10-17T16:36:54.359Z</time>
</trkpt>
<trkpt lat="31.7635790" lon="35.1470680">
<ele>660.599976</ele>
<time>2025-10-17T16:36:54.359Z</time>
</trkpt>
<trkpt lat="31.7635720" lon="35.1470870">
<ele>660.799988</ele>
<time>2025-10-17T16:36:54.359Z</time>
</trkpt>
<trkpt lat="31.7635670" lon="35.1471040">
<ele>661.000000</ele>
<time>2025-10-17T16:36:54.359Z</time>
</trkpt>
<trkpt lat="31.7635620" lon="35.1471190">
<ele>661.000000</ele>
<time>2025-10-17T16:36:54.359Z</time>
</trkpt>
<trkpt lat="31.7635570" lon="35.1471340">
<ele>661.400024</ele>
<time>2025-10-17T16:36:54.359Z</time>
</trkpt>
<trkpt lat="31.7635510" lon="35.1471520">
<ele>661.400024</ele>
<time>2025-10-17T16:36:54.359Z</time>
</trkpt>
<trkpt lat="31.7635450" lon="35.1471690">
<ele>661.600037</ele>
<time>2025-10-17T16:36:54.359Z</time>
</trkpt>
<trkpt lat="31.7635390" lon="35.1471910">
<ele>661.799988</ele>
<time>2025-10-17T16:36:54.359Z</time>
</trkpt>
<trkpt lat="31.7635360" lon="35.1472050">
<ele>661.799988</ele>
<time>2025-10-17T16:36:54.359Z</time>
</trkpt>
<trkpt lat="31.7635320" lon="35.1472220">
<ele>662.000000</ele>
<time>2025-10-17T16:36:54.359Z</time>
</trkpt>
<trkpt lat="31.7635240" lon="35.1472420">
<ele>662.200012</ele>
<time>2025-10-17T16:36:54.360Z</time>
</trkpt>
<trkpt lat="31.7635180" lon="35.1472580">
<ele>662.399963</ele>
<time>2025-10-17T16:36:54.360Z</time>
</trkpt>
<trkpt lat="31.7635130" lon="35.1472750">
<ele>662.599976</ele>
<time>2025-10-17T16:36:54.360Z</time>
</trkpt>
<trkpt lat="31.7635080" lon="35.1472890">
<ele>662.800049</ele>
<time>2025-10-17T16:36:54.360Z</time>
</trkpt>
<trkpt lat="31.7635000" lon="35.1473030">
<ele>663.000000</ele>
<time>2025-10-17T16:36:54.360Z</time>
</trkpt>
<trkpt lat="31.7634940" lon="35.1473230">
<ele>663.200012</ele>
<time>2025-10-17T16:36:54.360Z</time>
</trkpt>
<trkpt lat="31.7634900" lon="35.1473370">
<ele>663.400024</ele>
<time>2025-10-17T16:36:54.360Z</time>
</trkpt>
<trkpt lat="31.7634820" lon="35.1473570">
<ele>663.599976</ele>
<time>2025-10-17T16:36:54.360Z</time>
</trkpt>
<trkpt lat="31.7634770" lon="35.1473700">
<ele>663.599976</ele>
<time>2025-10-17T16:36:54.360Z</time>
</trkpt>
<trkpt lat="31.7634710" lon="35.1473890">
<ele>663.799988</ele>
<time>2025-10-17T16:36:54.360Z</time>
</trkpt>
<trkpt lat="31.7634650" lon="35.1474090">
<ele>664.000000</ele>
<time>2025-10-17T16:36:54.360Z</time>
</trkpt>
<trkpt lat="31.7634590" lon="35.1474280">
<ele>664.199951</ele>
<time>2025-10-17T16:36:54.360Z</time>
</trkpt>
<trkpt lat="31.7634510" lon="35.1474490">
<ele>664.400024</ele>
<time>2025-10-17T16:36:54.360Z</time>
</trkpt>
<trkpt lat="31.7634480" lon="35.1474650">
<ele>664.400024</ele>
<time>2025-10-17T16:36:54.360Z</time>
</trkpt>
<trkpt lat="31.7634430" lon="35.1474850">
<ele>664.600037</ele>
<time>2025-10-17T16:36:54.360Z</time>
</trkpt>
<trkpt lat="31.7634350" lon="35.1475100">
<ele>664.799988</ele>
<time>2025-10-17T16:36:54.360Z</time>
</trkpt>
<trkpt lat="31.7634270" lon="35.1475300">
<ele>664.799988</ele>
<time>2025-10-17T16:36:54.360Z</time>
</trkpt>
<trkpt lat="31.7634190" lon="35.1475470">
<ele>665.200012</ele>
<time>2025-10-17T16:36:54.361Z</time>
</trkpt>
<trkpt lat="31.7634130" lon="35.1475620">
<ele>665.200012</ele>
<time>2025-10-17T16:36:54.361Z</time>
</trkpt>
<trkpt lat="31.7634070" lon="35.1475880">
<ele>665.399963</ele>
<time>2025-10-17T16:36:54.361Z</time>
</trkpt>
<trkpt lat="31.7634000" lon="35.1476080">
<ele>665.399963</ele>
<time>2025-10-17T16:36:54.361Z</time>
</trkpt>
<trkpt lat="31.7633940" lon="35.1476280">
<ele>665.599976</ele>
<time>2025-10-17T16:36:54.361Z</time>
</trkpt>
<trkpt lat="31.7633890" lon="35.1476430">
<ele>665.800049</ele>
<time>2025-10-17T16:36:54.361Z</time>
</trkpt>
<trkpt lat="31.7633820" lon="35.1476600">
<ele>666.000000</ele>
<time>2025-10-17T16:36:54.361Z</time>
</trkpt>
<trkpt lat="31.7633720" lon="35.1476830">
<ele>666.000000</ele>
<time>2025-10-17T16:36:54.361Z</time>
</trkpt>
<trkpt lat="31.7633630" lon="35.1477030">
<ele>666.200012</ele>
<time>2025-10-17T16:36:54.361Z</time>
</trkpt>
<trkpt lat="31.7633580" lon="35.1477190">
<ele>666.400024</ele>
<time>2025-10-17T16:36:54.361Z</time>
</trkpt>
<trkpt lat="31.7633510" lon="35.1477400">
<ele>666.599976</ele>
<time>2025-10-17T16:36:54.361Z</time>
</trkpt>
<trkpt lat="31.7633420" lon="35.1477600">
<ele>666.799988</ele>
<time>2025-10-17T16:36:54.361Z</time>
</trkpt>
<trkpt lat="31.7633300" lon="35.1477840">
<ele>667.000061</ele>
<time>2025-10-17T16:36:54.361Z</time>
</trkpt>
<trkpt lat="31.7633230" lon="35.1478000">
<ele>667.200012</ele>
<time>2025-10-17T16:36:54.361Z</time>
</trkpt>
<trkpt lat="31.7633140" lon="35.1478200">
<ele>667.400024</ele>
<time>2025-10-17T16:36:54.361Z</time>
</trkpt>
<trkpt lat="31.7633050" lon="35.1478400">
<ele>667.600037</ele>
<time>2025-10-17T16:36:54.361Z</time>
</trkpt>
<trkpt lat="31.7632970" lon="35.1478570">
<ele>667.799988</ele>
<time>2025-10-17T16:36:54.361Z</time>
</trkpt>
<trkpt lat="31.7632880" lon="35.1478770">
<ele>667.799988</ele>
<time>2025-10-17T16:36:54.361Z</time>
</trkpt>
<trkpt lat="31.7632810" lon="35.1478930">
<ele>668.000000</ele>
<time>2025-10-17T16:36:54.361Z</time>
</trkpt>
<trkpt lat="31.7632720" lon="35.1479090">
<ele>668.200012</ele>
<time>2025-10-17T16:36:54.362Z</time>
</trkpt>
<trkpt lat="31.7632640" lon="35.1479210">
<ele>668.399963</ele>
<time>2025-10-17T16:36:54.362Z</time>
</trkpt>
<trkpt lat="31.7632550" lon="35.1479380">
<ele>668.600037</ele>
<time>2025-10-17T16:36:54.362Z</time>
</trkpt>
<trkpt lat="31.7632460" lon="35.1479570">
<ele>668.800049</ele>
<time>2025-10-17T16:36:54.362Z</time>
</trkpt>
<trkpt lat="31.7632380" lon="35.1479730">
<ele>668.800049</ele>
<time>2025-10-17T16:36:54.362Z</time>
</trkpt>
<trkpt lat="31.7632290" lon="35.1479900">
<ele>669.000000</ele>
<time>2025-10-17T16:36:54.362Z</time>
</trkpt>
<trkpt lat="31.7632240" lon="35.1480020">
<ele>669.200012</ele>
<time>2025-10-17T16:36:54.362Z</time>
</trkpt>
<trkpt lat="31.7632190" lon="35.1480210">
<ele>669.400024</ele>
<time>2025-10-17T16:36:54.362Z</time>
</trkpt>
<trkpt lat="31.7632130" lon="35.1480390">
<ele>669.400024</ele>
<time>2025-10-17T16:36:54.362Z</time>
</trkpt>
<trkpt lat="31.7632040" lon="35.1480580">
<ele>669.599976</ele>
<time>2025-10-17T16:36:54.362Z</time>
</trkpt>
<trkpt lat="31.7631990" lon="35.1480760">
<ele>669.599976</ele>
<time>2025-10-17T16:36:54.362Z</time>
</trkpt>
<trkpt lat="31.7631930" lon="35.1480920">
<ele>670.000061</ele>
<time>2025-10-17T16:36:54.362Z</time>
</trkpt>
<trkpt lat="31.7631860" lon="35.1481090">
<ele>670.000061</ele>
<time>2025-10-17T16:36:54.362Z</time>
</trkpt>
<trkpt lat="31.7631770" lon="35.1481270">
<ele>670.400024</ele>
<time>2025-10-17T16:36:54.362Z</time>
</trkpt>
<trkpt lat="31.7631650" lon="35.1481470">
<ele>670.600037</ele>
<time>2025-10-17T16:36:54.362Z</time>
</trkpt>
<trkpt lat="31.7631580" lon="35.1481650">
<ele>670.600037</ele>
<time>2025-10-17T16:36:54.362Z</time>
</trkpt>
<trkpt lat="31.7631520" lon="35.1481790">
<ele>670.799988</ele>
<time>2025-10-17T16:36:54.362Z</time>
</trkpt>
<trkpt lat="31.7631420" lon="35.1482000">
<ele>670.799988</ele>
<time>2025-10-17T16:36:54.362Z</time>
</trkpt>
<trkpt lat="31.7631340" lon="35.1482170">
<ele>671.000000</ele>
<time>2025-10-17T16:36:54.362Z</time>
</trkpt>
<trkpt lat="31.7631270" lon="35.1482350">
<ele>671.200012</ele>
<time>2025-10-17T16:36:54.362Z</time>
</trkpt>
<trkpt lat="31.7631210" lon="35.1482490">
<ele>671.399963</ele>
<time>2025-10-17T16:36:54.362Z</time>
</trkpt>
<trkpt lat="31.7631120" lon="35.1482660">
<ele>671.399963</ele>
<time>2025-10-17T16:36:54.362Z</time>
</trkpt>
<trkpt lat="31.7631040" lon="35.1482890">
<ele>671.600037</ele>
<time>2025-10-17T16:36:54.362Z</time>
</trkpt>
<trkpt lat="31.7630970" lon="35.1483090">
<ele>671.600037</ele>
<time>2025-10-17T16:36:54.362Z</time>
</trkpt>
<trkpt lat="31.7630880" lon="35.1483310">
<ele>671.800049</ele>
<time>2025-10-17T16:36:54.363Z</time>
</trkpt>
<trkpt lat="31.7630790" lon="35.1483490">
<ele>672.000000</ele>
<time>2025-10-17T16:36:54.363Z</time>
</trkpt>
<trkpt lat="31.7630660" lon="35.1483720">
<ele>672.000000</ele>
<time>2025-10-17T16:36:54.363Z</time>
</trkpt>
<trkpt lat="31.7630520" lon="35.1484000">
<ele>672.400024</ele>
<time>2025-10-17T16:36:54.363Z</time>
</trkpt>
<trkpt lat="31.7630410" lon="35.1484250">
<ele>672.400024</ele>
<time>2025-10-17T16:36:54.363Z</time>
</trkpt>
<trkpt lat="31.7630300" lon="35.1484480">
<ele>672.599976</ele>
<time>2025-10-17T16:36:54.363Z</time>
</trkpt>
<trkpt lat="31.7630210" lon="35.1484660">
<ele>672.599976</ele>
<time>2025-10-17T16:36:54.363Z</time>
</trkpt>
<trkpt lat="31.7630100" lon="35.1484930">
<ele>673.000061</ele>
<time>2025-10-17T16:36:54.363Z</time>
</trkpt>
<trkpt lat="31.7629990" lon="35.1485170">
<ele>673.000061</ele>
<time>2025-10-17T16:36:54.363Z</time>
</trkpt>
<trkpt lat="31.7629880" lon="35.1485400">
<ele>673.400024</ele>
<time>2025-10-17T16:36:54.363Z</time>
</trkpt>
<trkpt lat="31.7629800" lon="35.1485600">
<ele>673.400024</ele>
<time>2025-10-17T16:36:54.363Z</time>
</trkpt>
<trkpt lat="31.7629690" lon="35.1485840">
<ele>673.599976</ele>
<time>2025-10-17T16:36:54.363Z</time>
</trkpt>
<trkpt lat="31.7629580" lon="35.1486070">
<ele>673.799988</ele>
<time>2025-10-17T16:36:54.363Z</time>
</trkpt>
<trkpt lat="31.7629470" lon="35.1486290">
<ele>674.000000</ele>
<time>2025-10-17T16:36:54.363Z</time>
</trkpt>
<trkpt lat="31.7629380" lon="35.1486500">
<ele>674.199951</ele>
<time>2025-10-17T16:36:54.363Z</time>
</trkpt>
<trkpt lat="31.7629290" lon="35.1486720">
<ele>674.399963</ele>
<time>2025-10-17T16:36:54.363Z</time>
</trkpt>
<trkpt lat="31.7629200" lon="35.1486930">
<ele>674.600037</ele>
<time>2025-10-17T16:36:54.363Z</time>
</trkpt>
<trkpt lat="31.7629140" lon="35.1487140">
<ele>674.799988</ele>
<time>2025-10-17T16:36:54.363Z</time>
</trkpt>
<trkpt lat="31.7629060" lon="35.1487340">
<ele>675.000000</ele>
<time>2025-10-17T16:36:54.363Z</time>
</trkpt>
<trkpt lat="31.7628970" lon="35.1487550">
<ele>675.000000</ele>
<time>2025-10-17T16:36:54.363Z</time>
</trkpt>
<trkpt lat="31.7628900" lon="35.1487760">
<ele>675.200012</ele>
<time>2025-10-17T16:36:54.363Z</time>
</trkpt>
<trkpt lat="31.7628800" lon="35.1488000">
<ele>675.200012</ele>
<time>2025-10-17T16:36:54.363Z</time>
</trkpt>
<trkpt lat="31.7628700" lon="35.1488180">
<ele>675.599976</ele>
<time>2025-10-17T16:36:54.363Z</time>
</trkpt>
<trkpt lat="31.7628610" lon="35.1488390">
<ele>675.799988</ele>
<time>2025-10-17T16:36:54.363Z</time>
</trkpt>
<trkpt lat="31.7628520" lon="35.1488590">
<ele>675.999939</ele>
<time>2025-10-17T16:36:54.363Z</time>
</trkpt>
<trkpt lat="31.7628400" lon="35.1488780">
<ele>676.200012</ele>
<time>2025-10-17T16:36:54.364Z</time>
</trkpt>
<trkpt lat="31.7628240" lon="35.1488920">
<ele>676.400024</ele>
<time>2025-10-17T16:36:54.364Z</time>
</trkpt>
<trkpt lat="31.7628060" lon="35.1489030">
<ele>676.599976</ele>
<time>2025-10-17T16:36:54.364Z</time>
</trkpt>
<trkpt lat="31.7627870" lon="35.1489120">
<ele>676.599976</ele>
<time>2025-10-17T16:36:54.364Z</time>
</trkpt>
<trkpt lat="31.7627660" lon="35.1489170">
<ele>676.799988</ele>
<time>2025-10-17T16:36:54.364Z</time>
</trkpt>
<trkpt lat="31.7627460" lon="35.1489170">
<ele>676.799988</ele>
<time>2025-10-17T16:36:54.364Z</time>
</trkpt>
<trkpt lat="31.7627190" lon="35.1489130">
<ele>676.799988</ele>
<time>2025-10-17T16:36:54.364Z</time>
</trkpt>
<trkpt lat="31.7626960" lon="35.1489070">
<ele>677.000000</ele>
<time>2025-10-17T16:36:54.364Z</time>
</trkpt>
<trkpt lat="31.7626740" lon="35.1489000">
<ele>677.199951</ele>
<time>2025-10-17T16:36:54.364Z</time>
</trkpt>
<trkpt lat="31.7626550" lon="35.1488900">
<ele>677.399963</ele>
<time>2025-10-17T16:36:54.364Z</time>
</trkpt>
<trkpt lat="31.7626300" lon="35.1488730">
<ele>677.399963</ele>
<time>2025-10-17T16:36:54.364Z</time>
</trkpt>
<trkpt lat="31.7625980" lon="35.1488440">
<ele>677.600037</ele>
<time>2025-10-17T16:36:54.364Z</time>
</trkpt>
<trkpt lat="31.7625710" lon="35.1488190">
<ele>677.600037</ele>
<time>2025-10-17T16:36:54.364Z</time>
</trkpt>
<trkpt lat="31.7625480" lon="35.1487940">
<ele>677.600037</ele>
<time>2025-10-17T16:36:54.364Z</time>
</trkpt>
<trkpt lat="31.7625270" lon="35.1487730">
<ele>677.600037</ele>
<time>2025-10-17T16:36:54.364Z</time>
</trkpt>
<trkpt lat="31.7625020" lon="35.1487480">
<ele>677.600037</ele>
<time>2025-10-17T16:36:54.364Z</time>
</trkpt>
<trkpt lat="31.7624740" lon="35.1487180">
<ele>677.600037</ele>
<time>2025-10-17T16:36:54.364Z</time>
</trkpt>
<trkpt lat="31.7624510" lon="35.1486900">
<ele>677.600037</ele>
<time>2025-10-17T16:36:54.364Z</time>
</trkpt>
<trkpt lat="31.7624270" lon="35.1486590">
<ele>677.600037</ele>
<time>2025-10-17T16:36:54.364Z</time>
</trkpt>
<trkpt lat="31.7624070" lon="35.1486340">
<ele>677.600037</ele>
<time>2025-10-17T16:36:54.364Z</time>
</trkpt>
<trkpt lat="31.7623800" lon="35.1486030">
<ele>677.600037</ele>
<time>2025-10-17T16:36:54.364Z</time>
</trkpt>
<trkpt lat="31.7623530" lon="35.1485730">
<ele>677.600037</ele>
<time>2025-10-17T16:36:54.364Z</time>
</trkpt>
<trkpt lat="31.7623210" lon="35.1485320">
<ele>677.600037</ele>
<time>2025-10-17T16:36:54.364Z</time>
</trkpt>
<trkpt lat="31.7622960" lon="35.1484970">
<ele>677.600037</ele>
<time>2025-10-17T16:36:54.365Z</time>
</trkpt>
<trkpt lat="31.7622770" lon="35.1484680">
<ele>677.600037</ele>
<time>2025-10-17T16:36:54.365Z</time>
</trkpt>
<trkpt lat="31.7622530" lon="35.1484330">
<ele>677.600037</ele>
<time>2025-10-17T16:36:54.365Z</time>
</trkpt>
<trkpt lat="31.7621290" lon="35.1482490">
<ele>677.799988</ele>
<time>2025-10-17T16:36:54.365Z</time>
</trkpt>
<trkpt lat="31.7621120" lon="35.1482180">
<ele>678.000000</ele>
<time>2025-10-17T16:36:54.365Z</time>
</trkpt>
<trkpt lat="31.7621090" lon="35.1481810">
<ele>678.000000</ele>
<time>2025-10-17T16:36:54.365Z</time>
</trkpt>
<trkpt lat="31.7621110" lon="35.1481510">
<ele>678.000000</ele>
<time>2025-10-17T16:36:54.365Z</time>
</trkpt>
<trkpt lat="31.7621050" lon="35.1481140">
<ele>678.000000</ele>
<time>2025-10-17T16:36:54.365Z</time>
</trkpt>
<trkpt lat="31.7620510" lon="35.1479960">
<ele>678.000000</ele>
<time>2025-10-17T16:36:54.365Z</time>
</trkpt>
<trkpt lat="31.7620300" lon="35.1479530">
<ele>678.000000</ele>
<time>2025-10-17T16:36:54.365Z</time>
</trkpt>
<trkpt lat="31.7619640" lon="35.1477350">
<ele>677.799988</ele>
<time>2025-10-17T16:36:54.365Z</time>
</trkpt>
<trkpt lat="31.7618960" lon="35.1475800">
<ele>678.000000</ele>
<time>2025-10-17T16:36:54.365Z</time>
</trkpt>
<trkpt lat="31.7618840" lon="35.1475380">
<ele>678.000000</ele>
<time>2025-10-17T16:36:54.365Z</time>
</trkpt>
<trkpt lat="31.7618730" lon="35.1475000">
<ele>677.799988</ele>
<time>2025-10-17T16:36:54.365Z</time>
</trkpt>
<trkpt lat="31.7618590" lon="35.1474660">
<ele>678.000000</ele>
<time>2025-10-17T16:36:54.365Z</time>
</trkpt>
<trkpt lat="31.7618450" lon="35.1474380">
<ele>678.200012</ele>
<time>2025-10-17T16:36:54.365Z</time>
</trkpt>
<trkpt lat="31.7618340" lon="35.1474090">
<ele>677.799988</ele>
<time>2025-10-17T16:36:54.365Z</time>
</trkpt>
<trkpt lat="31.7618220" lon="35.1473780">
<ele>677.799988</ele>
<time>2025-10-17T16:36:54.365Z</time>
</trkpt>
<trkpt lat="31.7618110" lon="35.1473460">
<ele>678.200012</ele>
<time>2025-10-17T16:36:54.365Z</time>
</trkpt>
<trkpt lat="31.7617700" lon="35.1472200">
<ele>678.399963</ele>
<time>2025-10-17T16:36:54.365Z</time>
</trkpt>
<trkpt lat="31.7617570" lon="35.1471940">
<ele>678.399963</ele>
<time>2025-10-17T16:36:54.365Z</time>
</trkpt>
<trkpt lat="31.7617460" lon="35.1471680">
<ele>678.399963</ele>
<time>2025-10-17T16:36:54.365Z</time>
</trkpt>
<trkpt lat="31.7617380" lon="35.1471420">
<ele>678.399963</ele>
<time>2025-10-17T16:36:54.365Z</time>
</trkpt>
<trkpt lat="31.7617290" lon="35.1471180">
<ele>678.599976</ele>
<time>2025-10-17T16:36:54.365Z</time>
</trkpt>
<trkpt lat="31.7617190" lon="35.1470940">
<ele>678.799988</ele>
<time>2025-10-17T16:36:54.365Z</time>
</trkpt>
<trkpt lat="31.7617080" lon="35.1470680">
<ele>678.799988</ele>
<time>2025-10-17T16:36:54.366Z</time>
</trkpt>
<trkpt lat="31.7616990" lon="35.1470400">
<ele>678.999939</ele>
<time>2025-10-17T16:36:54.366Z</time>
</trkpt>
<trkpt lat="31.7616890" lon="35.1470130">
<ele>679.200012</ele>
<time>2025-10-17T16:36:54.366Z</time>
</trkpt>
<trkpt lat="31.7616780" lon="35.1469890">
<ele>679.400024</ele>
<time>2025-10-17T16:36:54.366Z</time>
</trkpt>
<trkpt lat="31.7616680" lon="35.1469650">
<ele>679.400024</ele>
<time>2025-10-17T16:36:54.366Z</time>
</trkpt>
<trkpt lat="31.7616590" lon="35.1469420">
<ele>679.599976</ele>
<time>2025-10-17T16:36:54.366Z</time>
</trkpt>
<trkpt lat="31.7616480" lon="35.1469230">
<ele>680.000000</ele>
<time>2025-10-17T16:36:54.366Z</time>
</trkpt>
<trkpt lat="31.7616350" lon="35.1469090">
<ele>680.000000</ele>
<time>2025-10-17T16:36:54.366Z</time>
</trkpt>
<trkpt lat="31.7616210" lon="35.1468980">
<ele>680.400024</ele>
<time>2025-10-17T16:36:54.366Z</time>
</trkpt>
<trkpt lat="31.7616070" lon="35.1468860">
<ele>680.600037</ele>
<time>2025-10-17T16:36:54.366Z</time>
</trkpt>
<trkpt lat="31.7615960" lon="35.1468750">
<ele>680.799988</ele>
<time>2025-10-17T16:36:54.366Z</time>
</trkpt>
<trkpt lat="31.7615870" lon="35.1468660">
<ele>681.000000</ele>
<time>2025-10-17T16:36:54.366Z</time>
</trkpt>
<trkpt lat="31.7615810" lon="35.1468580">
<ele>681.000000</ele>
<time>2025-10-17T16:36:54.366Z</time>
</trkpt>
<trkpt lat="31.7615730" lon="35.1468510">
<ele>681.200012</ele>
<time>2025-10-17T16:36:54.366Z</time>
</trkpt>
<trkpt lat="31.7615620" lon="35.1468430">
<ele>681.399963</ele>
<time>2025-10-17T16:36:54.366Z</time>
</trkpt>
<trkpt lat="31.7615540" lon="35.1468340">
<ele>681.399963</ele>
<time>2025-10-17T16:36:54.366Z</time>
</trkpt>
<trkpt lat="31.7615450" lon="35.1468240">
<ele>681.399963</ele>
<time>2025-10-17T16:36:54.366Z</time>
</trkpt>
<trkpt lat="31.7615340" lon="35.1468140">
<ele>681.599976</ele>
<time>2025-10-17T16:36:54.366Z</time>
</trkpt>
<trkpt lat="31.7615230" lon="35.1468020">
<ele>681.599976</ele>
<time>2025-10-17T16:36:54.366Z</time>
</trkpt>
<trkpt lat="31.7615140" lon="35.1467900">
<ele>681.599976</ele>
<time>2025-10-17T16:36:54.366Z</time>
</trkpt>
<trkpt lat="31.7615050" lon="35.1467790">
<ele>681.599976</ele>
<time>2025-10-17T16:36:54.366Z</time>
</trkpt>
<trkpt lat="31.7614920" lon="35.1467660">
<ele>681.800049</ele>
<time>2025-10-17T16:36:54.366Z</time>
</trkpt>
<trkpt lat="31.7614800" lon="35.1467580">
<ele>681.800049</ele>
<time>2025-10-17T16:36:54.366Z</time>
</trkpt>
<trkpt lat="31.7614720" lon="35.1467500">
<ele>681.800049</ele>
<time>2025-10-17T16:36:54.366Z</time>
</trkpt>
<trkpt lat="31.7614630" lon="35.1467400">
<ele>682.000000</ele>
<time>2025-10-17T16:36:54.367Z</time>
</trkpt>
<trkpt lat="31.7614530" lon="35.1467290">
<ele>682.000000</ele>
<time>2025-10-17T16:36:54.367Z</time>
</trkpt>
<trkpt lat="31.7614420" lon="35.1467190">
<ele>682.000000</ele>
<time>2025-10-17T16:36:54.367Z</time>
</trkpt>
<trkpt lat="31.7614310" lon="35.1467090">
<ele>682.000000</ele>
<time>2025-10-17T16:36:54.367Z</time>
</trkpt>
<trkpt lat="31.7614180" lon="35.1467010">
<ele>682.200012</ele>
<time>2025-10-17T16:36:54.367Z</time>
</trkpt>
<trkpt lat="31.7614040" lon="35.1466930">
<ele>682.400024</ele>
<time>2025-10-17T16:36:54.367Z</time>
</trkpt>
<trkpt lat="31.7613910" lon="35.1466860">
<ele>682.400024</ele>
<time>2025-10-17T16:36:54.367Z</time>
</trkpt>
<trkpt lat="31.7613790" lon="35.1466780">
<ele>682.599976</ele>
<time>2025-10-17T16:36:54.367Z</time>
</trkpt>
<trkpt lat="31.7613670" lon="35.1466700">
<ele>682.799988</ele>
<time>2025-10-17T16:36:54.367Z</time>
</trkpt>
<trkpt lat="31.7613550" lon="35.1466660">
<ele>683.000000</ele>
<time>2025-10-17T16:36:54.367Z</time>
</trkpt>
<trkpt lat="31.7613420" lon="35.1466630">
<ele>683.000000</ele>
<time>2025-10-17T16:36:54.367Z</time>
</trkpt>
<trkpt lat="31.7613290" lon="35.1466570">
<ele>683.199951</ele>
<time>2025-10-17T16:36:54.367Z</time>
</trkpt>
<trkpt lat="31.7613170" lon="35.1466500">
<ele>683.199951</ele>
<time>2025-10-17T16:36:54.367Z</time>
</trkpt>
<trkpt lat="31.7612910" lon="35.1466410">
<ele>683.400024</ele>
<time>2025-10-17T16:36:54.367Z</time>
</trkpt>
<trkpt lat="31.7612640" lon="35.1466280">
<ele>683.600037</ele>
<time>2025-10-17T16:36:54.367Z</time>
</trkpt>
<trkpt lat="31.7612500" lon="35.1466200">
<ele>683.799988</ele>
<time>2025-10-17T16:36:54.367Z</time>
</trkpt>
<trkpt lat="31.7612350" lon="35.1466130">
<ele>683.799988</ele>
<time>2025-10-17T16:36:54.367Z</time>
</trkpt>
<trkpt lat="31.7612190" lon="35.1466090">
<ele>684.000000</ele>
<time>2025-10-17T16:36:54.367Z</time>
</trkpt>
<trkpt lat="31.7612040" lon="35.1466040">
<ele>684.000000</ele>
<time>2025-10-17T16:36:54.367Z</time>
</trkpt>
<trkpt lat="31.7611900" lon="35.1465980">
<ele>684.000000</ele>
<time>2025-10-17T16:36:54.367Z</time>
</trkpt>
<trkpt lat="31.7611750" lon="35.1465910">
<ele>684.200012</ele>
<time>2025-10-17T16:36:54.367Z</time>
</trkpt>
<trkpt lat="31.7611620" lon="35.1465830">
<ele>684.200012</ele>
<time>2025-10-17T16:36:54.367Z</time>
</trkpt>
<trkpt lat="31.7611470" lon="35.1465780">
<ele>684.599976</ele>
<time>2025-10-17T16:36:54.367Z</time>
</trkpt>
<trkpt lat="31.7611330" lon="35.1465740">
<ele>684.599976</ele>
<time>2025-10-17T16:36:54.368Z</time>
</trkpt>
<trkpt lat="31.7611170" lon="35.1465680">
<ele>684.800049</ele>
<time>2025-10-17T16:36:54.368Z</time>
</trkpt>
<trkpt lat="31.7611000" lon="35.1465640">
<ele>684.800049</ele>
<time>2025-10-17T16:36:54.368Z</time>
</trkpt>
<trkpt lat="31.7610850" lon="35.1465660">
<ele>685.000000</ele>
<time>2025-10-17T16:36:54.368Z</time>
</trkpt>
<trkpt lat="31.7610680" lon="35.1465690">
<ele>685.000000</ele>
<time>2025-10-17T16:36:54.368Z</time>
</trkpt>
<trkpt lat="31.7610480" lon="35.1465680">
<ele>685.000000</ele>
<time>2025-10-17T16:36:54.368Z</time>
</trkpt>
<trkpt lat="31.7610270" lon="35.1465670">
<ele>685.200012</ele>
<time>2025-10-17T16:36:54.368Z</time>
</trkpt>
<trkpt lat="31.7610070" lon="35.1465690">
<ele>685.200012</ele>
<time>2025-10-17T16:36:54.368Z</time>
</trkpt>
<trkpt lat="31.7609890" lon="35.1465720">
<ele>685.400024</ele>
<time>2025-10-17T16:36:54.368Z</time>
</trkpt>
<trkpt lat="31.7609690" lon="35.1465750">
<ele>685.400024</ele>
<time>2025-10-17T16:36:54.368Z</time>
</trkpt>
<trkpt lat="31.7609490" lon="35.1465790">
<ele>685.599976</ele>
<time>2025-10-17T16:36:54.368Z</time>
</trkpt>
<trkpt lat="31.7609270" lon="35.1465840">
<ele>685.599976</ele>
<time>2025-10-17T16:36:54.368Z</time>
</trkpt>
<trkpt lat="31.7609050" lon="35.1465890">
<ele>685.799988</ele>
<time>2025-10-17T16:36:54.368Z</time>
</trkpt>
<trkpt lat="31.7608820" lon="35.1465950">
<ele>686.000000</ele>
<time>2025-10-17T16:36:54.368Z</time>
</trkpt>
<trkpt lat="31.7608600" lon="35.1466050">
<ele>686.000000</ele>
<time>2025-10-17T16:36:54.368Z</time>
</trkpt>
<trkpt lat="31.7608410" lon="35.1466160">
<ele>686.000000</ele>
<time>2025-10-17T16:36:54.368Z</time>
</trkpt>
<trkpt lat="31.7608220" lon="35.1466260">
<ele>686.199951</ele>
<time>2025-10-17T16:36:54.368Z</time>
</trkpt>
<trkpt lat="31.7608010" lon="35.1466370">
<ele>686.400024</ele>
<time>2025-10-17T16:36:54.368Z</time>
</trkpt>
<trkpt lat="31.7607820" lon="35.1466460">
<ele>686.400024</ele>
<time>2025-10-17T16:36:54.368Z</time>
</trkpt>
<trkpt lat="31.7607630" lon="35.1466520">
<ele>686.799988</ele>
<time>2025-10-17T16:36:54.368Z</time>
</trkpt>
<trkpt lat="31.7607450" lon="35.1466570">
<ele>686.799988</ele>
<time>2025-10-17T16:36:54.368Z</time>
</trkpt>
<trkpt lat="31.7607260" lon="35.1466610">
<ele>687.200012</ele>
<time>2025-10-17T16:36:54.368Z</time>
</trkpt>
<trkpt lat="31.7607070" lon="35.1466660">
<ele>687.599976</ele>
<time>2025-10-17T16:36:54.368Z</time>
</trkpt>
<trkpt lat="31.7606860" lon="35.1466730">
<ele>687.599976</ele>
<time>2025-10-17T16:36:54.368Z</time>
</trkpt>
<trkpt lat="31.7606640" lon="35.1466820">
<ele>687.800049</ele>
<time>2025-10-17T16:36:54.368Z</time>
</trkpt>
<trkpt lat="31.7606450" lon="35.1466920">
<ele>688.000000</ele>
<time>2025-10-17T16:36:54.369Z</time>
</trkpt>
<trkpt lat="31.7606260" lon="35.1467020">
<ele>688.200012</ele>
<time>2025-10-17T16:36:54.369Z</time>
</trkpt>
<trkpt lat="31.7606050" lon="35.1467090">
<ele>688.200012</ele>
<time>2025-10-17T16:36:54.369Z</time>
</trkpt>
<trkpt lat="31.7605800" lon="35.1467140">
<ele>688.400024</ele>
<time>2025-10-17T16:36:54.369Z</time>
</trkpt>
<trkpt lat="31.7605560" lon="35.1467240">
<ele>688.400024</ele>
<time>2025-10-17T16:36:54.369Z</time>
</trkpt>
<trkpt lat="31.7605310" lon="35.1467370">
<ele>688.599976</ele>
<time>2025-10-17T16:36:54.369Z</time>
</trkpt>
<trkpt lat="31.7605050" lon="35.1467490">
<ele>688.599976</ele>
<time>2025-10-17T16:36:54.369Z</time>
</trkpt>
<trkpt lat="31.7604770" lon="35.1467600">
<ele>688.799988</ele>
<time>2025-10-17T16:36:54.369Z</time>
</trkpt>
<trkpt lat="31.7604460" lon="35.1467710">
<ele>689.000000</ele>
<time>2025-10-17T16:36:54.369Z</time>
</trkpt>
<trkpt lat="31.7604160" lon="35.1467800">
<ele>689.199951</ele>
<time>2025-10-17T16:36:54.369Z</time>
</trkpt>
<trkpt lat="31.7603850" lon="35.1467910">
<ele>689.199951</ele>
<time>2025-10-17T16:36:54.369Z</time>
</trkpt>
<trkpt lat="31.7603550" lon="35.1467990">
<ele>689.199951</ele>
<time>2025-10-17T16:36:54.369Z</time>
</trkpt>
<trkpt lat="31.7603260" lon="35.1468100">
<ele>689.400024</ele>
<time>2025-10-17T16:36:54.369Z</time>
</trkpt>
<trkpt lat="31.7602960" lon="35.1468240">
<ele>689.400024</ele>
<time>2025-10-17T16:36:54.369Z</time>
</trkpt>
<trkpt lat="31.7602670" lon="35.1468370">
<ele>689.400024</ele>
<time>2025-10-17T16:36:54.369Z</time>
</trkpt>
<trkpt lat="31.7602370" lon="35.1468510">
<ele>689.400024</ele>
<time>2025-10-17T16:36:54.369Z</time>
</trkpt>
<trkpt lat="31.7602090" lon="35.1468650">
<ele>689.400024</ele>
<time>2025-10-17T16:36:54.369Z</time>
</trkpt>
<trkpt lat="31.7601810" lon="35.1468800">
<ele>689.600037</ele>
<time>2025-10-17T16:36:54.369Z</time>
</trkpt>
<trkpt lat="31.7601530" lon="35.1468940">
<ele>689.600037</ele>
<time>2025-10-17T16:36:54.369Z</time>
</trkpt>
<trkpt lat="31.7601240" lon="35.1469080">
<ele>689.600037</ele>
<time>2025-10-17T16:36:54.369Z</time>
</trkpt>
<trkpt lat="31.7600950" lon="35.1469190">
<ele>689.799988</ele>
<time>2025-10-17T16:36:54.369Z</time>
</trkpt>
<trkpt lat="31.7600660" lon="35.1469280">
<ele>690.000000</ele>
<time>2025-10-17T16:36:54.369Z</time>
</trkpt>
<trkpt lat="31.7600360" lon="35.1469380">
<ele>690.000000</ele>
<time>2025-10-17T16:36:54.369Z</time>
</trkpt>
<trkpt lat="31.7600010" lon="35.1469500">
<ele>690.200012</ele>
<time>2025-10-17T16:36:54.369Z</time>
</trkpt>
<trkpt lat="31.7599780" lon="35.1469600">
<ele>690.200012</ele>
<time>2025-10-17T16:36:54.369Z</time>
</trkpt>
<trkpt lat="31.7599530" lon="35.1469730">
<ele>690.399963</ele>
<time>2025-10-17T16:36:54.369Z</time>
</trkpt>
<trkpt lat="31.7599190" lon="35.1469880">
<ele>690.399963</ele>
<time>2025-10-17T16:36:54.370Z</time>
</trkpt>
<trkpt lat="31.7598890" lon="35.1470020">
<ele>690.599976</ele>
<time>2025-10-17T16:36:54.370Z</time>
</trkpt>
<trkpt lat="31.7597560" lon="35.1470550">
<ele>691.000000</ele>
<time>2025-10-17T16:36:54.370Z</time>
</trkpt>
<trkpt lat="31.7595800" lon="35.1471010">
<ele>691.000000</ele>
<time>2025-10-17T16:36:54.370Z</time>
</trkpt>
<trkpt lat="31.7594020" lon="35.1471460">
<ele>690.800049</ele>
<time>2025-10-17T16:36:54.370Z</time>
</trkpt>
<trkpt lat="31.7593240" lon="35.1471640">
<ele>690.800049</ele>
<time>2025-10-17T16:36:54.370Z</time>
</trkpt>
<trkpt lat="31.7592450" lon="35.1471700">
<ele>690.599976</ele>
<time>2025-10-17T16:36:54.370Z</time>
</trkpt>
<trkpt lat="31.7591180" lon="35.1471650">
<ele>690.399963</ele>
<time>2025-10-17T16:36:54.370Z</time>
</trkpt>
<trkpt lat="31.7590710" lon="35.1471580">
<ele>690.200012</ele>
<time>2025-10-17T16:36:54.370Z</time>
</trkpt>
<trkpt lat="31.7590230" lon="35.1471470">
<ele>690.200012</ele>
<time>2025-10-17T16:36:54.370Z</time>
</trkpt>
<trkpt lat="31.7588990" lon="35.1470950">
<ele>690.200012</ele>
<time>2025-10-17T16:36:54.370Z</time>
</trkpt>
<trkpt lat="31.7588670" lon="35.1470770">
<ele>689.799988</ele>
<time>2025-10-17T16:36:54.370Z</time>
</trkpt>
<trkpt lat="31.7588390" lon="35.1470590">
<ele>689.199951</ele>
<time>2025-10-17T16:36:54.370Z</time>
</trkpt>
<trkpt lat="31.7588130" lon="35.1470450">
<ele>688.599976</ele>
<time>2025-10-17T16:36:54.370Z</time>
</trkpt>
<trkpt lat="31.7587910" lon="35.1470330">
<ele>688.400024</ele>
<time>2025-10-17T16:36:54.370Z</time>
</trkpt>
<trkpt lat="31.7587730" lon="35.1470250">
<ele>688.000000</ele>
<time>2025-10-17T16:36:54.370Z</time>
</trkpt>
<trkpt lat="31.7587570" lon="35.1470200">
<ele>687.599976</ele>
<time>2025-10-17T16:36:54.370Z</time>
</trkpt>
<trkpt lat="31.7587410" lon="35.1470180">
<ele>687.399963</ele>
<time>2025-10-17T16:36:54.370Z</time>
</trkpt>
<trkpt lat="31.7587260" lon="35.1470180">
<ele>687.200012</ele>
<time>2025-10-17T16:36:54.370Z</time>
</trkpt>
<trkpt lat="31.7587120" lon="35.1470190">
<ele>687.000000</ele>
<time>2025-10-17T16:36:54.370Z</time>
</trkpt>
<trkpt lat="31.7586900" lon="35.1470260">
<ele>686.799988</ele>
<time>2025-10-17T16:36:54.370Z</time>
</trkpt>
<trkpt lat="31.7586640" lon="35.1470500">
<ele>686.400024</ele>
<time>2025-10-17T16:36:54.370Z</time>
</trkpt>
<trkpt lat="31.7586610" lon="35.1470670">
<ele>686.400024</ele>
<time>2025-10-17T16:36:54.370Z</time>
</trkpt>
<trkpt lat="31.7586670" lon="35.1470840">
<ele>686.400024</ele>
<time>2025-10-17T16:36:54.370Z</time>
</trkpt>
<trkpt lat="31.7586810" lon="35.1470960">
<ele>686.400024</ele>
<time>2025-10-17T16:36:54.370Z</time>
</trkpt>
<trkpt lat="31.7586960" lon="35.1470930">
<ele>686.400024</ele>
<time>2025-10-17T16:36:54.370Z</time>
</trkpt>
<trkpt lat="31.7587350" lon="35.1470410">
<ele>686.199951</ele>
<time>2025-10-17T16:36:54.370Z</time>
</trkpt>
<trkpt lat="31.7587070" lon="35.1469890">
<ele>686.199951</ele>
<time>2025-10-17T16:36:54.371Z</time>
</trkpt>
<trkpt lat="31.7586960" lon="35.1469760">
<ele>686.000000</ele>
<time>2025-10-17T16:36:54.371Z</time>
</trkpt>
<trkpt lat="31.7586830" lon="35.1469520">
<ele>686.000000</ele>
<time>2025-10-17T16:36:54.371Z</time>
</trkpt>
<trkpt lat="31.7586830" lon="35.1469480">
<ele>686.000000</ele>
<time>2025-10-17T16:36:54.371Z</time>
</trkpt>
<trkpt lat="31.7586830" lon="35.1469480">
<ele>685.799988</ele>
<time>2025-10-17T16:36:54.371Z</time>
</trkpt>
<trkpt lat="31.7586300" lon="35.1469600">
<ele>685.000000</ele>
<time>2025-10-17T16:36:54.371Z</time>
</trkpt>
<trkpt lat="31.7586260" lon="35.1469750">
<ele>685.000000</ele>
<time>2025-10-17T16:36:54.371Z</time>
</trkpt>
<trkpt lat="31.7586260" lon="35.1469890">
<ele>685.000000</ele>
<time>2025-10-17T16:36:54.371Z</time>
</trkpt>
<trkpt lat="31.7586290" lon="35.1470050">
<ele>685.000000</ele>
<time>2025-10-17T16:36:54.371Z</time>
</trkpt>
<trkpt lat="31.7586370" lon="35.1470250">
<ele>685.000000</ele>
<time>2025-10-17T16:36:54.371Z</time>
</trkpt>
<trkpt lat="31.7586420" lon="35.1470430">
<ele>685.000000</ele>
<time>2025-10-17T16:36:54.371Z</time>
</trkpt>
<trkpt lat="31.7586430" lon="35.1470580">
<ele>685.200012</ele>
<time>2025-10-17T16:36:54.371Z</time>
</trkpt>
<trkpt lat="31.7586430" lon="35.1470580">
<ele>685.200012</ele>
<time>2025-10-17T16:36:54.371Z</time>
</trkpt>
<trkpt lat="31.7586170" lon="35.1471150">
<ele>685.799988</ele>
<time>2025-10-17T16:36:54.371Z</time>
</trkpt>
<trkpt lat="31.7586020" lon="35.1471310">
<ele>685.799988</ele>
<time>2025-10-17T16:36:54.371Z</time>
</trkpt>
<trkpt lat="31.7585760" lon="35.1471520">
<ele>685.799988</ele>
<time>2025-10-17T16:36:54.371Z</time>
</trkpt>
<trkpt lat="31.7585540" lon="35.1471700">
<ele>685.799988</ele>
<time>2025-10-17T16:36:54.371Z</time>
</trkpt>
<trkpt lat="31.7585330" lon="35.1471860">
<ele>686.000000</ele>
<time>2025-10-17T16:36:54.371Z</time>
</trkpt>
<trkpt lat="31.7585150" lon="35.1472080">
<ele>686.000000</ele>
<time>2025-10-17T16:36:54.371Z</time>
</trkpt>
<trkpt lat="31.7584990" lon="35.1472320">
<ele>686.000000</ele>
<time>2025-10-17T16:36:54.371Z</time>
</trkpt>
<trkpt lat="31.7584850" lon="35.1472520">
<ele>686.199951</ele>
<time>2025-10-17T16:36:54.371Z</time>
</trkpt>
<trkpt lat="31.7584260" lon="35.1473130">
<ele>686.600037</ele>
<time>2025-10-17T16:36:54.371Z</time>
</trkpt>
<trkpt lat="31.7583880" lon="35.1473420">
<ele>687.000000</ele>
<time>2025-10-17T16:36:54.371Z</time>
</trkpt>
<trkpt lat="31.7583700" lon="35.1473550">
<ele>687.200012</ele>
<time>2025-10-17T16:36:54.371Z</time>
</trkpt>
<trkpt lat="31.7583520" lon="35.1473690">
<ele>687.599976</ele>
<time>2025-10-17T16:36:54.371Z</time>
</trkpt>
<trkpt lat="31.7583340" lon="35.1473790">
<ele>687.800049</ele>
<time>2025-10-17T16:36:54.371Z</time>
</trkpt>
<trkpt lat="31.7583190" lon="35.1473910">
<ele>688.000000</ele>
<time>2025-10-17T16:36:54.371Z</time>
</trkpt>
<trkpt lat="31.7583060" lon="35.1474050">
<ele>688.400024</ele>
<time>2025-10-17T16:36:54.371Z</time>
</trkpt>
<trkpt lat="31.7582940" lon="35.1474170">
<ele>688.599976</ele>
<time>2025-10-17T16:36:54.372Z</time>
</trkpt>
<trkpt lat="31.7582740" lon="35.1474300">
<ele>688.799988</ele>
<time>2025-10-17T16:36:54.372Z</time>
</trkpt>
<trkpt lat="31.7582550" lon="35.1474370">
<ele>689.000000</ele>
<time>2025-10-17T16:36:54.372Z</time>
</trkpt>
<trkpt lat="31.7582380" lon="35.1474430">
<ele>689.400024</ele>
<time>2025-10-17T16:36:54.372Z</time>
</trkpt>
<trkpt lat="31.7582140" lon="35.1474540">
<ele>689.400024</ele>
<time>2025-10-17T16:36:54.372Z</time>
</trkpt>
<trkpt lat="31.7581970" lon="35.1474670">
<ele>689.600037</ele>
<time>2025-10-17T16:36:54.372Z</time>
</trkpt>
<trkpt lat="31.7581760" lon="35.1474830">
<ele>689.799988</ele>
<time>2025-10-17T16:36:54.372Z</time>
</trkpt>
<trkpt lat="31.7581600" lon="35.1474960">
<ele>690.000000</ele>
<time>2025-10-17T16:36:54.372Z</time>
</trkpt>
<trkpt lat="31.7581430" lon="35.1475120">
<ele>690.200012</ele>
<time>2025-10-17T16:36:54.372Z</time>
</trkpt>
<trkpt lat="31.7581210" lon="35.1475330">
<ele>690.399963</ele>
<time>2025-10-17T16:36:54.372Z</time>
</trkpt>
<trkpt lat="31.7581020" lon="35.1475490">
<ele>690.200012</ele>
<time>2025-10-17T16:36:54.372Z</time>
</trkpt>
<trkpt lat="31.7580850" lon="35.1475670">
<ele>690.399963</ele>
<time>2025-10-17T16:36:54.372Z</time>
</trkpt>
<trkpt lat="31.7580720" lon="35.1475810">
<ele>690.399963</ele>
<time>2025-10-17T16:36:54.372Z</time>
</trkpt>
<trkpt lat="31.7580630" lon="35.1475950">
<ele>690.399963</ele>
<time>2025-10-17T16:36:54.372Z</time>
</trkpt>
<trkpt lat="31.7580500" lon="35.1476090">
<ele>690.599976</ele>
<time>2025-10-17T16:36:54.372Z</time>
</trkpt>
<trkpt lat="31.7580350" lon="35.1476220">
<ele>690.599976</ele>
<time>2025-10-17T16:36:54.372Z</time>
</trkpt>
<trkpt lat="31.7580250" lon="35.1476300">
<ele>691.000000</ele>
<time>2025-10-17T16:36:54.372Z</time>
</trkpt>
<trkpt lat="31.7580090" lon="35.1476420">
<ele>691.000000</ele>
<time>2025-10-17T16:36:54.372Z</time>
</trkpt>
<trkpt lat="31.7579980" lon="35.1476520">
<ele>691.400024</ele>
<time>2025-10-17T16:36:54.372Z</time>
</trkpt>
<trkpt lat="31.7579890" lon="35.1476620">
<ele>691.400024</ele>
<time>2025-10-17T16:36:54.372Z</time>
</trkpt>
<trkpt lat="31.7579750" lon="35.1476700">
<ele>691.799988</ele>
<time>2025-10-17T16:36:54.372Z</time>
</trkpt>
<trkpt lat="31.7579600" lon="35.1476800">
<ele>691.799988</ele>
<time>2025-10-17T16:36:54.372Z</time>
</trkpt>
<trkpt lat="31.7579430" lon="35.1476870">
<ele>692.199951</ele>
<time>2025-10-17T16:36:54.372Z</time>
</trkpt>
<trkpt lat="31.7579270" lon="35.1476920">
<ele>692.199951</ele>
<time>2025-10-17T16:36:54.372Z</time>
</trkpt>
<trkpt lat="31.7579100" lon="35.1476960">
<ele>692.600037</ele>
<time>2025-10-17T16:36:54.372Z</time>
</trkpt>
<trkpt lat="31.7578910" lon="35.1476950">
<ele>692.799988</ele>
<time>2025-10-17T16:36:54.372Z</time>
</trkpt>
<trkpt lat="31.7578740" lon="35.1476910">
<ele>692.799988</ele>
<time>2025-10-17T16:36:54.372Z</time>
</trkpt>
<trkpt lat="31.7578620" lon="35.1476860">
<ele>693.000000</ele>
<time>2025-10-17T16:36:54.373Z</time>
</trkpt>
<trkpt lat="31.7578430" lon="35.1476770">
<ele>693.200012</ele>
<time>2025-10-17T16:36:54.373Z</time>
</trkpt>
<trkpt lat="31.7578260" lon="35.1476670">
<ele>693.200012</ele>
<time>2025-10-17T16:36:54.373Z</time>
</trkpt>
<trkpt lat="31.7578100" lon="35.1476550">
<ele>693.399963</ele>
<time>2025-10-17T16:36:54.373Z</time>
</trkpt>
<trkpt lat="31.7577970" lon="35.1476410">
<ele>693.600037</ele>
<time>2025-10-17T16:36:54.373Z</time>
</trkpt>
<trkpt lat="31.7577860" lon="35.1476270">
<ele>693.600037</ele>
<time>2025-10-17T16:36:54.373Z</time>
</trkpt>
<trkpt lat="31.7577700" lon="35.1476130">
<ele>693.800049</ele>
<time>2025-10-17T16:36:54.373Z</time>
</trkpt>
<trkpt lat="31.7577530" lon="35.1475990">
<ele>693.800049</ele>
<time>2025-10-17T16:36:54.373Z</time>
</trkpt>
<trkpt lat="31.7577370" lon="35.1475880">
<ele>693.800049</ele>
<time>2025-10-17T16:36:54.373Z</time>
</trkpt>
<trkpt lat="31.7577250" lon="35.1475810">
<ele>694.000000</ele>
<time>2025-10-17T16:36:54.373Z</time>
</trkpt>
<trkpt lat="31.7577120" lon="35.1475750">
<ele>694.000000</ele>
<time>2025-10-17T16:36:54.373Z</time>
</trkpt>
<trkpt lat="31.7576960" lon="35.1475710">
<ele>694.000000</ele>
<time>2025-10-17T16:36:54.373Z</time>
</trkpt>
<trkpt lat="31.7576830" lon="35.1475760">
<ele>694.200012</ele>
<time>2025-10-17T16:36:54.373Z</time>
</trkpt>
<trkpt lat="31.7576720" lon="35.1475880">
<ele>694.200012</ele>
<time>2025-10-17T16:36:54.373Z</time>
</trkpt>
<trkpt lat="31.7576640" lon="35.1475960">
<ele>694.000000</ele>
<time>2025-10-17T16:36:54.373Z</time>
</trkpt>
<trkpt lat="31.7576520" lon="35.1476040">
<ele>694.200012</ele>
<time>2025-10-17T16:36:54.373Z</time>
</trkpt>
<trkpt lat="31.7576370" lon="35.1476140">
<ele>694.400024</ele>
<time>2025-10-17T16:36:54.373Z</time>
</trkpt>
<trkpt lat="31.7576260" lon="35.1476240">
<ele>694.599976</ele>
<time>2025-10-17T16:36:54.373Z</time>
</trkpt>
<trkpt lat="31.7576140" lon="35.1476310">
<ele>695.000061</ele>
<time>2025-10-17T16:36:54.373Z</time>
</trkpt>
<trkpt lat="31.7576040" lon="35.1476360">
<ele>695.400024</ele>
<time>2025-10-17T16:36:54.373Z</time>
</trkpt>
<trkpt lat="31.7575900" lon="35.1476420">
<ele>695.799988</ele>
<time>2025-10-17T16:36:54.373Z</time>
</trkpt>
<trkpt lat="31.7575700" lon="35.1476470">
<ele>696.000000</ele>
<time>2025-10-17T16:36:54.373Z</time>
</trkpt>
<trkpt lat="31.7575530" lon="35.1476490">
<ele>696.200012</ele>
<time>2025-10-17T16:36:54.373Z</time>
</trkpt>
<trkpt lat="31.7575370" lon="35.1476510">
<ele>696.200012</ele>
<time>2025-10-17T16:36:54.374Z</time>
</trkpt>
<trkpt lat="31.7575250" lon="35.1476500">
<ele>696.800049</ele>
<time>2025-10-17T16:36:54.374Z</time>
</trkpt>
<trkpt lat="31.7575080" lon="35.1476480">
<ele>697.000000</ele>
<time>2025-10-17T16:36:54.374Z</time>
</trkpt>
<trkpt lat="31.7574930" lon="35.1476510">
<ele>697.400024</ele>
<time>2025-10-17T16:36:54.374Z</time>
</trkpt>
<trkpt lat="31.7574800" lon="35.1476540">
<ele>697.599976</ele>
<time>2025-10-17T16:36:54.374Z</time>
</trkpt>
<trkpt lat="31.7574640" lon="35.1476570">
<ele>698.000061</ele>
<time>2025-10-17T16:36:54.374Z</time>
</trkpt>
<trkpt lat="31.7574470" lon="35.1476590">
<ele>698.400024</ele>
<time>2025-10-17T16:36:54.374Z</time>
</trkpt>
<trkpt lat="31.7574320" lon="35.1476620">
<ele>698.400024</ele>
<time>2025-10-17T16:36:54.374Z</time>
</trkpt>
<trkpt lat="31.7574180" lon="35.1476690">
<ele>699.000000</ele>
<time>2025-10-17T16:36:54.374Z</time>
</trkpt>
<trkpt lat="31.7574030" lon="35.1476790">
<ele>699.399963</ele>
<time>2025-10-17T16:36:54.374Z</time>
</trkpt>
<trkpt lat="31.7573870" lon="35.1476890">
<ele>699.799988</ele>
<time>2025-10-17T16:36:54.374Z</time>
</trkpt>
<trkpt lat="31.7573750" lon="35.1476990">
<ele>699.799988</ele>
<time>2025-10-17T16:36:54.374Z</time>
</trkpt>
<trkpt lat="31.7573660" lon="35.1477090">
<ele>700.000000</ele>
<time>2025-10-17T16:36:54.374Z</time>
</trkpt>
<trkpt lat="31.7573520" lon="35.1477270">
<ele>700.200012</ele>
<time>2025-10-17T16:36:54.374Z</time>
</trkpt>
<trkpt lat="31.7573420" lon="35.1477410">
<ele>700.799988</ele>
<time>2025-10-17T16:36:54.374Z</time>
</trkpt>
<trkpt lat="31.7573330" lon="35.1477530">
<ele>700.999939</ele>
<time>2025-10-17T16:36:54.374Z</time>
</trkpt>
<trkpt lat="31.7573250" lon="35.1477630">
<ele>701.200012</ele>
<time>2025-10-17T16:36:54.374Z</time>
</trkpt>
<trkpt lat="31.7573120" lon="35.1477780">
<ele>701.400024</ele>
<time>2025-10-17T16:36:54.374Z</time>
</trkpt>
<trkpt lat="31.7573010" lon="35.1477900">
<ele>701.599976</ele>
<time>2025-10-17T16:36:54.374Z</time>
</trkpt>
<trkpt lat="31.7572900" lon="35.1478020">
<ele>702.000000</ele>
<time>2025-10-17T16:36:54.374Z</time>
</trkpt>
<trkpt lat="31.7572790" lon="35.1478160">
<ele>702.199951</ele>
<time>2025-10-17T16:36:54.374Z</time>
</trkpt>
<trkpt lat="31.7572680" lon="35.1478290">
<ele>702.399963</ele>
<time>2025-10-17T16:36:54.375Z</time>
</trkpt>
<trkpt lat="31.7572600" lon="35.1478400">
<ele>702.399963</ele>
<time>2025-10-17T16:36:54.375Z</time>
</trkpt>
<trkpt lat="31.7572500" lon="35.1478550">
<ele>702.600037</ele>
<time>2025-10-17T16:36:54.375Z</time>
</trkpt>
<trkpt lat="31.7572400" lon="35.1478720">
<ele>702.600037</ele>
<time>2025-10-17T16:36:54.375Z</time>
</trkpt>
<trkpt lat="31.7572320" lon="35.1478830">
<ele>702.799988</ele>
<time>2025-10-17T16:36:54.375Z</time>
</trkpt>
<trkpt lat="31.7572230" lon="35.1478960">
<ele>703.000000</ele>
<time>2025-10-17T16:36:54.375Z</time>
</trkpt>
<trkpt lat="31.7572110" lon="35.1479080">
<ele>703.000000</ele>
<time>2025-10-17T16:36:54.375Z</time>
</trkpt>
<trkpt lat="31.7571990" lon="35.1479200">
<ele>703.000000</ele>
<time>2025-10-17T16:36:54.375Z</time>
</trkpt>
<trkpt lat="31.7571830" lon="35.1479330">
<ele>703.000000</ele>
<time>2025-10-17T16:36:54.375Z</time>
</trkpt>
<trkpt lat="31.7571740" lon="35.1479430">
<ele>703.000000</ele>
<time>2025-10-17T16:36:54.375Z</time>
</trkpt>
<trkpt lat="31.7571610" lon="35.1479570">
<ele>703.200012</ele>
<time>2025-10-17T16:36:54.375Z</time>
</trkpt>
<trkpt lat="31.7571480" lon="35.1479690">
<ele>703.399963</ele>
<time>2025-10-17T16:36:54.375Z</time>
</trkpt>
<trkpt lat="31.7571360" lon="35.1479840">
<ele>703.599976</ele>
<time>2025-10-17T16:36:54.375Z</time>
</trkpt>
<trkpt lat="31.7571270" lon="35.1480010">
<ele>703.599976</ele>
<time>2025-10-17T16:36:54.375Z</time>
</trkpt>
<trkpt lat="31.7571190" lon="35.1480160">
<ele>703.599976</ele>
<time>2025-10-17T16:36:54.375Z</time>
</trkpt>
<trkpt lat="31.7571130" lon="35.1480320">
<ele>703.799988</ele>
<time>2025-10-17T16:36:54.375Z</time>
</trkpt>
<trkpt lat="31.7571020" lon="35.1480470">
<ele>703.799988</ele>
<time>2025-10-17T16:36:54.375Z</time>
</trkpt>
<trkpt lat="31.7570910" lon="35.1480600">
<ele>703.999939</ele>
<time>2025-10-17T16:36:54.375Z</time>
</trkpt>
<trkpt lat="31.7570790" lon="35.1480720">
<ele>703.999939</ele>
<time>2025-10-17T16:36:54.375Z</time>
</trkpt>
<trkpt lat="31.7570700" lon="35.1480820">
<ele>704.200012</ele>
<time>2025-10-17T16:36:54.375Z</time>
</trkpt>
<trkpt lat="31.7570580" lon="35.1480940">
<ele>704.400024</ele>
<time>2025-10-17T16:36:54.375Z</time>
</trkpt>
<trkpt lat="31.7570480" lon="35.1481080">
<ele>704.400024</ele>
<time>2025-10-17T16:36:54.375Z</time>
</trkpt>
<trkpt lat="31.7570350" lon="35.1481230">
<ele>704.599976</ele>
<time>2025-10-17T16:36:54.376Z</time>
</trkpt>
<trkpt lat="31.7570220" lon="35.1481360">
<ele>704.599976</ele>
<time>2025-10-17T16:36:54.376Z</time>
</trkpt>
<trkpt lat="31.7570110" lon="35.1481470">
<ele>704.599976</ele>
<time>2025-10-17T16:36:54.376Z</time>
</trkpt>
<trkpt lat="31.7570010" lon="35.1481570">
<ele>704.799988</ele>
<time>2025-10-17T16:36:54.376Z</time>
</trkpt>
<trkpt lat="31.7569900" lon="35.1481690">
<ele>705.000000</ele>
<time>2025-10-17T16:36:54.376Z</time>
</trkpt>
<trkpt lat="31.7569810" lon="35.1481810">
<ele>705.199951</ele>
<time>2025-10-17T16:36:54.376Z</time>
</trkpt>
<trkpt lat="31.7569710" lon="35.1481950">
<ele>705.199951</ele>
<time>2025-10-17T16:36:54.376Z</time>
</trkpt>
<trkpt lat="31.7569590" lon="35.1482090">
<ele>705.799988</ele>
<time>2025-10-17T16:36:54.376Z</time>
</trkpt>
<trkpt lat="31.7569500" lon="35.1482260">
<ele>706.200012</ele>
<time>2025-10-17T16:36:54.376Z</time>
</trkpt>
<trkpt lat="31.7569430" lon="35.1482420">
<ele>706.599976</ele>
<time>2025-10-17T16:36:54.376Z</time>
</trkpt>
<trkpt lat="31.7569340" lon="35.1482590">
<ele>706.800049</ele>
<time>2025-10-17T16:36:54.376Z</time>
</trkpt>
<trkpt lat="31.7569240" lon="35.1482720">
<ele>707.200012</ele>
<time>2025-10-17T16:36:54.376Z</time>
</trkpt>
<trkpt lat="31.7569120" lon="35.1482830">
<ele>707.400024</ele>
<time>2025-10-17T16:36:54.376Z</time>
</trkpt>
<trkpt lat="31.7569020" lon="35.1482950">
<ele>707.599976</ele>
<time>2025-10-17T16:36:54.376Z</time>
</trkpt>
<trkpt lat="31.7568940" lon="35.1483050">
<ele>707.599976</ele>
<time>2025-10-17T16:36:54.376Z</time>
</trkpt>
<trkpt lat="31.7568850" lon="35.1483170">
<ele>707.599976</ele>
<time>2025-10-17T16:36:54.376Z</time>
</trkpt>
<trkpt lat="31.7568760" lon="35.1483290">
<ele>708.000000</ele>
<time>2025-10-17T16:36:54.376Z</time>
</trkpt>
<trkpt lat="31.7568640" lon="35.1483430">
<ele>708.400024</ele>
<time>2025-10-17T16:36:54.376Z</time>
</trkpt>
<trkpt lat="31.7568520" lon="35.1483530">
<ele>708.799988</ele>
<time>2025-10-17T16:36:54.376Z</time>
</trkpt>
<trkpt lat="31.7568400" lon="35.1483610">
<ele>709.000000</ele>
<time>2025-10-17T16:36:54.376Z</time>
</trkpt>
<trkpt lat="31.7568250" lon="35.1483700">
<ele>709.599976</ele>
<time>2025-10-17T16:36:54.376Z</time>
</trkpt>
<trkpt lat="31.7568110" lon="35.1483780">
<ele>709.800049</ele>
<time>2025-10-17T16:36:54.376Z</time>
</trkpt>
<trkpt lat="31.7567980" lon="35.1483850">
<ele>710.200012</ele>
<time>2025-10-17T16:36:54.376Z</time>
</trkpt>
<trkpt lat="31.7567860" lon="35.1483960">
<ele>710.400024</ele>
<time>2025-10-17T16:36:54.376Z</time>
</trkpt>
<trkpt lat="31.7567720" lon="35.1484070">
<ele>710.599976</ele>
<time>2025-10-17T16:36:54.376Z</time>
</trkpt>
<trkpt lat="31.7567580" lon="35.1484170">
<ele>710.799988</ele>
<time>2025-10-17T16:36:54.377Z</time>
</trkpt>
<trkpt lat="31.7567460" lon="35.1484270">
<ele>710.799988</ele>
<time>2025-10-17T16:36:54.377Z</time>
</trkpt>
<trkpt lat="31.7567320" lon="35.1484340">
<ele>711.000000</ele>
<time>2025-10-17T16:36:54.377Z</time>
</trkpt>
<trkpt lat="31.7567190" lon="35.1484350">
<ele>711.199951</ele>
<time>2025-10-17T16:36:54.377Z</time>
</trkpt>
<trkpt lat="31.7567070" lon="35.1484350">
<ele>711.400024</ele>
<time>2025-10-17T16:36:54.377Z</time>
</trkpt>
<trkpt lat="31.7566950" lon="35.1484390">
<ele>711.199951</ele>
<time>2025-10-17T16:36:54.377Z</time>
</trkpt>
<trkpt lat="31.7566840" lon="35.1484480">
<ele>711.400024</ele>
<time>2025-10-17T16:36:54.377Z</time>
</trkpt>
<trkpt lat="31.7566720" lon="35.1484550">
<ele>711.600037</ele>
<time>2025-10-17T16:36:54.377Z</time>
</trkpt>
<trkpt lat="31.7566630" lon="35.1484610">
<ele>711.600037</ele>
<time>2025-10-17T16:36:54.377Z</time>
</trkpt>
<trkpt lat="31.7566540" lon="35.1484680">
<ele>711.799988</ele>
<time>2025-10-17T16:36:54.377Z</time>
</trkpt>
<trkpt lat="31.7566450" lon="35.1484730">
<ele>712.000000</ele>
<time>2025-10-17T16:36:54.377Z</time>
</trkpt>
<trkpt lat="31.7566360" lon="35.1484810">
<ele>712.200012</ele>
<time>2025-10-17T16:36:54.377Z</time>
</trkpt>
<trkpt lat="31.7566300" lon="35.1484890">
<ele>712.200012</ele>
<time>2025-10-17T16:36:54.377Z</time>
</trkpt>
<trkpt lat="31.7566210" lon="35.1484990">
<ele>712.399963</ele>
<time>2025-10-17T16:36:54.377Z</time>
</trkpt>
<trkpt lat="31.7566120" lon="35.1485090">
<ele>712.599976</ele>
<time>2025-10-17T16:36:54.377Z</time>
</trkpt>
<trkpt lat="31.7566030" lon="35.1485200">
<ele>712.800049</ele>
<time>2025-10-17T16:36:54.377Z</time>
</trkpt>
<trkpt lat="31.7565910" lon="35.1485290">
<ele>712.800049</ele>
<time>2025-10-17T16:36:54.377Z</time>
</trkpt>
<trkpt lat="31.7565830" lon="35.1485330">
<ele>713.000000</ele>
<time>2025-10-17T16:36:54.377Z</time>
</trkpt>
<trkpt lat="31.7565700" lon="35.1485430">
<ele>713.000000</ele>
<time>2025-10-17T16:36:54.377Z</time>
</trkpt>
<trkpt lat="31.7565590" lon="35.1485530">
<ele>713.000000</ele>
<time>2025-10-17T16:36:54.377Z</time>
</trkpt>
<trkpt lat="31.7565500" lon="35.1485610">
<ele>713.200012</ele>
<time>2025-10-17T16:36:54.377Z</time>
</trkpt>
<trkpt lat="31.7565380" lon="35.1485620">
<ele>713.200012</ele>
<time>2025-10-17T16:36:54.377Z</time>
</trkpt>
<trkpt lat="31.7565230" lon="35.1485600">
<ele>713.200012</ele>
<time>2025-10-17T16:36:54.377Z</time>
</trkpt>
<trkpt lat="31.7565110" lon="35.1485530">
<ele>713.400024</ele>
<time>2025-10-17T16:36:54.377Z</time>
</trkpt>
<trkpt lat="31.7565020" lon="35.1485410">
<ele>713.400024</ele>
<time>2025-10-17T16:36:54.377Z</time>
</trkpt>
<trkpt lat="31.7564960" lon="35.1485240">
<ele>713.400024</ele>
<time>2025-10-17T16:36:54.377Z</time>
</trkpt>
<trkpt lat="31.7564920" lon="35.1485040">
<ele>713.599976</ele>
<time>2025-10-17T16:36:54.378Z</time>
</trkpt>
<trkpt lat="31.7564910" lon="35.1484840">
<ele>713.599976</ele>
<time>2025-10-17T16:36:54.378Z</time>
</trkpt>
<trkpt lat="31.7564930" lon="35.1484650">
<ele>713.799988</ele>
<time>2025-10-17T16:36:54.378Z</time>
</trkpt>
<trkpt lat="31.7565010" lon="35.1484410">
<ele>713.799988</ele>
<time>2025-10-17T16:36:54.378Z</time>
</trkpt>
<trkpt lat="31.7565120" lon="35.1484230">
<ele>713.799988</ele>
<time>2025-10-17T16:36:54.378Z</time>
</trkpt>
<trkpt lat="31.7565280" lon="35.1484110">
<ele>714.000000</ele>
<time>2025-10-17T16:36:54.378Z</time>
</trkpt>
<trkpt lat="31.7565500" lon="35.1484020">
<ele>714.000000</ele>
<time>2025-10-17T16:36:54.378Z</time>
</trkpt>
<trkpt lat="31.7565720" lon="35.1483940">
<ele>714.199951</ele>
<time>2025-10-17T16:36:54.378Z</time>
</trkpt>
<trkpt lat="31.7566100" lon="35.1483790">
<ele>714.199951</ele>
<time>2025-10-17T16:36:54.378Z</time>
</trkpt>
<trkpt lat="31.7566470" lon="35.1483620">
<ele>714.199951</ele>
<time>2025-10-17T16:36:54.378Z</time>
</trkpt>
<trkpt lat="31.7566870" lon="35.1483450">
<ele>714.199951</ele>
<time>2025-10-17T16:36:54.378Z</time>
</trkpt>
<trkpt lat="31.7567260" lon="35.1483310">
<ele>714.000000</ele>
<time>2025-10-17T16:36:54.378Z</time>
</trkpt>
<trkpt lat="31.7567600" lon="35.1483180">
<ele>714.000000</ele>
<time>2025-10-17T16:36:54.378Z</time>
</trkpt>
<trkpt lat="31.7567900" lon="35.1482950">
<ele>714.000000</ele>
<time>2025-10-17T16:36:54.378Z</time>
</trkpt>
<trkpt lat="31.7568140" lon="35.1482670">
<ele>713.599976</ele>
<time>2025-10-17T16:36:54.378Z</time>
</trkpt>
<trkpt lat="31.7568370" lon="35.1482370">
<ele>713.400024</ele>
<time>2025-10-17T16:36:54.378Z</time>
</trkpt>
<trkpt lat="31.7568610" lon="35.1482050">
<ele>713.200012</ele>
<time>2025-10-17T16:36:54.378Z</time>
</trkpt>
<trkpt lat="31.7568830" lon="35.1481720">
<ele>713.200012</ele>
<time>2025-10-17T16:36:54.378Z</time>
</trkpt>
<trkpt lat="31.7569470" lon="35.1480310">
<ele>712.599976</ele>
<time>2025-10-17T16:36:54.378Z</time>
</trkpt>
<trkpt lat="31.7569700" lon="35.1479940">
<ele>712.599976</ele>
<time>2025-10-17T16:36:54.378Z</time>
</trkpt>
<trkpt lat="31.7570020" lon="35.1479370">
<ele>712.599976</ele>
<time>2025-10-17T16:36:54.378Z</time>
</trkpt>
<trkpt lat="31.7570120" lon="35.1479210">
<ele>712.599976</ele>
<time>2025-10-17T16:36:54.378Z</time>
</trkpt>
<trkpt lat="31.7570220" lon="35.1479000">
<ele>712.599976</ele>
<time>2025-10-17T16:36:54.378Z</time>
</trkpt>
<trkpt lat="31.7570320" lon="35.1478760">
<ele>712.599976</ele>
<time>2025-10-17T16:36:54.378Z</time>
</trkpt>
<trkpt lat="31.7570410" lon="35.1478500">
<ele>712.599976</ele>
<time>2025-10-17T16:36:54.378Z</time>
</trkpt>
<trkpt lat="31.7570810" lon="35.1477510">
<ele>713.000000</ele>
<time>2025-10-17T16:36:54.379Z</time>
</trkpt>
<trkpt lat="31.7570940" lon="35.1477240">
<ele>713.200012</ele>
<time>2025-10-17T16:36:54.379Z</time>
</trkpt>
<trkpt lat="31.7571070" lon="35.1477050">
<ele>713.200012</ele>
<time>2025-10-17T16:36:54.379Z</time>
</trkpt>
<trkpt lat="31.7571200" lon="35.1476860">
<ele>713.400024</ele>
<time>2025-10-17T16:36:54.379Z</time>
</trkpt>
<trkpt lat="31.7571300" lon="35.1476690">
<ele>713.400024</ele>
<time>2025-10-17T16:36:54.379Z</time>
</trkpt>
<trkpt lat="31.7571410" lon="35.1476470">
<ele>713.599976</ele>
<time>2025-10-17T16:36:54.379Z</time>
</trkpt>
<trkpt lat="31.7571640" lon="35.1475700">
<ele>714.199951</ele>
<time>2025-10-17T16:36:54.379Z</time>
</trkpt>
<trkpt lat="31.7571740" lon="35.1475520">
<ele>714.400024</ele>
<time>2025-10-17T16:36:54.379Z</time>
</trkpt>
<trkpt lat="31.7571900" lon="35.1475290">
<ele>714.600037</ele>
<time>2025-10-17T16:36:54.379Z</time>
</trkpt>
<trkpt lat="31.7572090" lon="35.1475120">
<ele>714.600037</ele>
<time>2025-10-17T16:36:54.379Z</time>
</trkpt>
<trkpt lat="31.7572270" lon="35.1474940">
<ele>714.799988</ele>
<time>2025-10-17T16:36:54.379Z</time>
</trkpt>
<trkpt lat="31.7572480" lon="35.1474720">
<ele>714.799988</ele>
<time>2025-10-17T16:36:54.379Z</time>
</trkpt>
<trkpt lat="31.7572650" lon="35.1474450">
<ele>715.000000</ele>
<time>2025-10-17T16:36:54.379Z</time>
</trkpt>
<trkpt lat="31.7573970" lon="35.1472340">
<ele>715.399963</ele>
<time>2025-10-17T16:36:54.379Z</time>
</trkpt>
<trkpt lat="31.7574150" lon="35.1471830">
<ele>715.800049</ele>
<time>2025-10-17T16:36:54.379Z</time>
</trkpt>
<trkpt lat="31.7574250" lon="35.1471550">
<ele>716.000000</ele>
<time>2025-10-17T16:36:54.379Z</time>
</trkpt>
<trkpt lat="31.7574370" lon="35.1471220">
<ele>716.000000</ele>
<time>2025-10-17T16:36:54.379Z</time>
</trkpt>
<trkpt lat="31.7574520" lon="35.1470970">
<ele>716.200012</ele>
<time>2025-10-17T16:36:54.379Z</time>
</trkpt>
<trkpt lat="31.7574640" lon="35.1470760">
<ele>716.200012</ele>
<time>2025-10-17T16:36:54.379Z</time>
</trkpt>
<trkpt lat="31.7574780" lon="35.1470490">
<ele>716.200012</ele>
<time>2025-10-17T16:36:54.379Z</time>
</trkpt>
<trkpt lat="31.7576240" lon="35.1468570">
<ele>716.599976</ele>
<time>2025-10-17T16:36:54.379Z</time>
</trkpt>
<trkpt lat="31.7576790" lon="35.1467750">
<ele>716.599976</ele>
<time>2025-10-17T16:36:54.379Z</time>
</trkpt>
<trkpt lat="31.7577400" lon="35.1466420">
<ele>716.599976</ele>
<time>2025-10-17T16:36:54.379Z</time>
</trkpt>
<trkpt lat="31.7578740" lon="35.1463700">
<ele>716.400024</ele>
<time>2025-10-17T16:36:54.379Z</time>
</trkpt>
<trkpt lat="31.7578890" lon="35.1463330">
<ele>716.400024</ele>
<time>2025-10-17T16:36:54.379Z</time>
</trkpt>
<trkpt lat="31.7579090" lon="35.1462890">
<ele>716.400024</ele>
<time>2025-10-17T16:36:54.379Z</time>
</trkpt>
<trkpt lat="31.7579260" lon="35.1462600">
<ele>716.400024</ele>
<time>2025-10-17T16:36:54.379Z</time>
</trkpt>
<trkpt lat="31.7579540" lon="35.1462180">
<ele>716.400024</ele>
<time>2025-10-17T16:36:54.380Z</time>
</trkpt>
<trkpt lat="31.7579740" lon="35.1461860">
<ele>716.400024</ele>
<time>2025-10-17T16:36:54.380Z</time>
</trkpt>
<trkpt lat="31.7580330" lon="35.1460930">
<ele>716.400024</ele>
<time>2025-10-17T16:36:54.380Z</time>
</trkpt>
<trkpt lat="31.7581230" lon="35.1458140">
<ele>716.200012</ele>
<time>2025-10-17T16:36:54.380Z</time>
</trkpt>
<trkpt lat="31.7581350" lon="35.1457640">
<ele>716.200012</ele>
<time>2025-10-17T16:36:54.380Z</time>
</trkpt>
<trkpt lat="31.7581530" lon="35.1457140">
<ele>716.000000</ele>
<time>2025-10-17T16:36:54.380Z</time>
</trkpt>
<trkpt lat="31.7581880" lon="35.1456210">
<ele>716.000000</ele>
<time>2025-10-17T16:36:54.380Z</time>
</trkpt>
<trkpt lat="31.7582190" lon="35.1455620">
<ele>716.000000</ele>
<time>2025-10-17T16:36:54.380Z</time>
</trkpt>
<trkpt lat="31.7582490" lon="35.1455120">
<ele>715.800049</ele>
<time>2025-10-17T16:36:54.380Z</time>
</trkpt>
<trkpt lat="31.7583810" lon="35.1452950">
<ele>715.599976</ele>
<time>2025-10-17T16:36:54.380Z</time>
</trkpt>
<trkpt lat="31.7584560" lon="35.1451780">
<ele>715.599976</ele>
<time>2025-10-17T16:36:54.380Z</time>
</trkpt>
<trkpt lat="31.7585140" lon="35.1450950">
<ele>715.200012</ele>
<time>2025-10-17T16:36:54.380Z</time>
</trkpt>
<trkpt lat="31.7585410" lon="35.1450450">
<ele>715.000000</ele>
<time>2025-10-17T16:36:54.380Z</time>
</trkpt>
<trkpt lat="31.7585620" lon="35.1450040">
<ele>715.000000</ele>
<time>2025-10-17T16:36:54.380Z</time>
</trkpt>
<trkpt lat="31.7585780" lon="35.1449720">
<ele>714.799988</ele>
<time>2025-10-17T16:36:54.380Z</time>
</trkpt>
<trkpt lat="31.7585980" lon="35.1449340">
<ele>714.799988</ele>
<time>2025-10-17T16:36:54.380Z</time>
</trkpt>
<trkpt lat="31.7586170" lon="35.1448960">
<ele>715.000000</ele>
<time>2025-10-17T16:36:54.380Z</time>
</trkpt>
<trkpt lat="31.7586340" lon="35.1448490">
<ele>715.000000</ele>
<time>2025-10-17T16:36:54.380Z</time>
</trkpt>
<trkpt lat="31.7586700" lon="35.1447740">
<ele>715.399963</ele>
<time>2025-10-17T16:36:54.380Z</time>
</trkpt>
<trkpt lat="31.7586880" lon="35.1447460">
<ele>715.599976</ele>
<time>2025-10-17T16:36:54.380Z</time>
</trkpt>
<trkpt lat="31.7587120" lon="35.1447120">
<ele>715.599976</ele>
<time>2025-10-17T16:36:54.380Z</time>
</trkpt>
<trkpt lat="31.7587390" lon="35.1446680">
<ele>715.800049</ele>
<time>2025-10-17T16:36:54.380Z</time>
</trkpt>
<trkpt lat="31.7587590" lon="35.1446260">
<ele>715.800049</ele>
<time>2025-10-17T16:36:54.380Z</time>
</trkpt>
<trkpt lat="31.7587780" lon="35.1445870">
<ele>716.200012</ele>
<time>2025-10-17T16:36:54.380Z</time>
</trkpt>
<trkpt lat="31.7587940" lon="35.1445580">
<ele>716.400024</ele>
<time>2025-10-17T16:36:54.380Z</time>
</trkpt>
<trkpt lat="31.7588130" lon="35.1445090">
<ele>716.400024</ele>
<time>2025-10-17T16:36:54.380Z</time>
</trkpt>
<trkpt lat="31.7588580" lon="35.1443590">
<ele>716.599976</ele>
<time>2025-10-17T16:36:54.380Z</time>
</trkpt>
<trkpt lat="31.7588760" lon="35.1442910">
<ele>716.599976</ele>
<time>2025-10-17T16:36:54.380Z</time>
</trkpt>
<trkpt lat="31.7588940" lon="35.1442270">
<ele>716.799988</ele>
<time>2025-10-17T16:36:54.381Z</time>
</trkpt>
<trkpt lat="31.7589060" lon="35.1441880">
<ele>717.000000</ele>
<time>2025-10-17T16:36:54.381Z</time>
</trkpt>
<trkpt lat="31.7589160" lon="35.1441530">
<ele>717.000000</ele>
<time>2025-10-17T16:36:54.381Z</time>
</trkpt>
<trkpt lat="31.7589250" lon="35.1441180">
<ele>717.199951</ele>
<time>2025-10-17T16:36:54.381Z</time>
</trkpt>
<trkpt lat="31.7589320" lon="35.1440850">
<ele>717.400024</ele>
<time>2025-10-17T16:36:54.381Z</time>
</trkpt>
<trkpt lat="31.7589370" lon="35.1440620">
<ele>717.600037</ele>
<time>2025-10-17T16:36:54.381Z</time>
</trkpt>
<trkpt lat="31.7589410" lon="35.1440360">
<ele>717.799988</ele>
<time>2025-10-17T16:36:54.381Z</time>
</trkpt>
<trkpt lat="31.7589450" lon="35.1440030">
<ele>717.799988</ele>
<time>2025-10-17T16:36:54.381Z</time>
</trkpt>
<trkpt lat="31.7589470" lon="35.1439770">
<ele>718.000000</ele>
<time>2025-10-17T16:36:54.381Z</time>
</trkpt>
<trkpt lat="31.7589470" lon="35.1439520">
<ele>718.200012</ele>
<time>2025-10-17T16:36:54.381Z</time>
</trkpt>
<trkpt lat="31.7589470" lon="35.1439330">
<ele>718.600037</ele>
<time>2025-10-17T16:36:54.381Z</time>
</trkpt>
<trkpt lat="31.7589510" lon="35.1439050">
<ele>719.200012</ele>
<time>2025-10-17T16:36:54.381Z</time>
</trkpt>
<trkpt lat="31.7589540" lon="35.1438830">
<ele>719.400024</ele>
<time>2025-10-17T16:36:54.381Z</time>
</trkpt>
<trkpt lat="31.7589560" lon="35.1438610">
<ele>719.799988</ele>
<time>2025-10-17T16:36:54.381Z</time>
</trkpt>
<trkpt lat="31.7589600" lon="35.1438420">
<ele>719.799988</ele>
<time>2025-10-17T16:36:54.381Z</time>
</trkpt>
<trkpt lat="31.7589650" lon="35.1438130">
<ele>720.000061</ele>
<time>2025-10-17T16:36:54.381Z</time>
</trkpt>
<trkpt lat="31.7589680" lon="35.1437820">
<ele>720.000061</ele>
<time>2025-10-17T16:36:54.381Z</time>
</trkpt>
<trkpt lat="31.7589730" lon="35.1437530">
<ele>720.200012</ele>
<time>2025-10-17T16:36:54.381Z</time>
</trkpt>
<trkpt lat="31.7589780" lon="35.1437240">
<ele>720.400024</ele>
<time>2025-10-17T16:36:54.381Z</time>
</trkpt>
<trkpt lat="31.7589860" lon="35.1436990">
<ele>720.600037</ele>
<time>2025-10-17T16:36:54.381Z</time>
</trkpt>
<trkpt lat="31.7590010" lon="35.1436670">
<ele>720.600037</ele>
<time>2025-10-17T16:36:54.381Z</time>
</trkpt>
<trkpt lat="31.7590180" lon="35.1436260">
<ele>720.799988</ele>
<time>2025-10-17T16:36:54.381Z</time>
</trkpt>
<trkpt lat="31.7590290" lon="35.1435980">
<ele>720.799988</ele>
<time>2025-10-17T16:36:54.381Z</time>
</trkpt>
<trkpt lat="31.7590480" lon="35.1435580">
<ele>721.000000</ele>
<time>2025-10-17T16:36:54.381Z</time>
</trkpt>
<trkpt lat="31.7590600" lon="35.1435310">
<ele>721.200012</ele>
<time>2025-10-17T16:36:54.381Z</time>
</trkpt>
<trkpt lat="31.7590730" lon="35.1434950">
<ele>721.200012</ele>
<time>2025-10-17T16:36:54.381Z</time>
</trkpt>
<trkpt lat="31.7590800" lon="35.1434590">
<ele>721.399963</ele>
<time>2025-10-17T16:36:54.381Z</time>
</trkpt>
<trkpt lat="31.7590850" lon="35.1434200">
<ele>721.399963</ele>
<time>2025-10-17T16:36:54.382Z</time>
</trkpt>
<trkpt lat="31.7590890" lon="35.1433780">
<ele>721.399963</ele>
<time>2025-10-17T16:36:54.382Z</time>
</trkpt>
<trkpt lat="31.7590940" lon="35.1433310">
<ele>721.399963</ele>
<time>2025-10-17T16:36:54.382Z</time>
</trkpt>
<trkpt lat="31.7590960" lon="35.1433030">
<ele>721.399963</ele>
<time>2025-10-17T16:36:54.382Z</time>
</trkpt>
<trkpt lat="31.7591020" lon="35.1432710">
<ele>721.399963</ele>
<time>2025-10-17T16:36:54.382Z</time>
</trkpt>
<trkpt lat="31.7591090" lon="35.1432300">
<ele>721.399963</ele>
<time>2025-10-17T16:36:54.382Z</time>
</trkpt>
<trkpt lat="31.7591160" lon="35.1432020">
<ele>721.600037</ele>
<time>2025-10-17T16:36:54.382Z</time>
</trkpt>
<trkpt lat="31.7591220" lon="35.1431820">
<ele>721.600037</ele>
<time>2025-10-17T16:36:54.382Z</time>
</trkpt>
<trkpt lat="31.7591300" lon="35.1431570">
<ele>721.800049</ele>
<time>2025-10-17T16:36:54.382Z</time>
</trkpt>
<trkpt lat="31.7591350" lon="35.1431280">
<ele>721.800049</ele>
<time>2025-10-17T16:36:54.382Z</time>
</trkpt>
<trkpt lat="31.7591390" lon="35.1430960">
<ele>722.000000</ele>
<time>2025-10-17T16:36:54.382Z</time>
</trkpt>
<trkpt lat="31.7591490" lon="35.1430670">
<ele>722.000000</ele>
<time>2025-10-17T16:36:54.382Z</time>
</trkpt>
<trkpt lat="31.7591570" lon="35.1430280">
<ele>722.400024</ele>
<time>2025-10-17T16:36:54.382Z</time>
</trkpt>
<trkpt lat="31.7591630" lon="35.1429740">
<ele>722.599976</ele>
<time>2025-10-17T16:36:54.382Z</time>
</trkpt>
<trkpt lat="31.7591750" lon="35.1429320">
<ele>722.799988</ele>
<time>2025-10-17T16:36:54.382Z</time>
</trkpt>
<trkpt lat="31.7591900" lon="35.1428950">
<ele>723.000061</ele>
<time>2025-10-17T16:36:54.382Z</time>
</trkpt>
<trkpt lat="31.7592040" lon="35.1428580">
<ele>723.000061</ele>
<time>2025-10-17T16:36:54.382Z</time>
</trkpt>
<trkpt lat="31.7592160" lon="35.1428180">
<ele>723.200012</ele>
<time>2025-10-17T16:36:54.382Z</time>
</trkpt>
<trkpt lat="31.7592290" lon="35.1427790">
<ele>723.200012</ele>
<time>2025-10-17T16:36:54.382Z</time>
</trkpt>
<trkpt lat="31.7592370" lon="35.1427380">
<ele>723.200012</ele>
<time>2025-10-17T16:36:54.382Z</time>
</trkpt>
<trkpt lat="31.7592440" lon="35.1426940">
<ele>723.200012</ele>
<time>2025-10-17T16:36:54.382Z</time>
</trkpt>
<trkpt lat="31.7592550" lon="35.1426590">
<ele>723.200012</ele>
<time>2025-10-17T16:36:54.382Z</time>
</trkpt>
<trkpt lat="31.7592700" lon="35.1426280">
<ele>723.200012</ele>
<time>2025-10-17T16:36:54.382Z</time>
</trkpt>
<trkpt lat="31.7592880" lon="35.1425990">
<ele>723.200012</ele>
<time>2025-10-17T16:36:54.382Z</time>
</trkpt>
<trkpt lat="31.7593050" lon="35.1425630">
<ele>723.200012</ele>
<time>2025-10-17T16:36:54.382Z</time>
</trkpt>
<trkpt lat="31.7593130" lon="35.1425140">
<ele>723.200012</ele>
<time>2025-10-17T16:36:54.382Z</time>
</trkpt>
<trkpt lat="31.7593230" lon="35.1424620">
<ele>723.200012</ele>
<time>2025-10-17T16:36:54.382Z</time>
</trkpt>
<trkpt lat="31.7593460" lon="35.1424180">
<ele>723.200012</ele>
<time>2025-10-17T16:36:54.382Z</time>
</trkpt>
<trkpt lat="31.7593720" lon="35.1423710">
<ele>723.000061</ele>
<time>2025-10-17T16:36:54.383Z</time>
</trkpt>
<trkpt lat="31.7593860" lon="35.1423150">
<ele>723.000061</ele>
<time>2025-10-17T16:36:54.383Z</time>
</trkpt>
<trkpt lat="31.7593920" lon="35.1422540">
<ele>722.799988</ele>
<time>2025-10-17T16:36:54.383Z</time>
</trkpt>
<trkpt lat="31.7593900" lon="35.1421950">
<ele>722.799988</ele>
<time>2025-10-17T16:36:54.383Z</time>
</trkpt>
<trkpt lat="31.7593880" lon="35.1421360">
<ele>722.599976</ele>
<time>2025-10-17T16:36:54.383Z</time>
</trkpt>
<trkpt lat="31.7593870" lon="35.1420730">
<ele>722.400024</ele>
<time>2025-10-17T16:36:54.383Z</time>
</trkpt>
<trkpt lat="31.7593770" lon="35.1420120">
<ele>721.800049</ele>
<time>2025-10-17T16:36:54.383Z</time>
</trkpt>
<trkpt lat="31.7593550" lon="35.1419570">
<ele>721.600037</ele>
<time>2025-10-17T16:36:54.383Z</time>
</trkpt>
<trkpt lat="31.7593250" lon="35.1418970">
<ele>720.799988</ele>
<time>2025-10-17T16:36:54.383Z</time>
</trkpt>
<trkpt lat="31.7592960" lon="35.1418290">
<ele>720.000061</ele>
<time>2025-10-17T16:36:54.383Z</time>
</trkpt>
<trkpt lat="31.7592600" lon="35.1417570">
<ele>719.599976</ele>
<time>2025-10-17T16:36:54.383Z</time>
</trkpt>
<trkpt lat="31.7592270" lon="35.1416850">
<ele>719.200012</ele>
<time>2025-10-17T16:36:54.383Z</time>
</trkpt>
<trkpt lat="31.7591790" lon="35.1415310">
<ele>718.399963</ele>
<time>2025-10-17T16:36:54.383Z</time>
</trkpt>
<trkpt lat="31.7591610" lon="35.1414460">
<ele>718.200012</ele>
<time>2025-10-17T16:36:54.383Z</time>
</trkpt>
<trkpt lat="31.7591350" lon="35.1413730">
<ele>717.600037</ele>
<time>2025-10-17T16:36:54.383Z</time>
</trkpt>
<trkpt lat="31.7590760" lon="35.1412180">
<ele>716.599976</ele>
<time>2025-10-17T16:36:54.383Z</time>
</trkpt>
<trkpt lat="31.7590430" lon="35.1411430">
<ele>715.599976</ele>
<time>2025-10-17T16:36:54.383Z</time>
</trkpt>
<trkpt lat="31.7590020" lon="35.1410770">
<ele>714.799988</ele>
<time>2025-10-17T16:36:54.383Z</time>
</trkpt>
<trkpt lat="31.7589570" lon="35.1410190">
<ele>713.799988</ele>
<time>2025-10-17T16:36:54.383Z</time>
</trkpt>
<trkpt lat="31.7589060" lon="35.1409760">
<ele>713.400024</ele>
<time>2025-10-17T16:36:54.383Z</time>
</trkpt>
<trkpt lat="31.7588550" lon="35.1409380">
<ele>712.800049</ele>
<time>2025-10-17T16:36:54.383Z</time>
</trkpt>
<trkpt lat="31.7588130" lon="35.1409080">
<ele>712.399963</ele>
<time>2025-10-17T16:36:54.383Z</time>
</trkpt>
<trkpt lat="31.7587760" lon="35.1408860">
<ele>712.200012</ele>
<time>2025-10-17T16:36:54.383Z</time>
</trkpt>
<trkpt lat="31.7587340" lon="35.1408590">
<ele>712.200012</ele>
<time>2025-10-17T16:36:54.383Z</time>
</trkpt>
<trkpt lat="31.7586890" lon="35.1408320">
<ele>712.000000</ele>
<time>2025-10-17T16:36:54.383Z</time>
</trkpt>
<trkpt lat="31.7585450" lon="35.1407500">
<ele>711.600037</ele>
<time>2025-10-17T16:36:54.383Z</time>
</trkpt>
<trkpt lat="31.7584880" lon="35.1407290">
<ele>711.400024</ele>
<time>2025-10-17T16:36:54.383Z</time>
</trkpt>
<trkpt lat="31.7584380" lon="35.1407180">
<ele>711.199951</ele>
<time>2025-10-17T16:36:54.383Z</time>
</trkpt>
<trkpt lat="31.7583850" lon="35.1407060">
<ele>711.199951</ele>
<time>2025-10-17T16:36:54.384Z</time>
</trkpt>
<trkpt lat="31.7582400" lon="35.1406810">
<ele>711.199951</ele>
<time>2025-10-17T16:36:54.384Z</time>
</trkpt>
<trkpt lat="31.7581800" lon="35.1406700">
<ele>711.000000</ele>
<time>2025-10-17T16:36:54.384Z</time>
</trkpt>
<trkpt lat="31.7581290" lon="35.1406640">
<ele>711.000000</ele>
<time>2025-10-17T16:36:54.384Z</time>
</trkpt>
<trkpt lat="31.7580910" lon="35.1406550">
<ele>711.000000</ele>
<time>2025-10-17T16:36:54.384Z</time>
</trkpt>
<trkpt lat="31.7580410" lon="35.1406450">
<ele>711.000000</ele>
<time>2025-10-17T16:36:54.384Z</time>
</trkpt>
<trkpt lat="31.7579930" lon="35.1406430">
<ele>711.000000</ele>
<time>2025-10-17T16:36:54.384Z</time>
</trkpt>
<trkpt lat="31.7579490" lon="35.1406470">
<ele>711.000000</ele>
<time>2025-10-17T16:36:54.384Z</time>
</trkpt>
<trkpt lat="31.7578990" lon="35.1406560">
<ele>711.000000</ele>
<time>2025-10-17T16:36:54.384Z</time>
</trkpt>
<trkpt lat="31.7578710" lon="35.1406590">
<ele>711.000000</ele>
<time>2025-10-17T16:36:54.384Z</time>
</trkpt>
<trkpt lat="31.7578360" lon="35.1406560">
<ele>711.199951</ele>
<time>2025-10-17T16:36:54.384Z</time>
</trkpt>
<trkpt lat="31.7578020" lon="35.1406530">
<ele>711.600037</ele>
<time>2025-10-17T16:36:54.384Z</time>
</trkpt>
<trkpt lat="31.7577620" lon="35.1406490">
<ele>712.000000</ele>
<time>2025-10-17T16:36:54.384Z</time>
</trkpt>
<trkpt lat="31.7577370" lon="35.1406500">
<ele>712.200012</ele>
<time>2025-10-17T16:36:54.384Z</time>
</trkpt>
<trkpt lat="31.7577100" lon="35.1406530">
<ele>712.399963</ele>
<time>2025-10-17T16:36:54.384Z</time>
</trkpt>
<trkpt lat="31.7576820" lon="35.1406550">
<ele>712.599976</ele>
<time>2025-10-17T16:36:54.384Z</time>
</trkpt>
<trkpt lat="31.7576580" lon="35.1406580">
<ele>712.800049</ele>
<time>2025-10-17T16:36:54.384Z</time>
</trkpt>
<trkpt lat="31.7576370" lon="35.1406630">
<ele>713.200012</ele>
<time>2025-10-17T16:36:54.384Z</time>
</trkpt>
<trkpt lat="31.7576190" lon="35.1406690">
<ele>713.400024</ele>
<time>2025-10-17T16:36:54.384Z</time>
</trkpt>
<trkpt lat="31.7576010" lon="35.1406750">
<ele>713.799988</ele>
<time>2025-10-17T16:36:54.384Z</time>
</trkpt>
<trkpt lat="31.7575820" lon="35.1406830">
<ele>714.000000</ele>
<time>2025-10-17T16:36:54.384Z</time>
</trkpt>
<trkpt lat="31.7575640" lon="35.1406910">
<ele>714.400024</ele>
<time>2025-10-17T16:36:54.384Z</time>
</trkpt>
<trkpt lat="31.7575240" lon="35.1407020">
<ele>714.799988</ele>
<time>2025-10-17T16:36:54.384Z</time>
</trkpt>
<trkpt lat="31.7575060" lon="35.1407110">
<ele>715.000000</ele>
<time>2025-10-17T16:36:54.384Z</time>
</trkpt>
<trkpt lat="31.7574810" lon="35.1407160">
<ele>715.200012</ele>
<time>2025-10-17T16:36:54.384Z</time>
</trkpt>
<trkpt lat="31.7574480" lon="35.1407180">
<ele>715.599976</ele>
<time>2025-10-17T16:36:54.384Z</time>
</trkpt>
<trkpt lat="31.7574220" lon="35.1407120">
<ele>715.800049</ele>
<time>2025-10-17T16:36:54.384Z</time>
</trkpt>
<trkpt lat="31.7574000" lon="35.1407040">
<ele>716.000000</ele>
<time>2025-10-17T16:36:54.385Z</time>
</trkpt>
<trkpt lat="31.7573620" lon="35.1406970">
<ele>716.200012</ele>
<time>2025-10-17T16:36:54.385Z</time>
</trkpt>
<trkpt lat="31.7573100" lon="35.1406920">
<ele>716.400024</ele>
<time>2025-10-17T16:36:54.385Z</time>
</trkpt>
<trkpt lat="31.7572680" lon="35.1406810">
<ele>716.400024</ele>
<time>2025-10-17T16:36:54.385Z</time>
</trkpt>
<trkpt lat="31.7572250" lon="35.1406600">
<ele>716.400024</ele>
<time>2025-10-17T16:36:54.385Z</time>
</trkpt>
<trkpt lat="31.7571910" lon="35.1406490">
<ele>716.400024</ele>
<time>2025-10-17T16:36:54.385Z</time>
</trkpt>
<trkpt lat="31.7571480" lon="35.1406460">
<ele>716.400024</ele>
<time>2025-10-17T16:36:54.385Z</time>
</trkpt>
<trkpt lat="31.7571100" lon="35.1406480">
<ele>716.400024</ele>
<time>2025-10-17T16:36:54.385Z</time>
</trkpt>
<trkpt lat="31.7570660" lon="35.1406470">
<ele>716.400024</ele>
<time>2025-10-17T16:36:54.385Z</time>
</trkpt>
<trkpt lat="31.7570310" lon="35.1406460">
<ele>716.400024</ele>
<time>2025-10-17T16:36:54.385Z</time>
</trkpt>
<trkpt lat="31.7570090" lon="35.1406480">
<ele>716.400024</ele>
<time>2025-10-17T16:36:54.385Z</time>
</trkpt>
<trkpt lat="31.7569820" lon="35.1406530">
<ele>716.400024</ele>
<time>2025-10-17T16:36:54.385Z</time>
</trkpt>
<trkpt lat="31.7569570" lon="35.1406520">
<ele>716.400024</ele>
<time>2025-10-17T16:36:54.385Z</time>
</trkpt>
<trkpt lat="31.7569290" lon="35.1406500">
<ele>716.400024</ele>
<time>2025-10-17T16:36:54.385Z</time>
</trkpt>
<trkpt lat="31.7568920" lon="35.1406470">
<ele>716.400024</ele>
<time>2025-10-17T16:36:54.385Z</time>
</trkpt>
<trkpt lat="31.7568630" lon="35.1406450">
<ele>716.400024</ele>
<time>2025-10-17T16:36:54.385Z</time>
</trkpt>
<trkpt lat="31.7568270" lon="35.1406430">
<ele>716.599976</ele>
<time>2025-10-17T16:36:54.385Z</time>
</trkpt>
<trkpt lat="31.7567850" lon="35.1406430">
<ele>716.599976</ele>
<time>2025-10-17T16:36:54.385Z</time>
</trkpt>
<trkpt lat="31.7567500" lon="35.1406480">
<ele>717.000000</ele>
<time>2025-10-17T16:36:54.385Z</time>
</trkpt>
<trkpt lat="31.7567150" lon="35.1406560">
<ele>717.000000</ele>
<time>2025-10-17T16:36:54.385Z</time>
</trkpt>
<trkpt lat="31.7566870" lon="35.1406620">
<ele>717.000000</ele>
<time>2025-10-17T16:36:54.385Z</time>
</trkpt>
<trkpt lat="31.7566490" lon="35.1406680">
<ele>717.000000</ele>
<time>2025-10-17T16:36:54.385Z</time>
</trkpt>
<trkpt lat="31.7565240" lon="35.1407190">
<ele>717.199951</ele>
<time>2025-10-17T16:36:54.385Z</time>
</trkpt>
<trkpt lat="31.7565010" lon="35.1407360">
<ele>717.199951</ele>
<time>2025-10-17T16:36:54.385Z</time>
</trkpt>
<trkpt lat="31.7564820" lon="35.1407530">
<ele>717.199951</ele>
<time>2025-10-17T16:36:54.385Z</time>
</trkpt>
<trkpt lat="31.7564660" lon="35.1407620">
<ele>717.199951</ele>
<time>2025-10-17T16:36:54.385Z</time>
</trkpt>
<trkpt lat="31.7564460" lon="35.1407630">
<ele>717.400024</ele>
<time>2025-10-17T16:36:54.385Z</time>
</trkpt>
<trkpt lat="31.7564220" lon="35.1407600">
<ele>717.400024</ele>
<time>2025-10-17T16:36:54.386Z</time>
</trkpt>
<trkpt lat="31.7563970" lon="35.1407540">
<ele>717.400024</ele>
<time>2025-10-17T16:36:54.386Z</time>
</trkpt>
<trkpt lat="31.7563650" lon="35.1407430">
<ele>717.600037</ele>
<time>2025-10-17T16:36:54.386Z</time>
</trkpt>
<trkpt lat="31.7563310" lon="35.1407110">
<ele>717.799988</ele>
<time>2025-10-17T16:36:54.386Z</time>
</trkpt>
<trkpt lat="31.7563190" lon="35.1406820">
<ele>718.000000</ele>
<time>2025-10-17T16:36:54.386Z</time>
</trkpt>
<trkpt lat="31.7563170" lon="35.1406510">
<ele>718.200012</ele>
<time>2025-10-17T16:36:54.386Z</time>
</trkpt>
<trkpt lat="31.7563360" lon="35.1405930">
<ele>718.399963</ele>
<time>2025-10-17T16:36:54.386Z</time>
</trkpt>
<trkpt lat="31.7563640" lon="35.1405400">
<ele>718.399963</ele>
<time>2025-10-17T16:36:54.386Z</time>
</trkpt>
<trkpt lat="31.7563810" lon="35.1405110">
<ele>718.600037</ele>
<time>2025-10-17T16:36:54.386Z</time>
</trkpt>
<trkpt lat="31.7564030" lon="35.1404850">
<ele>718.600037</ele>
<time>2025-10-17T16:36:54.386Z</time>
</trkpt>
<trkpt lat="31.7564270" lon="35.1404600">
<ele>718.399963</ele>
<time>2025-10-17T16:36:54.386Z</time>
</trkpt>
<trkpt lat="31.7564740" lon="35.1404120">
<ele>718.200012</ele>
<time>2025-10-17T16:36:54.386Z</time>
</trkpt>
<trkpt lat="31.7564970" lon="35.1403990">
<ele>718.000000</ele>
<time>2025-10-17T16:36:54.386Z</time>
</trkpt>
<trkpt lat="31.7565220" lon="35.1403930">
<ele>717.799988</ele>
<time>2025-10-17T16:36:54.386Z</time>
</trkpt>
<trkpt lat="31.7565370" lon="35.1403860">
<ele>717.799988</ele>
<time>2025-10-17T16:36:54.386Z</time>
</trkpt>
<trkpt lat="31.7565480" lon="35.1403830">
<ele>717.400024</ele>
<time>2025-10-17T16:36:54.386Z</time>
</trkpt>
<trkpt lat="31.7565640" lon="35.1403810">
<ele>717.199951</ele>
<time>2025-10-17T16:36:54.386Z</time>
</trkpt>
<trkpt lat="31.7565860" lon="35.1403800">
<ele>717.000000</ele>
<time>2025-10-17T16:36:54.386Z</time>
</trkpt>
<trkpt lat="31.7566160" lon="35.1403760">
<ele>716.599976</ele>
<time>2025-10-17T16:36:54.386Z</time>
</trkpt>
<trkpt lat="31.7566530" lon="35.1403660">
<ele>716.200012</ele>
<time>2025-10-17T16:36:54.386Z</time>
</trkpt>
<trkpt lat="31.7566840" lon="35.1403430">
<ele>716.000000</ele>
<time>2025-10-17T16:36:54.386Z</time>
</trkpt>
<trkpt lat="31.7566990" lon="35.1403190">
<ele>715.599976</ele>
<time>2025-10-17T16:36:54.386Z</time>
</trkpt>
<trkpt lat="31.7567200" lon="35.1402770">
<ele>715.399963</ele>
<time>2025-10-17T16:36:54.386Z</time>
</trkpt>
<trkpt lat="31.7567420" lon="35.1402480">
<ele>715.000000</ele>
<time>2025-10-17T16:36:54.386Z</time>
</trkpt>
<trkpt lat="31.7567710" lon="35.1402200">
<ele>714.400024</ele>
<time>2025-10-17T16:36:54.386Z</time>
</trkpt>
<trkpt lat="31.7568260" lon="35.1401610">
<ele>713.400024</ele>
<time>2025-10-17T16:36:54.386Z</time>
</trkpt>
<trkpt lat="31.7568560" lon="35.1401180">
<ele>713.000000</ele>
<time>2025-10-17T16:36:54.386Z</time>
</trkpt>
<trkpt lat="31.7568910" lon="35.1400450">
<ele>712.399963</ele>
<time>2025-10-17T16:36:54.387Z</time>
</trkpt>
<trkpt lat="31.7569010" lon="35.1400200">
<ele>712.000000</ele>
<time>2025-10-17T16:36:54.387Z</time>
</trkpt>
<trkpt lat="31.7569200" lon="35.1399840">
<ele>711.799988</ele>
<time>2025-10-17T16:36:54.387Z</time>
</trkpt>
<trkpt lat="31.7569450" lon="35.1399430">
<ele>711.400024</ele>
<time>2025-10-17T16:36:54.387Z</time>
</trkpt>
<trkpt lat="31.7569650" lon="35.1399080">
<ele>711.400024</ele>
<time>2025-10-17T16:36:54.387Z</time>
</trkpt>
<trkpt lat="31.7569870" lon="35.1398720">
<ele>711.199951</ele>
<time>2025-10-17T16:36:54.387Z</time>
</trkpt>
<trkpt lat="31.7570030" lon="35.1398430">
<ele>710.799988</ele>
<time>2025-10-17T16:36:54.387Z</time>
</trkpt>
<trkpt lat="31.7570440" lon="35.1397720">
<ele>710.599976</ele>
<time>2025-10-17T16:36:54.387Z</time>
</trkpt>
<trkpt lat="31.7570840" lon="35.1397010">
<ele>710.200012</ele>
<time>2025-10-17T16:36:54.387Z</time>
</trkpt>
<trkpt lat="31.7570930" lon="35.1396710">
<ele>710.200012</ele>
<time>2025-10-17T16:36:54.387Z</time>
</trkpt>
<trkpt lat="31.7571040" lon="35.1396270">
<ele>710.200012</ele>
<time>2025-10-17T16:36:54.387Z</time>
</trkpt>
<trkpt lat="31.7571150" lon="35.1396020">
<ele>710.200012</ele>
<time>2025-10-17T16:36:54.387Z</time>
</trkpt>
<trkpt lat="31.7571260" lon="35.1395870">
<ele>710.200012</ele>
<time>2025-10-17T16:36:54.387Z</time>
</trkpt>
<trkpt lat="31.7571330" lon="35.1395780">
<ele>710.200012</ele>
<time>2025-10-17T16:36:54.387Z</time>
</trkpt>
<trkpt lat="31.7571410" lon="35.1395660">
<ele>710.200012</ele>
<time>2025-10-17T16:36:54.387Z</time>
</trkpt>
<trkpt lat="31.7571530" lon="35.1395460">
<ele>710.200012</ele>
<time>2025-10-17T16:36:54.387Z</time>
</trkpt>
<trkpt lat="31.7571680" lon="35.1395350">
<ele>710.000000</ele>
<time>2025-10-17T16:36:54.387Z</time>
</trkpt>
<trkpt lat="31.7571920" lon="35.1395340">
<ele>710.000000</ele>
<time>2025-10-17T16:36:54.387Z</time>
</trkpt>
<trkpt lat="31.7572170" lon="35.1395320">
<ele>710.000000</ele>
<time>2025-10-17T16:36:54.387Z</time>
</trkpt>
<trkpt lat="31.7572500" lon="35.1395240">
<ele>709.800049</ele>
<time>2025-10-17T16:36:54.387Z</time>
</trkpt>
<trkpt lat="31.7572860" lon="35.1395060">
<ele>709.800049</ele>
<time>2025-10-17T16:36:54.387Z</time>
</trkpt>
<trkpt lat="31.7573100" lon="35.1394800">
<ele>709.599976</ele>
<time>2025-10-17T16:36:54.387Z</time>
</trkpt>
<trkpt lat="31.7573620" lon="35.1394210">
<ele>708.799988</ele>
<time>2025-10-17T16:36:54.387Z</time>
</trkpt>
<trkpt lat="31.7573910" lon="35.1393830">
<ele>708.600037</ele>
<time>2025-10-17T16:36:54.387Z</time>
</trkpt>
<trkpt lat="31.7574460" lon="35.1393140">
<ele>707.599976</ele>
<time>2025-10-17T16:36:54.387Z</time>
</trkpt>
<trkpt lat="31.7574810" lon="35.1392840">
<ele>707.200012</ele>
<time>2025-10-17T16:36:54.387Z</time>
</trkpt>
<trkpt lat="31.7575190" lon="35.1392560">
<ele>706.800049</ele>
<time>2025-10-17T16:36:54.387Z</time>
</trkpt>
<trkpt lat="31.7575900" lon="35.1391930">
<ele>706.200012</ele>
<time>2025-10-17T16:36:54.387Z</time>
</trkpt>
<trkpt lat="31.7576650" lon="35.1391320">
<ele>705.400024</ele>
<time>2025-10-17T16:36:54.388Z</time>
</trkpt>
<trkpt lat="31.7577240" lon="35.1390510">
<ele>704.799988</ele>
<time>2025-10-17T16:36:54.388Z</time>
</trkpt>
<trkpt lat="31.7578290" lon="35.1388760">
<ele>703.999939</ele>
<time>2025-10-17T16:36:54.388Z</time>
</trkpt>
<trkpt lat="31.7578550" lon="35.1388250">
<ele>703.799988</ele>
<time>2025-10-17T16:36:54.388Z</time>
</trkpt>
<trkpt lat="31.7578980" lon="35.1387560">
<ele>703.599976</ele>
<time>2025-10-17T16:36:54.388Z</time>
</trkpt>
<trkpt lat="31.7579250" lon="35.1387180">
<ele>703.399963</ele>
<time>2025-10-17T16:36:54.388Z</time>
</trkpt>
<trkpt lat="31.7579570" lon="35.1386830">
<ele>703.200012</ele>
<time>2025-10-17T16:36:54.388Z</time>
</trkpt>
<trkpt lat="31.7579840" lon="35.1386490">
<ele>703.200012</ele>
<time>2025-10-17T16:36:54.388Z</time>
</trkpt>
<trkpt lat="31.7580010" lon="35.1386150">
<ele>702.799988</ele>
<time>2025-10-17T16:36:54.388Z</time>
</trkpt>
<trkpt lat="31.7580090" lon="35.1385770">
<ele>702.799988</ele>
<time>2025-10-17T16:36:54.388Z</time>
</trkpt>
<trkpt lat="31.7580180" lon="35.1385350">
<ele>702.799988</ele>
<time>2025-10-17T16:36:54.388Z</time>
</trkpt>
<trkpt lat="31.7580350" lon="35.1384930">
<ele>702.799988</ele>
<time>2025-10-17T16:36:54.388Z</time>
</trkpt>
<trkpt lat="31.7580780" lon="35.1384040">
<ele>702.399963</ele>
<time>2025-10-17T16:36:54.388Z</time>
</trkpt>
<trkpt lat="31.7580960" lon="35.1383580">
<ele>702.399963</ele>
<time>2025-10-17T16:36:54.388Z</time>
</trkpt>
<trkpt lat="31.7581100" lon="35.1383110">
<ele>702.399963</ele>
<time>2025-10-17T16:36:54.388Z</time>
</trkpt>
<trkpt lat="31.7581260" lon="35.1382230">
<ele>702.199951</ele>
<time>2025-10-17T16:36:54.388Z</time>
</trkpt>
<trkpt lat="31.7581310" lon="35.1381790">
<ele>702.199951</ele>
<time>2025-10-17T16:36:54.388Z</time>
</trkpt>
<trkpt lat="31.7581280" lon="35.1380960">
<ele>702.000000</ele>
<time>2025-10-17T16:36:54.388Z</time>
</trkpt>
<trkpt lat="31.7581190" lon="35.1380620">
<ele>702.000000</ele>
<time>2025-10-17T16:36:54.388Z</time>
</trkpt>
<trkpt lat="31.7581130" lon="35.1380290">
<ele>702.000000</ele>
<time>2025-10-17T16:36:54.388Z</time>
</trkpt>
<trkpt lat="31.7581120" lon="35.1379970">
<ele>702.000000</ele>
<time>2025-10-17T16:36:54.388Z</time>
</trkpt>
<trkpt lat="31.7581140" lon="35.1379710">
<ele>702.000000</ele>
<time>2025-10-17T16:36:54.388Z</time>
</trkpt>
<trkpt lat="31.7581180" lon="35.1379510">
<ele>702.000000</ele>
<time>2025-10-17T16:36:54.388Z</time>
</trkpt>
<trkpt lat="31.7581190" lon="35.1379310">
<ele>702.199951</ele>
<time>2025-10-17T16:36:54.388Z</time>
</trkpt>
<trkpt lat="31.7581150" lon="35.1379130">
<ele>702.199951</ele>
<time>2025-10-17T16:36:54.388Z</time>
</trkpt>
<trkpt lat="31.7581110" lon="35.1379070">
<ele>702.399963</ele>
<time>2025-10-17T16:36:54.388Z</time>
</trkpt>
<trkpt lat="31.7581110" lon="35.1379070">
<ele>702.199951</ele>
<time>2025-10-17T16:36:54.388Z</time>
</trkpt>
<trkpt lat="31.7581110" lon="35.1379070">
<ele>702.600037</ele>
<time>2025-10-17T16:36:54.389Z</time>
</trkpt>
<trkpt lat="31.7580840" lon="35.1378840">
<ele>702.799988</ele>
<time>2025-10-17T16:36:54.389Z</time>
</trkpt>
<trkpt lat="31.7580790" lon="35.1378680">
<ele>702.799988</ele>
<time>2025-10-17T16:36:54.389Z</time>
</trkpt>
<trkpt lat="31.7580990" lon="35.1377490">
<ele>703.200012</ele>
<time>2025-10-17T16:36:54.389Z</time>
</trkpt>
<trkpt lat="31.7581000" lon="35.1377190">
<ele>703.399963</ele>
<time>2025-10-17T16:36:54.389Z</time>
</trkpt>
<trkpt lat="31.7581020" lon="35.1376410">
<ele>703.599976</ele>
<time>2025-10-17T16:36:54.389Z</time>
</trkpt>
<trkpt lat="31.7581030" lon="35.1375970">
<ele>703.799988</ele>
<time>2025-10-17T16:36:54.389Z</time>
</trkpt>
<trkpt lat="31.7581030" lon="35.1375570">
<ele>703.799988</ele>
<time>2025-10-17T16:36:54.389Z</time>
</trkpt>
<trkpt lat="31.7581040" lon="35.1375140">
<ele>703.799988</ele>
<time>2025-10-17T16:36:54.389Z</time>
</trkpt>
<trkpt lat="31.7581070" lon="35.1374410">
<ele>703.799988</ele>
<time>2025-10-17T16:36:54.389Z</time>
</trkpt>
<trkpt lat="31.7581040" lon="35.1374060">
<ele>703.799988</ele>
<time>2025-10-17T16:36:54.389Z</time>
</trkpt>
<trkpt lat="31.7580970" lon="35.1373690">
<ele>703.799988</ele>
<time>2025-10-17T16:36:54.389Z</time>
</trkpt>
<trkpt lat="31.7580680" lon="35.1372830">
<ele>703.799988</ele>
<time>2025-10-17T16:36:54.389Z</time>
</trkpt>
<trkpt lat="31.7580210" lon="35.1371850">
<ele>703.599976</ele>
<time>2025-10-17T16:36:54.389Z</time>
</trkpt>
<trkpt lat="31.7579630" lon="35.1371090">
<ele>703.599976</ele>
<time>2025-10-17T16:36:54.389Z</time>
</trkpt>
<trkpt lat="31.7579360" lon="35.1370750">
<ele>703.599976</ele>
<time>2025-10-17T16:36:54.389Z</time>
</trkpt>
<trkpt lat="31.7579140" lon="35.1370380">
<ele>703.599976</ele>
<time>2025-10-17T16:36:54.389Z</time>
</trkpt>
<trkpt lat="31.7578940" lon="35.1370010">
<ele>703.599976</ele>
<time>2025-10-17T16:36:54.389Z</time>
</trkpt>
<trkpt lat="31.7578780" lon="35.1369620">
<ele>703.799988</ele>
<time>2025-10-17T16:36:54.389Z</time>
</trkpt>
<trkpt lat="31.7578600" lon="35.1369250">
<ele>703.799988</ele>
<time>2025-10-17T16:36:54.389Z</time>
</trkpt>
<trkpt lat="31.7578380" lon="35.1368940">
<ele>703.999939</ele>
<time>2025-10-17T16:36:54.389Z</time>
</trkpt>
<trkpt lat="31.7578140" lon="35.1368690">
<ele>703.999939</ele>
<time>2025-10-17T16:36:54.389Z</time>
</trkpt>
<trkpt lat="31.7577910" lon="35.1368470">
<ele>703.999939</ele>
<time>2025-10-17T16:36:54.389Z</time>
</trkpt>
<trkpt lat="31.7577700" lon="35.1368330">
<ele>703.999939</ele>
<time>2025-10-17T16:36:54.389Z</time>
</trkpt>
<trkpt lat="31.7577630" lon="35.1368300">
<ele>704.200012</ele>
<time>2025-10-17T16:36:54.390Z</time>
</trkpt>
<trkpt lat="31.7577630" lon="35.1368300">
<ele>704.200012</ele>
<time>2025-10-17T16:36:54.390Z</time>
</trkpt>
<trkpt lat="31.7577030" lon="35.1367530">
<ele>706.399963</ele>
<time>2025-10-17T16:36:54.390Z</time>
</trkpt>
<trkpt lat="31.7576680" lon="35.1366570">
<ele>706.399963</ele>
<time>2025-10-17T16:36:54.390Z</time>
</trkpt>
<trkpt lat="31.7576570" lon="35.1366200">
<ele>706.599976</ele>
<time>2025-10-17T16:36:54.390Z</time>
</trkpt>
<trkpt lat="31.7576220" lon="35.1365520">
<ele>706.599976</ele>
<time>2025-10-17T16:36:54.390Z</time>
</trkpt>
<trkpt lat="31.7575790" lon="35.1364810">
<ele>706.599976</ele>
<time>2025-10-17T16:36:54.390Z</time>
</trkpt>
<trkpt lat="31.7575580" lon="35.1364460">
<ele>706.599976</ele>
<time>2025-10-17T16:36:54.390Z</time>
</trkpt>
<trkpt lat="31.7574490" lon="35.1363060">
<ele>706.599976</ele>
<time>2025-10-17T16:36:54.390Z</time>
</trkpt>
<trkpt lat="31.7574270" lon="35.1363010">
<ele>706.800049</ele>
<time>2025-10-17T16:36:54.390Z</time>
</trkpt>
<trkpt lat="31.7574010" lon="35.1363000">
<ele>706.800049</ele>
<time>2025-10-17T16:36:54.390Z</time>
</trkpt>
<trkpt lat="31.7573710" lon="35.1362960">
<ele>706.800049</ele>
<time>2025-10-17T16:36:54.390Z</time>
</trkpt>
<trkpt lat="31.7573420" lon="35.1362850">
<ele>707.000000</ele>
<time>2025-10-17T16:36:54.390Z</time>
</trkpt>
<trkpt lat="31.7573080" lon="35.1362590">
<ele>707.000000</ele>
<time>2025-10-17T16:36:54.390Z</time>
</trkpt>
<trkpt lat="31.7572810" lon="35.1362400">
<ele>707.000000</ele>
<time>2025-10-17T16:36:54.390Z</time>
</trkpt>
<trkpt lat="31.7572490" lon="35.1362180">
<ele>707.200012</ele>
<time>2025-10-17T16:36:54.390Z</time>
</trkpt>
<trkpt lat="31.7570870" lon="35.1361260">
<ele>707.400024</ele>
<time>2025-10-17T16:36:54.390Z</time>
</trkpt>
<trkpt lat="31.7569620" lon="35.1361180">
<ele>707.599976</ele>
<time>2025-10-17T16:36:54.390Z</time>
</trkpt>
<trkpt lat="31.7569250" lon="35.1361250">
<ele>707.599976</ele>
<time>2025-10-17T16:36:54.390Z</time>
</trkpt>
<trkpt lat="31.7566760" lon="35.1362120">
<ele>707.799988</ele>
<time>2025-10-17T16:36:54.390Z</time>
</trkpt>
<trkpt lat="31.7565100" lon="35.1362720">
<ele>708.000000</ele>
<time>2025-10-17T16:36:54.390Z</time>
</trkpt>
<trkpt lat="31.7564110" lon="35.1363230">
<ele>708.000000</ele>
<time>2025-10-17T16:36:54.390Z</time>
</trkpt>
<trkpt lat="31.7563830" lon="35.1363400">
<ele>708.000000</ele>
<time>2025-10-17T16:36:54.390Z</time>
</trkpt>
<trkpt lat="31.7562560" lon="35.1364300">
<ele>708.000000</ele>
<time>2025-10-17T16:36:54.390Z</time>
</trkpt>
<trkpt lat="31.7562310" lon="35.1364470">
<ele>708.000000</ele>
<time>2025-10-17T16:36:54.390Z</time>
</trkpt>
<trkpt lat="31.7562050" lon="35.1364620">
<ele>708.199951</ele>
<time>2025-10-17T16:36:54.390Z</time>
</trkpt>
<trkpt lat="31.7561780" lon="35.1364790">
<ele>708.199951</ele>
<time>2025-10-17T16:36:54.390Z</time>
</trkpt>
<trkpt lat="31.7561510" lon="35.1364960">
<ele>708.400024</ele>
<time>2025-10-17T16:36:54.391Z</time>
</trkpt>
<trkpt lat="31.7561210" lon="35.1365100">
<ele>708.799988</ele>
<time>2025-10-17T16:36:54.391Z</time>
</trkpt>
<trkpt lat="31.7560020" lon="35.1365630">
<ele>709.800049</ele>
<time>2025-10-17T16:36:54.391Z</time>
</trkpt>
<trkpt lat="31.7559810" lon="35.1365740">
<ele>709.800049</ele>
<time>2025-10-17T16:36:54.391Z</time>
</trkpt>
<trkpt lat="31.7559490" lon="35.1365870">
<ele>710.000000</ele>
<time>2025-10-17T16:36:54.391Z</time>
</trkpt>
<trkpt lat="31.7559270" lon="35.1365950">
<ele>710.000000</ele>
<time>2025-10-17T16:36:54.391Z</time>
</trkpt>
<trkpt lat="31.7559030" lon="35.1366040">
<ele>710.200012</ele>
<time>2025-10-17T16:36:54.391Z</time>
</trkpt>
<trkpt lat="31.7558480" lon="35.1366330">
<ele>710.400024</ele>
<time>2025-10-17T16:36:54.391Z</time>
</trkpt>
<trkpt lat="31.7558280" lon="35.1366490">
<ele>710.599976</ele>
<time>2025-10-17T16:36:54.391Z</time>
</trkpt>
<trkpt lat="31.7558100" lon="35.1366680">
<ele>710.799988</ele>
<time>2025-10-17T16:36:54.391Z</time>
</trkpt>
<trkpt lat="31.7557980" lon="35.1366820">
<ele>711.199951</ele>
<time>2025-10-17T16:36:54.391Z</time>
</trkpt>
<trkpt lat="31.7557820" lon="35.1366890">
<ele>711.199951</ele>
<time>2025-10-17T16:36:54.391Z</time>
</trkpt>
<trkpt lat="31.7557610" lon="35.1366920">
<ele>711.400024</ele>
<time>2025-10-17T16:36:54.391Z</time>
</trkpt>
<trkpt lat="31.7557340" lon="35.1366960">
<ele>711.600037</ele>
<time>2025-10-17T16:36:54.391Z</time>
</trkpt>
<trkpt lat="31.7557130" lon="35.1366940">
<ele>712.200012</ele>
<time>2025-10-17T16:36:54.391Z</time>
</trkpt>
<trkpt lat="31.7556900" lon="35.1366900">
<ele>712.800049</ele>
<time>2025-10-17T16:36:54.391Z</time>
</trkpt>
<trkpt lat="31.7556700" lon="35.1366920">
<ele>713.200012</ele>
<time>2025-10-17T16:36:54.391Z</time>
</trkpt>
<trkpt lat="31.7556530" lon="35.1366970">
<ele>713.599976</ele>
<time>2025-10-17T16:36:54.391Z</time>
</trkpt>
<trkpt lat="31.7556410" lon="35.1367010">
<ele>713.799988</ele>
<time>2025-10-17T16:36:54.391Z</time>
</trkpt>
<trkpt lat="31.7556370" lon="35.1367040">
<ele>714.000000</ele>
<time>2025-10-17T16:36:54.391Z</time>
</trkpt>
<trkpt lat="31.7556370" lon="35.1367040">
<ele>714.199951</ele>
<time>2025-10-17T16:36:54.391Z</time>
</trkpt>
<trkpt lat="31.7554610" lon="35.1367440">
<ele>719.799988</ele>
<time>2025-10-17T16:36:54.391Z</time>
</trkpt>
<trkpt lat="31.7554430" lon="35.1367390">
<ele>719.799988</ele>
<time>2025-10-17T16:36:54.391Z</time>
</trkpt>
<trkpt lat="31.7554250" lon="35.1367330">
<ele>719.799988</ele>
<time>2025-10-17T16:36:54.391Z</time>
</trkpt>
<trkpt lat="31.7554040" lon="35.1367260">
<ele>720.000061</ele>
<time>2025-10-17T16:36:54.392Z</time>
</trkpt>
<trkpt lat="31.7553850" lon="35.1367170">
<ele>720.000061</ele>
<time>2025-10-17T16:36:54.392Z</time>
</trkpt>
<trkpt lat="31.7553520" lon="35.1367120">
<ele>720.200012</ele>
<time>2025-10-17T16:36:54.392Z</time>
</trkpt>
<trkpt lat="31.7553370" lon="35.1367140">
<ele>720.400024</ele>
<time>2025-10-17T16:36:54.392Z</time>
</trkpt>
<trkpt lat="31.7553230" lon="35.1367120">
<ele>720.400024</ele>
<time>2025-10-17T16:36:54.392Z</time>
</trkpt>
<trkpt lat="31.7553100" lon="35.1367120">
<ele>720.400024</ele>
<time>2025-10-17T16:36:54.392Z</time>
</trkpt>
<trkpt lat="31.7552960" lon="35.1367110">
<ele>720.400024</ele>
<time>2025-10-17T16:36:54.392Z</time>
</trkpt>
<trkpt lat="31.7552810" lon="35.1367080">
<ele>720.799988</ele>
<time>2025-10-17T16:36:54.392Z</time>
</trkpt>
<trkpt lat="31.7552670" lon="35.1367080">
<ele>720.799988</ele>
<time>2025-10-17T16:36:54.392Z</time>
</trkpt>
<trkpt lat="31.7552530" lon="35.1367070">
<ele>721.200012</ele>
<time>2025-10-17T16:36:54.392Z</time>
</trkpt>
<trkpt lat="31.7552380" lon="35.1367050">
<ele>721.399963</ele>
<time>2025-10-17T16:36:54.392Z</time>
</trkpt>
<trkpt lat="31.7552240" lon="35.1367000">
<ele>721.600037</ele>
<time>2025-10-17T16:36:54.392Z</time>
</trkpt>
<trkpt lat="31.7552110" lon="35.1366910">
<ele>722.000000</ele>
<time>2025-10-17T16:36:54.392Z</time>
</trkpt>
<trkpt lat="31.7551990" lon="35.1366840">
<ele>722.200012</ele>
<time>2025-10-17T16:36:54.392Z</time>
</trkpt>
<trkpt lat="31.7551870" lon="35.1366790">
<ele>722.599976</ele>
<time>2025-10-17T16:36:54.392Z</time>
</trkpt>
<trkpt lat="31.7551750" lon="35.1366780">
<ele>722.799988</ele>
<time>2025-10-17T16:36:54.392Z</time>
</trkpt>
<trkpt lat="31.7551590" lon="35.1366780">
<ele>723.000061</ele>
<time>2025-10-17T16:36:54.392Z</time>
</trkpt>
<trkpt lat="31.7551420" lon="35.1366780">
<ele>723.200012</ele>
<time>2025-10-17T16:36:54.392Z</time>
</trkpt>
<trkpt lat="31.7551260" lon="35.1366780">
<ele>723.600037</ele>
<time>2025-10-17T16:36:54.392Z</time>
</trkpt>
<trkpt lat="31.7551140" lon="35.1366750">
<ele>723.600037</ele>
<time>2025-10-17T16:36:54.392Z</time>
</trkpt>
<trkpt lat="31.7551000" lon="35.1366710">
<ele>724.000000</ele>
<time>2025-10-17T16:36:54.392Z</time>
</trkpt>
<trkpt lat="31.7550850" lon="35.1366650">
<ele>724.000000</ele>
<time>2025-10-17T16:36:54.392Z</time>
</trkpt>
<trkpt lat="31.7550650" lon="35.1366600">
<ele>724.199951</ele>
<time>2025-10-17T16:36:54.392Z</time>
</trkpt>
<trkpt lat="31.7550490" lon="35.1366550">
<ele>724.399963</ele>
<time>2025-10-17T16:36:54.392Z</time>
</trkpt>
<trkpt lat="31.7550310" lon="35.1366500">
<ele>724.600037</ele>
<time>2025-10-17T16:36:54.392Z</time>
</trkpt>
<trkpt lat="31.7550120" lon="35.1366410">
<ele>724.799988</ele>
<time>2025-10-17T16:36:54.392Z</time>
</trkpt>
<trkpt lat="31.7549980" lon="35.1366340">
<ele>724.600037</ele>
<time>2025-10-17T16:36:54.393Z</time>
</trkpt>
<trkpt lat="31.7549840" lon="35.1366270">
<ele>724.799988</ele>
<time>2025-10-17T16:36:54.393Z</time>
</trkpt>
<trkpt lat="31.7549690" lon="35.1366170">
<ele>724.799988</ele>
<time>2025-10-17T16:36:54.393Z</time>
</trkpt>
<trkpt lat="31.7549470" lon="35.1366040">
<ele>724.799988</ele>
<time>2025-10-17T16:36:54.393Z</time>
</trkpt>
<trkpt lat="31.7549270" lon="35.1365870">
<ele>724.799988</ele>
<time>2025-10-17T16:36:54.393Z</time>
</trkpt>
<trkpt lat="31.7549180" lon="35.1365730">
<ele>725.000000</ele>
<time>2025-10-17T16:36:54.393Z</time>
</trkpt>
<trkpt lat="31.7549130" lon="35.1365550">
<ele>725.000000</ele>
<time>2025-10-17T16:36:54.393Z</time>
</trkpt>
<trkpt lat="31.7549070" lon="35.1365310">
<ele>725.000000</ele>
<time>2025-10-17T16:36:54.393Z</time>
</trkpt>
<trkpt lat="31.7549030" lon="35.1365060">
<ele>725.000000</ele>
<time>2025-10-17T16:36:54.393Z</time>
</trkpt>
<trkpt lat="31.7549010" lon="35.1364810">
<ele>725.000000</ele>
<time>2025-10-17T16:36:54.393Z</time>
</trkpt>
<trkpt lat="31.7549010" lon="35.1364560">
<ele>725.200012</ele>
<time>2025-10-17T16:36:54.393Z</time>
</trkpt>
<trkpt lat="31.7549040" lon="35.1364310">
<ele>725.200012</ele>
<time>2025-10-17T16:36:54.393Z</time>
</trkpt>
<trkpt lat="31.7549050" lon="35.1364050">
<ele>725.399963</ele>
<time>2025-10-17T16:36:54.393Z</time>
</trkpt>
<trkpt lat="31.7549070" lon="35.1363760">
<ele>725.399963</ele>
<time>2025-10-17T16:36:54.393Z</time>
</trkpt>
<trkpt lat="31.7549080" lon="35.1363450">
<ele>725.599976</ele>
<time>2025-10-17T16:36:54.393Z</time>
</trkpt>
<trkpt lat="31.7549150" lon="35.1363130">
<ele>725.999939</ele>
<time>2025-10-17T16:36:54.393Z</time>
</trkpt>
<trkpt lat="31.7549230" lon="35.1362800">
<ele>725.999939</ele>
<time>2025-10-17T16:36:54.393Z</time>
</trkpt>
<trkpt lat="31.7549310" lon="35.1362470">
<ele>726.200012</ele>
<time>2025-10-17T16:36:54.393Z</time>
</trkpt>
<trkpt lat="31.7549370" lon="35.1362170">
<ele>726.400024</ele>
<time>2025-10-17T16:36:54.393Z</time>
</trkpt>
<trkpt lat="31.7549400" lon="35.1361900">
<ele>726.400024</ele>
<time>2025-10-17T16:36:54.393Z</time>
</trkpt>
<trkpt lat="31.7549410" lon="35.1361600">
<ele>726.400024</ele>
<time>2025-10-17T16:36:54.393Z</time>
</trkpt>
<trkpt lat="31.7549410" lon="35.1361260">
<ele>726.400024</ele>
<time>2025-10-17T16:36:54.393Z</time>
</trkpt>
<trkpt lat="31.7549430" lon="35.1360930">
<ele>726.400024</ele>
<time>2025-10-17T16:36:54.393Z</time>
</trkpt>
<trkpt lat="31.7549440" lon="35.1360550">
<ele>726.599976</ele>
<time>2025-10-17T16:36:54.393Z</time>
</trkpt>
<trkpt lat="31.7549460" lon="35.1360170">
<ele>726.599976</ele>
<time>2025-10-17T16:36:54.394Z</time>
</trkpt>
<trkpt lat="31.7549450" lon="35.1359810">
<ele>726.599976</ele>
<time>2025-10-17T16:36:54.394Z</time>
</trkpt>
<trkpt lat="31.7549450" lon="35.1359430">
<ele>726.599976</ele>
<time>2025-10-17T16:36:54.394Z</time>
</trkpt>
<trkpt lat="31.7549470" lon="35.1359040">
<ele>726.799988</ele>
<time>2025-10-17T16:36:54.394Z</time>
</trkpt>
<trkpt lat="31.7549460" lon="35.1358650">
<ele>726.799988</ele>
<time>2025-10-17T16:36:54.394Z</time>
</trkpt>
<trkpt lat="31.7549470" lon="35.1358230">
<ele>726.799988</ele>
<time>2025-10-17T16:36:54.394Z</time>
</trkpt>
<trkpt lat="31.7549480" lon="35.1357290">
<ele>726.799988</ele>
<time>2025-10-17T16:36:54.394Z</time>
</trkpt>
<trkpt lat="31.7549310" lon="35.1355710">
<ele>726.400024</ele>
<time>2025-10-17T16:36:54.394Z</time>
</trkpt>
<trkpt lat="31.7548920" lon="35.1353430">
<ele>726.400024</ele>
<time>2025-10-17T16:36:54.394Z</time>
</trkpt>
<trkpt lat="31.7548170" lon="35.1350970">
<ele>727.000000</ele>
<time>2025-10-17T16:36:54.394Z</time>
</trkpt>
<trkpt lat="31.7548010" lon="35.1350620">
<ele>727.199951</ele>
<time>2025-10-17T16:36:54.394Z</time>
</trkpt>
<trkpt lat="31.7547840" lon="35.1350320">
<ele>727.199951</ele>
<time>2025-10-17T16:36:54.394Z</time>
</trkpt>
<trkpt lat="31.7547680" lon="35.1350010">
<ele>727.199951</ele>
<time>2025-10-17T16:36:54.394Z</time>
</trkpt>
<trkpt lat="31.7547500" lon="35.1349730">
<ele>727.399963</ele>
<time>2025-10-17T16:36:54.394Z</time>
</trkpt>
<trkpt lat="31.7547270" lon="35.1349480">
<ele>727.399963</ele>
<time>2025-10-17T16:36:54.394Z</time>
</trkpt>
<trkpt lat="31.7547030" lon="35.1349240">
<ele>727.399963</ele>
<time>2025-10-17T16:36:54.394Z</time>
</trkpt>
<trkpt lat="31.7546830" lon="35.1349010">
<ele>727.600037</ele>
<time>2025-10-17T16:36:54.394Z</time>
</trkpt>
<trkpt lat="31.7546660" lon="35.1348770">
<ele>727.600037</ele>
<time>2025-10-17T16:36:54.395Z</time>
</trkpt>
<trkpt lat="31.7546460" lon="35.1348560">
<ele>728.000000</ele>
<time>2025-10-17T16:36:54.395Z</time>
</trkpt>
<trkpt lat="31.7546280" lon="35.1348380">
<ele>728.200012</ele>
<time>2025-10-17T16:36:54.395Z</time>
</trkpt>
<trkpt lat="31.7546110" lon="35.1348200">
<ele>728.200012</ele>
<time>2025-10-17T16:36:54.395Z</time>
</trkpt>
<trkpt lat="31.7545960" lon="35.1348040">
<ele>728.399963</ele>
<time>2025-10-17T16:36:54.395Z</time>
</trkpt>
<trkpt lat="31.7545800" lon="35.1347880">
<ele>728.599976</ele>
<time>2025-10-17T16:36:54.395Z</time>
</trkpt>
<trkpt lat="31.7545630" lon="35.1347710">
<ele>728.999939</ele>
<time>2025-10-17T16:36:54.395Z</time>
</trkpt>
<trkpt lat="31.7545460" lon="35.1347540">
<ele>729.200012</ele>
<time>2025-10-17T16:36:54.395Z</time>
</trkpt>
<trkpt lat="31.7545310" lon="35.1347320">
<ele>729.599976</ele>
<time>2025-10-17T16:36:54.395Z</time>
</trkpt>
<trkpt lat="31.7544930" lon="35.1346810">
<ele>730.199951</ele>
<time>2025-10-17T16:36:54.395Z</time>
</trkpt>
<trkpt lat="31.7544760" lon="35.1346550">
<ele>730.400024</ele>
<time>2025-10-17T16:36:54.395Z</time>
</trkpt>
<trkpt lat="31.7544610" lon="35.1346280">
<ele>730.400024</ele>
<time>2025-10-17T16:36:54.395Z</time>
</trkpt>
<trkpt lat="31.7544440" lon="35.1346000">
<ele>730.400024</ele>
<time>2025-10-17T16:36:54.395Z</time>
</trkpt>
<trkpt lat="31.7544270" lon="35.1345670">
<ele>730.400024</ele>
<time>2025-10-17T16:36:54.395Z</time>
</trkpt>
<trkpt lat="31.7544050" lon="35.1345320">
<ele>730.400024</ele>
<time>2025-10-17T16:36:54.395Z</time>
</trkpt>
<trkpt lat="31.7543810" lon="35.1344990">
<ele>730.400024</ele>
<time>2025-10-17T16:36:54.395Z</time>
</trkpt>
<trkpt lat="31.7543550" lon="35.1344660">
<ele>730.400024</ele>
<time>2025-10-17T16:36:54.395Z</time>
</trkpt>
<trkpt lat="31.7543280" lon="35.1344400">
<ele>730.400024</ele>
<time>2025-10-17T16:36:54.395Z</time>
</trkpt>
<trkpt lat="31.7543020" lon="35.1344210">
<ele>730.400024</ele>
<time>2025-10-17T16:36:54.395Z</time>
</trkpt>
<trkpt lat="31.7542790" lon="35.1344040">
<ele>730.400024</ele>
<time>2025-10-17T16:36:54.395Z</time>
</trkpt>
<trkpt lat="31.7542580" lon="35.1343890">
<ele>730.600037</ele>
<time>2025-10-17T16:36:54.395Z</time>
</trkpt>
<trkpt lat="31.7542390" lon="35.1343730">
<ele>730.600037</ele>
<time>2025-10-17T16:36:54.395Z</time>
</trkpt>
<trkpt lat="31.7542240" lon="35.1343530">
<ele>730.799988</ele>
<time>2025-10-17T16:36:54.395Z</time>
</trkpt>
<trkpt lat="31.7542090" lon="35.1343270">
<ele>730.799988</ele>
<time>2025-10-17T16:36:54.395Z</time>
</trkpt>
<trkpt lat="31.7541950" lon="35.1342970">
<ele>730.799988</ele>
<time>2025-10-17T16:36:54.395Z</time>
</trkpt>
<trkpt lat="31.7541890" lon="35.1342660">
<ele>731.000000</ele>
<time>2025-10-17T16:36:54.395Z</time>
</trkpt>
<trkpt lat="31.7541890" lon="35.1342290">
<ele>731.200012</ele>
<time>2025-10-17T16:36:54.395Z</time>
</trkpt>
<trkpt lat="31.7541830" lon="35.1341830">
<ele>731.399963</ele>
<time>2025-10-17T16:36:54.396Z</time>
</trkpt>
<trkpt lat="31.7541700" lon="35.1341320">
<ele>731.399963</ele>
<time>2025-10-17T16:36:54.396Z</time>
</trkpt>
<trkpt lat="31.7541470" lon="35.1340800">
<ele>731.399963</ele>
<time>2025-10-17T16:36:54.396Z</time>
</trkpt>
<trkpt lat="31.7541250" lon="35.1340270">
<ele>731.399963</ele>
<time>2025-10-17T16:36:54.396Z</time>
</trkpt>
<trkpt lat="31.7541060" lon="35.1339690">
<ele>731.399963</ele>
<time>2025-10-17T16:36:54.396Z</time>
</trkpt>
<trkpt lat="31.7540210" lon="35.1337820">
<ele>730.400024</ele>
<time>2025-10-17T16:36:54.396Z</time>
</trkpt>
<trkpt lat="31.7540040" lon="35.1337400">
<ele>730.400024</ele>
<time>2025-10-17T16:36:54.396Z</time>
</trkpt>
<trkpt lat="31.7539930" lon="35.1336920">
<ele>730.199951</ele>
<time>2025-10-17T16:36:54.396Z</time>
</trkpt>
<trkpt lat="31.7539890" lon="35.1336390">
<ele>730.000000</ele>
<time>2025-10-17T16:36:54.396Z</time>
</trkpt>
<trkpt lat="31.7539870" lon="35.1335730">
<ele>730.000000</ele>
<time>2025-10-17T16:36:54.396Z</time>
</trkpt>
<trkpt lat="31.7539940" lon="35.1335150">
<ele>730.000000</ele>
<time>2025-10-17T16:36:54.396Z</time>
</trkpt>
<trkpt lat="31.7540050" lon="35.1334670">
<ele>729.799988</ele>
<time>2025-10-17T16:36:54.396Z</time>
</trkpt>
<trkpt lat="31.7540160" lon="35.1334240">
<ele>729.599976</ele>
<time>2025-10-17T16:36:54.396Z</time>
</trkpt>
<trkpt lat="31.7540190" lon="35.1333810">
<ele>729.400024</ele>
<time>2025-10-17T16:36:54.396Z</time>
</trkpt>
<trkpt lat="31.7540170" lon="35.1333410">
<ele>729.400024</ele>
<time>2025-10-17T16:36:54.396Z</time>
</trkpt>
<trkpt lat="31.7540170" lon="35.1333060">
<ele>728.999939</ele>
<time>2025-10-17T16:36:54.396Z</time>
</trkpt>
<trkpt lat="31.7540100" lon="35.1332700">
<ele>728.999939</ele>
<time>2025-10-17T16:36:54.396Z</time>
</trkpt>
<trkpt lat="31.7539990" lon="35.1332340">
<ele>728.799988</ele>
<time>2025-10-17T16:36:54.396Z</time>
</trkpt>
<trkpt lat="31.7539860" lon="35.1331930">
<ele>728.599976</ele>
<time>2025-10-17T16:36:54.396Z</time>
</trkpt>
<trkpt lat="31.7539690" lon="35.1331530">
<ele>728.599976</ele>
<time>2025-10-17T16:36:54.396Z</time>
</trkpt>
<trkpt lat="31.7539500" lon="35.1331140">
<ele>728.399963</ele>
<time>2025-10-17T16:36:54.396Z</time>
</trkpt>
<trkpt lat="31.7538810" lon="35.1329990">
<ele>728.200012</ele>
<time>2025-10-17T16:36:54.396Z</time>
</trkpt>
<trkpt lat="31.7538480" lon="35.1329640">
<ele>728.200012</ele>
<time>2025-10-17T16:36:54.396Z</time>
</trkpt>
<trkpt lat="31.7538130" lon="35.1329300">
<ele>728.200012</ele>
<time>2025-10-17T16:36:54.396Z</time>
</trkpt>
<trkpt lat="31.7537770" lon="35.1328950">
<ele>728.200012</ele>
<time>2025-10-17T16:36:54.396Z</time>
</trkpt>
<trkpt lat="31.7537390" lon="35.1328620">
<ele>728.399963</ele>
<time>2025-10-17T16:36:54.396Z</time>
</trkpt>
<trkpt lat="31.7536540" lon="35.1328000">
<ele>728.200012</ele>
<time>2025-10-17T16:36:54.396Z</time>
</trkpt>
<trkpt lat="31.7535320" lon="35.1327040">
<ele>728.000000</ele>
<time>2025-10-17T16:36:54.396Z</time>
</trkpt>
<trkpt lat="31.7534990" lon="35.1326720">
<ele>727.799988</ele>
<time>2025-10-17T16:36:54.397Z</time>
</trkpt>
<trkpt lat="31.7534620" lon="35.1326440">
<ele>727.600037</ele>
<time>2025-10-17T16:36:54.397Z</time>
</trkpt>
<trkpt lat="31.7534240" lon="35.1326190">
<ele>727.399963</ele>
<time>2025-10-17T16:36:54.397Z</time>
</trkpt>
<trkpt lat="31.7533860" lon="35.1325910">
<ele>727.399963</ele>
<time>2025-10-17T16:36:54.397Z</time>
</trkpt>
<trkpt lat="31.7533110" lon="35.1325400">
<ele>727.199951</ele>
<time>2025-10-17T16:36:54.397Z</time>
</trkpt>
<trkpt lat="31.7532730" lon="35.1325170">
<ele>727.000000</ele>
<time>2025-10-17T16:36:54.397Z</time>
</trkpt>
<trkpt lat="31.7531970" lon="35.1324740">
<ele>726.799988</ele>
<time>2025-10-17T16:36:54.397Z</time>
</trkpt>
<trkpt lat="31.7531560" lon="35.1324550">
<ele>726.799988</ele>
<time>2025-10-17T16:36:54.397Z</time>
</trkpt>
<trkpt lat="31.7531160" lon="35.1324370">
<ele>727.000000</ele>
<time>2025-10-17T16:36:54.397Z</time>
</trkpt>
<trkpt lat="31.7530730" lon="35.1324210">
<ele>727.000000</ele>
<time>2025-10-17T16:36:54.397Z</time>
</trkpt>
<trkpt lat="31.7530310" lon="35.1324070">
<ele>727.000000</ele>
<time>2025-10-17T16:36:54.397Z</time>
</trkpt>
<trkpt lat="31.7529550" lon="35.1323820">
<ele>727.399963</ele>
<time>2025-10-17T16:36:54.397Z</time>
</trkpt>
<trkpt lat="31.7528780" lon="35.1323600">
<ele>727.799988</ele>
<time>2025-10-17T16:36:54.397Z</time>
</trkpt>
<trkpt lat="31.7528340" lon="35.1323480">
<ele>728.000000</ele>
<time>2025-10-17T16:36:54.397Z</time>
</trkpt>
<trkpt lat="31.7527910" lon="35.1323360">
<ele>728.399963</ele>
<time>2025-10-17T16:36:54.397Z</time>
</trkpt>
<trkpt lat="31.7526480" lon="35.1322980">
<ele>728.599976</ele>
<time>2025-10-17T16:36:54.397Z</time>
</trkpt>
<trkpt lat="31.7525100" lon="35.1322730">
<ele>728.799988</ele>
<time>2025-10-17T16:36:54.397Z</time>
</trkpt>
<trkpt lat="31.7524710" lon="35.1322640">
<ele>728.799988</ele>
<time>2025-10-17T16:36:54.397Z</time>
</trkpt>
<trkpt lat="31.7524320" lon="35.1322560">
<ele>728.799988</ele>
<time>2025-10-17T16:36:54.397Z</time>
</trkpt>
<trkpt lat="31.7523890" lon="35.1322480">
<ele>728.799988</ele>
<time>2025-10-17T16:36:54.397Z</time>
</trkpt>
<trkpt lat="31.7523460" lon="35.1322390">
<ele>728.999939</ele>
<time>2025-10-17T16:36:54.397Z</time>
</trkpt>
<trkpt lat="31.7522640" lon="35.1322240">
<ele>729.200012</ele>
<time>2025-10-17T16:36:54.397Z</time>
</trkpt>
<trkpt lat="31.7522210" lon="35.1322210">
<ele>729.400024</ele>
<time>2025-10-17T16:36:54.397Z</time>
</trkpt>
<trkpt lat="31.7521810" lon="35.1322180">
<ele>729.400024</ele>
<time>2025-10-17T16:36:54.397Z</time>
</trkpt>
<trkpt lat="31.7521410" lon="35.1322110">
<ele>729.400024</ele>
<time>2025-10-17T16:36:54.397Z</time>
</trkpt>
<trkpt lat="31.7521020" lon="35.1322060">
<ele>729.599976</ele>
<time>2025-10-17T16:36:54.397Z</time>
</trkpt>
<trkpt lat="31.7520620" lon="35.1321980">
<ele>729.599976</ele>
<time>2025-10-17T16:36:54.397Z</time>
</trkpt>
<trkpt lat="31.7520220" lon="35.1321870">
<ele>729.599976</ele>
<time>2025-10-17T16:36:54.398Z</time>
</trkpt>
<trkpt lat="31.7519850" lon="35.1321750">
<ele>729.799988</ele>
<time>2025-10-17T16:36:54.398Z</time>
</trkpt>
<trkpt lat="31.7519440" lon="35.1321640">
<ele>730.199951</ele>
<time>2025-10-17T16:36:54.398Z</time>
</trkpt>
<trkpt lat="31.7519020" lon="35.1321530">
<ele>730.199951</ele>
<time>2025-10-17T16:36:54.398Z</time>
</trkpt>
<trkpt lat="31.7518620" lon="35.1321460">
<ele>730.400024</ele>
<time>2025-10-17T16:36:54.398Z</time>
</trkpt>
<trkpt lat="31.7518230" lon="35.1321420">
<ele>730.400024</ele>
<time>2025-10-17T16:36:54.398Z</time>
</trkpt>
<trkpt lat="31.7517860" lon="35.1321400">
<ele>730.400024</ele>
<time>2025-10-17T16:36:54.398Z</time>
</trkpt>
<trkpt lat="31.7517440" lon="35.1321350">
<ele>730.400024</ele>
<time>2025-10-17T16:36:54.398Z</time>
</trkpt>
<trkpt lat="31.7517020" lon="35.1321200">
<ele>730.400024</ele>
<time>2025-10-17T16:36:54.398Z</time>
</trkpt>
<trkpt lat="31.7516670" lon="35.1320930">
<ele>730.400024</ele>
<time>2025-10-17T16:36:54.398Z</time>
</trkpt>
<trkpt lat="31.7516420" lon="35.1320530">
<ele>730.400024</ele>
<time>2025-10-17T16:36:54.398Z</time>
</trkpt>
<trkpt lat="31.7516270" lon="35.1320100">
<ele>730.400024</ele>
<time>2025-10-17T16:36:54.398Z</time>
</trkpt>
<trkpt lat="31.7516120" lon="35.1319680">
<ele>730.400024</ele>
<time>2025-10-17T16:36:54.398Z</time>
</trkpt>
<trkpt lat="31.7516020" lon="35.1319250">
<ele>730.400024</ele>
<time>2025-10-17T16:36:54.398Z</time>
</trkpt>
<trkpt lat="31.7515990" lon="35.1318870">
<ele>730.600037</ele>
<time>2025-10-17T16:36:54.398Z</time>
</trkpt>
<trkpt lat="31.7516020" lon="35.1318480">
<ele>730.600037</ele>
<time>2025-10-17T16:36:54.398Z</time>
</trkpt>
<trkpt lat="31.7516040" lon="35.1318060">
<ele>730.600037</ele>
<time>2025-10-17T16:36:54.398Z</time>
</trkpt>
<trkpt lat="31.7516170" lon="35.1316350">
<ele>731.000000</ele>
<time>2025-10-17T16:36:54.398Z</time>
</trkpt>
<trkpt lat="31.7516090" lon="35.1315560">
<ele>731.399963</ele>
<time>2025-10-17T16:36:54.398Z</time>
</trkpt>
<trkpt lat="31.7516000" lon="35.1315220">
<ele>731.399963</ele>
<time>2025-10-17T16:36:54.398Z</time>
</trkpt>
<trkpt lat="31.7515970" lon="35.1314870">
<ele>731.599976</ele>
<time>2025-10-17T16:36:54.398Z</time>
</trkpt>
<trkpt lat="31.7515960" lon="35.1314490">
<ele>731.800049</ele>
<time>2025-10-17T16:36:54.398Z</time>
</trkpt>
<trkpt lat="31.7515990" lon="35.1314140">
<ele>732.000000</ele>
<time>2025-10-17T16:36:54.398Z</time>
</trkpt>
<trkpt lat="31.7516060" lon="35.1313390">
<ele>732.599976</ele>
<time>2025-10-17T16:36:54.398Z</time>
</trkpt>
<trkpt lat="31.7516050" lon="35.1312970">
<ele>732.799988</ele>
<time>2025-10-17T16:36:54.398Z</time>
</trkpt>
<trkpt lat="31.7516040" lon="35.1312590">
<ele>733.000000</ele>
<time>2025-10-17T16:36:54.398Z</time>
</trkpt>
<trkpt lat="31.7516090" lon="35.1312230">
<ele>733.000000</ele>
<time>2025-10-17T16:36:54.398Z</time>
</trkpt>
<trkpt lat="31.7516150" lon="35.1311880">
<ele>733.400024</ele>
<time>2025-10-17T16:36:54.398Z</time>
</trkpt>
<trkpt lat="31.7516250" lon="35.1311530">
<ele>733.600037</ele>
<time>2025-10-17T16:36:54.399Z</time>
</trkpt>
<trkpt lat="31.7516340" lon="35.1311180">
<ele>733.600037</ele>
<time>2025-10-17T16:36:54.399Z</time>
</trkpt>
<trkpt lat="31.7516410" lon="35.1310820">
<ele>734.000000</ele>
<time>2025-10-17T16:36:54.399Z</time>
</trkpt>
<trkpt lat="31.7516470" lon="35.1310470">
<ele>734.200012</ele>
<time>2025-10-17T16:36:54.399Z</time>
</trkpt>
<trkpt lat="31.7516550" lon="35.1310140">
<ele>734.399963</ele>
<time>2025-10-17T16:36:54.399Z</time>
</trkpt>
<trkpt lat="31.7516650" lon="35.1309840">
<ele>734.399963</ele>
<time>2025-10-17T16:36:54.399Z</time>
</trkpt>
<trkpt lat="31.7516750" lon="35.1309580">
<ele>734.800049</ele>
<time>2025-10-17T16:36:54.399Z</time>
</trkpt>
<trkpt lat="31.7516850" lon="35.1309370">
<ele>734.800049</ele>
<time>2025-10-17T16:36:54.399Z</time>
</trkpt>
<trkpt lat="31.7516970" lon="35.1309160">
<ele>735.000000</ele>
<time>2025-10-17T16:36:54.399Z</time>
</trkpt>
<trkpt lat="31.7517080" lon="35.1308980">
<ele>735.000000</ele>
<time>2025-10-17T16:36:54.399Z</time>
</trkpt>
<trkpt lat="31.7517190" lon="35.1308840">
<ele>735.000000</ele>
<time>2025-10-17T16:36:54.399Z</time>
</trkpt>
<trkpt lat="31.7517290" lon="35.1308720">
<ele>735.000000</ele>
<time>2025-10-17T16:36:54.399Z</time>
</trkpt>
<trkpt lat="31.7517330" lon="35.1308660">
<ele>735.000000</ele>
<time>2025-10-17T16:36:54.399Z</time>
</trkpt>
<trkpt lat="31.7517400" lon="35.1308580">
<ele>735.000000</ele>
<time>2025-10-17T16:36:54.399Z</time>
</trkpt>
<trkpt lat="31.7517510" lon="35.1308460">
<ele>735.000000</ele>
<time>2025-10-17T16:36:54.399Z</time>
</trkpt>
<trkpt lat="31.7517620" lon="35.1308290">
<ele>735.000000</ele>
<time>2025-10-17T16:36:54.399Z</time>
</trkpt>
<trkpt lat="31.7517740" lon="35.1308080">
<ele>734.800049</ele>
<time>2025-10-17T16:36:54.399Z</time>
</trkpt>
<trkpt lat="31.7517870" lon="35.1307880">
<ele>734.800049</ele>
<time>2025-10-17T16:36:54.399Z</time>
</trkpt>
<trkpt lat="31.7518010" lon="35.1307660">
<ele>734.800049</ele>
<time>2025-10-17T16:36:54.399Z</time>
</trkpt>
<trkpt lat="31.7518170" lon="35.1307400">
<ele>734.599976</ele>
<time>2025-10-17T16:36:54.399Z</time>
</trkpt>
<trkpt lat="31.7518370" lon="35.1307120">
<ele>734.800049</ele>
<time>2025-10-17T16:36:54.399Z</time>
</trkpt>
<trkpt lat="31.7518590" lon="35.1306810">
<ele>734.599976</ele>
<time>2025-10-17T16:36:54.399Z</time>
</trkpt>
<trkpt lat="31.7518850" lon="35.1306400">
<ele>734.599976</ele>
<time>2025-10-17T16:36:54.399Z</time>
</trkpt>
<trkpt lat="31.7519200" lon="35.1305520">
<ele>734.399963</ele>
<time>2025-10-17T16:36:54.399Z</time>
</trkpt>
<trkpt lat="31.7519450" lon="35.1304940">
<ele>734.399963</ele>
<time>2025-10-17T16:36:54.399Z</time>
</trkpt>
<trkpt lat="31.7519750" lon="35.1304270">
<ele>734.200012</ele>
<time>2025-10-17T16:36:54.399Z</time>
</trkpt>
<trkpt lat="31.7520150" lon="35.1303280">
<ele>733.199951</ele>
<time>2025-10-17T16:36:54.399Z</time>
</trkpt>
<trkpt lat="31.7520600" lon="35.1302240">
<ele>732.599976</ele>
<time>2025-10-17T16:36:54.399Z</time>
</trkpt>
<trkpt lat="31.7520750" lon="35.1301840">
<ele>732.400024</ele>
<time>2025-10-17T16:36:54.400Z</time>
</trkpt>
<trkpt lat="31.7520910" lon="35.1301490">
<ele>732.400024</ele>
<time>2025-10-17T16:36:54.400Z</time>
</trkpt>
<trkpt lat="31.7521040" lon="35.1301190">
<ele>732.400024</ele>
<time>2025-10-17T16:36:54.400Z</time>
</trkpt>
<trkpt lat="31.7521190" lon="35.1300840">
<ele>732.400024</ele>
<time>2025-10-17T16:36:54.400Z</time>
</trkpt>
<trkpt lat="31.7521320" lon="35.1300500">
<ele>732.400024</ele>
<time>2025-10-17T16:36:54.400Z</time>
</trkpt>
<trkpt lat="31.7521600" lon="35.1299830">
<ele>732.400024</ele>
<time>2025-10-17T16:36:54.400Z</time>
</trkpt>
<trkpt lat="31.7521760" lon="35.1299480">
<ele>732.599976</ele>
<time>2025-10-17T16:36:54.400Z</time>
</trkpt>
<trkpt lat="31.7521930" lon="35.1299120">
<ele>732.599976</ele>
<time>2025-10-17T16:36:54.400Z</time>
</trkpt>
<trkpt lat="31.7522100" lon="35.1298750">
<ele>732.799988</ele>
<time>2025-10-17T16:36:54.400Z</time>
</trkpt>
<trkpt lat="31.7522630" lon="35.1297420">
<ele>733.600037</ele>
<time>2025-10-17T16:36:54.400Z</time>
</trkpt>
<trkpt lat="31.7522800" lon="35.1297110">
<ele>733.600037</ele>
<time>2025-10-17T16:36:54.400Z</time>
</trkpt>
<trkpt lat="31.7522940" lon="35.1296800">
<ele>733.799988</ele>
<time>2025-10-17T16:36:54.400Z</time>
</trkpt>
<trkpt lat="31.7523050" lon="35.1296470">
<ele>734.000000</ele>
<time>2025-10-17T16:36:54.400Z</time>
</trkpt>
<trkpt lat="31.7523160" lon="35.1296130">
<ele>734.200012</ele>
<time>2025-10-17T16:36:54.400Z</time>
</trkpt>
<trkpt lat="31.7523270" lon="35.1295790">
<ele>734.399963</ele>
<time>2025-10-17T16:36:54.400Z</time>
</trkpt>
<trkpt lat="31.7523360" lon="35.1295470">
<ele>734.599976</ele>
<time>2025-10-17T16:36:54.400Z</time>
</trkpt>
<trkpt lat="31.7523390" lon="35.1295160">
<ele>734.800049</ele>
<time>2025-10-17T16:36:54.400Z</time>
</trkpt>
<trkpt lat="31.7523430" lon="35.1294840">
<ele>735.000000</ele>
<time>2025-10-17T16:36:54.400Z</time>
</trkpt>
<trkpt lat="31.7523470" lon="35.1294510">
<ele>735.200012</ele>
<time>2025-10-17T16:36:54.400Z</time>
</trkpt>
<trkpt lat="31.7523540" lon="35.1294200">
<ele>735.200012</ele>
<time>2025-10-17T16:36:54.400Z</time>
</trkpt>
<trkpt lat="31.7523600" lon="35.1293860">
<ele>735.400024</ele>
<time>2025-10-17T16:36:54.400Z</time>
</trkpt>
<trkpt lat="31.7523870" lon="35.1292810">
<ele>735.599976</ele>
<time>2025-10-17T16:36:54.400Z</time>
</trkpt>
<trkpt lat="31.7524180" lon="35.1291350">
<ele>735.799988</ele>
<time>2025-10-17T16:36:54.400Z</time>
</trkpt>
<trkpt lat="31.7524160" lon="35.1290940">
<ele>735.799988</ele>
<time>2025-10-17T16:36:54.400Z</time>
</trkpt>
<trkpt lat="31.7524080" lon="35.1290530">
<ele>735.799988</ele>
<time>2025-10-17T16:36:54.400Z</time>
</trkpt>
<trkpt lat="31.7523970" lon="35.1290110">
<ele>735.799988</ele>
<time>2025-10-17T16:36:54.400Z</time>
</trkpt>
<trkpt lat="31.7523840" lon="35.1289710">
<ele>735.799988</ele>
<time>2025-10-17T16:36:54.400Z</time>
</trkpt>
<trkpt lat="31.7523700" lon="35.1289330">
<ele>735.799988</ele>
<time>2025-10-17T16:36:54.401Z</time>
</trkpt>
<trkpt lat="31.7523530" lon="35.1288960">
<ele>735.599976</ele>
<time>2025-10-17T16:36:54.401Z</time>
</trkpt>
<trkpt lat="31.7523140" lon="35.1288300">
<ele>735.599976</ele>
<time>2025-10-17T16:36:54.401Z</time>
</trkpt>
<trkpt lat="31.7521870" lon="35.1286940">
<ele>735.799988</ele>
<time>2025-10-17T16:36:54.401Z</time>
</trkpt>
<trkpt lat="31.7521630" lon="35.1286690">
<ele>735.799988</ele>
<time>2025-10-17T16:36:54.401Z</time>
</trkpt>
<trkpt lat="31.7521390" lon="35.1286430">
<ele>736.000000</ele>
<time>2025-10-17T16:36:54.401Z</time>
</trkpt>
<trkpt lat="31.7521120" lon="35.1286210">
<ele>736.000000</ele>
<time>2025-10-17T16:36:54.401Z</time>
</trkpt>
<trkpt lat="31.7520840" lon="35.1286010">
<ele>736.199951</ele>
<time>2025-10-17T16:36:54.401Z</time>
</trkpt>
<trkpt lat="31.7520510" lon="35.1285850">
<ele>736.199951</ele>
<time>2025-10-17T16:36:54.401Z</time>
</trkpt>
<trkpt lat="31.7520170" lon="35.1285750">
<ele>736.199951</ele>
<time>2025-10-17T16:36:54.401Z</time>
</trkpt>
<trkpt lat="31.7519840" lon="35.1285710">
<ele>736.199951</ele>
<time>2025-10-17T16:36:54.401Z</time>
</trkpt>
<trkpt lat="31.7519480" lon="35.1285660">
<ele>736.199951</ele>
<time>2025-10-17T16:36:54.401Z</time>
</trkpt>
<trkpt lat="31.7519210" lon="35.1285590">
<ele>736.199951</ele>
<time>2025-10-17T16:36:54.401Z</time>
</trkpt>
<trkpt lat="31.7518990" lon="35.1285540">
<ele>736.400024</ele>
<time>2025-10-17T16:36:54.401Z</time>
</trkpt>
<trkpt lat="31.7518730" lon="35.1285460">
<ele>736.600037</ele>
<time>2025-10-17T16:36:54.401Z</time>
</trkpt>
<trkpt lat="31.7518440" lon="35.1285360">
<ele>736.799988</ele>
<time>2025-10-17T16:36:54.401Z</time>
</trkpt>
<trkpt lat="31.7518230" lon="35.1285280">
<ele>737.200012</ele>
<time>2025-10-17T16:36:54.401Z</time>
</trkpt>
<trkpt lat="31.7517940" lon="35.1285160">
<ele>737.200012</ele>
<time>2025-10-17T16:36:54.401Z</time>
</trkpt>
<trkpt lat="31.7517740" lon="35.1285090">
<ele>737.200012</ele>
<time>2025-10-17T16:36:54.401Z</time>
</trkpt>
<trkpt lat="31.7517480" lon="35.1285000">
<ele>737.399963</ele>
<time>2025-10-17T16:36:54.401Z</time>
</trkpt>
<trkpt lat="31.7517200" lon="35.1284880">
<ele>737.399963</ele>
<time>2025-10-17T16:36:54.401Z</time>
</trkpt>
<trkpt lat="31.7516960" lon="35.1284780">
<ele>737.399963</ele>
<time>2025-10-17T16:36:54.401Z</time>
</trkpt>
<trkpt lat="31.7516760" lon="35.1284710">
<ele>737.599976</ele>
<time>2025-10-17T16:36:54.401Z</time>
</trkpt>
<trkpt lat="31.7516510" lon="35.1284620">
<ele>737.800049</ele>
<time>2025-10-17T16:36:54.401Z</time>
</trkpt>
<trkpt lat="31.7516210" lon="35.1284480">
<ele>738.000000</ele>
<time>2025-10-17T16:36:54.401Z</time>
</trkpt>
<trkpt lat="31.7515520" lon="35.1284140">
<ele>738.799988</ele>
<time>2025-10-17T16:36:54.401Z</time>
</trkpt>
<trkpt lat="31.7515250" lon="35.1284030">
<ele>739.000000</ele>
<time>2025-10-17T16:36:54.401Z</time>
</trkpt>
<trkpt lat="31.7514990" lon="35.1283900">
<ele>739.199951</ele>
<time>2025-10-17T16:36:54.401Z</time>
</trkpt>
<trkpt lat="31.7514690" lon="35.1283720">
<ele>739.400024</ele>
<time>2025-10-17T16:36:54.402Z</time>
</trkpt>
<trkpt lat="31.7514510" lon="35.1283580">
<ele>739.400024</ele>
<time>2025-10-17T16:36:54.402Z</time>
</trkpt>
<trkpt lat="31.7514250" lon="35.1283390">
<ele>739.400024</ele>
<time>2025-10-17T16:36:54.402Z</time>
</trkpt>
<trkpt lat="31.7514000" lon="35.1283180">
<ele>739.600037</ele>
<time>2025-10-17T16:36:54.402Z</time>
</trkpt>
<trkpt lat="31.7513710" lon="35.1282930">
<ele>739.600037</ele>
<time>2025-10-17T16:36:54.402Z</time>
</trkpt>
<trkpt lat="31.7513450" lon="35.1282740">
<ele>739.600037</ele>
<time>2025-10-17T16:36:54.402Z</time>
</trkpt>
<trkpt lat="31.7513250" lon="35.1282580">
<ele>739.799988</ele>
<time>2025-10-17T16:36:54.402Z</time>
</trkpt>
<trkpt lat="31.7513000" lon="35.1282380">
<ele>739.799988</ele>
<time>2025-10-17T16:36:54.402Z</time>
</trkpt>
<trkpt lat="31.7512720" lon="35.1282140">
<ele>740.000000</ele>
<time>2025-10-17T16:36:54.402Z</time>
</trkpt>
<trkpt lat="31.7512500" lon="35.1281950">
<ele>740.200012</ele>
<time>2025-10-17T16:36:54.402Z</time>
</trkpt>
<trkpt lat="31.7512270" lon="35.1281740">
<ele>740.200012</ele>
<time>2025-10-17T16:36:54.402Z</time>
</trkpt>
<trkpt lat="31.7512090" lon="35.1281550">
<ele>740.399963</ele>
<time>2025-10-17T16:36:54.402Z</time>
</trkpt>
<trkpt lat="31.7511860" lon="35.1281330">
<ele>740.399963</ele>
<time>2025-10-17T16:36:54.402Z</time>
</trkpt>
<trkpt lat="31.7511590" lon="35.1281130">
<ele>740.399963</ele>
<time>2025-10-17T16:36:54.402Z</time>
</trkpt>
<trkpt lat="31.7511260" lon="35.1280870">
<ele>740.399963</ele>
<time>2025-10-17T16:36:54.402Z</time>
</trkpt>
<trkpt lat="31.7511050" lon="35.1280680">
<ele>740.399963</ele>
<time>2025-10-17T16:36:54.402Z</time>
</trkpt>
<trkpt lat="31.7510780" lon="35.1280460">
<ele>740.599976</ele>
<time>2025-10-17T16:36:54.402Z</time>
</trkpt>
<trkpt lat="31.7510480" lon="35.1280190">
<ele>740.800049</ele>
<time>2025-10-17T16:36:54.402Z</time>
</trkpt>
<trkpt lat="31.7510330" lon="35.1279970">
<ele>740.800049</ele>
<time>2025-10-17T16:36:54.402Z</time>
</trkpt>
<trkpt lat="31.7510170" lon="35.1279660">
<ele>740.800049</ele>
<time>2025-10-17T16:36:54.402Z</time>
</trkpt>
<trkpt lat="31.7510040" lon="35.1279320">
<ele>740.800049</ele>
<time>2025-10-17T16:36:54.402Z</time>
</trkpt>
<trkpt lat="31.7509900" lon="35.1278980">
<ele>740.800049</ele>
<time>2025-10-17T16:36:54.402Z</time>
</trkpt>
<trkpt lat="31.7509760" lon="35.1278610">
<ele>740.599976</ele>
<time>2025-10-17T16:36:54.402Z</time>
</trkpt>
<trkpt lat="31.7509640" lon="35.1278200">
<ele>740.599976</ele>
<time>2025-10-17T16:36:54.402Z</time>
</trkpt>
<trkpt lat="31.7509560" lon="35.1276440">
<ele>740.399963</ele>
<time>2025-10-17T16:36:54.402Z</time>
</trkpt>
<trkpt lat="31.7509700" lon="35.1276030">
<ele>740.200012</ele>
<time>2025-10-17T16:36:54.402Z</time>
</trkpt>
<trkpt lat="31.7509880" lon="35.1275680">
<ele>740.000000</ele>
<time>2025-10-17T16:36:54.403Z</time>
</trkpt>
<trkpt lat="31.7509990" lon="35.1275380">
<ele>740.000000</ele>
<time>2025-10-17T16:36:54.403Z</time>
</trkpt>
<trkpt lat="31.7510020" lon="35.1275070">
<ele>740.000000</ele>
<time>2025-10-17T16:36:54.403Z</time>
</trkpt>
<trkpt lat="31.7510000" lon="35.1274790">
<ele>740.000000</ele>
<time>2025-10-17T16:36:54.403Z</time>
</trkpt>
<trkpt lat="31.7510000" lon="35.1274520">
<ele>739.799988</ele>
<time>2025-10-17T16:36:54.403Z</time>
</trkpt>
<trkpt lat="31.7510070" lon="35.1274350">
<ele>739.799988</ele>
<time>2025-10-17T16:36:54.403Z</time>
</trkpt>
<trkpt lat="31.7510160" lon="35.1274170">
<ele>739.799988</ele>
<time>2025-10-17T16:36:54.403Z</time>
</trkpt>
<trkpt lat="31.7510270" lon="35.1274010">
<ele>739.600037</ele>
<time>2025-10-17T16:36:54.403Z</time>
</trkpt>
<trkpt lat="31.7510360" lon="35.1273870">
<ele>739.799988</ele>
<time>2025-10-17T16:36:54.403Z</time>
</trkpt>
<trkpt lat="31.7510420" lon="35.1273720">
<ele>739.799988</ele>
<time>2025-10-17T16:36:54.403Z</time>
</trkpt>
<trkpt lat="31.7510390" lon="35.1273580">
<ele>739.799988</ele>
<time>2025-10-17T16:36:54.403Z</time>
</trkpt>
<trkpt lat="31.7510330" lon="35.1273440">
<ele>740.000000</ele>
<time>2025-10-17T16:36:54.403Z</time>
</trkpt>
<trkpt lat="31.7510290" lon="35.1273360">
<ele>740.000000</ele>
<time>2025-10-17T16:36:54.403Z</time>
</trkpt>
<trkpt lat="31.7510290" lon="35.1273360">
<ele>740.000000</ele>
<time>2025-10-17T16:36:54.403Z</time>
</trkpt>
<trkpt lat="31.7510470" lon="35.1272920">
<ele>739.400024</ele>
<time>2025-10-17T16:36:54.403Z</time>
</trkpt>
<trkpt lat="31.7510790" lon="35.1272680">
<ele>739.199951</ele>
<time>2025-10-17T16:36:54.403Z</time>
</trkpt>
<trkpt lat="31.7511350" lon="35.1272300">
<ele>739.199951</ele>
<time>2025-10-17T16:36:54.403Z</time>
</trkpt>
<trkpt lat="31.7511500" lon="35.1272050">
<ele>739.199951</ele>
<time>2025-10-17T16:36:54.403Z</time>
</trkpt>
<trkpt lat="31.7511550" lon="35.1271750">
<ele>739.199951</ele>
<time>2025-10-17T16:36:54.403Z</time>
</trkpt>
<trkpt lat="31.7511530" lon="35.1271600">
<ele>739.199951</ele>
<time>2025-10-17T16:36:54.403Z</time>
</trkpt>
<trkpt lat="31.7511520" lon="35.1271420">
<ele>739.199951</ele>
<time>2025-10-17T16:36:54.403Z</time>
</trkpt>
<trkpt lat="31.7511530" lon="35.1271300">
<ele>739.199951</ele>
<time>2025-10-17T16:36:54.403Z</time>
</trkpt>
<trkpt lat="31.7511560" lon="35.1271170">
<ele>739.199951</ele>
<time>2025-10-17T16:36:54.403Z</time>
</trkpt>
<trkpt lat="31.7511620" lon="35.1271080">
<ele>739.199951</ele>
<time>2025-10-17T16:36:54.403Z</time>
</trkpt>
<trkpt lat="31.7511700" lon="35.1270990">
<ele>739.199951</ele>
<time>2025-10-17T16:36:54.403Z</time>
</trkpt>
<trkpt lat="31.7511790" lon="35.1270900">
<ele>739.199951</ele>
<time>2025-10-17T16:36:54.403Z</time>
</trkpt>
<trkpt lat="31.7511860" lon="35.1270740">
<ele>739.199951</ele>
<time>2025-10-17T16:36:54.403Z</time>
</trkpt>
<trkpt lat="31.7511900" lon="35.1270580">
<ele>739.199951</ele>
<time>2025-10-17T16:36:54.404Z</time>
</trkpt>
<trkpt lat="31.7511900" lon="35.1270440">
<ele>739.199951</ele>
<time>2025-10-17T16:36:54.404Z</time>
</trkpt>
<trkpt lat="31.7511900" lon="35.1270280">
<ele>739.400024</ele>
<time>2025-10-17T16:36:54.404Z</time>
</trkpt>
<trkpt lat="31.7511890" lon="35.1270150">
<ele>739.400024</ele>
<time>2025-10-17T16:36:54.404Z</time>
</trkpt>
<trkpt lat="31.7511900" lon="35.1269970">
<ele>739.400024</ele>
<time>2025-10-17T16:36:54.404Z</time>
</trkpt>
<trkpt lat="31.7512070" lon="35.1269470">
<ele>739.600037</ele>
<time>2025-10-17T16:36:54.404Z</time>
</trkpt>
<trkpt lat="31.7512110" lon="35.1269310">
<ele>739.799988</ele>
<time>2025-10-17T16:36:54.404Z</time>
</trkpt>
<trkpt lat="31.7512250" lon="35.1269030">
<ele>739.799988</ele>
<time>2025-10-17T16:36:54.404Z</time>
</trkpt>
<trkpt lat="31.7512310" lon="35.1268850">
<ele>739.799988</ele>
<time>2025-10-17T16:36:54.404Z</time>
</trkpt>
<trkpt lat="31.7512610" lon="35.1268290">
<ele>740.000000</ele>
<time>2025-10-17T16:36:54.404Z</time>
</trkpt>
<trkpt lat="31.7512810" lon="35.1267900">
<ele>740.200012</ele>
<time>2025-10-17T16:36:54.404Z</time>
</trkpt>
<trkpt lat="31.7512900" lon="35.1267730">
<ele>740.200012</ele>
<time>2025-10-17T16:36:54.404Z</time>
</trkpt>
<trkpt lat="31.7513030" lon="35.1267400">
<ele>740.399963</ele>
<time>2025-10-17T16:36:54.404Z</time>
</trkpt>
<trkpt lat="31.7513020" lon="35.1267180">
<ele>740.399963</ele>
<time>2025-10-17T16:36:54.404Z</time>
</trkpt>
<trkpt lat="31.7512980" lon="35.1266920">
<ele>740.599976</ele>
<time>2025-10-17T16:36:54.404Z</time>
</trkpt>
<trkpt lat="31.7512830" lon="35.1266410">
<ele>740.800049</ele>
<time>2025-10-17T16:36:54.404Z</time>
</trkpt>
<trkpt lat="31.7512770" lon="35.1266150">
<ele>741.000000</ele>
<time>2025-10-17T16:36:54.404Z</time>
</trkpt>
<trkpt lat="31.7512740" lon="35.1265920">
<ele>741.200012</ele>
<time>2025-10-17T16:36:54.404Z</time>
</trkpt>
<trkpt lat="31.7512720" lon="35.1265430">
<ele>741.400024</ele>
<time>2025-10-17T16:36:54.404Z</time>
</trkpt>
<trkpt lat="31.7512740" lon="35.1265200">
<ele>741.599976</ele>
<time>2025-10-17T16:36:54.404Z</time>
</trkpt>
<trkpt lat="31.7512790" lon="35.1265040">
<ele>741.599976</ele>
<time>2025-10-17T16:36:54.404Z</time>
</trkpt>
<trkpt lat="31.7512970" lon="35.1264710">
<ele>742.000000</ele>
<time>2025-10-17T16:36:54.404Z</time>
</trkpt>
<trkpt lat="31.7513070" lon="35.1264490">
<ele>742.000000</ele>
<time>2025-10-17T16:36:54.404Z</time>
</trkpt>
<trkpt lat="31.7513150" lon="35.1264230">
<ele>742.199951</ele>
<time>2025-10-17T16:36:54.404Z</time>
</trkpt>
<trkpt lat="31.7513400" lon="35.1263600">
<ele>742.400024</ele>
<time>2025-10-17T16:36:54.405Z</time>
</trkpt>
<trkpt lat="31.7513480" lon="35.1263390">
<ele>742.400024</ele>
<time>2025-10-17T16:36:54.405Z</time>
</trkpt>
<trkpt lat="31.7513570" lon="35.1263190">
<ele>742.400024</ele>
<time>2025-10-17T16:36:54.405Z</time>
</trkpt>
<trkpt lat="31.7513610" lon="35.1262960">
<ele>742.600037</ele>
<time>2025-10-17T16:36:54.405Z</time>
</trkpt>
<trkpt lat="31.7513680" lon="35.1262680">
<ele>742.799988</ele>
<time>2025-10-17T16:36:54.405Z</time>
</trkpt>
<trkpt lat="31.7513750" lon="35.1262380">
<ele>743.000000</ele>
<time>2025-10-17T16:36:54.405Z</time>
</trkpt>
<trkpt lat="31.7513970" lon="35.1261870">
<ele>743.200012</ele>
<time>2025-10-17T16:36:54.405Z</time>
</trkpt>
<trkpt lat="31.7514070" lon="35.1261680">
<ele>743.200012</ele>
<time>2025-10-17T16:36:54.405Z</time>
</trkpt>
<trkpt lat="31.7514150" lon="35.1261490">
<ele>743.200012</ele>
<time>2025-10-17T16:36:54.405Z</time>
</trkpt>
<trkpt lat="31.7514210" lon="35.1261300">
<ele>743.399963</ele>
<time>2025-10-17T16:36:54.405Z</time>
</trkpt>
<trkpt lat="31.7514250" lon="35.1261060">
<ele>743.399963</ele>
<time>2025-10-17T16:36:54.405Z</time>
</trkpt>
<trkpt lat="31.7514300" lon="35.1260850">
<ele>743.600037</ele>
<time>2025-10-17T16:36:54.405Z</time>
</trkpt>
<trkpt lat="31.7514370" lon="35.1260620">
<ele>743.600037</ele>
<time>2025-10-17T16:36:54.405Z</time>
</trkpt>
<trkpt lat="31.7514500" lon="35.1260420">
<ele>743.600037</ele>
<time>2025-10-17T16:36:54.405Z</time>
</trkpt>
<trkpt lat="31.7514590" lon="35.1260180">
<ele>743.600037</ele>
<time>2025-10-17T16:36:54.405Z</time>
</trkpt>
<trkpt lat="31.7514630" lon="35.1259900">
<ele>743.600037</ele>
<time>2025-10-17T16:36:54.405Z</time>
</trkpt>
<trkpt lat="31.7514750" lon="35.1259180">
<ele>743.800049</ele>
<time>2025-10-17T16:36:54.405Z</time>
</trkpt>
<trkpt lat="31.7514830" lon="35.1258790">
<ele>743.800049</ele>
<time>2025-10-17T16:36:54.405Z</time>
</trkpt>
<trkpt lat="31.7514900" lon="35.1258380">
<ele>743.800049</ele>
<time>2025-10-17T16:36:54.405Z</time>
</trkpt>
<trkpt lat="31.7515000" lon="35.1258100">
<ele>744.000000</ele>
<time>2025-10-17T16:36:54.405Z</time>
</trkpt>
<trkpt lat="31.7515080" lon="35.1257800">
<ele>744.000000</ele>
<time>2025-10-17T16:36:54.405Z</time>
</trkpt>
<trkpt lat="31.7515190" lon="35.1257530">
<ele>744.200012</ele>
<time>2025-10-17T16:36:54.406Z</time>
</trkpt>
<trkpt lat="31.7515320" lon="35.1257270">
<ele>744.200012</ele>
<time>2025-10-17T16:36:54.406Z</time>
</trkpt>
<trkpt lat="31.7515430" lon="35.1256970">
<ele>744.200012</ele>
<time>2025-10-17T16:36:54.406Z</time>
</trkpt>
<trkpt lat="31.7515840" lon="35.1256140">
<ele>744.400024</ele>
<time>2025-10-17T16:36:54.406Z</time>
</trkpt>
<trkpt lat="31.7516030" lon="35.1255880">
<ele>744.400024</ele>
<time>2025-10-17T16:36:54.406Z</time>
</trkpt>
<trkpt lat="31.7516210" lon="35.1255570">
<ele>744.400024</ele>
<time>2025-10-17T16:36:54.406Z</time>
</trkpt>
<trkpt lat="31.7516370" lon="35.1255170">
<ele>744.400024</ele>
<time>2025-10-17T16:36:54.406Z</time>
</trkpt>
<trkpt lat="31.7516860" lon="35.1253950">
<ele>744.200012</ele>
<time>2025-10-17T16:36:54.406Z</time>
</trkpt>
<trkpt lat="31.7516990" lon="35.1253160">
<ele>744.200012</ele>
<time>2025-10-17T16:36:54.406Z</time>
</trkpt>
<trkpt lat="31.7517060" lon="35.1252720">
<ele>744.200012</ele>
<time>2025-10-17T16:36:54.406Z</time>
</trkpt>
<trkpt lat="31.7517170" lon="35.1252380">
<ele>744.200012</ele>
<time>2025-10-17T16:36:54.406Z</time>
</trkpt>
<trkpt lat="31.7517300" lon="35.1252050">
<ele>744.200012</ele>
<time>2025-10-17T16:36:54.406Z</time>
</trkpt>
<trkpt lat="31.7517410" lon="35.1251710">
<ele>744.200012</ele>
<time>2025-10-17T16:36:54.406Z</time>
</trkpt>
<trkpt lat="31.7517470" lon="35.1251280">
<ele>744.200012</ele>
<time>2025-10-17T16:36:54.406Z</time>
</trkpt>
<trkpt lat="31.7517560" lon="35.1250640">
<ele>744.400024</ele>
<time>2025-10-17T16:36:54.406Z</time>
</trkpt>
<trkpt lat="31.7517670" lon="35.1250340">
<ele>744.400024</ele>
<time>2025-10-17T16:36:54.406Z</time>
</trkpt>
<trkpt lat="31.7518100" lon="35.1249250">
<ele>744.599976</ele>
<time>2025-10-17T16:36:54.406Z</time>
</trkpt>
<trkpt lat="31.7518320" lon="35.1248870">
<ele>744.799988</ele>
<time>2025-10-17T16:36:54.406Z</time>
</trkpt>
<trkpt lat="31.7518740" lon="35.1248050">
<ele>744.799988</ele>
<time>2025-10-17T16:36:54.406Z</time>
</trkpt>
<trkpt lat="31.7518860" lon="35.1247570">
<ele>744.799988</ele>
<time>2025-10-17T16:36:54.406Z</time>
</trkpt>
<trkpt lat="31.7519190" lon="35.1246740">
<ele>744.599976</ele>
<time>2025-10-17T16:36:54.406Z</time>
</trkpt>
<trkpt lat="31.7519340" lon="35.1246310">
<ele>744.599976</ele>
<time>2025-10-17T16:36:54.406Z</time>
</trkpt>
<trkpt lat="31.7519460" lon="35.1245860">
<ele>744.599976</ele>
<time>2025-10-17T16:36:54.406Z</time>
</trkpt>
<trkpt lat="31.7519580" lon="35.1244620">
<ele>744.400024</ele>
<time>2025-10-17T16:36:54.406Z</time>
</trkpt>
<trkpt lat="31.7519560" lon="35.1244250">
<ele>744.400024</ele>
<time>2025-10-17T16:36:54.406Z</time>
</trkpt>
<trkpt lat="31.7519580" lon="35.1243900">
<ele>744.400024</ele>
<time>2025-10-17T16:36:54.406Z</time>
</trkpt>
<trkpt lat="31.7519600" lon="35.1243540">
<ele>744.400024</ele>
<time>2025-10-17T16:36:54.407Z</time>
</trkpt>
<trkpt lat="31.7519640" lon="35.1243170">
<ele>744.400024</ele>
<time>2025-10-17T16:36:54.407Z</time>
</trkpt>
<trkpt lat="31.7519670" lon="35.1242770">
<ele>744.599976</ele>
<time>2025-10-17T16:36:54.407Z</time>
</trkpt>
<trkpt lat="31.7519740" lon="35.1242420">
<ele>744.599976</ele>
<time>2025-10-17T16:36:54.407Z</time>
</trkpt>
<trkpt lat="31.7519810" lon="35.1242100">
<ele>744.799988</ele>
<time>2025-10-17T16:36:54.407Z</time>
</trkpt>
<trkpt lat="31.7519900" lon="35.1241820">
<ele>745.000061</ele>
<time>2025-10-17T16:36:54.407Z</time>
</trkpt>
<trkpt lat="31.7520030" lon="35.1241490">
<ele>745.200012</ele>
<time>2025-10-17T16:36:54.407Z</time>
</trkpt>
<trkpt lat="31.7520150" lon="35.1241080">
<ele>745.400024</ele>
<time>2025-10-17T16:36:54.407Z</time>
</trkpt>
<trkpt lat="31.7520310" lon="35.1240700">
<ele>745.400024</ele>
<time>2025-10-17T16:36:54.407Z</time>
</trkpt>
<trkpt lat="31.7520450" lon="35.1240310">
<ele>745.400024</ele>
<time>2025-10-17T16:36:54.407Z</time>
</trkpt>
<trkpt lat="31.7520560" lon="35.1239820">
<ele>745.600037</ele>
<time>2025-10-17T16:36:54.407Z</time>
</trkpt>
<trkpt lat="31.7520880" lon="35.1239010">
<ele>745.600037</ele>
<time>2025-10-17T16:36:54.407Z</time>
</trkpt>
<trkpt lat="31.7521630" lon="35.1237970">
<ele>745.799988</ele>
<time>2025-10-17T16:36:54.407Z</time>
</trkpt>
<trkpt lat="31.7522330" lon="35.1237250">
<ele>745.600037</ele>
<time>2025-10-17T16:36:54.407Z</time>
</trkpt>
<trkpt lat="31.7523010" lon="35.1236230">
<ele>745.600037</ele>
<time>2025-10-17T16:36:54.407Z</time>
</trkpt>
<trkpt lat="31.7523550" lon="35.1235430">
<ele>745.400024</ele>
<time>2025-10-17T16:36:54.407Z</time>
</trkpt>
<trkpt lat="31.7523820" lon="35.1234940">
<ele>745.200012</ele>
<time>2025-10-17T16:36:54.407Z</time>
</trkpt>
<trkpt lat="31.7524080" lon="35.1234450">
<ele>745.200012</ele>
<time>2025-10-17T16:36:54.407Z</time>
</trkpt>
<trkpt lat="31.7524310" lon="35.1233960">
<ele>745.000061</ele>
<time>2025-10-17T16:36:54.407Z</time>
</trkpt>
<trkpt lat="31.7524480" lon="35.1232930">
<ele>744.799988</ele>
<time>2025-10-17T16:36:54.407Z</time>
</trkpt>
<trkpt lat="31.7524420" lon="35.1232400">
<ele>744.599976</ele>
<time>2025-10-17T16:36:54.407Z</time>
</trkpt>
<trkpt lat="31.7524360" lon="35.1231800">
<ele>744.599976</ele>
<time>2025-10-17T16:36:54.407Z</time>
</trkpt>
<trkpt lat="31.7524370" lon="35.1231090">
<ele>744.400024</ele>
<time>2025-10-17T16:36:54.407Z</time>
</trkpt>
<trkpt lat="31.7524350" lon="35.1230380">
<ele>744.400024</ele>
<time>2025-10-17T16:36:54.407Z</time>
</trkpt>
<trkpt lat="31.7524360" lon="35.1229760">
<ele>744.200012</ele>
<time>2025-10-17T16:36:54.407Z</time>
</trkpt>
<trkpt lat="31.7524320" lon="35.1229170">
<ele>744.000000</ele>
<time>2025-10-17T16:36:54.407Z</time>
</trkpt>
<trkpt lat="31.7524160" lon="35.1228610">
<ele>743.800049</ele>
<time>2025-10-17T16:36:54.407Z</time>
</trkpt>
<trkpt lat="31.7523900" lon="35.1228010">
<ele>743.800049</ele>
<time>2025-10-17T16:36:54.408Z</time>
</trkpt>
<trkpt lat="31.7523570" lon="35.1227550">
<ele>743.600037</ele>
<time>2025-10-17T16:36:54.408Z</time>
</trkpt>
<trkpt lat="31.7523200" lon="35.1227190">
<ele>743.200012</ele>
<time>2025-10-17T16:36:54.408Z</time>
</trkpt>
<trkpt lat="31.7522740" lon="35.1226860">
<ele>743.000000</ele>
<time>2025-10-17T16:36:54.408Z</time>
</trkpt>
<trkpt lat="31.7522220" lon="35.1226380">
<ele>743.000000</ele>
<time>2025-10-17T16:36:54.408Z</time>
</trkpt>
<trkpt lat="31.7521780" lon="35.1226020">
<ele>743.000000</ele>
<time>2025-10-17T16:36:54.408Z</time>
</trkpt>
<trkpt lat="31.7521460" lon="35.1225660">
<ele>742.799988</ele>
<time>2025-10-17T16:36:54.408Z</time>
</trkpt>
<trkpt lat="31.7521150" lon="35.1225290">
<ele>742.799988</ele>
<time>2025-10-17T16:36:54.408Z</time>
</trkpt>
<trkpt lat="31.7520890" lon="35.1224920">
<ele>743.200012</ele>
<time>2025-10-17T16:36:54.408Z</time>
</trkpt>
<trkpt lat="31.7520610" lon="35.1224550">
<ele>743.200012</ele>
<time>2025-10-17T16:36:54.408Z</time>
</trkpt>
<trkpt lat="31.7520340" lon="35.1224260">
<ele>743.399963</ele>
<time>2025-10-17T16:36:54.408Z</time>
</trkpt>
<trkpt lat="31.7520070" lon="35.1224020">
<ele>743.600037</ele>
<time>2025-10-17T16:36:54.408Z</time>
</trkpt>
<trkpt lat="31.7519800" lon="35.1223760">
<ele>743.800049</ele>
<time>2025-10-17T16:36:54.408Z</time>
</trkpt>
<trkpt lat="31.7519510" lon="35.1223530">
<ele>744.000000</ele>
<time>2025-10-17T16:36:54.408Z</time>
</trkpt>
<trkpt lat="31.7519220" lon="35.1223290">
<ele>744.200012</ele>
<time>2025-10-17T16:36:54.408Z</time>
</trkpt>
<trkpt lat="31.7518930" lon="35.1223030">
<ele>744.400024</ele>
<time>2025-10-17T16:36:54.408Z</time>
</trkpt>
<trkpt lat="31.7518640" lon="35.1222730">
<ele>744.599976</ele>
<time>2025-10-17T16:36:54.408Z</time>
</trkpt>
<trkpt lat="31.7517490" lon="35.1221820">
<ele>745.200012</ele>
<time>2025-10-17T16:36:54.408Z</time>
</trkpt>
<trkpt lat="31.7517080" lon="35.1221580">
<ele>745.200012</ele>
<time>2025-10-17T16:36:54.408Z</time>
</trkpt>
<trkpt lat="31.7516210" lon="35.1221300">
<ele>745.400024</ele>
<time>2025-10-17T16:36:54.408Z</time>
</trkpt>
<trkpt lat="31.7515250" lon="35.1221230">
<ele>745.400024</ele>
<time>2025-10-17T16:36:54.408Z</time>
</trkpt>
<trkpt lat="31.7514800" lon="35.1221170">
<ele>745.200012</ele>
<time>2025-10-17T16:36:54.408Z</time>
</trkpt>
<trkpt lat="31.7514340" lon="35.1221130">
<ele>745.200012</ele>
<time>2025-10-17T16:36:54.409Z</time>
</trkpt>
<trkpt lat="31.7513870" lon="35.1221130">
<ele>745.400024</ele>
<time>2025-10-17T16:36:54.409Z</time>
</trkpt>
<trkpt lat="31.7513140" lon="35.1221080">
<ele>745.400024</ele>
<time>2025-10-17T16:36:54.409Z</time>
</trkpt>
<trkpt lat="31.7512710" lon="35.1221030">
<ele>745.799988</ele>
<time>2025-10-17T16:36:54.409Z</time>
</trkpt>
<trkpt lat="31.7512290" lon="35.1220920">
<ele>745.600037</ele>
<time>2025-10-17T16:36:54.409Z</time>
</trkpt>
<trkpt lat="31.7511930" lon="35.1220830">
<ele>745.799988</ele>
<time>2025-10-17T16:36:54.409Z</time>
</trkpt>
<trkpt lat="31.7511560" lon="35.1220750">
<ele>746.000000</ele>
<time>2025-10-17T16:36:54.409Z</time>
</trkpt>
<trkpt lat="31.7510860" lon="35.1220510">
<ele>746.399963</ele>
<time>2025-10-17T16:36:54.409Z</time>
</trkpt>
<trkpt lat="31.7510500" lon="35.1220370">
<ele>746.399963</ele>
<time>2025-10-17T16:36:54.409Z</time>
</trkpt>
<trkpt lat="31.7510120" lon="35.1220250">
<ele>746.600037</ele>
<time>2025-10-17T16:36:54.409Z</time>
</trkpt>
<trkpt lat="31.7509690" lon="35.1220150">
<ele>746.600037</ele>
<time>2025-10-17T16:36:54.409Z</time>
</trkpt>
<trkpt lat="31.7509330" lon="35.1220060">
<ele>746.600037</ele>
<time>2025-10-17T16:36:54.409Z</time>
</trkpt>
<trkpt lat="31.7509010" lon="35.1219970">
<ele>746.600037</ele>
<time>2025-10-17T16:36:54.409Z</time>
</trkpt>
<trkpt lat="31.7508470" lon="35.1219860">
<ele>746.600037</ele>
<time>2025-10-17T16:36:54.409Z</time>
</trkpt>
<trkpt lat="31.7508430" lon="35.1219860">
<ele>746.600037</ele>
<time>2025-10-17T16:36:54.409Z</time>
</trkpt>
<trkpt lat="31.7508430" lon="35.1219860">
<ele>746.600037</ele>
<time>2025-10-17T16:36:54.409Z</time>
</trkpt>
<trkpt lat="31.7508430" lon="35.1219860">
<ele>746.600037</ele>
<time>2025-10-17T16:36:54.409Z</time>
</trkpt>
<trkpt lat="31.7508370" lon="35.1219460">
<ele>746.399963</ele>
<time>2025-10-17T16:36:54.409Z</time>
</trkpt>
<trkpt lat="31.7508490" lon="35.1219340">
<ele>746.399963</ele>
<time>2025-10-17T16:36:54.409Z</time>
</trkpt>
<trkpt lat="31.7509210" lon="35.1219190">
<ele>746.200012</ele>
<time>2025-10-17T16:36:54.409Z</time>
</trkpt>
<trkpt lat="31.7510820" lon="35.1219130">
<ele>745.400024</ele>
<time>2025-10-17T16:36:54.409Z</time>
</trkpt>
<trkpt lat="31.7511480" lon="35.1218840">
<ele>745.000061</ele>
<time>2025-10-17T16:36:54.409Z</time>
</trkpt>
<trkpt lat="31.7511860" lon="35.1218630">
<ele>744.799988</ele>
<time>2025-10-17T16:36:54.409Z</time>
</trkpt>
<trkpt lat="31.7512300" lon="35.1218390">
<ele>744.599976</ele>
<time>2025-10-17T16:36:54.409Z</time>
</trkpt>
<trkpt lat="31.7513730" lon="35.1217660">
<ele>744.000000</ele>
<time>2025-10-17T16:36:54.409Z</time>
</trkpt>
<trkpt lat="31.7514260" lon="35.1217480">
<ele>743.800049</ele>
<time>2025-10-17T16:36:54.410Z</time>
</trkpt>
<trkpt lat="31.7514720" lon="35.1217300">
<ele>743.200012</ele>
<time>2025-10-17T16:36:54.410Z</time>
</trkpt>
<trkpt lat="31.7515150" lon="35.1217110">
<ele>742.400024</ele>
<time>2025-10-17T16:36:54.410Z</time>
</trkpt>
<trkpt lat="31.7515570" lon="35.1216890">
<ele>742.000000</ele>
<time>2025-10-17T16:36:54.410Z</time>
</trkpt>
<trkpt lat="31.7515960" lon="35.1216650">
<ele>741.000000</ele>
<time>2025-10-17T16:36:54.410Z</time>
</trkpt>
<trkpt lat="31.7516310" lon="35.1216390">
<ele>740.599976</ele>
<time>2025-10-17T16:36:54.410Z</time>
</trkpt>
<trkpt lat="31.7516630" lon="35.1216210">
<ele>739.799988</ele>
<time>2025-10-17T16:36:54.410Z</time>
</trkpt>
<trkpt lat="31.7516970" lon="35.1216110">
<ele>739.600037</ele>
<time>2025-10-17T16:36:54.410Z</time>
</trkpt>
<trkpt lat="31.7517290" lon="35.1216040">
<ele>738.799988</ele>
<time>2025-10-17T16:36:54.410Z</time>
</trkpt>
<trkpt lat="31.7517580" lon="35.1215960">
<ele>737.800049</ele>
<time>2025-10-17T16:36:54.410Z</time>
</trkpt>
<trkpt lat="31.7517710" lon="35.1215690">
<ele>737.399963</ele>
<time>2025-10-17T16:36:54.410Z</time>
</trkpt>
<trkpt lat="31.7517620" lon="35.1215350">
<ele>736.600037</ele>
<time>2025-10-17T16:36:54.410Z</time>
</trkpt>
<trkpt lat="31.7517360" lon="35.1215090">
<ele>736.199951</ele>
<time>2025-10-17T16:36:54.410Z</time>
</trkpt>
<trkpt lat="31.7517020" lon="35.1214870">
<ele>736.000000</ele>
<time>2025-10-17T16:36:54.410Z</time>
</trkpt>
<trkpt lat="31.7516340" lon="35.1214510">
<ele>735.599976</ele>
<time>2025-10-17T16:36:54.410Z</time>
</trkpt>
<trkpt lat="31.7516010" lon="35.1214360">
<ele>735.400024</ele>
<time>2025-10-17T16:36:54.410Z</time>
</trkpt>
<trkpt lat="31.7515670" lon="35.1214190">
<ele>735.200012</ele>
<time>2025-10-17T16:36:54.410Z</time>
</trkpt>
<trkpt lat="31.7514880" lon="35.1213700">
<ele>734.800049</ele>
<time>2025-10-17T16:36:54.410Z</time>
</trkpt>
<trkpt lat="31.7514480" lon="35.1213420">
<ele>734.800049</ele>
<time>2025-10-17T16:36:54.410Z</time>
</trkpt>
<trkpt lat="31.7513660" lon="35.1212900">
<ele>734.399963</ele>
<time>2025-10-17T16:36:54.410Z</time>
</trkpt>
<trkpt lat="31.7512790" lon="35.1212420">
<ele>734.200012</ele>
<time>2025-10-17T16:36:54.410Z</time>
</trkpt>
<trkpt lat="31.7511880" lon="35.1211940">
<ele>734.000000</ele>
<time>2025-10-17T16:36:54.410Z</time>
</trkpt>
<trkpt lat="31.7511430" lon="35.1211700">
<ele>734.000000</ele>
<time>2025-10-17T16:36:54.410Z</time>
</trkpt>
<trkpt lat="31.7511000" lon="35.1211460">
<ele>734.000000</ele>
<time>2025-10-17T16:36:54.410Z</time>
</trkpt>
<trkpt lat="31.7510120" lon="35.1210980">
<ele>734.000000</ele>
<time>2025-10-17T16:36:54.410Z</time>
</trkpt>
<trkpt lat="31.7509300" lon="35.1210290">
<ele>733.799988</ele>
<time>2025-10-17T16:36:54.410Z</time>
</trkpt>
<trkpt lat="31.7508640" lon="35.1209690">
<ele>733.600037</ele>
<time>2025-10-17T16:36:54.411Z</time>
</trkpt>
<trkpt lat="31.7508380" lon="35.1209390">
<ele>733.600037</ele>
<time>2025-10-17T16:36:54.411Z</time>
</trkpt>
<trkpt lat="31.7508120" lon="35.1209020">
<ele>733.600037</ele>
<time>2025-10-17T16:36:54.411Z</time>
</trkpt>
<trkpt lat="31.7507790" lon="35.1208570">
<ele>733.799988</ele>
<time>2025-10-17T16:36:54.411Z</time>
</trkpt>
<trkpt lat="31.7507370" lon="35.1208100">
<ele>733.600037</ele>
<time>2025-10-17T16:36:54.411Z</time>
</trkpt>
<trkpt lat="31.7506870" lon="35.1207660">
<ele>733.600037</ele>
<time>2025-10-17T16:36:54.411Z</time>
</trkpt>
<trkpt lat="31.7506250" lon="35.1207230">
<ele>733.000000</ele>
<time>2025-10-17T16:36:54.411Z</time>
</trkpt>
<trkpt lat="31.7505820" lon="35.1206950">
<ele>732.799988</ele>
<time>2025-10-17T16:36:54.411Z</time>
</trkpt>
<trkpt lat="31.7505290" lon="35.1206590">
<ele>732.599976</ele>
<time>2025-10-17T16:36:54.411Z</time>
</trkpt>
<trkpt lat="31.7504380" lon="35.1205610">
<ele>732.200012</ele>
<time>2025-10-17T16:36:54.411Z</time>
</trkpt>
<trkpt lat="31.7503970" lon="35.1204900">
<ele>731.800049</ele>
<time>2025-10-17T16:36:54.411Z</time>
</trkpt>
<trkpt lat="31.7503860" lon="35.1204440">
<ele>731.000000</ele>
<time>2025-10-17T16:36:54.411Z</time>
</trkpt>
<trkpt lat="31.7503850" lon="35.1203830">
<ele>730.799988</ele>
<time>2025-10-17T16:36:54.411Z</time>
</trkpt>
<trkpt lat="31.7503840" lon="35.1203170">
<ele>730.000000</ele>
<time>2025-10-17T16:36:54.411Z</time>
</trkpt>
<trkpt lat="31.7503710" lon="35.1202460">
<ele>729.599976</ele>
<time>2025-10-17T16:36:54.411Z</time>
</trkpt>
<trkpt lat="31.7503480" lon="35.1201780">
<ele>728.599976</ele>
<time>2025-10-17T16:36:54.411Z</time>
</trkpt>
<trkpt lat="31.7503210" lon="35.1201050">
<ele>728.000000</ele>
<time>2025-10-17T16:36:54.411Z</time>
</trkpt>
<trkpt lat="31.7503000" lon="35.1200300">
<ele>727.600037</ele>
<time>2025-10-17T16:36:54.411Z</time>
</trkpt>
<trkpt lat="31.7502800" lon="35.1199560">
<ele>727.000000</ele>
<time>2025-10-17T16:36:54.411Z</time>
</trkpt>
<trkpt lat="31.7502220" lon="35.1198030">
<ele>725.799988</ele>
<time>2025-10-17T16:36:54.411Z</time>
</trkpt>
<trkpt lat="31.7501990" lon="35.1197560">
<ele>725.599976</ele>
<time>2025-10-17T16:36:54.411Z</time>
</trkpt>
<trkpt lat="31.7501480" lon="35.1196420">
<ele>724.799988</ele>
<time>2025-10-17T16:36:54.411Z</time>
</trkpt>
<trkpt lat="31.7501220" lon="35.1195820">
<ele>724.600037</ele>
<time>2025-10-17T16:36:54.411Z</time>
</trkpt>
<trkpt lat="31.7500940" lon="35.1195260">
<ele>724.600037</ele>
<time>2025-10-17T16:36:54.411Z</time>
</trkpt>
<trkpt lat="31.7500590" lon="35.1194740">
<ele>724.399963</ele>
<time>2025-10-17T16:36:54.412Z</time>
</trkpt>
<trkpt lat="31.7500230" lon="35.1194210">
<ele>723.799988</ele>
<time>2025-10-17T16:36:54.412Z</time>
</trkpt>
<trkpt lat="31.7499870" lon="35.1193640">
<ele>723.400024</ele>
<time>2025-10-17T16:36:54.412Z</time>
</trkpt>
<trkpt lat="31.7499200" lon="35.1192440">
<ele>722.400024</ele>
<time>2025-10-17T16:36:54.412Z</time>
</trkpt>
<trkpt lat="31.7498590" lon="35.1191210">
<ele>721.000000</ele>
<time>2025-10-17T16:36:54.412Z</time>
</trkpt>
<trkpt lat="31.7498330" lon="35.1190570">
<ele>719.400024</ele>
<time>2025-10-17T16:36:54.412Z</time>
</trkpt>
<trkpt lat="31.7497760" lon="35.1189380">
<ele>717.799988</ele>
<time>2025-10-17T16:36:54.412Z</time>
</trkpt>
<trkpt lat="31.7497030" lon="35.1188480">
<ele>715.800049</ele>
<time>2025-10-17T16:36:54.412Z</time>
</trkpt>
<trkpt lat="31.7496730" lon="35.1188130">
<ele>714.400024</ele>
<time>2025-10-17T16:36:54.412Z</time>
</trkpt>
<trkpt lat="31.7496500" lon="35.1187800">
<ele>713.799988</ele>
<time>2025-10-17T16:36:54.412Z</time>
</trkpt>
<trkpt lat="31.7496310" lon="35.1187440">
<ele>713.400024</ele>
<time>2025-10-17T16:36:54.412Z</time>
</trkpt>
<trkpt lat="31.7496180" lon="35.1186970">
<ele>713.200012</ele>
<time>2025-10-17T16:36:54.412Z</time>
</trkpt>
<trkpt lat="31.7496120" lon="35.1186460">
<ele>712.200012</ele>
<time>2025-10-17T16:36:54.412Z</time>
</trkpt>
<trkpt lat="31.7496040" lon="35.1185970">
<ele>711.799988</ele>
<time>2025-10-17T16:36:54.412Z</time>
</trkpt>
<trkpt lat="31.7495900" lon="35.1185560">
<ele>710.799988</ele>
<time>2025-10-17T16:36:54.412Z</time>
</trkpt>
<trkpt lat="31.7495740" lon="35.1185130">
<ele>710.200012</ele>
<time>2025-10-17T16:36:54.412Z</time>
</trkpt>
<trkpt lat="31.7495600" lon="35.1184720">
<ele>710.000000</ele>
<time>2025-10-17T16:36:54.412Z</time>
</trkpt>
<trkpt lat="31.7495530" lon="35.1184270">
<ele>709.800049</ele>
<time>2025-10-17T16:36:54.412Z</time>
</trkpt>
<trkpt lat="31.7495430" lon="35.1183760">
<ele>709.399963</ele>
<time>2025-10-17T16:36:54.412Z</time>
</trkpt>
<trkpt lat="31.7495330" lon="35.1183230">
<ele>709.200012</ele>
<time>2025-10-17T16:36:54.412Z</time>
</trkpt>
<trkpt lat="31.7495280" lon="35.1182720">
<ele>709.000000</ele>
<time>2025-10-17T16:36:54.412Z</time>
</trkpt>
<trkpt lat="31.7495260" lon="35.1182290">
<ele>708.600037</ele>
<time>2025-10-17T16:36:54.412Z</time>
</trkpt>
<trkpt lat="31.7495250" lon="35.1181820">
<ele>708.400024</ele>
<time>2025-10-17T16:36:54.412Z</time>
</trkpt>
<trkpt lat="31.7495230" lon="35.1181250">
<ele>708.199951</ele>
<time>2025-10-17T16:36:54.412Z</time>
</trkpt>
<trkpt lat="31.7495220" lon="35.1179970">
<ele>707.000000</ele>
<time>2025-10-17T16:36:54.412Z</time>
</trkpt>
<trkpt lat="31.7494930" lon="35.1178040">
<ele>705.799988</ele>
<time>2025-10-17T16:36:54.412Z</time>
</trkpt>
<trkpt lat="31.7494800" lon="35.1177520">
<ele>705.600037</ele>
<time>2025-10-17T16:36:54.412Z</time>
</trkpt>
<trkpt lat="31.7494700" lon="35.1177140">
<ele>705.000000</ele>
<time>2025-10-17T16:36:54.413Z</time>
</trkpt>
<trkpt lat="31.7494580" lon="35.1176760">
<ele>704.799988</ele>
<time>2025-10-17T16:36:54.413Z</time>
</trkpt>
<trkpt lat="31.7494400" lon="35.1176320">
<ele>704.400024</ele>
<time>2025-10-17T16:36:54.413Z</time>
</trkpt>
<trkpt lat="31.7494190" lon="35.1175910">
<ele>704.400024</ele>
<time>2025-10-17T16:36:54.413Z</time>
</trkpt>
<trkpt lat="31.7493770" lon="35.1175190">
<ele>704.599976</ele>
<time>2025-10-17T16:36:54.413Z</time>
</trkpt>
<trkpt lat="31.7493660" lon="35.1174830">
<ele>704.599976</ele>
<time>2025-10-17T16:36:54.413Z</time>
</trkpt>
<trkpt lat="31.7493580" lon="35.1174480">
<ele>704.599976</ele>
<time>2025-10-17T16:36:54.413Z</time>
</trkpt>
<trkpt lat="31.7493470" lon="35.1174150">
<ele>704.599976</ele>
<time>2025-10-17T16:36:54.413Z</time>
</trkpt>
<trkpt lat="31.7493340" lon="35.1173820">
<ele>705.000000</ele>
<time>2025-10-17T16:36:54.413Z</time>
</trkpt>
<trkpt lat="31.7493190" lon="35.1173470">
<ele>705.199951</ele>
<time>2025-10-17T16:36:54.413Z</time>
</trkpt>
<trkpt lat="31.7492900" lon="35.1172820">
<ele>705.400024</ele>
<time>2025-10-17T16:36:54.413Z</time>
</trkpt>
<trkpt lat="31.7492750" lon="35.1172500">
<ele>705.600037</ele>
<time>2025-10-17T16:36:54.413Z</time>
</trkpt>
<trkpt lat="31.7492420" lon="35.1171890">
<ele>705.799988</ele>
<time>2025-10-17T16:36:54.413Z</time>
</trkpt>
<trkpt lat="31.7492220" lon="35.1171620">
<ele>706.000000</ele>
<time>2025-10-17T16:36:54.413Z</time>
</trkpt>
<trkpt lat="31.7492010" lon="35.1171400">
<ele>706.000000</ele>
<time>2025-10-17T16:36:54.413Z</time>
</trkpt>
<trkpt lat="31.7491820" lon="35.1171220">
<ele>706.200012</ele>
<time>2025-10-17T16:36:54.413Z</time>
</trkpt>
<trkpt lat="31.7491680" lon="35.1171040">
<ele>706.200012</ele>
<time>2025-10-17T16:36:54.413Z</time>
</trkpt>
<trkpt lat="31.7491460" lon="35.1170790">
<ele>706.599976</ele>
<time>2025-10-17T16:36:54.413Z</time>
</trkpt>
<trkpt lat="31.7491250" lon="35.1170510">
<ele>706.800049</ele>
<time>2025-10-17T16:36:54.413Z</time>
</trkpt>
<trkpt lat="31.7491120" lon="35.1170270">
<ele>707.000000</ele>
<time>2025-10-17T16:36:54.413Z</time>
</trkpt>
<trkpt lat="31.7491040" lon="35.1169960">
<ele>707.200012</ele>
<time>2025-10-17T16:36:54.413Z</time>
</trkpt>
<trkpt lat="31.7491030" lon="35.1169530">
<ele>707.200012</ele>
<time>2025-10-17T16:36:54.413Z</time>
</trkpt>
<trkpt lat="31.7491050" lon="35.1169120">
<ele>707.200012</ele>
<time>2025-10-17T16:36:54.413Z</time>
</trkpt>
<trkpt lat="31.7491000" lon="35.1168670">
<ele>707.000000</ele>
<time>2025-10-17T16:36:54.413Z</time>
</trkpt>
<trkpt lat="31.7490890" lon="35.1168290">
<ele>707.000000</ele>
<time>2025-10-17T16:36:54.413Z</time>
</trkpt>
<trkpt lat="31.7490400" lon="35.1167520">
<ele>706.200012</ele>
<time>2025-10-17T16:36:54.413Z</time>
</trkpt>
<trkpt lat="31.7490200" lon="35.1167220">
<ele>706.200012</ele>
<time>2025-10-17T16:36:54.413Z</time>
</trkpt>
<trkpt lat="31.7489990" lon="35.1166990">
<ele>705.799988</ele>
<time>2025-10-17T16:36:54.414Z</time>
</trkpt>
<trkpt lat="31.7489710" lon="35.1166740">
<ele>705.600037</ele>
<time>2025-10-17T16:36:54.414Z</time>
</trkpt>
<trkpt lat="31.7489450" lon="35.1166440">
<ele>705.400024</ele>
<time>2025-10-17T16:36:54.414Z</time>
</trkpt>
<trkpt lat="31.7489310" lon="35.1166150">
<ele>705.400024</ele>
<time>2025-10-17T16:36:54.414Z</time>
</trkpt>
<trkpt lat="31.7489190" lon="35.1165900">
<ele>705.400024</ele>
<time>2025-10-17T16:36:54.414Z</time>
</trkpt>
<trkpt lat="31.7489040" lon="35.1165590">
<ele>705.400024</ele>
<time>2025-10-17T16:36:54.414Z</time>
</trkpt>
<trkpt lat="31.7488830" lon="35.1165340">
<ele>705.400024</ele>
<time>2025-10-17T16:36:54.414Z</time>
</trkpt>
<trkpt lat="31.7488640" lon="35.1165110">
<ele>705.400024</ele>
<time>2025-10-17T16:36:54.414Z</time>
</trkpt>
<trkpt lat="31.7488420" lon="35.1164830">
<ele>705.600037</ele>
<time>2025-10-17T16:36:54.414Z</time>
</trkpt>
<trkpt lat="31.7488280" lon="35.1164560">
<ele>705.799988</ele>
<time>2025-10-17T16:36:54.414Z</time>
</trkpt>
<trkpt lat="31.7488190" lon="35.1164270">
<ele>705.799988</ele>
<time>2025-10-17T16:36:54.414Z</time>
</trkpt>
<trkpt lat="31.7488070" lon="35.1163900">
<ele>705.600037</ele>
<time>2025-10-17T16:36:54.414Z</time>
</trkpt>
<trkpt lat="31.7487920" lon="35.1163530">
<ele>705.600037</ele>
<time>2025-10-17T16:36:54.414Z</time>
</trkpt>
<trkpt lat="31.7487720" lon="35.1163220">
<ele>705.600037</ele>
<time>2025-10-17T16:36:54.414Z</time>
</trkpt>
<trkpt lat="31.7487360" lon="35.1162800">
<ele>705.799988</ele>
<time>2025-10-17T16:36:54.414Z</time>
</trkpt>
<trkpt lat="31.7487240" lon="35.1162590">
<ele>705.600037</ele>
<time>2025-10-17T16:36:54.414Z</time>
</trkpt>
<trkpt lat="31.7487060" lon="35.1162340">
<ele>705.799988</ele>
<time>2025-10-17T16:36:54.414Z</time>
</trkpt>
<trkpt lat="31.7486850" lon="35.1162040">
<ele>705.799988</ele>
<time>2025-10-17T16:36:54.414Z</time>
</trkpt>
<trkpt lat="31.7486650" lon="35.1161790">
<ele>705.799988</ele>
<time>2025-10-17T16:36:54.414Z</time>
</trkpt>
<trkpt lat="31.7486450" lon="35.1161520">
<ele>705.799988</ele>
<time>2025-10-17T16:36:54.414Z</time>
</trkpt>
<trkpt lat="31.7486270" lon="35.1161170">
<ele>705.799988</ele>
<time>2025-10-17T16:36:54.414Z</time>
</trkpt>
<trkpt lat="31.7485510" lon="35.1160060">
<ele>706.200012</ele>
<time>2025-10-17T16:36:54.414Z</time>
</trkpt>
<trkpt lat="31.7485390" lon="35.1159870">
<ele>706.200012</ele>
<time>2025-10-17T16:36:54.414Z</time>
</trkpt>
<trkpt lat="31.7485300" lon="35.1159500">
<ele>706.200012</ele>
<time>2025-10-17T16:36:54.414Z</time>
</trkpt>
<trkpt lat="31.7485250" lon="35.1159210">
<ele>706.200012</ele>
<time>2025-10-17T16:36:54.414Z</time>
</trkpt>
<trkpt lat="31.7485210" lon="35.1158800">
<ele>706.200012</ele>
<time>2025-10-17T16:36:54.414Z</time>
</trkpt>
<trkpt lat="31.7485280" lon="35.1158330">
<ele>706.000000</ele>
<time>2025-10-17T16:36:54.414Z</time>
</trkpt>
<trkpt lat="31.7485440" lon="35.1157850">
<ele>705.799988</ele>
<time>2025-10-17T16:36:54.414Z</time>
</trkpt>
<trkpt lat="31.7485630" lon="35.1157430">
<ele>705.799988</ele>
<time>2025-10-17T16:36:54.415Z</time>
</trkpt>
<trkpt lat="31.7485740" lon="35.1156990">
<ele>705.600037</ele>
<time>2025-10-17T16:36:54.415Z</time>
</trkpt>
<trkpt lat="31.7485680" lon="35.1156470">
<ele>705.400024</ele>
<time>2025-10-17T16:36:54.415Z</time>
</trkpt>
<trkpt lat="31.7485540" lon="35.1156150">
<ele>705.400024</ele>
<time>2025-10-17T16:36:54.415Z</time>
</trkpt>
<trkpt lat="31.7485300" lon="35.1155680">
<ele>705.199951</ele>
<time>2025-10-17T16:36:54.415Z</time>
</trkpt>
<trkpt lat="31.7484900" lon="35.1154780">
<ele>704.200012</ele>
<time>2025-10-17T16:36:54.415Z</time>
</trkpt>
<trkpt lat="31.7484820" lon="35.1154290">
<ele>703.799988</ele>
<time>2025-10-17T16:36:54.415Z</time>
</trkpt>
<trkpt lat="31.7484690" lon="35.1153910">
<ele>703.399963</ele>
<time>2025-10-17T16:36:54.415Z</time>
</trkpt>
<trkpt lat="31.7484150" lon="35.1153320">
<ele>702.600037</ele>
<time>2025-10-17T16:36:54.415Z</time>
</trkpt>
<trkpt lat="31.7483830" lon="35.1152960">
<ele>702.399963</ele>
<time>2025-10-17T16:36:54.415Z</time>
</trkpt>
<trkpt lat="31.7483530" lon="35.1152560">
<ele>701.200012</ele>
<time>2025-10-17T16:36:54.415Z</time>
</trkpt>
<trkpt lat="31.7483230" lon="35.1152160">
<ele>700.200012</ele>
<time>2025-10-17T16:36:54.415Z</time>
</trkpt>
<trkpt lat="31.7482990" lon="35.1151780">
<ele>700.000000</ele>
<time>2025-10-17T16:36:54.415Z</time>
</trkpt>
<trkpt lat="31.7482540" lon="35.1151110">
<ele>699.600037</ele>
<time>2025-10-17T16:36:54.415Z</time>
</trkpt>
<trkpt lat="31.7482300" lon="35.1150760">
<ele>699.399963</ele>
<time>2025-10-17T16:36:54.415Z</time>
</trkpt>
<trkpt lat="31.7482030" lon="35.1150470">
<ele>699.199951</ele>
<time>2025-10-17T16:36:54.415Z</time>
</trkpt>
<trkpt lat="31.7481770" lon="35.1150250">
<ele>699.399963</ele>
<time>2025-10-17T16:36:54.415Z</time>
</trkpt>
<trkpt lat="31.7481540" lon="35.1150030">
<ele>699.399963</ele>
<time>2025-10-17T16:36:54.415Z</time>
</trkpt>
<trkpt lat="31.7481310" lon="35.1149800">
<ele>699.600037</ele>
<time>2025-10-17T16:36:54.415Z</time>
</trkpt>
<trkpt lat="31.7481090" lon="35.1149580">
<ele>699.600037</ele>
<time>2025-10-17T16:36:54.415Z</time>
</trkpt>
<trkpt lat="31.7480880" lon="35.1149400">
<ele>699.799988</ele>
<time>2025-10-17T16:36:54.415Z</time>
</trkpt>
<trkpt lat="31.7480640" lon="35.1149190">
<ele>699.799988</ele>
<time>2025-10-17T16:36:54.415Z</time>
</trkpt>
<trkpt lat="31.7480350" lon="35.1148940">
<ele>699.799988</ele>
<time>2025-10-17T16:36:54.415Z</time>
</trkpt>
<trkpt lat="31.7480060" lon="35.1148770">
<ele>699.799988</ele>
<time>2025-10-17T16:36:54.415Z</time>
</trkpt>
<trkpt lat="31.7479880" lon="35.1148700">
<ele>699.799988</ele>
<time>2025-10-17T16:36:54.415Z</time>
</trkpt>
<trkpt lat="31.7479830" lon="35.1148670">
<ele>699.799988</ele>
<time>2025-10-17T16:36:54.415Z</time>
</trkpt>
<trkpt lat="31.7479830" lon="35.1148670">
<ele>699.799988</ele>
<time>2025-10-17T16:36:54.415Z</time>
</trkpt>
<trkpt lat="31.7478840" lon="35.1148680">
<ele>699.000000</ele>
<time>2025-10-17T16:36:54.415Z</time>
</trkpt>
<trkpt lat="31.7478600" lon="35.1148680">
<ele>699.000000</ele>
<time>2025-10-17T16:36:54.416Z</time>
</trkpt>
<trkpt lat="31.7478380" lon="35.1148680">
<ele>699.000000</ele>
<time>2025-10-17T16:36:54.416Z</time>
</trkpt>
<trkpt lat="31.7478000" lon="35.1148540">
<ele>699.199951</ele>
<time>2025-10-17T16:36:54.416Z</time>
</trkpt>
<trkpt lat="31.7477750" lon="35.1148440">
<ele>699.199951</ele>
<time>2025-10-17T16:36:54.416Z</time>
</trkpt>
<trkpt lat="31.7477490" lon="35.1148380">
<ele>699.199951</ele>
<time>2025-10-17T16:36:54.416Z</time>
</trkpt>
<trkpt lat="31.7477030" lon="35.1148520">
<ele>699.199951</ele>
<time>2025-10-17T16:36:54.416Z</time>
</trkpt>
<trkpt lat="31.7476790" lon="35.1148630">
<ele>699.199951</ele>
<time>2025-10-17T16:36:54.416Z</time>
</trkpt>
<trkpt lat="31.7476570" lon="35.1148730">
<ele>699.199951</ele>
<time>2025-10-17T16:36:54.416Z</time>
</trkpt>
<trkpt lat="31.7476340" lon="35.1148820">
<ele>699.199951</ele>
<time>2025-10-17T16:36:54.416Z</time>
</trkpt>
<trkpt lat="31.7475260" lon="35.1149390">
<ele>699.799988</ele>
<time>2025-10-17T16:36:54.416Z</time>
</trkpt>
<trkpt lat="31.7474880" lon="35.1149550">
<ele>699.799988</ele>
<time>2025-10-17T16:36:54.416Z</time>
</trkpt>
<trkpt lat="31.7474700" lon="35.1149550">
<ele>700.000000</ele>
<time>2025-10-17T16:36:54.416Z</time>
</trkpt>
<trkpt lat="31.7474520" lon="35.1149420">
<ele>700.200012</ele>
<time>2025-10-17T16:36:54.416Z</time>
</trkpt>
<trkpt lat="31.7474410" lon="35.1149140">
<ele>700.399963</ele>
<time>2025-10-17T16:36:54.416Z</time>
</trkpt>
<trkpt lat="31.7474460" lon="35.1148830">
<ele>700.399963</ele>
<time>2025-10-17T16:36:54.416Z</time>
</trkpt>
<trkpt lat="31.7474670" lon="35.1148590">
<ele>700.399963</ele>
<time>2025-10-17T16:36:54.416Z</time>
</trkpt>
<trkpt lat="31.7474980" lon="35.1148420">
<ele>700.399963</ele>
<time>2025-10-17T16:36:54.416Z</time>
</trkpt>
<trkpt lat="31.7476040" lon="35.1148040">
<ele>699.799988</ele>
<time>2025-10-17T16:36:54.416Z</time>
</trkpt>
<trkpt lat="31.7476420" lon="35.1147850">
<ele>699.000000</ele>
<time>2025-10-17T16:36:54.416Z</time>
</trkpt>
<trkpt lat="31.7476880" lon="35.1147670">
<ele>698.799988</ele>
<time>2025-10-17T16:36:54.416Z</time>
</trkpt>
<trkpt lat="31.7477540" lon="35.1147630">
<ele>697.799988</ele>
<time>2025-10-17T16:36:54.416Z</time>
</trkpt>
<trkpt lat="31.7477950" lon="35.1147570">
<ele>697.400024</ele>
<time>2025-10-17T16:36:54.416Z</time>
</trkpt>
<trkpt lat="31.7478140" lon="35.1147420">
<ele>697.200012</ele>
<time>2025-10-17T16:36:54.416Z</time>
</trkpt>
<trkpt lat="31.7478290" lon="35.1147180">
<ele>696.600037</ele>
<time>2025-10-17T16:36:54.416Z</time>
</trkpt>
<trkpt lat="31.7478330" lon="35.1146960">
<ele>696.399963</ele>
<time>2025-10-17T16:36:54.416Z</time>
</trkpt>
<trkpt lat="31.7478340" lon="35.1146880">
<ele>695.799988</ele>
<time>2025-10-17T16:36:54.417Z</time>
</trkpt>
<trkpt lat="31.7478340" lon="35.1146900">
<ele>695.600037</ele>
<time>2025-10-17T16:36:54.417Z</time>
</trkpt>
<trkpt lat="31.7478290" lon="35.1146820">
<ele>695.600037</ele>
<time>2025-10-17T16:36:54.417Z</time>
</trkpt>
<trkpt lat="31.7478210" lon="35.1146700">
<ele>695.200012</ele>
<time>2025-10-17T16:36:54.417Z</time>
</trkpt>
<trkpt lat="31.7478100" lon="35.1146520">
<ele>695.200012</ele>
<time>2025-10-17T16:36:54.417Z</time>
</trkpt>
<trkpt lat="31.7478000" lon="35.1146390">
<ele>694.799988</ele>
<time>2025-10-17T16:36:54.417Z</time>
</trkpt>
<trkpt lat="31.7477760" lon="35.1146230">
<ele>694.799988</ele>
<time>2025-10-17T16:36:54.417Z</time>
</trkpt>
<trkpt lat="31.7477600" lon="35.1146150">
<ele>694.599976</ele>
<time>2025-10-17T16:36:54.417Z</time>
</trkpt>
<trkpt lat="31.7477400" lon="35.1146020">
<ele>694.599976</ele>
<time>2025-10-17T16:36:54.417Z</time>
</trkpt>
<trkpt lat="31.7477190" lon="35.1145830">
<ele>694.599976</ele>
<time>2025-10-17T16:36:54.417Z</time>
</trkpt>
<trkpt lat="31.7476980" lon="35.1145640">
<ele>694.400024</ele>
<time>2025-10-17T16:36:54.417Z</time>
</trkpt>
<trkpt lat="31.7476770" lon="35.1145510">
<ele>694.000000</ele>
<time>2025-10-17T16:36:54.417Z</time>
</trkpt>
<trkpt lat="31.7476260" lon="35.1145250">
<ele>693.600037</ele>
<time>2025-10-17T16:36:54.417Z</time>
</trkpt>
<trkpt lat="31.7475990" lon="35.1145120">
<ele>693.600037</ele>
<time>2025-10-17T16:36:54.417Z</time>
</trkpt>
<trkpt lat="31.7475310" lon="35.1145080">
<ele>693.399963</ele>
<time>2025-10-17T16:36:54.417Z</time>
</trkpt>
<trkpt lat="31.7474800" lon="35.1145210">
<ele>692.600037</ele>
<time>2025-10-17T16:36:54.417Z</time>
</trkpt>
<trkpt lat="31.7474540" lon="35.1145290">
<ele>692.400024</ele>
<time>2025-10-17T16:36:54.417Z</time>
</trkpt>
<trkpt lat="31.7474270" lon="35.1145330">
<ele>692.000061</ele>
<time>2025-10-17T16:36:54.417Z</time>
</trkpt>
<trkpt lat="31.7473960" lon="35.1145290">
<ele>692.000061</ele>
<time>2025-10-17T16:36:54.417Z</time>
</trkpt>
<trkpt lat="31.7473330" lon="35.1145420">
<ele>692.000061</ele>
<time>2025-10-17T16:36:54.417Z</time>
</trkpt>
<trkpt lat="31.7472630" lon="35.1145850">
<ele>692.000061</ele>
<time>2025-10-17T16:36:54.417Z</time>
</trkpt>
<trkpt lat="31.7472330" lon="35.1146070">
<ele>692.000061</ele>
<time>2025-10-17T16:36:54.417Z</time>
</trkpt>
<trkpt lat="31.7472030" lon="35.1146300">
<ele>692.000061</ele>
<time>2025-10-17T16:36:54.417Z</time>
</trkpt>
<trkpt lat="31.7471740" lon="35.1146500">
<ele>692.000061</ele>
<time>2025-10-17T16:36:54.417Z</time>
</trkpt>
<trkpt lat="31.7471480" lon="35.1146650">
<ele>692.000061</ele>
<time>2025-10-17T16:36:54.417Z</time>
</trkpt>
<trkpt lat="31.7471230" lon="35.1146720">
<ele>692.000061</ele>
<time>2025-10-17T16:36:54.417Z</time>
</trkpt>
<trkpt lat="31.7470890" lon="35.1146720">
<ele>692.000061</ele>
<time>2025-10-17T16:36:54.417Z</time>
</trkpt>
<trkpt lat="31.7470650" lon="35.1146640">
<ele>692.000061</ele>
<time>2025-10-17T16:36:54.418Z</time>
</trkpt>
<trkpt lat="31.7470380" lon="35.1146430">
<ele>691.799988</ele>
<time>2025-10-17T16:36:54.418Z</time>
</trkpt>
<trkpt lat="31.7470180" lon="35.1146090">
<ele>691.799988</ele>
<time>2025-10-17T16:36:54.418Z</time>
</trkpt>
<trkpt lat="31.7470120" lon="35.1145680">
<ele>691.400024</ele>
<time>2025-10-17T16:36:54.418Z</time>
</trkpt>
<trkpt lat="31.7470150" lon="35.1145230">
<ele>691.400024</ele>
<time>2025-10-17T16:36:54.418Z</time>
</trkpt>
<trkpt lat="31.7470370" lon="35.1144250">
<ele>691.200012</ele>
<time>2025-10-17T16:36:54.418Z</time>
</trkpt>
<trkpt lat="31.7470460" lon="35.1143820">
<ele>691.000000</ele>
<time>2025-10-17T16:36:54.418Z</time>
</trkpt>
<trkpt lat="31.7470480" lon="35.1143460">
<ele>691.000000</ele>
<time>2025-10-17T16:36:54.418Z</time>
</trkpt>
<trkpt lat="31.7470450" lon="35.1143070">
<ele>690.800049</ele>
<time>2025-10-17T16:36:54.418Z</time>
</trkpt>
<trkpt lat="31.7470540" lon="35.1142610">
<ele>690.399963</ele>
<time>2025-10-17T16:36:54.418Z</time>
</trkpt>
<trkpt lat="31.7470760" lon="35.1142120">
<ele>690.200012</ele>
<time>2025-10-17T16:36:54.418Z</time>
</trkpt>
<trkpt lat="31.7471040" lon="35.1141640">
<ele>688.799988</ele>
<time>2025-10-17T16:36:54.418Z</time>
</trkpt>
<trkpt lat="31.7471370" lon="35.1141190">
<ele>687.800049</ele>
<time>2025-10-17T16:36:54.418Z</time>
</trkpt>
<trkpt lat="31.7471750" lon="35.1140760">
<ele>686.799988</ele>
<time>2025-10-17T16:36:54.418Z</time>
</trkpt>
<trkpt lat="31.7472150" lon="35.1140370">
<ele>686.600037</ele>
<time>2025-10-17T16:36:54.418Z</time>
</trkpt>
<trkpt lat="31.7472540" lon="35.1139970">
<ele>686.000000</ele>
<time>2025-10-17T16:36:54.418Z</time>
</trkpt>
<trkpt lat="31.7472920" lon="35.1139550">
<ele>685.599976</ele>
<time>2025-10-17T16:36:54.418Z</time>
</trkpt>
<trkpt lat="31.7474210" lon="35.1137620">
<ele>684.800049</ele>
<time>2025-10-17T16:36:54.418Z</time>
</trkpt>
<trkpt lat="31.7474500" lon="35.1137080">
<ele>684.599976</ele>
<time>2025-10-17T16:36:54.418Z</time>
</trkpt>
<trkpt lat="31.7474870" lon="35.1135970">
<ele>684.200012</ele>
<time>2025-10-17T16:36:54.418Z</time>
</trkpt>
<trkpt lat="31.7474890" lon="35.1135410">
<ele>684.000000</ele>
<time>2025-10-17T16:36:54.418Z</time>
</trkpt>
<trkpt lat="31.7474790" lon="35.1134860">
<ele>684.000000</ele>
<time>2025-10-17T16:36:54.418Z</time>
</trkpt>
<trkpt lat="31.7474610" lon="35.1134400">
<ele>684.000000</ele>
<time>2025-10-17T16:36:54.418Z</time>
</trkpt>
<trkpt lat="31.7474330" lon="35.1134020">
<ele>683.400024</ele>
<time>2025-10-17T16:36:54.418Z</time>
</trkpt>
<trkpt lat="31.7473990" lon="35.1133750">
<ele>683.199951</ele>
<time>2025-10-17T16:36:54.418Z</time>
</trkpt>
<trkpt lat="31.7473590" lon="35.1133590">
<ele>682.799988</ele>
<time>2025-10-17T16:36:54.418Z</time>
</trkpt>
<trkpt lat="31.7473210" lon="35.1133530">
<ele>682.599976</ele>
<time>2025-10-17T16:36:54.418Z</time>
</trkpt>
<trkpt lat="31.7472900" lon="35.1133610">
<ele>682.599976</ele>
<time>2025-10-17T16:36:54.419Z</time>
</trkpt>
<trkpt lat="31.7472600" lon="35.1133820">
<ele>682.599976</ele>
<time>2025-10-17T16:36:54.419Z</time>
</trkpt>
<trkpt lat="31.7472300" lon="35.1134110">
<ele>682.599976</ele>
<time>2025-10-17T16:36:54.419Z</time>
</trkpt>
<trkpt lat="31.7471970" lon="35.1134470">
<ele>682.599976</ele>
<time>2025-10-17T16:36:54.419Z</time>
</trkpt>
<trkpt lat="31.7471620" lon="35.1134910">
<ele>682.400024</ele>
<time>2025-10-17T16:36:54.419Z</time>
</trkpt>
<trkpt lat="31.7471290" lon="35.1135360">
<ele>682.400024</ele>
<time>2025-10-17T16:36:54.419Z</time>
</trkpt>
<trkpt lat="31.7471060" lon="35.1135880">
<ele>682.000000</ele>
<time>2025-10-17T16:36:54.419Z</time>
</trkpt>
<trkpt lat="31.7470820" lon="35.1136370">
<ele>681.399963</ele>
<time>2025-10-17T16:36:54.419Z</time>
</trkpt>
<trkpt lat="31.7470110" lon="35.1136900">
<ele>680.400024</ele>
<time>2025-10-17T16:36:54.419Z</time>
</trkpt>
<trkpt lat="31.7469720" lon="35.1137090">
<ele>680.199951</ele>
<time>2025-10-17T16:36:54.419Z</time>
</trkpt>
<trkpt lat="31.7469320" lon="35.1137380">
<ele>679.799988</ele>
<time>2025-10-17T16:36:54.419Z</time>
</trkpt>
<trkpt lat="31.7468930" lon="35.1137680">
<ele>679.400024</ele>
<time>2025-10-17T16:36:54.419Z</time>
</trkpt>
<trkpt lat="31.7468540" lon="35.1137960">
<ele>678.999939</ele>
<time>2025-10-17T16:36:54.419Z</time>
</trkpt>
<trkpt lat="31.7468130" lon="35.1138300">
<ele>678.799988</ele>
<time>2025-10-17T16:36:54.419Z</time>
</trkpt>
<trkpt lat="31.7467560" lon="35.1139160">
<ele>678.200012</ele>
<time>2025-10-17T16:36:54.419Z</time>
</trkpt>
<trkpt lat="31.7467360" lon="35.1139550">
<ele>678.000000</ele>
<time>2025-10-17T16:36:54.419Z</time>
</trkpt>
<trkpt lat="31.7467180" lon="35.1139870">
<ele>677.799988</ele>
<time>2025-10-17T16:36:54.419Z</time>
</trkpt>
<trkpt lat="31.7467010" lon="35.1140160">
<ele>677.799988</ele>
<time>2025-10-17T16:36:54.419Z</time>
</trkpt>
<trkpt lat="31.7466820" lon="35.1140450">
<ele>677.399963</ele>
<time>2025-10-17T16:36:54.419Z</time>
</trkpt>
<trkpt lat="31.7466560" lon="35.1140710">
<ele>677.199951</ele>
<time>2025-10-17T16:36:54.419Z</time>
</trkpt>
<trkpt lat="31.7466280" lon="35.1140970">
<ele>677.199951</ele>
<time>2025-10-17T16:36:54.419Z</time>
</trkpt>
<trkpt lat="31.7466040" lon="35.1141210">
<ele>677.000000</ele>
<time>2025-10-17T16:36:54.419Z</time>
</trkpt>
<trkpt lat="31.7465740" lon="35.1141430">
<ele>676.599976</ele>
<time>2025-10-17T16:36:54.419Z</time>
</trkpt>
<trkpt lat="31.7465450" lon="35.1141630">
<ele>676.400024</ele>
<time>2025-10-17T16:36:54.419Z</time>
</trkpt>
<trkpt lat="31.7465190" lon="35.1141890">
<ele>676.400024</ele>
<time>2025-10-17T16:36:54.419Z</time>
</trkpt>
<trkpt lat="31.7464940" lon="35.1142270">
<ele>676.200012</ele>
<time>2025-10-17T16:36:54.419Z</time>
</trkpt>
<trkpt lat="31.7464690" lon="35.1142640">
<ele>676.400024</ele>
<time>2025-10-17T16:36:54.419Z</time>
</trkpt>
<trkpt lat="31.7464500" lon="35.1143020">
<ele>676.400024</ele>
<time>2025-10-17T16:36:54.419Z</time>
</trkpt>
<trkpt lat="31.7464380" lon="35.1143440">
<ele>676.200012</ele>
<time>2025-10-17T16:36:54.420Z</time>
</trkpt>
<trkpt lat="31.7464280" lon="35.1143870">
<ele>675.999939</ele>
<time>2025-10-17T16:36:54.420Z</time>
</trkpt>
<trkpt lat="31.7464170" lon="35.1144250">
<ele>675.999939</ele>
<time>2025-10-17T16:36:54.420Z</time>
</trkpt>
<trkpt lat="31.7464040" lon="35.1144550">
<ele>675.999939</ele>
<time>2025-10-17T16:36:54.420Z</time>
</trkpt>
<trkpt lat="31.7463870" lon="35.1144740">
<ele>675.999939</ele>
<time>2025-10-17T16:36:54.420Z</time>
</trkpt>
<trkpt lat="31.7463600" lon="35.1144870">
<ele>675.999939</ele>
<time>2025-10-17T16:36:54.420Z</time>
</trkpt>
<trkpt lat="31.7463300" lon="35.1144960">
<ele>676.200012</ele>
<time>2025-10-17T16:36:54.420Z</time>
</trkpt>
<trkpt lat="31.7463010" lon="35.1145050">
<ele>676.200012</ele>
<time>2025-10-17T16:36:54.420Z</time>
</trkpt>
<trkpt lat="31.7462050" lon="35.1145670">
<ele>676.400024</ele>
<time>2025-10-17T16:36:54.420Z</time>
</trkpt>
<trkpt lat="31.7461540" lon="35.1146280">
<ele>675.999939</ele>
<time>2025-10-17T16:36:54.420Z</time>
</trkpt>
<trkpt lat="31.7461310" lon="35.1146460">
<ele>675.999939</ele>
<time>2025-10-17T16:36:54.420Z</time>
</trkpt>
<trkpt lat="31.7461000" lon="35.1146510">
<ele>675.200012</ele>
<time>2025-10-17T16:36:54.420Z</time>
</trkpt>
<trkpt lat="31.7460680" lon="35.1146720">
<ele>674.600037</ele>
<time>2025-10-17T16:36:54.420Z</time>
</trkpt>
<trkpt lat="31.7460360" lon="35.1147070">
<ele>673.599976</ele>
<time>2025-10-17T16:36:54.420Z</time>
</trkpt>
<trkpt lat="31.7460100" lon="35.1147480">
<ele>673.000061</ele>
<time>2025-10-17T16:36:54.420Z</time>
</trkpt>
<trkpt lat="31.7459760" lon="35.1148270">
<ele>672.599976</ele>
<time>2025-10-17T16:36:54.420Z</time>
</trkpt>
<trkpt lat="31.7459480" lon="35.1148570">
<ele>672.400024</ele>
<time>2025-10-17T16:36:54.420Z</time>
</trkpt>
<trkpt lat="31.7459140" lon="35.1148860">
<ele>672.200012</ele>
<time>2025-10-17T16:36:54.420Z</time>
</trkpt>
<trkpt lat="31.7458830" lon="35.1149200">
<ele>671.800049</ele>
<time>2025-10-17T16:36:54.420Z</time>
</trkpt>
<trkpt lat="31.7457880" lon="35.1150100">
<ele>671.600037</ele>
<time>2025-10-17T16:36:54.420Z</time>
</trkpt>
<trkpt lat="31.7457030" lon="35.1150580">
<ele>671.600037</ele>
<time>2025-10-17T16:36:54.420Z</time>
</trkpt>
<trkpt lat="31.7456600" lon="35.1150800">
<ele>671.800049</ele>
<time>2025-10-17T16:36:54.420Z</time>
</trkpt>
<trkpt lat="31.7455740" lon="35.1151130">
<ele>670.799988</ele>
<time>2025-10-17T16:36:54.421Z</time>
</trkpt>
<trkpt lat="31.7454590" lon="35.1151440">
<ele>669.799988</ele>
<time>2025-10-17T16:36:54.421Z</time>
</trkpt>
<trkpt lat="31.7453060" lon="35.1151890">
<ele>669.400024</ele>
<time>2025-10-17T16:36:54.421Z</time>
</trkpt>
<trkpt lat="31.7452700" lon="35.1151910">
<ele>668.800049</ele>
<time>2025-10-17T16:36:54.421Z</time>
</trkpt>
<trkpt lat="31.7452270" lon="35.1151830">
<ele>668.399963</ele>
<time>2025-10-17T16:36:54.421Z</time>
</trkpt>
<trkpt lat="31.7452120" lon="35.1151660">
<ele>668.200012</ele>
<time>2025-10-17T16:36:54.421Z</time>
</trkpt>
<trkpt lat="31.7452140" lon="35.1151390">
<ele>668.000000</ele>
<time>2025-10-17T16:36:54.421Z</time>
</trkpt>
<trkpt lat="31.7452310" lon="35.1151080">
<ele>667.600037</ele>
<time>2025-10-17T16:36:54.421Z</time>
</trkpt>
<trkpt lat="31.7452540" lon="35.1150770">
<ele>667.200012</ele>
<time>2025-10-17T16:36:54.421Z</time>
</trkpt>
<trkpt lat="31.7452860" lon="35.1150550">
<ele>667.000061</ele>
<time>2025-10-17T16:36:54.421Z</time>
</trkpt>
<trkpt lat="31.7453180" lon="35.1150440">
<ele>666.599976</ele>
<time>2025-10-17T16:36:54.421Z</time>
</trkpt>
<trkpt lat="31.7453810" lon="35.1150140">
<ele>665.800049</ele>
<time>2025-10-17T16:36:54.421Z</time>
</trkpt>
<trkpt lat="31.7454180" lon="35.1149940">
<ele>665.200012</ele>
<time>2025-10-17T16:36:54.421Z</time>
</trkpt>
<trkpt lat="31.7454910" lon="35.1149470">
<ele>663.799988</ele>
<time>2025-10-17T16:36:54.421Z</time>
</trkpt>
<trkpt lat="31.7455950" lon="35.1148800">
<ele>662.599976</ele>
<time>2025-10-17T16:36:54.421Z</time>
</trkpt>
<trkpt lat="31.7456280" lon="35.1148630">
<ele>662.200012</ele>
<time>2025-10-17T16:36:54.421Z</time>
</trkpt>
<trkpt lat="31.7456560" lon="35.1148420">
<ele>662.000000</ele>
<time>2025-10-17T16:36:54.421Z</time>
</trkpt>
<trkpt lat="31.7456720" lon="35.1148220">
<ele>662.000000</ele>
<time>2025-10-17T16:36:54.421Z</time>
</trkpt>
<trkpt lat="31.7456910" lon="35.1147860">
<ele>661.799988</ele>
<time>2025-10-17T16:36:54.421Z</time>
</trkpt>
<trkpt lat="31.7457100" lon="35.1147530">
<ele>661.600037</ele>
<time>2025-10-17T16:36:54.421Z</time>
</trkpt>
<trkpt lat="31.7457390" lon="35.1147220">
<ele>661.600037</ele>
<time>2025-10-17T16:36:54.421Z</time>
</trkpt>
<trkpt lat="31.7457680" lon="35.1146980">
<ele>661.600037</ele>
<time>2025-10-17T16:36:54.421Z</time>
</trkpt>
<trkpt lat="31.7457900" lon="35.1146830">
<ele>661.799988</ele>
<time>2025-10-17T16:36:54.421Z</time>
</trkpt>
<trkpt lat="31.7458130" lon="35.1146590">
<ele>661.799988</ele>
<time>2025-10-17T16:36:54.421Z</time>
</trkpt>
<trkpt lat="31.7458360" lon="35.1146250">
<ele>661.799988</ele>
<time>2025-10-17T16:36:54.421Z</time>
</trkpt>
<trkpt lat="31.7458550" lon="35.1145960">
<ele>661.799988</ele>
<time>2025-10-17T16:36:54.421Z</time>
</trkpt>
<trkpt lat="31.7458710" lon="35.1145580">
<ele>662.000000</ele>
<time>2025-10-17T16:36:54.421Z</time>
</trkpt>
<trkpt lat="31.7458780" lon="35.1145180">
<ele>662.000000</ele>
<time>2025-10-17T16:36:54.421Z</time>
</trkpt>
<trkpt lat="31.7458870" lon="35.1144720">
<ele>661.799988</ele>
<time>2025-10-17T16:36:54.422Z</time>
</trkpt>
<trkpt lat="31.7459090" lon="35.1144190">
<ele>661.799988</ele>
<time>2025-10-17T16:36:54.422Z</time>
</trkpt>
<trkpt lat="31.7459580" lon="35.1143430">
<ele>662.000000</ele>
<time>2025-10-17T16:36:54.422Z</time>
</trkpt>
<trkpt lat="31.7459720" lon="35.1143080">
<ele>661.799988</ele>
<time>2025-10-17T16:36:54.422Z</time>
</trkpt>
<trkpt lat="31.7459930" lon="35.1142690">
<ele>661.799988</ele>
<time>2025-10-17T16:36:54.422Z</time>
</trkpt>
<trkpt lat="31.7460840" lon="35.1141540">
<ele>661.400024</ele>
<time>2025-10-17T16:36:54.422Z</time>
</trkpt>
<trkpt lat="31.7461040" lon="35.1141320">
<ele>661.400024</ele>
<time>2025-10-17T16:36:54.422Z</time>
</trkpt>
<trkpt lat="31.7461220" lon="35.1141140">
<ele>661.199951</ele>
<time>2025-10-17T16:36:54.422Z</time>
</trkpt>
<trkpt lat="31.7461400" lon="35.1140970">
<ele>661.400024</ele>
<time>2025-10-17T16:36:54.422Z</time>
</trkpt>
<trkpt lat="31.7461530" lon="35.1140800">
<ele>661.400024</ele>
<time>2025-10-17T16:36:54.422Z</time>
</trkpt>
<trkpt lat="31.7461660" lon="35.1140620">
<ele>661.400024</ele>
<time>2025-10-17T16:36:54.422Z</time>
</trkpt>
<trkpt lat="31.7461810" lon="35.1140300">
<ele>661.400024</ele>
<time>2025-10-17T16:36:54.422Z</time>
</trkpt>
<trkpt lat="31.7461960" lon="35.1139930">
<ele>661.600037</ele>
<time>2025-10-17T16:36:54.422Z</time>
</trkpt>
<trkpt lat="31.7462150" lon="35.1139490">
<ele>661.600037</ele>
<time>2025-10-17T16:36:54.422Z</time>
</trkpt>
<trkpt lat="31.7462400" lon="35.1138800">
<ele>662.000000</ele>
<time>2025-10-17T16:36:54.422Z</time>
</trkpt>
<trkpt lat="31.7462610" lon="35.1138090">
<ele>662.000000</ele>
<time>2025-10-17T16:36:54.422Z</time>
</trkpt>
<trkpt lat="31.7463150" lon="35.1137150">
<ele>662.200012</ele>
<time>2025-10-17T16:36:54.422Z</time>
</trkpt>
<trkpt lat="31.7463380" lon="35.1136900">
<ele>662.200012</ele>
<time>2025-10-17T16:36:54.422Z</time>
</trkpt>
<trkpt lat="31.7463590" lon="35.1136610">
<ele>662.200012</ele>
<time>2025-10-17T16:36:54.422Z</time>
</trkpt>
<trkpt lat="31.7464090" lon="35.1135120">
<ele>662.000000</ele>
<time>2025-10-17T16:36:54.422Z</time>
</trkpt>
<trkpt lat="31.7464110" lon="35.1134690">
<ele>662.000000</ele>
<time>2025-10-17T16:36:54.422Z</time>
</trkpt>
<trkpt lat="31.7464160" lon="35.1134230">
<ele>662.000000</ele>
<time>2025-10-17T16:36:54.422Z</time>
</trkpt>
<trkpt lat="31.7464280" lon="35.1133310">
<ele>661.799988</ele>
<time>2025-10-17T16:36:54.422Z</time>
</trkpt>
<trkpt lat="31.7464360" lon="35.1132450">
<ele>661.799988</ele>
<time>2025-10-17T16:36:54.422Z</time>
</trkpt>
<trkpt lat="31.7464190" lon="35.1130390">
<ele>661.799988</ele>
<time>2025-10-17T16:36:54.422Z</time>
</trkpt>
<trkpt lat="31.7464170" lon="35.1129310">
<ele>662.000000</ele>
<time>2025-10-17T16:36:54.422Z</time>
</trkpt>
<trkpt lat="31.7464110" lon="35.1129000">
<ele>662.200012</ele>
<time>2025-10-17T16:36:54.422Z</time>
</trkpt>
<trkpt lat="31.7464040" lon="35.1128690">
<ele>662.200012</ele>
<time>2025-10-17T16:36:54.423Z</time>
</trkpt>
<trkpt lat="31.7463940" lon="35.1128350">
<ele>662.399963</ele>
<time>2025-10-17T16:36:54.423Z</time>
</trkpt>
<trkpt lat="31.7463800" lon="35.1127990">
<ele>662.399963</ele>
<time>2025-10-17T16:36:54.423Z</time>
</trkpt>
<trkpt lat="31.7463620" lon="35.1127640">
<ele>662.599976</ele>
<time>2025-10-17T16:36:54.423Z</time>
</trkpt>
<trkpt lat="31.7463460" lon="35.1127290">
<ele>662.800049</ele>
<time>2025-10-17T16:36:54.423Z</time>
</trkpt>
<trkpt lat="31.7463370" lon="35.1126940">
<ele>662.800049</ele>
<time>2025-10-17T16:36:54.423Z</time>
</trkpt>
<trkpt lat="31.7463260" lon="35.1126560">
<ele>662.599976</ele>
<time>2025-10-17T16:36:54.423Z</time>
</trkpt>
<trkpt lat="31.7463140" lon="35.1126190">
<ele>662.399963</ele>
<time>2025-10-17T16:36:54.423Z</time>
</trkpt>
<trkpt lat="31.7463070" lon="35.1125870">
<ele>662.000000</ele>
<time>2025-10-17T16:36:54.423Z</time>
</trkpt>
<trkpt lat="31.7463020" lon="35.1125540">
<ele>661.600037</ele>
<time>2025-10-17T16:36:54.423Z</time>
</trkpt>
<trkpt lat="31.7462910" lon="35.1125190">
<ele>661.000000</ele>
<time>2025-10-17T16:36:54.423Z</time>
</trkpt>
<trkpt lat="31.7462810" lon="35.1124780">
<ele>660.799988</ele>
<time>2025-10-17T16:36:54.423Z</time>
</trkpt>
<trkpt lat="31.7462820" lon="35.1124370">
<ele>660.200012</ele>
<time>2025-10-17T16:36:54.423Z</time>
</trkpt>
<trkpt lat="31.7462840" lon="35.1123960">
<ele>659.800049</ele>
<time>2025-10-17T16:36:54.423Z</time>
</trkpt>
<trkpt lat="31.7462780" lon="35.1123530">
<ele>659.599976</ele>
<time>2025-10-17T16:36:54.423Z</time>
</trkpt>
<trkpt lat="31.7462700" lon="35.1123060">
<ele>659.399963</ele>
<time>2025-10-17T16:36:54.423Z</time>
</trkpt>
<trkpt lat="31.7462620" lon="35.1122550">
<ele>659.399963</ele>
<time>2025-10-17T16:36:54.423Z</time>
</trkpt>
<trkpt lat="31.7462600" lon="35.1122040">
<ele>658.799988</ele>
<time>2025-10-17T16:36:54.423Z</time>
</trkpt>
<trkpt lat="31.7462720" lon="35.1121190">
<ele>658.199951</ele>
<time>2025-10-17T16:36:54.423Z</time>
</trkpt>
<trkpt lat="31.7462710" lon="35.1120910">
<ele>658.000000</ele>
<time>2025-10-17T16:36:54.423Z</time>
</trkpt>
<trkpt lat="31.7462630" lon="35.1120700">
<ele>657.599976</ele>
<time>2025-10-17T16:36:54.423Z</time>
</trkpt>
<trkpt lat="31.7462480" lon="35.1120460">
<ele>657.200012</ele>
<time>2025-10-17T16:36:54.423Z</time>
</trkpt>
<trkpt lat="31.7462290" lon="35.1120180">
<ele>656.599976</ele>
<time>2025-10-17T16:36:54.423Z</time>
</trkpt>
<trkpt lat="31.7462110" lon="35.1119850">
<ele>656.399963</ele>
<time>2025-10-17T16:36:54.423Z</time>
</trkpt>
<trkpt lat="31.7462010" lon="35.1119500">
<ele>656.200012</ele>
<time>2025-10-17T16:36:54.423Z</time>
</trkpt>
<trkpt lat="31.7461980" lon="35.1119100">
<ele>655.600037</ele>
<time>2025-10-17T16:36:54.423Z</time>
</trkpt>
<trkpt lat="31.7461990" lon="35.1118680">
<ele>655.199951</ele>
<time>2025-10-17T16:36:54.423Z</time>
</trkpt>
<trkpt lat="31.7462030" lon="35.1118240">
<ele>654.599976</ele>
<time>2025-10-17T16:36:54.423Z</time>
</trkpt>
<trkpt lat="31.7462090" lon="35.1117730">
<ele>654.200012</ele>
<time>2025-10-17T16:36:54.424Z</time>
</trkpt>
<trkpt lat="31.7462150" lon="35.1117280">
<ele>653.800049</ele>
<time>2025-10-17T16:36:54.424Z</time>
</trkpt>
<trkpt lat="31.7462200" lon="35.1116800">
<ele>653.599976</ele>
<time>2025-10-17T16:36:54.424Z</time>
</trkpt>
<trkpt lat="31.7462400" lon="35.1115880">
<ele>653.000000</ele>
<time>2025-10-17T16:36:54.424Z</time>
</trkpt>
<trkpt lat="31.7462530" lon="35.1115540">
<ele>652.399963</ele>
<time>2025-10-17T16:36:54.424Z</time>
</trkpt>
<trkpt lat="31.7462670" lon="35.1115280">
<ele>651.799988</ele>
<time>2025-10-17T16:36:54.424Z</time>
</trkpt>
<trkpt lat="31.7462730" lon="35.1115040">
<ele>651.400024</ele>
<time>2025-10-17T16:36:54.424Z</time>
</trkpt>
<trkpt lat="31.7462800" lon="35.1114790">
<ele>650.999939</ele>
<time>2025-10-17T16:36:54.424Z</time>
</trkpt>
<trkpt lat="31.7462900" lon="35.1114540">
<ele>650.599976</ele>
<time>2025-10-17T16:36:54.424Z</time>
</trkpt>
<trkpt lat="31.7463060" lon="35.1114280">
<ele>650.000000</ele>
<time>2025-10-17T16:36:54.424Z</time>
</trkpt>
<trkpt lat="31.7463260" lon="35.1114050">
<ele>650.000000</ele>
<time>2025-10-17T16:36:54.424Z</time>
</trkpt>
<trkpt lat="31.7463640" lon="35.1113690">
<ele>649.799988</ele>
<time>2025-10-17T16:36:54.424Z</time>
</trkpt>
<trkpt lat="31.7463810" lon="35.1113490">
<ele>649.600037</ele>
<time>2025-10-17T16:36:54.424Z</time>
</trkpt>
<trkpt lat="31.7463950" lon="35.1113240">
<ele>649.600037</ele>
<time>2025-10-17T16:36:54.424Z</time>
</trkpt>
<trkpt lat="31.7464080" lon="35.1112990">
<ele>649.600037</ele>
<time>2025-10-17T16:36:54.424Z</time>
</trkpt>
<trkpt lat="31.7464250" lon="35.1112750">
<ele>649.799988</ele>
<time>2025-10-17T16:36:54.424Z</time>
</trkpt>
<trkpt lat="31.7464380" lon="35.1112490">
<ele>649.799988</ele>
<time>2025-10-17T16:36:54.424Z</time>
</trkpt>
<trkpt lat="31.7464510" lon="35.1112220">
<ele>650.000000</ele>
<time>2025-10-17T16:36:54.424Z</time>
</trkpt>
<trkpt lat="31.7464610" lon="35.1111910">
<ele>650.000000</ele>
<time>2025-10-17T16:36:54.424Z</time>
</trkpt>
<trkpt lat="31.7464670" lon="35.1111610">
<ele>650.000000</ele>
<time>2025-10-17T16:36:54.424Z</time>
</trkpt>
<trkpt lat="31.7464720" lon="35.1111260">
<ele>650.000000</ele>
<time>2025-10-17T16:36:54.424Z</time>
</trkpt>
<trkpt lat="31.7464970" lon="35.1109950">
<ele>649.600037</ele>
<time>2025-10-17T16:36:54.424Z</time>
</trkpt>
<trkpt lat="31.7465250" lon="35.1109610">
<ele>649.399963</ele>
<time>2025-10-17T16:36:54.424Z</time>
</trkpt>
<trkpt lat="31.7465530" lon="35.1109270">
<ele>649.000000</ele>
<time>2025-10-17T16:36:54.424Z</time>
</trkpt>
<trkpt lat="31.7465740" lon="35.1108910">
<ele>648.400024</ele>
<time>2025-10-17T16:36:54.424Z</time>
</trkpt>
<trkpt lat="31.7465950" lon="35.1108480">
<ele>647.200012</ele>
<time>2025-10-17T16:36:54.424Z</time>
</trkpt>
<trkpt lat="31.7466560" lon="35.1107770">
<ele>645.400024</ele>
<time>2025-10-17T16:36:54.424Z</time>
</trkpt>
<trkpt lat="31.7467300" lon="35.1107150">
<ele>644.599976</ele>
<time>2025-10-17T16:36:54.424Z</time>
</trkpt>
<trkpt lat="31.7467700" lon="35.1106820">
<ele>644.200012</ele>
<time>2025-10-17T16:36:54.424Z</time>
</trkpt>
<trkpt lat="31.7468500" lon="35.1106180">
<ele>643.399963</ele>
<time>2025-10-17T16:36:54.424Z</time>
</trkpt>
<trkpt lat="31.7468900" lon="35.1105950">
<ele>642.600037</ele>
<time>2025-10-17T16:36:54.424Z</time>
</trkpt>
<trkpt lat="31.7469320" lon="35.1105710">
<ele>641.599976</ele>
<time>2025-10-17T16:36:54.424Z</time>
</trkpt>
<trkpt lat="31.7469700" lon="35.1105450">
<ele>641.200012</ele>
<time>2025-10-17T16:36:54.424Z</time>
</trkpt>
<trkpt lat="31.7470090" lon="35.1105200">
<ele>641.000000</ele>
<time>2025-10-17T16:36:54.424Z</time>
</trkpt>
<trkpt lat="31.7471640" lon="35.1104270">
<ele>640.599976</ele>
<time>2025-10-17T16:36:54.424Z</time>
</trkpt>
<trkpt lat="31.7472010" lon="35.1103960">
<ele>640.599976</ele>
<time>2025-10-17T16:36:54.424Z</time>
</trkpt>
<trkpt lat="31.7472360" lon="35.1103670">
<ele>640.399963</ele>
<time>2025-10-17T16:36:54.424Z</time>
</trkpt>
<trkpt lat="31.7472700" lon="35.1103430">
<ele>640.000000</ele>
<time>2025-10-17T16:36:54.424Z</time>
</trkpt>
<trkpt lat="31.7473020" lon="35.1103230">
<ele>639.799988</ele>
<time>2025-10-17T16:36:54.424Z</time>
</trkpt>
<trkpt lat="31.7473330" lon="35.1103050">
<ele>639.000000</ele>
<time>2025-10-17T16:36:54.424Z</time>
</trkpt>
<trkpt lat="31.7473600" lon="35.1102810">
<ele>638.799988</ele>
<time>2025-10-17T16:36:54.425Z</time>
</trkpt>
<trkpt lat="31.7473840" lon="35.1102490">
<ele>638.799988</ele>
<time>2025-10-17T16:36:54.425Z</time>
</trkpt>
<trkpt lat="31.7474130" lon="35.1102140">
<ele>638.400024</ele>
<time>2025-10-17T16:36:54.425Z</time>
</trkpt>
<trkpt lat="31.7474470" lon="35.1101780">
<ele>638.000000</ele>
<time>2025-10-17T16:36:54.425Z</time>
</trkpt>
<trkpt lat="31.7474850" lon="35.1101440">
<ele>638.000000</ele>
<time>2025-10-17T16:36:54.425Z</time>
</trkpt>
<trkpt lat="31.7476750" lon="35.1100300">
<ele>637.399963</ele>
<time>2025-10-17T16:36:54.425Z</time>
</trkpt>
<trkpt lat="31.7477130" lon="35.1100050">
<ele>636.400024</ele>
<time>2025-10-17T16:36:54.425Z</time>
</trkpt>
<trkpt lat="31.7477850" lon="35.1099640">
<ele>636.000000</ele>
<time>2025-10-17T16:36:54.425Z</time>
</trkpt>
<trkpt lat="31.7478230" lon="35.1099410">
<ele>635.799988</ele>
<time>2025-10-17T16:36:54.425Z</time>
</trkpt>
<trkpt lat="31.7478630" lon="35.1099210">
<ele>635.599976</ele>
<time>2025-10-17T16:36:54.425Z</time>
</trkpt>
<trkpt lat="31.7479320" lon="35.1098850">
<ele>635.400024</ele>
<time>2025-10-17T16:36:54.425Z</time>
</trkpt>
<trkpt lat="31.7479590" lon="35.1098580">
<ele>635.000000</ele>
<time>2025-10-17T16:36:54.425Z</time>
</trkpt>
<trkpt lat="31.7479880" lon="35.1098250">
<ele>635.000000</ele>
<time>2025-10-17T16:36:54.425Z</time>
</trkpt>
<trkpt lat="31.7480210" lon="35.1097910">
<ele>634.599976</ele>
<time>2025-10-17T16:36:54.425Z</time>
</trkpt>
<trkpt lat="31.7480570" lon="35.1097590">
<ele>634.399963</ele>
<time>2025-10-17T16:36:54.425Z</time>
</trkpt>
<trkpt lat="31.7480940" lon="35.1097300">
<ele>634.000000</ele>
<time>2025-10-17T16:36:54.425Z</time>
</trkpt>
<trkpt lat="31.7481760" lon="35.1096750">
<ele>633.600037</ele>
<time>2025-10-17T16:36:54.425Z</time>
</trkpt>
<trkpt lat="31.7482130" lon="35.1096510">
<ele>632.799988</ele>
<time>2025-10-17T16:36:54.425Z</time>
</trkpt>
<trkpt lat="31.7483280" lon="35.1095840">
<ele>631.599976</ele>
<time>2025-10-17T16:36:54.425Z</time>
</trkpt>
<trkpt lat="31.7483690" lon="35.1095610">
<ele>630.199951</ele>
<time>2025-10-17T16:36:54.425Z</time>
</trkpt>
<trkpt lat="31.7484070" lon="35.1095340">
<ele>629.599976</ele>
<time>2025-10-17T16:36:54.425Z</time>
</trkpt>
<trkpt lat="31.7484460" lon="35.1095060">
<ele>628.800049</ele>
<time>2025-10-17T16:36:54.425Z</time>
</trkpt>
<trkpt lat="31.7485530" lon="35.1094290">
<ele>628.200012</ele>
<time>2025-10-17T16:36:54.425Z</time>
</trkpt>
<trkpt lat="31.7485750" lon="35.1094010">
<ele>628.200012</ele>
<time>2025-10-17T16:36:54.425Z</time>
</trkpt>
<trkpt lat="31.7486270" lon="35.1093440">
<ele>628.399963</ele>
<time>2025-10-17T16:36:54.425Z</time>
</trkpt>
<trkpt lat="31.7486530" lon="35.1093130">
<ele>628.599976</ele>
<time>2025-10-17T16:36:54.425Z</time>
</trkpt>
<trkpt lat="31.7486840" lon="35.1092910">
<ele>628.399963</ele>
<time>2025-10-17T16:36:54.425Z</time>
</trkpt>
<trkpt lat="31.7487180" lon="35.1092770">
<ele>628.200012</ele>
<time>2025-10-17T16:36:54.426Z</time>
</trkpt>
<trkpt lat="31.7487480" lon="35.1092670">
<ele>628.000000</ele>
<time>2025-10-17T16:36:54.426Z</time>
</trkpt>
<trkpt lat="31.7487750" lon="35.1092540">
<ele>628.000000</ele>
<time>2025-10-17T16:36:54.426Z</time>
</trkpt>
<trkpt lat="31.7487980" lon="35.1092420">
<ele>628.000000</ele>
<time>2025-10-17T16:36:54.426Z</time>
</trkpt>
<trkpt lat="31.7488480" lon="35.1092080">
<ele>628.000000</ele>
<time>2025-10-17T16:36:54.426Z</time>
</trkpt>
<trkpt lat="31.7488750" lon="35.1092000">
<ele>628.000000</ele>
<time>2025-10-17T16:36:54.426Z</time>
</trkpt>
<trkpt lat="31.7489060" lon="35.1092000">
<ele>627.799988</ele>
<time>2025-10-17T16:36:54.426Z</time>
</trkpt>
<trkpt lat="31.7489380" lon="35.1091990">
<ele>627.799988</ele>
<time>2025-10-17T16:36:54.426Z</time>
</trkpt>
<trkpt lat="31.7489700" lon="35.1091970">
<ele>627.799988</ele>
<time>2025-10-17T16:36:54.426Z</time>
</trkpt>
<trkpt lat="31.7489960" lon="35.1092020">
<ele>627.799988</ele>
<time>2025-10-17T16:36:54.426Z</time>
</trkpt>
<trkpt lat="31.7490200" lon="35.1092060">
<ele>627.799988</ele>
<time>2025-10-17T16:36:54.426Z</time>
</trkpt>
<trkpt lat="31.7490490" lon="35.1092060">
<ele>627.799988</ele>
<time>2025-10-17T16:36:54.426Z</time>
</trkpt>
<trkpt lat="31.7490830" lon="35.1092030">
<ele>628.000000</ele>
<time>2025-10-17T16:36:54.426Z</time>
</trkpt>
<trkpt lat="31.7491160" lon="35.1091930">
<ele>628.000000</ele>
<time>2025-10-17T16:36:54.426Z</time>
</trkpt>
<trkpt lat="31.7491480" lon="35.1091740">
<ele>628.200012</ele>
<time>2025-10-17T16:36:54.426Z</time>
</trkpt>
<trkpt lat="31.7491780" lon="35.1091460">
<ele>628.200012</ele>
<time>2025-10-17T16:36:54.426Z</time>
</trkpt>
<trkpt lat="31.7492080" lon="35.1091170">
<ele>628.200012</ele>
<time>2025-10-17T16:36:54.426Z</time>
</trkpt>
<trkpt lat="31.7492390" lon="35.1090840">
<ele>628.000000</ele>
<time>2025-10-17T16:36:54.426Z</time>
</trkpt>
<trkpt lat="31.7493080" lon="35.1090150">
<ele>628.000000</ele>
<time>2025-10-17T16:36:54.426Z</time>
</trkpt>
<trkpt lat="31.7493450" lon="35.1089870">
<ele>627.799988</ele>
<time>2025-10-17T16:36:54.426Z</time>
</trkpt>
<trkpt lat="31.7493820" lon="35.1089560">
<ele>627.199951</ele>
<time>2025-10-17T16:36:54.426Z</time>
</trkpt>
<trkpt lat="31.7494460" lon="35.1088840">
<ele>627.000000</ele>
<time>2025-10-17T16:36:54.426Z</time>
</trkpt>
<trkpt lat="31.7494800" lon="35.1088520">
<ele>626.400024</ele>
<time>2025-10-17T16:36:54.426Z</time>
</trkpt>
<trkpt lat="31.7495480" lon="35.1087950">
<ele>625.999939</ele>
<time>2025-10-17T16:36:54.426Z</time>
</trkpt>
<trkpt lat="31.7496120" lon="35.1087440">
<ele>624.399963</ele>
<time>2025-10-17T16:36:54.426Z</time>
</trkpt>
<trkpt lat="31.7496350" lon="35.1087100">
<ele>624.200012</ele>
<time>2025-10-17T16:36:54.426Z</time>
</trkpt>
<trkpt lat="31.7496570" lon="35.1086690">
<ele>623.799988</ele>
<time>2025-10-17T16:36:54.426Z</time>
</trkpt>
<trkpt lat="31.7496740" lon="35.1086270">
<ele>623.400024</ele>
<time>2025-10-17T16:36:54.427Z</time>
</trkpt>
<trkpt lat="31.7496790" lon="35.1085850">
<ele>623.000000</ele>
<time>2025-10-17T16:36:54.427Z</time>
</trkpt>
<trkpt lat="31.7496740" lon="35.1085430">
<ele>622.200012</ele>
<time>2025-10-17T16:36:54.427Z</time>
</trkpt>
<trkpt lat="31.7496640" lon="35.1085060">
<ele>622.000000</ele>
<time>2025-10-17T16:36:54.427Z</time>
</trkpt>
<trkpt lat="31.7496540" lon="35.1084790">
<ele>621.600037</ele>
<time>2025-10-17T16:36:54.427Z</time>
</trkpt>
<trkpt lat="31.7496460" lon="35.1084640">
<ele>621.600037</ele>
<time>2025-10-17T16:36:54.427Z</time>
</trkpt>
<trkpt lat="31.7496420" lon="35.1084600">
<ele>621.399963</ele>
<time>2025-10-17T16:36:54.427Z</time>
</trkpt>
<trkpt lat="31.7496420" lon="35.1084600">
<ele>621.200012</ele>
<time>2025-10-17T16:36:54.427Z</time>
</trkpt>
<trkpt lat="31.7496420" lon="35.1084600">
<ele>621.200012</ele>
<time>2025-10-17T16:36:54.427Z</time>
</trkpt>
<trkpt lat="31.7496250" lon="35.1084210">
<ele>620.799988</ele>
<time>2025-10-17T16:36:54.427Z</time>
</trkpt>
<trkpt lat="31.7496140" lon="35.1084050">
<ele>620.799988</ele>
<time>2025-10-17T16:36:54.427Z</time>
</trkpt>
<trkpt lat="31.7495900" lon="35.1083630">
<ele>620.799988</ele>
<time>2025-10-17T16:36:54.427Z</time>
</trkpt>
<trkpt lat="31.7495760" lon="35.1083420">
<ele>620.799988</ele>
<time>2025-10-17T16:36:54.427Z</time>
</trkpt>
<trkpt lat="31.7495630" lon="35.1083260">
<ele>620.799988</ele>
<time>2025-10-17T16:36:54.427Z</time>
</trkpt>
<trkpt lat="31.7495270" lon="35.1082790">
<ele>620.799988</ele>
<time>2025-10-17T16:36:54.427Z</time>
</trkpt>
<trkpt lat="31.7495130" lon="35.1082580">
<ele>620.599976</ele>
<time>2025-10-17T16:36:54.427Z</time>
</trkpt>
<trkpt lat="31.7494590" lon="35.1081900">
<ele>620.599976</ele>
<time>2025-10-17T16:36:54.427Z</time>
</trkpt>
<trkpt lat="31.7493890" lon="35.1081520">
<ele>620.400024</ele>
<time>2025-10-17T16:36:54.427Z</time>
</trkpt>
<trkpt lat="31.7493540" lon="35.1081360">
<ele>620.200012</ele>
<time>2025-10-17T16:36:54.427Z</time>
</trkpt>
<trkpt lat="31.7493180" lon="35.1081210">
<ele>620.200012</ele>
<time>2025-10-17T16:36:54.427Z</time>
</trkpt>
<trkpt lat="31.7492060" lon="35.1080970">
<ele>620.000000</ele>
<time>2025-10-17T16:36:54.427Z</time>
</trkpt>
<trkpt lat="31.7491680" lon="35.1081120">
<ele>620.000000</ele>
<time>2025-10-17T16:36:54.427Z</time>
</trkpt>
<trkpt lat="31.7491300" lon="35.1081340">
<ele>619.599976</ele>
<time>2025-10-17T16:36:54.427Z</time>
</trkpt>
<trkpt lat="31.7490930" lon="35.1081660">
<ele>619.200012</ele>
<time>2025-10-17T16:36:54.427Z</time>
</trkpt>
<trkpt lat="31.7490540" lon="35.1082020">
<ele>618.200012</ele>
<time>2025-10-17T16:36:54.427Z</time>
</trkpt>
<trkpt lat="31.7490160" lon="35.1082380">
<ele>617.799988</ele>
<time>2025-10-17T16:36:54.427Z</time>
</trkpt>
<trkpt lat="31.7489450" lon="35.1082960">
<ele>617.000000</ele>
<time>2025-10-17T16:36:54.427Z</time>
</trkpt>
<trkpt lat="31.7489160" lon="35.1083100">
<ele>616.799988</ele>
<time>2025-10-17T16:36:54.428Z</time>
</trkpt>
<trkpt lat="31.7488860" lon="35.1083160">
<ele>616.599976</ele>
<time>2025-10-17T16:36:54.428Z</time>
</trkpt>
<trkpt lat="31.7488550" lon="35.1083160">
<ele>616.599976</ele>
<time>2025-10-17T16:36:54.428Z</time>
</trkpt>
<trkpt lat="31.7488240" lon="35.1083180">
<ele>615.799988</ele>
<time>2025-10-17T16:36:54.428Z</time>
</trkpt>
<trkpt lat="31.7487920" lon="35.1083200">
<ele>615.200012</ele>
<time>2025-10-17T16:36:54.428Z</time>
</trkpt>
<trkpt lat="31.7487920" lon="35.1083200">
<ele>614.599976</ele>
<time>2025-10-17T16:36:54.428Z</time>
</trkpt>
<trkpt lat="31.7486820" lon="35.1082890">
<ele>613.799988</ele>
<time>2025-10-17T16:36:54.428Z</time>
</trkpt>
<trkpt lat="31.7486420" lon="35.1082880">
<ele>613.600037</ele>
<time>2025-10-17T16:36:54.428Z</time>
</trkpt>
<trkpt lat="31.7486000" lon="35.1082960">
<ele>613.000000</ele>
<time>2025-10-17T16:36:54.428Z</time>
</trkpt>
<trkpt lat="31.7485580" lon="35.1083120">
<ele>612.599976</ele>
<time>2025-10-17T16:36:54.428Z</time>
</trkpt>
<trkpt lat="31.7485210" lon="35.1083320">
<ele>612.599976</ele>
<time>2025-10-17T16:36:54.428Z</time>
</trkpt>
<trkpt lat="31.7484850" lon="35.1083450">
<ele>611.599976</ele>
<time>2025-10-17T16:36:54.428Z</time>
</trkpt>
<trkpt lat="31.7484480" lon="35.1083580">
<ele>611.200012</ele>
<time>2025-10-17T16:36:54.428Z</time>
</trkpt>
<trkpt lat="31.7484140" lon="35.1083760">
<ele>610.200012</ele>
<time>2025-10-17T16:36:54.428Z</time>
</trkpt>
<trkpt lat="31.7483830" lon="35.1083840">
<ele>609.799988</ele>
<time>2025-10-17T16:36:54.428Z</time>
</trkpt>
<trkpt lat="31.7483510" lon="35.1083920">
<ele>609.200012</ele>
<time>2025-10-17T16:36:54.428Z</time>
</trkpt>
<trkpt lat="31.7483270" lon="35.1083790">
<ele>609.000000</ele>
<time>2025-10-17T16:36:54.428Z</time>
</trkpt>
<trkpt lat="31.7483060" lon="35.1083690">
<ele>608.400024</ele>
<time>2025-10-17T16:36:54.428Z</time>
</trkpt>
<trkpt lat="31.7482870" lon="35.1083580">
<ele>608.000000</ele>
<time>2025-10-17T16:36:54.428Z</time>
</trkpt>
<trkpt lat="31.7482640" lon="35.1083480">
<ele>608.000000</ele>
<time>2025-10-17T16:36:54.428Z</time>
</trkpt>
<trkpt lat="31.7482350" lon="35.1083380">
<ele>607.799988</ele>
<time>2025-10-17T16:36:54.428Z</time>
</trkpt>
<trkpt lat="31.7482020" lon="35.1083370">
<ele>607.600037</ele>
<time>2025-10-17T16:36:54.428Z</time>
</trkpt>
<trkpt lat="31.7481720" lon="35.1083510">
<ele>607.200012</ele>
<time>2025-10-17T16:36:54.428Z</time>
</trkpt>
<trkpt lat="31.7481450" lon="35.1083730">
<ele>607.000000</ele>
<time>2025-10-17T16:36:54.428Z</time>
</trkpt>
<trkpt lat="31.7481210" lon="35.1083960">
<ele>606.400024</ele>
<time>2025-10-17T16:36:54.428Z</time>
</trkpt>
<trkpt lat="31.7480940" lon="35.1084190">
<ele>605.799988</ele>
<time>2025-10-17T16:36:54.428Z</time>
</trkpt>
<trkpt lat="31.7480610" lon="35.1084460">
<ele>604.799988</ele>
<time>2025-10-17T16:36:54.429Z</time>
</trkpt>
<trkpt lat="31.7480250" lon="35.1084760">
<ele>604.600037</ele>
<time>2025-10-17T16:36:54.429Z</time>
</trkpt>
<trkpt lat="31.7479220" lon="35.1086050">
<ele>604.000000</ele>
<time>2025-10-17T16:36:54.429Z</time>
</trkpt>
<trkpt lat="31.7479000" lon="35.1086350">
<ele>604.000000</ele>
<time>2025-10-17T16:36:54.429Z</time>
</trkpt>
<trkpt lat="31.7478800" lon="35.1086610">
<ele>604.000000</ele>
<time>2025-10-17T16:36:54.429Z</time>
</trkpt>
<trkpt lat="31.7478620" lon="35.1086870">
<ele>604.000000</ele>
<time>2025-10-17T16:36:54.429Z</time>
</trkpt>
<trkpt lat="31.7478400" lon="35.1087120">
<ele>604.200012</ele>
<time>2025-10-17T16:36:54.429Z</time>
</trkpt>
<trkpt lat="31.7478170" lon="35.1087370">
<ele>604.399963</ele>
<time>2025-10-17T16:36:54.429Z</time>
</trkpt>
<trkpt lat="31.7477680" lon="35.1087840">
<ele>605.000000</ele>
<time>2025-10-17T16:36:54.429Z</time>
</trkpt>
<trkpt lat="31.7476460" lon="35.1089000">
<ele>605.799988</ele>
<time>2025-10-17T16:36:54.429Z</time>
</trkpt>
<trkpt lat="31.7475500" lon="35.1089760">
<ele>606.400024</ele>
<time>2025-10-17T16:36:54.429Z</time>
</trkpt>
<trkpt lat="31.7474420" lon="35.1090630">
<ele>606.799988</ele>
<time>2025-10-17T16:36:54.429Z</time>
</trkpt>
<trkpt lat="31.7474140" lon="35.1090820">
<ele>607.200012</ele>
<time>2025-10-17T16:36:54.429Z</time>
</trkpt>
<trkpt lat="31.7473400" lon="35.1091450">
<ele>608.000000</ele>
<time>2025-10-17T16:36:54.429Z</time>
</trkpt>
<trkpt lat="31.7473180" lon="35.1091650">
<ele>608.400024</ele>
<time>2025-10-17T16:36:54.429Z</time>
</trkpt>
<trkpt lat="31.7472900" lon="35.1091870">
<ele>608.799988</ele>
<time>2025-10-17T16:36:54.429Z</time>
</trkpt>
<trkpt lat="31.7472690" lon="35.1092060">
<ele>608.799988</ele>
<time>2025-10-17T16:36:54.429Z</time>
</trkpt>
<trkpt lat="31.7472530" lon="35.1092190">
<ele>608.799988</ele>
<time>2025-10-17T16:36:54.429Z</time>
</trkpt>
<trkpt lat="31.7472320" lon="35.1092340">
<ele>609.000000</ele>
<time>2025-10-17T16:36:54.429Z</time>
</trkpt>
<trkpt lat="31.7472130" lon="35.1092480">
<ele>609.000000</ele>
<time>2025-10-17T16:36:54.429Z</time>
</trkpt>
<trkpt lat="31.7471930" lon="35.1092650">
<ele>609.200012</ele>
<time>2025-10-17T16:36:54.429Z</time>
</trkpt>
<trkpt lat="31.7471740" lon="35.1092810">
<ele>609.400024</ele>
<time>2025-10-17T16:36:54.429Z</time>
</trkpt>
<trkpt lat="31.7471480" lon="35.1092990">
<ele>609.799988</ele>
<time>2025-10-17T16:36:54.429Z</time>
</trkpt>
<trkpt lat="31.7471220" lon="35.1093190">
<ele>609.799988</ele>
<time>2025-10-17T16:36:54.429Z</time>
</trkpt>
<trkpt lat="31.7470990" lon="35.1093390">
<ele>610.000000</ele>
<time>2025-10-17T16:36:54.429Z</time>
</trkpt>
<trkpt lat="31.7470750" lon="35.1093560">
<ele>610.200012</ele>
<time>2025-10-17T16:36:54.429Z</time>
</trkpt>
<trkpt lat="31.7470530" lon="35.1093710">
<ele>610.200012</ele>
<time>2025-10-17T16:36:54.429Z</time>
</trkpt>
<trkpt lat="31.7470290" lon="35.1093840">
<ele>610.600037</ele>
<time>2025-10-17T16:36:54.429Z</time>
</trkpt>
<trkpt lat="31.7470040" lon="35.1093960">
<ele>610.799988</ele>
<time>2025-10-17T16:36:54.430Z</time>
</trkpt>
<trkpt lat="31.7469810" lon="35.1094080">
<ele>611.000000</ele>
<time>2025-10-17T16:36:54.430Z</time>
</trkpt>
<trkpt lat="31.7469560" lon="35.1094190">
<ele>611.000000</ele>
<time>2025-10-17T16:36:54.430Z</time>
</trkpt>
<trkpt lat="31.7469330" lon="35.1094280">
<ele>611.200012</ele>
<time>2025-10-17T16:36:54.430Z</time>
</trkpt>
<trkpt lat="31.7469070" lon="35.1094400">
<ele>611.200012</ele>
<time>2025-10-17T16:36:54.430Z</time>
</trkpt>
<trkpt lat="31.7468750" lon="35.1094520">
<ele>611.400024</ele>
<time>2025-10-17T16:36:54.430Z</time>
</trkpt>
<trkpt lat="31.7468450" lon="35.1094620">
<ele>611.400024</ele>
<time>2025-10-17T16:36:54.430Z</time>
</trkpt>
<trkpt lat="31.7468050" lon="35.1094730">
<ele>611.400024</ele>
<time>2025-10-17T16:36:54.430Z</time>
</trkpt>
<trkpt lat="31.7467750" lon="35.1094860">
<ele>611.400024</ele>
<time>2025-10-17T16:36:54.430Z</time>
</trkpt>
<trkpt lat="31.7467400" lon="35.1095010">
<ele>611.599976</ele>
<time>2025-10-17T16:36:54.430Z</time>
</trkpt>
<trkpt lat="31.7467030" lon="35.1095160">
<ele>611.599976</ele>
<time>2025-10-17T16:36:54.430Z</time>
</trkpt>
<trkpt lat="31.7466700" lon="35.1095330">
<ele>611.599976</ele>
<time>2025-10-17T16:36:54.430Z</time>
</trkpt>
<trkpt lat="31.7466350" lon="35.1095480">
<ele>611.799988</ele>
<time>2025-10-17T16:36:54.430Z</time>
</trkpt>
<trkpt lat="31.7466010" lon="35.1095620">
<ele>611.799988</ele>
<time>2025-10-17T16:36:54.430Z</time>
</trkpt>
<trkpt lat="31.7465700" lon="35.1095740">
<ele>611.799988</ele>
<time>2025-10-17T16:36:54.430Z</time>
</trkpt>
<trkpt lat="31.7465370" lon="35.1095910">
<ele>611.799988</ele>
<time>2025-10-17T16:36:54.430Z</time>
</trkpt>
<trkpt lat="31.7465050" lon="35.1096130">
<ele>611.799988</ele>
<time>2025-10-17T16:36:54.430Z</time>
</trkpt>
<trkpt lat="31.7464660" lon="35.1096310">
<ele>611.799988</ele>
<time>2025-10-17T16:36:54.430Z</time>
</trkpt>
<trkpt lat="31.7464380" lon="35.1096440">
<ele>611.799988</ele>
<time>2025-10-17T16:36:54.430Z</time>
</trkpt>
<trkpt lat="31.7464030" lon="35.1096600">
<ele>611.799988</ele>
<time>2025-10-17T16:36:54.430Z</time>
</trkpt>
<trkpt lat="31.7463680" lon="35.1096630">
<ele>611.799988</ele>
<time>2025-10-17T16:36:54.430Z</time>
</trkpt>
<trkpt lat="31.7463280" lon="35.1096660">
<ele>611.799988</ele>
<time>2025-10-17T16:36:54.430Z</time>
</trkpt>
<trkpt lat="31.7462850" lon="35.1096690">
<ele>611.799988</ele>
<time>2025-10-17T16:36:54.430Z</time>
</trkpt>
<trkpt lat="31.7462450" lon="35.1096630">
<ele>611.799988</ele>
<time>2025-10-17T16:36:54.430Z</time>
</trkpt>
<trkpt lat="31.7462030" lon="35.1096500">
<ele>611.799988</ele>
<time>2025-10-17T16:36:54.430Z</time>
</trkpt>
<trkpt lat="31.7461690" lon="35.1096510">
<ele>611.599976</ele>
<time>2025-10-17T16:36:54.430Z</time>
</trkpt>
<trkpt lat="31.7461200" lon="35.1096550">
<ele>611.200012</ele>
<time>2025-10-17T16:36:54.430Z</time>
</trkpt>
<trkpt lat="31.7460690" lon="35.1096690">
<ele>610.600037</ele>
<time>2025-10-17T16:36:54.431Z</time>
</trkpt>
<trkpt lat="31.7460100" lon="35.1096960">
<ele>610.000000</ele>
<time>2025-10-17T16:36:54.431Z</time>
</trkpt>
<trkpt lat="31.7459730" lon="35.1097210">
<ele>609.799988</ele>
<time>2025-10-17T16:36:54.431Z</time>
</trkpt>
<trkpt lat="31.7458510" lon="35.1098020">
<ele>609.000000</ele>
<time>2025-10-17T16:36:54.431Z</time>
</trkpt>
<trkpt lat="31.7458170" lon="35.1098310">
<ele>608.799988</ele>
<time>2025-10-17T16:36:54.431Z</time>
</trkpt>
<trkpt lat="31.7457850" lon="35.1098610">
<ele>608.599976</ele>
<time>2025-10-17T16:36:54.431Z</time>
</trkpt>
<trkpt lat="31.7457520" lon="35.1098900">
<ele>608.599976</ele>
<time>2025-10-17T16:36:54.431Z</time>
</trkpt>
<trkpt lat="31.7456290" lon="35.1099610">
<ele>608.599976</ele>
<time>2025-10-17T16:36:54.431Z</time>
</trkpt>
<trkpt lat="31.7455870" lon="35.1099790">
<ele>608.599976</ele>
<time>2025-10-17T16:36:54.431Z</time>
</trkpt>
<trkpt lat="31.7455510" lon="35.1100000">
<ele>608.599976</ele>
<time>2025-10-17T16:36:54.431Z</time>
</trkpt>
<trkpt lat="31.7455160" lon="35.1100200">
<ele>608.599976</ele>
<time>2025-10-17T16:36:54.431Z</time>
</trkpt>
<trkpt lat="31.7454740" lon="35.1100380">
<ele>608.599976</ele>
<time>2025-10-17T16:36:54.431Z</time>
</trkpt>
<trkpt lat="31.7454310" lon="35.1100580">
<ele>608.599976</ele>
<time>2025-10-17T16:36:54.431Z</time>
</trkpt>
<trkpt lat="31.7453470" lon="35.1101020">
<ele>608.599976</ele>
<time>2025-10-17T16:36:54.431Z</time>
</trkpt>
<trkpt lat="31.7452430" lon="35.1101460">
<ele>608.400024</ele>
<time>2025-10-17T16:36:54.431Z</time>
</trkpt>
<trkpt lat="31.7451850" lon="35.1101870">
<ele>608.000000</ele>
<time>2025-10-17T16:36:54.431Z</time>
</trkpt>
<trkpt lat="31.7451470" lon="35.1102120">
<ele>607.600037</ele>
<time>2025-10-17T16:36:54.431Z</time>
</trkpt>
<trkpt lat="31.7451030" lon="35.1102320">
<ele>607.200012</ele>
<time>2025-10-17T16:36:54.431Z</time>
</trkpt>
<trkpt lat="31.7450690" lon="35.1102550">
<ele>606.799988</ele>
<time>2025-10-17T16:36:54.431Z</time>
</trkpt>
<trkpt lat="31.7450400" lon="35.1102880">
<ele>606.400024</ele>
<time>2025-10-17T16:36:54.431Z</time>
</trkpt>
<trkpt lat="31.7450150" lon="35.1103300">
<ele>606.400024</ele>
<time>2025-10-17T16:36:54.431Z</time>
</trkpt>
<trkpt lat="31.7449890" lon="35.1103660">
<ele>605.599976</ele>
<time>2025-10-17T16:36:54.431Z</time>
</trkpt>
<trkpt lat="31.7449570" lon="35.1103900">
<ele>605.400024</ele>
<time>2025-10-17T16:36:54.431Z</time>
</trkpt>
<trkpt lat="31.7448900" lon="35.1104260">
<ele>604.600037</ele>
<time>2025-10-17T16:36:54.431Z</time>
</trkpt>
<trkpt lat="31.7448710" lon="35.1104490">
<ele>604.200012</ele>
<time>2025-10-17T16:36:54.431Z</time>
</trkpt>
<trkpt lat="31.7448560" lon="35.1104800">
<ele>603.400024</ele>
<time>2025-10-17T16:36:54.431Z</time>
</trkpt>
<trkpt lat="31.7448500" lon="35.1105170">
<ele>603.000000</ele>
<time>2025-10-17T16:36:54.431Z</time>
</trkpt>
<trkpt lat="31.7448490" lon="35.1105530">
<ele>602.600037</ele>
<time>2025-10-17T16:36:54.431Z</time>
</trkpt>
<trkpt lat="31.7448470" lon="35.1105850">
<ele>602.399963</ele>
<time>2025-10-17T16:36:54.432Z</time>
</trkpt>
<trkpt lat="31.7448380" lon="35.1106150">
<ele>602.200012</ele>
<time>2025-10-17T16:36:54.432Z</time>
</trkpt>
<trkpt lat="31.7448260" lon="35.1106510">
<ele>602.200012</ele>
<time>2025-10-17T16:36:54.432Z</time>
</trkpt>
<trkpt lat="31.7448140" lon="35.1106940">
<ele>602.000000</ele>
<time>2025-10-17T16:36:54.432Z</time>
</trkpt>
<trkpt lat="31.7447840" lon="35.1107720">
<ele>601.799988</ele>
<time>2025-10-17T16:36:54.432Z</time>
</trkpt>
<trkpt lat="31.7447540" lon="35.1108590">
<ele>600.200012</ele>
<time>2025-10-17T16:36:54.432Z</time>
</trkpt>
<trkpt lat="31.7447480" lon="35.1109500">
<ele>599.200012</ele>
<time>2025-10-17T16:36:54.432Z</time>
</trkpt>
<trkpt lat="31.7447440" lon="35.1109940">
<ele>598.599976</ele>
<time>2025-10-17T16:36:54.432Z</time>
</trkpt>
<trkpt lat="31.7447310" lon="35.1110850">
<ele>598.200012</ele>
<time>2025-10-17T16:36:54.432Z</time>
</trkpt>
<trkpt lat="31.7447060" lon="35.1111640">
<ele>598.000000</ele>
<time>2025-10-17T16:36:54.432Z</time>
</trkpt>
<trkpt lat="31.7446900" lon="35.1112030">
<ele>598.000000</ele>
<time>2025-10-17T16:36:54.432Z</time>
</trkpt>
<trkpt lat="31.7446500" lon="35.1113270">
<ele>597.599976</ele>
<time>2025-10-17T16:36:54.432Z</time>
</trkpt>
<trkpt lat="31.7446380" lon="35.1113590">
<ele>597.400024</ele>
<time>2025-10-17T16:36:54.432Z</time>
</trkpt>
<trkpt lat="31.7446190" lon="35.1113920">
<ele>597.400024</ele>
<time>2025-10-17T16:36:54.432Z</time>
</trkpt>
<trkpt lat="31.7445820" lon="35.1114820">
<ele>597.000000</ele>
<time>2025-10-17T16:36:54.432Z</time>
</trkpt>
<trkpt lat="31.7445690" lon="35.1115860">
<ele>596.200012</ele>
<time>2025-10-17T16:36:54.432Z</time>
</trkpt>
<trkpt lat="31.7445650" lon="35.1116240">
<ele>595.400024</ele>
<time>2025-10-17T16:36:54.432Z</time>
</trkpt>
<trkpt lat="31.7445560" lon="35.1116490">
<ele>595.000000</ele>
<time>2025-10-17T16:36:54.432Z</time>
</trkpt>
<trkpt lat="31.7445450" lon="35.1116780">
<ele>594.599976</ele>
<time>2025-10-17T16:36:54.432Z</time>
</trkpt>
<trkpt lat="31.7445340" lon="35.1117150">
<ele>593.799988</ele>
<time>2025-10-17T16:36:54.432Z</time>
</trkpt>
<trkpt lat="31.7445190" lon="35.1117470">
<ele>593.600037</ele>
<time>2025-10-17T16:36:54.433Z</time>
</trkpt>
<trkpt lat="31.7444600" lon="35.1117790">
<ele>593.000000</ele>
<time>2025-10-17T16:36:54.433Z</time>
</trkpt>
<trkpt lat="31.7444230" lon="35.1117750">
<ele>592.400024</ele>
<time>2025-10-17T16:36:54.433Z</time>
</trkpt>
<trkpt lat="31.7443960" lon="35.1117550">
<ele>592.200012</ele>
<time>2025-10-17T16:36:54.433Z</time>
</trkpt>
<trkpt lat="31.7443790" lon="35.1117280">
<ele>591.799988</ele>
<time>2025-10-17T16:36:54.433Z</time>
</trkpt>
<trkpt lat="31.7443670" lon="35.1116890">
<ele>591.599976</ele>
<time>2025-10-17T16:36:54.433Z</time>
</trkpt>
<trkpt lat="31.7443460" lon="35.1116480">
<ele>591.200012</ele>
<time>2025-10-17T16:36:54.433Z</time>
</trkpt>
<trkpt lat="31.7442930" lon="35.1115830">
<ele>590.600037</ele>
<time>2025-10-17T16:36:54.433Z</time>
</trkpt>
<trkpt lat="31.7442720" lon="35.1115540">
<ele>589.799988</ele>
<time>2025-10-17T16:36:54.433Z</time>
</trkpt>
<trkpt lat="31.7442480" lon="35.1115200">
<ele>589.400024</ele>
<time>2025-10-17T16:36:54.433Z</time>
</trkpt>
<trkpt lat="31.7441870" lon="35.1114330">
<ele>588.600037</ele>
<time>2025-10-17T16:36:54.433Z</time>
</trkpt>
<trkpt lat="31.7441510" lon="35.1113930">
<ele>588.399963</ele>
<time>2025-10-17T16:36:54.433Z</time>
</trkpt>
<trkpt lat="31.7441150" lon="35.1113550">
<ele>588.200012</ele>
<time>2025-10-17T16:36:54.433Z</time>
</trkpt>
<trkpt lat="31.7440820" lon="35.1113200">
<ele>588.000000</ele>
<time>2025-10-17T16:36:54.433Z</time>
</trkpt>
<trkpt lat="31.7440550" lon="35.1112910">
<ele>587.799988</ele>
<time>2025-10-17T16:36:54.433Z</time>
</trkpt>
<trkpt lat="31.7440200" lon="35.1112500">
<ele>587.799988</ele>
<time>2025-10-17T16:36:54.433Z</time>
</trkpt>
<trkpt lat="31.7439790" lon="35.1111970">
<ele>587.599976</ele>
<time>2025-10-17T16:36:54.433Z</time>
</trkpt>
<trkpt lat="31.7439240" lon="35.1111200">
<ele>587.400024</ele>
<time>2025-10-17T16:36:54.433Z</time>
</trkpt>
<trkpt lat="31.7438260" lon="35.1109810">
<ele>587.599976</ele>
<time>2025-10-17T16:36:54.433Z</time>
</trkpt>
<trkpt lat="31.7437140" lon="35.1108450">
<ele>587.400024</ele>
<time>2025-10-17T16:36:54.433Z</time>
</trkpt>
<trkpt lat="31.7436700" lon="35.1107970">
<ele>587.000000</ele>
<time>2025-10-17T16:36:54.433Z</time>
</trkpt>
<trkpt lat="31.7434810" lon="35.1106240">
<ele>585.799988</ele>
<time>2025-10-17T16:36:54.433Z</time>
</trkpt>
<trkpt lat="31.7433610" lon="35.1105670">
<ele>585.399963</ele>
<time>2025-10-17T16:36:54.433Z</time>
</trkpt>
<trkpt lat="31.7433190" lon="35.1105550">
<ele>585.200012</ele>
<time>2025-10-17T16:36:54.433Z</time>
</trkpt>
<trkpt lat="31.7432700" lon="35.1105480">
<ele>584.799988</ele>
<time>2025-10-17T16:36:54.433Z</time>
</trkpt>
<trkpt lat="31.7432240" lon="35.1105470">
<ele>584.799988</ele>
<time>2025-10-17T16:36:54.433Z</time>
</trkpt>
<trkpt lat="31.7431850" lon="35.1105510">
<ele>584.799988</ele>
<time>2025-10-17T16:36:54.433Z</time>
</trkpt>
<trkpt lat="31.7431540" lon="35.1105590">
<ele>584.599976</ele>
<time>2025-10-17T16:36:54.433Z</time>
</trkpt>
<trkpt lat="31.7431250" lon="35.1105740">
<ele>584.599976</ele>
<time>2025-10-17T16:36:54.433Z</time>
</trkpt>
<trkpt lat="31.7431090" lon="35.1105850">
<ele>584.799988</ele>
<time>2025-10-17T16:36:54.433Z</time>
</trkpt>
<trkpt lat="31.7430880" lon="35.1105970">
<ele>584.799988</ele>
<time>2025-10-17T16:36:54.433Z</time>
</trkpt>
<trkpt lat="31.7430650" lon="35.1106110">
<ele>585.000000</ele>
<time>2025-10-17T16:36:54.434Z</time>
</trkpt>
<trkpt lat="31.7430390" lon="35.1106280">
<ele>585.000000</ele>
<time>2025-10-17T16:36:54.434Z</time>
</trkpt>
<trkpt lat="31.7429960" lon="35.1106680">
<ele>585.399963</ele>
<time>2025-10-17T16:36:54.434Z</time>
</trkpt>
<trkpt lat="31.7429810" lon="35.1106910">
<ele>585.600037</ele>
<time>2025-10-17T16:36:54.434Z</time>
</trkpt>
<trkpt lat="31.7429690" lon="35.1107090">
<ele>585.799988</ele>
<time>2025-10-17T16:36:54.434Z</time>
</trkpt>
<trkpt lat="31.7429540" lon="35.1107140">
<ele>586.000000</ele>
<time>2025-10-17T16:36:54.434Z</time>
</trkpt>
<trkpt lat="31.7429390" lon="35.1107070">
<ele>586.200012</ele>
<time>2025-10-17T16:36:54.434Z</time>
</trkpt>
<trkpt lat="31.7429290" lon="35.1106890">
<ele>586.200012</ele>
<time>2025-10-17T16:36:54.434Z</time>
</trkpt>
<trkpt lat="31.7429280" lon="35.1106650">
<ele>586.200012</ele>
<time>2025-10-17T16:36:54.434Z</time>
</trkpt>
<trkpt lat="31.7429420" lon="35.1105930">
<ele>586.200012</ele>
<time>2025-10-17T16:36:54.434Z</time>
</trkpt>
<trkpt lat="31.7429440" lon="35.1105470">
<ele>586.200012</ele>
<time>2025-10-17T16:36:54.434Z</time>
</trkpt>
<trkpt lat="31.7429410" lon="35.1105030">
<ele>585.799988</ele>
<time>2025-10-17T16:36:54.434Z</time>
</trkpt>
<trkpt lat="31.7429400" lon="35.1104610">
<ele>585.600037</ele>
<time>2025-10-17T16:36:54.434Z</time>
</trkpt>
<trkpt lat="31.7429490" lon="35.1104240">
<ele>585.200012</ele>
<time>2025-10-17T16:36:54.434Z</time>
</trkpt>
<trkpt lat="31.7429620" lon="35.1103930">
<ele>584.400024</ele>
<time>2025-10-17T16:36:54.434Z</time>
</trkpt>
<trkpt lat="31.7429750" lon="35.1103550">
<ele>583.799988</ele>
<time>2025-10-17T16:36:54.434Z</time>
</trkpt>
<trkpt lat="31.7429960" lon="35.1103160">
<ele>583.000000</ele>
<time>2025-10-17T16:36:54.434Z</time>
</trkpt>
<trkpt lat="31.7430190" lon="35.1102900">
<ele>582.399963</ele>
<time>2025-10-17T16:36:54.434Z</time>
</trkpt>
<trkpt lat="31.7430470" lon="35.1102690">
<ele>581.799988</ele>
<time>2025-10-17T16:36:54.434Z</time>
</trkpt>
<trkpt lat="31.7430750" lon="35.1102490">
<ele>581.400024</ele>
<time>2025-10-17T16:36:54.434Z</time>
</trkpt>
<trkpt lat="31.7430980" lon="35.1102360">
<ele>580.200012</ele>
<time>2025-10-17T16:36:54.434Z</time>
</trkpt>
<trkpt lat="31.7431090" lon="35.1102320">
<ele>579.600037</ele>
<time>2025-10-17T16:36:54.434Z</time>
</trkpt>
<trkpt lat="31.7431100" lon="35.1102310">
<ele>578.599976</ele>
<time>2025-10-17T16:36:54.434Z</time>
</trkpt>
<trkpt lat="31.7431120" lon="35.1102290">
<ele>578.000000</ele>
<time>2025-10-17T16:36:54.434Z</time>
</trkpt>
<trkpt lat="31.7431120" lon="35.1102290">
<ele>577.399963</ele>
<time>2025-10-17T16:36:54.434Z</time>
</trkpt>
<trkpt lat="31.7431210" lon="35.1101660">
<ele>575.400024</ele>
<time>2025-10-17T16:36:54.434Z</time>
</trkpt>
<trkpt lat="31.7431210" lon="35.1101390">
<ele>575.400024</ele>
<time>2025-10-17T16:36:54.434Z</time>
</trkpt>
<trkpt lat="31.7431170" lon="35.1101040">
<ele>575.200012</ele>
<time>2025-10-17T16:36:54.434Z</time>
</trkpt>
<trkpt lat="31.7431020" lon="35.1099650">
<ele>574.600037</ele>
<time>2025-10-17T16:36:54.434Z</time>
</trkpt>
<trkpt lat="31.7431030" lon="35.1099580">
<ele>574.200012</ele>
<time>2025-10-17T16:36:54.435Z</time>
</trkpt>
<trkpt lat="31.7431030" lon="35.1099580">
<ele>574.000000</ele>
<time>2025-10-17T16:36:54.435Z</time>
</trkpt>
<trkpt lat="31.7430890" lon="35.1098980">
<ele>570.400024</ele>
<time>2025-10-17T16:36:54.435Z</time>
</trkpt>
<trkpt lat="31.7430730" lon="35.1098520">
<ele>570.400024</ele>
<time>2025-10-17T16:36:54.435Z</time>
</trkpt>
<trkpt lat="31.7430590" lon="35.1098320">
<ele>570.400024</ele>
<time>2025-10-17T16:36:54.435Z</time>
</trkpt>
<trkpt lat="31.7430420" lon="35.1098150">
<ele>570.200012</ele>
<time>2025-10-17T16:36:54.435Z</time>
</trkpt>
<trkpt lat="31.7430230" lon="35.1098000">
<ele>570.000000</ele>
<time>2025-10-17T16:36:54.435Z</time>
</trkpt>
<trkpt lat="31.7430010" lon="35.1097860">
<ele>569.400024</ele>
<time>2025-10-17T16:36:54.435Z</time>
</trkpt>
<trkpt lat="31.7429770" lon="35.1097770">
<ele>569.200012</ele>
<time>2025-10-17T16:36:54.435Z</time>
</trkpt>
<trkpt lat="31.7429520" lon="35.1097710">
<ele>568.600037</ele>
<time>2025-10-17T16:36:54.435Z</time>
</trkpt>
<trkpt lat="31.7429230" lon="35.1097680">
<ele>568.200012</ele>
<time>2025-10-17T16:36:54.435Z</time>
</trkpt>
<trkpt lat="31.7428890" lon="35.1097610">
<ele>567.799988</ele>
<time>2025-10-17T16:36:54.435Z</time>
</trkpt>
<trkpt lat="31.7428560" lon="35.1097490">
<ele>567.599976</ele>
<time>2025-10-17T16:36:54.435Z</time>
</trkpt>
<trkpt lat="31.7428310" lon="35.1097340">
<ele>567.200012</ele>
<time>2025-10-17T16:36:54.435Z</time>
</trkpt>
<trkpt lat="31.7428170" lon="35.1097200">
<ele>567.000000</ele>
<time>2025-10-17T16:36:54.435Z</time>
</trkpt>
<trkpt lat="31.7428070" lon="35.1097100">
<ele>566.599976</ele>
<time>2025-10-17T16:36:54.435Z</time>
</trkpt>
<trkpt lat="31.7427990" lon="35.1097010">
<ele>566.400024</ele>
<time>2025-10-17T16:36:54.435Z</time>
</trkpt>
<trkpt lat="31.7427960" lon="35.1096990">
<ele>566.000000</ele>
<time>2025-10-17T16:36:54.435Z</time>
</trkpt>
<trkpt lat="31.7427960" lon="35.1096990">
<ele>565.799988</ele>
<time>2025-10-17T16:36:54.435Z</time>
</trkpt>
<trkpt lat="31.7427960" lon="35.1096990">
<ele>565.600037</ele>
<time>2025-10-17T16:36:54.435Z</time>
</trkpt>
<trkpt lat="31.7427900" lon="35.1096210">
<ele>563.799988</ele>
<time>2025-10-17T16:36:54.435Z</time>
</trkpt>
<trkpt lat="31.7427800" lon="35.1094930">
<ele>563.399963</ele>
<time>2025-10-17T16:36:54.435Z</time>
</trkpt>
<trkpt lat="31.7427840" lon="35.1094540">
<ele>562.599976</ele>
<time>2025-10-17T16:36:54.435Z</time>
</trkpt>
<trkpt lat="31.7427940" lon="35.1094200">
<ele>562.200012</ele>
<time>2025-10-17T16:36:54.435Z</time>
</trkpt>
<trkpt lat="31.7428000" lon="35.1093860">
<ele>561.799988</ele>
<time>2025-10-17T16:36:54.435Z</time>
</trkpt>
<trkpt lat="31.7428010" lon="35.1093560">
<ele>561.599976</ele>
<time>2025-10-17T16:36:54.435Z</time>
</trkpt>
<trkpt lat="31.7428020" lon="35.1093290">
<ele>561.200012</ele>
<time>2025-10-17T16:36:54.435Z</time>
</trkpt>
<trkpt lat="31.7428060" lon="35.1092970">
<ele>561.000000</ele>
<time>2025-10-17T16:36:54.436Z</time>
</trkpt>
<trkpt lat="31.7428160" lon="35.1092730">
<ele>560.600037</ele>
<time>2025-10-17T16:36:54.436Z</time>
</trkpt>
<trkpt lat="31.7428340" lon="35.1092650">
<ele>559.799988</ele>
<time>2025-10-17T16:36:54.436Z</time>
</trkpt>
<trkpt lat="31.7428570" lon="35.1092610">
<ele>559.599976</ele>
<time>2025-10-17T16:36:54.436Z</time>
</trkpt>
<trkpt lat="31.7428880" lon="35.1092560">
<ele>559.400024</ele>
<time>2025-10-17T16:36:54.436Z</time>
</trkpt>
<trkpt lat="31.7429260" lon="35.1092550">
<ele>559.000000</ele>
<time>2025-10-17T16:36:54.436Z</time>
</trkpt>
<trkpt lat="31.7429690" lon="35.1092570">
<ele>558.400024</ele>
<time>2025-10-17T16:36:54.436Z</time>
</trkpt>
<trkpt lat="31.7430130" lon="35.1092630">
<ele>558.000000</ele>
<time>2025-10-17T16:36:54.436Z</time>
</trkpt>
<trkpt lat="31.7431040" lon="35.1092680">
<ele>557.399963</ele>
<time>2025-10-17T16:36:54.436Z</time>
</trkpt>
<trkpt lat="31.7431520" lon="35.1092650">
<ele>557.200012</ele>
<time>2025-10-17T16:36:54.436Z</time>
</trkpt>
<trkpt lat="31.7432020" lon="35.1092640">
<ele>557.200012</ele>
<time>2025-10-17T16:36:54.436Z</time>
</trkpt>
<trkpt lat="31.7432500" lon="35.1092720">
<ele>556.599976</ele>
<time>2025-10-17T16:36:54.436Z</time>
</trkpt>
<trkpt lat="31.7432990" lon="35.1092880">
<ele>555.799988</ele>
<time>2025-10-17T16:36:54.436Z</time>
</trkpt>
<trkpt lat="31.7433850" lon="35.1093500">
<ele>555.000000</ele>
<time>2025-10-17T16:36:54.436Z</time>
</trkpt>
<trkpt lat="31.7434250" lon="35.1093860">
<ele>554.600037</ele>
<time>2025-10-17T16:36:54.436Z</time>
</trkpt>
<trkpt lat="31.7434640" lon="35.1094220">
<ele>554.399963</ele>
<time>2025-10-17T16:36:54.436Z</time>
</trkpt>
<trkpt lat="31.7435440" lon="35.1094940">
<ele>554.200012</ele>
<time>2025-10-17T16:36:54.436Z</time>
</trkpt>
<trkpt lat="31.7436130" lon="35.1095800">
<ele>553.599976</ele>
<time>2025-10-17T16:36:54.436Z</time>
</trkpt>
<trkpt lat="31.7436830" lon="35.1096620">
<ele>553.599976</ele>
<time>2025-10-17T16:36:54.436Z</time>
</trkpt>
<trkpt lat="31.7437220" lon="35.1096920">
<ele>553.599976</ele>
<time>2025-10-17T16:36:54.436Z</time>
</trkpt>
<trkpt lat="31.7437630" lon="35.1097140">
<ele>553.599976</ele>
<time>2025-10-17T16:36:54.436Z</time>
</trkpt>
<trkpt lat="31.7438060" lon="35.1097330">
<ele>553.400024</ele>
<time>2025-10-17T16:36:54.436Z</time>
</trkpt>
<trkpt lat="31.7438500" lon="35.1097380">
<ele>553.200012</ele>
<time>2025-10-17T16:36:54.436Z</time>
</trkpt>
<trkpt lat="31.7438870" lon="35.1097220">
<ele>553.200012</ele>
<time>2025-10-17T16:36:54.436Z</time>
</trkpt>
<trkpt lat="31.7439100" lon="35.1096970">
<ele>553.200012</ele>
<time>2025-10-17T16:36:54.436Z</time>
</trkpt>
<trkpt lat="31.7439240" lon="35.1096640">
<ele>553.200012</ele>
<time>2025-10-17T16:36:54.436Z</time>
</trkpt>
<trkpt lat="31.7439320" lon="35.1096210">
<ele>553.000000</ele>
<time>2025-10-17T16:36:54.436Z</time>
</trkpt>
<trkpt lat="31.7439330" lon="35.1095720">
<ele>553.000000</ele>
<time>2025-10-17T16:36:54.436Z</time>
</trkpt>
<trkpt lat="31.7439320" lon="35.1094680">
<ele>553.000000</ele>
<time>2025-10-17T16:36:54.437Z</time>
</trkpt>
<trkpt lat="31.7439310" lon="35.1093740">
<ele>553.000000</ele>
<time>2025-10-17T16:36:54.437Z</time>
</trkpt>
<trkpt lat="31.7439260" lon="35.1093280">
<ele>553.000000</ele>
<time>2025-10-17T16:36:54.437Z</time>
</trkpt>
<trkpt lat="31.7439150" lon="35.1092780">
<ele>553.000000</ele>
<time>2025-10-17T16:36:54.437Z</time>
</trkpt>
<trkpt lat="31.7439000" lon="35.1092270">
<ele>553.000000</ele>
<time>2025-10-17T16:36:54.437Z</time>
</trkpt>
<trkpt lat="31.7438870" lon="35.1091790">
<ele>553.000000</ele>
<time>2025-10-17T16:36:54.437Z</time>
</trkpt>
<trkpt lat="31.7438770" lon="35.1091290">
<ele>552.799988</ele>
<time>2025-10-17T16:36:54.437Z</time>
</trkpt>
<trkpt lat="31.7438790" lon="35.1090760">
<ele>552.799988</ele>
<time>2025-10-17T16:36:54.437Z</time>
</trkpt>
<trkpt lat="31.7438890" lon="35.1090260">
<ele>552.799988</ele>
<time>2025-10-17T16:36:54.437Z</time>
</trkpt>
<trkpt lat="31.7439030" lon="35.1089770">
<ele>552.399963</ele>
<time>2025-10-17T16:36:54.437Z</time>
</trkpt>
<trkpt lat="31.7439170" lon="35.1089310">
<ele>552.399963</ele>
<time>2025-10-17T16:36:54.437Z</time>
</trkpt>
<trkpt lat="31.7439300" lon="35.1088830">
<ele>552.200012</ele>
<time>2025-10-17T16:36:54.437Z</time>
</trkpt>
<trkpt lat="31.7439490" lon="35.1087960">
<ele>552.000000</ele>
<time>2025-10-17T16:36:54.437Z</time>
</trkpt>
<trkpt lat="31.7439620" lon="35.1087540">
<ele>552.000000</ele>
<time>2025-10-17T16:36:54.437Z</time>
</trkpt>
<trkpt lat="31.7439770" lon="35.1087180">
<ele>552.000000</ele>
<time>2025-10-17T16:36:54.437Z</time>
</trkpt>
<trkpt lat="31.7439880" lon="35.1086800">
<ele>552.200012</ele>
<time>2025-10-17T16:36:54.437Z</time>
</trkpt>
<trkpt lat="31.7439960" lon="35.1086400">
<ele>552.200012</ele>
<time>2025-10-17T16:36:54.437Z</time>
</trkpt>
<trkpt lat="31.7439970" lon="35.1086010">
<ele>552.399963</ele>
<time>2025-10-17T16:36:54.437Z</time>
</trkpt>
<trkpt lat="31.7439910" lon="35.1085600">
<ele>552.399963</ele>
<time>2025-10-17T16:36:54.437Z</time>
</trkpt>
<trkpt lat="31.7439790" lon="35.1085150">
<ele>552.399963</ele>
<time>2025-10-17T16:36:54.437Z</time>
</trkpt>
<trkpt lat="31.7439690" lon="35.1084660">
<ele>552.399963</ele>
<time>2025-10-17T16:36:54.437Z</time>
</trkpt>
<trkpt lat="31.7439310" lon="35.1082720">
<ele>551.799988</ele>
<time>2025-10-17T16:36:54.437Z</time>
</trkpt>
<trkpt lat="31.7439110" lon="35.1081500">
<ele>551.400024</ele>
<time>2025-10-17T16:36:54.437Z</time>
</trkpt>
<trkpt lat="31.7439150" lon="35.1080950">
<ele>551.000000</ele>
<time>2025-10-17T16:36:54.437Z</time>
</trkpt>
<trkpt lat="31.7439280" lon="35.1080450">
<ele>550.400024</ele>
<time>2025-10-17T16:36:54.437Z</time>
</trkpt>
<trkpt lat="31.7439410" lon="35.1079970">
<ele>550.200012</ele>
<time>2025-10-17T16:36:54.437Z</time>
</trkpt>
<trkpt lat="31.7439500" lon="35.1079490">
<ele>550.000000</ele>
<time>2025-10-17T16:36:54.437Z</time>
</trkpt>
<trkpt lat="31.7439550" lon="35.1079010">
<ele>549.799988</ele>
<time>2025-10-17T16:36:54.437Z</time>
</trkpt>
<trkpt lat="31.7439590" lon="35.1078540">
<ele>549.600037</ele>
<time>2025-10-17T16:36:54.438Z</time>
</trkpt>
<trkpt lat="31.7439690" lon="35.1078080">
<ele>549.399963</ele>
<time>2025-10-17T16:36:54.438Z</time>
</trkpt>
<trkpt lat="31.7439790" lon="35.1077690">
<ele>549.200012</ele>
<time>2025-10-17T16:36:54.438Z</time>
</trkpt>
<trkpt lat="31.7439840" lon="35.1077280">
<ele>549.000000</ele>
<time>2025-10-17T16:36:54.438Z</time>
</trkpt>
<trkpt lat="31.7439840" lon="35.1076940">
<ele>549.000000</ele>
<time>2025-10-17T16:36:54.438Z</time>
</trkpt>
<trkpt lat="31.7439690" lon="35.1076740">
<ele>548.599976</ele>
<time>2025-10-17T16:36:54.438Z</time>
</trkpt>
<trkpt lat="31.7439370" lon="35.1076650">
<ele>548.400024</ele>
<time>2025-10-17T16:36:54.438Z</time>
</trkpt>
<trkpt lat="31.7439010" lon="35.1076670">
<ele>548.400024</ele>
<time>2025-10-17T16:36:54.438Z</time>
</trkpt>
<trkpt lat="31.7438340" lon="35.1076540">
<ele>547.799988</ele>
<time>2025-10-17T16:36:54.438Z</time>
</trkpt>
<trkpt lat="31.7437990" lon="35.1076380">
<ele>547.400024</ele>
<time>2025-10-17T16:36:54.438Z</time>
</trkpt>
<trkpt lat="31.7437710" lon="35.1076130">
<ele>547.200012</ele>
<time>2025-10-17T16:36:54.438Z</time>
</trkpt>
<trkpt lat="31.7437550" lon="35.1075770">
<ele>546.799988</ele>
<time>2025-10-17T16:36:54.438Z</time>
</trkpt>
<trkpt lat="31.7437530" lon="35.1075360">
<ele>546.200012</ele>
<time>2025-10-17T16:36:54.438Z</time>
</trkpt>
<trkpt lat="31.7437530" lon="35.1074850">
<ele>545.200012</ele>
<time>2025-10-17T16:36:54.438Z</time>
</trkpt>
<trkpt lat="31.7437440" lon="35.1074380">
<ele>544.799988</ele>
<time>2025-10-17T16:36:54.438Z</time>
</trkpt>
<trkpt lat="31.7437250" lon="35.1074170">
<ele>543.799988</ele>
<time>2025-10-17T16:36:54.438Z</time>
</trkpt>
<trkpt lat="31.7436990" lon="35.1074290">
<ele>543.200012</ele>
<time>2025-10-17T16:36:54.438Z</time>
</trkpt>
<trkpt lat="31.7436680" lon="35.1074550">
<ele>542.799988</ele>
<time>2025-10-17T16:36:54.438Z</time>
</trkpt>
<trkpt lat="31.7436380" lon="35.1074840">
<ele>542.599976</ele>
<time>2025-10-17T16:36:54.438Z</time>
</trkpt>
<trkpt lat="31.7435930" lon="35.1075430">
<ele>541.799988</ele>
<time>2025-10-17T16:36:54.438Z</time>
</trkpt>
<trkpt lat="31.7435660" lon="35.1075510">
<ele>541.799988</ele>
<time>2025-10-17T16:36:54.438Z</time>
</trkpt>
<trkpt lat="31.7435330" lon="35.1075520">
<ele>541.400024</ele>
<time>2025-10-17T16:36:54.438Z</time>
</trkpt>
<trkpt lat="31.7434980" lon="35.1075470">
<ele>541.200012</ele>
<time>2025-10-17T16:36:54.438Z</time>
</trkpt>
<trkpt lat="31.7434650" lon="35.1075320">
<ele>541.000000</ele>
<time>2025-10-17T16:36:54.438Z</time>
</trkpt>
<trkpt lat="31.7434390" lon="35.1075120">
<ele>540.799988</ele>
<time>2025-10-17T16:36:54.438Z</time>
</trkpt>
<trkpt lat="31.7434230" lon="35.1074840">
<ele>540.000000</ele>
<time>2025-10-17T16:36:54.438Z</time>
</trkpt>
<trkpt lat="31.7434100" lon="35.1074530">
<ele>539.799988</ele>
<time>2025-10-17T16:36:54.438Z</time>
</trkpt>
<trkpt lat="31.7433890" lon="35.1074210">
<ele>539.599976</ele>
<time>2025-10-17T16:36:54.439Z</time>
</trkpt>
<trkpt lat="31.7433590" lon="35.1073970">
<ele>539.400024</ele>
<time>2025-10-17T16:36:54.439Z</time>
</trkpt>
<trkpt lat="31.7433220" lon="35.1073780">
<ele>538.600037</ele>
<time>2025-10-17T16:36:54.439Z</time>
</trkpt>
<trkpt lat="31.7432820" lon="35.1073730">
<ele>537.799988</ele>
<time>2025-10-17T16:36:54.439Z</time>
</trkpt>
<trkpt lat="31.7432490" lon="35.1073970">
<ele>537.400024</ele>
<time>2025-10-17T16:36:54.439Z</time>
</trkpt>
<trkpt lat="31.7431860" lon="35.1074600">
<ele>536.599976</ele>
<time>2025-10-17T16:36:54.439Z</time>
</trkpt>
<trkpt lat="31.7431530" lon="35.1074870">
<ele>536.200012</ele>
<time>2025-10-17T16:36:54.439Z</time>
</trkpt>
<trkpt lat="31.7431180" lon="35.1075090">
<ele>536.000000</ele>
<time>2025-10-17T16:36:54.439Z</time>
</trkpt>
<trkpt lat="31.7430780" lon="35.1075180">
<ele>535.600037</ele>
<time>2025-10-17T16:36:54.439Z</time>
</trkpt>
<trkpt lat="31.7430400" lon="35.1075050">
<ele>535.200012</ele>
<time>2025-10-17T16:36:54.439Z</time>
</trkpt>
<trkpt lat="31.7430210" lon="35.1074700">
<ele>534.599976</ele>
<time>2025-10-17T16:36:54.439Z</time>
</trkpt>
<trkpt lat="31.7430210" lon="35.1074190">
<ele>534.400024</ele>
<time>2025-10-17T16:36:54.439Z</time>
</trkpt>
<trkpt lat="31.7430510" lon="35.1073230">
<ele>533.400024</ele>
<time>2025-10-17T16:36:54.439Z</time>
</trkpt>
<trkpt lat="31.7431250" lon="35.1071330">
<ele>531.799988</ele>
<time>2025-10-17T16:36:54.439Z</time>
</trkpt>
<trkpt lat="31.7431260" lon="35.1070590">
<ele>531.200012</ele>
<time>2025-10-17T16:36:54.439Z</time>
</trkpt>
<trkpt lat="31.7431100" lon="35.1070310">
<ele>531.200012</ele>
<time>2025-10-17T16:36:54.439Z</time>
</trkpt>
<trkpt lat="31.7430820" lon="35.1070120">
<ele>530.799988</ele>
<time>2025-10-17T16:36:54.439Z</time>
</trkpt>
<trkpt lat="31.7430440" lon="35.1070000">
<ele>530.400024</ele>
<time>2025-10-17T16:36:54.439Z</time>
</trkpt>
<trkpt lat="31.7430080" lon="35.1070110">
<ele>530.200012</ele>
<time>2025-10-17T16:36:54.439Z</time>
</trkpt>
<trkpt lat="31.7429770" lon="35.1070420">
<ele>529.399963</ele>
<time>2025-10-17T16:36:54.439Z</time>
</trkpt>
<trkpt lat="31.7428880" lon="35.1071090">
<ele>528.200012</ele>
<time>2025-10-17T16:36:54.439Z</time>
</trkpt>
<trkpt lat="31.7428640" lon="35.1071100">
<ele>527.599976</ele>
<time>2025-10-17T16:36:54.439Z</time>
</trkpt>
<trkpt lat="31.7428370" lon="35.1071130">
<ele>527.599976</ele>
<time>2025-10-17T16:36:54.439Z</time>
</trkpt>
<trkpt lat="31.7428080" lon="35.1071280">
<ele>527.400024</ele>
<time>2025-10-17T16:36:54.439Z</time>
</trkpt>
<trkpt lat="31.7427810" lon="35.1071560">
<ele>527.000000</ele>
<time>2025-10-17T16:36:54.439Z</time>
</trkpt>
<trkpt lat="31.7427370" lon="35.1072480">
<ele>526.400024</ele>
<time>2025-10-17T16:36:54.439Z</time>
</trkpt>
<trkpt lat="31.7427250" lon="35.1073050">
<ele>526.000000</ele>
<time>2025-10-17T16:36:54.439Z</time>
</trkpt>
<trkpt lat="31.7427130" lon="35.1073560">
<ele>525.400024</ele>
<time>2025-10-17T16:36:54.439Z</time>
</trkpt>
<trkpt lat="31.7426960" lon="35.1073890">
<ele>525.200012</ele>
<time>2025-10-17T16:36:54.440Z</time>
</trkpt>
<trkpt lat="31.7426620" lon="35.1074230">
<ele>524.799988</ele>
<time>2025-10-17T16:36:54.440Z</time>
</trkpt>
<trkpt lat="31.7426300" lon="35.1074320">
<ele>524.600037</ele>
<time>2025-10-17T16:36:54.440Z</time>
</trkpt>
<trkpt lat="31.7425980" lon="35.1074260">
<ele>524.000000</ele>
<time>2025-10-17T16:36:54.440Z</time>
</trkpt>
<trkpt lat="31.7425690" lon="35.1074090">
<ele>523.400024</ele>
<time>2025-10-17T16:36:54.440Z</time>
</trkpt>
<trkpt lat="31.7425270" lon="35.1073790">
<ele>523.000000</ele>
<time>2025-10-17T16:36:54.440Z</time>
</trkpt>
<trkpt lat="31.7424930" lon="35.1073610">
<ele>522.799988</ele>
<time>2025-10-17T16:36:54.440Z</time>
</trkpt>
<trkpt lat="31.7424600" lon="35.1073580">
<ele>522.599976</ele>
<time>2025-10-17T16:36:54.440Z</time>
</trkpt>
<trkpt lat="31.7424340" lon="35.1073750">
<ele>522.200012</ele>
<time>2025-10-17T16:36:54.440Z</time>
</trkpt>
<trkpt lat="31.7424160" lon="35.1074040">
<ele>522.200012</ele>
<time>2025-10-17T16:36:54.440Z</time>
</trkpt>
<trkpt lat="31.7424030" lon="35.1074400">
<ele>520.799988</ele>
<time>2025-10-17T16:36:54.440Z</time>
</trkpt>
<trkpt lat="31.7423900" lon="35.1074750">
<ele>520.400024</ele>
<time>2025-10-17T16:36:54.440Z</time>
</trkpt>
<trkpt lat="31.7423800" lon="35.1075080">
<ele>519.799988</ele>
<time>2025-10-17T16:36:54.440Z</time>
</trkpt>
<trkpt lat="31.7423690" lon="35.1075430">
<ele>519.599976</ele>
<time>2025-10-17T16:36:54.440Z</time>
</trkpt>
<trkpt lat="31.7423520" lon="35.1075770">
<ele>519.000000</ele>
<time>2025-10-17T16:36:54.440Z</time>
</trkpt>
<trkpt lat="31.7423300" lon="35.1076070">
<ele>518.799988</ele>
<time>2025-10-17T16:36:54.440Z</time>
</trkpt>
<trkpt lat="31.7423060" lon="35.1076340">
<ele>518.200012</ele>
<time>2025-10-17T16:36:54.440Z</time>
</trkpt>
<trkpt lat="31.7422820" lon="35.1076510">
<ele>517.799988</ele>
<time>2025-10-17T16:36:54.440Z</time>
</trkpt>
<trkpt lat="31.7422600" lon="35.1076520">
<ele>517.599976</ele>
<time>2025-10-17T16:36:54.440Z</time>
</trkpt>
<trkpt lat="31.7422400" lon="35.1076330">
<ele>517.000000</ele>
<time>2025-10-17T16:36:54.440Z</time>
</trkpt>
<trkpt lat="31.7422290" lon="35.1075950">
<ele>516.799988</ele>
<time>2025-10-17T16:36:54.440Z</time>
</trkpt>
<trkpt lat="31.7422450" lon="35.1074820">
<ele>516.000000</ele>
<time>2025-10-17T16:36:54.440Z</time>
</trkpt>
<trkpt lat="31.7422350" lon="35.1074510">
<ele>515.799988</ele>
<time>2025-10-17T16:36:54.440Z</time>
</trkpt>
<trkpt lat="31.7421790" lon="35.1074270">
<ele>515.600037</ele>
<time>2025-10-17T16:36:54.440Z</time>
</trkpt>
<trkpt lat="31.7420870" lon="35.1074260">
<ele>515.200012</ele>
<time>2025-10-17T16:36:54.440Z</time>
</trkpt>
<trkpt lat="31.7420600" lon="35.1074410">
<ele>514.799988</ele>
<time>2025-10-17T16:36:54.441Z</time>
</trkpt>
<trkpt lat="31.7420300" lon="35.1074650">
<ele>514.799988</ele>
<time>2025-10-17T16:36:54.441Z</time>
</trkpt>
<trkpt lat="31.7420000" lon="35.1074810">
<ele>514.400024</ele>
<time>2025-10-17T16:36:54.441Z</time>
</trkpt>
<trkpt lat="31.7419620" lon="35.1074900">
<ele>514.000000</ele>
<time>2025-10-17T16:36:54.441Z</time>
</trkpt>
<trkpt lat="31.7419150" lon="35.1075090">
<ele>513.799988</ele>
<time>2025-10-17T16:36:54.441Z</time>
</trkpt>
<trkpt lat="31.7417600" lon="35.1075900">
<ele>512.599976</ele>
<time>2025-10-17T16:36:54.441Z</time>
</trkpt>
<trkpt lat="31.7417220" lon="35.1076120">
<ele>512.200012</ele>
<time>2025-10-17T16:36:54.441Z</time>
</trkpt>
<trkpt lat="31.7416920" lon="35.1076330">
<ele>511.399994</ele>
<time>2025-10-17T16:36:54.441Z</time>
</trkpt>
<trkpt lat="31.7416680" lon="35.1076510">
<ele>510.600006</ele>
<time>2025-10-17T16:36:54.441Z</time>
</trkpt>
<trkpt lat="31.7416410" lon="35.1076650">
<ele>509.400024</ele>
<time>2025-10-17T16:36:54.441Z</time>
</trkpt>
<trkpt lat="31.7416130" lon="35.1076750">
<ele>509.199982</ele>
<time>2025-10-17T16:36:54.441Z</time>
</trkpt>
<trkpt lat="31.7415840" lon="35.1076810">
<ele>508.800018</ele>
<time>2025-10-17T16:36:54.441Z</time>
</trkpt>
<trkpt lat="31.7415550" lon="35.1076850">
<ele>508.599976</ele>
<time>2025-10-17T16:36:54.441Z</time>
</trkpt>
<trkpt lat="31.7415270" lon="35.1076910">
<ele>508.399994</ele>
<time>2025-10-17T16:36:54.441Z</time>
</trkpt>
<trkpt lat="31.7415070" lon="35.1077020">
<ele>508.200012</ele>
<time>2025-10-17T16:36:54.441Z</time>
</trkpt>
<trkpt lat="31.7414910" lon="35.1077150">
<ele>508.000000</ele>
<time>2025-10-17T16:36:54.441Z</time>
</trkpt>
<trkpt lat="31.7414720" lon="35.1077290">
<ele>508.000000</ele>
<time>2025-10-17T16:36:54.441Z</time>
</trkpt>
<trkpt lat="31.7414480" lon="35.1077390">
<ele>508.000000</ele>
<time>2025-10-17T16:36:54.441Z</time>
</trkpt>
<trkpt lat="31.7414210" lon="35.1077500">
<ele>507.799988</ele>
<time>2025-10-17T16:36:54.441Z</time>
</trkpt>
<trkpt lat="31.7413710" lon="35.1077620">
<ele>507.600006</ele>
<time>2025-10-17T16:36:54.441Z</time>
</trkpt>
<trkpt lat="31.7413530" lon="35.1077620">
<ele>507.600006</ele>
<time>2025-10-17T16:36:54.441Z</time>
</trkpt>
<trkpt lat="31.7413440" lon="35.1077620">
<ele>506.799988</ele>
<time>2025-10-17T16:36:54.441Z</time>
</trkpt>
<trkpt lat="31.7413440" lon="35.1077620">
<ele>506.400024</ele>
<time>2025-10-17T16:36:54.441Z</time>
</trkpt>
<trkpt lat="31.7413440" lon="35.1077620">
<ele>505.800018</ele>
<time>2025-10-17T16:36:54.441Z</time>
</trkpt>
<trkpt lat="31.7413650" lon="35.1076790">
<ele>504.600006</ele>
<time>2025-10-17T16:36:54.441Z</time>
</trkpt>
<trkpt lat="31.7413760" lon="35.1076600">
<ele>504.399994</ele>
<time>2025-10-17T16:36:54.441Z</time>
</trkpt>
<trkpt lat="31.7414040" lon="35.1075920">
<ele>503.799988</ele>
<time>2025-10-17T16:36:54.441Z</time>
</trkpt>
<trkpt lat="31.7414030" lon="35.1075890">
<ele>503.799988</ele>
<time>2025-10-17T16:36:54.441Z</time>
</trkpt>
<trkpt lat="31.7414030" lon="35.1075860">
<ele>503.799988</ele>
<time>2025-10-17T16:36:54.442Z</time>
</trkpt>
<trkpt lat="31.7414030" lon="35.1075830">
<ele>503.600006</ele>
<time>2025-10-17T16:36:54.442Z</time>
</trkpt>
<trkpt lat="31.7414030" lon="35.1075820">
<ele>503.399994</ele>
<time>2025-10-17T16:36:54.442Z</time>
</trkpt>
<trkpt lat="31.7413920" lon="35.1075850">
<ele>503.399994</ele>
<time>2025-10-17T16:36:54.442Z</time>
</trkpt>
<trkpt lat="31.7413730" lon="35.1075860">
<ele>503.399994</ele>
<time>2025-10-17T16:36:54.442Z</time>
</trkpt>
<trkpt lat="31.7413730" lon="35.1075860">
<ele>503.199982</ele>
<time>2025-10-17T16:36:54.442Z</time>
</trkpt>
<trkpt lat="31.7413370" lon="35.1075880">
<ele>503.199982</ele>
<time>2025-10-17T16:36:54.442Z</time>
</trkpt>
<trkpt lat="31.7413130" lon="35.1075890">
<ele>503.199982</ele>
<time>2025-10-17T16:36:54.442Z</time>
</trkpt>
<trkpt lat="31.7412870" lon="35.1075880">
<ele>503.199982</ele>
<time>2025-10-17T16:36:54.442Z</time>
</trkpt>
<trkpt lat="31.7412640" lon="35.1075940">
<ele>503.000000</ele>
<time>2025-10-17T16:36:54.442Z</time>
</trkpt>
<trkpt lat="31.7412400" lon="35.1076070">
<ele>503.000000</ele>
<time>2025-10-17T16:36:54.442Z</time>
</trkpt>
<trkpt lat="31.7412280" lon="35.1076130">
<ele>502.800018</ele>
<time>2025-10-17T16:36:54.442Z</time>
</trkpt>
<trkpt lat="31.7412230" lon="35.1076180">
<ele>502.599976</ele>
<time>2025-10-17T16:36:54.442Z</time>
</trkpt>
<trkpt lat="31.7412230" lon="35.1076180">
<ele>502.399994</ele>
<time>2025-10-17T16:36:54.442Z</time>
</trkpt>
<trkpt lat="31.7411380" lon="35.1076990">
<ele>499.200012</ele>
<time>2025-10-17T16:36:54.442Z</time>
</trkpt>
<trkpt lat="31.7411300" lon="35.1077190">
<ele>499.000031</ele>
<time>2025-10-17T16:36:54.442Z</time>
</trkpt>
<trkpt lat="31.7411130" lon="35.1077340">
<ele>498.799988</ele>
<time>2025-10-17T16:36:54.442Z</time>
</trkpt>
<trkpt lat="31.7410900" lon="35.1077460">
<ele>498.799988</ele>
<time>2025-10-17T16:36:54.442Z</time>
</trkpt>
<trkpt lat="31.7410610" lon="35.1077530">
<ele>498.400024</ele>
<time>2025-10-17T16:36:54.442Z</time>
</trkpt>
<trkpt lat="31.7410370" lon="35.1077500">
<ele>498.199982</ele>
<time>2025-10-17T16:36:54.442Z</time>
</trkpt>
<trkpt lat="31.7410220" lon="35.1077330">
<ele>498.000000</ele>
<time>2025-10-17T16:36:54.442Z</time>
</trkpt>
<trkpt lat="31.7410140" lon="35.1077110">
<ele>497.200012</ele>
<time>2025-10-17T16:36:54.442Z</time>
</trkpt>
<trkpt lat="31.7410090" lon="35.1076840">
<ele>496.799988</ele>
<time>2025-10-17T16:36:54.442Z</time>
</trkpt>
<trkpt lat="31.7410050" lon="35.1076550">
<ele>496.200012</ele>
<time>2025-10-17T16:36:54.442Z</time>
</trkpt>
<trkpt lat="31.7409990" lon="35.1076210">
<ele>495.799988</ele>
<time>2025-10-17T16:36:54.442Z</time>
</trkpt>
<trkpt lat="31.7409940" lon="35.1075880">
<ele>495.400024</ele>
<time>2025-10-17T16:36:54.442Z</time>
</trkpt>
<trkpt lat="31.7409890" lon="35.1075540">
<ele>495.199982</ele>
<time>2025-10-17T16:36:54.442Z</time>
</trkpt>
<trkpt lat="31.7409840" lon="35.1074970">
<ele>494.399994</ele>
<time>2025-10-17T16:36:54.443Z</time>
</trkpt>
<trkpt lat="31.7409810" lon="35.1074760">
<ele>494.000000</ele>
<time>2025-10-17T16:36:54.443Z</time>
</trkpt>
<trkpt lat="31.7409810" lon="35.1074670">
<ele>493.600006</ele>
<time>2025-10-17T16:36:54.443Z</time>
</trkpt>
<trkpt lat="31.7409810" lon="35.1074670">
<ele>493.600006</ele>
<time>2025-10-17T16:36:54.443Z</time>
</trkpt>
<trkpt lat="31.7409810" lon="35.1074250">
<ele>493.000000</ele>
<time>2025-10-17T16:36:54.443Z</time>
</trkpt>
<trkpt lat="31.7409880" lon="35.1074050">
<ele>493.000000</ele>
<time>2025-10-17T16:36:54.443Z</time>
</trkpt>
<trkpt lat="31.7410200" lon="35.1073640">
<ele>493.200012</ele>
<time>2025-10-17T16:36:54.443Z</time>
</trkpt>
<trkpt lat="31.7410350" lon="35.1073460">
<ele>493.200012</ele>
<time>2025-10-17T16:36:54.443Z</time>
</trkpt>
<trkpt lat="31.7410500" lon="35.1073270">
<ele>493.200012</ele>
<time>2025-10-17T16:36:54.443Z</time>
</trkpt>
<trkpt lat="31.7410810" lon="35.1072740">
<ele>493.200012</ele>
<time>2025-10-17T16:36:54.443Z</time>
</trkpt>
<trkpt lat="31.7410970" lon="35.1072500">
<ele>493.200012</ele>
<time>2025-10-17T16:36:54.443Z</time>
</trkpt>
<trkpt lat="31.7411150" lon="35.1072260">
<ele>493.200012</ele>
<time>2025-10-17T16:36:54.443Z</time>
</trkpt>
<trkpt lat="31.7411330" lon="35.1072020">
<ele>493.200012</ele>
<time>2025-10-17T16:36:54.443Z</time>
</trkpt>
<trkpt lat="31.7411480" lon="35.1071840">
<ele>493.399994</ele>
<time>2025-10-17T16:36:54.443Z</time>
</trkpt>
<trkpt lat="31.7411600" lon="35.1071680">
<ele>493.399994</ele>
<time>2025-10-17T16:36:54.443Z</time>
</trkpt>
<trkpt lat="31.7411740" lon="35.1071520">
<ele>493.399994</ele>
<time>2025-10-17T16:36:54.443Z</time>
</trkpt>
<trkpt lat="31.7412190" lon="35.1070960">
<ele>493.399994</ele>
<time>2025-10-17T16:36:54.443Z</time>
</trkpt>
<trkpt lat="31.7412520" lon="35.1070480">
<ele>493.399994</ele>
<time>2025-10-17T16:36:54.443Z</time>
</trkpt>
<trkpt lat="31.7412680" lon="35.1070210">
<ele>493.200012</ele>
<time>2025-10-17T16:36:54.443Z</time>
</trkpt>
<trkpt lat="31.7412850" lon="35.1069950">
<ele>492.799988</ele>
<time>2025-10-17T16:36:54.443Z</time>
</trkpt>
<trkpt lat="31.7412990" lon="35.1069640">
<ele>492.600006</ele>
<time>2025-10-17T16:36:54.443Z</time>
</trkpt>
<trkpt lat="31.7413110" lon="35.1069300">
<ele>492.400024</ele>
<time>2025-10-17T16:36:54.443Z</time>
</trkpt>
<trkpt lat="31.7413240" lon="35.1068980">
<ele>492.400024</ele>
<time>2025-10-17T16:36:54.443Z</time>
</trkpt>
<trkpt lat="31.7413450" lon="35.1068710">
<ele>492.199982</ele>
<time>2025-10-17T16:36:54.443Z</time>
</trkpt>
<trkpt lat="31.7413680" lon="35.1068430">
<ele>492.400024</ele>
<time>2025-10-17T16:36:54.443Z</time>
</trkpt>
<trkpt lat="31.7414490" lon="35.1067480">
<ele>492.400024</ele>
<time>2025-10-17T16:36:54.443Z</time>
</trkpt>
<trkpt lat="31.7415260" lon="35.1066910">
<ele>491.399994</ele>
<time>2025-10-17T16:36:54.443Z</time>
</trkpt>
<trkpt lat="31.7415700" lon="35.1066690">
<ele>491.399994</ele>
<time>2025-10-17T16:36:54.443Z</time>
</trkpt>
<trkpt lat="31.7416160" lon="35.1066490">
<ele>491.200012</ele>
<time>2025-10-17T16:36:54.444Z</time>
</trkpt>
<trkpt lat="31.7416640" lon="35.1066330">
<ele>491.200012</ele>
<time>2025-10-17T16:36:54.444Z</time>
</trkpt>
<trkpt lat="31.7417130" lon="35.1066220">
<ele>490.999969</ele>
<time>2025-10-17T16:36:54.444Z</time>
</trkpt>
<trkpt lat="31.7418960" lon="35.1065590">
<ele>490.199982</ele>
<time>2025-10-17T16:36:54.444Z</time>
</trkpt>
<trkpt lat="31.7420350" lon="35.1065120">
<ele>490.000000</ele>
<time>2025-10-17T16:36:54.444Z</time>
</trkpt>
<trkpt lat="31.7421610" lon="35.1064560">
<ele>489.199982</ele>
<time>2025-10-17T16:36:54.444Z</time>
</trkpt>
<trkpt lat="31.7422010" lon="35.1064400">
<ele>488.800018</ele>
<time>2025-10-17T16:36:54.444Z</time>
</trkpt>
<trkpt lat="31.7422400" lon="35.1064240">
<ele>488.800018</ele>
<time>2025-10-17T16:36:54.444Z</time>
</trkpt>
<trkpt lat="31.7422880" lon="35.1064050">
<ele>488.600006</ele>
<time>2025-10-17T16:36:54.444Z</time>
</trkpt>
<trkpt lat="31.7423180" lon="35.1063930">
<ele>488.600006</ele>
<time>2025-10-17T16:36:54.444Z</time>
</trkpt>
<trkpt lat="31.7423500" lon="35.1063750">
<ele>488.600006</ele>
<time>2025-10-17T16:36:54.444Z</time>
</trkpt>
<trkpt lat="31.7423780" lon="35.1063540">
<ele>488.600006</ele>
<time>2025-10-17T16:36:54.444Z</time>
</trkpt>
<trkpt lat="31.7424030" lon="35.1063300">
<ele>488.800018</ele>
<time>2025-10-17T16:36:54.444Z</time>
</trkpt>
<trkpt lat="31.7424260" lon="35.1063040">
<ele>489.000000</ele>
<time>2025-10-17T16:36:54.444Z</time>
</trkpt>
<trkpt lat="31.7424470" lon="35.1062800">
<ele>489.000000</ele>
<time>2025-10-17T16:36:54.444Z</time>
</trkpt>
<trkpt lat="31.7424660" lon="35.1062510">
<ele>489.000000</ele>
<time>2025-10-17T16:36:54.444Z</time>
</trkpt>
<trkpt lat="31.7424820" lon="35.1062190">
<ele>489.000000</ele>
<time>2025-10-17T16:36:54.444Z</time>
</trkpt>
<trkpt lat="31.7425090" lon="35.1061510">
<ele>489.199982</ele>
<time>2025-10-17T16:36:54.444Z</time>
</trkpt>
<trkpt lat="31.7425210" lon="35.1061120">
<ele>489.399994</ele>
<time>2025-10-17T16:36:54.444Z</time>
</trkpt>
<trkpt lat="31.7425480" lon="35.1060260">
<ele>489.399994</ele>
<time>2025-10-17T16:36:54.444Z</time>
</trkpt>
<trkpt lat="31.7426290" lon="35.1057650">
<ele>489.399994</ele>
<time>2025-10-17T16:36:54.444Z</time>
</trkpt>
<trkpt lat="31.7426570" lon="35.1056810">
<ele>489.600006</ele>
<time>2025-10-17T16:36:54.444Z</time>
</trkpt>
<trkpt lat="31.7427190" lon="35.1054800">
<ele>489.199982</ele>
<time>2025-10-17T16:36:54.444Z</time>
</trkpt>
<trkpt lat="31.7427570" lon="35.1053690">
<ele>488.800018</ele>
<time>2025-10-17T16:36:54.444Z</time>
</trkpt>
<trkpt lat="31.7427690" lon="35.1053280">
<ele>488.800018</ele>
<time>2025-10-17T16:36:54.444Z</time>
</trkpt>
<trkpt lat="31.7427840" lon="35.1052760">
<ele>489.000000</ele>
<time>2025-10-17T16:36:54.445Z</time>
</trkpt>
<trkpt lat="31.7427970" lon="35.1052360">
<ele>489.000000</ele>
<time>2025-10-17T16:36:54.445Z</time>
</trkpt>
<trkpt lat="31.7428070" lon="35.1052060">
<ele>488.800018</ele>
<time>2025-10-17T16:36:54.445Z</time>
</trkpt>
<trkpt lat="31.7428210" lon="35.1051710">
<ele>488.600006</ele>
<time>2025-10-17T16:36:54.445Z</time>
</trkpt>
<trkpt lat="31.7428330" lon="35.1051360">
<ele>489.000000</ele>
<time>2025-10-17T16:36:54.445Z</time>
</trkpt>
<trkpt lat="31.7428470" lon="35.1050930">
<ele>489.000000</ele>
<time>2025-10-17T16:36:54.445Z</time>
</trkpt>
<trkpt lat="31.7428610" lon="35.1050570">
<ele>489.000000</ele>
<time>2025-10-17T16:36:54.445Z</time>
</trkpt>
<trkpt lat="31.7428700" lon="35.1050260">
<ele>489.000000</ele>
<time>2025-10-17T16:36:54.445Z</time>
</trkpt>
<trkpt lat="31.7429500" lon="35.1047910">
<ele>488.800018</ele>
<time>2025-10-17T16:36:54.445Z</time>
</trkpt>
<trkpt lat="31.7429650" lon="35.1046050">
<ele>488.200012</ele>
<time>2025-10-17T16:36:54.445Z</time>
</trkpt>
<trkpt lat="31.7429450" lon="35.1045540">
<ele>488.000031</ele>
<time>2025-10-17T16:36:54.445Z</time>
</trkpt>
<trkpt lat="31.7429110" lon="35.1045090">
<ele>488.000031</ele>
<time>2025-10-17T16:36:54.445Z</time>
</trkpt>
<trkpt lat="31.7428510" lon="35.1044120">
<ele>487.799988</ele>
<time>2025-10-17T16:36:54.445Z</time>
</trkpt>
<trkpt lat="31.7428280" lon="35.1043610">
<ele>487.799988</ele>
<time>2025-10-17T16:36:54.445Z</time>
</trkpt>
<trkpt lat="31.7428160" lon="35.1043020">
<ele>487.799988</ele>
<time>2025-10-17T16:36:54.445Z</time>
</trkpt>
<trkpt lat="31.7428090" lon="35.1042390">
<ele>487.400024</ele>
<time>2025-10-17T16:36:54.445Z</time>
</trkpt>
<trkpt lat="31.7427980" lon="35.1041800">
<ele>487.000000</ele>
<time>2025-10-17T16:36:54.445Z</time>
</trkpt>
<trkpt lat="31.7427850" lon="35.1041120">
<ele>486.800018</ele>
<time>2025-10-17T16:36:54.445Z</time>
</trkpt>
<trkpt lat="31.7427790" lon="35.1040660">
<ele>486.399994</ele>
<time>2025-10-17T16:36:54.445Z</time>
</trkpt>
<trkpt lat="31.7427660" lon="35.1038990">
<ele>485.800018</ele>
<time>2025-10-17T16:36:54.445Z</time>
</trkpt>
<trkpt lat="31.7427670" lon="35.1038430">
<ele>485.200012</ele>
<time>2025-10-17T16:36:54.445Z</time>
</trkpt>
<trkpt lat="31.7427700" lon="35.1037850">
<ele>485.000000</ele>
<time>2025-10-17T16:36:54.445Z</time>
</trkpt>
<trkpt lat="31.7427760" lon="35.1037270">
<ele>484.799988</ele>
<time>2025-10-17T16:36:54.445Z</time>
</trkpt>
<trkpt lat="31.7428270" lon="35.1035070">
<ele>485.200012</ele>
<time>2025-10-17T16:36:54.445Z</time>
</trkpt>
<trkpt lat="31.7428440" lon="35.1034600">
<ele>485.200012</ele>
<time>2025-10-17T16:36:54.445Z</time>
</trkpt>
<trkpt lat="31.7428590" lon="35.1034120">
<ele>485.200012</ele>
<time>2025-10-17T16:36:54.446Z</time>
</trkpt>
<trkpt lat="31.7428870" lon="35.1033120">
<ele>485.000000</ele>
<time>2025-10-17T16:36:54.446Z</time>
</trkpt>
<trkpt lat="31.7428990" lon="35.1032730">
<ele>485.000000</ele>
<time>2025-10-17T16:36:54.446Z</time>
</trkpt>
<trkpt lat="31.7429140" lon="35.1032260">
<ele>485.000000</ele>
<time>2025-10-17T16:36:54.446Z</time>
</trkpt>
<trkpt lat="31.7429270" lon="35.1031760">
<ele>485.000000</ele>
<time>2025-10-17T16:36:54.446Z</time>
</trkpt>
<trkpt lat="31.7429440" lon="35.1031180">
<ele>484.799988</ele>
<time>2025-10-17T16:36:54.446Z</time>
</trkpt>
<trkpt lat="31.7429700" lon="35.1030220">
<ele>484.199982</ele>
<time>2025-10-17T16:36:54.446Z</time>
</trkpt>
<trkpt lat="31.7430360" lon="35.1028170">
<ele>483.599976</ele>
<time>2025-10-17T16:36:54.446Z</time>
</trkpt>
<trkpt lat="31.7430780" lon="35.1027200">
<ele>483.800018</ele>
<time>2025-10-17T16:36:54.446Z</time>
</trkpt>
<trkpt lat="31.7431250" lon="35.1025690">
<ele>483.800018</ele>
<time>2025-10-17T16:36:54.446Z</time>
</trkpt>
<trkpt lat="31.7431340" lon="35.1025180">
<ele>483.800018</ele>
<time>2025-10-17T16:36:54.446Z</time>
</trkpt>
<trkpt lat="31.7431440" lon="35.1024670">
<ele>483.800018</ele>
<time>2025-10-17T16:36:54.446Z</time>
</trkpt>
<trkpt lat="31.7431510" lon="35.1024160">
<ele>483.800018</ele>
<time>2025-10-17T16:36:54.446Z</time>
</trkpt>
<trkpt lat="31.7431540" lon="35.1023630">
<ele>483.800018</ele>
<time>2025-10-17T16:36:54.446Z</time>
</trkpt>
<trkpt lat="31.7431670" lon="35.1020400">
<ele>483.200012</ele>
<time>2025-10-17T16:36:54.446Z</time>
</trkpt>
<trkpt lat="31.7431630" lon="35.1019760">
<ele>483.000000</ele>
<time>2025-10-17T16:36:54.446Z</time>
</trkpt>
<trkpt lat="31.7431580" lon="35.1019080">
<ele>482.799988</ele>
<time>2025-10-17T16:36:54.446Z</time>
</trkpt>
<trkpt lat="31.7431500" lon="35.1016040">
<ele>482.399994</ele>
<time>2025-10-17T16:36:54.446Z</time>
</trkpt>
<trkpt lat="31.7431520" lon="35.1015460">
<ele>482.200012</ele>
<time>2025-10-17T16:36:54.446Z</time>
</trkpt>
<trkpt lat="31.7431500" lon="35.1014870">
<ele>482.000000</ele>
<time>2025-10-17T16:36:54.446Z</time>
</trkpt>
<trkpt lat="31.7431500" lon="35.1013700">
<ele>482.399994</ele>
<time>2025-10-17T16:36:54.446Z</time>
</trkpt>
<trkpt lat="31.7431500" lon="35.1013100">
<ele>482.000000</ele>
<time>2025-10-17T16:36:54.446Z</time>
</trkpt>
<trkpt lat="31.7431650" lon="35.1010750">
<ele>482.000000</ele>
<time>2025-10-17T16:36:54.446Z</time>
</trkpt>
<trkpt lat="31.7431720" lon="35.1009760">
<ele>482.000000</ele>
<time>2025-10-17T16:36:54.446Z</time>
</trkpt>
<trkpt lat="31.7431800" lon="35.1008690">
<ele>481.799988</ele>
<time>2025-10-17T16:36:54.447Z</time>
</trkpt>
<trkpt lat="31.7431880" lon="35.1008200">
<ele>482.200012</ele>
<time>2025-10-17T16:36:54.447Z</time>
</trkpt>
<trkpt lat="31.7431900" lon="35.1007670">
<ele>482.200012</ele>
<time>2025-10-17T16:36:54.447Z</time>
</trkpt>
<trkpt lat="31.7431890" lon="35.1007120">
<ele>482.200012</ele>
<time>2025-10-17T16:36:54.447Z</time>
</trkpt>
<trkpt lat="31.7431870" lon="35.1006560">
<ele>482.200012</ele>
<time>2025-10-17T16:36:54.447Z</time>
</trkpt>
<trkpt lat="31.7431640" lon="35.1004870">
<ele>482.000000</ele>
<time>2025-10-17T16:36:54.447Z</time>
</trkpt>
<trkpt lat="31.7431250" lon="35.1003050">
<ele>482.200012</ele>
<time>2025-10-17T16:36:54.447Z</time>
</trkpt>
<trkpt lat="31.7430550" lon="35.1000310">
<ele>481.400024</ele>
<time>2025-10-17T16:36:54.447Z</time>
</trkpt>
<trkpt lat="31.7430360" lon="35.0999810">
<ele>481.199982</ele>
<time>2025-10-17T16:36:54.447Z</time>
</trkpt>
<trkpt lat="31.7429640" lon="35.0998290">
<ele>480.599976</ele>
<time>2025-10-17T16:36:54.447Z</time>
</trkpt>
<trkpt lat="31.7428120" lon="35.0995570">
<ele>480.200012</ele>
<time>2025-10-17T16:36:54.447Z</time>
</trkpt>
<trkpt lat="31.7427510" lon="35.0994570">
<ele>479.600006</ele>
<time>2025-10-17T16:36:54.447Z</time>
</trkpt>
<trkpt lat="31.7427240" lon="35.0994090">
<ele>479.600006</ele>
<time>2025-10-17T16:36:54.447Z</time>
</trkpt>
<trkpt lat="31.7426630" lon="35.0993150">
<ele>479.199982</ele>
<time>2025-10-17T16:36:54.447Z</time>
</trkpt>
<trkpt lat="31.7425400" lon="35.0991130">
<ele>479.600006</ele>
<time>2025-10-17T16:36:54.447Z</time>
</trkpt>
<trkpt lat="31.7425060" lon="35.0990540">
<ele>479.600006</ele>
<time>2025-10-17T16:36:54.447Z</time>
</trkpt>
<trkpt lat="31.7424830" lon="35.0990120">
<ele>479.399994</ele>
<time>2025-10-17T16:36:54.447Z</time>
</trkpt>
<trkpt lat="31.7424560" lon="35.0989610">
<ele>479.600006</ele>
<time>2025-10-17T16:36:54.447Z</time>
</trkpt>
<trkpt lat="31.7424240" lon="35.0988980">
<ele>479.600006</ele>
<time>2025-10-17T16:36:54.447Z</time>
</trkpt>
<trkpt lat="31.7423360" lon="35.0987480">
<ele>479.600006</ele>
<time>2025-10-17T16:36:54.447Z</time>
</trkpt>
<trkpt lat="31.7422970" lon="35.0987010">
<ele>479.399994</ele>
<time>2025-10-17T16:36:54.447Z</time>
</trkpt>
<trkpt lat="31.7420630" lon="35.0984240">
<ele>478.600006</ele>
<time>2025-10-17T16:36:54.447Z</time>
</trkpt>
<trkpt lat="31.7420280" lon="35.0983710">
<ele>478.399994</ele>
<time>2025-10-17T16:36:54.447Z</time>
</trkpt>
<trkpt lat="31.7419890" lon="35.0983170">
<ele>478.199982</ele>
<time>2025-10-17T16:36:54.447Z</time>
</trkpt>
<trkpt lat="31.7418850" lon="35.0981600">
<ele>477.599976</ele>
<time>2025-10-17T16:36:54.447Z</time>
</trkpt>
<trkpt lat="31.7418190" lon="35.0980430">
<ele>477.399994</ele>
<time>2025-10-17T16:36:54.447Z</time>
</trkpt>
<trkpt lat="31.7416900" lon="35.0977920">
<ele>477.399994</ele>
<time>2025-10-17T16:36:54.448Z</time>
</trkpt>
<trkpt lat="31.7416170" lon="35.0976060">
<ele>477.200012</ele>
<time>2025-10-17T16:36:54.448Z</time>
</trkpt>
<trkpt lat="31.7415460" lon="35.0973790">
<ele>477.200012</ele>
<time>2025-10-17T16:36:54.448Z</time>
</trkpt>
<trkpt lat="31.7415250" lon="35.0973080">
<ele>476.999969</ele>
<time>2025-10-17T16:36:54.448Z</time>
</trkpt>
<trkpt lat="31.7414710" lon="35.0971020">
<ele>476.600006</ele>
<time>2025-10-17T16:36:54.448Z</time>
</trkpt>
<trkpt lat="31.7414150" lon="35.0967600">
<ele>476.000000</ele>
<time>2025-10-17T16:36:54.448Z</time>
</trkpt>
<trkpt lat="31.7414130" lon="35.0966960">
<ele>476.000000</ele>
<time>2025-10-17T16:36:54.448Z</time>
</trkpt>
<trkpt lat="31.7414000" lon="35.0965590">
<ele>476.000000</ele>
<time>2025-10-17T16:36:54.448Z</time>
</trkpt>
<trkpt lat="31.7413890" lon="35.0964860">
<ele>476.399994</ele>
<time>2025-10-17T16:36:54.448Z</time>
</trkpt>
<trkpt lat="31.7413430" lon="35.0962810">
<ele>476.600006</ele>
<time>2025-10-17T16:36:54.448Z</time>
</trkpt>
<trkpt lat="31.7413320" lon="35.0962140">
<ele>476.600006</ele>
<time>2025-10-17T16:36:54.448Z</time>
</trkpt>
<trkpt lat="31.7413280" lon="35.0960770">
<ele>476.600006</ele>
<time>2025-10-17T16:36:54.448Z</time>
</trkpt>
<trkpt lat="31.7413340" lon="35.0960090">
<ele>476.199982</ele>
<time>2025-10-17T16:36:54.448Z</time>
</trkpt>
<trkpt lat="31.7413430" lon="35.0959420">
<ele>476.399994</ele>
<time>2025-10-17T16:36:54.448Z</time>
</trkpt>
<trkpt lat="31.7413610" lon="35.0958780">
<ele>476.000000</ele>
<time>2025-10-17T16:36:54.448Z</time>
</trkpt>
<trkpt lat="31.7413840" lon="35.0958160">
<ele>476.000000</ele>
<time>2025-10-17T16:36:54.448Z</time>
</trkpt>
<trkpt lat="31.7414130" lon="35.0957570">
<ele>475.800018</ele>
<time>2025-10-17T16:36:54.448Z</time>
</trkpt>
<trkpt lat="31.7414750" lon="35.0956330">
<ele>475.000000</ele>
<time>2025-10-17T16:36:54.448Z</time>
</trkpt>
<trkpt lat="31.7415010" lon="35.0955710">
<ele>474.800018</ele>
<time>2025-10-17T16:36:54.448Z</time>
</trkpt>
<trkpt lat="31.7415680" lon="35.0954450">
<ele>473.799988</ele>
<time>2025-10-17T16:36:54.448Z</time>
</trkpt>
<trkpt lat="31.7416070" lon="35.0953870">
<ele>473.600006</ele>
<time>2025-10-17T16:36:54.448Z</time>
</trkpt>
<trkpt lat="31.7417580" lon="35.0951750">
<ele>473.600006</ele>
<time>2025-10-17T16:36:54.448Z</time>
</trkpt>
<trkpt lat="31.7418070" lon="35.0951210">
<ele>473.199982</ele>
<time>2025-10-17T16:36:54.448Z</time>
</trkpt>
<trkpt lat="31.7419990" lon="35.0949490">
<ele>472.000000</ele>
<time>2025-10-17T16:36:54.448Z</time>
</trkpt>
<trkpt lat="31.7420530" lon="35.0949230">
<ele>471.799988</ele>
<time>2025-10-17T16:36:54.448Z</time>
</trkpt>
<trkpt lat="31.7421110" lon="35.0949050">
<ele>471.600006</ele>
<time>2025-10-17T16:36:54.449Z</time>
</trkpt>
<trkpt lat="31.7422330" lon="35.0948930">
<ele>471.399994</ele>
<time>2025-10-17T16:36:54.449Z</time>
</trkpt>
<trkpt lat="31.7422960" lon="35.0948980">
<ele>471.200012</ele>
<time>2025-10-17T16:36:54.449Z</time>
</trkpt>
<trkpt lat="31.7423560" lon="35.0949090">
<ele>471.000000</ele>
<time>2025-10-17T16:36:54.449Z</time>
</trkpt>
<trkpt lat="31.7424680" lon="35.0949330">
<ele>471.000000</ele>
<time>2025-10-17T16:36:54.449Z</time>
</trkpt>
<trkpt lat="31.7425260" lon="35.0949470">
<ele>471.000000</ele>
<time>2025-10-17T16:36:54.449Z</time>
</trkpt>
<trkpt lat="31.7425820" lon="35.0949620">
<ele>471.200012</ele>
<time>2025-10-17T16:36:54.449Z</time>
</trkpt>
<trkpt lat="31.7426370" lon="35.0949790">
<ele>471.200012</ele>
<time>2025-10-17T16:36:54.449Z</time>
</trkpt>
<trkpt lat="31.7426920" lon="35.0950000">
<ele>471.200012</ele>
<time>2025-10-17T16:36:54.449Z</time>
</trkpt>
<trkpt lat="31.7427490" lon="35.0950210">
<ele>471.000000</ele>
<time>2025-10-17T16:36:54.449Z</time>
</trkpt>
<trkpt lat="31.7428040" lon="35.0950420">
<ele>471.000000</ele>
<time>2025-10-17T16:36:54.449Z</time>
</trkpt>
<trkpt lat="31.7429610" lon="35.0951080">
<ele>471.200012</ele>
<time>2025-10-17T16:36:54.449Z</time>
</trkpt>
<trkpt lat="31.7430120" lon="35.0951260">
<ele>471.399994</ele>
<time>2025-10-17T16:36:54.449Z</time>
</trkpt>
<trkpt lat="31.7430620" lon="35.0951370">
<ele>471.399994</ele>
<time>2025-10-17T16:36:54.449Z</time>
</trkpt>
<trkpt lat="31.7431120" lon="35.0951440">
<ele>471.399994</ele>
<time>2025-10-17T16:36:54.449Z</time>
</trkpt>
<trkpt lat="31.7431570" lon="35.0951470">
<ele>471.399994</ele>
<time>2025-10-17T16:36:54.449Z</time>
</trkpt>
<trkpt lat="31.7431970" lon="35.0951460">
<ele>471.399994</ele>
<time>2025-10-17T16:36:54.449Z</time>
</trkpt>
<trkpt lat="31.7432330" lon="35.0951420">
<ele>471.600006</ele>
<time>2025-10-17T16:36:54.449Z</time>
</trkpt>
<trkpt lat="31.7432670" lon="35.0951360">
<ele>471.799988</ele>
<time>2025-10-17T16:36:54.449Z</time>
</trkpt>
<trkpt lat="31.7432990" lon="35.0951310">
<ele>472.000000</ele>
<time>2025-10-17T16:36:54.449Z</time>
</trkpt>
<trkpt lat="31.7433300" lon="35.0951280">
<ele>472.000000</ele>
<time>2025-10-17T16:36:54.449Z</time>
</trkpt>
<trkpt lat="31.7433610" lon="35.0951210">
<ele>473.000000</ele>
<time>2025-10-17T16:36:54.449Z</time>
</trkpt>
<trkpt lat="31.7433890" lon="35.0951110">
<ele>473.400024</ele>
<time>2025-10-17T16:36:54.449Z</time>
</trkpt>
<trkpt lat="31.7434170" lon="35.0951030">
<ele>474.000031</ele>
<time>2025-10-17T16:36:54.449Z</time>
</trkpt>
<trkpt lat="31.7434630" lon="35.0950930">
<ele>474.200012</ele>
<time>2025-10-17T16:36:54.449Z</time>
</trkpt>
<trkpt lat="31.7434850" lon="35.0950880">
<ele>474.399994</ele>
<time>2025-10-17T16:36:54.449Z</time>
</trkpt>
<trkpt lat="31.7435100" lon="35.0950780">
<ele>474.399994</ele>
<time>2025-10-17T16:36:54.450Z</time>
</trkpt>
<trkpt lat="31.7435430" lon="35.0950640">
<ele>474.600006</ele>
<time>2025-10-17T16:36:54.450Z</time>
</trkpt>
<trkpt lat="31.7436090" lon="35.0950180">
<ele>474.800018</ele>
<time>2025-10-17T16:36:54.450Z</time>
</trkpt>
<trkpt lat="31.7436360" lon="35.0949930">
<ele>474.800018</ele>
<time>2025-10-17T16:36:54.450Z</time>
</trkpt>
<trkpt lat="31.7436590" lon="35.0949710">
<ele>474.800018</ele>
<time>2025-10-17T16:36:54.450Z</time>
</trkpt>
<trkpt lat="31.7436800" lon="35.0949510">
<ele>474.800018</ele>
<time>2025-10-17T16:36:54.450Z</time>
</trkpt>
<trkpt lat="31.7437030" lon="35.0949340">
<ele>474.800018</ele>
<time>2025-10-17T16:36:54.450Z</time>
</trkpt>
<trkpt lat="31.7437260" lon="35.0949210">
<ele>474.800018</ele>
<time>2025-10-17T16:36:54.450Z</time>
</trkpt>
<trkpt lat="31.7437540" lon="35.0949100">
<ele>474.800018</ele>
<time>2025-10-17T16:36:54.450Z</time>
</trkpt>
<trkpt lat="31.7437790" lon="35.0948950">
<ele>475.200012</ele>
<time>2025-10-17T16:36:54.450Z</time>
</trkpt>
<trkpt lat="31.7438010" lon="35.0948760">
<ele>475.399994</ele>
<time>2025-10-17T16:36:54.450Z</time>
</trkpt>
<trkpt lat="31.7438210" lon="35.0948560">
<ele>475.800018</ele>
<time>2025-10-17T16:36:54.450Z</time>
</trkpt>
<trkpt lat="31.7438420" lon="35.0948330">
<ele>475.800018</ele>
<time>2025-10-17T16:36:54.450Z</time>
</trkpt>
<trkpt lat="31.7438650" lon="35.0948080">
<ele>476.000000</ele>
<time>2025-10-17T16:36:54.450Z</time>
</trkpt>
<trkpt lat="31.7438890" lon="35.0947840">
<ele>476.000000</ele>
<time>2025-10-17T16:36:54.450Z</time>
</trkpt>
<trkpt lat="31.7439130" lon="35.0947610">
<ele>476.199982</ele>
<time>2025-10-17T16:36:54.450Z</time>
</trkpt>
<trkpt lat="31.7439340" lon="35.0947290">
<ele>476.199982</ele>
<time>2025-10-17T16:36:54.450Z</time>
</trkpt>
<trkpt lat="31.7439550" lon="35.0946890">
<ele>476.199982</ele>
<time>2025-10-17T16:36:54.450Z</time>
</trkpt>
<trkpt lat="31.7439810" lon="35.0946400">
<ele>476.199982</ele>
<time>2025-10-17T16:36:54.450Z</time>
</trkpt>
<trkpt lat="31.7440100" lon="35.0945810">
<ele>476.199982</ele>
<time>2025-10-17T16:36:54.451Z</time>
</trkpt>
<trkpt lat="31.7440440" lon="35.0945150">
<ele>475.800018</ele>
<time>2025-10-17T16:36:54.451Z</time>
</trkpt>
<trkpt lat="31.7440900" lon="35.0944480">
<ele>475.800018</ele>
<time>2025-10-17T16:36:54.451Z</time>
</trkpt>
<trkpt lat="31.7441430" lon="35.0943900">
<ele>475.600006</ele>
<time>2025-10-17T16:36:54.451Z</time>
</trkpt>
<trkpt lat="31.7442010" lon="35.0943380">
<ele>475.399994</ele>
<time>2025-10-17T16:36:54.451Z</time>
</trkpt>
<trkpt lat="31.7442780" lon="35.0942970">
<ele>475.000000</ele>
<time>2025-10-17T16:36:54.451Z</time>
</trkpt>
<trkpt lat="31.7443330" lon="35.0942830">
<ele>474.600006</ele>
<time>2025-10-17T16:36:54.451Z</time>
</trkpt>
<trkpt lat="31.7443980" lon="35.0942630">
<ele>473.600006</ele>
<time>2025-10-17T16:36:54.451Z</time>
</trkpt>
<trkpt lat="31.7444570" lon="35.0942400">
<ele>473.000000</ele>
<time>2025-10-17T16:36:54.451Z</time>
</trkpt>
<trkpt lat="31.7445150" lon="35.0942150">
<ele>472.800018</ele>
<time>2025-10-17T16:36:54.451Z</time>
</trkpt>
<trkpt lat="31.7445710" lon="35.0941870">
<ele>471.799988</ele>
<time>2025-10-17T16:36:54.451Z</time>
</trkpt>
<trkpt lat="31.7446280" lon="35.0941580">
<ele>471.600006</ele>
<time>2025-10-17T16:36:54.451Z</time>
</trkpt>
<trkpt lat="31.7446870" lon="35.0941360">
<ele>471.200012</ele>
<time>2025-10-17T16:36:54.451Z</time>
</trkpt>
<trkpt lat="31.7447430" lon="35.0941140">
<ele>471.000000</ele>
<time>2025-10-17T16:36:54.451Z</time>
</trkpt>
<trkpt lat="31.7448000" lon="35.0940900">
<ele>470.199982</ele>
<time>2025-10-17T16:36:54.451Z</time>
</trkpt>
<trkpt lat="31.7449550" lon="35.0940250">
<ele>469.599976</ele>
<time>2025-10-17T16:36:54.451Z</time>
</trkpt>
<trkpt lat="31.7449950" lon="35.0940090">
<ele>469.399994</ele>
<time>2025-10-17T16:36:54.451Z</time>
</trkpt>
<trkpt lat="31.7450330" lon="35.0939960">
<ele>469.399994</ele>
<time>2025-10-17T16:36:54.451Z</time>
</trkpt>
<trkpt lat="31.7450710" lon="35.0939840">
<ele>469.399994</ele>
<time>2025-10-17T16:36:54.452Z</time>
</trkpt>
<trkpt lat="31.7451050" lon="35.0939680">
<ele>469.000000</ele>
<time>2025-10-17T16:36:54.452Z</time>
</trkpt>
<trkpt lat="31.7451360" lon="35.0939530">
<ele>469.000000</ele>
<time>2025-10-17T16:36:54.452Z</time>
</trkpt>
<trkpt lat="31.7451730" lon="35.0939390">
<ele>469.200012</ele>
<time>2025-10-17T16:36:54.452Z</time>
</trkpt>
<trkpt lat="31.7452560" lon="35.0939360">
<ele>469.800018</ele>
<time>2025-10-17T16:36:54.452Z</time>
</trkpt>
<trkpt lat="31.7453030" lon="35.0939330">
<ele>469.800018</ele>
<time>2025-10-17T16:36:54.452Z</time>
</trkpt>
<trkpt lat="31.7453480" lon="35.0939350">
<ele>470.000000</ele>
<time>2025-10-17T16:36:54.452Z</time>
</trkpt>
<trkpt lat="31.7453920" lon="35.0939420">
<ele>470.000000</ele>
<time>2025-10-17T16:36:54.452Z</time>
</trkpt>
<trkpt lat="31.7454370" lon="35.0939460">
<ele>470.000000</ele>
<time>2025-10-17T16:36:54.452Z</time>
</trkpt>
<trkpt lat="31.7455150" lon="35.0939590">
<ele>470.000000</ele>
<time>2025-10-17T16:36:54.452Z</time>
</trkpt>
<trkpt lat="31.7455490" lon="35.0939640">
<ele>469.800018</ele>
<time>2025-10-17T16:36:54.452Z</time>
</trkpt>
<trkpt lat="31.7455810" lon="35.0939650">
<ele>469.800018</ele>
<time>2025-10-17T16:36:54.452Z</time>
</trkpt>
<trkpt lat="31.7456140" lon="35.0939650">
<ele>469.800018</ele>
<time>2025-10-17T16:36:54.452Z</time>
</trkpt>
<trkpt lat="31.7456440" lon="35.0939590">
<ele>470.000000</ele>
<time>2025-10-17T16:36:54.452Z</time>
</trkpt>
<trkpt lat="31.7456760" lon="35.0939500">
<ele>470.000000</ele>
<time>2025-10-17T16:36:54.452Z</time>
</trkpt>
<trkpt lat="31.7457470" lon="35.0939210">
<ele>470.000000</ele>
<time>2025-10-17T16:36:54.452Z</time>
</trkpt>
<trkpt lat="31.7457880" lon="35.0939040">
<ele>469.800018</ele>
<time>2025-10-17T16:36:54.452Z</time>
</trkpt>
<trkpt lat="31.7458310" lon="35.0938810">
<ele>469.800018</ele>
<time>2025-10-17T16:36:54.452Z</time>
</trkpt>
<trkpt lat="31.7458780" lon="35.0938540">
<ele>469.599976</ele>
<time>2025-10-17T16:36:54.452Z</time>
</trkpt>
<trkpt lat="31.7459700" lon="35.0938030">
<ele>469.599976</ele>
<time>2025-10-17T16:36:54.452Z</time>
</trkpt>
<trkpt lat="31.7460610" lon="35.0937620">
<ele>469.599976</ele>
<time>2025-10-17T16:36:54.452Z</time>
</trkpt>
<trkpt lat="31.7461060" lon="35.0937420">
<ele>469.399994</ele>
<time>2025-10-17T16:36:54.452Z</time>
</trkpt>
<trkpt lat="31.7461940" lon="35.0937090">
<ele>468.600006</ele>
<time>2025-10-17T16:36:54.452Z</time>
</trkpt>
<trkpt lat="31.7462380" lon="35.0936980">
<ele>468.200012</ele>
<time>2025-10-17T16:36:54.452Z</time>
</trkpt>
<trkpt lat="31.7462840" lon="35.0936880">
<ele>467.799988</ele>
<time>2025-10-17T16:36:54.452Z</time>
</trkpt>
<trkpt lat="31.7463280" lon="35.0936820">
<ele>467.600006</ele>
<time>2025-10-17T16:36:54.453Z</time>
</trkpt>
<trkpt lat="31.7463710" lon="35.0936780">
<ele>468.000000</ele>
<time>2025-10-17T16:36:54.453Z</time>
</trkpt>
<trkpt lat="31.7464120" lon="35.0936860">
<ele>467.600006</ele>
<time>2025-10-17T16:36:54.453Z</time>
</trkpt>
<trkpt lat="31.7464520" lon="35.0936990">
<ele>467.400024</ele>
<time>2025-10-17T16:36:54.453Z</time>
</trkpt>
<trkpt lat="31.7464890" lon="35.0937180">
<ele>467.400024</ele>
<time>2025-10-17T16:36:54.453Z</time>
</trkpt>
<trkpt lat="31.7465230" lon="35.0937440">
<ele>467.400024</ele>
<time>2025-10-17T16:36:54.453Z</time>
</trkpt>
<trkpt lat="31.7465510" lon="35.0937810">
<ele>467.199982</ele>
<time>2025-10-17T16:36:54.453Z</time>
</trkpt>
<trkpt lat="31.7465710" lon="35.0938270">
<ele>467.000000</ele>
<time>2025-10-17T16:36:54.453Z</time>
</trkpt>
<trkpt lat="31.7465820" lon="35.0938810">
<ele>466.800018</ele>
<time>2025-10-17T16:36:54.453Z</time>
</trkpt>
<trkpt lat="31.7465830" lon="35.0939410">
<ele>466.599976</ele>
<time>2025-10-17T16:36:54.453Z</time>
</trkpt>
<trkpt lat="31.7465810" lon="35.0940060">
<ele>466.599976</ele>
<time>2025-10-17T16:36:54.453Z</time>
</trkpt>
<trkpt lat="31.7465880" lon="35.0940700">
<ele>466.599976</ele>
<time>2025-10-17T16:36:54.453Z</time>
</trkpt>
<trkpt lat="31.7466030" lon="35.0941270">
<ele>466.599976</ele>
<time>2025-10-17T16:36:54.453Z</time>
</trkpt>
<trkpt lat="31.7466210" lon="35.0941750">
<ele>466.599976</ele>
<time>2025-10-17T16:36:54.453Z</time>
</trkpt>
<trkpt lat="31.7466440" lon="35.0942190">
<ele>466.599976</ele>
<time>2025-10-17T16:36:54.453Z</time>
</trkpt>
<trkpt lat="31.7466690" lon="35.0942620">
<ele>466.399994</ele>
<time>2025-10-17T16:36:54.453Z</time>
</trkpt>
<trkpt lat="31.7466980" lon="35.0943060">
<ele>466.599976</ele>
<time>2025-10-17T16:36:54.453Z</time>
</trkpt>
<trkpt lat="31.7467300" lon="35.0943480">
<ele>466.599976</ele>
<time>2025-10-17T16:36:54.453Z</time>
</trkpt>
<trkpt lat="31.7468070" lon="35.0944240">
<ele>466.800018</ele>
<time>2025-10-17T16:36:54.453Z</time>
</trkpt>
<trkpt lat="31.7468480" lon="35.0944550">
<ele>466.800018</ele>
<time>2025-10-17T16:36:54.453Z</time>
</trkpt>
<trkpt lat="31.7469320" lon="35.0945190">
<ele>466.599976</ele>
<time>2025-10-17T16:36:54.453Z</time>
</trkpt>
<trkpt lat="31.7469740" lon="35.0945460">
<ele>466.200012</ele>
<time>2025-10-17T16:36:54.453Z</time>
</trkpt>
<trkpt lat="31.7470180" lon="35.0945720">
<ele>466.399994</ele>
<time>2025-10-17T16:36:54.453Z</time>
</trkpt>
<trkpt lat="31.7471090" lon="35.0946040">
<ele>466.599976</ele>
<time>2025-10-17T16:36:54.453Z</time>
</trkpt>
<trkpt lat="31.7471920" lon="35.0946130">
<ele>466.800018</ele>
<time>2025-10-17T16:36:54.453Z</time>
</trkpt>
<trkpt lat="31.7472330" lon="35.0946150">
<ele>466.800018</ele>
<time>2025-10-17T16:36:54.453Z</time>
</trkpt>
<trkpt lat="31.7472710" lon="35.0946180">
<ele>466.599976</ele>
<time>2025-10-17T16:36:54.453Z</time>
</trkpt>
<trkpt lat="31.7473090" lon="35.0946190">
<ele>466.599976</ele>
<time>2025-10-17T16:36:54.454Z</time>
</trkpt>
<trkpt lat="31.7473470" lon="35.0946190">
<ele>466.800018</ele>
<time>2025-10-17T16:36:54.454Z</time>
</trkpt>
<trkpt lat="31.7473900" lon="35.0946150">
<ele>467.199982</ele>
<time>2025-10-17T16:36:54.454Z</time>
</trkpt>
<trkpt lat="31.7474320" lon="35.0946090">
<ele>467.600006</ele>
<time>2025-10-17T16:36:54.454Z</time>
</trkpt>
<trkpt lat="31.7474770" lon="35.0945990">
<ele>467.600006</ele>
<time>2025-10-17T16:36:54.454Z</time>
</trkpt>
<trkpt lat="31.7475690" lon="35.0945720">
<ele>468.000000</ele>
<time>2025-10-17T16:36:54.454Z</time>
</trkpt>
<trkpt lat="31.7476950" lon="35.0945170">
<ele>468.000000</ele>
<time>2025-10-17T16:36:54.454Z</time>
</trkpt>
<trkpt lat="31.7478160" lon="35.0944420">
<ele>467.199982</ele>
<time>2025-10-17T16:36:54.454Z</time>
</trkpt>
<trkpt lat="31.7478780" lon="35.0943900">
<ele>467.199982</ele>
<time>2025-10-17T16:36:54.454Z</time>
</trkpt>
<trkpt lat="31.7480780" lon="35.0942120">
<ele>466.800018</ele>
<time>2025-10-17T16:36:54.454Z</time>
</trkpt>
<trkpt lat="31.7481470" lon="35.0941590">
<ele>466.399994</ele>
<time>2025-10-17T16:36:54.454Z</time>
</trkpt>
<trkpt lat="31.7482820" lon="35.0940710">
<ele>464.799988</ele>
<time>2025-10-17T16:36:54.454Z</time>
</trkpt>
<trkpt lat="31.7483460" lon="35.0940370">
<ele>464.000000</ele>
<time>2025-10-17T16:36:54.454Z</time>
</trkpt>
<trkpt lat="31.7484050" lon="35.0940090">
<ele>463.000031</ele>
<time>2025-10-17T16:36:54.454Z</time>
</trkpt>
<trkpt lat="31.7484580" lon="35.0939840">
<ele>462.199982</ele>
<time>2025-10-17T16:36:54.454Z</time>
</trkpt>
<trkpt lat="31.7485080" lon="35.0939620">
<ele>461.600006</ele>
<time>2025-10-17T16:36:54.454Z</time>
</trkpt>
<trkpt lat="31.7485550" lon="35.0939410">
<ele>461.399994</ele>
<time>2025-10-17T16:36:54.454Z</time>
</trkpt>
<trkpt lat="31.7485960" lon="35.0939210">
<ele>461.200012</ele>
<time>2025-10-17T16:36:54.454Z</time>
</trkpt>
<trkpt lat="31.7486310" lon="35.0939040">
<ele>461.000000</ele>
<time>2025-10-17T16:36:54.454Z</time>
</trkpt>
<trkpt lat="31.7486670" lon="35.0938800">
<ele>460.800018</ele>
<time>2025-10-17T16:36:54.454Z</time>
</trkpt>
<trkpt lat="31.7487000" lon="35.0938620">
<ele>460.600006</ele>
<time>2025-10-17T16:36:54.454Z</time>
</trkpt>
<trkpt lat="31.7487350" lon="35.0938450">
<ele>460.600006</ele>
<time>2025-10-17T16:36:54.454Z</time>
</trkpt>
<trkpt lat="31.7487770" lon="35.0938210">
<ele>460.800018</ele>
<time>2025-10-17T16:36:54.454Z</time>
</trkpt>
<trkpt lat="31.7488210" lon="35.0937930">
<ele>461.000000</ele>
<time>2025-10-17T16:36:54.454Z</time>
</trkpt>
<trkpt lat="31.7490060" lon="35.0936790">
<ele>460.800018</ele>
<time>2025-10-17T16:36:54.454Z</time>
</trkpt>
<trkpt lat="31.7490490" lon="35.0936560">
<ele>460.800018</ele>
<time>2025-10-17T16:36:54.455Z</time>
</trkpt>
<trkpt lat="31.7490900" lon="35.0936390">
<ele>460.600006</ele>
<time>2025-10-17T16:36:54.455Z</time>
</trkpt>
<trkpt lat="31.7491330" lon="35.0936300">
<ele>460.800018</ele>
<time>2025-10-17T16:36:54.455Z</time>
</trkpt>
<trkpt lat="31.7491730" lon="35.0936290">
<ele>461.000000</ele>
<time>2025-10-17T16:36:54.455Z</time>
</trkpt>
<trkpt lat="31.7492140" lon="35.0936330">
<ele>461.000000</ele>
<time>2025-10-17T16:36:54.455Z</time>
</trkpt>
<trkpt lat="31.7492540" lon="35.0936360">
<ele>461.000000</ele>
<time>2025-10-17T16:36:54.455Z</time>
</trkpt>
<trkpt lat="31.7492950" lon="35.0936390">
<ele>461.000000</ele>
<time>2025-10-17T16:36:54.455Z</time>
</trkpt>
<trkpt lat="31.7493390" lon="35.0936350">
<ele>461.000000</ele>
<time>2025-10-17T16:36:54.455Z</time>
</trkpt>
<trkpt lat="31.7493820" lon="35.0936210">
<ele>461.000000</ele>
<time>2025-10-17T16:36:54.455Z</time>
</trkpt>
<trkpt lat="31.7494280" lon="35.0936000">
<ele>461.200012</ele>
<time>2025-10-17T16:36:54.455Z</time>
</trkpt>
<trkpt lat="31.7494770" lon="35.0935750">
<ele>461.399994</ele>
<time>2025-10-17T16:36:54.455Z</time>
</trkpt>
<trkpt lat="31.7495280" lon="35.0935420">
<ele>461.600006</ele>
<time>2025-10-17T16:36:54.455Z</time>
</trkpt>
<trkpt lat="31.7495880" lon="35.0935090">
<ele>461.600006</ele>
<time>2025-10-17T16:36:54.455Z</time>
</trkpt>
<trkpt lat="31.7497160" lon="35.0934580">
<ele>461.399994</ele>
<time>2025-10-17T16:36:54.455Z</time>
</trkpt>
<trkpt lat="31.7499010" lon="35.0933910">
<ele>461.000000</ele>
<time>2025-10-17T16:36:54.455Z</time>
</trkpt>
<trkpt lat="31.7500510" lon="35.0933510">
<ele>460.000000</ele>
<time>2025-10-17T16:36:54.455Z</time>
</trkpt>
<trkpt lat="31.7501190" lon="35.0933420">
<ele>458.399994</ele>
<time>2025-10-17T16:36:54.455Z</time>
</trkpt>
<trkpt lat="31.7502360" lon="35.0933380">
<ele>457.200012</ele>
<time>2025-10-17T16:36:54.455Z</time>
</trkpt>
<trkpt lat="31.7503080" lon="35.0933310">
<ele>457.000000</ele>
<time>2025-10-17T16:36:54.455Z</time>
</trkpt>
<trkpt lat="31.7503680" lon="35.0933220">
<ele>456.199982</ele>
<time>2025-10-17T16:36:54.455Z</time>
</trkpt>
<trkpt lat="31.7504280" lon="35.0933070">
<ele>456.000000</ele>
<time>2025-10-17T16:36:54.455Z</time>
</trkpt>
<trkpt lat="31.7504730" lon="35.0932930">
<ele>455.800018</ele>
<time>2025-10-17T16:36:54.455Z</time>
</trkpt>
<trkpt lat="31.7505270" lon="35.0932750">
<ele>455.599976</ele>
<time>2025-10-17T16:36:54.455Z</time>
</trkpt>
<trkpt lat="31.7505840" lon="35.0932580">
<ele>455.399994</ele>
<time>2025-10-17T16:36:54.455Z</time>
</trkpt>
<trkpt lat="31.7506280" lon="35.0932370">
<ele>455.399994</ele>
<time>2025-10-17T16:36:54.455Z</time>
</trkpt>
<trkpt lat="31.7506730" lon="35.0932150">
<ele>455.399994</ele>
<time>2025-10-17T16:36:54.456Z</time>
</trkpt>
<trkpt lat="31.7507070" lon="35.0931970">
<ele>455.399994</ele>
<time>2025-10-17T16:36:54.456Z</time>
</trkpt>
<trkpt lat="31.7507500" lon="35.0931670">
<ele>455.599976</ele>
<time>2025-10-17T16:36:54.456Z</time>
</trkpt>
<trkpt lat="31.7507960" lon="35.0931280">
<ele>455.599976</ele>
<time>2025-10-17T16:36:54.456Z</time>
</trkpt>
<trkpt lat="31.7508570" lon="35.0930440">
<ele>455.599976</ele>
<time>2025-10-17T16:36:54.456Z</time>
</trkpt>
<trkpt lat="31.7508870" lon="35.0929900">
<ele>455.800018</ele>
<time>2025-10-17T16:36:54.456Z</time>
</trkpt>
<trkpt lat="31.7509150" lon="35.0929310">
<ele>455.800018</ele>
<time>2025-10-17T16:36:54.456Z</time>
</trkpt>
<trkpt lat="31.7509390" lon="35.0928660">
<ele>455.800018</ele>
<time>2025-10-17T16:36:54.456Z</time>
</trkpt>
<trkpt lat="31.7509560" lon="35.0927930">
<ele>456.000000</ele>
<time>2025-10-17T16:36:54.456Z</time>
</trkpt>
<trkpt lat="31.7509850" lon="35.0925790">
<ele>456.000000</ele>
<time>2025-10-17T16:36:54.456Z</time>
</trkpt>
<trkpt lat="31.7509860" lon="35.0925120">
<ele>455.800018</ele>
<time>2025-10-17T16:36:54.456Z</time>
</trkpt>
<trkpt lat="31.7509870" lon="35.0924470">
<ele>456.000000</ele>
<time>2025-10-17T16:36:54.456Z</time>
</trkpt>
<trkpt lat="31.7509890" lon="35.0923840">
<ele>455.399994</ele>
<time>2025-10-17T16:36:54.456Z</time>
</trkpt>
<trkpt lat="31.7509910" lon="35.0923230">
<ele>455.200012</ele>
<time>2025-10-17T16:36:54.456Z</time>
</trkpt>
<trkpt lat="31.7509890" lon="35.0922650">
<ele>454.600006</ele>
<time>2025-10-17T16:36:54.456Z</time>
</trkpt>
<trkpt lat="31.7509870" lon="35.0922110">
<ele>454.399994</ele>
<time>2025-10-17T16:36:54.456Z</time>
</trkpt>
<trkpt lat="31.7509790" lon="35.0921620">
<ele>454.600006</ele>
<time>2025-10-17T16:36:54.456Z</time>
</trkpt>
<trkpt lat="31.7509670" lon="35.0921140">
<ele>454.399994</ele>
<time>2025-10-17T16:36:54.456Z</time>
</trkpt>
<trkpt lat="31.7509510" lon="35.0920670">
<ele>454.200012</ele>
<time>2025-10-17T16:36:54.456Z</time>
</trkpt>
<trkpt lat="31.7509290" lon="35.0920200">
<ele>454.200012</ele>
<time>2025-10-17T16:36:54.456Z</time>
</trkpt>
<trkpt lat="31.7509050" lon="35.0919760">
<ele>454.200012</ele>
<time>2025-10-17T16:36:54.456Z</time>
</trkpt>
<trkpt lat="31.7508760" lon="35.0919400">
<ele>454.200012</ele>
<time>2025-10-17T16:36:54.456Z</time>
</trkpt>
<trkpt lat="31.7508430" lon="35.0919080">
<ele>454.200012</ele>
<time>2025-10-17T16:36:54.456Z</time>
</trkpt>
<trkpt lat="31.7508070" lon="35.0918620">
<ele>453.799988</ele>
<time>2025-10-17T16:36:54.456Z</time>
</trkpt>
<trkpt lat="31.7507820" lon="35.0918270">
<ele>453.799988</ele>
<time>2025-10-17T16:36:54.456Z</time>
</trkpt>
<trkpt lat="31.7507210" lon="35.0917310">
<ele>454.000000</ele>
<time>2025-10-17T16:36:54.456Z</time>
</trkpt>
<trkpt lat="31.7506900" lon="35.0916730">
<ele>453.600006</ele>
<time>2025-10-17T16:36:54.456Z</time>
</trkpt>
<trkpt lat="31.7506590" lon="35.0915970">
<ele>453.199982</ele>
<time>2025-10-17T16:36:54.456Z</time>
</trkpt>
<trkpt lat="31.7506410" lon="35.0915480">
<ele>452.599976</ele>
<time>2025-10-17T16:36:54.457Z</time>
</trkpt>
<trkpt lat="31.7506250" lon="35.0914890">
<ele>452.599976</ele>
<time>2025-10-17T16:36:54.457Z</time>
</trkpt>
<trkpt lat="31.7506140" lon="35.0914270">
<ele>452.399994</ele>
<time>2025-10-17T16:36:54.457Z</time>
</trkpt>
<trkpt lat="31.7506040" lon="35.0913490">
<ele>451.799988</ele>
<time>2025-10-17T16:36:54.457Z</time>
</trkpt>
<trkpt lat="31.7505740" lon="35.0911790">
<ele>451.600006</ele>
<time>2025-10-17T16:36:54.457Z</time>
</trkpt>
<trkpt lat="31.7505600" lon="35.0910690">
<ele>451.399994</ele>
<time>2025-10-17T16:36:54.457Z</time>
</trkpt>
<trkpt lat="31.7505530" lon="35.0910060">
<ele>451.600006</ele>
<time>2025-10-17T16:36:54.457Z</time>
</trkpt>
<trkpt lat="31.7505450" lon="35.0909630">
<ele>451.799988</ele>
<time>2025-10-17T16:36:54.457Z</time>
</trkpt>
<trkpt lat="31.7505370" lon="35.0909110">
<ele>451.799988</ele>
<time>2025-10-17T16:36:54.457Z</time>
</trkpt>
<trkpt lat="31.7505280" lon="35.0908590">
<ele>451.799988</ele>
<time>2025-10-17T16:36:54.457Z</time>
</trkpt>
<trkpt lat="31.7505170" lon="35.0908090">
<ele>451.799988</ele>
<time>2025-10-17T16:36:54.457Z</time>
</trkpt>
<trkpt lat="31.7505090" lon="35.0907590">
<ele>451.600006</ele>
<time>2025-10-17T16:36:54.457Z</time>
</trkpt>
<trkpt lat="31.7505020" lon="35.0906970">
<ele>451.600006</ele>
<time>2025-10-17T16:36:54.457Z</time>
</trkpt>
<trkpt lat="31.7505030" lon="35.0906570">
<ele>451.799988</ele>
<time>2025-10-17T16:36:54.457Z</time>
</trkpt>
<trkpt lat="31.7505010" lon="35.0906100">
<ele>451.799988</ele>
<time>2025-10-17T16:36:54.457Z</time>
</trkpt>
<trkpt lat="31.7504930" lon="35.0905680">
<ele>451.600006</ele>
<time>2025-10-17T16:36:54.457Z</time>
</trkpt>
<trkpt lat="31.7504840" lon="35.0905210">
<ele>451.600006</ele>
<time>2025-10-17T16:36:54.457Z</time>
</trkpt>
<trkpt lat="31.7504790" lon="35.0904700">
<ele>451.399994</ele>
<time>2025-10-17T16:36:54.457Z</time>
</trkpt>
<trkpt lat="31.7504760" lon="35.0904150">
<ele>451.399994</ele>
<time>2025-10-17T16:36:54.457Z</time>
</trkpt>
<trkpt lat="31.7504770" lon="35.0903600">
<ele>451.199982</ele>
<time>2025-10-17T16:36:54.457Z</time>
</trkpt>
<trkpt lat="31.7504830" lon="35.0903030">
<ele>451.000000</ele>
<time>2025-10-17T16:36:54.457Z</time>
</trkpt>
<trkpt lat="31.7504910" lon="35.0902460">
<ele>451.000000</ele>
<time>2025-10-17T16:36:54.457Z</time>
</trkpt>
<trkpt lat="31.7505020" lon="35.0901890">
<ele>451.199982</ele>
<time>2025-10-17T16:36:54.457Z</time>
</trkpt>
<trkpt lat="31.7505170" lon="35.0901300">
<ele>451.199982</ele>
<time>2025-10-17T16:36:54.457Z</time>
</trkpt>
<trkpt lat="31.7505350" lon="35.0900670">
<ele>451.199982</ele>
<time>2025-10-17T16:36:54.457Z</time>
</trkpt>
<trkpt lat="31.7506490" lon="35.0898360">
<ele>451.000000</ele>
<time>2025-10-17T16:36:54.457Z</time>
</trkpt>
<trkpt lat="31.7507530" lon="35.0896120">
<ele>450.800018</ele>
<time>2025-10-17T16:36:54.457Z</time>
</trkpt>
<trkpt lat="31.7507710" lon="35.0895590">
<ele>450.600006</ele>
<time>2025-10-17T16:36:54.458Z</time>
</trkpt>
<trkpt lat="31.7507870" lon="35.0895050">
<ele>450.600006</ele>
<time>2025-10-17T16:36:54.458Z</time>
</trkpt>
<trkpt lat="31.7508030" lon="35.0894480">
<ele>450.600006</ele>
<time>2025-10-17T16:36:54.458Z</time>
</trkpt>
<trkpt lat="31.7508170" lon="35.0893880">
<ele>450.600006</ele>
<time>2025-10-17T16:36:54.458Z</time>
</trkpt>
<trkpt lat="31.7508420" lon="35.0892660">
<ele>450.600006</ele>
<time>2025-10-17T16:36:54.458Z</time>
</trkpt>
<trkpt lat="31.7508590" lon="35.0891450">
<ele>450.399994</ele>
<time>2025-10-17T16:36:54.458Z</time>
</trkpt>
<trkpt lat="31.7508670" lon="35.0889610">
<ele>450.600006</ele>
<time>2025-10-17T16:36:54.458Z</time>
</trkpt>
<trkpt lat="31.7508670" lon="35.0889030">
<ele>450.800018</ele>
<time>2025-10-17T16:36:54.458Z</time>
</trkpt>
<trkpt lat="31.7508590" lon="35.0887990">
<ele>450.800018</ele>
<time>2025-10-17T16:36:54.458Z</time>
</trkpt>
<trkpt lat="31.7508560" lon="35.0887450">
<ele>450.800018</ele>
<time>2025-10-17T16:36:54.458Z</time>
</trkpt>
<trkpt lat="31.7508510" lon="35.0886840">
<ele>450.399994</ele>
<time>2025-10-17T16:36:54.458Z</time>
</trkpt>
<trkpt lat="31.7508280" lon="35.0884960">
<ele>450.399994</ele>
<time>2025-10-17T16:36:54.458Z</time>
</trkpt>
<trkpt lat="31.7508100" lon="35.0884400">
<ele>450.399994</ele>
<time>2025-10-17T16:36:54.458Z</time>
</trkpt>
<trkpt lat="31.7507540" lon="35.0883260">
<ele>450.399994</ele>
<time>2025-10-17T16:36:54.458Z</time>
</trkpt>
<trkpt lat="31.7507170" lon="35.0882790">
<ele>450.399994</ele>
<time>2025-10-17T16:36:54.458Z</time>
</trkpt>
<trkpt lat="31.7506780" lon="35.0882290">
<ele>450.399994</ele>
<time>2025-10-17T16:36:54.458Z</time>
</trkpt>
<trkpt lat="31.7505240" lon="35.0880480">
<ele>450.399994</ele>
<time>2025-10-17T16:36:54.458Z</time>
</trkpt>
<trkpt lat="31.7504940" lon="35.0879990">
<ele>450.399994</ele>
<time>2025-10-17T16:36:54.458Z</time>
</trkpt>
<trkpt lat="31.7504570" lon="35.0879400">
<ele>450.399994</ele>
<time>2025-10-17T16:36:54.458Z</time>
</trkpt>
<trkpt lat="31.7503960" lon="35.0878460">
<ele>450.200012</ele>
<time>2025-10-17T16:36:54.458Z</time>
</trkpt>
<trkpt lat="31.7503670" lon="35.0877930">
<ele>450.000000</ele>
<time>2025-10-17T16:36:54.459Z</time>
</trkpt>
<trkpt lat="31.7503350" lon="35.0877420">
<ele>449.800018</ele>
<time>2025-10-17T16:36:54.459Z</time>
</trkpt>
<trkpt lat="31.7503070" lon="35.0876930">
<ele>449.600006</ele>
<time>2025-10-17T16:36:54.459Z</time>
</trkpt>
<trkpt lat="31.7502840" lon="35.0876430">
<ele>449.200012</ele>
<time>2025-10-17T16:36:54.459Z</time>
</trkpt>
<trkpt lat="31.7502580" lon="35.0875970">
<ele>449.000031</ele>
<time>2025-10-17T16:36:54.459Z</time>
</trkpt>
<trkpt lat="31.7502300" lon="35.0875520">
<ele>448.799988</ele>
<time>2025-10-17T16:36:54.459Z</time>
</trkpt>
<trkpt lat="31.7502010" lon="35.0875040">
<ele>448.400024</ele>
<time>2025-10-17T16:36:54.459Z</time>
</trkpt>
<trkpt lat="31.7501700" lon="35.0874420">
<ele>448.199982</ele>
<time>2025-10-17T16:36:54.459Z</time>
</trkpt>
<trkpt lat="31.7501520" lon="35.0873950">
<ele>448.000000</ele>
<time>2025-10-17T16:36:54.459Z</time>
</trkpt>
<trkpt lat="31.7500010" lon="35.0870440">
<ele>447.000000</ele>
<time>2025-10-17T16:36:54.459Z</time>
</trkpt>
<trkpt lat="31.7499740" lon="35.0869930">
<ele>446.799988</ele>
<time>2025-10-17T16:36:54.459Z</time>
</trkpt>
<trkpt lat="31.7499180" lon="35.0869120">
<ele>446.600006</ele>
<time>2025-10-17T16:36:54.459Z</time>
</trkpt>
<trkpt lat="31.7498930" lon="35.0868730">
<ele>446.399994</ele>
<time>2025-10-17T16:36:54.459Z</time>
</trkpt>
<trkpt lat="31.7498700" lon="35.0868320">
<ele>446.399994</ele>
<time>2025-10-17T16:36:54.459Z</time>
</trkpt>
<trkpt lat="31.7498510" lon="35.0867970">
<ele>446.399994</ele>
<time>2025-10-17T16:36:54.459Z</time>
</trkpt>
<trkpt lat="31.7498370" lon="35.0867700">
<ele>447.200012</ele>
<time>2025-10-17T16:36:54.459Z</time>
</trkpt>
<trkpt lat="31.7498280" lon="35.0867480">
<ele>447.200012</ele>
<time>2025-10-17T16:36:54.459Z</time>
</trkpt>
<trkpt lat="31.7498200" lon="35.0867280">
<ele>447.599976</ele>
<time>2025-10-17T16:36:54.459Z</time>
</trkpt>
<trkpt lat="31.7498120" lon="35.0867040">
<ele>447.599976</ele>
<time>2025-10-17T16:36:54.459Z</time>
</trkpt>
<trkpt lat="31.7498040" lon="35.0866770">
<ele>447.800018</ele>
<time>2025-10-17T16:36:54.459Z</time>
</trkpt>
<trkpt lat="31.7497960" lon="35.0866510">
<ele>448.199982</ele>
<time>2025-10-17T16:36:54.459Z</time>
</trkpt>
<trkpt lat="31.7497820" lon="35.0866030">
<ele>448.600006</ele>
<time>2025-10-17T16:36:54.460Z</time>
</trkpt>
<trkpt lat="31.7497770" lon="35.0865770">
<ele>448.799988</ele>
<time>2025-10-17T16:36:54.460Z</time>
</trkpt>
<trkpt lat="31.7497690" lon="35.0865520">
<ele>449.000031</ele>
<time>2025-10-17T16:36:54.460Z</time>
</trkpt>
<trkpt lat="31.7497630" lon="35.0865300">
<ele>449.200012</ele>
<time>2025-10-17T16:36:54.460Z</time>
</trkpt>
<trkpt lat="31.7497580" lon="35.0865060">
<ele>449.600006</ele>
<time>2025-10-17T16:36:54.460Z</time>
</trkpt>
<trkpt lat="31.7497520" lon="35.0864800">
<ele>449.600006</ele>
<time>2025-10-17T16:36:54.460Z</time>
</trkpt>
<trkpt lat="31.7497490" lon="35.0864260">
<ele>450.000000</ele>
<time>2025-10-17T16:36:54.460Z</time>
</trkpt>
<trkpt lat="31.7497560" lon="35.0863690">
<ele>450.399994</ele>
<time>2025-10-17T16:36:54.460Z</time>
</trkpt>
<trkpt lat="31.7497610" lon="35.0863380">
<ele>450.600006</ele>
<time>2025-10-17T16:36:54.460Z</time>
</trkpt>
<trkpt lat="31.7497870" lon="35.0862530">
<ele>451.399994</ele>
<time>2025-10-17T16:36:54.460Z</time>
</trkpt>
<trkpt lat="31.7497990" lon="35.0862220">
<ele>451.600006</ele>
<time>2025-10-17T16:36:54.460Z</time>
</trkpt>
<trkpt lat="31.7498110" lon="35.0861940">
<ele>451.799988</ele>
<time>2025-10-17T16:36:54.460Z</time>
</trkpt>
<trkpt lat="31.7498260" lon="35.0861660">
<ele>451.799988</ele>
<time>2025-10-17T16:36:54.460Z</time>
</trkpt>
<trkpt lat="31.7498410" lon="35.0861380">
<ele>451.799988</ele>
<time>2025-10-17T16:36:54.460Z</time>
</trkpt>
<trkpt lat="31.7498530" lon="35.0861120">
<ele>451.799988</ele>
<time>2025-10-17T16:36:54.460Z</time>
</trkpt>
<trkpt lat="31.7498680" lon="35.0860890">
<ele>451.799988</ele>
<time>2025-10-17T16:36:54.460Z</time>
</trkpt>
<trkpt lat="31.7498880" lon="35.0860680">
<ele>451.799988</ele>
<time>2025-10-17T16:36:54.461Z</time>
</trkpt>
<trkpt lat="31.7499140" lon="35.0860480">
<ele>451.799988</ele>
<time>2025-10-17T16:36:54.461Z</time>
</trkpt>
<trkpt lat="31.7499440" lon="35.0860310">
<ele>451.799988</ele>
<time>2025-10-17T16:36:54.461Z</time>
</trkpt>
<trkpt lat="31.7499760" lon="35.0860160">
<ele>451.799988</ele>
<time>2025-10-17T16:36:54.461Z</time>
</trkpt>
<trkpt lat="31.7500050" lon="35.0860000">
<ele>451.600006</ele>
<time>2025-10-17T16:36:54.461Z</time>
</trkpt>
<trkpt lat="31.7500350" lon="35.0859740">
<ele>451.600006</ele>
<time>2025-10-17T16:36:54.461Z</time>
</trkpt>
<trkpt lat="31.7500670" lon="35.0859410">
<ele>451.199982</ele>
<time>2025-10-17T16:36:54.461Z</time>
</trkpt>
<trkpt lat="31.7501030" lon="35.0859060">
<ele>451.000000</ele>
<time>2025-10-17T16:36:54.461Z</time>
</trkpt>
<trkpt lat="31.7501430" lon="35.0858700">
<ele>450.399994</ele>
<time>2025-10-17T16:36:54.461Z</time>
</trkpt>
<trkpt lat="31.7501810" lon="35.0858310">
<ele>450.000000</ele>
<time>2025-10-17T16:36:54.461Z</time>
</trkpt>
<trkpt lat="31.7502600" lon="35.0857510">
<ele>449.200012</ele>
<time>2025-10-17T16:36:54.461Z</time>
</trkpt>
<trkpt lat="31.7503490" lon="35.0856730">
<ele>448.600006</ele>
<time>2025-10-17T16:36:54.461Z</time>
</trkpt>
<trkpt lat="31.7504460" lon="35.0856000">
<ele>447.800018</ele>
<time>2025-10-17T16:36:54.461Z</time>
</trkpt>
<trkpt lat="31.7505050" lon="35.0855730">
<ele>447.399994</ele>
<time>2025-10-17T16:36:54.461Z</time>
</trkpt>
<trkpt lat="31.7505690" lon="35.0855570">
<ele>445.199982</ele>
<time>2025-10-17T16:36:54.461Z</time>
</trkpt>
<trkpt lat="31.7506350" lon="35.0855510">
<ele>443.799988</ele>
<time>2025-10-17T16:36:54.461Z</time>
</trkpt>
<trkpt lat="31.7507020" lon="35.0855530">
<ele>443.399994</ele>
<time>2025-10-17T16:36:54.461Z</time>
</trkpt>
<trkpt lat="31.7507700" lon="35.0855580">
<ele>442.600006</ele>
<time>2025-10-17T16:36:54.461Z</time>
</trkpt>
<trkpt lat="31.7510190" lon="35.0855840">
<ele>441.399994</ele>
<time>2025-10-17T16:36:54.461Z</time>
</trkpt>
<trkpt lat="31.7510670" lon="35.0855950">
<ele>441.200012</ele>
<time>2025-10-17T16:36:54.461Z</time>
</trkpt>
<trkpt lat="31.7511080" lon="35.0856030">
<ele>441.200012</ele>
<time>2025-10-17T16:36:54.461Z</time>
</trkpt>
<trkpt lat="31.7511430" lon="35.0856100">
<ele>440.999969</ele>
<time>2025-10-17T16:36:54.461Z</time>
</trkpt>
<trkpt lat="31.7511740" lon="35.0856150">
<ele>440.999969</ele>
<time>2025-10-17T16:36:54.461Z</time>
</trkpt>
<trkpt lat="31.7512040" lon="35.0856230">
<ele>440.999969</ele>
<time>2025-10-17T16:36:54.461Z</time>
</trkpt>
<trkpt lat="31.7512310" lon="35.0856260">
<ele>441.200012</ele>
<time>2025-10-17T16:36:54.461Z</time>
</trkpt>
<trkpt lat="31.7512600" lon="35.0856260">
<ele>441.399994</ele>
<time>2025-10-17T16:36:54.462Z</time>
</trkpt>
<trkpt lat="31.7512890" lon="35.0856280">
<ele>441.599976</ele>
<time>2025-10-17T16:36:54.462Z</time>
</trkpt>
<trkpt lat="31.7513520" lon="35.0856290">
<ele>442.400024</ele>
<time>2025-10-17T16:36:54.462Z</time>
</trkpt>
<trkpt lat="31.7514720" lon="35.0856350">
<ele>443.399994</ele>
<time>2025-10-17T16:36:54.462Z</time>
</trkpt>
<trkpt lat="31.7516410" lon="35.0856430">
<ele>443.200012</ele>
<time>2025-10-17T16:36:54.462Z</time>
</trkpt>
<trkpt lat="31.7516860" lon="35.0856490">
<ele>443.200012</ele>
<time>2025-10-17T16:36:54.462Z</time>
</trkpt>
<trkpt lat="31.7517280" lon="35.0856530">
<ele>443.399994</ele>
<time>2025-10-17T16:36:54.462Z</time>
</trkpt>
<trkpt lat="31.7518150" lon="35.0856490">
<ele>443.399994</ele>
<time>2025-10-17T16:36:54.462Z</time>
</trkpt>
<trkpt lat="31.7519800" lon="35.0856320">
<ele>443.000000</ele>
<time>2025-10-17T16:36:54.462Z</time>
</trkpt>
<trkpt lat="31.7521820" lon="35.0856130">
<ele>443.200012</ele>
<time>2025-10-17T16:36:54.462Z</time>
</trkpt>
<trkpt lat="31.7522980" lon="35.0856100">
<ele>443.200012</ele>
<time>2025-10-17T16:36:54.462Z</time>
</trkpt>
<trkpt lat="31.7523740" lon="35.0856120">
<ele>442.799988</ele>
<time>2025-10-17T16:36:54.462Z</time>
</trkpt>
<trkpt lat="31.7524320" lon="35.0856110">
<ele>442.400024</ele>
<time>2025-10-17T16:36:54.462Z</time>
</trkpt>
<trkpt lat="31.7524900" lon="35.0856030">
<ele>442.199982</ele>
<time>2025-10-17T16:36:54.462Z</time>
</trkpt>
<trkpt lat="31.7525360" lon="35.0856000">
<ele>441.800018</ele>
<time>2025-10-17T16:36:54.462Z</time>
</trkpt>
<trkpt lat="31.7525920" lon="35.0855990">
<ele>440.999969</ele>
<time>2025-10-17T16:36:54.462Z</time>
</trkpt>
<trkpt lat="31.7526470" lon="35.0856000">
<ele>440.600006</ele>
<time>2025-10-17T16:36:54.462Z</time>
</trkpt>
<trkpt lat="31.7527520" lon="35.0856050">
<ele>439.600006</ele>
<time>2025-10-17T16:36:54.462Z</time>
</trkpt>
<trkpt lat="31.7528080" lon="35.0856120">
<ele>439.000000</ele>
<time>2025-10-17T16:36:54.462Z</time>
</trkpt>
<trkpt lat="31.7528640" lon="35.0856180">
<ele>439.000000</ele>
<time>2025-10-17T16:36:54.462Z</time>
</trkpt>
<trkpt lat="31.7529300" lon="35.0856290">
<ele>438.800018</ele>
<time>2025-10-17T16:36:54.462Z</time>
</trkpt>
<trkpt lat="31.7529800" lon="35.0856370">
<ele>438.200012</ele>
<time>2025-10-17T16:36:54.462Z</time>
</trkpt>
<trkpt lat="31.7530330" lon="35.0856460">
<ele>438.000031</ele>
<time>2025-10-17T16:36:54.462Z</time>
</trkpt>
<trkpt lat="31.7530850" lon="35.0856530">
<ele>438.200012</ele>
<time>2025-10-17T16:36:54.462Z</time>
</trkpt>
<trkpt lat="31.7531350" lon="35.0856650">
<ele>438.000031</ele>
<time>2025-10-17T16:36:54.462Z</time>
</trkpt>
<trkpt lat="31.7531840" lon="35.0856850">
<ele>438.200012</ele>
<time>2025-10-17T16:36:54.462Z</time>
</trkpt>
<trkpt lat="31.7532310" lon="35.0857140">
<ele>438.399994</ele>
<time>2025-10-17T16:36:54.462Z</time>
</trkpt>
<trkpt lat="31.7533530" lon="35.0858290">
<ele>438.000031</ele>
<time>2025-10-17T16:36:54.463Z</time>
</trkpt>
<trkpt lat="31.7533890" lon="35.0858770">
<ele>438.200012</ele>
<time>2025-10-17T16:36:54.463Z</time>
</trkpt>
<trkpt lat="31.7534210" lon="35.0859280">
<ele>438.399994</ele>
<time>2025-10-17T16:36:54.463Z</time>
</trkpt>
<trkpt lat="31.7535050" lon="35.0860870">
<ele>438.599976</ele>
<time>2025-10-17T16:36:54.463Z</time>
</trkpt>
<trkpt lat="31.7535390" lon="35.0862040">
<ele>438.200012</ele>
<time>2025-10-17T16:36:54.463Z</time>
</trkpt>
<trkpt lat="31.7535610" lon="35.0863070">
<ele>438.200012</ele>
<time>2025-10-17T16:36:54.463Z</time>
</trkpt>
<trkpt lat="31.7535910" lon="35.0864330">
<ele>438.200012</ele>
<time>2025-10-17T16:36:54.463Z</time>
</trkpt>
<trkpt lat="31.7536060" lon="35.0864920">
<ele>438.000031</ele>
<time>2025-10-17T16:36:54.463Z</time>
</trkpt>
<trkpt lat="31.7536230" lon="35.0865500">
<ele>437.600006</ele>
<time>2025-10-17T16:36:54.463Z</time>
</trkpt>
<trkpt lat="31.7536390" lon="35.0865960">
<ele>437.600006</ele>
<time>2025-10-17T16:36:54.463Z</time>
</trkpt>
<trkpt lat="31.7536760" lon="35.0867130">
<ele>437.400024</ele>
<time>2025-10-17T16:36:54.463Z</time>
</trkpt>
<trkpt lat="31.7536900" lon="35.0867670">
<ele>437.199982</ele>
<time>2025-10-17T16:36:54.463Z</time>
</trkpt>
<trkpt lat="31.7537240" lon="35.0868800">
<ele>437.400024</ele>
<time>2025-10-17T16:36:54.463Z</time>
</trkpt>
<trkpt lat="31.7537750" lon="35.0871950">
<ele>437.000000</ele>
<time>2025-10-17T16:36:54.463Z</time>
</trkpt>
<trkpt lat="31.7538130" lon="35.0874790">
<ele>435.800018</ele>
<time>2025-10-17T16:36:54.463Z</time>
</trkpt>
<trkpt lat="31.7538240" lon="35.0875380">
<ele>435.600006</ele>
<time>2025-10-17T16:36:54.463Z</time>
</trkpt>
<trkpt lat="31.7538490" lon="35.0876810">
<ele>435.000031</ele>
<time>2025-10-17T16:36:54.463Z</time>
</trkpt>
<trkpt lat="31.7538880" lon="35.0878190">
<ele>434.799988</ele>
<time>2025-10-17T16:36:54.463Z</time>
</trkpt>
<trkpt lat="31.7539150" lon="35.0878990">
<ele>434.600006</ele>
<time>2025-10-17T16:36:54.463Z</time>
</trkpt>
<trkpt lat="31.7539650" lon="35.0880200">
<ele>434.000000</ele>
<time>2025-10-17T16:36:54.463Z</time>
</trkpt>
<trkpt lat="31.7540150" lon="35.0881190">
<ele>433.800018</ele>
<time>2025-10-17T16:36:54.463Z</time>
</trkpt>
<trkpt lat="31.7540470" lon="35.0881700">
<ele>433.800018</ele>
<time>2025-10-17T16:36:54.463Z</time>
</trkpt>
<trkpt lat="31.7540890" lon="35.0882240">
<ele>433.399994</ele>
<time>2025-10-17T16:36:54.463Z</time>
</trkpt>
<trkpt lat="31.7541260" lon="35.0882660">
<ele>433.200012</ele>
<time>2025-10-17T16:36:54.463Z</time>
</trkpt>
<trkpt lat="31.7541640" lon="35.0883100">
<ele>433.399994</ele>
<time>2025-10-17T16:36:54.463Z</time>
</trkpt>
<trkpt lat="31.7541950" lon="35.0883490">
<ele>433.200012</ele>
<time>2025-10-17T16:36:54.463Z</time>
</trkpt>
<trkpt lat="31.7542400" lon="35.0884080">
<ele>433.200012</ele>
<time>2025-10-17T16:36:54.463Z</time>
</trkpt>
<trkpt lat="31.7543520" lon="35.0885380">
<ele>433.000000</ele>
<time>2025-10-17T16:36:54.464Z</time>
</trkpt>
<trkpt lat="31.7543820" lon="35.0885650">
<ele>433.000000</ele>
<time>2025-10-17T16:36:54.464Z</time>
</trkpt>
<trkpt lat="31.7544190" lon="35.0885970">
<ele>433.000000</ele>
<time>2025-10-17T16:36:54.464Z</time>
</trkpt>
<trkpt lat="31.7544630" lon="35.0886330">
<ele>433.000000</ele>
<time>2025-10-17T16:36:54.464Z</time>
</trkpt>
<trkpt lat="31.7544970" lon="35.0886610">
<ele>433.000000</ele>
<time>2025-10-17T16:36:54.464Z</time>
</trkpt>
<trkpt lat="31.7545300" lon="35.0886930">
<ele>433.000000</ele>
<time>2025-10-17T16:36:54.464Z</time>
</trkpt>
<trkpt lat="31.7546050" lon="35.0887580">
<ele>433.200012</ele>
<time>2025-10-17T16:36:54.464Z</time>
</trkpt>
<trkpt lat="31.7547540" lon="35.0888340">
<ele>433.200012</ele>
<time>2025-10-17T16:36:54.464Z</time>
</trkpt>
<trkpt lat="31.7550040" lon="35.0889410">
<ele>433.200012</ele>
<time>2025-10-17T16:36:54.464Z</time>
</trkpt>
<trkpt lat="31.7550580" lon="35.0889580">
<ele>433.200012</ele>
<time>2025-10-17T16:36:54.464Z</time>
</trkpt>
<trkpt lat="31.7551080" lon="35.0889760">
<ele>433.000000</ele>
<time>2025-10-17T16:36:54.464Z</time>
</trkpt>
<trkpt lat="31.7552050" lon="35.0890270">
<ele>432.799988</ele>
<time>2025-10-17T16:36:54.464Z</time>
</trkpt>
<trkpt lat="31.7552420" lon="35.0890390">
<ele>433.000000</ele>
<time>2025-10-17T16:36:54.464Z</time>
</trkpt>
<trkpt lat="31.7552850" lon="35.0890500">
<ele>433.000000</ele>
<time>2025-10-17T16:36:54.464Z</time>
</trkpt>
<trkpt lat="31.7553230" lon="35.0890530">
<ele>433.200012</ele>
<time>2025-10-17T16:36:54.464Z</time>
</trkpt>
<trkpt lat="31.7553620" lon="35.0890500">
<ele>433.200012</ele>
<time>2025-10-17T16:36:54.464Z</time>
</trkpt>
<trkpt lat="31.7554000" lon="35.0890440">
<ele>433.200012</ele>
<time>2025-10-17T16:36:54.464Z</time>
</trkpt>
<trkpt lat="31.7554380" lon="35.0890310">
<ele>433.200012</ele>
<time>2025-10-17T16:36:54.464Z</time>
</trkpt>
<trkpt lat="31.7554760" lon="35.0890180">
<ele>433.399994</ele>
<time>2025-10-17T16:36:54.464Z</time>
</trkpt>
<trkpt lat="31.7555090" lon="35.0890140">
<ele>433.399994</ele>
<time>2025-10-17T16:36:54.464Z</time>
</trkpt>
<trkpt lat="31.7555520" lon="35.0890060">
<ele>433.399994</ele>
<time>2025-10-17T16:36:54.464Z</time>
</trkpt>
<trkpt lat="31.7556450" lon="35.0889970">
<ele>433.800018</ele>
<time>2025-10-17T16:36:54.464Z</time>
</trkpt>
<trkpt lat="31.7557220" lon="35.0890250">
<ele>433.200012</ele>
<time>2025-10-17T16:36:54.464Z</time>
</trkpt>
<trkpt lat="31.7557520" lon="35.0890420">
<ele>433.200012</ele>
<time>2025-10-17T16:36:54.464Z</time>
</trkpt>
<trkpt lat="31.7557620" lon="35.0890500">
<ele>432.799988</ele>
<time>2025-10-17T16:36:54.464Z</time>
</trkpt>
<trkpt lat="31.7557620" lon="35.0890500">
<ele>432.600006</ele>
<time>2025-10-17T16:36:54.464Z</time>
</trkpt>
<trkpt lat="31.7557620" lon="35.0890500">
<ele>432.399994</ele>
<time>2025-10-17T16:36:54.464Z</time>
</trkpt>
<trkpt lat="31.7557620" lon="35.0890500">
<ele>432.200012</ele>
<time>2025-10-17T16:36:54.465Z</time>
</trkpt>
<trkpt lat="31.7558170" lon="35.0890840">
<ele>431.600006</ele>
<time>2025-10-17T16:36:54.465Z</time>
</trkpt>
<trkpt lat="31.7558350" lon="35.0891000">
<ele>431.600006</ele>
<time>2025-10-17T16:36:54.465Z</time>
</trkpt>
<trkpt lat="31.7558620" lon="35.0891270">
<ele>431.600006</ele>
<time>2025-10-17T16:36:54.465Z</time>
</trkpt>
<trkpt lat="31.7559110" lon="35.0891750">
<ele>431.400024</ele>
<time>2025-10-17T16:36:54.465Z</time>
</trkpt>
<trkpt lat="31.7559460" lon="35.0892100">
<ele>431.400024</ele>
<time>2025-10-17T16:36:54.465Z</time>
</trkpt>
<trkpt lat="31.7559730" lon="35.0892330">
<ele>431.199982</ele>
<time>2025-10-17T16:36:54.465Z</time>
</trkpt>
<trkpt lat="31.7560070" lon="35.0892620">
<ele>430.800018</ele>
<time>2025-10-17T16:36:54.465Z</time>
</trkpt>
<trkpt lat="31.7560420" lon="35.0892930">
<ele>430.599976</ele>
<time>2025-10-17T16:36:54.465Z</time>
</trkpt>
<trkpt lat="31.7561100" lon="35.0893500">
<ele>430.599976</ele>
<time>2025-10-17T16:36:54.465Z</time>
</trkpt>
<trkpt lat="31.7561500" lon="35.0893810">
<ele>430.599976</ele>
<time>2025-10-17T16:36:54.465Z</time>
</trkpt>
<trkpt lat="31.7561760" lon="35.0894010">
<ele>430.599976</ele>
<time>2025-10-17T16:36:54.465Z</time>
</trkpt>
<trkpt lat="31.7562440" lon="35.0894530">
<ele>430.599976</ele>
<time>2025-10-17T16:36:54.465Z</time>
</trkpt>
<trkpt lat="31.7562750" lon="35.0894810">
<ele>430.599976</ele>
<time>2025-10-17T16:36:54.465Z</time>
</trkpt>
<trkpt lat="31.7563210" lon="35.0895120">
<ele>430.800018</ele>
<time>2025-10-17T16:36:54.465Z</time>
</trkpt>
<trkpt lat="31.7563560" lon="35.0895340">
<ele>431.000000</ele>
<time>2025-10-17T16:36:54.465Z</time>
</trkpt>
<trkpt lat="31.7564950" lon="35.0896010">
<ele>431.199982</ele>
<time>2025-10-17T16:36:54.465Z</time>
</trkpt>
<trkpt lat="31.7565880" lon="35.0896370">
<ele>431.199982</ele>
<time>2025-10-17T16:36:54.465Z</time>
</trkpt>
<trkpt lat="31.7566340" lon="35.0896490">
<ele>431.199982</ele>
<time>2025-10-17T16:36:54.465Z</time>
</trkpt>
<trkpt lat="31.7566900" lon="35.0896630">
<ele>431.400024</ele>
<time>2025-10-17T16:36:54.465Z</time>
</trkpt>
<trkpt lat="31.7567430" lon="35.0896660">
<ele>431.400024</ele>
<time>2025-10-17T16:36:54.465Z</time>
</trkpt>
<trkpt lat="31.7570460" lon="35.0896330">
<ele>431.000000</ele>
<time>2025-10-17T16:36:54.465Z</time>
</trkpt>
<trkpt lat="31.7571560" lon="35.0896090">
<ele>429.600006</ele>
<time>2025-10-17T16:36:54.465Z</time>
</trkpt>
<trkpt lat="31.7572150" lon="35.0895850">
<ele>428.399994</ele>
<time>2025-10-17T16:36:54.465Z</time>
</trkpt>
<trkpt lat="31.7572810" lon="35.0895480">
<ele>427.800018</ele>
<time>2025-10-17T16:36:54.465Z</time>
</trkpt>
<trkpt lat="31.7573340" lon="35.0895090">
<ele>427.599976</ele>
<time>2025-10-17T16:36:54.465Z</time>
</trkpt>
<trkpt lat="31.7573750" lon="35.0894760">
<ele>427.200012</ele>
<time>2025-10-17T16:36:54.465Z</time>
</trkpt>
<trkpt lat="31.7574710" lon="35.0893990">
<ele>426.999969</ele>
<time>2025-10-17T16:36:54.465Z</time>
</trkpt>
<trkpt lat="31.7575600" lon="35.0893400">
<ele>426.799988</ele>
<time>2025-10-17T16:36:54.466Z</time>
</trkpt>
<trkpt lat="31.7575980" lon="35.0893190">
<ele>426.799988</ele>
<time>2025-10-17T16:36:54.466Z</time>
</trkpt>
<trkpt lat="31.7576310" lon="35.0892960">
<ele>426.799988</ele>
<time>2025-10-17T16:36:54.466Z</time>
</trkpt>
<trkpt lat="31.7576600" lon="35.0892660">
<ele>426.799988</ele>
<time>2025-10-17T16:36:54.466Z</time>
</trkpt>
<trkpt lat="31.7576890" lon="35.0892280">
<ele>426.799988</ele>
<time>2025-10-17T16:36:54.466Z</time>
</trkpt>
<trkpt lat="31.7577150" lon="35.0891940">
<ele>426.799988</ele>
<time>2025-10-17T16:36:54.466Z</time>
</trkpt>
<trkpt lat="31.7577440" lon="35.0891640">
<ele>426.799988</ele>
<time>2025-10-17T16:36:54.466Z</time>
</trkpt>
<trkpt lat="31.7577840" lon="35.0891220">
<ele>426.799988</ele>
<time>2025-10-17T16:36:54.466Z</time>
</trkpt>
<trkpt lat="31.7578010" lon="35.0890970">
<ele>426.799988</ele>
<time>2025-10-17T16:36:54.466Z</time>
</trkpt>
<trkpt lat="31.7578190" lon="35.0890760">
<ele>426.600006</ele>
<time>2025-10-17T16:36:54.466Z</time>
</trkpt>
<trkpt lat="31.7578350" lon="35.0890620">
<ele>426.600006</ele>
<time>2025-10-17T16:36:54.466Z</time>
</trkpt>
<trkpt lat="31.7578580" lon="35.0890460">
<ele>426.600006</ele>
<time>2025-10-17T16:36:54.466Z</time>
</trkpt>
<trkpt lat="31.7578830" lon="35.0890270">
<ele>426.600006</ele>
<time>2025-10-17T16:36:54.466Z</time>
</trkpt>
<trkpt lat="31.7579120" lon="35.0890050">
<ele>426.799988</ele>
<time>2025-10-17T16:36:54.466Z</time>
</trkpt>
<trkpt lat="31.7579360" lon="35.0889830">
<ele>426.799988</ele>
<time>2025-10-17T16:36:54.466Z</time>
</trkpt>
<trkpt lat="31.7579400" lon="35.0889780">
<ele>426.799988</ele>
<time>2025-10-17T16:36:54.466Z</time>
</trkpt>
<trkpt lat="31.7579400" lon="35.0889780">
<ele>426.600006</ele>
<time>2025-10-17T16:36:54.466Z</time>
</trkpt>
<trkpt lat="31.7579480" lon="35.0889500">
<ele>426.399994</ele>
<time>2025-10-17T16:36:54.466Z</time>
</trkpt>
<trkpt lat="31.7579570" lon="35.0889220">
<ele>426.199982</ele>
<time>2025-10-17T16:36:54.466Z</time>
</trkpt>
<trkpt lat="31.7579660" lon="35.0888990">
<ele>426.199982</ele>
<time>2025-10-17T16:36:54.466Z</time>
</trkpt>
<trkpt lat="31.7579760" lon="35.0888740">
<ele>426.199982</ele>
<time>2025-10-17T16:36:54.466Z</time>
</trkpt>
<trkpt lat="31.7579860" lon="35.0888460">
<ele>426.199982</ele>
<time>2025-10-17T16:36:54.466Z</time>
</trkpt>
<trkpt lat="31.7580000" lon="35.0888220">
<ele>426.199982</ele>
<time>2025-10-17T16:36:54.466Z</time>
</trkpt>
<trkpt lat="31.7580180" lon="35.0887960">
<ele>426.000000</ele>
<time>2025-10-17T16:36:54.466Z</time>
</trkpt>
<trkpt lat="31.7580220" lon="35.0887810">
<ele>425.799988</ele>
<time>2025-10-17T16:36:54.466Z</time>
</trkpt>
<trkpt lat="31.7580250" lon="35.0887640">
<ele>425.600006</ele>
<time>2025-10-17T16:36:54.466Z</time>
</trkpt>
<trkpt lat="31.7580390" lon="35.0887500">
<ele>425.399994</ele>
<time>2025-10-17T16:36:54.466Z</time>
</trkpt>
<trkpt lat="31.7580390" lon="35.0887500">
<ele>425.200012</ele>
<time>2025-10-17T16:36:54.467Z</time>
</trkpt>
<trkpt lat="31.7580800" lon="35.0887530">
<ele>424.800018</ele>
<time>2025-10-17T16:36:54.467Z</time>
</trkpt>
<trkpt lat="31.7580810" lon="35.0887530">
<ele>424.800018</ele>
<time>2025-10-17T16:36:54.467Z</time>
</trkpt>
<trkpt lat="31.7583830" lon="35.0885790">
<ele>425.399994</ele>
<time>2025-10-17T16:36:54.467Z</time>
</trkpt>
<trkpt lat="31.7584000" lon="35.0885810">
<ele>425.399994</ele>
<time>2025-10-17T16:36:54.467Z</time>
</trkpt>
<trkpt lat="31.7584160" lon="35.0885860">
<ele>425.399994</ele>
<time>2025-10-17T16:36:54.467Z</time>
</trkpt>
<trkpt lat="31.7584400" lon="35.0885940">
<ele>425.399994</ele>
<time>2025-10-17T16:36:54.467Z</time>
</trkpt>
<trkpt lat="31.7584580" lon="35.0886020">
<ele>425.600006</ele>
<time>2025-10-17T16:36:54.467Z</time>
</trkpt>
<trkpt lat="31.7584710" lon="35.0886080">
<ele>425.600006</ele>
<time>2025-10-17T16:36:54.467Z</time>
</trkpt>
<trkpt lat="31.7584870" lon="35.0886150">
<ele>425.600006</ele>
<time>2025-10-17T16:36:54.467Z</time>
</trkpt>
<trkpt lat="31.7585180" lon="35.0886280">
<ele>425.799988</ele>
<time>2025-10-17T16:36:54.467Z</time>
</trkpt>
<trkpt lat="31.7585360" lon="35.0886370">
<ele>426.000000</ele>
<time>2025-10-17T16:36:54.467Z</time>
</trkpt>
<trkpt lat="31.7585430" lon="35.0886430">
<ele>426.399994</ele>
<time>2025-10-17T16:36:54.467Z</time>
</trkpt>
<trkpt lat="31.7586210" lon="35.0885920">
<ele>428.199982</ele>
<time>2025-10-17T16:36:54.467Z</time>
</trkpt>
<trkpt lat="31.7586260" lon="35.0885690">
<ele>428.199982</ele>
<time>2025-10-17T16:36:54.467Z</time>
</trkpt>
<trkpt lat="31.7586530" lon="35.0884260">
<ele>428.000000</ele>
<time>2025-10-17T16:36:54.467Z</time>
</trkpt>
<trkpt lat="31.7586060" lon="35.0881820">
<ele>427.200012</ele>
<time>2025-10-17T16:36:54.467Z</time>
</trkpt>
<trkpt lat="31.7585150" lon="35.0879350">
<ele>426.399994</ele>
<time>2025-10-17T16:36:54.467Z</time>
</trkpt>
<trkpt lat="31.7584940" lon="35.0878850">
<ele>426.199982</ele>
<time>2025-10-17T16:36:54.467Z</time>
</trkpt>
<trkpt lat="31.7584780" lon="35.0878330">
<ele>426.199982</ele>
<time>2025-10-17T16:36:54.467Z</time>
</trkpt>
<trkpt lat="31.7584430" lon="35.0877310">
<ele>426.199982</ele>
<time>2025-10-17T16:36:54.467Z</time>
</trkpt>
<trkpt lat="31.7584190" lon="35.0876830">
<ele>426.199982</ele>
<time>2025-10-17T16:36:54.467Z</time>
</trkpt>
<trkpt lat="31.7583960" lon="35.0876340">
<ele>426.399994</ele>
<time>2025-10-17T16:36:54.467Z</time>
</trkpt>
<trkpt lat="31.7583730" lon="35.0875840">
<ele>426.600006</ele>
<time>2025-10-17T16:36:54.467Z</time>
</trkpt>
<trkpt lat="31.7582640" lon="35.0873880">
<ele>426.199982</ele>
<time>2025-10-17T16:36:54.467Z</time>
</trkpt>
<trkpt lat="31.7580680" lon="35.0870340">
<ele>425.399994</ele>
<time>2025-10-17T16:36:54.467Z</time>
</trkpt>
<trkpt lat="31.7580380" lon="35.0869790">
<ele>425.200012</ele>
<time>2025-10-17T16:36:54.467Z</time>
</trkpt>
<trkpt lat="31.7580120" lon="35.0869230">
<ele>424.600006</ele>
<time>2025-10-17T16:36:54.468Z</time>
</trkpt>
<trkpt lat="31.7579210" lon="35.0867600">
<ele>424.200012</ele>
<time>2025-10-17T16:36:54.468Z</time>
</trkpt>
<trkpt lat="31.7578480" lon="35.0866480">
<ele>424.200012</ele>
<time>2025-10-17T16:36:54.468Z</time>
</trkpt>
<trkpt lat="31.7577680" lon="35.0865410">
<ele>424.000031</ele>
<time>2025-10-17T16:36:54.468Z</time>
</trkpt>
<trkpt lat="31.7577280" lon="35.0864930">
<ele>424.000031</ele>
<time>2025-10-17T16:36:54.468Z</time>
</trkpt>
<trkpt lat="31.7576910" lon="35.0864430">
<ele>423.400024</ele>
<time>2025-10-17T16:36:54.468Z</time>
</trkpt>
<trkpt lat="31.7576570" lon="35.0863910">
<ele>423.199982</ele>
<time>2025-10-17T16:36:54.468Z</time>
</trkpt>
<trkpt lat="31.7576250" lon="35.0863360">
<ele>422.800018</ele>
<time>2025-10-17T16:36:54.468Z</time>
</trkpt>
<trkpt lat="31.7575480" lon="35.0862240">
<ele>422.800018</ele>
<time>2025-10-17T16:36:54.468Z</time>
</trkpt>
<trkpt lat="31.7573670" lon="35.0859540">
<ele>422.600006</ele>
<time>2025-10-17T16:36:54.468Z</time>
</trkpt>
<trkpt lat="31.7573410" lon="35.0859000">
<ele>422.600006</ele>
<time>2025-10-17T16:36:54.468Z</time>
</trkpt>
<trkpt lat="31.7572170" lon="35.0856940">
<ele>422.800018</ele>
<time>2025-10-17T16:36:54.468Z</time>
</trkpt>
<trkpt lat="31.7571790" lon="35.0856450">
<ele>423.000000</ele>
<time>2025-10-17T16:36:54.468Z</time>
</trkpt>
<trkpt lat="31.7571400" lon="35.0855980">
<ele>422.800018</ele>
<time>2025-10-17T16:36:54.468Z</time>
</trkpt>
<trkpt lat="31.7571060" lon="35.0855490">
<ele>422.800018</ele>
<time>2025-10-17T16:36:54.468Z</time>
</trkpt>
<trkpt lat="31.7570750" lon="35.0855000">
<ele>422.600006</ele>
<time>2025-10-17T16:36:54.468Z</time>
</trkpt>
<trkpt lat="31.7570440" lon="35.0854510">
<ele>422.399994</ele>
<time>2025-10-17T16:36:54.468Z</time>
</trkpt>
<trkpt lat="31.7570110" lon="35.0854020">
<ele>422.200012</ele>
<time>2025-10-17T16:36:54.468Z</time>
</trkpt>
<trkpt lat="31.7569380" lon="35.0853000">
<ele>422.000000</ele>
<time>2025-10-17T16:36:54.468Z</time>
</trkpt>
<trkpt lat="31.7568320" lon="35.0851400">
<ele>421.799988</ele>
<time>2025-10-17T16:36:54.468Z</time>
</trkpt>
<trkpt lat="31.7566930" lon="35.0849340">
<ele>421.600006</ele>
<time>2025-10-17T16:36:54.468Z</time>
</trkpt>
<trkpt lat="31.7566080" lon="35.0847780">
<ele>421.600006</ele>
<time>2025-10-17T16:36:54.468Z</time>
</trkpt>
<trkpt lat="31.7565890" lon="35.0847230">
<ele>421.600006</ele>
<time>2025-10-17T16:36:54.468Z</time>
</trkpt>
<trkpt lat="31.7565690" lon="35.0846630">
<ele>421.600006</ele>
<time>2025-10-17T16:36:54.468Z</time>
</trkpt>
<trkpt lat="31.7565560" lon="35.0846020">
<ele>421.600006</ele>
<time>2025-10-17T16:36:54.468Z</time>
</trkpt>
<trkpt lat="31.7565500" lon="35.0845410">
<ele>421.600006</ele>
<time>2025-10-17T16:36:54.468Z</time>
</trkpt>
<trkpt lat="31.7565410" lon="35.0844820">
<ele>421.600006</ele>
<time>2025-10-17T16:36:54.468Z</time>
</trkpt>
<trkpt lat="31.7565280" lon="35.0844230">
<ele>421.600006</ele>
<time>2025-10-17T16:36:54.468Z</time>
</trkpt>
<trkpt lat="31.7565140" lon="35.0843650">
<ele>421.600006</ele>
<time>2025-10-17T16:36:54.469Z</time>
</trkpt>
<trkpt lat="31.7565010" lon="35.0843050">
<ele>421.600006</ele>
<time>2025-10-17T16:36:54.469Z</time>
</trkpt>
<trkpt lat="31.7564860" lon="35.0842460">
<ele>421.600006</ele>
<time>2025-10-17T16:36:54.469Z</time>
</trkpt>
<trkpt lat="31.7564690" lon="35.0841890">
<ele>421.399994</ele>
<time>2025-10-17T16:36:54.469Z</time>
</trkpt>
<trkpt lat="31.7564560" lon="35.0841340">
<ele>421.000000</ele>
<time>2025-10-17T16:36:54.469Z</time>
</trkpt>
<trkpt lat="31.7564500" lon="35.0840780">
<ele>420.799988</ele>
<time>2025-10-17T16:36:54.469Z</time>
</trkpt>
<trkpt lat="31.7564470" lon="35.0839690">
<ele>420.600006</ele>
<time>2025-10-17T16:36:54.469Z</time>
</trkpt>
<trkpt lat="31.7564410" lon="35.0839150">
<ele>420.400024</ele>
<time>2025-10-17T16:36:54.469Z</time>
</trkpt>
<trkpt lat="31.7564350" lon="35.0838590">
<ele>420.400024</ele>
<time>2025-10-17T16:36:54.469Z</time>
</trkpt>
<trkpt lat="31.7564240" lon="35.0837410">
<ele>420.199982</ele>
<time>2025-10-17T16:36:54.469Z</time>
</trkpt>
<trkpt lat="31.7564050" lon="35.0836290">
<ele>420.199982</ele>
<time>2025-10-17T16:36:54.469Z</time>
</trkpt>
<trkpt lat="31.7563930" lon="35.0835750">
<ele>420.000000</ele>
<time>2025-10-17T16:36:54.469Z</time>
</trkpt>
<trkpt lat="31.7563790" lon="35.0835200">
<ele>420.000000</ele>
<time>2025-10-17T16:36:54.469Z</time>
</trkpt>
<trkpt lat="31.7563400" lon="35.0833500">
<ele>420.000000</ele>
<time>2025-10-17T16:36:54.469Z</time>
</trkpt>
<trkpt lat="31.7563230" lon="35.0832420">
<ele>419.800018</ele>
<time>2025-10-17T16:36:54.469Z</time>
</trkpt>
<trkpt lat="31.7563250" lon="35.0831490">
<ele>419.800018</ele>
<time>2025-10-17T16:36:54.469Z</time>
</trkpt>
<trkpt lat="31.7563350" lon="35.0831080">
<ele>419.200012</ele>
<time>2025-10-17T16:36:54.469Z</time>
</trkpt>
<trkpt lat="31.7563460" lon="35.0830680">
<ele>419.000000</ele>
<time>2025-10-17T16:36:54.469Z</time>
</trkpt>
<trkpt lat="31.7563580" lon="35.0830280">
<ele>419.200012</ele>
<time>2025-10-17T16:36:54.469Z</time>
</trkpt>
<trkpt lat="31.7563720" lon="35.0829910">
<ele>419.599976</ele>
<time>2025-10-17T16:36:54.469Z</time>
</trkpt>
<trkpt lat="31.7563870" lon="35.0829580">
<ele>419.800018</ele>
<time>2025-10-17T16:36:54.469Z</time>
</trkpt>
<trkpt lat="31.7564040" lon="35.0829300">
<ele>420.199982</ele>
<time>2025-10-17T16:36:54.469Z</time>
</trkpt>
<trkpt lat="31.7564230" lon="35.0829060">
<ele>420.199982</ele>
<time>2025-10-17T16:36:54.469Z</time>
</trkpt>
<trkpt lat="31.7564400" lon="35.0828840">
<ele>420.600006</ele>
<time>2025-10-17T16:36:54.469Z</time>
</trkpt>
<trkpt lat="31.7564550" lon="35.0828630">
<ele>420.799988</ele>
<time>2025-10-17T16:36:54.469Z</time>
</trkpt>
<trkpt lat="31.7564690" lon="35.0828440">
<ele>421.200012</ele>
<time>2025-10-17T16:36:54.469Z</time>
</trkpt>
<trkpt lat="31.7564840" lon="35.0828260">
<ele>421.399994</ele>
<time>2025-10-17T16:36:54.469Z</time>
</trkpt>
<trkpt lat="31.7564980" lon="35.0828120">
<ele>421.600006</ele>
<time>2025-10-17T16:36:54.469Z</time>
</trkpt>
<trkpt lat="31.7565120" lon="35.0828000">
<ele>421.799988</ele>
<time>2025-10-17T16:36:54.470Z</time>
</trkpt>
<trkpt lat="31.7565260" lon="35.0827880">
<ele>422.000000</ele>
<time>2025-10-17T16:36:54.470Z</time>
</trkpt>
<trkpt lat="31.7565370" lon="35.0827760">
<ele>422.200012</ele>
<time>2025-10-17T16:36:54.470Z</time>
</trkpt>
<trkpt lat="31.7565500" lon="35.0827650">
<ele>422.399994</ele>
<time>2025-10-17T16:36:54.470Z</time>
</trkpt>
<trkpt lat="31.7565640" lon="35.0827510">
<ele>423.000000</ele>
<time>2025-10-17T16:36:54.470Z</time>
</trkpt>
<trkpt lat="31.7565880" lon="35.0827270">
<ele>423.400024</ele>
<time>2025-10-17T16:36:54.470Z</time>
</trkpt>
<trkpt lat="31.7566030" lon="35.0827130">
<ele>423.400024</ele>
<time>2025-10-17T16:36:54.470Z</time>
</trkpt>
<trkpt lat="31.7566190" lon="35.0826950">
<ele>423.600006</ele>
<time>2025-10-17T16:36:54.470Z</time>
</trkpt>
<trkpt lat="31.7566390" lon="35.0826730">
<ele>423.600006</ele>
<time>2025-10-17T16:36:54.470Z</time>
</trkpt>
<trkpt lat="31.7566610" lon="35.0826500">
<ele>423.799988</ele>
<time>2025-10-17T16:36:54.470Z</time>
</trkpt>
<trkpt lat="31.7566830" lon="35.0826280">
<ele>424.200012</ele>
<time>2025-10-17T16:36:54.470Z</time>
</trkpt>
<trkpt lat="31.7567060" lon="35.0826080">
<ele>424.399994</ele>
<time>2025-10-17T16:36:54.470Z</time>
</trkpt>
<trkpt lat="31.7567240" lon="35.0825900">
<ele>424.800018</ele>
<time>2025-10-17T16:36:54.470Z</time>
</trkpt>
<trkpt lat="31.7567420" lon="35.0825680">
<ele>425.000000</ele>
<time>2025-10-17T16:36:54.470Z</time>
</trkpt>
<trkpt lat="31.7567590" lon="35.0825470">
<ele>425.200012</ele>
<time>2025-10-17T16:36:54.470Z</time>
</trkpt>
<trkpt lat="31.7567750" lon="35.0825280">
<ele>425.200012</ele>
<time>2025-10-17T16:36:54.470Z</time>
</trkpt>
<trkpt lat="31.7567910" lon="35.0825120">
<ele>425.200012</ele>
<time>2025-10-17T16:36:54.470Z</time>
</trkpt>
<trkpt lat="31.7568100" lon="35.0824960">
<ele>425.200012</ele>
<time>2025-10-17T16:36:54.470Z</time>
</trkpt>
<trkpt lat="31.7568270" lon="35.0824790">
<ele>425.399994</ele>
<time>2025-10-17T16:36:54.470Z</time>
</trkpt>
<trkpt lat="31.7568430" lon="35.0824600">
<ele>425.799988</ele>
<time>2025-10-17T16:36:54.470Z</time>
</trkpt>
<trkpt lat="31.7568570" lon="35.0824430">
<ele>425.799988</ele>
<time>2025-10-17T16:36:54.470Z</time>
</trkpt>
<trkpt lat="31.7568710" lon="35.0824240">
<ele>425.799988</ele>
<time>2025-10-17T16:36:54.470Z</time>
</trkpt>
<trkpt lat="31.7568830" lon="35.0824020">
<ele>426.000000</ele>
<time>2025-10-17T16:36:54.470Z</time>
</trkpt>
<trkpt lat="31.7568960" lon="35.0823780">
<ele>426.199982</ele>
<time>2025-10-17T16:36:54.470Z</time>
</trkpt>
<trkpt lat="31.7569090" lon="35.0823550">
<ele>426.399994</ele>
<time>2025-10-17T16:36:54.470Z</time>
</trkpt>
<trkpt lat="31.7569200" lon="35.0823310">
<ele>426.600006</ele>
<time>2025-10-17T16:36:54.470Z</time>
</trkpt>
<trkpt lat="31.7569350" lon="35.0823050">
<ele>426.600006</ele>
<time>2025-10-17T16:36:54.470Z</time>
</trkpt>
<trkpt lat="31.7569500" lon="35.0822810">
<ele>426.799988</ele>
<time>2025-10-17T16:36:54.470Z</time>
</trkpt>
<trkpt lat="31.7569630" lon="35.0822550">
<ele>426.799988</ele>
<time>2025-10-17T16:36:54.471Z</time>
</trkpt>
<trkpt lat="31.7569770" lon="35.0822300">
<ele>426.999969</ele>
<time>2025-10-17T16:36:54.471Z</time>
</trkpt>
<trkpt lat="31.7569950" lon="35.0822040">
<ele>426.999969</ele>
<time>2025-10-17T16:36:54.471Z</time>
</trkpt>
<trkpt lat="31.7570140" lon="35.0821740">
<ele>426.999969</ele>
<time>2025-10-17T16:36:54.471Z</time>
</trkpt>
<trkpt lat="31.7570340" lon="35.0821450">
<ele>426.999969</ele>
<time>2025-10-17T16:36:54.471Z</time>
</trkpt>
<trkpt lat="31.7570500" lon="35.0821200">
<ele>426.999969</ele>
<time>2025-10-17T16:36:54.471Z</time>
</trkpt>
<trkpt lat="31.7570660" lon="35.0820990">
<ele>427.200012</ele>
<time>2025-10-17T16:36:54.471Z</time>
</trkpt>
<trkpt lat="31.7570830" lon="35.0820760">
<ele>427.200012</ele>
<time>2025-10-17T16:36:54.471Z</time>
</trkpt>
<trkpt lat="31.7570980" lon="35.0820530">
<ele>427.200012</ele>
<time>2025-10-17T16:36:54.471Z</time>
</trkpt>
<trkpt lat="31.7571130" lon="35.0820320">
<ele>427.200012</ele>
<time>2025-10-17T16:36:54.471Z</time>
</trkpt>
<trkpt lat="31.7571280" lon="35.0820110">
<ele>427.399994</ele>
<time>2025-10-17T16:36:54.471Z</time>
</trkpt>
<trkpt lat="31.7571430" lon="35.0819920">
<ele>427.399994</ele>
<time>2025-10-17T16:36:54.471Z</time>
</trkpt>
<trkpt lat="31.7571580" lon="35.0819760">
<ele>427.399994</ele>
<time>2025-10-17T16:36:54.471Z</time>
</trkpt>
<trkpt lat="31.7571710" lon="35.0819610">
<ele>427.599976</ele>
<time>2025-10-17T16:36:54.471Z</time>
</trkpt>
<trkpt lat="31.7571830" lon="35.0819490">
<ele>427.599976</ele>
<time>2025-10-17T16:36:54.471Z</time>
</trkpt>
<trkpt lat="31.7571950" lon="35.0819350">
<ele>427.800018</ele>
<time>2025-10-17T16:36:54.471Z</time>
</trkpt>
<trkpt lat="31.7572080" lon="35.0819200">
<ele>428.000000</ele>
<time>2025-10-17T16:36:54.471Z</time>
</trkpt>
<trkpt lat="31.7572220" lon="35.0819060">
<ele>428.399994</ele>
<time>2025-10-17T16:36:54.471Z</time>
</trkpt>
<trkpt lat="31.7572350" lon="35.0818910">
<ele>428.799988</ele>
<time>2025-10-17T16:36:54.471Z</time>
</trkpt>
<trkpt lat="31.7572490" lon="35.0818780">
<ele>429.000000</ele>
<time>2025-10-17T16:36:54.471Z</time>
</trkpt>
<trkpt lat="31.7572620" lon="35.0818620">
<ele>429.000000</ele>
<time>2025-10-17T16:36:54.471Z</time>
</trkpt>
<trkpt lat="31.7572750" lon="35.0818470">
<ele>429.399994</ele>
<time>2025-10-17T16:36:54.471Z</time>
</trkpt>
<trkpt lat="31.7572860" lon="35.0818330">
<ele>429.399994</ele>
<time>2025-10-17T16:36:54.471Z</time>
</trkpt>
<trkpt lat="31.7572980" lon="35.0818220">
<ele>429.600006</ele>
<time>2025-10-17T16:36:54.471Z</time>
</trkpt>
<trkpt lat="31.7573090" lon="35.0818140">
<ele>429.799988</ele>
<time>2025-10-17T16:36:54.471Z</time>
</trkpt>
<trkpt lat="31.7573220" lon="35.0818020">
<ele>429.799988</ele>
<time>2025-10-17T16:36:54.471Z</time>
</trkpt>
<trkpt lat="31.7573340" lon="35.0817960">
<ele>430.000000</ele>
<time>2025-10-17T16:36:54.471Z</time>
</trkpt>
<trkpt lat="31.7573460" lon="35.0817910">
<ele>430.200012</ele>
<time>2025-10-17T16:36:54.472Z</time>
</trkpt>
<trkpt lat="31.7573570" lon="35.0817860">
<ele>430.399994</ele>
<time>2025-10-17T16:36:54.472Z</time>
</trkpt>
<trkpt lat="31.7573710" lon="35.0817820">
<ele>430.599976</ele>
<time>2025-10-17T16:36:54.472Z</time>
</trkpt>
<trkpt lat="31.7573850" lon="35.0817770">
<ele>430.800018</ele>
<time>2025-10-17T16:36:54.472Z</time>
</trkpt>
<trkpt lat="31.7574010" lon="35.0817700">
<ele>431.000000</ele>
<time>2025-10-17T16:36:54.472Z</time>
</trkpt>
<trkpt lat="31.7574180" lon="35.0817600">
<ele>431.000000</ele>
<time>2025-10-17T16:36:54.472Z</time>
</trkpt>
<trkpt lat="31.7574370" lon="35.0817490">
<ele>431.199982</ele>
<time>2025-10-17T16:36:54.472Z</time>
</trkpt>
<trkpt lat="31.7574560" lon="35.0817400">
<ele>431.400024</ele>
<time>2025-10-17T16:36:54.472Z</time>
</trkpt>
<trkpt lat="31.7574730" lon="35.0817320">
<ele>431.600006</ele>
<time>2025-10-17T16:36:54.472Z</time>
</trkpt>
<trkpt lat="31.7574860" lon="35.0817200">
<ele>431.799988</ele>
<time>2025-10-17T16:36:54.472Z</time>
</trkpt>
<trkpt lat="31.7574980" lon="35.0817110">
<ele>431.799988</ele>
<time>2025-10-17T16:36:54.472Z</time>
</trkpt>
<trkpt lat="31.7575100" lon="35.0817020">
<ele>432.000000</ele>
<time>2025-10-17T16:36:54.472Z</time>
</trkpt>
<trkpt lat="31.7575230" lon="35.0816960">
<ele>432.200012</ele>
<time>2025-10-17T16:36:54.472Z</time>
</trkpt>
<trkpt lat="31.7575360" lon="35.0816910">
<ele>432.399994</ele>
<time>2025-10-17T16:36:54.472Z</time>
</trkpt>
<trkpt lat="31.7575480" lon="35.0816850">
<ele>432.600006</ele>
<time>2025-10-17T16:36:54.472Z</time>
</trkpt>
<trkpt lat="31.7575620" lon="35.0816790">
<ele>433.000000</ele>
<time>2025-10-17T16:36:54.472Z</time>
</trkpt>
<trkpt lat="31.7575770" lon="35.0816730">
<ele>433.200012</ele>
<time>2025-10-17T16:36:54.472Z</time>
</trkpt>
<trkpt lat="31.7575930" lon="35.0816690">
<ele>433.399994</ele>
<time>2025-10-17T16:36:54.472Z</time>
</trkpt>
<trkpt lat="31.7576090" lon="35.0816630">
<ele>433.599976</ele>
<time>2025-10-17T16:36:54.472Z</time>
</trkpt>
<trkpt lat="31.7576230" lon="35.0816560">
<ele>433.800018</ele>
<time>2025-10-17T16:36:54.472Z</time>
</trkpt>
<trkpt lat="31.7576400" lon="35.0816490">
<ele>434.000000</ele>
<time>2025-10-17T16:36:54.472Z</time>
</trkpt>
<trkpt lat="31.7576560" lon="35.0816440">
<ele>434.400024</ele>
<time>2025-10-17T16:36:54.472Z</time>
</trkpt>
<trkpt lat="31.7576720" lon="35.0816370">
<ele>434.600006</ele>
<time>2025-10-17T16:36:54.472Z</time>
</trkpt>
<trkpt lat="31.7576910" lon="35.0816330">
<ele>434.799988</ele>
<time>2025-10-17T16:36:54.472Z</time>
</trkpt>
<trkpt lat="31.7577070" lon="35.0816300">
<ele>435.000031</ele>
<time>2025-10-17T16:36:54.472Z</time>
</trkpt>
<trkpt lat="31.7577220" lon="35.0816270">
<ele>435.000031</ele>
<time>2025-10-17T16:36:54.472Z</time>
</trkpt>
<trkpt lat="31.7577350" lon="35.0816230">
<ele>435.200012</ele>
<time>2025-10-17T16:36:54.472Z</time>
</trkpt>
<trkpt lat="31.7577490" lon="35.0816210">
<ele>435.200012</ele>
<time>2025-10-17T16:36:54.472Z</time>
</trkpt>
<trkpt lat="31.7577620" lon="35.0816190">
<ele>435.800018</ele>
<time>2025-10-17T16:36:54.473Z</time>
</trkpt>
<trkpt lat="31.7577760" lon="35.0816150">
<ele>435.800018</ele>
<time>2025-10-17T16:36:54.473Z</time>
</trkpt>
<trkpt lat="31.7577930" lon="35.0816100">
<ele>436.000000</ele>
<time>2025-10-17T16:36:54.473Z</time>
</trkpt>
<trkpt lat="31.7578100" lon="35.0816070">
<ele>436.000000</ele>
<time>2025-10-17T16:36:54.473Z</time>
</trkpt>
<trkpt lat="31.7578270" lon="35.0816040">
<ele>436.200012</ele>
<time>2025-10-17T16:36:54.473Z</time>
</trkpt>
<trkpt lat="31.7578440" lon="35.0816030">
<ele>436.399994</ele>
<time>2025-10-17T16:36:54.473Z</time>
</trkpt>
<trkpt lat="31.7578590" lon="35.0815980">
<ele>436.600006</ele>
<time>2025-10-17T16:36:54.473Z</time>
</trkpt>
<trkpt lat="31.7578750" lon="35.0815960">
<ele>436.800018</ele>
<time>2025-10-17T16:36:54.473Z</time>
</trkpt>
<trkpt lat="31.7578920" lon="35.0815950">
<ele>436.800018</ele>
<time>2025-10-17T16:36:54.473Z</time>
</trkpt>
<trkpt lat="31.7579080" lon="35.0815930">
<ele>437.000000</ele>
<time>2025-10-17T16:36:54.473Z</time>
</trkpt>
<trkpt lat="31.7579250" lon="35.0815920">
<ele>437.199982</ele>
<time>2025-10-17T16:36:54.473Z</time>
</trkpt>
<trkpt lat="31.7579400" lon="35.0815890">
<ele>437.199982</ele>
<time>2025-10-17T16:36:54.473Z</time>
</trkpt>
<trkpt lat="31.7579530" lon="35.0815880">
<ele>437.199982</ele>
<time>2025-10-17T16:36:54.473Z</time>
</trkpt>
<trkpt lat="31.7579660" lon="35.0815860">
<ele>437.600006</ele>
<time>2025-10-17T16:36:54.473Z</time>
</trkpt>
<trkpt lat="31.7579800" lon="35.0815810">
<ele>437.600006</ele>
<time>2025-10-17T16:36:54.473Z</time>
</trkpt>
<trkpt lat="31.7579950" lon="35.0815770">
<ele>437.799988</ele>
<time>2025-10-17T16:36:54.473Z</time>
</trkpt>
<trkpt lat="31.7580090" lon="35.0815710">
<ele>437.799988</ele>
<time>2025-10-17T16:36:54.473Z</time>
</trkpt>
<trkpt lat="31.7580250" lon="35.0815660">
<ele>438.000031</ele>
<time>2025-10-17T16:36:54.473Z</time>
</trkpt>
<trkpt lat="31.7580410" lon="35.0815640">
<ele>438.200012</ele>
<time>2025-10-17T16:36:54.473Z</time>
</trkpt>
<trkpt lat="31.7580570" lon="35.0815630">
<ele>438.399994</ele>
<time>2025-10-17T16:36:54.473Z</time>
</trkpt>
<trkpt lat="31.7580690" lon="35.0815590">
<ele>438.399994</ele>
<time>2025-10-17T16:36:54.473Z</time>
</trkpt>
<trkpt lat="31.7580830" lon="35.0815540">
<ele>438.599976</ele>
<time>2025-10-17T16:36:54.473Z</time>
</trkpt>
<trkpt lat="31.7580980" lon="35.0815490">
<ele>438.599976</ele>
<time>2025-10-17T16:36:54.473Z</time>
</trkpt>
<trkpt lat="31.7581150" lon="35.0815430">
<ele>438.599976</ele>
<time>2025-10-17T16:36:54.473Z</time>
</trkpt>
<trkpt lat="31.7581290" lon="35.0815370">
<ele>438.800018</ele>
<time>2025-10-17T16:36:54.473Z</time>
</trkpt>
<trkpt lat="31.7581430" lon="35.0815300">
<ele>438.800018</ele>
<time>2025-10-17T16:36:54.473Z</time>
</trkpt>
<trkpt lat="31.7581570" lon="35.0815250">
<ele>439.000000</ele>
<time>2025-10-17T16:36:54.473Z</time>
</trkpt>
<trkpt lat="31.7581690" lon="35.0815190">
<ele>439.000000</ele>
<time>2025-10-17T16:36:54.474Z</time>
</trkpt>
<trkpt lat="31.7581820" lon="35.0815120">
<ele>439.199982</ele>
<time>2025-10-17T16:36:54.474Z</time>
</trkpt>
<trkpt lat="31.7581950" lon="35.0815020">
<ele>439.600006</ele>
<time>2025-10-17T16:36:54.474Z</time>
</trkpt>
<trkpt lat="31.7582090" lon="35.0814900">
<ele>439.600006</ele>
<time>2025-10-17T16:36:54.474Z</time>
</trkpt>
<trkpt lat="31.7582230" lon="35.0814790">
<ele>440.000000</ele>
<time>2025-10-17T16:36:54.474Z</time>
</trkpt>
<trkpt lat="31.7582360" lon="35.0814710">
<ele>440.000000</ele>
<time>2025-10-17T16:36:54.474Z</time>
</trkpt>
<trkpt lat="31.7582480" lon="35.0814650">
<ele>440.199982</ele>
<time>2025-10-17T16:36:54.474Z</time>
</trkpt>
<trkpt lat="31.7582610" lon="35.0814560">
<ele>440.399994</ele>
<time>2025-10-17T16:36:54.474Z</time>
</trkpt>
<trkpt lat="31.7582750" lon="35.0814430">
<ele>440.600006</ele>
<time>2025-10-17T16:36:54.474Z</time>
</trkpt>
<trkpt lat="31.7582890" lon="35.0814300">
<ele>440.600006</ele>
<time>2025-10-17T16:36:54.474Z</time>
</trkpt>
<trkpt lat="31.7583040" lon="35.0814200">
<ele>440.999969</ele>
<time>2025-10-17T16:36:54.474Z</time>
</trkpt>
<trkpt lat="31.7583140" lon="35.0814110">
<ele>441.200012</ele>
<time>2025-10-17T16:36:54.474Z</time>
</trkpt>
<trkpt lat="31.7583220" lon="35.0813980">
<ele>441.200012</ele>
<time>2025-10-17T16:36:54.474Z</time>
</trkpt>
<trkpt lat="31.7583320" lon="35.0813880">
<ele>441.200012</ele>
<time>2025-10-17T16:36:54.474Z</time>
</trkpt>
<trkpt lat="31.7583450" lon="35.0813780">
<ele>441.399994</ele>
<time>2025-10-17T16:36:54.474Z</time>
</trkpt>
<trkpt lat="31.7583570" lon="35.0813650">
<ele>441.599976</ele>
<time>2025-10-17T16:36:54.474Z</time>
</trkpt>
<trkpt lat="31.7583680" lon="35.0813550">
<ele>441.800018</ele>
<time>2025-10-17T16:36:54.474Z</time>
</trkpt>
<trkpt lat="31.7583790" lon="35.0813420">
<ele>442.000000</ele>
<time>2025-10-17T16:36:54.474Z</time>
</trkpt>
<trkpt lat="31.7583880" lon="35.0813270">
<ele>442.400024</ele>
<time>2025-10-17T16:36:54.474Z</time>
</trkpt>
<trkpt lat="31.7583970" lon="35.0813130">
<ele>442.600006</ele>
<time>2025-10-17T16:36:54.474Z</time>
</trkpt>
<trkpt lat="31.7584060" lon="35.0813000">
<ele>442.799988</ele>
<time>2025-10-17T16:36:54.474Z</time>
</trkpt>
<trkpt lat="31.7584140" lon="35.0812880">
<ele>443.000000</ele>
<time>2025-10-17T16:36:54.474Z</time>
</trkpt>
<trkpt lat="31.7584220" lon="35.0812710">
<ele>443.200012</ele>
<time>2025-10-17T16:36:54.474Z</time>
</trkpt>
<trkpt lat="31.7584310" lon="35.0812570">
<ele>443.399994</ele>
<time>2025-10-17T16:36:54.474Z</time>
</trkpt>
<trkpt lat="31.7584410" lon="35.0812440">
<ele>443.799988</ele>
<time>2025-10-17T16:36:54.474Z</time>
</trkpt>
<trkpt lat="31.7584520" lon="35.0812310">
<ele>444.000000</ele>
<time>2025-10-17T16:36:54.475Z</time>
</trkpt>
<trkpt lat="31.7584600" lon="35.0812180">
<ele>444.200012</ele>
<time>2025-10-17T16:36:54.475Z</time>
</trkpt>
<trkpt lat="31.7584690" lon="35.0812070">
<ele>444.200012</ele>
<time>2025-10-17T16:36:54.475Z</time>
</trkpt>
<trkpt lat="31.7584790" lon="35.0811980">
<ele>444.399994</ele>
<time>2025-10-17T16:36:54.475Z</time>
</trkpt>
<trkpt lat="31.7584880" lon="35.0811880">
<ele>444.800018</ele>
<time>2025-10-17T16:36:54.475Z</time>
</trkpt>
<trkpt lat="31.7584970" lon="35.0811760">
<ele>445.199982</ele>
<time>2025-10-17T16:36:54.475Z</time>
</trkpt>
<trkpt lat="31.7585070" lon="35.0811630">
<ele>445.799988</ele>
<time>2025-10-17T16:36:54.475Z</time>
</trkpt>
<trkpt lat="31.7585180" lon="35.0811510">
<ele>446.000000</ele>
<time>2025-10-17T16:36:54.475Z</time>
</trkpt>
<trkpt lat="31.7585310" lon="35.0811390">
<ele>446.200012</ele>
<time>2025-10-17T16:36:54.475Z</time>
</trkpt>
<trkpt lat="31.7585440" lon="35.0811320">
<ele>446.399994</ele>
<time>2025-10-17T16:36:54.475Z</time>
</trkpt>
<trkpt lat="31.7585590" lon="35.0811270">
<ele>446.600006</ele>
<time>2025-10-17T16:36:54.475Z</time>
</trkpt>
<trkpt lat="31.7585740" lon="35.0811220">
<ele>446.799988</ele>
<time>2025-10-17T16:36:54.475Z</time>
</trkpt>
<trkpt lat="31.7585870" lon="35.0811130">
<ele>446.799988</ele>
<time>2025-10-17T16:36:54.475Z</time>
</trkpt>
<trkpt lat="31.7586000" lon="35.0811020">
<ele>447.200012</ele>
<time>2025-10-17T16:36:54.475Z</time>
</trkpt>
<trkpt lat="31.7586130" lon="35.0810950">
<ele>447.200012</ele>
<time>2025-10-17T16:36:54.475Z</time>
</trkpt>
<trkpt lat="31.7586250" lon="35.0810880">
<ele>447.399994</ele>
<time>2025-10-17T16:36:54.475Z</time>
</trkpt>
<trkpt lat="31.7586390" lon="35.0810860">
<ele>447.599976</ele>
<time>2025-10-17T16:36:54.475Z</time>
</trkpt>
<trkpt lat="31.7586560" lon="35.0810870">
<ele>447.800018</ele>
<time>2025-10-17T16:36:54.475Z</time>
</trkpt>
<trkpt lat="31.7586730" lon="35.0810840">
<ele>448.000000</ele>
<time>2025-10-17T16:36:54.475Z</time>
</trkpt>
<trkpt lat="31.7586880" lon="35.0810790">
<ele>448.199982</ele>
<time>2025-10-17T16:36:54.475Z</time>
</trkpt>
<trkpt lat="31.7586980" lon="35.0810730">
<ele>448.199982</ele>
<time>2025-10-17T16:36:54.475Z</time>
</trkpt>
<trkpt lat="31.7587070" lon="35.0810660">
<ele>448.400024</ele>
<time>2025-10-17T16:36:54.475Z</time>
</trkpt>
<trkpt lat="31.7587160" lon="35.0810610">
<ele>448.600006</ele>
<time>2025-10-17T16:36:54.475Z</time>
</trkpt>
<trkpt lat="31.7587260" lon="35.0810540">
<ele>449.000031</ele>
<time>2025-10-17T16:36:54.475Z</time>
</trkpt>
<trkpt lat="31.7587350" lon="35.0810460">
<ele>449.200012</ele>
<time>2025-10-17T16:36:54.475Z</time>
</trkpt>
<trkpt lat="31.7587410" lon="35.0810370">
<ele>449.200012</ele>
<time>2025-10-17T16:36:54.475Z</time>
</trkpt>
<trkpt lat="31.7587520" lon="35.0810290">
<ele>449.399994</ele>
<time>2025-10-17T16:36:54.475Z</time>
</trkpt>
<trkpt lat="31.7587640" lon="35.0810200">
<ele>449.600006</ele>
<time>2025-10-17T16:36:54.475Z</time>
</trkpt>
<trkpt lat="31.7587750" lon="35.0810090">
<ele>449.600006</ele>
<time>2025-10-17T16:36:54.476Z</time>
</trkpt>
<trkpt lat="31.7587840" lon="35.0810010">
<ele>449.800018</ele>
<time>2025-10-17T16:36:54.476Z</time>
</trkpt>
<trkpt lat="31.7587930" lon="35.0809900">
<ele>450.200012</ele>
<time>2025-10-17T16:36:54.476Z</time>
</trkpt>
<trkpt lat="31.7588030" lon="35.0809800">
<ele>450.399994</ele>
<time>2025-10-17T16:36:54.476Z</time>
</trkpt>
<trkpt lat="31.7588140" lon="35.0809700">
<ele>450.600006</ele>
<time>2025-10-17T16:36:54.476Z</time>
</trkpt>
<trkpt lat="31.7588250" lon="35.0809580">
<ele>450.800018</ele>
<time>2025-10-17T16:36:54.476Z</time>
</trkpt>
<trkpt lat="31.7588340" lon="35.0809420">
<ele>450.800018</ele>
<time>2025-10-17T16:36:54.476Z</time>
</trkpt>
<trkpt lat="31.7588420" lon="35.0809270">
<ele>451.000000</ele>
<time>2025-10-17T16:36:54.476Z</time>
</trkpt>
<trkpt lat="31.7588530" lon="35.0809130">
<ele>451.199982</ele>
<time>2025-10-17T16:36:54.476Z</time>
</trkpt>
<trkpt lat="31.7588650" lon="35.0809000">
<ele>451.199982</ele>
<time>2025-10-17T16:36:54.476Z</time>
</trkpt>
<trkpt lat="31.7588750" lon="35.0808880">
<ele>451.399994</ele>
<time>2025-10-17T16:36:54.476Z</time>
</trkpt>
<trkpt lat="31.7588860" lon="35.0808770">
<ele>451.399994</ele>
<time>2025-10-17T16:36:54.476Z</time>
</trkpt>
<trkpt lat="31.7588960" lon="35.0808650">
<ele>451.600006</ele>
<time>2025-10-17T16:36:54.476Z</time>
</trkpt>
<trkpt lat="31.7589060" lon="35.0808520">
<ele>451.799988</ele>
<time>2025-10-17T16:36:54.476Z</time>
</trkpt>
<trkpt lat="31.7589140" lon="35.0808390">
<ele>451.999969</ele>
<time>2025-10-17T16:36:54.476Z</time>
</trkpt>
<trkpt lat="31.7589180" lon="35.0808270">
<ele>452.200012</ele>
<time>2025-10-17T16:36:54.476Z</time>
</trkpt>
<trkpt lat="31.7589240" lon="35.0808080">
<ele>452.599976</ele>
<time>2025-10-17T16:36:54.476Z</time>
</trkpt>
<trkpt lat="31.7589320" lon="35.0807940">
<ele>452.800018</ele>
<time>2025-10-17T16:36:54.476Z</time>
</trkpt>
<trkpt lat="31.7589390" lon="35.0807830">
<ele>452.800018</ele>
<time>2025-10-17T16:36:54.476Z</time>
</trkpt>
<trkpt lat="31.7589460" lon="35.0807720">
<ele>453.000000</ele>
<time>2025-10-17T16:36:54.476Z</time>
</trkpt>
<trkpt lat="31.7589560" lon="35.0807630">
<ele>453.000000</ele>
<time>2025-10-17T16:36:54.476Z</time>
</trkpt>
<trkpt lat="31.7589680" lon="35.0807560">
<ele>453.199982</ele>
<time>2025-10-17T16:36:54.476Z</time>
</trkpt>
<trkpt lat="31.7589800" lon="35.0807520">
<ele>453.399994</ele>
<time>2025-10-17T16:36:54.476Z</time>
</trkpt>
<trkpt lat="31.7589930" lon="35.0807460">
<ele>453.600006</ele>
<time>2025-10-17T16:36:54.476Z</time>
</trkpt>
<trkpt lat="31.7590080" lon="35.0807470">
<ele>453.799988</ele>
<time>2025-10-17T16:36:54.476Z</time>
</trkpt>
<trkpt lat="31.7590220" lon="35.0807500">
<ele>454.000000</ele>
<time>2025-10-17T16:36:54.476Z</time>
</trkpt>
<trkpt lat="31.7590350" lon="35.0807570">
<ele>454.000000</ele>
<time>2025-10-17T16:36:54.476Z</time>
</trkpt>
<trkpt lat="31.7590480" lon="35.0807670">
<ele>454.000000</ele>
<time>2025-10-17T16:36:54.477Z</time>
</trkpt>
<trkpt lat="31.7590650" lon="35.0807770">
<ele>454.000000</ele>
<time>2025-10-17T16:36:54.477Z</time>
</trkpt>
<trkpt lat="31.7590840" lon="35.0807930">
<ele>454.000000</ele>
<time>2025-10-17T16:36:54.477Z</time>
</trkpt>
<trkpt lat="31.7591020" lon="35.0808140">
<ele>454.200012</ele>
<time>2025-10-17T16:36:54.477Z</time>
</trkpt>
<trkpt lat="31.7591180" lon="35.0808400">
<ele>454.200012</ele>
<time>2025-10-17T16:36:54.477Z</time>
</trkpt>
<trkpt lat="31.7591320" lon="35.0808700">
<ele>454.200012</ele>
<time>2025-10-17T16:36:54.477Z</time>
</trkpt>
<trkpt lat="31.7591510" lon="35.0809010">
<ele>454.200012</ele>
<time>2025-10-17T16:36:54.477Z</time>
</trkpt>
<trkpt lat="31.7591740" lon="35.0809330">
<ele>454.200012</ele>
<time>2025-10-17T16:36:54.477Z</time>
</trkpt>
<trkpt lat="31.7591970" lon="35.0809680">
<ele>454.200012</ele>
<time>2025-10-17T16:36:54.477Z</time>
</trkpt>
<trkpt lat="31.7592170" lon="35.0810010">
<ele>454.000000</ele>
<time>2025-10-17T16:36:54.477Z</time>
</trkpt>
<trkpt lat="31.7592320" lon="35.0810370">
<ele>453.799988</ele>
<time>2025-10-17T16:36:54.477Z</time>
</trkpt>
<trkpt lat="31.7592480" lon="35.0810650">
<ele>453.799988</ele>
<time>2025-10-17T16:36:54.477Z</time>
</trkpt>
<trkpt lat="31.7592670" lon="35.0810900">
<ele>453.799988</ele>
<time>2025-10-17T16:36:54.477Z</time>
</trkpt>
<trkpt lat="31.7592870" lon="35.0811150">
<ele>453.600006</ele>
<time>2025-10-17T16:36:54.477Z</time>
</trkpt>
<trkpt lat="31.7593090" lon="35.0811400">
<ele>453.399994</ele>
<time>2025-10-17T16:36:54.477Z</time>
</trkpt>
<trkpt lat="31.7593720" lon="35.0812160">
<ele>453.399994</ele>
<time>2025-10-17T16:36:54.477Z</time>
</trkpt>
<trkpt lat="31.7593950" lon="35.0812420">
<ele>453.399994</ele>
<time>2025-10-17T16:36:54.477Z</time>
</trkpt>
<trkpt lat="31.7594140" lon="35.0812620">
<ele>453.399994</ele>
<time>2025-10-17T16:36:54.477Z</time>
</trkpt>
<trkpt lat="31.7594330" lon="35.0812830">
<ele>453.399994</ele>
<time>2025-10-17T16:36:54.477Z</time>
</trkpt>
<trkpt lat="31.7594530" lon="35.0813050">
<ele>453.399994</ele>
<time>2025-10-17T16:36:54.477Z</time>
</trkpt>
<trkpt lat="31.7594720" lon="35.0813260">
<ele>453.600006</ele>
<time>2025-10-17T16:36:54.477Z</time>
</trkpt>
<trkpt lat="31.7594890" lon="35.0813440">
<ele>453.600006</ele>
<time>2025-10-17T16:36:54.477Z</time>
</trkpt>
<trkpt lat="31.7595080" lon="35.0813600">
<ele>454.000000</ele>
<time>2025-10-17T16:36:54.477Z</time>
</trkpt>
<trkpt lat="31.7595230" lon="35.0813790">
<ele>454.399994</ele>
<time>2025-10-17T16:36:54.477Z</time>
</trkpt>
<trkpt lat="31.7595380" lon="35.0813990">
<ele>454.600006</ele>
<time>2025-10-17T16:36:54.477Z</time>
</trkpt>
<trkpt lat="31.7595540" lon="35.0814240">
<ele>454.799988</ele>
<time>2025-10-17T16:36:54.477Z</time>
</trkpt>
<trkpt lat="31.7595710" lon="35.0814520">
<ele>454.799988</ele>
<time>2025-10-17T16:36:54.477Z</time>
</trkpt>
<trkpt lat="31.7595860" lon="35.0814730">
<ele>455.000000</ele>
<time>2025-10-17T16:36:54.477Z</time>
</trkpt>
<trkpt lat="31.7596000" lon="35.0814960">
<ele>455.000000</ele>
<time>2025-10-17T16:36:54.478Z</time>
</trkpt>
<trkpt lat="31.7596130" lon="35.0815170">
<ele>455.200012</ele>
<time>2025-10-17T16:36:54.478Z</time>
</trkpt>
<trkpt lat="31.7596260" lon="35.0815370">
<ele>455.200012</ele>
<time>2025-10-17T16:36:54.478Z</time>
</trkpt>
<trkpt lat="31.7596350" lon="35.0815590">
<ele>455.399994</ele>
<time>2025-10-17T16:36:54.478Z</time>
</trkpt>
<trkpt lat="31.7596440" lon="35.0815820">
<ele>455.399994</ele>
<time>2025-10-17T16:36:54.478Z</time>
</trkpt>
<trkpt lat="31.7596490" lon="35.0816050">
<ele>455.599976</ele>
<time>2025-10-17T16:36:54.478Z</time>
</trkpt>
<trkpt lat="31.7596490" lon="35.0816240">
<ele>455.599976</ele>
<time>2025-10-17T16:36:54.478Z</time>
</trkpt>
<trkpt lat="31.7596460" lon="35.0816440">
<ele>455.599976</ele>
<time>2025-10-17T16:36:54.478Z</time>
</trkpt>
<trkpt lat="31.7596380" lon="35.0816670">
<ele>455.800018</ele>
<time>2025-10-17T16:36:54.478Z</time>
</trkpt>
<trkpt lat="31.7596320" lon="35.0816900">
<ele>456.000000</ele>
<time>2025-10-17T16:36:54.478Z</time>
</trkpt>
<trkpt lat="31.7596250" lon="35.0817120">
<ele>456.199982</ele>
<time>2025-10-17T16:36:54.478Z</time>
</trkpt>
<trkpt lat="31.7596160" lon="35.0817290">
<ele>456.199982</ele>
<time>2025-10-17T16:36:54.478Z</time>
</trkpt>
<trkpt lat="31.7596070" lon="35.0817440">
<ele>456.199982</ele>
<time>2025-10-17T16:36:54.478Z</time>
</trkpt>
<trkpt lat="31.7595980" lon="35.0817610">
<ele>456.400024</ele>
<time>2025-10-17T16:36:54.478Z</time>
</trkpt>
<trkpt lat="31.7595890" lon="35.0817760">
<ele>456.400024</ele>
<time>2025-10-17T16:36:54.478Z</time>
</trkpt>
<trkpt lat="31.7595800" lon="35.0817880">
<ele>456.400024</ele>
<time>2025-10-17T16:36:54.478Z</time>
</trkpt>
<trkpt lat="31.7595710" lon="35.0817980">
<ele>456.799988</ele>
<time>2025-10-17T16:36:54.478Z</time>
</trkpt>
<trkpt lat="31.7595620" lon="35.0818090">
<ele>456.799988</ele>
<time>2025-10-17T16:36:54.478Z</time>
</trkpt>
<trkpt lat="31.7595490" lon="35.0818180">
<ele>457.200012</ele>
<time>2025-10-17T16:36:54.478Z</time>
</trkpt>
<trkpt lat="31.7595370" lon="35.0818290">
<ele>457.399994</ele>
<time>2025-10-17T16:36:54.478Z</time>
</trkpt>
<trkpt lat="31.7595260" lon="35.0818430">
<ele>457.399994</ele>
<time>2025-10-17T16:36:54.478Z</time>
</trkpt>
<trkpt lat="31.7595140" lon="35.0818540">
<ele>457.600006</ele>
<time>2025-10-17T16:36:54.478Z</time>
</trkpt>
<trkpt lat="31.7595010" lon="35.0818640">
<ele>457.799988</ele>
<time>2025-10-17T16:36:54.478Z</time>
</trkpt>
<trkpt lat="31.7594910" lon="35.0818730">
<ele>458.200012</ele>
<time>2025-10-17T16:36:54.478Z</time>
</trkpt>
<trkpt lat="31.7594800" lon="35.0818860">
<ele>458.399994</ele>
<time>2025-10-17T16:36:54.478Z</time>
</trkpt>
<trkpt lat="31.7594680" lon="35.0819000">
<ele>458.800018</ele>
<time>2025-10-17T16:36:54.478Z</time>
</trkpt>
<trkpt lat="31.7594570" lon="35.0819150">
<ele>459.000000</ele>
<time>2025-10-17T16:36:54.478Z</time>
</trkpt>
<trkpt lat="31.7594440" lon="35.0819280">
<ele>459.400024</ele>
<time>2025-10-17T16:36:54.479Z</time>
</trkpt>
<trkpt lat="31.7594320" lon="35.0819390">
<ele>459.799988</ele>
<time>2025-10-17T16:36:54.479Z</time>
</trkpt>
<trkpt lat="31.7594190" lon="35.0819510">
<ele>460.000000</ele>
<time>2025-10-17T16:36:54.479Z</time>
</trkpt>
<trkpt lat="31.7594080" lon="35.0819640">
<ele>460.000000</ele>
<time>2025-10-17T16:36:54.479Z</time>
</trkpt>
<trkpt lat="31.7593980" lon="35.0819760">
<ele>460.399994</ele>
<time>2025-10-17T16:36:54.479Z</time>
</trkpt>
<trkpt lat="31.7593860" lon="35.0819870">
<ele>460.600006</ele>
<time>2025-10-17T16:36:54.479Z</time>
</trkpt>
<trkpt lat="31.7593740" lon="35.0819990">
<ele>460.800018</ele>
<time>2025-10-17T16:36:54.479Z</time>
</trkpt>
<trkpt lat="31.7593610" lon="35.0820090">
<ele>460.800018</ele>
<time>2025-10-17T16:36:54.479Z</time>
</trkpt>
<trkpt lat="31.7593500" lon="35.0820160">
<ele>461.000000</ele>
<time>2025-10-17T16:36:54.479Z</time>
</trkpt>
<trkpt lat="31.7593380" lon="35.0820240">
<ele>461.600006</ele>
<time>2025-10-17T16:36:54.479Z</time>
</trkpt>
<trkpt lat="31.7593250" lon="35.0820340">
<ele>461.800018</ele>
<time>2025-10-17T16:36:54.479Z</time>
</trkpt>
<trkpt lat="31.7593140" lon="35.0820440">
<ele>462.000000</ele>
<time>2025-10-17T16:36:54.479Z</time>
</trkpt>
<trkpt lat="31.7593030" lon="35.0820560">
<ele>462.199982</ele>
<time>2025-10-17T16:36:54.479Z</time>
</trkpt>
<trkpt lat="31.7592910" lon="35.0820660">
<ele>462.199982</ele>
<time>2025-10-17T16:36:54.479Z</time>
</trkpt>
<trkpt lat="31.7592820" lon="35.0820770">
<ele>462.400024</ele>
<time>2025-10-17T16:36:54.479Z</time>
</trkpt>
<trkpt lat="31.7592730" lon="35.0820900">
<ele>462.400024</ele>
<time>2025-10-17T16:36:54.479Z</time>
</trkpt>
<trkpt lat="31.7592650" lon="35.0821040">
<ele>462.799988</ele>
<time>2025-10-17T16:36:54.479Z</time>
</trkpt>
<trkpt lat="31.7592570" lon="35.0821170">
<ele>463.000031</ele>
<time>2025-10-17T16:36:54.479Z</time>
</trkpt>
<trkpt lat="31.7592500" lon="35.0821290">
<ele>463.200012</ele>
<time>2025-10-17T16:36:54.479Z</time>
</trkpt>
<trkpt lat="31.7592450" lon="35.0821430">
<ele>463.399994</ele>
<time>2025-10-17T16:36:54.479Z</time>
</trkpt>
<trkpt lat="31.7592380" lon="35.0821560">
<ele>463.599976</ele>
<time>2025-10-17T16:36:54.479Z</time>
</trkpt>
<trkpt lat="31.7592310" lon="35.0821700">
<ele>463.800018</ele>
<time>2025-10-17T16:36:54.479Z</time>
</trkpt>
<trkpt lat="31.7592240" lon="35.0821850">
<ele>464.000000</ele>
<time>2025-10-17T16:36:54.479Z</time>
</trkpt>
<trkpt lat="31.7592190" lon="35.0822000">
<ele>464.399994</ele>
<time>2025-10-17T16:36:54.479Z</time>
</trkpt>
<trkpt lat="31.7592130" lon="35.0822130">
<ele>464.600006</ele>
<time>2025-10-17T16:36:54.479Z</time>
</trkpt>
<trkpt lat="31.7592070" lon="35.0822250">
<ele>465.000000</ele>
<time>2025-10-17T16:36:54.479Z</time>
</trkpt>
<trkpt lat="31.7592030" lon="35.0822360">
<ele>465.199982</ele>
<time>2025-10-17T16:36:54.479Z</time>
</trkpt>
<trkpt lat="31.7591990" lon="35.0822500">
<ele>465.600006</ele>
<time>2025-10-17T16:36:54.479Z</time>
</trkpt>
<trkpt lat="31.7591950" lon="35.0822670">
<ele>465.600006</ele>
<time>2025-10-17T16:36:54.480Z</time>
</trkpt>
<trkpt lat="31.7591920" lon="35.0822820">
<ele>465.799988</ele>
<time>2025-10-17T16:36:54.480Z</time>
</trkpt>
<trkpt lat="31.7591940" lon="35.0822930">
<ele>465.999969</ele>
<time>2025-10-17T16:36:54.480Z</time>
</trkpt>
<trkpt lat="31.7591980" lon="35.0823060">
<ele>466.399994</ele>
<time>2025-10-17T16:36:54.480Z</time>
</trkpt>
<trkpt lat="31.7592020" lon="35.0823180">
<ele>466.599976</ele>
<time>2025-10-17T16:36:54.480Z</time>
</trkpt>
<trkpt lat="31.7592120" lon="35.0823260">
<ele>466.800018</ele>
<time>2025-10-17T16:36:54.480Z</time>
</trkpt>
<trkpt lat="31.7592230" lon="35.0823340">
<ele>466.800018</ele>
<time>2025-10-17T16:36:54.480Z</time>
</trkpt>
<trkpt lat="31.7592370" lon="35.0823400">
<ele>467.000000</ele>
<time>2025-10-17T16:36:54.480Z</time>
</trkpt>
<trkpt lat="31.7592510" lon="35.0823420">
<ele>467.000000</ele>
<time>2025-10-17T16:36:54.480Z</time>
</trkpt>
<trkpt lat="31.7592630" lon="35.0823430">
<ele>467.000000</ele>
<time>2025-10-17T16:36:54.480Z</time>
</trkpt>
<trkpt lat="31.7592730" lon="35.0823430">
<ele>467.199982</ele>
<time>2025-10-17T16:36:54.480Z</time>
</trkpt>
<trkpt lat="31.7592840" lon="35.0823400">
<ele>467.199982</ele>
<time>2025-10-17T16:36:54.480Z</time>
</trkpt>
<trkpt lat="31.7592960" lon="35.0823340">
<ele>467.400024</ele>
<time>2025-10-17T16:36:54.480Z</time>
</trkpt>
<trkpt lat="31.7593090" lon="35.0823300">
<ele>467.400024</ele>
<time>2025-10-17T16:36:54.480Z</time>
</trkpt>
<trkpt lat="31.7593250" lon="35.0823300">
<ele>467.400024</ele>
<time>2025-10-17T16:36:54.480Z</time>
</trkpt>
<trkpt lat="31.7593420" lon="35.0823320">
<ele>467.600006</ele>
<time>2025-10-17T16:36:54.480Z</time>
</trkpt>
<trkpt lat="31.7593590" lon="35.0823360">
<ele>467.600006</ele>
<time>2025-10-17T16:36:54.480Z</time>
</trkpt>
<trkpt lat="31.7593750" lon="35.0823440">
<ele>468.000000</ele>
<time>2025-10-17T16:36:54.480Z</time>
</trkpt>
<trkpt lat="31.7593920" lon="35.0823530">
<ele>468.000000</ele>
<time>2025-10-17T16:36:54.480Z</time>
</trkpt>
<trkpt lat="31.7594100" lon="35.0823630">
<ele>468.000000</ele>
<time>2025-10-17T16:36:54.480Z</time>
</trkpt>
<trkpt lat="31.7594250" lon="35.0823750">
<ele>468.000000</ele>
<time>2025-10-17T16:36:54.480Z</time>
</trkpt>
<trkpt lat="31.7594420" lon="35.0823870">
<ele>468.000000</ele>
<time>2025-10-17T16:36:54.480Z</time>
</trkpt>
<trkpt lat="31.7594570" lon="35.0823990">
<ele>468.000000</ele>
<time>2025-10-17T16:36:54.480Z</time>
</trkpt>
<trkpt lat="31.7594720" lon="35.0824090">
<ele>468.200012</ele>
<time>2025-10-17T16:36:54.480Z</time>
</trkpt>
<trkpt lat="31.7594870" lon="35.0824190">
<ele>468.399994</ele>
<time>2025-10-17T16:36:54.480Z</time>
</trkpt>
<trkpt lat="31.7595000" lon="35.0824320">
<ele>468.399994</ele>
<time>2025-10-17T16:36:54.481Z</time>
</trkpt>
<trkpt lat="31.7595130" lon="35.0824460">
<ele>468.600006</ele>
<time>2025-10-17T16:36:54.481Z</time>
</trkpt>
<trkpt lat="31.7595270" lon="35.0824610">
<ele>468.600006</ele>
<time>2025-10-17T16:36:54.481Z</time>
</trkpt>
<trkpt lat="31.7595400" lon="35.0824770">
<ele>468.600006</ele>
<time>2025-10-17T16:36:54.481Z</time>
</trkpt>
<trkpt lat="31.7595530" lon="35.0824940">
<ele>468.799988</ele>
<time>2025-10-17T16:36:54.481Z</time>
</trkpt>
<trkpt lat="31.7595640" lon="35.0825110">
<ele>468.799988</ele>
<time>2025-10-17T16:36:54.481Z</time>
</trkpt>
<trkpt lat="31.7595760" lon="35.0825270">
<ele>468.799988</ele>
<time>2025-10-17T16:36:54.481Z</time>
</trkpt>
<trkpt lat="31.7595900" lon="35.0825450">
<ele>468.799988</ele>
<time>2025-10-17T16:36:54.481Z</time>
</trkpt>
<trkpt lat="31.7596430" lon="35.0825960">
<ele>469.200012</ele>
<time>2025-10-17T16:36:54.481Z</time>
</trkpt>
<trkpt lat="31.7596810" lon="35.0826460">
<ele>469.599976</ele>
<time>2025-10-17T16:36:54.481Z</time>
</trkpt>
<trkpt lat="31.7596910" lon="35.0826640">
<ele>469.599976</ele>
<time>2025-10-17T16:36:54.481Z</time>
</trkpt>
<trkpt lat="31.7597020" lon="35.0826800">
<ele>469.800018</ele>
<time>2025-10-17T16:36:54.481Z</time>
</trkpt>
<trkpt lat="31.7597130" lon="35.0826940">
<ele>470.000000</ele>
<time>2025-10-17T16:36:54.481Z</time>
</trkpt>
<trkpt lat="31.7597230" lon="35.0827070">
<ele>470.199982</ele>
<time>2025-10-17T16:36:54.481Z</time>
</trkpt>
<trkpt lat="31.7597310" lon="35.0827220">
<ele>470.199982</ele>
<time>2025-10-17T16:36:54.481Z</time>
</trkpt>
<trkpt lat="31.7597420" lon="35.0827380">
<ele>470.400024</ele>
<time>2025-10-17T16:36:54.481Z</time>
</trkpt>
<trkpt lat="31.7597690" lon="35.0827760">
<ele>470.400024</ele>
<time>2025-10-17T16:36:54.481Z</time>
</trkpt>
<trkpt lat="31.7598280" lon="35.0828310">
<ele>470.600006</ele>
<time>2025-10-17T16:36:54.481Z</time>
</trkpt>
<trkpt lat="31.7598610" lon="35.0828470">
<ele>470.799988</ele>
<time>2025-10-17T16:36:54.481Z</time>
</trkpt>
<trkpt lat="31.7598790" lon="35.0828530">
<ele>470.799988</ele>
<time>2025-10-17T16:36:54.481Z</time>
</trkpt>
<trkpt lat="31.7599270" lon="35.0828680">
<ele>471.600006</ele>
<time>2025-10-17T16:36:54.481Z</time>
</trkpt>
<trkpt lat="31.7599420" lon="35.0828700">
<ele>472.000000</ele>
<time>2025-10-17T16:36:54.481Z</time>
</trkpt>
<trkpt lat="31.7599580" lon="35.0828720">
<ele>472.200012</ele>
<time>2025-10-17T16:36:54.481Z</time>
</trkpt>
<trkpt lat="31.7599730" lon="35.0828760">
<ele>472.399994</ele>
<time>2025-10-17T16:36:54.481Z</time>
</trkpt>
<trkpt lat="31.7599890" lon="35.0828790">
<ele>472.800018</ele>
<time>2025-10-17T16:36:54.481Z</time>
</trkpt>
<trkpt lat="31.7600090" lon="35.0828810">
<ele>472.800018</ele>
<time>2025-10-17T16:36:54.481Z</time>
</trkpt>
<trkpt lat="31.7600230" lon="35.0828860">
<ele>473.000000</ele>
<time>2025-10-17T16:36:54.481Z</time>
</trkpt>
<trkpt lat="31.7600370" lon="35.0828900">
<ele>473.199982</ele>
<time>2025-10-17T16:36:54.481Z</time>
</trkpt>
<trkpt lat="31.7600530" lon="35.0828930">
<ele>473.400024</ele>
<time>2025-10-17T16:36:54.482Z</time>
</trkpt>
<trkpt lat="31.7600680" lon="35.0828940">
<ele>473.600006</ele>
<time>2025-10-17T16:36:54.482Z</time>
</trkpt>
<trkpt lat="31.7600840" lon="35.0828930">
<ele>473.600006</ele>
<time>2025-10-17T16:36:54.482Z</time>
</trkpt>
<trkpt lat="31.7601000" lon="35.0828920">
<ele>473.799988</ele>
<time>2025-10-17T16:36:54.482Z</time>
</trkpt>
<trkpt lat="31.7601180" lon="35.0828920">
<ele>474.000031</ele>
<time>2025-10-17T16:36:54.482Z</time>
</trkpt>
<trkpt lat="31.7601340" lon="35.0828910">
<ele>474.399994</ele>
<time>2025-10-17T16:36:54.482Z</time>
</trkpt>
<trkpt lat="31.7601490" lon="35.0828900">
<ele>474.600006</ele>
<time>2025-10-17T16:36:54.482Z</time>
</trkpt>
<trkpt lat="31.7601660" lon="35.0828890">
<ele>474.800018</ele>
<time>2025-10-17T16:36:54.482Z</time>
</trkpt>
<trkpt lat="31.7601820" lon="35.0828850">
<ele>475.200012</ele>
<time>2025-10-17T16:36:54.482Z</time>
</trkpt>
<trkpt lat="31.7601980" lon="35.0828810">
<ele>475.200012</ele>
<time>2025-10-17T16:36:54.482Z</time>
</trkpt>
<trkpt lat="31.7602130" lon="35.0828770">
<ele>475.600006</ele>
<time>2025-10-17T16:36:54.482Z</time>
</trkpt>
<trkpt lat="31.7602270" lon="35.0828750">
<ele>475.800018</ele>
<time>2025-10-17T16:36:54.482Z</time>
</trkpt>
<trkpt lat="31.7602400" lon="35.0828730">
<ele>476.000000</ele>
<time>2025-10-17T16:36:54.482Z</time>
</trkpt>
<trkpt lat="31.7602540" lon="35.0828710">
<ele>476.000000</ele>
<time>2025-10-17T16:36:54.482Z</time>
</trkpt>
<trkpt lat="31.7602700" lon="35.0828690">
<ele>476.000000</ele>
<time>2025-10-17T16:36:54.482Z</time>
</trkpt>
<trkpt lat="31.7602850" lon="35.0828650">
<ele>476.000000</ele>
<time>2025-10-17T16:36:54.482Z</time>
</trkpt>
<trkpt lat="31.7602980" lon="35.0828630">
<ele>476.199982</ele>
<time>2025-10-17T16:36:54.482Z</time>
</trkpt>
<trkpt lat="31.7603140" lon="35.0828580">
<ele>476.199982</ele>
<time>2025-10-17T16:36:54.482Z</time>
</trkpt>
<trkpt lat="31.7603300" lon="35.0828540">
<ele>476.199982</ele>
<time>2025-10-17T16:36:54.482Z</time>
</trkpt>
<trkpt lat="31.7603460" lon="35.0828500">
<ele>476.399994</ele>
<time>2025-10-17T16:36:54.482Z</time>
</trkpt>
<trkpt lat="31.7603620" lon="35.0828470">
<ele>476.600006</ele>
<time>2025-10-17T16:36:54.482Z</time>
</trkpt>
<trkpt lat="31.7603780" lon="35.0828390">
<ele>476.600006</ele>
<time>2025-10-17T16:36:54.482Z</time>
</trkpt>
<trkpt lat="31.7603940" lon="35.0828280">
<ele>476.600006</ele>
<time>2025-10-17T16:36:54.482Z</time>
</trkpt>
<trkpt lat="31.7604100" lon="35.0828160">
<ele>476.999969</ele>
<time>2025-10-17T16:36:54.482Z</time>
</trkpt>
<trkpt lat="31.7604230" lon="35.0828040">
<ele>476.999969</ele>
<time>2025-10-17T16:36:54.482Z</time>
</trkpt>
<trkpt lat="31.7604370" lon="35.0827940">
<ele>477.200012</ele>
<time>2025-10-17T16:36:54.482Z</time>
</trkpt>
<trkpt lat="31.7604530" lon="35.0827870">
<ele>477.200012</ele>
<time>2025-10-17T16:36:54.482Z</time>
</trkpt>
<trkpt lat="31.7604690" lon="35.0827830">
<ele>477.599976</ele>
<time>2025-10-17T16:36:54.482Z</time>
</trkpt>
<trkpt lat="31.7604880" lon="35.0827800">
<ele>477.599976</ele>
<time>2025-10-17T16:36:54.483Z</time>
</trkpt>
<trkpt lat="31.7605070" lon="35.0827740">
<ele>477.800018</ele>
<time>2025-10-17T16:36:54.483Z</time>
</trkpt>
<trkpt lat="31.7605260" lon="35.0827690">
<ele>477.800018</ele>
<time>2025-10-17T16:36:54.483Z</time>
</trkpt>
<trkpt lat="31.7605450" lon="35.0827610">
<ele>477.800018</ele>
<time>2025-10-17T16:36:54.483Z</time>
</trkpt>
<trkpt lat="31.7605640" lon="35.0827550">
<ele>477.800018</ele>
<time>2025-10-17T16:36:54.483Z</time>
</trkpt>
<trkpt lat="31.7605840" lon="35.0827510">
<ele>477.800018</ele>
<time>2025-10-17T16:36:54.483Z</time>
</trkpt>
<trkpt lat="31.7606030" lon="35.0827460">
<ele>477.800018</ele>
<time>2025-10-17T16:36:54.483Z</time>
</trkpt>
<trkpt lat="31.7606220" lon="35.0827390">
<ele>477.800018</ele>
<time>2025-10-17T16:36:54.483Z</time>
</trkpt>
<trkpt lat="31.7606400" lon="35.0827340">
<ele>478.000000</ele>
<time>2025-10-17T16:36:54.483Z</time>
</trkpt>
<trkpt lat="31.7606570" lon="35.0827280">
<ele>478.000000</ele>
<time>2025-10-17T16:36:54.483Z</time>
</trkpt>
<trkpt lat="31.7606750" lon="35.0827220">
<ele>478.000000</ele>
<time>2025-10-17T16:36:54.483Z</time>
</trkpt>
<trkpt lat="31.7606940" lon="35.0827190">
<ele>478.000000</ele>
<time>2025-10-17T16:36:54.483Z</time>
</trkpt>
<trkpt lat="31.7607110" lon="35.0827160">
<ele>478.399994</ele>
<time>2025-10-17T16:36:54.483Z</time>
</trkpt>
<trkpt lat="31.7607310" lon="35.0827110">
<ele>478.399994</ele>
<time>2025-10-17T16:36:54.483Z</time>
</trkpt>
<trkpt lat="31.7608020" lon="35.0826890">
<ele>479.000000</ele>
<time>2025-10-17T16:36:54.483Z</time>
</trkpt>
<trkpt lat="31.7608420" lon="35.0826770">
<ele>479.199982</ele>
<time>2025-10-17T16:36:54.483Z</time>
</trkpt>
<trkpt lat="31.7608600" lon="35.0826680">
<ele>479.199982</ele>
<time>2025-10-17T16:36:54.483Z</time>
</trkpt>
<trkpt lat="31.7608910" lon="35.0826360">
<ele>479.199982</ele>
<time>2025-10-17T16:36:54.483Z</time>
</trkpt>
<trkpt lat="31.7609080" lon="35.0826190">
<ele>479.199982</ele>
<time>2025-10-17T16:36:54.483Z</time>
</trkpt>
<trkpt lat="31.7609230" lon="35.0825960">
<ele>479.199982</ele>
<time>2025-10-17T16:36:54.483Z</time>
</trkpt>
<trkpt lat="31.7609320" lon="35.0825700">
<ele>479.199982</ele>
<time>2025-10-17T16:36:54.483Z</time>
</trkpt>
<trkpt lat="31.7609350" lon="35.0825450">
<ele>479.199982</ele>
<time>2025-10-17T16:36:54.483Z</time>
</trkpt>
<trkpt lat="31.7609370" lon="35.0825200">
<ele>479.199982</ele>
<time>2025-10-17T16:36:54.484Z</time>
</trkpt>
<trkpt lat="31.7609370" lon="35.0824950">
<ele>479.199982</ele>
<time>2025-10-17T16:36:54.484Z</time>
</trkpt>
<trkpt lat="31.7609330" lon="35.0824700">
<ele>479.199982</ele>
<time>2025-10-17T16:36:54.484Z</time>
</trkpt>
<trkpt lat="31.7609270" lon="35.0824450">
<ele>479.199982</ele>
<time>2025-10-17T16:36:54.484Z</time>
</trkpt>
<trkpt lat="31.7609140" lon="35.0823680">
<ele>480.200012</ele>
<time>2025-10-17T16:36:54.484Z</time>
</trkpt>
<trkpt lat="31.7609120" lon="35.0823460">
<ele>480.399994</ele>
<time>2025-10-17T16:36:54.484Z</time>
</trkpt>
<trkpt lat="31.7609100" lon="35.0823250">
<ele>480.399994</ele>
<time>2025-10-17T16:36:54.484Z</time>
</trkpt>
<trkpt lat="31.7609080" lon="35.0823050">
<ele>480.800018</ele>
<time>2025-10-17T16:36:54.484Z</time>
</trkpt>
<trkpt lat="31.7609070" lon="35.0822840">
<ele>480.800018</ele>
<time>2025-10-17T16:36:54.484Z</time>
</trkpt>
<trkpt lat="31.7609090" lon="35.0822640">
<ele>481.000000</ele>
<time>2025-10-17T16:36:54.484Z</time>
</trkpt>
<trkpt lat="31.7609130" lon="35.0822440">
<ele>481.199982</ele>
<time>2025-10-17T16:36:54.484Z</time>
</trkpt>
<trkpt lat="31.7609180" lon="35.0822200">
<ele>481.199982</ele>
<time>2025-10-17T16:36:54.484Z</time>
</trkpt>
<trkpt lat="31.7609200" lon="35.0821970">
<ele>481.199982</ele>
<time>2025-10-17T16:36:54.484Z</time>
</trkpt>
<trkpt lat="31.7609200" lon="35.0821740">
<ele>481.400024</ele>
<time>2025-10-17T16:36:54.484Z</time>
</trkpt>
<trkpt lat="31.7609200" lon="35.0821490">
<ele>481.600006</ele>
<time>2025-10-17T16:36:54.484Z</time>
</trkpt>
<trkpt lat="31.7609200" lon="35.0821290">
<ele>481.600006</ele>
<time>2025-10-17T16:36:54.484Z</time>
</trkpt>
<trkpt lat="31.7609230" lon="35.0821120">
<ele>481.799988</ele>
<time>2025-10-17T16:36:54.484Z</time>
</trkpt>
<trkpt lat="31.7609330" lon="35.0820960">
<ele>481.799988</ele>
<time>2025-10-17T16:36:54.484Z</time>
</trkpt>
<trkpt lat="31.7609420" lon="35.0820810">
<ele>481.799988</ele>
<time>2025-10-17T16:36:54.484Z</time>
</trkpt>
<trkpt lat="31.7609530" lon="35.0820670">
<ele>481.799988</ele>
<time>2025-10-17T16:36:54.484Z</time>
</trkpt>
<trkpt lat="31.7609650" lon="35.0820530">
<ele>482.200012</ele>
<time>2025-10-17T16:36:54.484Z</time>
</trkpt>
<trkpt lat="31.7609760" lon="35.0820400">
<ele>482.399994</ele>
<time>2025-10-17T16:36:54.484Z</time>
</trkpt>
<trkpt lat="31.7609870" lon="35.0820270">
<ele>482.799988</ele>
<time>2025-10-17T16:36:54.484Z</time>
</trkpt>
<trkpt lat="31.7609960" lon="35.0820190">
<ele>483.000000</ele>
<time>2025-10-17T16:36:54.484Z</time>
</trkpt>
<trkpt lat="31.7610090" lon="35.0820090">
<ele>483.200012</ele>
<time>2025-10-17T16:36:54.484Z</time>
</trkpt>
<trkpt lat="31.7610230" lon="35.0820020">
<ele>483.399994</ele>
<time>2025-10-17T16:36:54.484Z</time>
</trkpt>
<trkpt lat="31.7610390" lon="35.0819980">
<ele>483.599976</ele>
<time>2025-10-17T16:36:54.484Z</time>
</trkpt>
<trkpt lat="31.7610530" lon="35.0819960">
<ele>483.599976</ele>
<time>2025-10-17T16:36:54.485Z</time>
</trkpt>
<trkpt lat="31.7610670" lon="35.0819930">
<ele>483.800018</ele>
<time>2025-10-17T16:36:54.485Z</time>
</trkpt>
<trkpt lat="31.7610790" lon="35.0819920">
<ele>484.000000</ele>
<time>2025-10-17T16:36:54.485Z</time>
</trkpt>
<trkpt lat="31.7610910" lon="35.0819960">
<ele>484.199982</ele>
<time>2025-10-17T16:36:54.485Z</time>
</trkpt>
<trkpt lat="31.7611020" lon="35.0820050">
<ele>484.400024</ele>
<time>2025-10-17T16:36:54.485Z</time>
</trkpt>
<trkpt lat="31.7611140" lon="35.0820160">
<ele>484.600006</ele>
<time>2025-10-17T16:36:54.485Z</time>
</trkpt>
<trkpt lat="31.7611300" lon="35.0820320">
<ele>484.799988</ele>
<time>2025-10-17T16:36:54.485Z</time>
</trkpt>
<trkpt lat="31.7611420" lon="35.0820450">
<ele>485.000000</ele>
<time>2025-10-17T16:36:54.485Z</time>
</trkpt>
<trkpt lat="31.7611550" lon="35.0820600">
<ele>485.200012</ele>
<time>2025-10-17T16:36:54.485Z</time>
</trkpt>
<trkpt lat="31.7611670" lon="35.0820730">
<ele>485.399994</ele>
<time>2025-10-17T16:36:54.485Z</time>
</trkpt>
<trkpt lat="31.7611820" lon="35.0820820">
<ele>485.600006</ele>
<time>2025-10-17T16:36:54.485Z</time>
</trkpt>
<trkpt lat="31.7611930" lon="35.0820920">
<ele>485.600006</ele>
<time>2025-10-17T16:36:54.485Z</time>
</trkpt>
<trkpt lat="31.7612050" lon="35.0821050">
<ele>485.600006</ele>
<time>2025-10-17T16:36:54.485Z</time>
</trkpt>
<trkpt lat="31.7612190" lon="35.0821220">
<ele>485.600006</ele>
<time>2025-10-17T16:36:54.485Z</time>
</trkpt>
<trkpt lat="31.7612280" lon="35.0821360">
<ele>485.800018</ele>
<time>2025-10-17T16:36:54.486Z</time>
</trkpt>
<trkpt lat="31.7612420" lon="35.0821570">
<ele>485.800018</ele>
<time>2025-10-17T16:36:54.486Z</time>
</trkpt>
<trkpt lat="31.7612520" lon="35.0821730">
<ele>486.000000</ele>
<time>2025-10-17T16:36:54.486Z</time>
</trkpt>
<trkpt lat="31.7612610" lon="35.0821950">
<ele>486.200012</ele>
<time>2025-10-17T16:36:54.486Z</time>
</trkpt>
<trkpt lat="31.7612740" lon="35.0822200">
<ele>486.399994</ele>
<time>2025-10-17T16:36:54.486Z</time>
</trkpt>
<trkpt lat="31.7612850" lon="35.0822400">
<ele>486.600006</ele>
<time>2025-10-17T16:36:54.486Z</time>
</trkpt>
<trkpt lat="31.7612960" lon="35.0822630">
<ele>486.600006</ele>
<time>2025-10-17T16:36:54.486Z</time>
</trkpt>
<trkpt lat="31.7613040" lon="35.0822810">
<ele>486.800018</ele>
<time>2025-10-17T16:36:54.486Z</time>
</trkpt>
<trkpt lat="31.7613110" lon="35.0823020">
<ele>487.000000</ele>
<time>2025-10-17T16:36:54.486Z</time>
</trkpt>
<trkpt lat="31.7613200" lon="35.0823200">
<ele>487.199982</ele>
<time>2025-10-17T16:36:54.486Z</time>
</trkpt>
<trkpt lat="31.7613280" lon="35.0823430">
<ele>487.400024</ele>
<time>2025-10-17T16:36:54.486Z</time>
</trkpt>
<trkpt lat="31.7613310" lon="35.0823570">
<ele>487.400024</ele>
<time>2025-10-17T16:36:54.486Z</time>
</trkpt>
<trkpt lat="31.7613350" lon="35.0823770">
<ele>487.600006</ele>
<time>2025-10-17T16:36:54.486Z</time>
</trkpt>
<trkpt lat="31.7613380" lon="35.0823980">
<ele>487.600006</ele>
<time>2025-10-17T16:36:54.486Z</time>
</trkpt>
<trkpt lat="31.7613410" lon="35.0824210">
<ele>487.600006</ele>
<time>2025-10-17T16:36:54.486Z</time>
</trkpt>
<trkpt lat="31.7613440" lon="35.0824440">
<ele>487.600006</ele>
<time>2025-10-17T16:36:54.486Z</time>
</trkpt>
<trkpt lat="31.7613480" lon="35.0824640">
<ele>488.000031</ele>
<time>2025-10-17T16:36:54.486Z</time>
</trkpt>
<trkpt lat="31.7613530" lon="35.0824810">
<ele>488.000031</ele>
<time>2025-10-17T16:36:54.486Z</time>
</trkpt>
<trkpt lat="31.7613590" lon="35.0825000">
<ele>488.200012</ele>
<time>2025-10-17T16:36:54.486Z</time>
</trkpt>
<trkpt lat="31.7613620" lon="35.0825170">
<ele>488.399994</ele>
<time>2025-10-17T16:36:54.486Z</time>
</trkpt>
<trkpt lat="31.7613680" lon="35.0825360">
<ele>488.399994</ele>
<time>2025-10-17T16:36:54.486Z</time>
</trkpt>
<trkpt lat="31.7613770" lon="35.0825570">
<ele>488.600006</ele>
<time>2025-10-17T16:36:54.486Z</time>
</trkpt>
<trkpt lat="31.7613880" lon="35.0825730">
<ele>488.600006</ele>
<time>2025-10-17T16:36:54.486Z</time>
</trkpt>
<trkpt lat="31.7613950" lon="35.0825910">
<ele>488.800018</ele>
<time>2025-10-17T16:36:54.486Z</time>
</trkpt>
<trkpt lat="31.7614030" lon="35.0826080">
<ele>488.800018</ele>
<time>2025-10-17T16:36:54.486Z</time>
</trkpt>
<trkpt lat="31.7614150" lon="35.0826240">
<ele>489.000000</ele>
<time>2025-10-17T16:36:54.486Z</time>
</trkpt>
<trkpt lat="31.7614260" lon="35.0826400">
<ele>489.000000</ele>
<time>2025-10-17T16:36:54.486Z</time>
</trkpt>
<trkpt lat="31.7614350" lon="35.0826580">
<ele>489.000000</ele>
<time>2025-10-17T16:36:54.487Z</time>
</trkpt>
<trkpt lat="31.7614410" lon="35.0826790">
<ele>489.000000</ele>
<time>2025-10-17T16:36:54.487Z</time>
</trkpt>
<trkpt lat="31.7614470" lon="35.0826990">
<ele>489.199982</ele>
<time>2025-10-17T16:36:54.487Z</time>
</trkpt>
<trkpt lat="31.7614540" lon="35.0827190">
<ele>489.399994</ele>
<time>2025-10-17T16:36:54.487Z</time>
</trkpt>
<trkpt lat="31.7614600" lon="35.0827430">
<ele>489.799988</ele>
<time>2025-10-17T16:36:54.487Z</time>
</trkpt>
<trkpt lat="31.7614650" lon="35.0827670">
<ele>490.000000</ele>
<time>2025-10-17T16:36:54.487Z</time>
</trkpt>
<trkpt lat="31.7614710" lon="35.0827880">
<ele>490.000000</ele>
<time>2025-10-17T16:36:54.487Z</time>
</trkpt>
<trkpt lat="31.7614750" lon="35.0828090">
<ele>490.199982</ele>
<time>2025-10-17T16:36:54.487Z</time>
</trkpt>
<trkpt lat="31.7614720" lon="35.0828320">
<ele>490.199982</ele>
<time>2025-10-17T16:36:54.487Z</time>
</trkpt>
<trkpt lat="31.7614680" lon="35.0828560">
<ele>490.199982</ele>
<time>2025-10-17T16:36:54.487Z</time>
</trkpt>
<trkpt lat="31.7614660" lon="35.0828760">
<ele>490.199982</ele>
<time>2025-10-17T16:36:54.487Z</time>
</trkpt>
<trkpt lat="31.7614650" lon="35.0828950">
<ele>490.399994</ele>
<time>2025-10-17T16:36:54.487Z</time>
</trkpt>
<trkpt lat="31.7614590" lon="35.0829180">
<ele>490.399994</ele>
<time>2025-10-17T16:36:54.487Z</time>
</trkpt>
<trkpt lat="31.7614510" lon="35.0829380">
<ele>490.600006</ele>
<time>2025-10-17T16:36:54.487Z</time>
</trkpt>
<trkpt lat="31.7614390" lon="35.0829580">
<ele>490.600006</ele>
<time>2025-10-17T16:36:54.487Z</time>
</trkpt>
<trkpt lat="31.7614280" lon="35.0829720">
<ele>490.799988</ele>
<time>2025-10-17T16:36:54.487Z</time>
</trkpt>
<trkpt lat="31.7614170" lon="35.0829870">
<ele>491.200012</ele>
<time>2025-10-17T16:36:54.487Z</time>
</trkpt>
<trkpt lat="31.7614060" lon="35.0829980">
<ele>491.399994</ele>
<time>2025-10-17T16:36:54.487Z</time>
</trkpt>
<trkpt lat="31.7613960" lon="35.0830100">
<ele>491.800018</ele>
<time>2025-10-17T16:36:54.487Z</time>
</trkpt>
<trkpt lat="31.7613830" lon="35.0830300">
<ele>492.000000</ele>
<time>2025-10-17T16:36:54.487Z</time>
</trkpt>
<trkpt lat="31.7613750" lon="35.0830420">
<ele>492.199982</ele>
<time>2025-10-17T16:36:54.487Z</time>
</trkpt>
<trkpt lat="31.7613640" lon="35.0830560">
<ele>492.199982</ele>
<time>2025-10-17T16:36:54.487Z</time>
</trkpt>
<trkpt lat="31.7613510" lon="35.0830720">
<ele>492.600006</ele>
<time>2025-10-17T16:36:54.487Z</time>
</trkpt>
<trkpt lat="31.7613430" lon="35.0830880">
<ele>492.600006</ele>
<time>2025-10-17T16:36:54.487Z</time>
</trkpt>
<trkpt lat="31.7613370" lon="35.0831050">
<ele>492.799988</ele>
<time>2025-10-17T16:36:54.487Z</time>
</trkpt>
<trkpt lat="31.7613310" lon="35.0831230">
<ele>492.799988</ele>
<time>2025-10-17T16:36:54.487Z</time>
</trkpt>
<trkpt lat="31.7613240" lon="35.0831370">
<ele>492.799988</ele>
<time>2025-10-17T16:36:54.487Z</time>
</trkpt>
<trkpt lat="31.7613150" lon="35.0831560">
<ele>493.000000</ele>
<time>2025-10-17T16:36:54.487Z</time>
</trkpt>
<trkpt lat="31.7613090" lon="35.0831730">
<ele>493.200012</ele>
<time>2025-10-17T16:36:54.488Z</time>
</trkpt>
<trkpt lat="31.7613050" lon="35.0831900">
<ele>493.399994</ele>
<time>2025-10-17T16:36:54.488Z</time>
</trkpt>
<trkpt lat="31.7612990" lon="35.0832120">
<ele>493.399994</ele>
<time>2025-10-17T16:36:54.488Z</time>
</trkpt>
<trkpt lat="31.7612910" lon="35.0832330">
<ele>493.600006</ele>
<time>2025-10-17T16:36:54.488Z</time>
</trkpt>
<trkpt lat="31.7612840" lon="35.0832510">
<ele>493.799988</ele>
<time>2025-10-17T16:36:54.488Z</time>
</trkpt>
<trkpt lat="31.7612780" lon="35.0832710">
<ele>494.200012</ele>
<time>2025-10-17T16:36:54.488Z</time>
</trkpt>
<trkpt lat="31.7612710" lon="35.0832950">
<ele>494.399994</ele>
<time>2025-10-17T16:36:54.488Z</time>
</trkpt>
<trkpt lat="31.7612670" lon="35.0833100">
<ele>494.599976</ele>
<time>2025-10-17T16:36:54.488Z</time>
</trkpt>
<trkpt lat="31.7612600" lon="35.0833320">
<ele>494.800018</ele>
<time>2025-10-17T16:36:54.488Z</time>
</trkpt>
<trkpt lat="31.7612540" lon="35.0833560">
<ele>494.800018</ele>
<time>2025-10-17T16:36:54.488Z</time>
</trkpt>
<trkpt lat="31.7612480" lon="35.0833790">
<ele>494.800018</ele>
<time>2025-10-17T16:36:54.488Z</time>
</trkpt>
<trkpt lat="31.7612440" lon="35.0834060">
<ele>494.800018</ele>
<time>2025-10-17T16:36:54.488Z</time>
</trkpt>
<trkpt lat="31.7612400" lon="35.0834250">
<ele>494.800018</ele>
<time>2025-10-17T16:36:54.488Z</time>
</trkpt>
<trkpt lat="31.7612360" lon="35.0834470">
<ele>495.000000</ele>
<time>2025-10-17T16:36:54.488Z</time>
</trkpt>
<trkpt lat="31.7612310" lon="35.0834760">
<ele>495.000000</ele>
<time>2025-10-17T16:36:54.488Z</time>
</trkpt>
<trkpt lat="31.7612300" lon="35.0834950">
<ele>495.000000</ele>
<time>2025-10-17T16:36:54.488Z</time>
</trkpt>
<trkpt lat="31.7612270" lon="35.0835190">
<ele>495.400024</ele>
<time>2025-10-17T16:36:54.488Z</time>
</trkpt>
<trkpt lat="31.7612250" lon="35.0835430">
<ele>495.600006</ele>
<time>2025-10-17T16:36:54.488Z</time>
</trkpt>
<trkpt lat="31.7612230" lon="35.0835700">
<ele>495.600006</ele>
<time>2025-10-17T16:36:54.488Z</time>
</trkpt>
<trkpt lat="31.7612240" lon="35.0835930">
<ele>495.799988</ele>
<time>2025-10-17T16:36:54.488Z</time>
</trkpt>
<trkpt lat="31.7612270" lon="35.0836180">
<ele>495.799988</ele>
<time>2025-10-17T16:36:54.488Z</time>
</trkpt>
<trkpt lat="31.7612300" lon="35.0836410">
<ele>496.000000</ele>
<time>2025-10-17T16:36:54.488Z</time>
</trkpt>
<trkpt lat="31.7612330" lon="35.0836590">
<ele>496.200012</ele>
<time>2025-10-17T16:36:54.488Z</time>
</trkpt>
<trkpt lat="31.7612360" lon="35.0836820">
<ele>496.399994</ele>
<time>2025-10-17T16:36:54.488Z</time>
</trkpt>
<trkpt lat="31.7612380" lon="35.0837050">
<ele>496.399994</ele>
<time>2025-10-17T16:36:54.488Z</time>
</trkpt>
<trkpt lat="31.7612440" lon="35.0837310">
<ele>496.600006</ele>
<time>2025-10-17T16:36:54.488Z</time>
</trkpt>
<trkpt lat="31.7612500" lon="35.0837480">
<ele>496.600006</ele>
<time>2025-10-17T16:36:54.488Z</time>
</trkpt>
<trkpt lat="31.7612550" lon="35.0837700">
<ele>496.799988</ele>
<time>2025-10-17T16:36:54.489Z</time>
</trkpt>
<trkpt lat="31.7612600" lon="35.0837930">
<ele>496.799988</ele>
<time>2025-10-17T16:36:54.489Z</time>
</trkpt>
<trkpt lat="31.7612670" lon="35.0838190">
<ele>496.799988</ele>
<time>2025-10-17T16:36:54.489Z</time>
</trkpt>
<trkpt lat="31.7612750" lon="35.0838420">
<ele>497.200012</ele>
<time>2025-10-17T16:36:54.489Z</time>
</trkpt>
<trkpt lat="31.7612830" lon="35.0838590">
<ele>497.399994</ele>
<time>2025-10-17T16:36:54.489Z</time>
</trkpt>
<trkpt lat="31.7612910" lon="35.0838780">
<ele>497.599976</ele>
<time>2025-10-17T16:36:54.489Z</time>
</trkpt>
<trkpt lat="31.7612960" lon="35.0838950">
<ele>497.800018</ele>
<time>2025-10-17T16:36:54.489Z</time>
</trkpt>
<trkpt lat="31.7613040" lon="35.0839130">
<ele>498.000000</ele>
<time>2025-10-17T16:36:54.489Z</time>
</trkpt>
<trkpt lat="31.7613140" lon="35.0839320">
<ele>498.000000</ele>
<time>2025-10-17T16:36:54.489Z</time>
</trkpt>
<trkpt lat="31.7613230" lon="35.0839490">
<ele>498.199982</ele>
<time>2025-10-17T16:36:54.489Z</time>
</trkpt>
<trkpt lat="31.7613320" lon="35.0839650">
<ele>498.400024</ele>
<time>2025-10-17T16:36:54.489Z</time>
</trkpt>
<trkpt lat="31.7613400" lon="35.0839830">
<ele>498.400024</ele>
<time>2025-10-17T16:36:54.489Z</time>
</trkpt>
<trkpt lat="31.7613480" lon="35.0840010">
<ele>498.600006</ele>
<time>2025-10-17T16:36:54.489Z</time>
</trkpt>
<trkpt lat="31.7613560" lon="35.0840170">
<ele>498.799988</ele>
<time>2025-10-17T16:36:54.489Z</time>
</trkpt>
<trkpt lat="31.7613670" lon="35.0840350">
<ele>498.799988</ele>
<time>2025-10-17T16:36:54.489Z</time>
</trkpt>
<trkpt lat="31.7613780" lon="35.0840530">
<ele>498.799988</ele>
<time>2025-10-17T16:36:54.489Z</time>
</trkpt>
<trkpt lat="31.7613860" lon="35.0840760">
<ele>499.200012</ele>
<time>2025-10-17T16:36:54.489Z</time>
</trkpt>
<trkpt lat="31.7613930" lon="35.0840930">
<ele>499.200012</ele>
<time>2025-10-17T16:36:54.489Z</time>
</trkpt>
<trkpt lat="31.7614000" lon="35.0841070">
<ele>499.399994</ele>
<time>2025-10-17T16:36:54.489Z</time>
</trkpt>
<trkpt lat="31.7614100" lon="35.0841270">
<ele>499.600006</ele>
<time>2025-10-17T16:36:54.489Z</time>
</trkpt>
<trkpt lat="31.7614190" lon="35.0841490">
<ele>499.600006</ele>
<time>2025-10-17T16:36:54.489Z</time>
</trkpt>
<trkpt lat="31.7614290" lon="35.0841730">
<ele>499.800018</ele>
<time>2025-10-17T16:36:54.489Z</time>
</trkpt>
<trkpt lat="31.7614410" lon="35.0841940">
<ele>499.800018</ele>
<time>2025-10-17T16:36:54.489Z</time>
</trkpt>
<trkpt lat="31.7614530" lon="35.0842170">
<ele>499.800018</ele>
<time>2025-10-17T16:36:54.489Z</time>
</trkpt>
<trkpt lat="31.7614630" lon="35.0842400">
<ele>499.800018</ele>
<time>2025-10-17T16:36:54.489Z</time>
</trkpt>
<trkpt lat="31.7614710" lon="35.0842610">
<ele>500.000000</ele>
<time>2025-10-17T16:36:54.489Z</time>
</trkpt>
<trkpt lat="31.7614770" lon="35.0842800">
<ele>500.000000</ele>
<time>2025-10-17T16:36:54.489Z</time>
</trkpt>
<trkpt lat="31.7614840" lon="35.0842970">
<ele>500.200012</ele>
<time>2025-10-17T16:36:54.490Z</time>
</trkpt>
<trkpt lat="31.7614930" lon="35.0843130">
<ele>500.399994</ele>
<time>2025-10-17T16:36:54.490Z</time>
</trkpt>
<trkpt lat="31.7615040" lon="35.0843330">
<ele>500.800018</ele>
<time>2025-10-17T16:36:54.490Z</time>
</trkpt>
<trkpt lat="31.7615160" lon="35.0843500">
<ele>500.800018</ele>
<time>2025-10-17T16:36:54.490Z</time>
</trkpt>
<trkpt lat="31.7615320" lon="35.0843660">
<ele>500.800018</ele>
<time>2025-10-17T16:36:54.490Z</time>
</trkpt>
<trkpt lat="31.7615450" lon="35.0843820">
<ele>501.000000</ele>
<time>2025-10-17T16:36:54.490Z</time>
</trkpt>
<trkpt lat="31.7615550" lon="35.0844020">
<ele>501.400024</ele>
<time>2025-10-17T16:36:54.490Z</time>
</trkpt>
<trkpt lat="31.7615640" lon="35.0844230">
<ele>501.600006</ele>
<time>2025-10-17T16:36:54.490Z</time>
</trkpt>
<trkpt lat="31.7615720" lon="35.0844450">
<ele>501.600006</ele>
<time>2025-10-17T16:36:54.490Z</time>
</trkpt>
<trkpt lat="31.7615800" lon="35.0844680">
<ele>501.799988</ele>
<time>2025-10-17T16:36:54.490Z</time>
</trkpt>
<trkpt lat="31.7615880" lon="35.0844920">
<ele>501.999969</ele>
<time>2025-10-17T16:36:54.490Z</time>
</trkpt>
<trkpt lat="31.7615980" lon="35.0845130">
<ele>502.200012</ele>
<time>2025-10-17T16:36:54.490Z</time>
</trkpt>
<trkpt lat="31.7616120" lon="35.0845330">
<ele>502.399994</ele>
<time>2025-10-17T16:36:54.490Z</time>
</trkpt>
<trkpt lat="31.7616260" lon="35.0845530">
<ele>502.599976</ele>
<time>2025-10-17T16:36:54.490Z</time>
</trkpt>
<trkpt lat="31.7616380" lon="35.0845770">
<ele>502.599976</ele>
<time>2025-10-17T16:36:54.490Z</time>
</trkpt>
<trkpt lat="31.7616480" lon="35.0846030">
<ele>502.800018</ele>
<time>2025-10-17T16:36:54.490Z</time>
</trkpt>
<trkpt lat="31.7616600" lon="35.0846270">
<ele>502.800018</ele>
<time>2025-10-17T16:36:54.490Z</time>
</trkpt>
<trkpt lat="31.7616690" lon="35.0846500">
<ele>502.800018</ele>
<time>2025-10-17T16:36:54.490Z</time>
</trkpt>
<trkpt lat="31.7616790" lon="35.0846720">
<ele>502.800018</ele>
<time>2025-10-17T16:36:54.490Z</time>
</trkpt>
<trkpt lat="31.7616930" lon="35.0846950">
<ele>502.800018</ele>
<time>2025-10-17T16:36:54.490Z</time>
</trkpt>
<trkpt lat="31.7617080" lon="35.0847210">
<ele>503.000000</ele>
<time>2025-10-17T16:36:54.490Z</time>
</trkpt>
<trkpt lat="31.7617250" lon="35.0847480">
<ele>503.000000</ele>
<time>2025-10-17T16:36:54.490Z</time>
</trkpt>
<trkpt lat="31.7617430" lon="35.0847730">
<ele>503.199982</ele>
<time>2025-10-17T16:36:54.490Z</time>
</trkpt>
<trkpt lat="31.7617590" lon="35.0848000">
<ele>503.199982</ele>
<time>2025-10-17T16:36:54.490Z</time>
</trkpt>
<trkpt lat="31.7617750" lon="35.0848260">
<ele>503.199982</ele>
<time>2025-10-17T16:36:54.490Z</time>
</trkpt>
<trkpt lat="31.7617910" lon="35.0848550">
<ele>503.600006</ele>
<time>2025-10-17T16:36:54.490Z</time>
</trkpt>
<trkpt lat="31.7618060" lon="35.0848850">
<ele>503.600006</ele>
<time>2025-10-17T16:36:54.491Z</time>
</trkpt>
<trkpt lat="31.7618230" lon="35.0849150">
<ele>503.799988</ele>
<time>2025-10-17T16:36:54.491Z</time>
</trkpt>
<trkpt lat="31.7618400" lon="35.0849460">
<ele>503.799988</ele>
<time>2025-10-17T16:36:54.491Z</time>
</trkpt>
<trkpt lat="31.7618570" lon="35.0849770">
<ele>504.000000</ele>
<time>2025-10-17T16:36:54.491Z</time>
</trkpt>
<trkpt lat="31.7618740" lon="35.0850060">
<ele>504.199982</ele>
<time>2025-10-17T16:36:54.491Z</time>
</trkpt>
<trkpt lat="31.7618960" lon="35.0850330">
<ele>504.199982</ele>
<time>2025-10-17T16:36:54.491Z</time>
</trkpt>
<trkpt lat="31.7619190" lon="35.0850590">
<ele>504.199982</ele>
<time>2025-10-17T16:36:54.491Z</time>
</trkpt>
<trkpt lat="31.7619400" lon="35.0850870">
<ele>504.199982</ele>
<time>2025-10-17T16:36:54.491Z</time>
</trkpt>
<trkpt lat="31.7619580" lon="35.0851150">
<ele>504.399994</ele>
<time>2025-10-17T16:36:54.491Z</time>
</trkpt>
<trkpt lat="31.7619770" lon="35.0851420">
<ele>504.399994</ele>
<time>2025-10-17T16:36:54.491Z</time>
</trkpt>
<trkpt lat="31.7620010" lon="35.0851700">
<ele>504.399994</ele>
<time>2025-10-17T16:36:54.491Z</time>
</trkpt>
<trkpt lat="31.7620230" lon="35.0852010">
<ele>504.399994</ele>
<time>2025-10-17T16:36:54.491Z</time>
</trkpt>
<trkpt lat="31.7620420" lon="35.0852330">
<ele>504.399994</ele>
<time>2025-10-17T16:36:54.491Z</time>
</trkpt>
<trkpt lat="31.7620640" lon="35.0852670">
<ele>504.399994</ele>
<time>2025-10-17T16:36:54.491Z</time>
</trkpt>
<trkpt lat="31.7620850" lon="35.0853020">
<ele>504.600006</ele>
<time>2025-10-17T16:36:54.491Z</time>
</trkpt>
<trkpt lat="31.7621250" lon="35.0853780">
<ele>504.600006</ele>
<time>2025-10-17T16:36:54.491Z</time>
</trkpt>
<trkpt lat="31.7621680" lon="35.0855570">
<ele>505.200012</ele>
<time>2025-10-17T16:36:54.491Z</time>
</trkpt>
<trkpt lat="31.7621640" lon="35.0856420">
<ele>505.800018</ele>
<time>2025-10-17T16:36:54.491Z</time>
</trkpt>
<trkpt lat="31.7621600" lon="35.0856750">
<ele>505.800018</ele>
<time>2025-10-17T16:36:54.491Z</time>
</trkpt>
<trkpt lat="31.7621550" lon="35.0857050">
<ele>506.000000</ele>
<time>2025-10-17T16:36:54.491Z</time>
</trkpt>
<trkpt lat="31.7621510" lon="35.0857320">
<ele>506.199982</ele>
<time>2025-10-17T16:36:54.491Z</time>
</trkpt>
<trkpt lat="31.7621460" lon="35.0857580">
<ele>506.199982</ele>
<time>2025-10-17T16:36:54.491Z</time>
</trkpt>
<trkpt lat="31.7621460" lon="35.0858240">
<ele>506.400024</ele>
<time>2025-10-17T16:36:54.491Z</time>
</trkpt>
<trkpt lat="31.7621460" lon="35.0858520">
<ele>506.600006</ele>
<time>2025-10-17T16:36:54.491Z</time>
</trkpt>
<trkpt lat="31.7621450" lon="35.0858760">
<ele>506.799988</ele>
<time>2025-10-17T16:36:54.491Z</time>
</trkpt>
<trkpt lat="31.7621460" lon="35.0859040">
<ele>507.000000</ele>
<time>2025-10-17T16:36:54.491Z</time>
</trkpt>
<trkpt lat="31.7621460" lon="35.0859370">
<ele>507.200012</ele>
<time>2025-10-17T16:36:54.491Z</time>
</trkpt>
<trkpt lat="31.7621480" lon="35.0859670">
<ele>507.399994</ele>
<time>2025-10-17T16:36:54.492Z</time>
</trkpt>
<trkpt lat="31.7621510" lon="35.0859980">
<ele>507.600006</ele>
<time>2025-10-17T16:36:54.492Z</time>
</trkpt>
<trkpt lat="31.7621560" lon="35.0860250">
<ele>507.799988</ele>
<time>2025-10-17T16:36:54.492Z</time>
</trkpt>
<trkpt lat="31.7621650" lon="35.0860590">
<ele>508.000000</ele>
<time>2025-10-17T16:36:54.492Z</time>
</trkpt>
<trkpt lat="31.7621800" lon="35.0861010">
<ele>508.000000</ele>
<time>2025-10-17T16:36:54.492Z</time>
</trkpt>
<trkpt lat="31.7621940" lon="35.0861340">
<ele>508.000000</ele>
<time>2025-10-17T16:36:54.492Z</time>
</trkpt>
<trkpt lat="31.7622090" lon="35.0861660">
<ele>508.000000</ele>
<time>2025-10-17T16:36:54.492Z</time>
</trkpt>
<trkpt lat="31.7622190" lon="35.0861990">
<ele>508.000000</ele>
<time>2025-10-17T16:36:54.492Z</time>
</trkpt>
<trkpt lat="31.7622400" lon="35.0862470">
<ele>508.000000</ele>
<time>2025-10-17T16:36:54.492Z</time>
</trkpt>
<trkpt lat="31.7622630" lon="35.0862810">
<ele>508.000000</ele>
<time>2025-10-17T16:36:54.492Z</time>
</trkpt>
<trkpt lat="31.7622860" lon="35.0863160">
<ele>508.000000</ele>
<time>2025-10-17T16:36:54.492Z</time>
</trkpt>
<trkpt lat="31.7623120" lon="35.0863500">
<ele>508.000000</ele>
<time>2025-10-17T16:36:54.492Z</time>
</trkpt>
<trkpt lat="31.7623330" lon="35.0863760">
<ele>507.799988</ele>
<time>2025-10-17T16:36:54.492Z</time>
</trkpt>
<trkpt lat="31.7623560" lon="35.0864090">
<ele>507.799988</ele>
<time>2025-10-17T16:36:54.492Z</time>
</trkpt>
<trkpt lat="31.7623840" lon="35.0864490">
<ele>507.799988</ele>
<time>2025-10-17T16:36:54.492Z</time>
</trkpt>
<trkpt lat="31.7624110" lon="35.0864810">
<ele>507.799988</ele>
<time>2025-10-17T16:36:54.492Z</time>
</trkpt>
<trkpt lat="31.7624380" lon="35.0865120">
<ele>507.600006</ele>
<time>2025-10-17T16:36:54.492Z</time>
</trkpt>
<trkpt lat="31.7625920" lon="35.0866610">
<ele>507.600006</ele>
<time>2025-10-17T16:36:54.492Z</time>
</trkpt>
<trkpt lat="31.7626170" lon="35.0866840">
<ele>507.399994</ele>
<time>2025-10-17T16:36:54.492Z</time>
</trkpt>
<trkpt lat="31.7628140" lon="35.0868380">
<ele>507.600006</ele>
<time>2025-10-17T16:36:54.492Z</time>
</trkpt>
<trkpt lat="31.7628400" lon="35.0868660">
<ele>507.799988</ele>
<time>2025-10-17T16:36:54.492Z</time>
</trkpt>
<trkpt lat="31.7628660" lon="35.0868930">
<ele>507.799988</ele>
<time>2025-10-17T16:36:54.492Z</time>
</trkpt>
<trkpt lat="31.7628900" lon="35.0869180">
<ele>508.000000</ele>
<time>2025-10-17T16:36:54.492Z</time>
</trkpt>
<trkpt lat="31.7629110" lon="35.0869390">
<ele>508.000000</ele>
<time>2025-10-17T16:36:54.492Z</time>
</trkpt>
<trkpt lat="31.7629380" lon="35.0869640">
<ele>508.000000</ele>
<time>2025-10-17T16:36:54.492Z</time>
</trkpt>
<trkpt lat="31.7629640" lon="35.0869890">
<ele>508.399994</ele>
<time>2025-10-17T16:36:54.492Z</time>
</trkpt>
<trkpt lat="31.7629970" lon="35.0870230">
<ele>508.399994</ele>
<time>2025-10-17T16:36:54.492Z</time>
</trkpt>
<trkpt lat="31.7630250" lon="35.0870540">
<ele>508.599976</ele>
<time>2025-10-17T16:36:54.493Z</time>
</trkpt>
<trkpt lat="31.7630510" lon="35.0870870">
<ele>508.599976</ele>
<time>2025-10-17T16:36:54.493Z</time>
</trkpt>
<trkpt lat="31.7630770" lon="35.0871200">
<ele>509.000000</ele>
<time>2025-10-17T16:36:54.493Z</time>
</trkpt>
<trkpt lat="31.7632250" lon="35.0873230">
<ele>509.400024</ele>
<time>2025-10-17T16:36:54.493Z</time>
</trkpt>
<trkpt lat="31.7632260" lon="35.0873700">
<ele>509.199982</ele>
<time>2025-10-17T16:36:54.493Z</time>
</trkpt>
<trkpt lat="31.7632140" lon="35.0874130">
<ele>509.199982</ele>
<time>2025-10-17T16:36:54.493Z</time>
</trkpt>
<trkpt lat="31.7631940" lon="35.0874500">
<ele>509.199982</ele>
<time>2025-10-17T16:36:54.493Z</time>
</trkpt>
<trkpt lat="31.7630620" lon="35.0875350">
<ele>508.800018</ele>
<time>2025-10-17T16:36:54.493Z</time>
</trkpt>
<trkpt lat="31.7630210" lon="35.0875410">
<ele>509.000000</ele>
<time>2025-10-17T16:36:54.493Z</time>
</trkpt>
<trkpt lat="31.7629790" lon="35.0875490">
<ele>509.000000</ele>
<time>2025-10-17T16:36:54.493Z</time>
</trkpt>
<trkpt lat="31.7628960" lon="35.0875620">
<ele>508.800018</ele>
<time>2025-10-17T16:36:54.493Z</time>
</trkpt>
<trkpt lat="31.7628580" lon="35.0875690">
<ele>508.800018</ele>
<time>2025-10-17T16:36:54.493Z</time>
</trkpt>
<trkpt lat="31.7628200" lon="35.0875730">
<ele>508.800018</ele>
<time>2025-10-17T16:36:54.493Z</time>
</trkpt>
<trkpt lat="31.7627830" lon="35.0875750">
<ele>508.800018</ele>
<time>2025-10-17T16:36:54.493Z</time>
</trkpt>
<trkpt lat="31.7627480" lon="35.0875750">
<ele>508.800018</ele>
<time>2025-10-17T16:36:54.493Z</time>
</trkpt>
<trkpt lat="31.7627140" lon="35.0875710">
<ele>508.800018</ele>
<time>2025-10-17T16:36:54.493Z</time>
</trkpt>
<trkpt lat="31.7626830" lon="35.0875730">
<ele>508.800018</ele>
<time>2025-10-17T16:36:54.493Z</time>
</trkpt>
<trkpt lat="31.7626580" lon="35.0875760">
<ele>508.800018</ele>
<time>2025-10-17T16:36:54.493Z</time>
</trkpt>
<trkpt lat="31.7626410" lon="35.0875800">
<ele>508.800018</ele>
<time>2025-10-17T16:36:54.493Z</time>
</trkpt>
<trkpt lat="31.7626280" lon="35.0875820">
<ele>508.800018</ele>
<time>2025-10-17T16:36:54.493Z</time>
</trkpt>
<trkpt lat="31.7626210" lon="35.0875840">
<ele>508.599976</ele>
<time>2025-10-17T16:36:54.493Z</time>
</trkpt>
<trkpt lat="31.7626210" lon="35.0875840">
<ele>508.399994</ele>
<time>2025-10-17T16:36:54.493Z</time>
</trkpt>
<trkpt lat="31.7625960" lon="35.0875870">
<ele>508.200012</ele>
<time>2025-10-17T16:36:54.493Z</time>
</trkpt>
<trkpt lat="31.7625700" lon="35.0875930">
<ele>508.200012</ele>
<time>2025-10-17T16:36:54.493Z</time>
</trkpt>
<trkpt lat="31.7624110" lon="35.0876260">
<ele>508.200012</ele>
<time>2025-10-17T16:36:54.493Z</time>
</trkpt>
<trkpt lat="31.7622870" lon="35.0876690">
<ele>508.000000</ele>
<time>2025-10-17T16:36:54.494Z</time>
</trkpt>
<trkpt lat="31.7622440" lon="35.0876890">
<ele>508.000000</ele>
<time>2025-10-17T16:36:54.494Z</time>
</trkpt>
<trkpt lat="31.7621370" lon="35.0877260">
<ele>508.000000</ele>
<time>2025-10-17T16:36:54.494Z</time>
</trkpt>
<trkpt lat="31.7619950" lon="35.0877740">
<ele>508.200012</ele>
<time>2025-10-17T16:36:54.494Z</time>
</trkpt>
<trkpt lat="31.7619640" lon="35.0877840">
<ele>508.599976</ele>
<time>2025-10-17T16:36:54.494Z</time>
</trkpt>
<trkpt lat="31.7619330" lon="35.0877950">
<ele>509.000000</ele>
<time>2025-10-17T16:36:54.494Z</time>
</trkpt>
<trkpt lat="31.7618970" lon="35.0878090">
<ele>509.000000</ele>
<time>2025-10-17T16:36:54.494Z</time>
</trkpt>
<trkpt lat="31.7618750" lon="35.0878200">
<ele>509.199982</ele>
<time>2025-10-17T16:36:54.494Z</time>
</trkpt>
<trkpt lat="31.7618470" lon="35.0878380">
<ele>509.199982</ele>
<time>2025-10-17T16:36:54.494Z</time>
</trkpt>
<trkpt lat="31.7618140" lon="35.0878610">
<ele>509.199982</ele>
<time>2025-10-17T16:36:54.494Z</time>
</trkpt>
<trkpt lat="31.7617930" lon="35.0878770">
<ele>509.400024</ele>
<time>2025-10-17T16:36:54.494Z</time>
</trkpt>
<trkpt lat="31.7617660" lon="35.0878960">
<ele>509.600006</ele>
<time>2025-10-17T16:36:54.494Z</time>
</trkpt>
<trkpt lat="31.7617410" lon="35.0879160">
<ele>509.600006</ele>
<time>2025-10-17T16:36:54.494Z</time>
</trkpt>
<trkpt lat="31.7617180" lon="35.0879350">
<ele>510.000000</ele>
<time>2025-10-17T16:36:54.494Z</time>
</trkpt>
<trkpt lat="31.7616970" lon="35.0879510">
<ele>510.399994</ele>
<time>2025-10-17T16:36:54.494Z</time>
</trkpt>
<trkpt lat="31.7616800" lon="35.0879680">
<ele>510.399994</ele>
<time>2025-10-17T16:36:54.494Z</time>
</trkpt>
<trkpt lat="31.7616610" lon="35.0879850">
<ele>510.600006</ele>
<time>2025-10-17T16:36:54.494Z</time>
</trkpt>
<trkpt lat="31.7616080" lon="35.0880280">
<ele>510.799988</ele>
<time>2025-10-17T16:36:54.494Z</time>
</trkpt>
<trkpt lat="31.7615630" lon="35.0880820">
<ele>511.000000</ele>
<time>2025-10-17T16:36:54.494Z</time>
</trkpt>
<trkpt lat="31.7615290" lon="35.0881360">
<ele>511.200012</ele>
<time>2025-10-17T16:36:54.494Z</time>
</trkpt>
<trkpt lat="31.7615130" lon="35.0881620">
<ele>511.200012</ele>
<time>2025-10-17T16:36:54.494Z</time>
</trkpt>
<trkpt lat="31.7614970" lon="35.0881890">
<ele>511.200012</ele>
<time>2025-10-17T16:36:54.494Z</time>
</trkpt>
<trkpt lat="31.7614790" lon="35.0882170">
<ele>511.399994</ele>
<time>2025-10-17T16:36:54.494Z</time>
</trkpt>
<trkpt lat="31.7614630" lon="35.0882480">
<ele>511.399994</ele>
<time>2025-10-17T16:36:54.494Z</time>
</trkpt>
<trkpt lat="31.7614470" lon="35.0882780">
<ele>511.800018</ele>
<time>2025-10-17T16:36:54.494Z</time>
</trkpt>
<trkpt lat="31.7614300" lon="35.0883080">
<ele>512.000000</ele>
<time>2025-10-17T16:36:54.494Z</time>
</trkpt>
<trkpt lat="31.7614130" lon="35.0883410">
<ele>512.599976</ele>
<time>2025-10-17T16:36:54.494Z</time>
</trkpt>
<trkpt lat="31.7613940" lon="35.0883730">
<ele>512.799988</ele>
<time>2025-10-17T16:36:54.495Z</time>
</trkpt>
<trkpt lat="31.7613750" lon="35.0884040">
<ele>513.000000</ele>
<time>2025-10-17T16:36:54.495Z</time>
</trkpt>
<trkpt lat="31.7613600" lon="35.0884340">
<ele>513.000000</ele>
<time>2025-10-17T16:36:54.495Z</time>
</trkpt>
<trkpt lat="31.7613470" lon="35.0884590">
<ele>513.200012</ele>
<time>2025-10-17T16:36:54.495Z</time>
</trkpt>
<trkpt lat="31.7613340" lon="35.0884870">
<ele>513.399963</ele>
<time>2025-10-17T16:36:54.495Z</time>
</trkpt>
<trkpt lat="31.7613230" lon="35.0885160">
<ele>513.399963</ele>
<time>2025-10-17T16:36:54.495Z</time>
</trkpt>
<trkpt lat="31.7613110" lon="35.0885440">
<ele>513.600037</ele>
<time>2025-10-17T16:36:54.495Z</time>
</trkpt>
<trkpt lat="31.7612940" lon="35.0885670">
<ele>513.600037</ele>
<time>2025-10-17T16:36:54.495Z</time>
</trkpt>
<trkpt lat="31.7612790" lon="35.0885880">
<ele>513.600037</ele>
<time>2025-10-17T16:36:54.495Z</time>
</trkpt>
<trkpt lat="31.7612690" lon="35.0886110">
<ele>513.799988</ele>
<time>2025-10-17T16:36:54.495Z</time>
</trkpt>
<trkpt lat="31.7612600" lon="35.0886340">
<ele>513.799988</ele>
<time>2025-10-17T16:36:54.495Z</time>
</trkpt>
<trkpt lat="31.7612490" lon="35.0886590">
<ele>514.000000</ele>
<time>2025-10-17T16:36:54.495Z</time>
</trkpt>
<trkpt lat="31.7612370" lon="35.0886850">
<ele>514.000000</ele>
<time>2025-10-17T16:36:54.495Z</time>
</trkpt>
<trkpt lat="31.7612230" lon="35.0887160">
<ele>514.000000</ele>
<time>2025-10-17T16:36:54.495Z</time>
</trkpt>
<trkpt lat="31.7612070" lon="35.0887470">
<ele>514.200012</ele>
<time>2025-10-17T16:36:54.495Z</time>
</trkpt>
<trkpt lat="31.7611940" lon="35.0887770">
<ele>514.200012</ele>
<time>2025-10-17T16:36:54.495Z</time>
</trkpt>
<trkpt lat="31.7611790" lon="35.0888100">
<ele>514.200012</ele>
<time>2025-10-17T16:36:54.495Z</time>
</trkpt>
<trkpt lat="31.7611680" lon="35.0888420">
<ele>514.400024</ele>
<time>2025-10-17T16:36:54.495Z</time>
</trkpt>
<trkpt lat="31.7611570" lon="35.0888730">
<ele>514.400024</ele>
<time>2025-10-17T16:36:54.495Z</time>
</trkpt>
<trkpt lat="31.7611460" lon="35.0889040">
<ele>514.200012</ele>
<time>2025-10-17T16:36:54.496Z</time>
</trkpt>
<trkpt lat="31.7611360" lon="35.0889330">
<ele>514.200012</ele>
<time>2025-10-17T16:36:54.496Z</time>
</trkpt>
<trkpt lat="31.7611260" lon="35.0889640">
<ele>514.200012</ele>
<time>2025-10-17T16:36:54.496Z</time>
</trkpt>
<trkpt lat="31.7611160" lon="35.0889970">
<ele>514.400024</ele>
<time>2025-10-17T16:36:54.496Z</time>
</trkpt>
<trkpt lat="31.7611050" lon="35.0890300">
<ele>514.400024</ele>
<time>2025-10-17T16:36:54.496Z</time>
</trkpt>
<trkpt lat="31.7610850" lon="35.0890910">
<ele>514.799988</ele>
<time>2025-10-17T16:36:54.496Z</time>
</trkpt>
<trkpt lat="31.7610740" lon="35.0891230">
<ele>514.799988</ele>
<time>2025-10-17T16:36:54.496Z</time>
</trkpt>
<trkpt lat="31.7610560" lon="35.0891870">
<ele>515.200012</ele>
<time>2025-10-17T16:36:54.496Z</time>
</trkpt>
<trkpt lat="31.7610360" lon="35.0892800">
<ele>515.200012</ele>
<time>2025-10-17T16:36:54.496Z</time>
</trkpt>
<trkpt lat="31.7610180" lon="35.0893300">
<ele>515.600037</ele>
<time>2025-10-17T16:36:54.496Z</time>
</trkpt>
<trkpt lat="31.7610120" lon="35.0893550">
<ele>515.600037</ele>
<time>2025-10-17T16:36:54.496Z</time>
</trkpt>
<trkpt lat="31.7610070" lon="35.0893780">
<ele>515.600037</ele>
<time>2025-10-17T16:36:54.496Z</time>
</trkpt>
<trkpt lat="31.7610030" lon="35.0894030">
<ele>515.600037</ele>
<time>2025-10-17T16:36:54.496Z</time>
</trkpt>
<trkpt lat="31.7609950" lon="35.0894280">
<ele>515.799988</ele>
<time>2025-10-17T16:36:54.496Z</time>
</trkpt>
<trkpt lat="31.7609870" lon="35.0894520">
<ele>515.799988</ele>
<time>2025-10-17T16:36:54.496Z</time>
</trkpt>
<trkpt lat="31.7609800" lon="35.0894750">
<ele>516.000000</ele>
<time>2025-10-17T16:36:54.496Z</time>
</trkpt>
<trkpt lat="31.7609730" lon="35.0894980">
<ele>516.200012</ele>
<time>2025-10-17T16:36:54.496Z</time>
</trkpt>
<trkpt lat="31.7609660" lon="35.0895210">
<ele>516.400024</ele>
<time>2025-10-17T16:36:54.496Z</time>
</trkpt>
<trkpt lat="31.7609610" lon="35.0895470">
<ele>516.400024</ele>
<time>2025-10-17T16:36:54.496Z</time>
</trkpt>
<trkpt lat="31.7609550" lon="35.0895680">
<ele>516.599976</ele>
<time>2025-10-17T16:36:54.496Z</time>
</trkpt>
<trkpt lat="31.7609490" lon="35.0895890">
<ele>516.599976</ele>
<time>2025-10-17T16:36:54.496Z</time>
</trkpt>
<trkpt lat="31.7609430" lon="35.0896130">
<ele>516.799988</ele>
<time>2025-10-17T16:36:54.496Z</time>
</trkpt>
<trkpt lat="31.7609210" lon="35.0896800">
<ele>517.000000</ele>
<time>2025-10-17T16:36:54.496Z</time>
</trkpt>
<trkpt lat="31.7608980" lon="35.0897430">
<ele>517.000000</ele>
<time>2025-10-17T16:36:54.496Z</time>
</trkpt>
<trkpt lat="31.7608880" lon="35.0897630">
<ele>517.200012</ele>
<time>2025-10-17T16:36:54.496Z</time>
</trkpt>
<trkpt lat="31.7608770" lon="35.0898040">
<ele>517.599976</ele>
<time>2025-10-17T16:36:54.497Z</time>
</trkpt>
<trkpt lat="31.7608750" lon="35.0898470">
<ele>518.399963</ele>
<time>2025-10-17T16:36:54.497Z</time>
</trkpt>
<trkpt lat="31.7608690" lon="35.0898670">
<ele>518.600037</ele>
<time>2025-10-17T16:36:54.497Z</time>
</trkpt>
<trkpt lat="31.7608660" lon="35.0898930">
<ele>518.600037</ele>
<time>2025-10-17T16:36:54.497Z</time>
</trkpt>
<trkpt lat="31.7608650" lon="35.0899150">
<ele>519.000000</ele>
<time>2025-10-17T16:36:54.497Z</time>
</trkpt>
<trkpt lat="31.7608620" lon="35.0899380">
<ele>519.000000</ele>
<time>2025-10-17T16:36:54.497Z</time>
</trkpt>
<trkpt lat="31.7608540" lon="35.0899530">
<ele>519.200012</ele>
<time>2025-10-17T16:36:54.497Z</time>
</trkpt>
<trkpt lat="31.7608470" lon="35.0899720">
<ele>519.400024</ele>
<time>2025-10-17T16:36:54.497Z</time>
</trkpt>
<trkpt lat="31.7608400" lon="35.0899930">
<ele>519.400024</ele>
<time>2025-10-17T16:36:54.497Z</time>
</trkpt>
<trkpt lat="31.7608320" lon="35.0900090">
<ele>519.599976</ele>
<time>2025-10-17T16:36:54.497Z</time>
</trkpt>
<trkpt lat="31.7608260" lon="35.0900270">
<ele>520.000000</ele>
<time>2025-10-17T16:36:54.497Z</time>
</trkpt>
<trkpt lat="31.7608190" lon="35.0900460">
<ele>520.200012</ele>
<time>2025-10-17T16:36:54.497Z</time>
</trkpt>
<trkpt lat="31.7608090" lon="35.0900690">
<ele>520.400024</ele>
<time>2025-10-17T16:36:54.497Z</time>
</trkpt>
<trkpt lat="31.7608020" lon="35.0900930">
<ele>520.599976</ele>
<time>2025-10-17T16:36:54.497Z</time>
</trkpt>
<trkpt lat="31.7607960" lon="35.0901150">
<ele>520.599976</ele>
<time>2025-10-17T16:36:54.497Z</time>
</trkpt>
<trkpt lat="31.7607890" lon="35.0901360">
<ele>520.799988</ele>
<time>2025-10-17T16:36:54.497Z</time>
</trkpt>
<trkpt lat="31.7607830" lon="35.0901570">
<ele>521.000000</ele>
<time>2025-10-17T16:36:54.497Z</time>
</trkpt>
<trkpt lat="31.7607780" lon="35.0901800">
<ele>521.200012</ele>
<time>2025-10-17T16:36:54.497Z</time>
</trkpt>
<trkpt lat="31.7607750" lon="35.0902030">
<ele>521.399963</ele>
<time>2025-10-17T16:36:54.497Z</time>
</trkpt>
<trkpt lat="31.7607720" lon="35.0902270">
<ele>521.600037</ele>
<time>2025-10-17T16:36:54.497Z</time>
</trkpt>
<trkpt lat="31.7607680" lon="35.0902500">
<ele>521.600037</ele>
<time>2025-10-17T16:36:54.497Z</time>
</trkpt>
<trkpt lat="31.7607620" lon="35.0902720">
<ele>521.799988</ele>
<time>2025-10-17T16:36:54.497Z</time>
</trkpt>
<trkpt lat="31.7607560" lon="35.0902940">
<ele>522.000000</ele>
<time>2025-10-17T16:36:54.497Z</time>
</trkpt>
<trkpt lat="31.7607540" lon="35.0903150">
<ele>522.200012</ele>
<time>2025-10-17T16:36:54.497Z</time>
</trkpt>
<trkpt lat="31.7607520" lon="35.0903370">
<ele>522.400024</ele>
<time>2025-10-17T16:36:54.497Z</time>
</trkpt>
<trkpt lat="31.7607490" lon="35.0903580">
<ele>522.400024</ele>
<time>2025-10-17T16:36:54.497Z</time>
</trkpt>
<trkpt lat="31.7607470" lon="35.0903790">
<ele>522.599976</ele>
<time>2025-10-17T16:36:54.497Z</time>
</trkpt>
<trkpt lat="31.7607480" lon="35.0903980">
<ele>522.799988</ele>
<time>2025-10-17T16:36:54.497Z</time>
</trkpt>
<trkpt lat="31.7607500" lon="35.0904180">
<ele>523.200012</ele>
<time>2025-10-17T16:36:54.498Z</time>
</trkpt>
<trkpt lat="31.7607510" lon="35.0904370">
<ele>523.599976</ele>
<time>2025-10-17T16:36:54.498Z</time>
</trkpt>
<trkpt lat="31.7607510" lon="35.0904580">
<ele>524.000000</ele>
<time>2025-10-17T16:36:54.498Z</time>
</trkpt>
<trkpt lat="31.7607540" lon="35.0904800">
<ele>524.200012</ele>
<time>2025-10-17T16:36:54.498Z</time>
</trkpt>
<trkpt lat="31.7607590" lon="35.0905020">
<ele>524.600037</ele>
<time>2025-10-17T16:36:54.498Z</time>
</trkpt>
<trkpt lat="31.7607640" lon="35.0905270">
<ele>524.600037</ele>
<time>2025-10-17T16:36:54.498Z</time>
</trkpt>
<trkpt lat="31.7607700" lon="35.0905550">
<ele>524.600037</ele>
<time>2025-10-17T16:36:54.498Z</time>
</trkpt>
<trkpt lat="31.7607770" lon="35.0905820">
<ele>524.799988</ele>
<time>2025-10-17T16:36:54.498Z</time>
</trkpt>
<trkpt lat="31.7607860" lon="35.0906080">
<ele>524.799988</ele>
<time>2025-10-17T16:36:54.498Z</time>
</trkpt>
<trkpt lat="31.7607950" lon="35.0906360">
<ele>524.799988</ele>
<time>2025-10-17T16:36:54.498Z</time>
</trkpt>
<trkpt lat="31.7608050" lon="35.0906630">
<ele>524.799988</ele>
<time>2025-10-17T16:36:54.498Z</time>
</trkpt>
<trkpt lat="31.7608170" lon="35.0906850">
<ele>524.799988</ele>
<time>2025-10-17T16:36:54.498Z</time>
</trkpt>
<trkpt lat="31.7608280" lon="35.0907060">
<ele>525.000000</ele>
<time>2025-10-17T16:36:54.498Z</time>
</trkpt>
<trkpt lat="31.7608420" lon="35.0907250">
<ele>525.000000</ele>
<time>2025-10-17T16:36:54.498Z</time>
</trkpt>
<trkpt lat="31.7608570" lon="35.0907400">
<ele>525.000000</ele>
<time>2025-10-17T16:36:54.498Z</time>
</trkpt>
<trkpt lat="31.7608700" lon="35.0907630">
<ele>525.000000</ele>
<time>2025-10-17T16:36:54.498Z</time>
</trkpt>
<trkpt lat="31.7608860" lon="35.0907890">
<ele>525.000000</ele>
<time>2025-10-17T16:36:54.498Z</time>
</trkpt>
<trkpt lat="31.7609060" lon="35.0908180">
<ele>525.000000</ele>
<time>2025-10-17T16:36:54.498Z</time>
</trkpt>
<trkpt lat="31.7609290" lon="35.0908510">
<ele>525.000000</ele>
<time>2025-10-17T16:36:54.498Z</time>
</trkpt>
<trkpt lat="31.7609550" lon="35.0908830">
<ele>525.000000</ele>
<time>2025-10-17T16:36:54.498Z</time>
</trkpt>
<trkpt lat="31.7609860" lon="35.0909130">
<ele>525.000000</ele>
<time>2025-10-17T16:36:54.498Z</time>
</trkpt>
<trkpt lat="31.7610270" lon="35.0909500">
<ele>525.000000</ele>
<time>2025-10-17T16:36:54.498Z</time>
</trkpt>
<trkpt lat="31.7610570" lon="35.0909760">
<ele>525.000000</ele>
<time>2025-10-17T16:36:54.498Z</time>
</trkpt>
<trkpt lat="31.7610950" lon="35.0910070">
<ele>525.000000</ele>
<time>2025-10-17T16:36:54.499Z</time>
</trkpt>
<trkpt lat="31.7611360" lon="35.0910350">
<ele>524.799988</ele>
<time>2025-10-17T16:36:54.499Z</time>
</trkpt>
<trkpt lat="31.7612540" lon="35.0911150">
<ele>524.399963</ele>
<time>2025-10-17T16:36:54.499Z</time>
</trkpt>
<trkpt lat="31.7612880" lon="35.0911400">
<ele>524.399963</ele>
<time>2025-10-17T16:36:54.499Z</time>
</trkpt>
<trkpt lat="31.7614690" lon="35.0912840">
<ele>524.200012</ele>
<time>2025-10-17T16:36:54.499Z</time>
</trkpt>
<trkpt lat="31.7614980" lon="35.0913110">
<ele>524.200012</ele>
<time>2025-10-17T16:36:54.499Z</time>
</trkpt>
<trkpt lat="31.7615240" lon="35.0913360">
<ele>524.000000</ele>
<time>2025-10-17T16:36:54.499Z</time>
</trkpt>
<trkpt lat="31.7615440" lon="35.0913600">
<ele>524.000000</ele>
<time>2025-10-17T16:36:54.499Z</time>
</trkpt>
<trkpt lat="31.7615660" lon="35.0913820">
<ele>524.200012</ele>
<time>2025-10-17T16:36:54.499Z</time>
</trkpt>
<trkpt lat="31.7615880" lon="35.0914000">
<ele>524.600037</ele>
<time>2025-10-17T16:36:54.499Z</time>
</trkpt>
<trkpt lat="31.7616090" lon="35.0914160">
<ele>524.600037</ele>
<time>2025-10-17T16:36:54.499Z</time>
</trkpt>
<trkpt lat="31.7616310" lon="35.0914350">
<ele>525.000000</ele>
<time>2025-10-17T16:36:54.499Z</time>
</trkpt>
<trkpt lat="31.7616510" lon="35.0914520">
<ele>525.200012</ele>
<time>2025-10-17T16:36:54.499Z</time>
</trkpt>
<trkpt lat="31.7616680" lon="35.0914680">
<ele>526.000000</ele>
<time>2025-10-17T16:36:54.499Z</time>
</trkpt>
<trkpt lat="31.7616850" lon="35.0914830">
<ele>526.200012</ele>
<time>2025-10-17T16:36:54.499Z</time>
</trkpt>
<trkpt lat="31.7617060" lon="35.0915010">
<ele>526.400024</ele>
<time>2025-10-17T16:36:54.499Z</time>
</trkpt>
<trkpt lat="31.7617550" lon="35.0915380">
<ele>526.599976</ele>
<time>2025-10-17T16:36:54.499Z</time>
</trkpt>
<trkpt lat="31.7619490" lon="35.0916520">
<ele>527.200012</ele>
<time>2025-10-17T16:36:54.499Z</time>
</trkpt>
<trkpt lat="31.7619770" lon="35.0916710">
<ele>527.400024</ele>
<time>2025-10-17T16:36:54.499Z</time>
</trkpt>
<trkpt lat="31.7620000" lon="35.0916880">
<ele>527.599976</ele>
<time>2025-10-17T16:36:54.499Z</time>
</trkpt>
<trkpt lat="31.7620190" lon="35.0917000">
<ele>527.799988</ele>
<time>2025-10-17T16:36:54.499Z</time>
</trkpt>
<trkpt lat="31.7620430" lon="35.0917150">
<ele>528.000000</ele>
<time>2025-10-17T16:36:54.499Z</time>
</trkpt>
<trkpt lat="31.7620670" lon="35.0917310">
<ele>528.200012</ele>
<time>2025-10-17T16:36:54.499Z</time>
</trkpt>
<trkpt lat="31.7620910" lon="35.0917460">
<ele>528.400024</ele>
<time>2025-10-17T16:36:54.499Z</time>
</trkpt>
<trkpt lat="31.7621150" lon="35.0917610">
<ele>528.599976</ele>
<time>2025-10-17T16:36:54.499Z</time>
</trkpt>
<trkpt lat="31.7621400" lon="35.0917760">
<ele>528.799988</ele>
<time>2025-10-17T16:36:54.499Z</time>
</trkpt>
<trkpt lat="31.7621660" lon="35.0917910">
<ele>528.799988</ele>
<time>2025-10-17T16:36:54.499Z</time>
</trkpt>
<trkpt lat="31.7621930" lon="35.0918050">
<ele>529.000000</ele>
<time>2025-10-17T16:36:54.500Z</time>
</trkpt>
<trkpt lat="31.7622210" lon="35.0918210">
<ele>529.000000</ele>
<time>2025-10-17T16:36:54.500Z</time>
</trkpt>
<trkpt lat="31.7622490" lon="35.0918380">
<ele>529.200012</ele>
<time>2025-10-17T16:36:54.500Z</time>
</trkpt>
<trkpt lat="31.7622760" lon="35.0918580">
<ele>529.200012</ele>
<time>2025-10-17T16:36:54.500Z</time>
</trkpt>
<trkpt lat="31.7623020" lon="35.0918750">
<ele>529.200012</ele>
<time>2025-10-17T16:36:54.500Z</time>
</trkpt>
<trkpt lat="31.7623320" lon="35.0918900">
<ele>529.200012</ele>
<time>2025-10-17T16:36:54.500Z</time>
</trkpt>
<trkpt lat="31.7623610" lon="35.0919030">
<ele>529.200012</ele>
<time>2025-10-17T16:36:54.500Z</time>
</trkpt>
<trkpt lat="31.7623960" lon="35.0919200">
<ele>529.399963</ele>
<time>2025-10-17T16:36:54.500Z</time>
</trkpt>
<trkpt lat="31.7624200" lon="35.0919270">
<ele>529.399963</ele>
<time>2025-10-17T16:36:54.500Z</time>
</trkpt>
<trkpt lat="31.7624500" lon="35.0919350">
<ele>529.399963</ele>
<time>2025-10-17T16:36:54.500Z</time>
</trkpt>
<trkpt lat="31.7624770" lon="35.0919510">
<ele>529.399963</ele>
<time>2025-10-17T16:36:54.500Z</time>
</trkpt>
<trkpt lat="31.7625050" lon="35.0919680">
<ele>529.799988</ele>
<time>2025-10-17T16:36:54.500Z</time>
</trkpt>
<trkpt lat="31.7625340" lon="35.0919810">
<ele>530.000000</ele>
<time>2025-10-17T16:36:54.500Z</time>
</trkpt>
<trkpt lat="31.7625730" lon="35.0919960">
<ele>530.000000</ele>
<time>2025-10-17T16:36:54.500Z</time>
</trkpt>
<trkpt lat="31.7625990" lon="35.0920070">
<ele>530.400024</ele>
<time>2025-10-17T16:36:54.500Z</time>
</trkpt>
<trkpt lat="31.7626360" lon="35.0920280">
<ele>530.400024</ele>
<time>2025-10-17T16:36:54.500Z</time>
</trkpt>
<trkpt lat="31.7626650" lon="35.0920490">
<ele>530.400024</ele>
<time>2025-10-17T16:36:54.500Z</time>
</trkpt>
<trkpt lat="31.7626920" lon="35.0920700">
<ele>530.400024</ele>
<time>2025-10-17T16:36:54.500Z</time>
</trkpt>
<trkpt lat="31.7627170" lon="35.0920990">
<ele>530.200012</ele>
<time>2025-10-17T16:36:54.500Z</time>
</trkpt>
<trkpt lat="31.7627340" lon="35.0921260">
<ele>530.200012</ele>
<time>2025-10-17T16:36:54.500Z</time>
</trkpt>
<trkpt lat="31.7627520" lon="35.0921590">
<ele>530.400024</ele>
<time>2025-10-17T16:36:54.500Z</time>
</trkpt>
<trkpt lat="31.7627630" lon="35.0922060">
<ele>530.400024</ele>
<time>2025-10-17T16:36:54.500Z</time>
</trkpt>
<trkpt lat="31.7627650" lon="35.0922470">
<ele>530.400024</ele>
<time>2025-10-17T16:36:54.500Z</time>
</trkpt>
<trkpt lat="31.7627640" lon="35.0922890">
<ele>530.400024</ele>
<time>2025-10-17T16:36:54.500Z</time>
</trkpt>
<trkpt lat="31.7627620" lon="35.0923280">
<ele>530.400024</ele>
<time>2025-10-17T16:36:54.500Z</time>
</trkpt>
<trkpt lat="31.7627580" lon="35.0923640">
<ele>530.200012</ele>
<time>2025-10-17T16:36:54.500Z</time>
</trkpt>
<trkpt lat="31.7627510" lon="35.0925260">
<ele>530.599976</ele>
<time>2025-10-17T16:36:54.500Z</time>
</trkpt>
<trkpt lat="31.7627600" lon="35.0926250">
<ele>531.000000</ele>
<time>2025-10-17T16:36:54.500Z</time>
</trkpt>
<trkpt lat="31.7627970" lon="35.0928260">
<ele>531.200012</ele>
<time>2025-10-17T16:36:54.501Z</time>
</trkpt>
<trkpt lat="31.7628080" lon="35.0928770">
<ele>531.000000</ele>
<time>2025-10-17T16:36:54.501Z</time>
</trkpt>
<trkpt lat="31.7629100" lon="35.0931390">
<ele>531.200012</ele>
<time>2025-10-17T16:36:54.501Z</time>
</trkpt>
<trkpt lat="31.7629310" lon="35.0931830">
<ele>531.400024</ele>
<time>2025-10-17T16:36:54.501Z</time>
</trkpt>
<trkpt lat="31.7629870" lon="35.0933230">
<ele>532.000000</ele>
<time>2025-10-17T16:36:54.501Z</time>
</trkpt>
<trkpt lat="31.7630030" lon="35.0933650">
<ele>532.200012</ele>
<time>2025-10-17T16:36:54.501Z</time>
</trkpt>
<trkpt lat="31.7630160" lon="35.0934050">
<ele>532.200012</ele>
<time>2025-10-17T16:36:54.501Z</time>
</trkpt>
<trkpt lat="31.7630270" lon="35.0934420">
<ele>532.399963</ele>
<time>2025-10-17T16:36:54.501Z</time>
</trkpt>
<trkpt lat="31.7630360" lon="35.0934830">
<ele>532.399963</ele>
<time>2025-10-17T16:36:54.501Z</time>
</trkpt>
<trkpt lat="31.7630440" lon="35.0935760">
<ele>532.600037</ele>
<time>2025-10-17T16:36:54.501Z</time>
</trkpt>
<trkpt lat="31.7630410" lon="35.0936230">
<ele>532.799988</ele>
<time>2025-10-17T16:36:54.501Z</time>
</trkpt>
<trkpt lat="31.7630240" lon="35.0937090">
<ele>533.000000</ele>
<time>2025-10-17T16:36:54.501Z</time>
</trkpt>
<trkpt lat="31.7630180" lon="35.0937520">
<ele>533.200012</ele>
<time>2025-10-17T16:36:54.501Z</time>
</trkpt>
<trkpt lat="31.7630070" lon="35.0938000">
<ele>533.200012</ele>
<time>2025-10-17T16:36:54.501Z</time>
</trkpt>
<trkpt lat="31.7629980" lon="35.0938300">
<ele>533.400024</ele>
<time>2025-10-17T16:36:54.501Z</time>
</trkpt>
<trkpt lat="31.7629900" lon="35.0938660">
<ele>533.400024</ele>
<time>2025-10-17T16:36:54.501Z</time>
</trkpt>
<trkpt lat="31.7629840" lon="35.0939020">
<ele>533.599976</ele>
<time>2025-10-17T16:36:54.501Z</time>
</trkpt>
<trkpt lat="31.7629810" lon="35.0939340">
<ele>533.599976</ele>
<time>2025-10-17T16:36:54.501Z</time>
</trkpt>
<trkpt lat="31.7629740" lon="35.0939750">
<ele>533.799988</ele>
<time>2025-10-17T16:36:54.501Z</time>
</trkpt>
<trkpt lat="31.7629710" lon="35.0940010">
<ele>533.799988</ele>
<time>2025-10-17T16:36:54.501Z</time>
</trkpt>
<trkpt lat="31.7629690" lon="35.0940330">
<ele>534.000000</ele>
<time>2025-10-17T16:36:54.501Z</time>
</trkpt>
<trkpt lat="31.7629690" lon="35.0940680">
<ele>534.200012</ele>
<time>2025-10-17T16:36:54.501Z</time>
</trkpt>
<trkpt lat="31.7629690" lon="35.0941120">
<ele>534.400024</ele>
<time>2025-10-17T16:36:54.501Z</time>
</trkpt>
<trkpt lat="31.7629700" lon="35.0941440">
<ele>534.599976</ele>
<time>2025-10-17T16:36:54.501Z</time>
</trkpt>
<trkpt lat="31.7629720" lon="35.0941840">
<ele>534.799988</ele>
<time>2025-10-17T16:36:54.501Z</time>
</trkpt>
<trkpt lat="31.7629750" lon="35.0942240">
<ele>535.000000</ele>
<time>2025-10-17T16:36:54.501Z</time>
</trkpt>
<trkpt lat="31.7629790" lon="35.0942630">
<ele>535.000000</ele>
<time>2025-10-17T16:36:54.501Z</time>
</trkpt>
<trkpt lat="31.7629850" lon="35.0943040">
<ele>535.000000</ele>
<time>2025-10-17T16:36:54.501Z</time>
</trkpt>
<trkpt lat="31.7629930" lon="35.0943450">
<ele>535.200012</ele>
<time>2025-10-17T16:36:54.502Z</time>
</trkpt>
<trkpt lat="31.7630040" lon="35.0943820">
<ele>535.399963</ele>
<time>2025-10-17T16:36:54.502Z</time>
</trkpt>
<trkpt lat="31.7630150" lon="35.0944180">
<ele>535.600037</ele>
<time>2025-10-17T16:36:54.502Z</time>
</trkpt>
<trkpt lat="31.7630270" lon="35.0944520">
<ele>535.600037</ele>
<time>2025-10-17T16:36:54.502Z</time>
</trkpt>
<trkpt lat="31.7630390" lon="35.0944840">
<ele>535.799988</ele>
<time>2025-10-17T16:36:54.502Z</time>
</trkpt>
<trkpt lat="31.7630530" lon="35.0945220">
<ele>536.000000</ele>
<time>2025-10-17T16:36:54.502Z</time>
</trkpt>
<trkpt lat="31.7630690" lon="35.0945580">
<ele>536.000000</ele>
<time>2025-10-17T16:36:54.502Z</time>
</trkpt>
<trkpt lat="31.7630830" lon="35.0945910">
<ele>536.000000</ele>
<time>2025-10-17T16:36:54.502Z</time>
</trkpt>
<trkpt lat="31.7631000" lon="35.0946210">
<ele>536.000000</ele>
<time>2025-10-17T16:36:54.502Z</time>
</trkpt>
<trkpt lat="31.7631180" lon="35.0946490">
<ele>536.000000</ele>
<time>2025-10-17T16:36:54.502Z</time>
</trkpt>
<trkpt lat="31.7631370" lon="35.0946730">
<ele>536.000000</ele>
<time>2025-10-17T16:36:54.502Z</time>
</trkpt>
<trkpt lat="31.7631550" lon="35.0946970">
<ele>536.000000</ele>
<time>2025-10-17T16:36:54.502Z</time>
</trkpt>
<trkpt lat="31.7631720" lon="35.0947210">
<ele>536.000000</ele>
<time>2025-10-17T16:36:54.502Z</time>
</trkpt>
<trkpt lat="31.7631900" lon="35.0947430">
<ele>536.000000</ele>
<time>2025-10-17T16:36:54.502Z</time>
</trkpt>
<trkpt lat="31.7632090" lon="35.0947640">
<ele>536.000000</ele>
<time>2025-10-17T16:36:54.502Z</time>
</trkpt>
<trkpt lat="31.7632260" lon="35.0947840">
<ele>536.000000</ele>
<time>2025-10-17T16:36:54.502Z</time>
</trkpt>
<trkpt lat="31.7632410" lon="35.0948070">
<ele>536.000000</ele>
<time>2025-10-17T16:36:54.502Z</time>
</trkpt>
<trkpt lat="31.7632580" lon="35.0948300">
<ele>536.000000</ele>
<time>2025-10-17T16:36:54.502Z</time>
</trkpt>
<trkpt lat="31.7632750" lon="35.0948510">
<ele>536.000000</ele>
<time>2025-10-17T16:36:54.502Z</time>
</trkpt>
<trkpt lat="31.7632930" lon="35.0948720">
<ele>536.000000</ele>
<time>2025-10-17T16:36:54.502Z</time>
</trkpt>
<trkpt lat="31.7633130" lon="35.0948930">
<ele>536.000000</ele>
<time>2025-10-17T16:36:54.502Z</time>
</trkpt>
<trkpt lat="31.7633710" lon="35.0949540">
<ele>536.400024</ele>
<time>2025-10-17T16:36:54.502Z</time>
</trkpt>
<trkpt lat="31.7634610" lon="35.0950650">
<ele>537.200012</ele>
<time>2025-10-17T16:36:54.502Z</time>
</trkpt>
<trkpt lat="31.7635310" lon="35.0951570">
<ele>537.599976</ele>
<time>2025-10-17T16:36:54.502Z</time>
</trkpt>
<trkpt lat="31.7635430" lon="35.0951880">
<ele>537.599976</ele>
<time>2025-10-17T16:36:54.502Z</time>
</trkpt>
<trkpt lat="31.7635580" lon="35.0952140">
<ele>537.799988</ele>
<time>2025-10-17T16:36:54.502Z</time>
</trkpt>
<trkpt lat="31.7635740" lon="35.0952330">
<ele>537.799988</ele>
<time>2025-10-17T16:36:54.502Z</time>
</trkpt>
<trkpt lat="31.7636410" lon="35.0953010">
<ele>538.600037</ele>
<time>2025-10-17T16:36:54.503Z</time>
</trkpt>
<trkpt lat="31.7636570" lon="35.0953150">
<ele>538.600037</ele>
<time>2025-10-17T16:36:54.503Z</time>
</trkpt>
<trkpt lat="31.7636730" lon="35.0953270">
<ele>538.600037</ele>
<time>2025-10-17T16:36:54.503Z</time>
</trkpt>
<trkpt lat="31.7636910" lon="35.0953410">
<ele>538.799988</ele>
<time>2025-10-17T16:36:54.503Z</time>
</trkpt>
<trkpt lat="31.7637070" lon="35.0953540">
<ele>538.799988</ele>
<time>2025-10-17T16:36:54.503Z</time>
</trkpt>
<trkpt lat="31.7637210" lon="35.0953670">
<ele>539.000000</ele>
<time>2025-10-17T16:36:54.503Z</time>
</trkpt>
<trkpt lat="31.7637360" lon="35.0953820">
<ele>539.000000</ele>
<time>2025-10-17T16:36:54.503Z</time>
</trkpt>
<trkpt lat="31.7637670" lon="35.0954030">
<ele>539.400024</ele>
<time>2025-10-17T16:36:54.503Z</time>
</trkpt>
<trkpt lat="31.7637830" lon="35.0954140">
<ele>539.599976</ele>
<time>2025-10-17T16:36:54.503Z</time>
</trkpt>
<trkpt lat="31.7637980" lon="35.0954260">
<ele>539.599976</ele>
<time>2025-10-17T16:36:54.503Z</time>
</trkpt>
<trkpt lat="31.7638120" lon="35.0954380">
<ele>539.799988</ele>
<time>2025-10-17T16:36:54.503Z</time>
</trkpt>
<trkpt lat="31.7638250" lon="35.0954490">
<ele>539.799988</ele>
<time>2025-10-17T16:36:54.503Z</time>
</trkpt>
<trkpt lat="31.7638420" lon="35.0954600">
<ele>540.000000</ele>
<time>2025-10-17T16:36:54.503Z</time>
</trkpt>
<trkpt lat="31.7638590" lon="35.0954740">
<ele>540.200012</ele>
<time>2025-10-17T16:36:54.503Z</time>
</trkpt>
<trkpt lat="31.7638780" lon="35.0954870">
<ele>540.200012</ele>
<time>2025-10-17T16:36:54.503Z</time>
</trkpt>
<trkpt lat="31.7638960" lon="35.0955000">
<ele>540.399963</ele>
<time>2025-10-17T16:36:54.503Z</time>
</trkpt>
<trkpt lat="31.7639160" lon="35.0955120">
<ele>540.399963</ele>
<time>2025-10-17T16:36:54.503Z</time>
</trkpt>
<trkpt lat="31.7639350" lon="35.0955270">
<ele>540.600037</ele>
<time>2025-10-17T16:36:54.503Z</time>
</trkpt>
<trkpt lat="31.7639530" lon="35.0955400">
<ele>540.600037</ele>
<time>2025-10-17T16:36:54.503Z</time>
</trkpt>
<trkpt lat="31.7639700" lon="35.0955510">
<ele>540.799988</ele>
<time>2025-10-17T16:36:54.503Z</time>
</trkpt>
<trkpt lat="31.7639880" lon="35.0955640">
<ele>541.000000</ele>
<time>2025-10-17T16:36:54.503Z</time>
</trkpt>
<trkpt lat="31.7640080" lon="35.0955760">
<ele>541.200012</ele>
<time>2025-10-17T16:36:54.503Z</time>
</trkpt>
<trkpt lat="31.7640290" lon="35.0955870">
<ele>541.400024</ele>
<time>2025-10-17T16:36:54.503Z</time>
</trkpt>
<trkpt lat="31.7640470" lon="35.0956020">
<ele>541.599976</ele>
<time>2025-10-17T16:36:54.503Z</time>
</trkpt>
<trkpt lat="31.7640630" lon="35.0956160">
<ele>541.599976</ele>
<time>2025-10-17T16:36:54.503Z</time>
</trkpt>
<trkpt lat="31.7640830" lon="35.0956260">
<ele>541.799988</ele>
<time>2025-10-17T16:36:54.503Z</time>
</trkpt>
<trkpt lat="31.7641060" lon="35.0956390">
<ele>541.799988</ele>
<time>2025-10-17T16:36:54.503Z</time>
</trkpt>
<trkpt lat="31.7641270" lon="35.0956560">
<ele>541.799988</ele>
<time>2025-10-17T16:36:54.503Z</time>
</trkpt>
<trkpt lat="31.7641450" lon="35.0956710">
<ele>542.000000</ele>
<time>2025-10-17T16:36:54.504Z</time>
</trkpt>
<trkpt lat="31.7641630" lon="35.0956830">
<ele>542.000000</ele>
<time>2025-10-17T16:36:54.504Z</time>
</trkpt>
<trkpt lat="31.7641800" lon="35.0956910">
<ele>542.000000</ele>
<time>2025-10-17T16:36:54.504Z</time>
</trkpt>
<trkpt lat="31.7641990" lon="35.0957000">
<ele>542.000000</ele>
<time>2025-10-17T16:36:54.504Z</time>
</trkpt>
<trkpt lat="31.7642180" lon="35.0957130">
<ele>542.000000</ele>
<time>2025-10-17T16:36:54.504Z</time>
</trkpt>
<trkpt lat="31.7642380" lon="35.0957300">
<ele>542.599976</ele>
<time>2025-10-17T16:36:54.504Z</time>
</trkpt>
<trkpt lat="31.7642520" lon="35.0957380">
<ele>542.799988</ele>
<time>2025-10-17T16:36:54.504Z</time>
</trkpt>
<trkpt lat="31.7642710" lon="35.0957450">
<ele>543.000000</ele>
<time>2025-10-17T16:36:54.504Z</time>
</trkpt>
<trkpt lat="31.7642900" lon="35.0957560">
<ele>543.200012</ele>
<time>2025-10-17T16:36:54.504Z</time>
</trkpt>
<trkpt lat="31.7643120" lon="35.0957670">
<ele>543.399963</ele>
<time>2025-10-17T16:36:54.504Z</time>
</trkpt>
<trkpt lat="31.7643320" lon="35.0957810">
<ele>543.399963</ele>
<time>2025-10-17T16:36:54.504Z</time>
</trkpt>
<trkpt lat="31.7643480" lon="35.0957980">
<ele>543.600037</ele>
<time>2025-10-17T16:36:54.504Z</time>
</trkpt>
<trkpt lat="31.7643620" lon="35.0958160">
<ele>543.799988</ele>
<time>2025-10-17T16:36:54.504Z</time>
</trkpt>
<trkpt lat="31.7643780" lon="35.0958300">
<ele>544.200012</ele>
<time>2025-10-17T16:36:54.504Z</time>
</trkpt>
<trkpt lat="31.7643950" lon="35.0958410">
<ele>544.400024</ele>
<time>2025-10-17T16:36:54.504Z</time>
</trkpt>
<trkpt lat="31.7644140" lon="35.0958550">
<ele>544.400024</ele>
<time>2025-10-17T16:36:54.504Z</time>
</trkpt>
<trkpt lat="31.7644320" lon="35.0958680">
<ele>544.599976</ele>
<time>2025-10-17T16:36:54.504Z</time>
</trkpt>
<trkpt lat="31.7644490" lon="35.0958820">
<ele>544.599976</ele>
<time>2025-10-17T16:36:54.504Z</time>
</trkpt>
<trkpt lat="31.7644650" lon="35.0958950">
<ele>545.000000</ele>
<time>2025-10-17T16:36:54.504Z</time>
</trkpt>
<trkpt lat="31.7644880" lon="35.0959130">
<ele>545.000000</ele>
<time>2025-10-17T16:36:54.504Z</time>
</trkpt>
<trkpt lat="31.7645040" lon="35.0959280">
<ele>545.200012</ele>
<time>2025-10-17T16:36:54.504Z</time>
</trkpt>
<trkpt lat="31.7645250" lon="35.0959430">
<ele>545.200012</ele>
<time>2025-10-17T16:36:54.504Z</time>
</trkpt>
<trkpt lat="31.7645480" lon="35.0959590">
<ele>545.400024</ele>
<time>2025-10-17T16:36:54.504Z</time>
</trkpt>
<trkpt lat="31.7645720" lon="35.0959750">
<ele>545.400024</ele>
<time>2025-10-17T16:36:54.504Z</time>
</trkpt>
<trkpt lat="31.7645940" lon="35.0959940">
<ele>545.599976</ele>
<time>2025-10-17T16:36:54.504Z</time>
</trkpt>
<trkpt lat="31.7646130" lon="35.0960160">
<ele>545.599976</ele>
<time>2025-10-17T16:36:54.504Z</time>
</trkpt>
<trkpt lat="31.7646320" lon="35.0960380">
<ele>545.599976</ele>
<time>2025-10-17T16:36:54.504Z</time>
</trkpt>
<trkpt lat="31.7646510" lon="35.0960600">
<ele>545.799988</ele>
<time>2025-10-17T16:36:54.504Z</time>
</trkpt>
<trkpt lat="31.7646650" lon="35.0960820">
<ele>545.799988</ele>
<time>2025-10-17T16:36:54.505Z</time>
</trkpt>
<trkpt lat="31.7646780" lon="35.0961130">
<ele>546.000000</ele>
<time>2025-10-17T16:36:54.505Z</time>
</trkpt>
<trkpt lat="31.7646890" lon="35.0961500">
<ele>546.200012</ele>
<time>2025-10-17T16:36:54.505Z</time>
</trkpt>
<trkpt lat="31.7646920" lon="35.0961870">
<ele>546.200012</ele>
<time>2025-10-17T16:36:54.505Z</time>
</trkpt>
<trkpt lat="31.7646910" lon="35.0962240">
<ele>546.000000</ele>
<time>2025-10-17T16:36:54.505Z</time>
</trkpt>
<trkpt lat="31.7646890" lon="35.0962610">
<ele>546.200012</ele>
<time>2025-10-17T16:36:54.505Z</time>
</trkpt>
<trkpt lat="31.7646820" lon="35.0963010">
<ele>546.200012</ele>
<time>2025-10-17T16:36:54.505Z</time>
</trkpt>
<trkpt lat="31.7646730" lon="35.0963420">
<ele>546.399963</ele>
<time>2025-10-17T16:36:54.505Z</time>
</trkpt>
<trkpt lat="31.7646640" lon="35.0963870">
<ele>546.600037</ele>
<time>2025-10-17T16:36:54.505Z</time>
</trkpt>
<trkpt lat="31.7646510" lon="35.0964330">
<ele>546.600037</ele>
<time>2025-10-17T16:36:54.505Z</time>
</trkpt>
<trkpt lat="31.7646380" lon="35.0964820">
<ele>546.799988</ele>
<time>2025-10-17T16:36:54.505Z</time>
</trkpt>
<trkpt lat="31.7646250" lon="35.0965310">
<ele>546.799988</ele>
<time>2025-10-17T16:36:54.505Z</time>
</trkpt>
<trkpt lat="31.7646120" lon="35.0965870">
<ele>547.000000</ele>
<time>2025-10-17T16:36:54.505Z</time>
</trkpt>
<trkpt lat="31.7646050" lon="35.0966240">
<ele>547.000000</ele>
<time>2025-10-17T16:36:54.505Z</time>
</trkpt>
<trkpt lat="31.7645970" lon="35.0966690">
<ele>547.000000</ele>
<time>2025-10-17T16:36:54.505Z</time>
</trkpt>
<trkpt lat="31.7645880" lon="35.0967150">
<ele>547.000000</ele>
<time>2025-10-17T16:36:54.505Z</time>
</trkpt>
<trkpt lat="31.7645740" lon="35.0967730">
<ele>547.200012</ele>
<time>2025-10-17T16:36:54.505Z</time>
</trkpt>
<trkpt lat="31.7645640" lon="35.0968130">
<ele>547.400024</ele>
<time>2025-10-17T16:36:54.505Z</time>
</trkpt>
<trkpt lat="31.7645520" lon="35.0968640">
<ele>547.599976</ele>
<time>2025-10-17T16:36:54.505Z</time>
</trkpt>
<trkpt lat="31.7645440" lon="35.0969140">
<ele>547.400024</ele>
<time>2025-10-17T16:36:54.505Z</time>
</trkpt>
<trkpt lat="31.7645240" lon="35.0970190">
<ele>547.200012</ele>
<time>2025-10-17T16:36:54.505Z</time>
</trkpt>
<trkpt lat="31.7644970" lon="35.0971160">
<ele>547.200012</ele>
<time>2025-10-17T16:36:54.505Z</time>
</trkpt>
<trkpt lat="31.7644870" lon="35.0971620">
<ele>547.200012</ele>
<time>2025-10-17T16:36:54.505Z</time>
</trkpt>
<trkpt lat="31.7644790" lon="35.0972680">
<ele>547.400024</ele>
<time>2025-10-17T16:36:54.505Z</time>
</trkpt>
<trkpt lat="31.7644830" lon="35.0973620">
<ele>547.400024</ele>
<time>2025-10-17T16:36:54.505Z</time>
</trkpt>
<trkpt lat="31.7644850" lon="35.0974130">
<ele>547.400024</ele>
<time>2025-10-17T16:36:54.505Z</time>
</trkpt>
<trkpt lat="31.7644970" lon="35.0976240">
<ele>546.600037</ele>
<time>2025-10-17T16:36:54.506Z</time>
</trkpt>
<trkpt lat="31.7645000" lon="35.0977360">
<ele>546.200012</ele>
<time>2025-10-17T16:36:54.506Z</time>
</trkpt>
<trkpt lat="31.7644960" lon="35.0979520">
<ele>545.799988</ele>
<time>2025-10-17T16:36:54.506Z</time>
</trkpt>
<trkpt lat="31.7644900" lon="35.0980680">
<ele>545.799988</ele>
<time>2025-10-17T16:36:54.506Z</time>
</trkpt>
<trkpt lat="31.7644830" lon="35.0982300">
<ele>545.799988</ele>
<time>2025-10-17T16:36:54.506Z</time>
</trkpt>
<trkpt lat="31.7644810" lon="35.0982770">
<ele>546.399963</ele>
<time>2025-10-17T16:36:54.506Z</time>
</trkpt>
<trkpt lat="31.7644800" lon="35.0983230">
<ele>546.600037</ele>
<time>2025-10-17T16:36:54.506Z</time>
</trkpt>
<trkpt lat="31.7644810" lon="35.0983670">
<ele>546.799988</ele>
<time>2025-10-17T16:36:54.506Z</time>
</trkpt>
<trkpt lat="31.7644820" lon="35.0984080">
<ele>547.000000</ele>
<time>2025-10-17T16:36:54.506Z</time>
</trkpt>
<trkpt lat="31.7644790" lon="35.0984500">
<ele>547.200012</ele>
<time>2025-10-17T16:36:54.506Z</time>
</trkpt>
<trkpt lat="31.7644770" lon="35.0985000">
<ele>547.200012</ele>
<time>2025-10-17T16:36:54.506Z</time>
</trkpt>
<trkpt lat="31.7644810" lon="35.0986250">
<ele>547.599976</ele>
<time>2025-10-17T16:36:54.506Z</time>
</trkpt>
<trkpt lat="31.7644860" lon="35.0986710">
<ele>548.000000</ele>
<time>2025-10-17T16:36:54.506Z</time>
</trkpt>
<trkpt lat="31.7644910" lon="35.0987080">
<ele>548.000000</ele>
<time>2025-10-17T16:36:54.506Z</time>
</trkpt>
<trkpt lat="31.7644950" lon="35.0987430">
<ele>548.200012</ele>
<time>2025-10-17T16:36:54.506Z</time>
</trkpt>
<trkpt lat="31.7644990" lon="35.0987770">
<ele>548.599976</ele>
<time>2025-10-17T16:36:54.506Z</time>
</trkpt>
<trkpt lat="31.7645020" lon="35.0988080">
<ele>548.599976</ele>
<time>2025-10-17T16:36:54.506Z</time>
</trkpt>
<trkpt lat="31.7645100" lon="35.0988370">
<ele>549.000000</ele>
<time>2025-10-17T16:36:54.506Z</time>
</trkpt>
<trkpt lat="31.7645190" lon="35.0988630">
<ele>549.000000</ele>
<time>2025-10-17T16:36:54.506Z</time>
</trkpt>
<trkpt lat="31.7645270" lon="35.0988890">
<ele>549.399963</ele>
<time>2025-10-17T16:36:54.506Z</time>
</trkpt>
<trkpt lat="31.7645360" lon="35.0989140">
<ele>549.600037</ele>
<time>2025-10-17T16:36:54.506Z</time>
</trkpt>
<trkpt lat="31.7645450" lon="35.0989410">
<ele>550.000000</ele>
<time>2025-10-17T16:36:54.506Z</time>
</trkpt>
<trkpt lat="31.7645540" lon="35.0989670">
<ele>550.200012</ele>
<time>2025-10-17T16:36:54.506Z</time>
</trkpt>
<trkpt lat="31.7645660" lon="35.0989930">
<ele>550.400024</ele>
<time>2025-10-17T16:36:54.506Z</time>
</trkpt>
<trkpt lat="31.7645780" lon="35.0990200">
<ele>550.799988</ele>
<time>2025-10-17T16:36:54.506Z</time>
</trkpt>
<trkpt lat="31.7645930" lon="35.0990440">
<ele>550.799988</ele>
<time>2025-10-17T16:36:54.506Z</time>
</trkpt>
<trkpt lat="31.7646080" lon="35.0990720">
<ele>551.000000</ele>
<time>2025-10-17T16:36:54.506Z</time>
</trkpt>
<trkpt lat="31.7646240" lon="35.0990990">
<ele>551.000000</ele>
<time>2025-10-17T16:36:54.506Z</time>
</trkpt>
<trkpt lat="31.7646430" lon="35.0991220">
<ele>551.200012</ele>
<time>2025-10-17T16:36:54.507Z</time>
</trkpt>
<trkpt lat="31.7646640" lon="35.0991430">
<ele>551.400024</ele>
<time>2025-10-17T16:36:54.507Z</time>
</trkpt>
<trkpt lat="31.7646830" lon="35.0991630">
<ele>551.799988</ele>
<time>2025-10-17T16:36:54.507Z</time>
</trkpt>
<trkpt lat="31.7647030" lon="35.0991810">
<ele>552.000000</ele>
<time>2025-10-17T16:36:54.507Z</time>
</trkpt>
<trkpt lat="31.7647210" lon="35.0991970">
<ele>552.200012</ele>
<time>2025-10-17T16:36:54.507Z</time>
</trkpt>
<trkpt lat="31.7647410" lon="35.0992150">
<ele>552.200012</ele>
<time>2025-10-17T16:36:54.507Z</time>
</trkpt>
<trkpt lat="31.7647620" lon="35.0992290">
<ele>552.200012</ele>
<time>2025-10-17T16:36:54.507Z</time>
</trkpt>
<trkpt lat="31.7647840" lon="35.0992410">
<ele>553.000000</ele>
<time>2025-10-17T16:36:54.507Z</time>
</trkpt>
<trkpt lat="31.7648070" lon="35.0992540">
<ele>553.200012</ele>
<time>2025-10-17T16:36:54.507Z</time>
</trkpt>
<trkpt lat="31.7648290" lon="35.0992670">
<ele>553.599976</ele>
<time>2025-10-17T16:36:54.507Z</time>
</trkpt>
<trkpt lat="31.7648520" lon="35.0992770">
<ele>553.799988</ele>
<time>2025-10-17T16:36:54.507Z</time>
</trkpt>
<trkpt lat="31.7648730" lon="35.0992850">
<ele>554.000000</ele>
<time>2025-10-17T16:36:54.507Z</time>
</trkpt>
<trkpt lat="31.7648970" lon="35.0992910">
<ele>554.000000</ele>
<time>2025-10-17T16:36:54.507Z</time>
</trkpt>
<trkpt lat="31.7649200" lon="35.0993010">
<ele>554.000000</ele>
<time>2025-10-17T16:36:54.507Z</time>
</trkpt>
<trkpt lat="31.7649430" lon="35.0993120">
<ele>554.000000</ele>
<time>2025-10-17T16:36:54.507Z</time>
</trkpt>
<trkpt lat="31.7649650" lon="35.0993240">
<ele>554.000000</ele>
<time>2025-10-17T16:36:54.507Z</time>
</trkpt>
<trkpt lat="31.7649880" lon="35.0993340">
<ele>554.200012</ele>
<time>2025-10-17T16:36:54.507Z</time>
</trkpt>
<trkpt lat="31.7650120" lon="35.0993400">
<ele>554.200012</ele>
<time>2025-10-17T16:36:54.507Z</time>
</trkpt>
<trkpt lat="31.7650350" lon="35.0993480">
<ele>554.600037</ele>
<time>2025-10-17T16:36:54.507Z</time>
</trkpt>
<trkpt lat="31.7650550" lon="35.0993560">
<ele>554.799988</ele>
<time>2025-10-17T16:36:54.507Z</time>
</trkpt>
<trkpt lat="31.7650750" lon="35.0993690">
<ele>555.200012</ele>
<time>2025-10-17T16:36:54.507Z</time>
</trkpt>
<trkpt lat="31.7650990" lon="35.0993820">
<ele>555.200012</ele>
<time>2025-10-17T16:36:54.507Z</time>
</trkpt>
<trkpt lat="31.7651250" lon="35.0993940">
<ele>555.400024</ele>
<time>2025-10-17T16:36:54.507Z</time>
</trkpt>
<trkpt lat="31.7651510" lon="35.0994030">
<ele>555.400024</ele>
<time>2025-10-17T16:36:54.507Z</time>
</trkpt>
<trkpt lat="31.7651760" lon="35.0994110">
<ele>555.400024</ele>
<time>2025-10-17T16:36:54.508Z</time>
</trkpt>
<trkpt lat="31.7651970" lon="35.0994170">
<ele>555.599976</ele>
<time>2025-10-17T16:36:54.508Z</time>
</trkpt>
<trkpt lat="31.7652180" lon="35.0994200">
<ele>555.799988</ele>
<time>2025-10-17T16:36:54.508Z</time>
</trkpt>
<trkpt lat="31.7652390" lon="35.0994240">
<ele>555.799988</ele>
<time>2025-10-17T16:36:54.508Z</time>
</trkpt>
<trkpt lat="31.7652580" lon="35.0994320">
<ele>555.799988</ele>
<time>2025-10-17T16:36:54.508Z</time>
</trkpt>
<trkpt lat="31.7652750" lon="35.0994390">
<ele>556.000000</ele>
<time>2025-10-17T16:36:54.508Z</time>
</trkpt>
<trkpt lat="31.7652950" lon="35.0994440">
<ele>556.200012</ele>
<time>2025-10-17T16:36:54.508Z</time>
</trkpt>
<trkpt lat="31.7653160" lon="35.0994500">
<ele>556.400024</ele>
<time>2025-10-17T16:36:54.508Z</time>
</trkpt>
<trkpt lat="31.7653370" lon="35.0994540">
<ele>556.400024</ele>
<time>2025-10-17T16:36:54.508Z</time>
</trkpt>
<trkpt lat="31.7653580" lon="35.0994610">
<ele>556.799988</ele>
<time>2025-10-17T16:36:54.508Z</time>
</trkpt>
<trkpt lat="31.7653800" lon="35.0994650">
<ele>557.000000</ele>
<time>2025-10-17T16:36:54.508Z</time>
</trkpt>
<trkpt lat="31.7654020" lon="35.0994690">
<ele>557.200012</ele>
<time>2025-10-17T16:36:54.508Z</time>
</trkpt>
<trkpt lat="31.7654220" lon="35.0994750">
<ele>557.399963</ele>
<time>2025-10-17T16:36:54.508Z</time>
</trkpt>
<trkpt lat="31.7654430" lon="35.0994830">
<ele>557.399963</ele>
<time>2025-10-17T16:36:54.508Z</time>
</trkpt>
<trkpt lat="31.7654650" lon="35.0994910">
<ele>557.600037</ele>
<time>2025-10-17T16:36:54.508Z</time>
</trkpt>
<trkpt lat="31.7654860" lon="35.0994990">
<ele>557.600037</ele>
<time>2025-10-17T16:36:54.508Z</time>
</trkpt>
<trkpt lat="31.7655060" lon="35.0995050">
<ele>557.600037</ele>
<time>2025-10-17T16:36:54.508Z</time>
</trkpt>
<trkpt lat="31.7655250" lon="35.0995110">
<ele>557.600037</ele>
<time>2025-10-17T16:36:54.508Z</time>
</trkpt>
<trkpt lat="31.7655460" lon="35.0995190">
<ele>557.600037</ele>
<time>2025-10-17T16:36:54.508Z</time>
</trkpt>
<trkpt lat="31.7655650" lon="35.0995260">
<ele>557.799988</ele>
<time>2025-10-17T16:36:54.508Z</time>
</trkpt>
<trkpt lat="31.7655840" lon="35.0995340">
<ele>557.799988</ele>
<time>2025-10-17T16:36:54.508Z</time>
</trkpt>
<trkpt lat="31.7656040" lon="35.0995400">
<ele>558.000000</ele>
<time>2025-10-17T16:36:54.508Z</time>
</trkpt>
<trkpt lat="31.7656250" lon="35.0995460">
<ele>558.000000</ele>
<time>2025-10-17T16:36:54.509Z</time>
</trkpt>
<trkpt lat="31.7656460" lon="35.0995510">
<ele>558.200012</ele>
<time>2025-10-17T16:36:54.509Z</time>
</trkpt>
<trkpt lat="31.7656670" lon="35.0995550">
<ele>558.400024</ele>
<time>2025-10-17T16:36:54.509Z</time>
</trkpt>
<trkpt lat="31.7656880" lon="35.0995610">
<ele>558.599976</ele>
<time>2025-10-17T16:36:54.509Z</time>
</trkpt>
<trkpt lat="31.7657090" lon="35.0995670">
<ele>558.799988</ele>
<time>2025-10-17T16:36:54.509Z</time>
</trkpt>
<trkpt lat="31.7657310" lon="35.0995710">
<ele>559.000000</ele>
<time>2025-10-17T16:36:54.509Z</time>
</trkpt>
<trkpt lat="31.7657520" lon="35.0995740">
<ele>559.000000</ele>
<time>2025-10-17T16:36:54.509Z</time>
</trkpt>
<trkpt lat="31.7657720" lon="35.0995790">
<ele>559.200012</ele>
<time>2025-10-17T16:36:54.509Z</time>
</trkpt>
<trkpt lat="31.7657930" lon="35.0995860">
<ele>559.200012</ele>
<time>2025-10-17T16:36:54.509Z</time>
</trkpt>
<trkpt lat="31.7658140" lon="35.0995950">
<ele>559.400024</ele>
<time>2025-10-17T16:36:54.509Z</time>
</trkpt>
<trkpt lat="31.7658300" lon="35.0996060">
<ele>559.400024</ele>
<time>2025-10-17T16:36:54.509Z</time>
</trkpt>
<trkpt lat="31.7658490" lon="35.0996140">
<ele>559.400024</ele>
<time>2025-10-17T16:36:54.509Z</time>
</trkpt>
<trkpt lat="31.7658680" lon="35.0996190">
<ele>559.599976</ele>
<time>2025-10-17T16:36:54.509Z</time>
</trkpt>
<trkpt lat="31.7658860" lon="35.0996240">
<ele>559.599976</ele>
<time>2025-10-17T16:36:54.509Z</time>
</trkpt>
<trkpt lat="31.7659030" lon="35.0996280">
<ele>559.799988</ele>
<time>2025-10-17T16:36:54.509Z</time>
</trkpt>
<trkpt lat="31.7659190" lon="35.0996340">
<ele>559.799988</ele>
<time>2025-10-17T16:36:54.509Z</time>
</trkpt>
<trkpt lat="31.7659350" lon="35.0996410">
<ele>559.799988</ele>
<time>2025-10-17T16:36:54.509Z</time>
</trkpt>
<trkpt lat="31.7659500" lon="35.0996490">
<ele>560.000000</ele>
<time>2025-10-17T16:36:54.509Z</time>
</trkpt>
<trkpt lat="31.7659620" lon="35.0996610">
<ele>560.399963</ele>
<time>2025-10-17T16:36:54.509Z</time>
</trkpt>
<trkpt lat="31.7659760" lon="35.0996710">
<ele>560.799988</ele>
<time>2025-10-17T16:36:54.509Z</time>
</trkpt>
<trkpt lat="31.7659900" lon="35.0996810">
<ele>561.000000</ele>
<time>2025-10-17T16:36:54.509Z</time>
</trkpt>
<trkpt lat="31.7660010" lon="35.0996930">
<ele>561.200012</ele>
<time>2025-10-17T16:36:54.509Z</time>
</trkpt>
<trkpt lat="31.7660150" lon="35.0997040">
<ele>561.599976</ele>
<time>2025-10-17T16:36:54.509Z</time>
</trkpt>
<trkpt lat="31.7660270" lon="35.0997120">
<ele>562.000000</ele>
<time>2025-10-17T16:36:54.509Z</time>
</trkpt>
<trkpt lat="31.7660400" lon="35.0997170">
<ele>562.000000</ele>
<time>2025-10-17T16:36:54.509Z</time>
</trkpt>
<trkpt lat="31.7660530" lon="35.0997240">
<ele>562.200012</ele>
<time>2025-10-17T16:36:54.509Z</time>
</trkpt>
<trkpt lat="31.7660680" lon="35.0997320">
<ele>562.400024</ele>
<time>2025-10-17T16:36:54.509Z</time>
</trkpt>
<trkpt lat="31.7660850" lon="35.0997390">
<ele>562.599976</ele>
<time>2025-10-17T16:36:54.509Z</time>
</trkpt>
<trkpt lat="31.7661010" lon="35.0997450">
<ele>562.799988</ele>
<time>2025-10-17T16:36:54.510Z</time>
</trkpt>
<trkpt lat="31.7661160" lon="35.0997510">
<ele>563.000000</ele>
<time>2025-10-17T16:36:54.510Z</time>
</trkpt>
<trkpt lat="31.7661250" lon="35.0997620">
<ele>563.600037</ele>
<time>2025-10-17T16:36:54.510Z</time>
</trkpt>
<trkpt lat="31.7661390" lon="35.0997690">
<ele>563.799988</ele>
<time>2025-10-17T16:36:54.510Z</time>
</trkpt>
<trkpt lat="31.7661550" lon="35.0997740">
<ele>564.200012</ele>
<time>2025-10-17T16:36:54.510Z</time>
</trkpt>
<trkpt lat="31.7661720" lon="35.0997780">
<ele>564.200012</ele>
<time>2025-10-17T16:36:54.510Z</time>
</trkpt>
<trkpt lat="31.7661890" lon="35.0997820">
<ele>564.400024</ele>
<time>2025-10-17T16:36:54.510Z</time>
</trkpt>
<trkpt lat="31.7662060" lon="35.0997880">
<ele>564.400024</ele>
<time>2025-10-17T16:36:54.510Z</time>
</trkpt>
<trkpt lat="31.7662230" lon="35.0997920">
<ele>564.599976</ele>
<time>2025-10-17T16:36:54.510Z</time>
</trkpt>
<trkpt lat="31.7662400" lon="35.0997980">
<ele>564.599976</ele>
<time>2025-10-17T16:36:54.510Z</time>
</trkpt>
<trkpt lat="31.7662570" lon="35.0998040">
<ele>565.000000</ele>
<time>2025-10-17T16:36:54.510Z</time>
</trkpt>
<trkpt lat="31.7662750" lon="35.0998090">
<ele>565.200012</ele>
<time>2025-10-17T16:36:54.510Z</time>
</trkpt>
<trkpt lat="31.7662930" lon="35.0998130">
<ele>565.399963</ele>
<time>2025-10-17T16:36:54.510Z</time>
</trkpt>
<trkpt lat="31.7663110" lon="35.0998190">
<ele>565.600037</ele>
<time>2025-10-17T16:36:54.510Z</time>
</trkpt>
<trkpt lat="31.7663290" lon="35.0998240">
<ele>565.600037</ele>
<time>2025-10-17T16:36:54.510Z</time>
</trkpt>
<trkpt lat="31.7663470" lon="35.0998260">
<ele>565.799988</ele>
<time>2025-10-17T16:36:54.510Z</time>
</trkpt>
<trkpt lat="31.7663660" lon="35.0998260">
<ele>565.600037</ele>
<time>2025-10-17T16:36:54.510Z</time>
</trkpt>
<trkpt lat="31.7663840" lon="35.0998260">
<ele>566.000000</ele>
<time>2025-10-17T16:36:54.510Z</time>
</trkpt>
<trkpt lat="31.7664020" lon="35.0998250">
<ele>566.000000</ele>
<time>2025-10-17T16:36:54.510Z</time>
</trkpt>
<trkpt lat="31.7664210" lon="35.0998250">
<ele>566.200012</ele>
<time>2025-10-17T16:36:54.510Z</time>
</trkpt>
<trkpt lat="31.7664390" lon="35.0998240">
<ele>566.400024</ele>
<time>2025-10-17T16:36:54.510Z</time>
</trkpt>
<trkpt lat="31.7664550" lon="35.0998220">
<ele>566.799988</ele>
<time>2025-10-17T16:36:54.510Z</time>
</trkpt>
<trkpt lat="31.7664720" lon="35.0998240">
<ele>566.799988</ele>
<time>2025-10-17T16:36:54.510Z</time>
</trkpt>
<trkpt lat="31.7664890" lon="35.0998250">
<ele>567.000000</ele>
<time>2025-10-17T16:36:54.510Z</time>
</trkpt>
<trkpt lat="31.7665080" lon="35.0998250">
<ele>567.000000</ele>
<time>2025-10-17T16:36:54.510Z</time>
</trkpt>
<trkpt lat="31.7665280" lon="35.0998250">
<ele>567.200012</ele>
<time>2025-10-17T16:36:54.510Z</time>
</trkpt>
<trkpt lat="31.7665480" lon="35.0998250">
<ele>567.200012</ele>
<time>2025-10-17T16:36:54.510Z</time>
</trkpt>
<trkpt lat="31.7665670" lon="35.0998230">
<ele>567.400024</ele>
<time>2025-10-17T16:36:54.511Z</time>
</trkpt>
<trkpt lat="31.7665870" lon="35.0998210">
<ele>567.599976</ele>
<time>2025-10-17T16:36:54.511Z</time>
</trkpt>
<trkpt lat="31.7666080" lon="35.0998180">
<ele>567.799988</ele>
<time>2025-10-17T16:36:54.511Z</time>
</trkpt>
<trkpt lat="31.7666280" lon="35.0998160">
<ele>568.000000</ele>
<time>2025-10-17T16:36:54.511Z</time>
</trkpt>
<trkpt lat="31.7666470" lon="35.0998140">
<ele>568.000000</ele>
<time>2025-10-17T16:36:54.511Z</time>
</trkpt>
<trkpt lat="31.7666640" lon="35.0998100">
<ele>568.200012</ele>
<time>2025-10-17T16:36:54.511Z</time>
</trkpt>
<trkpt lat="31.7666860" lon="35.0998050">
<ele>568.200012</ele>
<time>2025-10-17T16:36:54.511Z</time>
</trkpt>
<trkpt lat="31.7667060" lon="35.0998020">
<ele>568.200012</ele>
<time>2025-10-17T16:36:54.511Z</time>
</trkpt>
<trkpt lat="31.7667260" lon="35.0998000">
<ele>568.399963</ele>
<time>2025-10-17T16:36:54.511Z</time>
</trkpt>
<trkpt lat="31.7667470" lon="35.0998030">
<ele>568.600037</ele>
<time>2025-10-17T16:36:54.511Z</time>
</trkpt>
<trkpt lat="31.7667680" lon="35.0998050">
<ele>568.600037</ele>
<time>2025-10-17T16:36:54.511Z</time>
</trkpt>
<trkpt lat="31.7667860" lon="35.0998040">
<ele>568.600037</ele>
<time>2025-10-17T16:36:54.511Z</time>
</trkpt>
<trkpt lat="31.7668030" lon="35.0998030">
<ele>568.600037</ele>
<time>2025-10-17T16:36:54.511Z</time>
</trkpt>
<trkpt lat="31.7668210" lon="35.0998020">
<ele>568.799988</ele>
<time>2025-10-17T16:36:54.511Z</time>
</trkpt>
<trkpt lat="31.7668360" lon="35.0998020">
<ele>568.799988</ele>
<time>2025-10-17T16:36:54.511Z</time>
</trkpt>
<trkpt lat="31.7668540" lon="35.0998000">
<ele>569.000000</ele>
<time>2025-10-17T16:36:54.511Z</time>
</trkpt>
<trkpt lat="31.7668730" lon="35.0998020">
<ele>569.000000</ele>
<time>2025-10-17T16:36:54.511Z</time>
</trkpt>
<trkpt lat="31.7668920" lon="35.0998050">
<ele>569.400024</ele>
<time>2025-10-17T16:36:54.511Z</time>
</trkpt>
<trkpt lat="31.7669120" lon="35.0998060">
<ele>569.400024</ele>
<time>2025-10-17T16:36:54.511Z</time>
</trkpt>
<trkpt lat="31.7669300" lon="35.0998060">
<ele>569.599976</ele>
<time>2025-10-17T16:36:54.511Z</time>
</trkpt>
<trkpt lat="31.7669500" lon="35.0998080">
<ele>569.599976</ele>
<time>2025-10-17T16:36:54.511Z</time>
</trkpt>
<trkpt lat="31.7669670" lon="35.0998110">
<ele>569.799988</ele>
<time>2025-10-17T16:36:54.511Z</time>
</trkpt>
<trkpt lat="31.7669860" lon="35.0998150">
<ele>569.799988</ele>
<time>2025-10-17T16:36:54.511Z</time>
</trkpt>
<trkpt lat="31.7670030" lon="35.0998190">
<ele>569.799988</ele>
<time>2025-10-17T16:36:54.511Z</time>
</trkpt>
<trkpt lat="31.7670190" lon="35.0998250">
<ele>570.000000</ele>
<time>2025-10-17T16:36:54.511Z</time>
</trkpt>
<trkpt lat="31.7670370" lon="35.0998300">
<ele>570.200012</ele>
<time>2025-10-17T16:36:54.511Z</time>
</trkpt>
<trkpt lat="31.7670540" lon="35.0998350">
<ele>570.400024</ele>
<time>2025-10-17T16:36:54.511Z</time>
</trkpt>
<trkpt lat="31.7670730" lon="35.0998390">
<ele>570.400024</ele>
<time>2025-10-17T16:36:54.512Z</time>
</trkpt>
<trkpt lat="31.7670910" lon="35.0998420">
<ele>570.599976</ele>
<time>2025-10-17T16:36:54.512Z</time>
</trkpt>
<trkpt lat="31.7671110" lon="35.0998440">
<ele>570.599976</ele>
<time>2025-10-17T16:36:54.512Z</time>
</trkpt>
<trkpt lat="31.7671310" lon="35.0998460">
<ele>570.799988</ele>
<time>2025-10-17T16:36:54.512Z</time>
</trkpt>
<trkpt lat="31.7671510" lon="35.0998470">
<ele>570.799988</ele>
<time>2025-10-17T16:36:54.512Z</time>
</trkpt>
<trkpt lat="31.7671710" lon="35.0998500">
<ele>571.000000</ele>
<time>2025-10-17T16:36:54.512Z</time>
</trkpt>
<trkpt lat="31.7671910" lon="35.0998540">
<ele>571.000000</ele>
<time>2025-10-17T16:36:54.512Z</time>
</trkpt>
<trkpt lat="31.7672110" lon="35.0998560">
<ele>571.000000</ele>
<time>2025-10-17T16:36:54.512Z</time>
</trkpt>
<trkpt lat="31.7672300" lon="35.0998590">
<ele>571.200012</ele>
<time>2025-10-17T16:36:54.512Z</time>
</trkpt>
<trkpt lat="31.7672480" lon="35.0998620">
<ele>571.200012</ele>
<time>2025-10-17T16:36:54.512Z</time>
</trkpt>
<trkpt lat="31.7672670" lon="35.0998650">
<ele>571.200012</ele>
<time>2025-10-17T16:36:54.512Z</time>
</trkpt>
<trkpt lat="31.7672850" lon="35.0998660">
<ele>571.399963</ele>
<time>2025-10-17T16:36:54.512Z</time>
</trkpt>
<trkpt lat="31.7673030" lon="35.0998670">
<ele>571.600037</ele>
<time>2025-10-17T16:36:54.512Z</time>
</trkpt>
<trkpt lat="31.7673210" lon="35.0998720">
<ele>571.799988</ele>
<time>2025-10-17T16:36:54.512Z</time>
</trkpt>
<trkpt lat="31.7673380" lon="35.0998750">
<ele>571.799988</ele>
<time>2025-10-17T16:36:54.512Z</time>
</trkpt>
<trkpt lat="31.7673560" lon="35.0998750">
<ele>572.200012</ele>
<time>2025-10-17T16:36:54.512Z</time>
</trkpt>
<trkpt lat="31.7673760" lon="35.0998770">
<ele>572.400024</ele>
<time>2025-10-17T16:36:54.512Z</time>
</trkpt>
<trkpt lat="31.7673980" lon="35.0998790">
<ele>572.400024</ele>
<time>2025-10-17T16:36:54.512Z</time>
</trkpt>
<trkpt lat="31.7674200" lon="35.0998800">
<ele>572.599976</ele>
<time>2025-10-17T16:36:54.512Z</time>
</trkpt>
<trkpt lat="31.7674410" lon="35.0998830">
<ele>572.599976</ele>
<time>2025-10-17T16:36:54.512Z</time>
</trkpt>
<trkpt lat="31.7674610" lon="35.0998840">
<ele>572.799988</ele>
<time>2025-10-17T16:36:54.512Z</time>
</trkpt>
<trkpt lat="31.7674820" lon="35.0998800">
<ele>572.799988</ele>
<time>2025-10-17T16:36:54.512Z</time>
</trkpt>
<trkpt lat="31.7675030" lon="35.0998760">
<ele>573.000000</ele>
<time>2025-10-17T16:36:54.512Z</time>
</trkpt>
<trkpt lat="31.7675240" lon="35.0998710">
<ele>573.000000</ele>
<time>2025-10-17T16:36:54.512Z</time>
</trkpt>
<trkpt lat="31.7675460" lon="35.0998690">
<ele>573.000000</ele>
<time>2025-10-17T16:36:54.512Z</time>
</trkpt>
<trkpt lat="31.7675700" lon="35.0998650">
<ele>573.400024</ele>
<time>2025-10-17T16:36:54.512Z</time>
</trkpt>
<trkpt lat="31.7675910" lon="35.0998620">
<ele>573.599976</ele>
<time>2025-10-17T16:36:54.512Z</time>
</trkpt>
<trkpt lat="31.7676130" lon="35.0998540">
<ele>573.799988</ele>
<time>2025-10-17T16:36:54.512Z</time>
</trkpt>
<trkpt lat="31.7676350" lon="35.0998460">
<ele>573.599976</ele>
<time>2025-10-17T16:36:54.513Z</time>
</trkpt>
<trkpt lat="31.7676570" lon="35.0998370">
<ele>574.000000</ele>
<time>2025-10-17T16:36:54.513Z</time>
</trkpt>
<trkpt lat="31.7676750" lon="35.0998270">
<ele>574.200012</ele>
<time>2025-10-17T16:36:54.513Z</time>
</trkpt>
<trkpt lat="31.7676920" lon="35.0998130">
<ele>574.200012</ele>
<time>2025-10-17T16:36:54.513Z</time>
</trkpt>
<trkpt lat="31.7677100" lon="35.0998000">
<ele>574.399963</ele>
<time>2025-10-17T16:36:54.513Z</time>
</trkpt>
<trkpt lat="31.7677270" lon="35.0997860">
<ele>574.399963</ele>
<time>2025-10-17T16:36:54.513Z</time>
</trkpt>
<trkpt lat="31.7677460" lon="35.0997720">
<ele>574.600037</ele>
<time>2025-10-17T16:36:54.513Z</time>
</trkpt>
<trkpt lat="31.7677640" lon="35.0997620">
<ele>575.000000</ele>
<time>2025-10-17T16:36:54.513Z</time>
</trkpt>
<trkpt lat="31.7677790" lon="35.0997470">
<ele>575.200012</ele>
<time>2025-10-17T16:36:54.513Z</time>
</trkpt>
<trkpt lat="31.7677950" lon="35.0997280">
<ele>575.400024</ele>
<time>2025-10-17T16:36:54.513Z</time>
</trkpt>
<trkpt lat="31.7678110" lon="35.0997100">
<ele>575.400024</ele>
<time>2025-10-17T16:36:54.513Z</time>
</trkpt>
<trkpt lat="31.7678290" lon="35.0996900">
<ele>575.599976</ele>
<time>2025-10-17T16:36:54.513Z</time>
</trkpt>
<trkpt lat="31.7678480" lon="35.0996700">
<ele>576.000000</ele>
<time>2025-10-17T16:36:54.513Z</time>
</trkpt>
<trkpt lat="31.7678680" lon="35.0996530">
<ele>576.200012</ele>
<time>2025-10-17T16:36:54.513Z</time>
</trkpt>
<trkpt lat="31.7678880" lon="35.0996340">
<ele>576.400024</ele>
<time>2025-10-17T16:36:54.513Z</time>
</trkpt>
<trkpt lat="31.7679080" lon="35.0996170">
<ele>576.799988</ele>
<time>2025-10-17T16:36:54.513Z</time>
</trkpt>
<trkpt lat="31.7679270" lon="35.0995980">
<ele>577.000000</ele>
<time>2025-10-17T16:36:54.513Z</time>
</trkpt>
<trkpt lat="31.7679460" lon="35.0995770">
<ele>577.200012</ele>
<time>2025-10-17T16:36:54.513Z</time>
</trkpt>
<trkpt lat="31.7679670" lon="35.0995580">
<ele>577.399963</ele>
<time>2025-10-17T16:36:54.513Z</time>
</trkpt>
<trkpt lat="31.7679880" lon="35.0995400">
<ele>577.600037</ele>
<time>2025-10-17T16:36:54.513Z</time>
</trkpt>
<trkpt lat="31.7680040" lon="35.0995210">
<ele>578.000000</ele>
<time>2025-10-17T16:36:54.513Z</time>
</trkpt>
<trkpt lat="31.7680210" lon="35.0995020">
<ele>578.200012</ele>
<time>2025-10-17T16:36:54.513Z</time>
</trkpt>
<trkpt lat="31.7680390" lon="35.0994850">
<ele>578.400024</ele>
<time>2025-10-17T16:36:54.513Z</time>
</trkpt>
<trkpt lat="31.7680560" lon="35.0994680">
<ele>578.400024</ele>
<time>2025-10-17T16:36:54.513Z</time>
</trkpt>
<trkpt lat="31.7680740" lon="35.0994510">
<ele>578.599976</ele>
<time>2025-10-17T16:36:54.513Z</time>
</trkpt>
<trkpt lat="31.7680920" lon="35.0994350">
<ele>578.799988</ele>
<time>2025-10-17T16:36:54.513Z</time>
</trkpt>
<trkpt lat="31.7681110" lon="35.0994190">
<ele>578.799988</ele>
<time>2025-10-17T16:36:54.513Z</time>
</trkpt>
<trkpt lat="31.7681310" lon="35.0994090">
<ele>579.000000</ele>
<time>2025-10-17T16:36:54.514Z</time>
</trkpt>
<trkpt lat="31.7681520" lon="35.0994000">
<ele>579.000000</ele>
<time>2025-10-17T16:36:54.514Z</time>
</trkpt>
<trkpt lat="31.7681710" lon="35.0993890">
<ele>579.200012</ele>
<time>2025-10-17T16:36:54.514Z</time>
</trkpt>
<trkpt lat="31.7681880" lon="35.0993730">
<ele>579.200012</ele>
<time>2025-10-17T16:36:54.514Z</time>
</trkpt>
<trkpt lat="31.7682070" lon="35.0993550">
<ele>579.600037</ele>
<time>2025-10-17T16:36:54.514Z</time>
</trkpt>
<trkpt lat="31.7682270" lon="35.0993390">
<ele>579.600037</ele>
<time>2025-10-17T16:36:54.514Z</time>
</trkpt>
<trkpt lat="31.7682490" lon="35.0993250">
<ele>579.600037</ele>
<time>2025-10-17T16:36:54.514Z</time>
</trkpt>
<trkpt lat="31.7682710" lon="35.0993140">
<ele>579.799988</ele>
<time>2025-10-17T16:36:54.514Z</time>
</trkpt>
<trkpt lat="31.7682920" lon="35.0993080">
<ele>579.799988</ele>
<time>2025-10-17T16:36:54.514Z</time>
</trkpt>
<trkpt lat="31.7683120" lon="35.0993050">
<ele>579.799988</ele>
<time>2025-10-17T16:36:54.514Z</time>
</trkpt>
<trkpt lat="31.7683330" lon="35.0992990">
<ele>580.000000</ele>
<time>2025-10-17T16:36:54.514Z</time>
</trkpt>
<trkpt lat="31.7683540" lon="35.0992920">
<ele>580.000000</ele>
<time>2025-10-17T16:36:54.514Z</time>
</trkpt>
<trkpt lat="31.7683750" lon="35.0992870">
<ele>580.000000</ele>
<time>2025-10-17T16:36:54.514Z</time>
</trkpt>
<trkpt lat="31.7683940" lon="35.0992820">
<ele>580.200012</ele>
<time>2025-10-17T16:36:54.514Z</time>
</trkpt>
<trkpt lat="31.7684130" lon="35.0992780">
<ele>580.200012</ele>
<time>2025-10-17T16:36:54.514Z</time>
</trkpt>
<trkpt lat="31.7684310" lon="35.0992720">
<ele>580.200012</ele>
<time>2025-10-17T16:36:54.514Z</time>
</trkpt>
<trkpt lat="31.7684490" lon="35.0992660">
<ele>580.400024</ele>
<time>2025-10-17T16:36:54.514Z</time>
</trkpt>
<trkpt lat="31.7684690" lon="35.0992620">
<ele>580.400024</ele>
<time>2025-10-17T16:36:54.514Z</time>
</trkpt>
<trkpt lat="31.7684880" lon="35.0992570">
<ele>580.400024</ele>
<time>2025-10-17T16:36:54.514Z</time>
</trkpt>
<trkpt lat="31.7685040" lon="35.0992540">
<ele>580.799988</ele>
<time>2025-10-17T16:36:54.514Z</time>
</trkpt>
<trkpt lat="31.7685210" lon="35.0992520">
<ele>581.200012</ele>
<time>2025-10-17T16:36:54.514Z</time>
</trkpt>
<trkpt lat="31.7685390" lon="35.0992460">
<ele>581.200012</ele>
<time>2025-10-17T16:36:54.514Z</time>
</trkpt>
<trkpt lat="31.7685610" lon="35.0992340">
<ele>581.599976</ele>
<time>2025-10-17T16:36:54.514Z</time>
</trkpt>
<trkpt lat="31.7685830" lon="35.0992270">
<ele>581.599976</ele>
<time>2025-10-17T16:36:54.514Z</time>
</trkpt>
<trkpt lat="31.7686040" lon="35.0992200">
<ele>581.599976</ele>
<time>2025-10-17T16:36:54.514Z</time>
</trkpt>
<trkpt lat="31.7686250" lon="35.0992170">
<ele>581.799988</ele>
<time>2025-10-17T16:36:54.514Z</time>
</trkpt>
<trkpt lat="31.7686450" lon="35.0992140">
<ele>581.799988</ele>
<time>2025-10-17T16:36:54.514Z</time>
</trkpt>
<trkpt lat="31.7686610" lon="35.0992110">
<ele>581.799988</ele>
<time>2025-10-17T16:36:54.514Z</time>
</trkpt>
<trkpt lat="31.7686770" lon="35.0992100">
<ele>582.000000</ele>
<time>2025-10-17T16:36:54.515Z</time>
</trkpt>
<trkpt lat="31.7686940" lon="35.0992070">
<ele>582.399963</ele>
<time>2025-10-17T16:36:54.515Z</time>
</trkpt>
<trkpt lat="31.7687080" lon="35.0992050">
<ele>582.600037</ele>
<time>2025-10-17T16:36:54.515Z</time>
</trkpt>
<trkpt lat="31.7687220" lon="35.0992030">
<ele>582.799988</ele>
<time>2025-10-17T16:36:54.515Z</time>
</trkpt>
<trkpt lat="31.7687390" lon="35.0991980">
<ele>582.799988</ele>
<time>2025-10-17T16:36:54.515Z</time>
</trkpt>
<trkpt lat="31.7687560" lon="35.0991930">
<ele>582.799988</ele>
<time>2025-10-17T16:36:54.515Z</time>
</trkpt>
<trkpt lat="31.7687720" lon="35.0991890">
<ele>583.000000</ele>
<time>2025-10-17T16:36:54.515Z</time>
</trkpt>
<trkpt lat="31.7687890" lon="35.0991850">
<ele>583.000000</ele>
<time>2025-10-17T16:36:54.515Z</time>
</trkpt>
<trkpt lat="31.7688040" lon="35.0991820">
<ele>583.000000</ele>
<time>2025-10-17T16:36:54.515Z</time>
</trkpt>
<trkpt lat="31.7688200" lon="35.0991790">
<ele>583.400024</ele>
<time>2025-10-17T16:36:54.515Z</time>
</trkpt>
<trkpt lat="31.7688370" lon="35.0991750">
<ele>583.400024</ele>
<time>2025-10-17T16:36:54.515Z</time>
</trkpt>
<trkpt lat="31.7688540" lon="35.0991700">
<ele>583.799988</ele>
<time>2025-10-17T16:36:54.515Z</time>
</trkpt>
<trkpt lat="31.7688710" lon="35.0991660">
<ele>583.799988</ele>
<time>2025-10-17T16:36:54.515Z</time>
</trkpt>
<trkpt lat="31.7688880" lon="35.0991610">
<ele>584.000000</ele>
<time>2025-10-17T16:36:54.515Z</time>
</trkpt>
<trkpt lat="31.7689050" lon="35.0991570">
<ele>584.200012</ele>
<time>2025-10-17T16:36:54.515Z</time>
</trkpt>
<trkpt lat="31.7689220" lon="35.0991530">
<ele>584.200012</ele>
<time>2025-10-17T16:36:54.515Z</time>
</trkpt>
<trkpt lat="31.7689370" lon="35.0991470">
<ele>584.400024</ele>
<time>2025-10-17T16:36:54.515Z</time>
</trkpt>
<trkpt lat="31.7689530" lon="35.0991390">
<ele>584.599976</ele>
<time>2025-10-17T16:36:54.515Z</time>
</trkpt>
<trkpt lat="31.7689690" lon="35.0991330">
<ele>584.799988</ele>
<time>2025-10-17T16:36:54.515Z</time>
</trkpt>
<trkpt lat="31.7689850" lon="35.0991270">
<ele>584.799988</ele>
<time>2025-10-17T16:36:54.515Z</time>
</trkpt>
<trkpt lat="31.7690030" lon="35.0991210">
<ele>584.799988</ele>
<time>2025-10-17T16:36:54.515Z</time>
</trkpt>
<trkpt lat="31.7690190" lon="35.0991140">
<ele>585.200012</ele>
<time>2025-10-17T16:36:54.515Z</time>
</trkpt>
<trkpt lat="31.7690350" lon="35.0991070">
<ele>585.399963</ele>
<time>2025-10-17T16:36:54.515Z</time>
</trkpt>
<trkpt lat="31.7690520" lon="35.0990990">
<ele>585.600037</ele>
<time>2025-10-17T16:36:54.516Z</time>
</trkpt>
<trkpt lat="31.7690720" lon="35.0990910">
<ele>585.799988</ele>
<time>2025-10-17T16:36:54.516Z</time>
</trkpt>
<trkpt lat="31.7690850" lon="35.0990850">
<ele>586.000000</ele>
<time>2025-10-17T16:36:54.516Z</time>
</trkpt>
<trkpt lat="31.7691030" lon="35.0990800">
<ele>586.200012</ele>
<time>2025-10-17T16:36:54.516Z</time>
</trkpt>
<trkpt lat="31.7691200" lon="35.0990730">
<ele>586.400024</ele>
<time>2025-10-17T16:36:54.516Z</time>
</trkpt>
<trkpt lat="31.7691410" lon="35.0990650">
<ele>586.400024</ele>
<time>2025-10-17T16:36:54.516Z</time>
</trkpt>
<trkpt lat="31.7691620" lon="35.0990590">
<ele>586.400024</ele>
<time>2025-10-17T16:36:54.516Z</time>
</trkpt>
<trkpt lat="31.7691810" lon="35.0990540">
<ele>586.599976</ele>
<time>2025-10-17T16:36:54.516Z</time>
</trkpt>
<trkpt lat="31.7692000" lon="35.0990500">
<ele>586.799988</ele>
<time>2025-10-17T16:36:54.516Z</time>
</trkpt>
<trkpt lat="31.7692180" lon="35.0990430">
<ele>587.000000</ele>
<time>2025-10-17T16:36:54.516Z</time>
</trkpt>
<trkpt lat="31.7692360" lon="35.0990410">
<ele>587.000000</ele>
<time>2025-10-17T16:36:54.516Z</time>
</trkpt>
<trkpt lat="31.7692530" lon="35.0990390">
<ele>587.000000</ele>
<time>2025-10-17T16:36:54.516Z</time>
</trkpt>
<trkpt lat="31.7692720" lon="35.0990360">
<ele>587.000000</ele>
<time>2025-10-17T16:36:54.516Z</time>
</trkpt>
<trkpt lat="31.7692900" lon="35.0990340">
<ele>587.200012</ele>
<time>2025-10-17T16:36:54.516Z</time>
</trkpt>
<trkpt lat="31.7693070" lon="35.0990310">
<ele>587.200012</ele>
<time>2025-10-17T16:36:54.516Z</time>
</trkpt>
<trkpt lat="31.7693250" lon="35.0990280">
<ele>587.599976</ele>
<time>2025-10-17T16:36:54.516Z</time>
</trkpt>
<trkpt lat="31.7693420" lon="35.0990260">
<ele>587.599976</ele>
<time>2025-10-17T16:36:54.516Z</time>
</trkpt>
<trkpt lat="31.7693610" lon="35.0990250">
<ele>587.599976</ele>
<time>2025-10-17T16:36:54.516Z</time>
</trkpt>
<trkpt lat="31.7693800" lon="35.0990220">
<ele>588.000000</ele>
<time>2025-10-17T16:36:54.516Z</time>
</trkpt>
<trkpt lat="31.7693970" lon="35.0990220">
<ele>588.200012</ele>
<time>2025-10-17T16:36:54.516Z</time>
</trkpt>
<trkpt lat="31.7694170" lon="35.0990250">
<ele>588.399963</ele>
<time>2025-10-17T16:36:54.516Z</time>
</trkpt>
<trkpt lat="31.7694350" lon="35.0990280">
<ele>588.399963</ele>
<time>2025-10-17T16:36:54.516Z</time>
</trkpt>
<trkpt lat="31.7694510" lon="35.0990290">
<ele>588.399963</ele>
<time>2025-10-17T16:36:54.516Z</time>
</trkpt>
<trkpt lat="31.7694700" lon="35.0990290">
<ele>588.600037</ele>
<time>2025-10-17T16:36:54.516Z</time>
</trkpt>
<trkpt lat="31.7694860" lon="35.0990300">
<ele>588.799988</ele>
<time>2025-10-17T16:36:54.516Z</time>
</trkpt>
<trkpt lat="31.7695050" lon="35.0990300">
<ele>588.799988</ele>
<time>2025-10-17T16:36:54.516Z</time>
</trkpt>
<trkpt lat="31.7695230" lon="35.0990320">
<ele>588.799988</ele>
<time>2025-10-17T16:36:54.517Z</time>
</trkpt>
<trkpt lat="31.7695400" lon="35.0990370">
<ele>589.000000</ele>
<time>2025-10-17T16:36:54.517Z</time>
</trkpt>
<trkpt lat="31.7695580" lon="35.0990400">
<ele>589.200012</ele>
<time>2025-10-17T16:36:54.517Z</time>
</trkpt>
<trkpt lat="31.7695780" lon="35.0990420">
<ele>589.200012</ele>
<time>2025-10-17T16:36:54.517Z</time>
</trkpt>
<trkpt lat="31.7695970" lon="35.0990440">
<ele>589.200012</ele>
<time>2025-10-17T16:36:54.517Z</time>
</trkpt>
<trkpt lat="31.7696190" lon="35.0990450">
<ele>589.400024</ele>
<time>2025-10-17T16:36:54.517Z</time>
</trkpt>
<trkpt lat="31.7696400" lon="35.0990470">
<ele>589.400024</ele>
<time>2025-10-17T16:36:54.517Z</time>
</trkpt>
<trkpt lat="31.7696620" lon="35.0990460">
<ele>589.599976</ele>
<time>2025-10-17T16:36:54.517Z</time>
</trkpt>
<trkpt lat="31.7696850" lon="35.0990450">
<ele>589.599976</ele>
<time>2025-10-17T16:36:54.517Z</time>
</trkpt>
<trkpt lat="31.7697080" lon="35.0990440">
<ele>589.799988</ele>
<time>2025-10-17T16:36:54.517Z</time>
</trkpt>
<trkpt lat="31.7697300" lon="35.0990430">
<ele>589.799988</ele>
<time>2025-10-17T16:36:54.517Z</time>
</trkpt>
<trkpt lat="31.7697500" lon="35.0990430">
<ele>589.799988</ele>
<time>2025-10-17T16:36:54.517Z</time>
</trkpt>
<trkpt lat="31.7697690" lon="35.0990460">
<ele>590.000000</ele>
<time>2025-10-17T16:36:54.517Z</time>
</trkpt>
<trkpt lat="31.7697920" lon="35.0990430">
<ele>590.000000</ele>
<time>2025-10-17T16:36:54.517Z</time>
</trkpt>
<trkpt lat="31.7698150" lon="35.0990410">
<ele>590.200012</ele>
<time>2025-10-17T16:36:54.517Z</time>
</trkpt>
<trkpt lat="31.7698380" lon="35.0990400">
<ele>590.200012</ele>
<time>2025-10-17T16:36:54.517Z</time>
</trkpt>
<trkpt lat="31.7698640" lon="35.0990400">
<ele>590.400024</ele>
<time>2025-10-17T16:36:54.517Z</time>
</trkpt>
<trkpt lat="31.7698910" lon="35.0990390">
<ele>590.600037</ele>
<time>2025-10-17T16:36:54.517Z</time>
</trkpt>
<trkpt lat="31.7699180" lon="35.0990420">
<ele>590.799988</ele>
<time>2025-10-17T16:36:54.517Z</time>
</trkpt>
<trkpt lat="31.7699420" lon="35.0990440">
<ele>590.799988</ele>
<time>2025-10-17T16:36:54.517Z</time>
</trkpt>
<trkpt lat="31.7699690" lon="35.0990420">
<ele>590.799988</ele>
<time>2025-10-17T16:36:54.517Z</time>
</trkpt>
<trkpt lat="31.7699870" lon="35.0990390">
<ele>591.000000</ele>
<time>2025-10-17T16:36:54.517Z</time>
</trkpt>
<trkpt lat="31.7700080" lon="35.0990370">
<ele>591.200012</ele>
<time>2025-10-17T16:36:54.517Z</time>
</trkpt>
<trkpt lat="31.7700320" lon="35.0990370">
<ele>591.400024</ele>
<time>2025-10-17T16:36:54.517Z</time>
</trkpt>
<trkpt lat="31.7700580" lon="35.0990360">
<ele>591.400024</ele>
<time>2025-10-17T16:36:54.517Z</time>
</trkpt>
<trkpt lat="31.7700860" lon="35.0990350">
<ele>591.400024</ele>
<time>2025-10-17T16:36:54.517Z</time>
</trkpt>
<trkpt lat="31.7701110" lon="35.0990340">
<ele>591.400024</ele>
<time>2025-10-17T16:36:54.517Z</time>
</trkpt>
<trkpt lat="31.7701400" lon="35.0990300">
<ele>591.400024</ele>
<time>2025-10-17T16:36:54.518Z</time>
</trkpt>
<trkpt lat="31.7701700" lon="35.0990280">
<ele>591.599976</ele>
<time>2025-10-17T16:36:54.518Z</time>
</trkpt>
<trkpt lat="31.7702000" lon="35.0990270">
<ele>591.400024</ele>
<time>2025-10-17T16:36:54.518Z</time>
</trkpt>
<trkpt lat="31.7702290" lon="35.0990260">
<ele>591.599976</ele>
<time>2025-10-17T16:36:54.518Z</time>
</trkpt>
<trkpt lat="31.7702520" lon="35.0990270">
<ele>591.599976</ele>
<time>2025-10-17T16:36:54.518Z</time>
</trkpt>
<trkpt lat="31.7702770" lon="35.0990270">
<ele>591.799988</ele>
<time>2025-10-17T16:36:54.518Z</time>
</trkpt>
<trkpt lat="31.7703550" lon="35.0990260">
<ele>591.799988</ele>
<time>2025-10-17T16:36:54.518Z</time>
</trkpt>
<trkpt lat="31.7703800" lon="35.0990260">
<ele>591.799988</ele>
<time>2025-10-17T16:36:54.518Z</time>
</trkpt>
<trkpt lat="31.7704060" lon="35.0990260">
<ele>591.799988</ele>
<time>2025-10-17T16:36:54.518Z</time>
</trkpt>
<trkpt lat="31.7704320" lon="35.0990290">
<ele>592.000000</ele>
<time>2025-10-17T16:36:54.518Z</time>
</trkpt>
<trkpt lat="31.7704570" lon="35.0990290">
<ele>592.000000</ele>
<time>2025-10-17T16:36:54.518Z</time>
</trkpt>
<trkpt lat="31.7705160" lon="35.0990240">
<ele>592.000000</ele>
<time>2025-10-17T16:36:54.518Z</time>
</trkpt>
<trkpt lat="31.7705450" lon="35.0990200">
<ele>592.200012</ele>
<time>2025-10-17T16:36:54.518Z</time>
</trkpt>
<trkpt lat="31.7708000" lon="35.0989560">
<ele>592.400024</ele>
<time>2025-10-17T16:36:54.518Z</time>
</trkpt>
<trkpt lat="31.7710050" lon="35.0988430">
<ele>593.000000</ele>
<time>2025-10-17T16:36:54.518Z</time>
</trkpt>
<trkpt lat="31.7710660" lon="35.0987970">
<ele>593.200012</ele>
<time>2025-10-17T16:36:54.518Z</time>
</trkpt>
<trkpt lat="31.7711930" lon="35.0986550">
<ele>593.799988</ele>
<time>2025-10-17T16:36:54.518Z</time>
</trkpt>
<trkpt lat="31.7713520" lon="35.0984500">
<ele>594.400024</ele>
<time>2025-10-17T16:36:54.518Z</time>
</trkpt>
<trkpt lat="31.7713930" lon="35.0983820">
<ele>594.400024</ele>
<time>2025-10-17T16:36:54.518Z</time>
</trkpt>
<trkpt lat="31.7715060" lon="35.0981910">
<ele>595.000000</ele>
<time>2025-10-17T16:36:54.518Z</time>
</trkpt>
<trkpt lat="31.7715260" lon="35.0981590">
<ele>595.000000</ele>
<time>2025-10-17T16:36:54.518Z</time>
</trkpt>
<trkpt lat="31.7715440" lon="35.0981250">
<ele>595.200012</ele>
<time>2025-10-17T16:36:54.518Z</time>
</trkpt>
<trkpt lat="31.7715620" lon="35.0980920">
<ele>595.599976</ele>
<time>2025-10-17T16:36:54.518Z</time>
</trkpt>
<trkpt lat="31.7715840" lon="35.0980580">
<ele>595.400024</ele>
<time>2025-10-17T16:36:54.518Z</time>
</trkpt>
<trkpt lat="31.7716210" lon="35.0979880">
<ele>595.799988</ele>
<time>2025-10-17T16:36:54.518Z</time>
</trkpt>
<trkpt lat="31.7716400" lon="35.0979520">
<ele>596.000000</ele>
<time>2025-10-17T16:36:54.518Z</time>
</trkpt>
<trkpt lat="31.7716580" lon="35.0979170">
<ele>596.000000</ele>
<time>2025-10-17T16:36:54.518Z</time>
</trkpt>
<trkpt lat="31.7717640" lon="35.0977640">
<ele>596.600037</ele>
<time>2025-10-17T16:36:54.518Z</time>
</trkpt>
<trkpt lat="31.7718070" lon="35.0976970">
<ele>596.799988</ele>
<time>2025-10-17T16:36:54.519Z</time>
</trkpt>
<trkpt lat="31.7718810" lon="35.0975950">
<ele>597.200012</ele>
<time>2025-10-17T16:36:54.519Z</time>
</trkpt>
<trkpt lat="31.7719070" lon="35.0975620">
<ele>597.400024</ele>
<time>2025-10-17T16:36:54.519Z</time>
</trkpt>
<trkpt lat="31.7719310" lon="35.0975290">
<ele>597.400024</ele>
<time>2025-10-17T16:36:54.519Z</time>
</trkpt>
<trkpt lat="31.7719530" lon="35.0974970">
<ele>597.400024</ele>
<time>2025-10-17T16:36:54.519Z</time>
</trkpt>
<trkpt lat="31.7719750" lon="35.0974670">
<ele>597.200012</ele>
<time>2025-10-17T16:36:54.519Z</time>
</trkpt>
<trkpt lat="31.7719960" lon="35.0974360">
<ele>597.200012</ele>
<time>2025-10-17T16:36:54.519Z</time>
</trkpt>
<trkpt lat="31.7720180" lon="35.0974020">
<ele>597.200012</ele>
<time>2025-10-17T16:36:54.519Z</time>
</trkpt>
<trkpt lat="31.7720410" lon="35.0973640">
<ele>597.200012</ele>
<time>2025-10-17T16:36:54.519Z</time>
</trkpt>
<trkpt lat="31.7720640" lon="35.0973240">
<ele>597.400024</ele>
<time>2025-10-17T16:36:54.519Z</time>
</trkpt>
<trkpt lat="31.7720870" lon="35.0972840">
<ele>597.400024</ele>
<time>2025-10-17T16:36:54.519Z</time>
</trkpt>
<trkpt lat="31.7721560" lon="35.0971750">
<ele>597.599976</ele>
<time>2025-10-17T16:36:54.519Z</time>
</trkpt>
<trkpt lat="31.7721790" lon="35.0971390">
<ele>597.599976</ele>
<time>2025-10-17T16:36:54.519Z</time>
</trkpt>
<trkpt lat="31.7722050" lon="35.0971050">
<ele>597.599976</ele>
<time>2025-10-17T16:36:54.519Z</time>
</trkpt>
<trkpt lat="31.7723030" lon="35.0969750">
<ele>597.799988</ele>
<time>2025-10-17T16:36:54.519Z</time>
</trkpt>
<trkpt lat="31.7723290" lon="35.0969480">
<ele>597.799988</ele>
<time>2025-10-17T16:36:54.519Z</time>
</trkpt>
<trkpt lat="31.7723560" lon="35.0969220">
<ele>597.799988</ele>
<time>2025-10-17T16:36:54.519Z</time>
</trkpt>
<trkpt lat="31.7723860" lon="35.0968990">
<ele>597.799988</ele>
<time>2025-10-17T16:36:54.519Z</time>
</trkpt>
<trkpt lat="31.7724980" lon="35.0968680">
<ele>597.599976</ele>
<time>2025-10-17T16:36:54.519Z</time>
</trkpt>
<trkpt lat="31.7725430" lon="35.0968700">
<ele>597.599976</ele>
<time>2025-10-17T16:36:54.519Z</time>
</trkpt>
<trkpt lat="31.7725780" lon="35.0968920">
<ele>597.799988</ele>
<time>2025-10-17T16:36:54.519Z</time>
</trkpt>
<trkpt lat="31.7726030" lon="35.0969310">
<ele>597.799988</ele>
<time>2025-10-17T16:36:54.519Z</time>
</trkpt>
<trkpt lat="31.7726170" lon="35.0969780">
<ele>597.799988</ele>
<time>2025-10-17T16:36:54.519Z</time>
</trkpt>
<trkpt lat="31.7726300" lon="35.0970260">
<ele>597.799988</ele>
<time>2025-10-17T16:36:54.519Z</time>
</trkpt>
<trkpt lat="31.7726410" lon="35.0970780">
<ele>597.799988</ele>
<time>2025-10-17T16:36:54.519Z</time>
</trkpt>
<trkpt lat="31.7726510" lon="35.0971330">
<ele>597.599976</ele>
<time>2025-10-17T16:36:54.519Z</time>
</trkpt>
<trkpt lat="31.7726560" lon="35.0971900">
<ele>597.400024</ele>
<time>2025-10-17T16:36:54.519Z</time>
</trkpt>
<trkpt lat="31.7726630" lon="35.0973710">
<ele>597.200012</ele>
<time>2025-10-17T16:36:54.520Z</time>
</trkpt>
<trkpt lat="31.7726680" lon="35.0974970">
<ele>597.200012</ele>
<time>2025-10-17T16:36:54.520Z</time>
</trkpt>
<trkpt lat="31.7726690" lon="35.0975560">
<ele>597.400024</ele>
<time>2025-10-17T16:36:54.520Z</time>
</trkpt>
<trkpt lat="31.7726710" lon="35.0976090">
<ele>597.400024</ele>
<time>2025-10-17T16:36:54.520Z</time>
</trkpt>
<trkpt lat="31.7726730" lon="35.0976580">
<ele>597.599976</ele>
<time>2025-10-17T16:36:54.520Z</time>
</trkpt>
<trkpt lat="31.7726780" lon="35.0977050">
<ele>597.599976</ele>
<time>2025-10-17T16:36:54.520Z</time>
</trkpt>
<trkpt lat="31.7726820" lon="35.0977620">
<ele>597.799988</ele>
<time>2025-10-17T16:36:54.520Z</time>
</trkpt>
<trkpt lat="31.7726820" lon="35.0978010">
<ele>597.599976</ele>
<time>2025-10-17T16:36:54.520Z</time>
</trkpt>
<trkpt lat="31.7726790" lon="35.0979010">
<ele>598.200012</ele>
<time>2025-10-17T16:36:54.520Z</time>
</trkpt>
<trkpt lat="31.7726720" lon="35.0979500">
<ele>598.200012</ele>
<time>2025-10-17T16:36:54.520Z</time>
</trkpt>
<trkpt lat="31.7726630" lon="35.0980010">
<ele>598.400024</ele>
<time>2025-10-17T16:36:54.520Z</time>
</trkpt>
<trkpt lat="31.7726560" lon="35.0980510">
<ele>598.400024</ele>
<time>2025-10-17T16:36:54.520Z</time>
</trkpt>
<trkpt lat="31.7726530" lon="35.0981000">
<ele>598.400024</ele>
<time>2025-10-17T16:36:54.520Z</time>
</trkpt>
<trkpt lat="31.7726570" lon="35.0983140">
<ele>598.400024</ele>
<time>2025-10-17T16:36:54.520Z</time>
</trkpt>
<trkpt lat="31.7726640" lon="35.0984610">
<ele>598.400024</ele>
<time>2025-10-17T16:36:54.520Z</time>
</trkpt>
<trkpt lat="31.7726680" lon="35.0985090">
<ele>598.400024</ele>
<time>2025-10-17T16:36:54.520Z</time>
</trkpt>
<trkpt lat="31.7726730" lon="35.0985570">
<ele>598.400024</ele>
<time>2025-10-17T16:36:54.520Z</time>
</trkpt>
<trkpt lat="31.7727040" lon="35.0987080">
<ele>598.599976</ele>
<time>2025-10-17T16:36:54.520Z</time>
</trkpt>
<trkpt lat="31.7727190" lon="35.0987550">
<ele>598.599976</ele>
<time>2025-10-17T16:36:54.520Z</time>
</trkpt>
<trkpt lat="31.7727380" lon="35.0987990">
<ele>598.400024</ele>
<time>2025-10-17T16:36:54.520Z</time>
</trkpt>
<trkpt lat="31.7728280" lon="35.0989860">
<ele>598.799988</ele>
<time>2025-10-17T16:36:54.520Z</time>
</trkpt>
<trkpt lat="31.7728710" lon="35.0990710">
<ele>598.799988</ele>
<time>2025-10-17T16:36:54.520Z</time>
</trkpt>
<trkpt lat="31.7728910" lon="35.0991040">
<ele>598.799988</ele>
<time>2025-10-17T16:36:54.520Z</time>
</trkpt>
<trkpt lat="31.7729080" lon="35.0991360">
<ele>599.000000</ele>
<time>2025-10-17T16:36:54.520Z</time>
</trkpt>
<trkpt lat="31.7729220" lon="35.0991660">
<ele>599.399963</ele>
<time>2025-10-17T16:36:54.520Z</time>
</trkpt>
<trkpt lat="31.7729370" lon="35.0991930">
<ele>599.799988</ele>
<time>2025-10-17T16:36:54.520Z</time>
</trkpt>
<trkpt lat="31.7729520" lon="35.0992230">
<ele>600.000000</ele>
<time>2025-10-17T16:36:54.520Z</time>
</trkpt>
<trkpt lat="31.7729840" lon="35.0992910">
<ele>600.400024</ele>
<time>2025-10-17T16:36:54.520Z</time>
</trkpt>
<trkpt lat="31.7730010" lon="35.0993210">
<ele>600.599976</ele>
<time>2025-10-17T16:36:54.521Z</time>
</trkpt>
<trkpt lat="31.7730190" lon="35.0993430">
<ele>601.000000</ele>
<time>2025-10-17T16:36:54.521Z</time>
</trkpt>
<trkpt lat="31.7730350" lon="35.0993610">
<ele>601.200012</ele>
<time>2025-10-17T16:36:54.521Z</time>
</trkpt>
<trkpt lat="31.7730520" lon="35.0993800">
<ele>601.400024</ele>
<time>2025-10-17T16:36:54.521Z</time>
</trkpt>
<trkpt lat="31.7730680" lon="35.0993990">
<ele>601.599976</ele>
<time>2025-10-17T16:36:54.521Z</time>
</trkpt>
<trkpt lat="31.7730860" lon="35.0994150">
<ele>602.000000</ele>
<time>2025-10-17T16:36:54.521Z</time>
</trkpt>
<trkpt lat="31.7731050" lon="35.0994290">
<ele>602.000000</ele>
<time>2025-10-17T16:36:54.521Z</time>
</trkpt>
<trkpt lat="31.7731290" lon="35.0994470">
<ele>602.399963</ele>
<time>2025-10-17T16:36:54.521Z</time>
</trkpt>
<trkpt lat="31.7731470" lon="35.0994580">
<ele>602.799988</ele>
<time>2025-10-17T16:36:54.521Z</time>
</trkpt>
<trkpt lat="31.7731660" lon="35.0994730">
<ele>603.000000</ele>
<time>2025-10-17T16:36:54.521Z</time>
</trkpt>
<trkpt lat="31.7731910" lon="35.0994920">
<ele>603.200012</ele>
<time>2025-10-17T16:36:54.521Z</time>
</trkpt>
<trkpt lat="31.7732110" lon="35.0995090">
<ele>603.200012</ele>
<time>2025-10-17T16:36:54.521Z</time>
</trkpt>
<trkpt lat="31.7732340" lon="35.0995230">
<ele>603.799988</ele>
<time>2025-10-17T16:36:54.521Z</time>
</trkpt>
<trkpt lat="31.7732530" lon="35.0995310">
<ele>603.799988</ele>
<time>2025-10-17T16:36:54.521Z</time>
</trkpt>
<trkpt lat="31.7732780" lon="35.0995410">
<ele>604.200012</ele>
<time>2025-10-17T16:36:54.521Z</time>
</trkpt>
<trkpt lat="31.7733090" lon="35.0995500">
<ele>604.399963</ele>
<time>2025-10-17T16:36:54.521Z</time>
</trkpt>
<trkpt lat="31.7733310" lon="35.0995530">
<ele>604.399963</ele>
<time>2025-10-17T16:36:54.521Z</time>
</trkpt>
<trkpt lat="31.7733580" lon="35.0995600">
<ele>604.799988</ele>
<time>2025-10-17T16:36:54.521Z</time>
</trkpt>
<trkpt lat="31.7733840" lon="35.0995660">
<ele>605.000000</ele>
<time>2025-10-17T16:36:54.521Z</time>
</trkpt>
<trkpt lat="31.7734080" lon="35.0995720">
<ele>605.599976</ele>
<time>2025-10-17T16:36:54.521Z</time>
</trkpt>
<trkpt lat="31.7734320" lon="35.0995770">
<ele>605.599976</ele>
<time>2025-10-17T16:36:54.521Z</time>
</trkpt>
<trkpt lat="31.7734560" lon="35.0995820">
<ele>605.799988</ele>
<time>2025-10-17T16:36:54.521Z</time>
</trkpt>
<trkpt lat="31.7734870" lon="35.0995870">
<ele>606.000000</ele>
<time>2025-10-17T16:36:54.521Z</time>
</trkpt>
<trkpt lat="31.7735080" lon="35.0995880">
<ele>606.000000</ele>
<time>2025-10-17T16:36:54.521Z</time>
</trkpt>
<trkpt lat="31.7735350" lon="35.0995890">
<ele>606.200012</ele>
<time>2025-10-17T16:36:54.521Z</time>
</trkpt>
<trkpt lat="31.7735610" lon="35.0995910">
<ele>606.200012</ele>
<time>2025-10-17T16:36:54.521Z</time>
</trkpt>
<trkpt lat="31.7735870" lon="35.0995900">
<ele>606.400024</ele>
<time>2025-10-17T16:36:54.521Z</time>
</trkpt>
<trkpt lat="31.7736150" lon="35.0995900">
<ele>606.400024</ele>
<time>2025-10-17T16:36:54.522Z</time>
</trkpt>
<trkpt lat="31.7736430" lon="35.0995870">
<ele>606.799988</ele>
<time>2025-10-17T16:36:54.522Z</time>
</trkpt>
<trkpt lat="31.7736690" lon="35.0995810">
<ele>606.799988</ele>
<time>2025-10-17T16:36:54.522Z</time>
</trkpt>
<trkpt lat="31.7736970" lon="35.0995770">
<ele>607.000000</ele>
<time>2025-10-17T16:36:54.522Z</time>
</trkpt>
<trkpt lat="31.7737220" lon="35.0995740">
<ele>607.200012</ele>
<time>2025-10-17T16:36:54.522Z</time>
</trkpt>
<trkpt lat="31.7737460" lon="35.0995710">
<ele>607.399963</ele>
<time>2025-10-17T16:36:54.522Z</time>
</trkpt>
<trkpt lat="31.7737720" lon="35.0995640">
<ele>607.600037</ele>
<time>2025-10-17T16:36:54.522Z</time>
</trkpt>
<trkpt lat="31.7737990" lon="35.0995590">
<ele>607.799988</ele>
<time>2025-10-17T16:36:54.522Z</time>
</trkpt>
<trkpt lat="31.7738260" lon="35.0995550">
<ele>607.799988</ele>
<time>2025-10-17T16:36:54.522Z</time>
</trkpt>
<trkpt lat="31.7738520" lon="35.0995540">
<ele>607.799988</ele>
<time>2025-10-17T16:36:54.522Z</time>
</trkpt>
<trkpt lat="31.7738790" lon="35.0995520">
<ele>607.799988</ele>
<time>2025-10-17T16:36:54.522Z</time>
</trkpt>
<trkpt lat="31.7739050" lon="35.0995470">
<ele>607.799988</ele>
<time>2025-10-17T16:36:54.522Z</time>
</trkpt>
<trkpt lat="31.7739320" lon="35.0995440">
<ele>608.000000</ele>
<time>2025-10-17T16:36:54.522Z</time>
</trkpt>
<trkpt lat="31.7739610" lon="35.0995400">
<ele>608.000000</ele>
<time>2025-10-17T16:36:54.522Z</time>
</trkpt>
<trkpt lat="31.7739880" lon="35.0995380">
<ele>608.200012</ele>
<time>2025-10-17T16:36:54.522Z</time>
</trkpt>
<trkpt lat="31.7740230" lon="35.0995380">
<ele>608.200012</ele>
<time>2025-10-17T16:36:54.522Z</time>
</trkpt>
<trkpt lat="31.7740460" lon="35.0995370">
<ele>608.400024</ele>
<time>2025-10-17T16:36:54.522Z</time>
</trkpt>
<trkpt lat="31.7740760" lon="35.0995400">
<ele>608.599976</ele>
<time>2025-10-17T16:36:54.522Z</time>
</trkpt>
<trkpt lat="31.7741050" lon="35.0995450">
<ele>608.599976</ele>
<time>2025-10-17T16:36:54.522Z</time>
</trkpt>
<trkpt lat="31.7741360" lon="35.0995530">
<ele>608.599976</ele>
<time>2025-10-17T16:36:54.522Z</time>
</trkpt>
<trkpt lat="31.7741670" lon="35.0995620">
<ele>608.599976</ele>
<time>2025-10-17T16:36:54.522Z</time>
</trkpt>
<trkpt lat="31.7741950" lon="35.0995760">
<ele>608.599976</ele>
<time>2025-10-17T16:36:54.522Z</time>
</trkpt>
<trkpt lat="31.7742170" lon="35.0995960">
<ele>608.599976</ele>
<time>2025-10-17T16:36:54.522Z</time>
</trkpt>
<trkpt lat="31.7742330" lon="35.0996210">
<ele>608.599976</ele>
<time>2025-10-17T16:36:54.522Z</time>
</trkpt>
<trkpt lat="31.7742450" lon="35.0996510">
<ele>608.599976</ele>
<time>2025-10-17T16:36:54.522Z</time>
</trkpt>
<trkpt lat="31.7742560" lon="35.0996810">
<ele>608.599976</ele>
<time>2025-10-17T16:36:54.522Z</time>
</trkpt>
<trkpt lat="31.7742620" lon="35.0997150">
<ele>608.799988</ele>
<time>2025-10-17T16:36:54.522Z</time>
</trkpt>
<trkpt lat="31.7742680" lon="35.0997440">
<ele>608.799988</ele>
<time>2025-10-17T16:36:54.523Z</time>
</trkpt>
<trkpt lat="31.7742740" lon="35.0997770">
<ele>609.000000</ele>
<time>2025-10-17T16:36:54.523Z</time>
</trkpt>
<trkpt lat="31.7742810" lon="35.0998480">
<ele>609.200012</ele>
<time>2025-10-17T16:36:54.523Z</time>
</trkpt>
<trkpt lat="31.7743400" lon="35.1001710">
<ele>609.799988</ele>
<time>2025-10-17T16:36:54.523Z</time>
</trkpt>
<trkpt lat="31.7744400" lon="35.1003700">
<ele>609.799988</ele>
<time>2025-10-17T16:36:54.523Z</time>
</trkpt>
<trkpt lat="31.7744670" lon="35.1003980">
<ele>610.000000</ele>
<time>2025-10-17T16:36:54.523Z</time>
</trkpt>
<trkpt lat="31.7744830" lon="35.1004140">
<ele>610.000000</ele>
<time>2025-10-17T16:36:54.523Z</time>
</trkpt>
<trkpt lat="31.7745020" lon="35.1004350">
<ele>610.000000</ele>
<time>2025-10-17T16:36:54.523Z</time>
</trkpt>
<trkpt lat="31.7745620" lon="35.1004970">
<ele>610.399963</ele>
<time>2025-10-17T16:36:54.523Z</time>
</trkpt>
<trkpt lat="31.7745790" lon="35.1005120">
<ele>610.600037</ele>
<time>2025-10-17T16:36:54.523Z</time>
</trkpt>
<trkpt lat="31.7746010" lon="35.1005300">
<ele>611.000000</ele>
<time>2025-10-17T16:36:54.523Z</time>
</trkpt>
<trkpt lat="31.7746250" lon="35.1005490">
<ele>611.200012</ele>
<time>2025-10-17T16:36:54.523Z</time>
</trkpt>
<trkpt lat="31.7746550" lon="35.1005700">
<ele>611.400024</ele>
<time>2025-10-17T16:36:54.523Z</time>
</trkpt>
<trkpt lat="31.7747480" lon="35.1006470">
<ele>612.000000</ele>
<time>2025-10-17T16:36:54.523Z</time>
</trkpt>
<trkpt lat="31.7748020" lon="35.1006820">
<ele>612.599976</ele>
<time>2025-10-17T16:36:54.523Z</time>
</trkpt>
<trkpt lat="31.7748270" lon="35.1007000">
<ele>613.000000</ele>
<time>2025-10-17T16:36:54.523Z</time>
</trkpt>
<trkpt lat="31.7748490" lon="35.1007180">
<ele>613.000000</ele>
<time>2025-10-17T16:36:54.523Z</time>
</trkpt>
<trkpt lat="31.7748730" lon="35.1007330">
<ele>613.399963</ele>
<time>2025-10-17T16:36:54.523Z</time>
</trkpt>
<trkpt lat="31.7748960" lon="35.1007480">
<ele>613.600037</ele>
<time>2025-10-17T16:36:54.523Z</time>
</trkpt>
<trkpt lat="31.7749180" lon="35.1007660">
<ele>613.799988</ele>
<time>2025-10-17T16:36:54.523Z</time>
</trkpt>
<trkpt lat="31.7749400" lon="35.1007820">
<ele>614.000000</ele>
<time>2025-10-17T16:36:54.523Z</time>
</trkpt>
<trkpt lat="31.7749620" lon="35.1007960">
<ele>614.000000</ele>
<time>2025-10-17T16:36:54.523Z</time>
</trkpt>
<trkpt lat="31.7749850" lon="35.1008130">
<ele>614.400024</ele>
<time>2025-10-17T16:36:54.523Z</time>
</trkpt>
<trkpt lat="31.7750070" lon="35.1008340">
<ele>614.599976</ele>
<time>2025-10-17T16:36:54.523Z</time>
</trkpt>
<trkpt lat="31.7750300" lon="35.1008520">
<ele>614.599976</ele>
<time>2025-10-17T16:36:54.523Z</time>
</trkpt>
<trkpt lat="31.7750550" lon="35.1008680">
<ele>614.799988</ele>
<time>2025-10-17T16:36:54.523Z</time>
</trkpt>
<trkpt lat="31.7750820" lon="35.1008870">
<ele>615.200012</ele>
<time>2025-10-17T16:36:54.523Z</time>
</trkpt>
<trkpt lat="31.7751100" lon="35.1009040">
<ele>615.200012</ele>
<time>2025-10-17T16:36:54.523Z</time>
</trkpt>
<trkpt lat="31.7751370" lon="35.1009190">
<ele>615.400024</ele>
<time>2025-10-17T16:36:54.524Z</time>
</trkpt>
<trkpt lat="31.7751630" lon="35.1009360">
<ele>615.400024</ele>
<time>2025-10-17T16:36:54.524Z</time>
</trkpt>
<trkpt lat="31.7751900" lon="35.1009540">
<ele>615.400024</ele>
<time>2025-10-17T16:36:54.524Z</time>
</trkpt>
<trkpt lat="31.7752180" lon="35.1009670">
<ele>615.400024</ele>
<time>2025-10-17T16:36:54.524Z</time>
</trkpt>
<trkpt lat="31.7752450" lon="35.1009780">
<ele>615.599976</ele>
<time>2025-10-17T16:36:54.524Z</time>
</trkpt>
<trkpt lat="31.7752710" lon="35.1009910">
<ele>615.599976</ele>
<time>2025-10-17T16:36:54.524Z</time>
</trkpt>
<trkpt lat="31.7752980" lon="35.1010040">
<ele>615.599976</ele>
<time>2025-10-17T16:36:54.524Z</time>
</trkpt>
<trkpt lat="31.7753250" lon="35.1010190">
<ele>615.799988</ele>
<time>2025-10-17T16:36:54.524Z</time>
</trkpt>
<trkpt lat="31.7753500" lon="35.1010320">
<ele>615.799988</ele>
<time>2025-10-17T16:36:54.524Z</time>
</trkpt>
<trkpt lat="31.7753740" lon="35.1010420">
<ele>616.000000</ele>
<time>2025-10-17T16:36:54.524Z</time>
</trkpt>
<trkpt lat="31.7753980" lon="35.1010510">
<ele>616.000000</ele>
<time>2025-10-17T16:36:54.524Z</time>
</trkpt>
<trkpt lat="31.7754180" lon="35.1010610">
<ele>616.200012</ele>
<time>2025-10-17T16:36:54.524Z</time>
</trkpt>
<trkpt lat="31.7754410" lon="35.1010680">
<ele>616.200012</ele>
<time>2025-10-17T16:36:54.524Z</time>
</trkpt>
<trkpt lat="31.7754660" lon="35.1010800">
<ele>616.400024</ele>
<time>2025-10-17T16:36:54.524Z</time>
</trkpt>
<trkpt lat="31.7754900" lon="35.1010940">
<ele>616.400024</ele>
<time>2025-10-17T16:36:54.524Z</time>
</trkpt>
<trkpt lat="31.7755120" lon="35.1011090">
<ele>616.599976</ele>
<time>2025-10-17T16:36:54.524Z</time>
</trkpt>
<trkpt lat="31.7755380" lon="35.1011210">
<ele>616.799988</ele>
<time>2025-10-17T16:36:54.524Z</time>
</trkpt>
<trkpt lat="31.7755540" lon="35.1011270">
<ele>616.799988</ele>
<time>2025-10-17T16:36:54.524Z</time>
</trkpt>
<trkpt lat="31.7755720" lon="35.1011380">
<ele>617.200012</ele>
<time>2025-10-17T16:36:54.524Z</time>
</trkpt>
<trkpt lat="31.7755880" lon="35.1011470">
<ele>617.400024</ele>
<time>2025-10-17T16:36:54.524Z</time>
</trkpt>
<trkpt lat="31.7756060" lon="35.1011570">
<ele>617.599976</ele>
<time>2025-10-17T16:36:54.524Z</time>
</trkpt>
<trkpt lat="31.7756230" lon="35.1011680">
<ele>617.799988</ele>
<time>2025-10-17T16:36:54.524Z</time>
</trkpt>
<trkpt lat="31.7756400" lon="35.1011780">
<ele>618.600037</ele>
<time>2025-10-17T16:36:54.524Z</time>
</trkpt>
<trkpt lat="31.7756570" lon="35.1011860">
<ele>618.799988</ele>
<time>2025-10-17T16:36:54.524Z</time>
</trkpt>
<trkpt lat="31.7756750" lon="35.1011920">
<ele>619.000000</ele>
<time>2025-10-17T16:36:54.525Z</time>
</trkpt>
<trkpt lat="31.7756900" lon="35.1012030">
<ele>619.200012</ele>
<time>2025-10-17T16:36:54.525Z</time>
</trkpt>
<trkpt lat="31.7757030" lon="35.1012120">
<ele>619.200012</ele>
<time>2025-10-17T16:36:54.525Z</time>
</trkpt>
<trkpt lat="31.7757180" lon="35.1012170">
<ele>619.400024</ele>
<time>2025-10-17T16:36:54.525Z</time>
</trkpt>
<trkpt lat="31.7757340" lon="35.1012200">
<ele>619.599976</ele>
<time>2025-10-17T16:36:54.525Z</time>
</trkpt>
<trkpt lat="31.7757510" lon="35.1012210">
<ele>619.799988</ele>
<time>2025-10-17T16:36:54.525Z</time>
</trkpt>
<trkpt lat="31.7757690" lon="35.1012270">
<ele>619.799988</ele>
<time>2025-10-17T16:36:54.525Z</time>
</trkpt>
<trkpt lat="31.7757840" lon="35.1012360">
<ele>620.200012</ele>
<time>2025-10-17T16:36:54.525Z</time>
</trkpt>
<trkpt lat="31.7757980" lon="35.1012460">
<ele>620.200012</ele>
<time>2025-10-17T16:36:54.525Z</time>
</trkpt>
<trkpt lat="31.7758120" lon="35.1012480">
<ele>620.400024</ele>
<time>2025-10-17T16:36:54.525Z</time>
</trkpt>
<trkpt lat="31.7758300" lon="35.1012480">
<ele>620.400024</ele>
<time>2025-10-17T16:36:54.525Z</time>
</trkpt>
<trkpt lat="31.7758460" lon="35.1012510">
<ele>620.599976</ele>
<time>2025-10-17T16:36:54.525Z</time>
</trkpt>
<trkpt lat="31.7758650" lon="35.1012580">
<ele>621.000000</ele>
<time>2025-10-17T16:36:54.525Z</time>
</trkpt>
<trkpt lat="31.7758760" lon="35.1012640">
<ele>621.399963</ele>
<time>2025-10-17T16:36:54.525Z</time>
</trkpt>
<trkpt lat="31.7758910" lon="35.1012720">
<ele>621.600037</ele>
<time>2025-10-17T16:36:54.525Z</time>
</trkpt>
<trkpt lat="31.7759080" lon="35.1012770">
<ele>621.799988</ele>
<time>2025-10-17T16:36:54.525Z</time>
</trkpt>
<trkpt lat="31.7759260" lon="35.1012840">
<ele>622.000000</ele>
<time>2025-10-17T16:36:54.525Z</time>
</trkpt>
<trkpt lat="31.7759430" lon="35.1012880">
<ele>622.000000</ele>
<time>2025-10-17T16:36:54.525Z</time>
</trkpt>
<trkpt lat="31.7759620" lon="35.1012890">
<ele>622.000000</ele>
<time>2025-10-17T16:36:54.525Z</time>
</trkpt>
<trkpt lat="31.7759800" lon="35.1012910">
<ele>622.000000</ele>
<time>2025-10-17T16:36:54.525Z</time>
</trkpt>
<trkpt lat="31.7759950" lon="35.1012960">
<ele>622.200012</ele>
<time>2025-10-17T16:36:54.525Z</time>
</trkpt>
<trkpt lat="31.7760070" lon="35.1013040">
<ele>622.400024</ele>
<time>2025-10-17T16:36:54.525Z</time>
</trkpt>
<trkpt lat="31.7760210" lon="35.1013060">
<ele>622.400024</ele>
<time>2025-10-17T16:36:54.525Z</time>
</trkpt>
<trkpt lat="31.7760380" lon="35.1013040">
<ele>622.599976</ele>
<time>2025-10-17T16:36:54.525Z</time>
</trkpt>
<trkpt lat="31.7760550" lon="35.1013050">
<ele>622.599976</ele>
<time>2025-10-17T16:36:54.525Z</time>
</trkpt>
<trkpt lat="31.7760750" lon="35.1013070">
<ele>622.799988</ele>
<time>2025-10-17T16:36:54.525Z</time>
</trkpt>
<trkpt lat="31.7760950" lon="35.1013100">
<ele>623.000000</ele>
<time>2025-10-17T16:36:54.526Z</time>
</trkpt>
<trkpt lat="31.7761150" lon="35.1013130">
<ele>623.400024</ele>
<time>2025-10-17T16:36:54.526Z</time>
</trkpt>
<trkpt lat="31.7761370" lon="35.1013160">
<ele>623.400024</ele>
<time>2025-10-17T16:36:54.526Z</time>
</trkpt>
<trkpt lat="31.7761580" lon="35.1013190">
<ele>623.599976</ele>
<time>2025-10-17T16:36:54.526Z</time>
</trkpt>
<trkpt lat="31.7761800" lon="35.1013230">
<ele>623.799988</ele>
<time>2025-10-17T16:36:54.526Z</time>
</trkpt>
<trkpt lat="31.7762020" lon="35.1013250">
<ele>623.799988</ele>
<time>2025-10-17T16:36:54.526Z</time>
</trkpt>
<trkpt lat="31.7762220" lon="35.1013280">
<ele>624.000000</ele>
<time>2025-10-17T16:36:54.526Z</time>
</trkpt>
<trkpt lat="31.7762420" lon="35.1013340">
<ele>624.000000</ele>
<time>2025-10-17T16:36:54.526Z</time>
</trkpt>
<trkpt lat="31.7762640" lon="35.1013400">
<ele>624.200012</ele>
<time>2025-10-17T16:36:54.526Z</time>
</trkpt>
<trkpt lat="31.7762890" lon="35.1013420">
<ele>624.200012</ele>
<time>2025-10-17T16:36:54.526Z</time>
</trkpt>
<trkpt lat="31.7763140" lon="35.1013420">
<ele>624.399963</ele>
<time>2025-10-17T16:36:54.526Z</time>
</trkpt>
<trkpt lat="31.7763380" lon="35.1013430">
<ele>624.399963</ele>
<time>2025-10-17T16:36:54.526Z</time>
</trkpt>
<trkpt lat="31.7763650" lon="35.1013430">
<ele>624.399963</ele>
<time>2025-10-17T16:36:54.526Z</time>
</trkpt>
<trkpt lat="31.7763940" lon="35.1013420">
<ele>624.399963</ele>
<time>2025-10-17T16:36:54.526Z</time>
</trkpt>
<trkpt lat="31.7764230" lon="35.1013390">
<ele>624.600037</ele>
<time>2025-10-17T16:36:54.526Z</time>
</trkpt>
<trkpt lat="31.7764520" lon="35.1013340">
<ele>624.600037</ele>
<time>2025-10-17T16:36:54.526Z</time>
</trkpt>
<trkpt lat="31.7764830" lon="35.1013300">
<ele>624.600037</ele>
<time>2025-10-17T16:36:54.526Z</time>
</trkpt>
<trkpt lat="31.7765210" lon="35.1013270">
<ele>624.799988</ele>
<time>2025-10-17T16:36:54.526Z</time>
</trkpt>
<trkpt lat="31.7765570" lon="35.1013230">
<ele>624.799988</ele>
<time>2025-10-17T16:36:54.526Z</time>
</trkpt>
<trkpt lat="31.7765910" lon="35.1013210">
<ele>625.000000</ele>
<time>2025-10-17T16:36:54.526Z</time>
</trkpt>
<trkpt lat="31.7766190" lon="35.1013220">
<ele>625.000000</ele>
<time>2025-10-17T16:36:54.527Z</time>
</trkpt>
<trkpt lat="31.7766460" lon="35.1013200">
<ele>625.200012</ele>
<time>2025-10-17T16:36:54.527Z</time>
</trkpt>
<trkpt lat="31.7766780" lon="35.1013120">
<ele>625.200012</ele>
<time>2025-10-17T16:36:54.527Z</time>
</trkpt>
<trkpt lat="31.7767050" lon="35.1013090">
<ele>625.399963</ele>
<time>2025-10-17T16:36:54.527Z</time>
</trkpt>
<trkpt lat="31.7767400" lon="35.1013050">
<ele>625.599976</ele>
<time>2025-10-17T16:36:54.527Z</time>
</trkpt>
<trkpt lat="31.7767760" lon="35.1013040">
<ele>625.599976</ele>
<time>2025-10-17T16:36:54.527Z</time>
</trkpt>
<trkpt lat="31.7768200" lon="35.1013020">
<ele>625.599976</ele>
<time>2025-10-17T16:36:54.527Z</time>
</trkpt>
<trkpt lat="31.7768570" lon="35.1012980">
<ele>625.599976</ele>
<time>2025-10-17T16:36:54.527Z</time>
</trkpt>
<trkpt lat="31.7768850" lon="35.1012940">
<ele>625.599976</ele>
<time>2025-10-17T16:36:54.527Z</time>
</trkpt>
<trkpt lat="31.7769250" lon="35.1012830">
<ele>625.599976</ele>
<time>2025-10-17T16:36:54.527Z</time>
</trkpt>
<trkpt lat="31.7770130" lon="35.1012630">
<ele>625.999939</ele>
<time>2025-10-17T16:36:54.527Z</time>
</trkpt>
<trkpt lat="31.7773690" lon="35.1011940">
<ele>625.999939</ele>
<time>2025-10-17T16:36:54.527Z</time>
</trkpt>
<trkpt lat="31.7775330" lon="35.1011740">
<ele>626.400024</ele>
<time>2025-10-17T16:36:54.527Z</time>
</trkpt>
<trkpt lat="31.7776820" lon="35.1011660">
<ele>626.799988</ele>
<time>2025-10-17T16:36:54.527Z</time>
</trkpt>
<trkpt lat="31.7777230" lon="35.1011640">
<ele>627.000000</ele>
<time>2025-10-17T16:36:54.527Z</time>
</trkpt>
<trkpt lat="31.7777630" lon="35.1011650">
<ele>627.000000</ele>
<time>2025-10-17T16:36:54.527Z</time>
</trkpt>
<trkpt lat="31.7778020" lon="35.1011680">
<ele>627.199951</ele>
<time>2025-10-17T16:36:54.527Z</time>
</trkpt>
<trkpt lat="31.7778800" lon="35.1011810">
<ele>627.399963</ele>
<time>2025-10-17T16:36:54.527Z</time>
</trkpt>
<trkpt lat="31.7780320" lon="35.1012450">
<ele>627.399963</ele>
<time>2025-10-17T16:36:54.527Z</time>
</trkpt>
<trkpt lat="31.7780640" lon="35.1012790">
<ele>627.399963</ele>
<time>2025-10-17T16:36:54.527Z</time>
</trkpt>
<trkpt lat="31.7780890" lon="35.1013210">
<ele>627.399963</ele>
<time>2025-10-17T16:36:54.527Z</time>
</trkpt>
<trkpt lat="31.7781060" lon="35.1013670">
<ele>627.399963</ele>
<time>2025-10-17T16:36:54.527Z</time>
</trkpt>
<trkpt lat="31.7781210" lon="35.1014110">
<ele>627.000000</ele>
<time>2025-10-17T16:36:54.527Z</time>
</trkpt>
<trkpt lat="31.7781320" lon="35.1014580">
<ele>627.000000</ele>
<time>2025-10-17T16:36:54.527Z</time>
</trkpt>
<trkpt lat="31.7781390" lon="35.1015050">
<ele>627.000000</ele>
<time>2025-10-17T16:36:54.527Z</time>
</trkpt>
<trkpt lat="31.7781430" lon="35.1016520">
<ele>627.399963</ele>
<time>2025-10-17T16:36:54.527Z</time>
</trkpt>
<trkpt lat="31.7781320" lon="35.1019170">
<ele>628.200012</ele>
<time>2025-10-17T16:36:54.527Z</time>
</trkpt>
<trkpt lat="31.7781270" lon="35.1019820">
<ele>628.599976</ele>
<time>2025-10-17T16:36:54.528Z</time>
</trkpt>
<trkpt lat="31.7781230" lon="35.1020360">
<ele>628.999939</ele>
<time>2025-10-17T16:36:54.528Z</time>
</trkpt>
<trkpt lat="31.7781170" lon="35.1021430">
<ele>629.400024</ele>
<time>2025-10-17T16:36:54.528Z</time>
</trkpt>
<trkpt lat="31.7781020" lon="35.1023540">
<ele>629.799988</ele>
<time>2025-10-17T16:36:54.528Z</time>
</trkpt>
<trkpt lat="31.7780990" lon="35.1024000">
<ele>629.799988</ele>
<time>2025-10-17T16:36:54.528Z</time>
</trkpt>
<trkpt lat="31.7780960" lon="35.1024460">
<ele>629.799988</ele>
<time>2025-10-17T16:36:54.528Z</time>
</trkpt>
<trkpt lat="31.7780900" lon="35.1024930">
<ele>630.000000</ele>
<time>2025-10-17T16:36:54.528Z</time>
</trkpt>
<trkpt lat="31.7780870" lon="35.1025400">
<ele>630.199951</ele>
<time>2025-10-17T16:36:54.528Z</time>
</trkpt>
<trkpt lat="31.7780870" lon="35.1025850">
<ele>630.400024</ele>
<time>2025-10-17T16:36:54.528Z</time>
</trkpt>
<trkpt lat="31.7780890" lon="35.1026320">
<ele>630.600037</ele>
<time>2025-10-17T16:36:54.528Z</time>
</trkpt>
<trkpt lat="31.7780940" lon="35.1026780">
<ele>630.600037</ele>
<time>2025-10-17T16:36:54.528Z</time>
</trkpt>
<trkpt lat="31.7781040" lon="35.1027260">
<ele>631.000000</ele>
<time>2025-10-17T16:36:54.528Z</time>
</trkpt>
<trkpt lat="31.7781160" lon="35.1027710">
<ele>631.399963</ele>
<time>2025-10-17T16:36:54.528Z</time>
</trkpt>
<trkpt lat="31.7781310" lon="35.1028140">
<ele>631.599976</ele>
<time>2025-10-17T16:36:54.528Z</time>
</trkpt>
<trkpt lat="31.7781510" lon="35.1028570">
<ele>631.599976</ele>
<time>2025-10-17T16:36:54.528Z</time>
</trkpt>
<trkpt lat="31.7781740" lon="35.1028990">
<ele>631.599976</ele>
<time>2025-10-17T16:36:54.528Z</time>
</trkpt>
<trkpt lat="31.7781970" lon="35.1029430">
<ele>631.800049</ele>
<time>2025-10-17T16:36:54.528Z</time>
</trkpt>
<trkpt lat="31.7782210" lon="35.1029860">
<ele>631.800049</ele>
<time>2025-10-17T16:36:54.528Z</time>
</trkpt>
<trkpt lat="31.7782430" lon="35.1030250">
<ele>631.800049</ele>
<time>2025-10-17T16:36:54.528Z</time>
</trkpt>
<trkpt lat="31.7782630" lon="35.1030620">
<ele>631.800049</ele>
<time>2025-10-17T16:36:54.528Z</time>
</trkpt>
<trkpt lat="31.7782820" lon="35.1030950">
<ele>631.800049</ele>
<time>2025-10-17T16:36:54.528Z</time>
</trkpt>
<trkpt lat="31.7783000" lon="35.1031260">
<ele>631.800049</ele>
<time>2025-10-17T16:36:54.528Z</time>
</trkpt>
<trkpt lat="31.7783170" lon="35.1031550">
<ele>632.000000</ele>
<time>2025-10-17T16:36:54.528Z</time>
</trkpt>
<trkpt lat="31.7783330" lon="35.1031860">
<ele>632.000000</ele>
<time>2025-10-17T16:36:54.528Z</time>
</trkpt>
<trkpt lat="31.7783500" lon="35.1032150">
<ele>632.000000</ele>
<time>2025-10-17T16:36:54.528Z</time>
</trkpt>
<trkpt lat="31.7783630" lon="35.1032440">
<ele>632.200012</ele>
<time>2025-10-17T16:36:54.528Z</time>
</trkpt>
<trkpt lat="31.7783780" lon="35.1032700">
<ele>632.599976</ele>
<time>2025-10-17T16:36:54.528Z</time>
</trkpt>
<trkpt lat="31.7783930" lon="35.1032960">
<ele>632.599976</ele>
<time>2025-10-17T16:36:54.529Z</time>
</trkpt>
<trkpt lat="31.7784080" lon="35.1033220">
<ele>633.000000</ele>
<time>2025-10-17T16:36:54.529Z</time>
</trkpt>
<trkpt lat="31.7784200" lon="35.1033410">
<ele>633.199951</ele>
<time>2025-10-17T16:36:54.529Z</time>
</trkpt>
<trkpt lat="31.7784330" lon="35.1033650">
<ele>633.400024</ele>
<time>2025-10-17T16:36:54.529Z</time>
</trkpt>
<trkpt lat="31.7784500" lon="35.1033900">
<ele>633.600037</ele>
<time>2025-10-17T16:36:54.529Z</time>
</trkpt>
<trkpt lat="31.7784670" lon="35.1034220">
<ele>633.799988</ele>
<time>2025-10-17T16:36:54.529Z</time>
</trkpt>
<trkpt lat="31.7784810" lon="35.1034460">
<ele>634.000000</ele>
<time>2025-10-17T16:36:54.529Z</time>
</trkpt>
<trkpt lat="31.7784950" lon="35.1034700">
<ele>634.399963</ele>
<time>2025-10-17T16:36:54.529Z</time>
</trkpt>
<trkpt lat="31.7785110" lon="35.1034980">
<ele>634.399963</ele>
<time>2025-10-17T16:36:54.529Z</time>
</trkpt>
<trkpt lat="31.7785280" lon="35.1035280">
<ele>634.599976</ele>
<time>2025-10-17T16:36:54.529Z</time>
</trkpt>
<trkpt lat="31.7785450" lon="35.1035580">
<ele>634.800049</ele>
<time>2025-10-17T16:36:54.529Z</time>
</trkpt>
<trkpt lat="31.7785590" lon="35.1035890">
<ele>634.800049</ele>
<time>2025-10-17T16:36:54.529Z</time>
</trkpt>
<trkpt lat="31.7785740" lon="35.1036180">
<ele>635.000000</ele>
<time>2025-10-17T16:36:54.529Z</time>
</trkpt>
<trkpt lat="31.7785890" lon="35.1036440">
<ele>635.000000</ele>
<time>2025-10-17T16:36:54.529Z</time>
</trkpt>
<trkpt lat="31.7786060" lon="35.1036700">
<ele>635.000000</ele>
<time>2025-10-17T16:36:54.529Z</time>
</trkpt>
<trkpt lat="31.7786230" lon="35.1036970">
<ele>635.000000</ele>
<time>2025-10-17T16:36:54.529Z</time>
</trkpt>
<trkpt lat="31.7786360" lon="35.1037240">
<ele>635.200012</ele>
<time>2025-10-17T16:36:54.529Z</time>
</trkpt>
<trkpt lat="31.7786470" lon="35.1037490">
<ele>635.400024</ele>
<time>2025-10-17T16:36:54.529Z</time>
</trkpt>
<trkpt lat="31.7786560" lon="35.1037810">
<ele>635.400024</ele>
<time>2025-10-17T16:36:54.529Z</time>
</trkpt>
<trkpt lat="31.7786650" lon="35.1038130">
<ele>635.799988</ele>
<time>2025-10-17T16:36:54.529Z</time>
</trkpt>
<trkpt lat="31.7786720" lon="35.1038520">
<ele>635.799988</ele>
<time>2025-10-17T16:36:54.529Z</time>
</trkpt>
<trkpt lat="31.7786750" lon="35.1038810">
<ele>636.199951</ele>
<time>2025-10-17T16:36:54.529Z</time>
</trkpt>
<trkpt lat="31.7786780" lon="35.1039070">
<ele>636.199951</ele>
<time>2025-10-17T16:36:54.529Z</time>
</trkpt>
<trkpt lat="31.7786810" lon="35.1039330">
<ele>636.400024</ele>
<time>2025-10-17T16:36:54.529Z</time>
</trkpt>
<trkpt lat="31.7786800" lon="35.1039620">
<ele>636.600037</ele>
<time>2025-10-17T16:36:54.529Z</time>
</trkpt>
<trkpt lat="31.7786770" lon="35.1039980">
<ele>636.600037</ele>
<time>2025-10-17T16:36:54.529Z</time>
</trkpt>
<trkpt lat="31.7786740" lon="35.1040320">
<ele>636.600037</ele>
<time>2025-10-17T16:36:54.530Z</time>
</trkpt>
<trkpt lat="31.7786680" lon="35.1040620">
<ele>636.799988</ele>
<time>2025-10-17T16:36:54.530Z</time>
</trkpt>
<trkpt lat="31.7786610" lon="35.1040850">
<ele>636.799988</ele>
<time>2025-10-17T16:36:54.530Z</time>
</trkpt>
<trkpt lat="31.7786510" lon="35.1041100">
<ele>637.200012</ele>
<time>2025-10-17T16:36:54.530Z</time>
</trkpt>
<trkpt lat="31.7786400" lon="35.1041400">
<ele>637.399963</ele>
<time>2025-10-17T16:36:54.530Z</time>
</trkpt>
<trkpt lat="31.7786290" lon="35.1041640">
<ele>637.599976</ele>
<time>2025-10-17T16:36:54.530Z</time>
</trkpt>
<trkpt lat="31.7786190" lon="35.1041890">
<ele>637.599976</ele>
<time>2025-10-17T16:36:54.530Z</time>
</trkpt>
<trkpt lat="31.7786120" lon="35.1042120">
<ele>637.800049</ele>
<time>2025-10-17T16:36:54.530Z</time>
</trkpt>
<trkpt lat="31.7786060" lon="35.1042350">
<ele>638.000000</ele>
<time>2025-10-17T16:36:54.530Z</time>
</trkpt>
<trkpt lat="31.7786000" lon="35.1042580">
<ele>638.000000</ele>
<time>2025-10-17T16:36:54.530Z</time>
</trkpt>
<trkpt lat="31.7785880" lon="35.1042800">
<ele>638.200012</ele>
<time>2025-10-17T16:36:54.530Z</time>
</trkpt>
<trkpt lat="31.7785780" lon="35.1043010">
<ele>638.599976</ele>
<time>2025-10-17T16:36:54.530Z</time>
</trkpt>
<trkpt lat="31.7785670" lon="35.1043210">
<ele>639.400024</ele>
<time>2025-10-17T16:36:54.530Z</time>
</trkpt>
<trkpt lat="31.7785550" lon="35.1043480">
<ele>639.600037</ele>
<time>2025-10-17T16:36:54.530Z</time>
</trkpt>
<trkpt lat="31.7785440" lon="35.1043770">
<ele>639.799988</ele>
<time>2025-10-17T16:36:54.530Z</time>
</trkpt>
<trkpt lat="31.7785320" lon="35.1044010">
<ele>640.399963</ele>
<time>2025-10-17T16:36:54.530Z</time>
</trkpt>
<trkpt lat="31.7785220" lon="35.1044230">
<ele>640.599976</ele>
<time>2025-10-17T16:36:54.530Z</time>
</trkpt>
<trkpt lat="31.7785220" lon="35.1044230">
<ele>640.800049</ele>
<time>2025-10-17T16:36:54.530Z</time>
</trkpt>
<trkpt lat="31.7785170" lon="35.1044360">
<ele>640.800049</ele>
<time>2025-10-17T16:36:54.530Z</time>
</trkpt>
<trkpt lat="31.7784960" lon="35.1044780">
<ele>640.800049</ele>
<time>2025-10-17T16:36:54.530Z</time>
</trkpt>
<trkpt lat="31.7784830" lon="35.1045020">
<ele>640.800049</ele>
<time>2025-10-17T16:36:54.530Z</time>
</trkpt>
<trkpt lat="31.7784690" lon="35.1045250">
<ele>640.800049</ele>
<time>2025-10-17T16:36:54.530Z</time>
</trkpt>
<trkpt lat="31.7784580" lon="35.1045480">
<ele>640.800049</ele>
<time>2025-10-17T16:36:54.530Z</time>
</trkpt>
<trkpt lat="31.7784500" lon="35.1045660">
<ele>640.800049</ele>
<time>2025-10-17T16:36:54.530Z</time>
</trkpt>
<trkpt lat="31.7784430" lon="35.1045890">
<ele>640.800049</ele>
<time>2025-10-17T16:36:54.530Z</time>
</trkpt>
<trkpt lat="31.7784360" lon="35.1046130">
<ele>641.000000</ele>
<time>2025-10-17T16:36:54.531Z</time>
</trkpt>
<trkpt lat="31.7784270" lon="35.1046360">
<ele>641.200012</ele>
<time>2025-10-17T16:36:54.531Z</time>
</trkpt>
<trkpt lat="31.7784190" lon="35.1046600">
<ele>641.200012</ele>
<time>2025-10-17T16:36:54.531Z</time>
</trkpt>
<trkpt lat="31.7784110" lon="35.1046830">
<ele>641.599976</ele>
<time>2025-10-17T16:36:54.531Z</time>
</trkpt>
<trkpt lat="31.7784040" lon="35.1047050">
<ele>641.599976</ele>
<time>2025-10-17T16:36:54.531Z</time>
</trkpt>
<trkpt lat="31.7783960" lon="35.1047270">
<ele>641.799988</ele>
<time>2025-10-17T16:36:54.531Z</time>
</trkpt>
<trkpt lat="31.7783900" lon="35.1047520">
<ele>642.000061</ele>
<time>2025-10-17T16:36:54.531Z</time>
</trkpt>
<trkpt lat="31.7783830" lon="35.1047750">
<ele>642.000061</ele>
<time>2025-10-17T16:36:54.531Z</time>
</trkpt>
<trkpt lat="31.7783770" lon="35.1047950">
<ele>642.200012</ele>
<time>2025-10-17T16:36:54.531Z</time>
</trkpt>
<trkpt lat="31.7783710" lon="35.1048190">
<ele>642.200012</ele>
<time>2025-10-17T16:36:54.531Z</time>
</trkpt>
<trkpt lat="31.7783670" lon="35.1048440">
<ele>642.400024</ele>
<time>2025-10-17T16:36:54.531Z</time>
</trkpt>
<trkpt lat="31.7783630" lon="35.1048710">
<ele>642.400024</ele>
<time>2025-10-17T16:36:54.531Z</time>
</trkpt>
<trkpt lat="31.7783630" lon="35.1048930">
<ele>642.600037</ele>
<time>2025-10-17T16:36:54.531Z</time>
</trkpt>
<trkpt lat="31.7783620" lon="35.1049100">
<ele>642.799988</ele>
<time>2025-10-17T16:36:54.531Z</time>
</trkpt>
<trkpt lat="31.7783610" lon="35.1049350">
<ele>643.000000</ele>
<time>2025-10-17T16:36:54.531Z</time>
</trkpt>
<trkpt lat="31.7783610" lon="35.1049620">
<ele>643.000000</ele>
<time>2025-10-17T16:36:54.531Z</time>
</trkpt>
<trkpt lat="31.7783600" lon="35.1049960">
<ele>643.200012</ele>
<time>2025-10-17T16:36:54.531Z</time>
</trkpt>
<trkpt lat="31.7783600" lon="35.1050270">
<ele>643.200012</ele>
<time>2025-10-17T16:36:54.531Z</time>
</trkpt>
<trkpt lat="31.7783610" lon="35.1050570">
<ele>643.600037</ele>
<time>2025-10-17T16:36:54.531Z</time>
</trkpt>
<trkpt lat="31.7783620" lon="35.1050870">
<ele>644.200012</ele>
<time>2025-10-17T16:36:54.531Z</time>
</trkpt>
<trkpt lat="31.7783620" lon="35.1051220">
<ele>644.400024</ele>
<time>2025-10-17T16:36:54.531Z</time>
</trkpt>
<trkpt lat="31.7783630" lon="35.1051580">
<ele>644.400024</ele>
<time>2025-10-17T16:36:54.531Z</time>
</trkpt>
<trkpt lat="31.7783650" lon="35.1052060">
<ele>644.599976</ele>
<time>2025-10-17T16:36:54.531Z</time>
</trkpt>
<trkpt lat="31.7783660" lon="35.1052420">
<ele>644.599976</ele>
<time>2025-10-17T16:36:54.531Z</time>
</trkpt>
<trkpt lat="31.7783690" lon="35.1052680">
<ele>644.599976</ele>
<time>2025-10-17T16:36:54.531Z</time>
</trkpt>
<trkpt lat="31.7783720" lon="35.1052990">
<ele>644.599976</ele>
<time>2025-10-17T16:36:54.532Z</time>
</trkpt>
<trkpt lat="31.7783740" lon="35.1053300">
<ele>644.599976</ele>
<time>2025-10-17T16:36:54.532Z</time>
</trkpt>
<trkpt lat="31.7783780" lon="35.1053690">
<ele>644.599976</ele>
<time>2025-10-17T16:36:54.532Z</time>
</trkpt>
<trkpt lat="31.7783820" lon="35.1053990">
<ele>644.799988</ele>
<time>2025-10-17T16:36:54.532Z</time>
</trkpt>
<trkpt lat="31.7783850" lon="35.1054210">
<ele>644.799988</ele>
<time>2025-10-17T16:36:54.532Z</time>
</trkpt>
<trkpt lat="31.7783890" lon="35.1054480">
<ele>644.799988</ele>
<time>2025-10-17T16:36:54.532Z</time>
</trkpt>
<trkpt lat="31.7783930" lon="35.1054750">
<ele>645.000061</ele>
<time>2025-10-17T16:36:54.532Z</time>
</trkpt>
<trkpt lat="31.7783990" lon="35.1055050">
<ele>645.600037</ele>
<time>2025-10-17T16:36:54.532Z</time>
</trkpt>
<trkpt lat="31.7784040" lon="35.1055360">
<ele>645.600037</ele>
<time>2025-10-17T16:36:54.532Z</time>
</trkpt>
<trkpt lat="31.7784080" lon="35.1055610">
<ele>645.799988</ele>
<time>2025-10-17T16:36:54.532Z</time>
</trkpt>
<trkpt lat="31.7784130" lon="35.1055840">
<ele>646.000000</ele>
<time>2025-10-17T16:36:54.532Z</time>
</trkpt>
<trkpt lat="31.7784170" lon="35.1056070">
<ele>646.600037</ele>
<time>2025-10-17T16:36:54.532Z</time>
</trkpt>
<trkpt lat="31.7784240" lon="35.1056310">
<ele>646.600037</ele>
<time>2025-10-17T16:36:54.532Z</time>
</trkpt>
<trkpt lat="31.7784310" lon="35.1056610">
<ele>646.800049</ele>
<time>2025-10-17T16:36:54.532Z</time>
</trkpt>
<trkpt lat="31.7784360" lon="35.1056850">
<ele>646.800049</ele>
<time>2025-10-17T16:36:54.532Z</time>
</trkpt>
<trkpt lat="31.7784450" lon="35.1057180">
<ele>646.800049</ele>
<time>2025-10-17T16:36:54.532Z</time>
</trkpt>
<trkpt lat="31.7784490" lon="35.1057330">
<ele>647.000000</ele>
<time>2025-10-17T16:36:54.532Z</time>
</trkpt>
<trkpt lat="31.7784530" lon="35.1057470">
<ele>647.000000</ele>
<time>2025-10-17T16:36:54.532Z</time>
</trkpt>
<trkpt lat="31.7784590" lon="35.1057690">
<ele>647.200012</ele>
<time>2025-10-17T16:36:54.532Z</time>
</trkpt>
<trkpt lat="31.7784700" lon="35.1057920">
<ele>647.400024</ele>
<time>2025-10-17T16:36:54.532Z</time>
</trkpt>
<trkpt lat="31.7784800" lon="35.1058150">
<ele>647.400024</ele>
<time>2025-10-17T16:36:54.532Z</time>
</trkpt>
<trkpt lat="31.7784950" lon="35.1058390">
<ele>647.400024</ele>
<time>2025-10-17T16:36:54.532Z</time>
</trkpt>
<trkpt lat="31.7785120" lon="35.1058620">
<ele>647.599976</ele>
<time>2025-10-17T16:36:54.532Z</time>
</trkpt>
<trkpt lat="31.7785310" lon="35.1058860">
<ele>647.599976</ele>
<time>2025-10-17T16:36:54.532Z</time>
</trkpt>
<trkpt lat="31.7785450" lon="35.1059010">
<ele>647.799988</ele>
<time>2025-10-17T16:36:54.532Z</time>
</trkpt>
<trkpt lat="31.7785570" lon="35.1059110">
<ele>647.999939</ele>
<time>2025-10-17T16:36:54.533Z</time>
</trkpt>
<trkpt lat="31.7785730" lon="35.1059240">
<ele>647.999939</ele>
<time>2025-10-17T16:36:54.533Z</time>
</trkpt>
<trkpt lat="31.7785860" lon="35.1059370">
<ele>647.999939</ele>
<time>2025-10-17T16:36:54.533Z</time>
</trkpt>
<trkpt lat="31.7786010" lon="35.1059510">
<ele>647.999939</ele>
<time>2025-10-17T16:36:54.533Z</time>
</trkpt>
<trkpt lat="31.7786150" lon="35.1059590">
<ele>648.400024</ele>
<time>2025-10-17T16:36:54.533Z</time>
</trkpt>
<trkpt lat="31.7786280" lon="35.1059690">
<ele>648.400024</ele>
<time>2025-10-17T16:36:54.533Z</time>
</trkpt>
<trkpt lat="31.7786370" lon="35.1059800">
<ele>648.400024</ele>
<time>2025-10-17T16:36:54.533Z</time>
</trkpt>
<trkpt lat="31.7786520" lon="35.1059920">
<ele>648.599976</ele>
<time>2025-10-17T16:36:54.533Z</time>
</trkpt>
<trkpt lat="31.7786660" lon="35.1060040">
<ele>648.599976</ele>
<time>2025-10-17T16:36:54.533Z</time>
</trkpt>
<trkpt lat="31.7786840" lon="35.1060150">
<ele>648.599976</ele>
<time>2025-10-17T16:36:54.533Z</time>
</trkpt>
<trkpt lat="31.7786990" lon="35.1060250">
<ele>648.799988</ele>
<time>2025-10-17T16:36:54.533Z</time>
</trkpt>
<trkpt lat="31.7787120" lon="35.1060360">
<ele>649.000000</ele>
<time>2025-10-17T16:36:54.533Z</time>
</trkpt>
<trkpt lat="31.7787260" lon="35.1060490">
<ele>649.199951</ele>
<time>2025-10-17T16:36:54.533Z</time>
</trkpt>
<trkpt lat="31.7787400" lon="35.1060620">
<ele>649.399963</ele>
<time>2025-10-17T16:36:54.533Z</time>
</trkpt>
<trkpt lat="31.7787580" lon="35.1060760">
<ele>649.600037</ele>
<time>2025-10-17T16:36:54.533Z</time>
</trkpt>
<trkpt lat="31.7787740" lon="35.1060840">
<ele>649.600037</ele>
<time>2025-10-17T16:36:54.533Z</time>
</trkpt>
<trkpt lat="31.7787880" lon="35.1060940">
<ele>649.799988</ele>
<time>2025-10-17T16:36:54.533Z</time>
</trkpt>
<trkpt lat="31.7788040" lon="35.1061080">
<ele>650.000000</ele>
<time>2025-10-17T16:36:54.533Z</time>
</trkpt>
<trkpt lat="31.7788170" lon="35.1061220">
<ele>650.000000</ele>
<time>2025-10-17T16:36:54.533Z</time>
</trkpt>
<trkpt lat="31.7788330" lon="35.1061350">
<ele>650.200012</ele>
<time>2025-10-17T16:36:54.533Z</time>
</trkpt>
<trkpt lat="31.7788480" lon="35.1061470">
<ele>650.399963</ele>
<time>2025-10-17T16:36:54.533Z</time>
</trkpt>
<trkpt lat="31.7788480" lon="35.1061470">
<ele>650.399963</ele>
<time>2025-10-17T16:36:54.533Z</time>
</trkpt>
<trkpt lat="31.7788630" lon="35.1061590">
<ele>650.599976</ele>
<time>2025-10-17T16:36:54.533Z</time>
</trkpt>
<trkpt lat="31.7788920" lon="35.1061770">
<ele>650.599976</ele>
<time>2025-10-17T16:36:54.533Z</time>
</trkpt>
<trkpt lat="31.7789110" lon="35.1061870">
<ele>650.799988</ele>
<time>2025-10-17T16:36:54.533Z</time>
</trkpt>
<trkpt lat="31.7789270" lon="35.1061950">
<ele>650.799988</ele>
<time>2025-10-17T16:36:54.533Z</time>
</trkpt>
<trkpt lat="31.7789450" lon="35.1062010">
<ele>650.799988</ele>
<time>2025-10-17T16:36:54.533Z</time>
</trkpt>
<trkpt lat="31.7789580" lon="35.1062060">
<ele>650.999939</ele>
<time>2025-10-17T16:36:54.534Z</time>
</trkpt>
<trkpt lat="31.7789760" lon="35.1062160">
<ele>651.200012</ele>
<time>2025-10-17T16:36:54.534Z</time>
</trkpt>
<trkpt lat="31.7789880" lon="35.1062210">
<ele>651.400024</ele>
<time>2025-10-17T16:36:54.534Z</time>
</trkpt>
<trkpt lat="31.7790060" lon="35.1062360">
<ele>651.599976</ele>
<time>2025-10-17T16:36:54.534Z</time>
</trkpt>
<trkpt lat="31.7790180" lon="35.1062550">
<ele>651.799988</ele>
<time>2025-10-17T16:36:54.534Z</time>
</trkpt>
<trkpt lat="31.7790260" lon="35.1062770">
<ele>652.000000</ele>
<time>2025-10-17T16:36:54.534Z</time>
</trkpt>
<trkpt lat="31.7790360" lon="35.1063010">
<ele>652.199951</ele>
<time>2025-10-17T16:36:54.534Z</time>
</trkpt>
<trkpt lat="31.7790470" lon="35.1063280">
<ele>652.399963</ele>
<time>2025-10-17T16:36:54.534Z</time>
</trkpt>
<trkpt lat="31.7790550" lon="35.1063530">
<ele>652.600037</ele>
<time>2025-10-17T16:36:54.534Z</time>
</trkpt>
<trkpt lat="31.7790640" lon="35.1063790">
<ele>652.600037</ele>
<time>2025-10-17T16:36:54.534Z</time>
</trkpt>
<trkpt lat="31.7790730" lon="35.1063970">
<ele>652.600037</ele>
<time>2025-10-17T16:36:54.534Z</time>
</trkpt>
<trkpt lat="31.7790830" lon="35.1064150">
<ele>652.600037</ele>
<time>2025-10-17T16:36:54.534Z</time>
</trkpt>
<trkpt lat="31.7790930" lon="35.1064340">
<ele>652.799988</ele>
<time>2025-10-17T16:36:54.534Z</time>
</trkpt>
<trkpt lat="31.7791030" lon="35.1064550">
<ele>652.799988</ele>
<time>2025-10-17T16:36:54.534Z</time>
</trkpt>
<trkpt lat="31.7791070" lon="35.1064740">
<ele>653.000000</ele>
<time>2025-10-17T16:36:54.534Z</time>
</trkpt>
<trkpt lat="31.7791080" lon="35.1064890">
<ele>653.200012</ele>
<time>2025-10-17T16:36:54.534Z</time>
</trkpt>
<trkpt lat="31.7791060" lon="35.1065060">
<ele>653.200012</ele>
<time>2025-10-17T16:36:54.534Z</time>
</trkpt>
<trkpt lat="31.7791050" lon="35.1065230">
<ele>653.599976</ele>
<time>2025-10-17T16:36:54.534Z</time>
</trkpt>
<trkpt lat="31.7791060" lon="35.1065410">
<ele>653.800049</ele>
<time>2025-10-17T16:36:54.534Z</time>
</trkpt>
<trkpt lat="31.7791100" lon="35.1065550">
<ele>653.999939</ele>
<time>2025-10-17T16:36:54.534Z</time>
</trkpt>
<trkpt lat="31.7791130" lon="35.1065690">
<ele>654.200012</ele>
<time>2025-10-17T16:36:54.534Z</time>
</trkpt>
<trkpt lat="31.7791130" lon="35.1065850">
<ele>654.200012</ele>
<time>2025-10-17T16:36:54.534Z</time>
</trkpt>
<trkpt lat="31.7791100" lon="35.1066030">
<ele>654.599976</ele>
<time>2025-10-17T16:36:54.534Z</time>
</trkpt>
<trkpt lat="31.7791100" lon="35.1066030">
<ele>654.799988</ele>
<time>2025-10-17T16:36:54.534Z</time>
</trkpt>
<trkpt lat="31.7791090" lon="35.1066350">
<ele>655.199951</ele>
<time>2025-10-17T16:36:54.534Z</time>
</trkpt>
<trkpt lat="31.7791090" lon="35.1066350">
<ele>655.199951</ele>
<time>2025-10-17T16:36:54.534Z</time>
</trkpt>
<trkpt lat="31.7791130" lon="35.1066620">
<ele>655.400024</ele>
<time>2025-10-17T16:36:54.534Z</time>
</trkpt>
<trkpt lat="31.7791150" lon="35.1066770">
<ele>655.400024</ele>
<time>2025-10-17T16:36:54.535Z</time>
</trkpt>
<trkpt lat="31.7791150" lon="35.1066770">
<ele>655.600037</ele>
<time>2025-10-17T16:36:54.535Z</time>
</trkpt>
<trkpt lat="31.7791150" lon="35.1067090">
<ele>655.799988</ele>
<time>2025-10-17T16:36:54.535Z</time>
</trkpt>
<trkpt lat="31.7791160" lon="35.1067270">
<ele>656.000000</ele>
<time>2025-10-17T16:36:54.535Z</time>
</trkpt>
<trkpt lat="31.7791170" lon="35.1067440">
<ele>656.200012</ele>
<time>2025-10-17T16:36:54.535Z</time>
</trkpt>
<trkpt lat="31.7791180" lon="35.1067610">
<ele>656.399963</ele>
<time>2025-10-17T16:36:54.535Z</time>
</trkpt>
<trkpt lat="31.7791170" lon="35.1067800">
<ele>656.800049</ele>
<time>2025-10-17T16:36:54.535Z</time>
</trkpt>
<trkpt lat="31.7791170" lon="35.1067970">
<ele>656.800049</ele>
<time>2025-10-17T16:36:54.535Z</time>
</trkpt>
<trkpt lat="31.7791160" lon="35.1068140">
<ele>657.000000</ele>
<time>2025-10-17T16:36:54.535Z</time>
</trkpt>
<trkpt lat="31.7791170" lon="35.1068290">
<ele>657.000000</ele>
<time>2025-10-17T16:36:54.535Z</time>
</trkpt>
<trkpt lat="31.7791190" lon="35.1068450">
<ele>657.000000</ele>
<time>2025-10-17T16:36:54.535Z</time>
</trkpt>
<trkpt lat="31.7791210" lon="35.1068640">
<ele>657.200012</ele>
<time>2025-10-17T16:36:54.535Z</time>
</trkpt>
<trkpt lat="31.7791210" lon="35.1068840">
<ele>657.200012</ele>
<time>2025-10-17T16:36:54.535Z</time>
</trkpt>
<trkpt lat="31.7791200" lon="35.1069030">
<ele>657.400024</ele>
<time>2025-10-17T16:36:54.535Z</time>
</trkpt>
<trkpt lat="31.7791200" lon="35.1069210">
<ele>657.599976</ele>
<time>2025-10-17T16:36:54.535Z</time>
</trkpt>
<trkpt lat="31.7791210" lon="35.1069420">
<ele>657.799988</ele>
<time>2025-10-17T16:36:54.535Z</time>
</trkpt>
<trkpt lat="31.7791220" lon="35.1069610">
<ele>658.000000</ele>
<time>2025-10-17T16:36:54.535Z</time>
</trkpt>
<trkpt lat="31.7791220" lon="35.1069790">
<ele>658.000000</ele>
<time>2025-10-17T16:36:54.535Z</time>
</trkpt>
<trkpt lat="31.7791200" lon="35.1069970">
<ele>658.199951</ele>
<time>2025-10-17T16:36:54.535Z</time>
</trkpt>
<trkpt lat="31.7791200" lon="35.1070150">
<ele>658.199951</ele>
<time>2025-10-17T16:36:54.535Z</time>
</trkpt>
<trkpt lat="31.7791180" lon="35.1070330">
<ele>658.199951</ele>
<time>2025-10-17T16:36:54.535Z</time>
</trkpt>
<trkpt lat="31.7791190" lon="35.1070510">
<ele>658.400024</ele>
<time>2025-10-17T16:36:54.535Z</time>
</trkpt>
<trkpt lat="31.7791190" lon="35.1070680">
<ele>658.600037</ele>
<time>2025-10-17T16:36:54.535Z</time>
</trkpt>
<trkpt lat="31.7791170" lon="35.1070860">
<ele>658.799988</ele>
<time>2025-10-17T16:36:54.535Z</time>
</trkpt>
<trkpt lat="31.7791160" lon="35.1071040">
<ele>659.200012</ele>
<time>2025-10-17T16:36:54.535Z</time>
</trkpt>
<trkpt lat="31.7791150" lon="35.1071250">
<ele>659.399963</ele>
<time>2025-10-17T16:36:54.535Z</time>
</trkpt>
<trkpt lat="31.7791150" lon="35.1071430">
<ele>659.800049</ele>
<time>2025-10-17T16:36:54.535Z</time>
</trkpt>
<trkpt lat="31.7791140" lon="35.1071590">
<ele>660.000000</ele>
<time>2025-10-17T16:36:54.536Z</time>
</trkpt>
<trkpt lat="31.7791140" lon="35.1071760">
<ele>660.400024</ele>
<time>2025-10-17T16:36:54.536Z</time>
</trkpt>
<trkpt lat="31.7791140" lon="35.1071940">
<ele>660.599976</ele>
<time>2025-10-17T16:36:54.536Z</time>
</trkpt>
<trkpt lat="31.7791120" lon="35.1072130">
<ele>661.000000</ele>
<time>2025-10-17T16:36:54.536Z</time>
</trkpt>
<trkpt lat="31.7791110" lon="35.1072300">
<ele>661.199951</ele>
<time>2025-10-17T16:36:54.536Z</time>
</trkpt>
<trkpt lat="31.7791100" lon="35.1072460">
<ele>661.199951</ele>
<time>2025-10-17T16:36:54.536Z</time>
</trkpt>
<trkpt lat="31.7791070" lon="35.1072630">
<ele>661.400024</ele>
<time>2025-10-17T16:36:54.536Z</time>
</trkpt>
<trkpt lat="31.7791050" lon="35.1072800">
<ele>661.400024</ele>
<time>2025-10-17T16:36:54.536Z</time>
</trkpt>
<trkpt lat="31.7791030" lon="35.1072980">
<ele>661.600037</ele>
<time>2025-10-17T16:36:54.536Z</time>
</trkpt>
<trkpt lat="31.7791000" lon="35.1073150">
<ele>661.600037</ele>
<time>2025-10-17T16:36:54.536Z</time>
</trkpt>
<trkpt lat="31.7790980" lon="35.1073300">
<ele>662.000000</ele>
<time>2025-10-17T16:36:54.536Z</time>
</trkpt>
<trkpt lat="31.7790950" lon="35.1073460">
<ele>662.200012</ele>
<time>2025-10-17T16:36:54.536Z</time>
</trkpt>
<trkpt lat="31.7790900" lon="35.1073630">
<ele>662.399963</ele>
<time>2025-10-17T16:36:54.536Z</time>
</trkpt>
<trkpt lat="31.7790870" lon="35.1073820">
<ele>662.399963</ele>
<time>2025-10-17T16:36:54.536Z</time>
</trkpt>
<trkpt lat="31.7790840" lon="35.1074000">
<ele>662.599976</ele>
<time>2025-10-17T16:36:54.536Z</time>
</trkpt>
<trkpt lat="31.7790800" lon="35.1074170">
<ele>662.599976</ele>
<time>2025-10-17T16:36:54.536Z</time>
</trkpt>
<trkpt lat="31.7790760" lon="35.1074340">
<ele>662.800049</ele>
<time>2025-10-17T16:36:54.536Z</time>
</trkpt>
<trkpt lat="31.7790720" lon="35.1074520">
<ele>662.800049</ele>
<time>2025-10-17T16:36:54.536Z</time>
</trkpt>
<trkpt lat="31.7790670" lon="35.1074740">
<ele>663.000000</ele>
<time>2025-10-17T16:36:54.536Z</time>
</trkpt>
<trkpt lat="31.7790630" lon="35.1074970">
<ele>663.200012</ele>
<time>2025-10-17T16:36:54.536Z</time>
</trkpt>
<trkpt lat="31.7790580" lon="35.1075200">
<ele>663.400024</ele>
<time>2025-10-17T16:36:54.536Z</time>
</trkpt>
<trkpt lat="31.7790520" lon="35.1075420">
<ele>663.599976</ele>
<time>2025-10-17T16:36:54.536Z</time>
</trkpt>
<trkpt lat="31.7790440" lon="35.1075660">
<ele>663.799988</ele>
<time>2025-10-17T16:36:54.536Z</time>
</trkpt>
<trkpt lat="31.7790390" lon="35.1075890">
<ele>664.000000</ele>
<time>2025-10-17T16:36:54.536Z</time>
</trkpt>
<trkpt lat="31.7790340" lon="35.1076130">
<ele>664.000000</ele>
<time>2025-10-17T16:36:54.536Z</time>
</trkpt>
<trkpt lat="31.7790260" lon="35.1076330">
<ele>664.199951</ele>
<time>2025-10-17T16:36:54.536Z</time>
</trkpt>
<trkpt lat="31.7790210" lon="35.1076530">
<ele>664.400024</ele>
<time>2025-10-17T16:36:54.536Z</time>
</trkpt>
<trkpt lat="31.7790170" lon="35.1076760">
<ele>664.199951</ele>
<time>2025-10-17T16:36:54.536Z</time>
</trkpt>
<trkpt lat="31.7790100" lon="35.1077010">
<ele>664.600037</ele>
<time>2025-10-17T16:36:54.537Z</time>
</trkpt>
<trkpt lat="31.7790040" lon="35.1077250">
<ele>664.600037</ele>
<time>2025-10-17T16:36:54.537Z</time>
</trkpt>
<trkpt lat="31.7789980" lon="35.1077500">
<ele>664.600037</ele>
<time>2025-10-17T16:36:54.537Z</time>
</trkpt>
<trkpt lat="31.7789910" lon="35.1077760">
<ele>664.600037</ele>
<time>2025-10-17T16:36:54.537Z</time>
</trkpt>
<trkpt lat="31.7789790" lon="35.1078070">
<ele>664.799988</ele>
<time>2025-10-17T16:36:54.537Z</time>
</trkpt>
<trkpt lat="31.7789700" lon="35.1078390">
<ele>664.799988</ele>
<time>2025-10-17T16:36:54.537Z</time>
</trkpt>
<trkpt lat="31.7789630" lon="35.1078700">
<ele>665.000000</ele>
<time>2025-10-17T16:36:54.537Z</time>
</trkpt>
<trkpt lat="31.7789590" lon="35.1078980">
<ele>665.000000</ele>
<time>2025-10-17T16:36:54.537Z</time>
</trkpt>
<trkpt lat="31.7789550" lon="35.1079250">
<ele>664.799988</ele>
<time>2025-10-17T16:36:54.537Z</time>
</trkpt>
<trkpt lat="31.7789520" lon="35.1079500">
<ele>664.799988</ele>
<time>2025-10-17T16:36:54.537Z</time>
</trkpt>
<trkpt lat="31.7789500" lon="35.1079750">
<ele>664.799988</ele>
<time>2025-10-17T16:36:54.537Z</time>
</trkpt>
<trkpt lat="31.7789470" lon="35.1080020">
<ele>665.000000</ele>
<time>2025-10-17T16:36:54.537Z</time>
</trkpt>
<trkpt lat="31.7789450" lon="35.1080280">
<ele>664.799988</ele>
<time>2025-10-17T16:36:54.537Z</time>
</trkpt>
<trkpt lat="31.7789440" lon="35.1080560">
<ele>664.799988</ele>
<time>2025-10-17T16:36:54.537Z</time>
</trkpt>
<trkpt lat="31.7789440" lon="35.1080870">
<ele>664.799988</ele>
<time>2025-10-17T16:36:54.537Z</time>
</trkpt>
<trkpt lat="31.7789440" lon="35.1081210">
<ele>664.799988</ele>
<time>2025-10-17T16:36:54.537Z</time>
</trkpt>
<trkpt lat="31.7789440" lon="35.1081570">
<ele>664.799988</ele>
<time>2025-10-17T16:36:54.537Z</time>
</trkpt>
<trkpt lat="31.7789440" lon="35.1081930">
<ele>665.000000</ele>
<time>2025-10-17T16:36:54.537Z</time>
</trkpt>
<trkpt lat="31.7789440" lon="35.1082940">
<ele>665.399963</ele>
<time>2025-10-17T16:36:54.537Z</time>
</trkpt>
<trkpt lat="31.7789420" lon="35.1084700">
<ele>665.200012</ele>
<time>2025-10-17T16:36:54.537Z</time>
</trkpt>
<trkpt lat="31.7789250" lon="35.1087190">
<ele>665.599976</ele>
<time>2025-10-17T16:36:54.537Z</time>
</trkpt>
<trkpt lat="31.7789200" lon="35.1087540">
<ele>665.800049</ele>
<time>2025-10-17T16:36:54.537Z</time>
</trkpt>
<trkpt lat="31.7789160" lon="35.1088280">
<ele>666.400024</ele>
<time>2025-10-17T16:36:54.537Z</time>
</trkpt>
<trkpt lat="31.7789250" lon="35.1091610">
<ele>666.799988</ele>
<time>2025-10-17T16:36:54.537Z</time>
</trkpt>
<trkpt lat="31.7789340" lon="35.1092480">
<ele>667.000061</ele>
<time>2025-10-17T16:36:54.537Z</time>
</trkpt>
<trkpt lat="31.7789420" lon="35.1092780">
<ele>667.000061</ele>
<time>2025-10-17T16:36:54.537Z</time>
</trkpt>
<trkpt lat="31.7789520" lon="35.1093090">
<ele>667.200012</ele>
<time>2025-10-17T16:36:54.537Z</time>
</trkpt>
<trkpt lat="31.7789610" lon="35.1093410">
<ele>667.200012</ele>
<time>2025-10-17T16:36:54.537Z</time>
</trkpt>
<trkpt lat="31.7789710" lon="35.1093730">
<ele>667.200012</ele>
<time>2025-10-17T16:36:54.538Z</time>
</trkpt>
<trkpt lat="31.7789910" lon="35.1094380">
<ele>667.600037</ele>
<time>2025-10-17T16:36:54.538Z</time>
</trkpt>
<trkpt lat="31.7790030" lon="35.1094650">
<ele>667.600037</ele>
<time>2025-10-17T16:36:54.538Z</time>
</trkpt>
<trkpt lat="31.7790150" lon="35.1094890">
<ele>667.799988</ele>
<time>2025-10-17T16:36:54.538Z</time>
</trkpt>
<trkpt lat="31.7790280" lon="35.1095150">
<ele>668.000000</ele>
<time>2025-10-17T16:36:54.538Z</time>
</trkpt>
<trkpt lat="31.7790540" lon="35.1095620">
<ele>668.200012</ele>
<time>2025-10-17T16:36:54.538Z</time>
</trkpt>
<trkpt lat="31.7790670" lon="35.1095840">
<ele>668.399963</ele>
<time>2025-10-17T16:36:54.538Z</time>
</trkpt>
<trkpt lat="31.7790810" lon="35.1096040">
<ele>668.399963</ele>
<time>2025-10-17T16:36:54.538Z</time>
</trkpt>
<trkpt lat="31.7790970" lon="35.1096240">
<ele>668.600037</ele>
<time>2025-10-17T16:36:54.538Z</time>
</trkpt>
<trkpt lat="31.7791130" lon="35.1096450">
<ele>668.800049</ele>
<time>2025-10-17T16:36:54.538Z</time>
</trkpt>
<trkpt lat="31.7791300" lon="35.1096620">
<ele>669.000000</ele>
<time>2025-10-17T16:36:54.538Z</time>
</trkpt>
<trkpt lat="31.7791470" lon="35.1096800">
<ele>669.200012</ele>
<time>2025-10-17T16:36:54.538Z</time>
</trkpt>
<trkpt lat="31.7791650" lon="35.1096960">
<ele>669.200012</ele>
<time>2025-10-17T16:36:54.538Z</time>
</trkpt>
<trkpt lat="31.7791830" lon="35.1097130">
<ele>669.400024</ele>
<time>2025-10-17T16:36:54.538Z</time>
</trkpt>
<trkpt lat="31.7791990" lon="35.1097330">
<ele>669.599976</ele>
<time>2025-10-17T16:36:54.538Z</time>
</trkpt>
<trkpt lat="31.7792120" lon="35.1097510">
<ele>669.599976</ele>
<time>2025-10-17T16:36:54.538Z</time>
</trkpt>
<trkpt lat="31.7792240" lon="35.1097700">
<ele>669.799988</ele>
<time>2025-10-17T16:36:54.538Z</time>
</trkpt>
<trkpt lat="31.7792380" lon="35.1097870">
<ele>670.000061</ele>
<time>2025-10-17T16:36:54.538Z</time>
</trkpt>
<trkpt lat="31.7792520" lon="35.1098050">
<ele>670.400024</ele>
<time>2025-10-17T16:36:54.538Z</time>
</trkpt>
<trkpt lat="31.7792700" lon="35.1098240">
<ele>670.400024</ele>
<time>2025-10-17T16:36:54.538Z</time>
</trkpt>
<trkpt lat="31.7792880" lon="35.1098430">
<ele>670.600037</ele>
<time>2025-10-17T16:36:54.538Z</time>
</trkpt>
<trkpt lat="31.7793030" lon="35.1098650">
<ele>670.799988</ele>
<time>2025-10-17T16:36:54.538Z</time>
</trkpt>
<trkpt lat="31.7793150" lon="35.1098840">
<ele>670.799988</ele>
<time>2025-10-17T16:36:54.538Z</time>
</trkpt>
<trkpt lat="31.7793250" lon="35.1099010">
<ele>670.799988</ele>
<time>2025-10-17T16:36:54.538Z</time>
</trkpt>
<trkpt lat="31.7793350" lon="35.1099170">
<ele>671.000000</ele>
<time>2025-10-17T16:36:54.538Z</time>
</trkpt>
<trkpt lat="31.7793480" lon="35.1099330">
<ele>671.000000</ele>
<time>2025-10-17T16:36:54.538Z</time>
</trkpt>
<trkpt lat="31.7793580" lon="35.1099520">
<ele>671.000000</ele>
<time>2025-10-17T16:36:54.538Z</time>
</trkpt>
<trkpt lat="31.7793710" lon="35.1099660">
<ele>671.200012</ele>
<time>2025-10-17T16:36:54.538Z</time>
</trkpt>
<trkpt lat="31.7793850" lon="35.1099820">
<ele>671.200012</ele>
<time>2025-10-17T16:36:54.539Z</time>
</trkpt>
<trkpt lat="31.7793990" lon="35.1100010">
<ele>671.600037</ele>
<time>2025-10-17T16:36:54.539Z</time>
</trkpt>
<trkpt lat="31.7794150" lon="35.1100210">
<ele>671.600037</ele>
<time>2025-10-17T16:36:54.539Z</time>
</trkpt>
<trkpt lat="31.7794300" lon="35.1100400">
<ele>672.000000</ele>
<time>2025-10-17T16:36:54.539Z</time>
</trkpt>
<trkpt lat="31.7794440" lon="35.1100600">
<ele>672.200012</ele>
<time>2025-10-17T16:36:54.539Z</time>
</trkpt>
<trkpt lat="31.7794600" lon="35.1100790">
<ele>672.400024</ele>
<time>2025-10-17T16:36:54.539Z</time>
</trkpt>
<trkpt lat="31.7794730" lon="35.1100990">
<ele>672.400024</ele>
<time>2025-10-17T16:36:54.539Z</time>
</trkpt>
<trkpt lat="31.7794890" lon="35.1101170">
<ele>672.599976</ele>
<time>2025-10-17T16:36:54.539Z</time>
</trkpt>
<trkpt lat="31.7795000" lon="35.1101370">
<ele>672.599976</ele>
<time>2025-10-17T16:36:54.539Z</time>
</trkpt>
<trkpt lat="31.7795130" lon="35.1101570">
<ele>672.799988</ele>
<time>2025-10-17T16:36:54.539Z</time>
</trkpt>
<trkpt lat="31.7795270" lon="35.1101740">
<ele>673.000061</ele>
<time>2025-10-17T16:36:54.539Z</time>
</trkpt>
<trkpt lat="31.7795400" lon="35.1101920">
<ele>673.000061</ele>
<time>2025-10-17T16:36:54.539Z</time>
</trkpt>
<trkpt lat="31.7795540" lon="35.1102090">
<ele>673.200012</ele>
<time>2025-10-17T16:36:54.539Z</time>
</trkpt>
<trkpt lat="31.7795680" lon="35.1102290">
<ele>673.200012</ele>
<time>2025-10-17T16:36:54.539Z</time>
</trkpt>
<trkpt lat="31.7795830" lon="35.1102510">
<ele>673.400024</ele>
<time>2025-10-17T16:36:54.539Z</time>
</trkpt>
<trkpt lat="31.7795970" lon="35.1102770">
<ele>673.400024</ele>
<time>2025-10-17T16:36:54.539Z</time>
</trkpt>
<trkpt lat="31.7796140" lon="35.1103010">
<ele>673.599976</ele>
<time>2025-10-17T16:36:54.539Z</time>
</trkpt>
<trkpt lat="31.7796310" lon="35.1103270">
<ele>673.799988</ele>
<time>2025-10-17T16:36:54.539Z</time>
</trkpt>
<trkpt lat="31.7796490" lon="35.1103530">
<ele>674.000000</ele>
<time>2025-10-17T16:36:54.539Z</time>
</trkpt>
<trkpt lat="31.7796630" lon="35.1103810">
<ele>674.199951</ele>
<time>2025-10-17T16:36:54.539Z</time>
</trkpt>
<trkpt lat="31.7796750" lon="35.1104050">
<ele>674.199951</ele>
<time>2025-10-17T16:36:54.539Z</time>
</trkpt>
<trkpt lat="31.7796870" lon="35.1104270">
<ele>674.399963</ele>
<time>2025-10-17T16:36:54.539Z</time>
</trkpt>
<trkpt lat="31.7796980" lon="35.1104520">
<ele>674.399963</ele>
<time>2025-10-17T16:36:54.539Z</time>
</trkpt>
<trkpt lat="31.7797090" lon="35.1104780">
<ele>674.799988</ele>
<time>2025-10-17T16:36:54.539Z</time>
</trkpt>
<trkpt lat="31.7797200" lon="35.1105020">
<ele>674.799988</ele>
<time>2025-10-17T16:36:54.539Z</time>
</trkpt>
<trkpt lat="31.7797300" lon="35.1105280">
<ele>675.000000</ele>
<time>2025-10-17T16:36:54.539Z</time>
</trkpt>
<trkpt lat="31.7797360" lon="35.1105530">
<ele>675.200012</ele>
<time>2025-10-17T16:36:54.539Z</time>
</trkpt>
<trkpt lat="31.7797400" lon="35.1105790">
<ele>675.200012</ele>
<time>2025-10-17T16:36:54.539Z</time>
</trkpt>
<trkpt lat="31.7797450" lon="35.1106060">
<ele>675.399963</ele>
<time>2025-10-17T16:36:54.540Z</time>
</trkpt>
<trkpt lat="31.7797500" lon="35.1106320">
<ele>675.599976</ele>
<time>2025-10-17T16:36:54.540Z</time>
</trkpt>
<trkpt lat="31.7797520" lon="35.1106570">
<ele>675.599976</ele>
<time>2025-10-17T16:36:54.540Z</time>
</trkpt>
<trkpt lat="31.7797490" lon="35.1106830">
<ele>675.599976</ele>
<time>2025-10-17T16:36:54.540Z</time>
</trkpt>
<trkpt lat="31.7797460" lon="35.1107080">
<ele>675.799988</ele>
<time>2025-10-17T16:36:54.540Z</time>
</trkpt>
<trkpt lat="31.7797430" lon="35.1107330">
<ele>675.799988</ele>
<time>2025-10-17T16:36:54.540Z</time>
</trkpt>
<trkpt lat="31.7797400" lon="35.1107580">
<ele>675.999939</ele>
<time>2025-10-17T16:36:54.540Z</time>
</trkpt>
<trkpt lat="31.7797360" lon="35.1107830">
<ele>676.200012</ele>
<time>2025-10-17T16:36:54.540Z</time>
</trkpt>
<trkpt lat="31.7797330" lon="35.1108080">
<ele>676.400024</ele>
<time>2025-10-17T16:36:54.540Z</time>
</trkpt>
<trkpt lat="31.7797300" lon="35.1108350">
<ele>676.599976</ele>
<time>2025-10-17T16:36:54.540Z</time>
</trkpt>
<trkpt lat="31.7797250" lon="35.1108610">
<ele>676.799988</ele>
<time>2025-10-17T16:36:54.540Z</time>
</trkpt>
<trkpt lat="31.7797200" lon="35.1108860">
<ele>677.399963</ele>
<time>2025-10-17T16:36:54.540Z</time>
</trkpt>
<trkpt lat="31.7797160" lon="35.1109100">
<ele>677.600037</ele>
<time>2025-10-17T16:36:54.540Z</time>
</trkpt>
<trkpt lat="31.7797120" lon="35.1109320">
<ele>677.799988</ele>
<time>2025-10-17T16:36:54.540Z</time>
</trkpt>
<trkpt lat="31.7797100" lon="35.1109560">
<ele>678.000000</ele>
<time>2025-10-17T16:36:54.540Z</time>
</trkpt>
<trkpt lat="31.7797070" lon="35.1109800">
<ele>678.000000</ele>
<time>2025-10-17T16:36:54.540Z</time>
</trkpt>
<trkpt lat="31.7797030" lon="35.1110040">
<ele>678.200012</ele>
<time>2025-10-17T16:36:54.540Z</time>
</trkpt>
<trkpt lat="31.7796960" lon="35.1110280">
<ele>678.200012</ele>
<time>2025-10-17T16:36:54.540Z</time>
</trkpt>
<trkpt lat="31.7796940" lon="35.1110480">
<ele>678.599976</ele>
<time>2025-10-17T16:36:54.540Z</time>
</trkpt>
<trkpt lat="31.7796920" lon="35.1110720">
<ele>678.599976</ele>
<time>2025-10-17T16:36:54.540Z</time>
</trkpt>
<trkpt lat="31.7796900" lon="35.1110920">
<ele>678.799988</ele>
<time>2025-10-17T16:36:54.540Z</time>
</trkpt>
<trkpt lat="31.7796850" lon="35.1111130">
<ele>678.799988</ele>
<time>2025-10-17T16:36:54.540Z</time>
</trkpt>
<trkpt lat="31.7796810" lon="35.1111330">
<ele>679.200012</ele>
<time>2025-10-17T16:36:54.540Z</time>
</trkpt>
<trkpt lat="31.7796800" lon="35.1111530">
<ele>679.200012</ele>
<time>2025-10-17T16:36:54.540Z</time>
</trkpt>
<trkpt lat="31.7796790" lon="35.1111750">
<ele>679.400024</ele>
<time>2025-10-17T16:36:54.540Z</time>
</trkpt>
<trkpt lat="31.7796760" lon="35.1111980">
<ele>679.400024</ele>
<time>2025-10-17T16:36:54.540Z</time>
</trkpt>
<trkpt lat="31.7796750" lon="35.1112230">
<ele>679.599976</ele>
<time>2025-10-17T16:36:54.540Z</time>
</trkpt>
<trkpt lat="31.7796710" lon="35.1112480">
<ele>679.599976</ele>
<time>2025-10-17T16:36:54.540Z</time>
</trkpt>
<trkpt lat="31.7796660" lon="35.1112720">
<ele>679.799988</ele>
<time>2025-10-17T16:36:54.541Z</time>
</trkpt>
<trkpt lat="31.7796580" lon="35.1112980">
<ele>679.799988</ele>
<time>2025-10-17T16:36:54.541Z</time>
</trkpt>
<trkpt lat="31.7796510" lon="35.1113220">
<ele>680.000000</ele>
<time>2025-10-17T16:36:54.541Z</time>
</trkpt>
<trkpt lat="31.7796460" lon="35.1113480">
<ele>680.000000</ele>
<time>2025-10-17T16:36:54.541Z</time>
</trkpt>
<trkpt lat="31.7796410" lon="35.1113720">
<ele>680.199951</ele>
<time>2025-10-17T16:36:54.541Z</time>
</trkpt>
<trkpt lat="31.7796390" lon="35.1113950">
<ele>680.400024</ele>
<time>2025-10-17T16:36:54.541Z</time>
</trkpt>
<trkpt lat="31.7796370" lon="35.1114180">
<ele>680.400024</ele>
<time>2025-10-17T16:36:54.541Z</time>
</trkpt>
<trkpt lat="31.7796340" lon="35.1114390">
<ele>680.600037</ele>
<time>2025-10-17T16:36:54.541Z</time>
</trkpt>
<trkpt lat="31.7796320" lon="35.1114610">
<ele>680.799988</ele>
<time>2025-10-17T16:36:54.541Z</time>
</trkpt>
<trkpt lat="31.7796290" lon="35.1114830">
<ele>681.000000</ele>
<time>2025-10-17T16:36:54.541Z</time>
</trkpt>
<trkpt lat="31.7796250" lon="35.1115040">
<ele>681.200012</ele>
<time>2025-10-17T16:36:54.541Z</time>
</trkpt>
<trkpt lat="31.7796210" lon="35.1115250">
<ele>681.200012</ele>
<time>2025-10-17T16:36:54.541Z</time>
</trkpt>
<trkpt lat="31.7796190" lon="35.1115470">
<ele>681.399963</ele>
<time>2025-10-17T16:36:54.541Z</time>
</trkpt>
<trkpt lat="31.7796180" lon="35.1115680">
<ele>681.599976</ele>
<time>2025-10-17T16:36:54.541Z</time>
</trkpt>
<trkpt lat="31.7796110" lon="35.1115930">
<ele>681.800049</ele>
<time>2025-10-17T16:36:54.541Z</time>
</trkpt>
<trkpt lat="31.7796040" lon="35.1116140">
<ele>681.599976</ele>
<time>2025-10-17T16:36:54.541Z</time>
</trkpt>
<trkpt lat="31.7795990" lon="35.1116330">
<ele>682.000000</ele>
<time>2025-10-17T16:36:54.541Z</time>
</trkpt>
<trkpt lat="31.7795950" lon="35.1116560">
<ele>682.000000</ele>
<time>2025-10-17T16:36:54.541Z</time>
</trkpt>
<trkpt lat="31.7795920" lon="35.1116800">
<ele>682.000000</ele>
<time>2025-10-17T16:36:54.541Z</time>
</trkpt>
<trkpt lat="31.7795880" lon="35.1117020">
<ele>682.200012</ele>
<time>2025-10-17T16:36:54.541Z</time>
</trkpt>
<trkpt lat="31.7795840" lon="35.1117240">
<ele>682.200012</ele>
<time>2025-10-17T16:36:54.541Z</time>
</trkpt>
<trkpt lat="31.7795790" lon="35.1117470">
<ele>682.400024</ele>
<time>2025-10-17T16:36:54.541Z</time>
</trkpt>
<trkpt lat="31.7795760" lon="35.1117720">
<ele>682.599976</ele>
<time>2025-10-17T16:36:54.541Z</time>
</trkpt>
<trkpt lat="31.7795740" lon="35.1117950">
<ele>682.599976</ele>
<time>2025-10-17T16:36:54.541Z</time>
</trkpt>
<trkpt lat="31.7795710" lon="35.1118190">
<ele>682.599976</ele>
<time>2025-10-17T16:36:54.541Z</time>
</trkpt>
<trkpt lat="31.7795670" lon="35.1118430">
<ele>682.799988</ele>
<time>2025-10-17T16:36:54.541Z</time>
</trkpt>
<trkpt lat="31.7795640" lon="35.1118670">
<ele>682.799988</ele>
<time>2025-10-17T16:36:54.542Z</time>
</trkpt>
<trkpt lat="31.7795620" lon="35.1118910">
<ele>683.000000</ele>
<time>2025-10-17T16:36:54.542Z</time>
</trkpt>
<trkpt lat="31.7795600" lon="35.1119170">
<ele>683.000000</ele>
<time>2025-10-17T16:36:54.542Z</time>
</trkpt>
<trkpt lat="31.7795570" lon="35.1119470">
<ele>683.000000</ele>
<time>2025-10-17T16:36:54.542Z</time>
</trkpt>
<trkpt lat="31.7795550" lon="35.1119720">
<ele>683.199951</ele>
<time>2025-10-17T16:36:54.542Z</time>
</trkpt>
<trkpt lat="31.7795540" lon="35.1119970">
<ele>683.400024</ele>
<time>2025-10-17T16:36:54.542Z</time>
</trkpt>
<trkpt lat="31.7795520" lon="35.1120210">
<ele>683.799988</ele>
<time>2025-10-17T16:36:54.542Z</time>
</trkpt>
<trkpt lat="31.7795510" lon="35.1120400">
<ele>684.000000</ele>
<time>2025-10-17T16:36:54.542Z</time>
</trkpt>
<trkpt lat="31.7795520" lon="35.1120600">
<ele>684.200012</ele>
<time>2025-10-17T16:36:54.542Z</time>
</trkpt>
<trkpt lat="31.7795510" lon="35.1120830">
<ele>684.200012</ele>
<time>2025-10-17T16:36:54.542Z</time>
</trkpt>
<trkpt lat="31.7795510" lon="35.1121050">
<ele>684.399963</ele>
<time>2025-10-17T16:36:54.542Z</time>
</trkpt>
<trkpt lat="31.7795510" lon="35.1121270">
<ele>684.399963</ele>
<time>2025-10-17T16:36:54.542Z</time>
</trkpt>
<trkpt lat="31.7795500" lon="35.1121520">
<ele>684.599976</ele>
<time>2025-10-17T16:36:54.542Z</time>
</trkpt>
<trkpt lat="31.7795470" lon="35.1121790">
<ele>684.800049</ele>
<time>2025-10-17T16:36:54.542Z</time>
</trkpt>
<trkpt lat="31.7795430" lon="35.1122040">
<ele>684.800049</ele>
<time>2025-10-17T16:36:54.542Z</time>
</trkpt>
<trkpt lat="31.7795350" lon="35.1122280">
<ele>685.000000</ele>
<time>2025-10-17T16:36:54.542Z</time>
</trkpt>
<trkpt lat="31.7795310" lon="35.1122520">
<ele>685.000000</ele>
<time>2025-10-17T16:36:54.542Z</time>
</trkpt>
<trkpt lat="31.7795280" lon="35.1122770">
<ele>685.000000</ele>
<time>2025-10-17T16:36:54.542Z</time>
</trkpt>
<trkpt lat="31.7795220" lon="35.1122980">
<ele>685.000000</ele>
<time>2025-10-17T16:36:54.542Z</time>
</trkpt>
<trkpt lat="31.7795150" lon="35.1123140">
<ele>685.000000</ele>
<time>2025-10-17T16:36:54.542Z</time>
</trkpt>
<trkpt lat="31.7795100" lon="35.1123320">
<ele>685.200012</ele>
<time>2025-10-17T16:36:54.542Z</time>
</trkpt>
<trkpt lat="31.7795060" lon="35.1123520">
<ele>685.200012</ele>
<time>2025-10-17T16:36:54.542Z</time>
</trkpt>
<trkpt lat="31.7795030" lon="35.1123740">
<ele>685.400024</ele>
<time>2025-10-17T16:36:54.542Z</time>
</trkpt>
<trkpt lat="31.7794980" lon="35.1123960">
<ele>685.599976</ele>
<time>2025-10-17T16:36:54.542Z</time>
</trkpt>
<trkpt lat="31.7794920" lon="35.1124190">
<ele>685.599976</ele>
<time>2025-10-17T16:36:54.543Z</time>
</trkpt>
<trkpt lat="31.7794870" lon="35.1124440">
<ele>685.799988</ele>
<time>2025-10-17T16:36:54.543Z</time>
</trkpt>
<trkpt lat="31.7794810" lon="35.1124710">
<ele>686.000000</ele>
<time>2025-10-17T16:36:54.543Z</time>
</trkpt>
<trkpt lat="31.7794760" lon="35.1124970">
<ele>686.000000</ele>
<time>2025-10-17T16:36:54.543Z</time>
</trkpt>
<trkpt lat="31.7794700" lon="35.1125240">
<ele>686.000000</ele>
<time>2025-10-17T16:36:54.543Z</time>
</trkpt>
<trkpt lat="31.7794620" lon="35.1125540">
<ele>686.199951</ele>
<time>2025-10-17T16:36:54.543Z</time>
</trkpt>
<trkpt lat="31.7794560" lon="35.1125850">
<ele>686.199951</ele>
<time>2025-10-17T16:36:54.543Z</time>
</trkpt>
<trkpt lat="31.7794500" lon="35.1126180">
<ele>686.199951</ele>
<time>2025-10-17T16:36:54.543Z</time>
</trkpt>
<trkpt lat="31.7794440" lon="35.1126530">
<ele>686.400024</ele>
<time>2025-10-17T16:36:54.543Z</time>
</trkpt>
<trkpt lat="31.7794400" lon="35.1126880">
<ele>686.600037</ele>
<time>2025-10-17T16:36:54.543Z</time>
</trkpt>
<trkpt lat="31.7794380" lon="35.1127230">
<ele>686.600037</ele>
<time>2025-10-17T16:36:54.543Z</time>
</trkpt>
<trkpt lat="31.7794340" lon="35.1127570">
<ele>687.000000</ele>
<time>2025-10-17T16:36:54.543Z</time>
</trkpt>
<trkpt lat="31.7794310" lon="35.1127890">
<ele>687.200012</ele>
<time>2025-10-17T16:36:54.543Z</time>
</trkpt>
<trkpt lat="31.7794290" lon="35.1128220">
<ele>687.800049</ele>
<time>2025-10-17T16:36:54.543Z</time>
</trkpt>
<trkpt lat="31.7794280" lon="35.1128490">
<ele>688.000000</ele>
<time>2025-10-17T16:36:54.543Z</time>
</trkpt>
<trkpt lat="31.7794290" lon="35.1128760">
<ele>688.200012</ele>
<time>2025-10-17T16:36:54.543Z</time>
</trkpt>
<trkpt lat="31.7794310" lon="35.1129040">
<ele>688.200012</ele>
<time>2025-10-17T16:36:54.543Z</time>
</trkpt>
<trkpt lat="31.7794340" lon="35.1129340">
<ele>688.200012</ele>
<time>2025-10-17T16:36:54.543Z</time>
</trkpt>
<trkpt lat="31.7794380" lon="35.1129620">
<ele>688.400024</ele>
<time>2025-10-17T16:36:54.543Z</time>
</trkpt>
<trkpt lat="31.7794410" lon="35.1129880">
<ele>688.400024</ele>
<time>2025-10-17T16:36:54.543Z</time>
</trkpt>
<trkpt lat="31.7794450" lon="35.1130150">
<ele>688.400024</ele>
<time>2025-10-17T16:36:54.543Z</time>
</trkpt>
<trkpt lat="31.7794500" lon="35.1130410">
<ele>688.400024</ele>
<time>2025-10-17T16:36:54.543Z</time>
</trkpt>
<trkpt lat="31.7794570" lon="35.1130670">
<ele>688.599976</ele>
<time>2025-10-17T16:36:54.543Z</time>
</trkpt>
<trkpt lat="31.7794640" lon="35.1130940">
<ele>688.599976</ele>
<time>2025-10-17T16:36:54.543Z</time>
</trkpt>
<trkpt lat="31.7794670" lon="35.1131220">
<ele>688.599976</ele>
<time>2025-10-17T16:36:54.543Z</time>
</trkpt>
<trkpt lat="31.7794700" lon="35.1131500">
<ele>688.799988</ele>
<time>2025-10-17T16:36:54.543Z</time>
</trkpt>
<trkpt lat="31.7794770" lon="35.1131730">
<ele>689.000000</ele>
<time>2025-10-17T16:36:54.543Z</time>
</trkpt>
<trkpt lat="31.7794840" lon="35.1131960">
<ele>689.000000</ele>
<time>2025-10-17T16:36:54.544Z</time>
</trkpt>
<trkpt lat="31.7794920" lon="35.1132180">
<ele>689.000000</ele>
<time>2025-10-17T16:36:54.544Z</time>
</trkpt>
<trkpt lat="31.7795000" lon="35.1132410">
<ele>689.199951</ele>
<time>2025-10-17T16:36:54.544Z</time>
</trkpt>
<trkpt lat="31.7795050" lon="35.1132650">
<ele>689.199951</ele>
<time>2025-10-17T16:36:54.544Z</time>
</trkpt>
<trkpt lat="31.7795110" lon="35.1132850">
<ele>689.400024</ele>
<time>2025-10-17T16:36:54.544Z</time>
</trkpt>
<trkpt lat="31.7795190" lon="35.1133080">
<ele>689.600037</ele>
<time>2025-10-17T16:36:54.544Z</time>
</trkpt>
<trkpt lat="31.7795270" lon="35.1133290">
<ele>690.000000</ele>
<time>2025-10-17T16:36:54.544Z</time>
</trkpt>
<trkpt lat="31.7795320" lon="35.1133500">
<ele>690.000000</ele>
<time>2025-10-17T16:36:54.544Z</time>
</trkpt>
<trkpt lat="31.7795390" lon="35.1133710">
<ele>690.200012</ele>
<time>2025-10-17T16:36:54.544Z</time>
</trkpt>
<trkpt lat="31.7795490" lon="35.1133900">
<ele>690.200012</ele>
<time>2025-10-17T16:36:54.544Z</time>
</trkpt>
<trkpt lat="31.7795550" lon="35.1134090">
<ele>690.399963</ele>
<time>2025-10-17T16:36:54.544Z</time>
</trkpt>
<trkpt lat="31.7795610" lon="35.1134270">
<ele>690.599976</ele>
<time>2025-10-17T16:36:54.544Z</time>
</trkpt>
<trkpt lat="31.7795690" lon="35.1134450">
<ele>691.000000</ele>
<time>2025-10-17T16:36:54.544Z</time>
</trkpt>
<trkpt lat="31.7795770" lon="35.1134610">
<ele>691.200012</ele>
<time>2025-10-17T16:36:54.544Z</time>
</trkpt>
<trkpt lat="31.7795820" lon="35.1134790">
<ele>691.400024</ele>
<time>2025-10-17T16:36:54.544Z</time>
</trkpt>
<trkpt lat="31.7795880" lon="35.1134970">
<ele>691.599976</ele>
<time>2025-10-17T16:36:54.544Z</time>
</trkpt>
<trkpt lat="31.7795960" lon="35.1135150">
<ele>691.599976</ele>
<time>2025-10-17T16:36:54.544Z</time>
</trkpt>
<trkpt lat="31.7796050" lon="35.1135330">
<ele>692.000061</ele>
<time>2025-10-17T16:36:54.544Z</time>
</trkpt>
<trkpt lat="31.7796130" lon="35.1135500">
<ele>692.199951</ele>
<time>2025-10-17T16:36:54.544Z</time>
</trkpt>
<trkpt lat="31.7796210" lon="35.1135670">
<ele>692.400024</ele>
<time>2025-10-17T16:36:54.544Z</time>
</trkpt>
<trkpt lat="31.7796310" lon="35.1135840">
<ele>692.400024</ele>
<time>2025-10-17T16:36:54.544Z</time>
</trkpt>
<trkpt lat="31.7796410" lon="35.1136000">
<ele>692.400024</ele>
<time>2025-10-17T16:36:54.544Z</time>
</trkpt>
<trkpt lat="31.7796520" lon="35.1136190">
<ele>692.400024</ele>
<time>2025-10-17T16:36:54.544Z</time>
</trkpt>
<trkpt lat="31.7796630" lon="35.1136380">
<ele>692.600037</ele>
<time>2025-10-17T16:36:54.544Z</time>
</trkpt>
<trkpt lat="31.7796740" lon="35.1136570">
<ele>692.600037</ele>
<time>2025-10-17T16:36:54.544Z</time>
</trkpt>
<trkpt lat="31.7796830" lon="35.1136770">
<ele>692.799988</ele>
<time>2025-10-17T16:36:54.544Z</time>
</trkpt>
<trkpt lat="31.7796920" lon="35.1136950">
<ele>693.000000</ele>
<time>2025-10-17T16:36:54.544Z</time>
</trkpt>
<trkpt lat="31.7796990" lon="35.1137110">
<ele>693.000000</ele>
<time>2025-10-17T16:36:54.544Z</time>
</trkpt>
<trkpt lat="31.7797080" lon="35.1137280">
<ele>693.200012</ele>
<time>2025-10-17T16:36:54.545Z</time>
</trkpt>
<trkpt lat="31.7797170" lon="35.1137460">
<ele>693.399963</ele>
<time>2025-10-17T16:36:54.545Z</time>
</trkpt>
<trkpt lat="31.7797280" lon="35.1137650">
<ele>693.600037</ele>
<time>2025-10-17T16:36:54.545Z</time>
</trkpt>
<trkpt lat="31.7797390" lon="35.1137880">
<ele>693.600037</ele>
<time>2025-10-17T16:36:54.545Z</time>
</trkpt>
<trkpt lat="31.7797500" lon="35.1138140">
<ele>693.800049</ele>
<time>2025-10-17T16:36:54.545Z</time>
</trkpt>
<trkpt lat="31.7797630" lon="35.1138400">
<ele>693.800049</ele>
<time>2025-10-17T16:36:54.545Z</time>
</trkpt>
<trkpt lat="31.7797780" lon="35.1138660">
<ele>694.000000</ele>
<time>2025-10-17T16:36:54.545Z</time>
</trkpt>
<trkpt lat="31.7797900" lon="35.1138890">
<ele>694.000000</ele>
<time>2025-10-17T16:36:54.545Z</time>
</trkpt>
<trkpt lat="31.7798010" lon="35.1139120">
<ele>694.000000</ele>
<time>2025-10-17T16:36:54.545Z</time>
</trkpt>
<trkpt lat="31.7798110" lon="35.1139360">
<ele>694.200012</ele>
<time>2025-10-17T16:36:54.545Z</time>
</trkpt>
<trkpt lat="31.7798200" lon="35.1139570">
<ele>694.200012</ele>
<time>2025-10-17T16:36:54.545Z</time>
</trkpt>
<trkpt lat="31.7798280" lon="35.1139790">
<ele>694.400024</ele>
<time>2025-10-17T16:36:54.545Z</time>
</trkpt>
<trkpt lat="31.7798360" lon="35.1140020">
<ele>694.599976</ele>
<time>2025-10-17T16:36:54.545Z</time>
</trkpt>
<trkpt lat="31.7798460" lon="35.1140250">
<ele>694.799988</ele>
<time>2025-10-17T16:36:54.545Z</time>
</trkpt>
<trkpt lat="31.7798550" lon="35.1140460">
<ele>695.000061</ele>
<time>2025-10-17T16:36:54.545Z</time>
</trkpt>
<trkpt lat="31.7798670" lon="35.1140680">
<ele>695.000061</ele>
<time>2025-10-17T16:36:54.545Z</time>
</trkpt>
<trkpt lat="31.7798780" lon="35.1140900">
<ele>695.000061</ele>
<time>2025-10-17T16:36:54.545Z</time>
</trkpt>
<trkpt lat="31.7798870" lon="35.1141080">
<ele>695.200012</ele>
<time>2025-10-17T16:36:54.545Z</time>
</trkpt>
<trkpt lat="31.7798970" lon="35.1141290">
<ele>695.200012</ele>
<time>2025-10-17T16:36:54.545Z</time>
</trkpt>
<trkpt lat="31.7799080" lon="35.1141510">
<ele>695.400024</ele>
<time>2025-10-17T16:36:54.545Z</time>
</trkpt>
<trkpt lat="31.7799190" lon="35.1141740">
<ele>695.600037</ele>
<time>2025-10-17T16:36:54.545Z</time>
</trkpt>
<trkpt lat="31.7799320" lon="35.1141980">
<ele>695.799988</ele>
<time>2025-10-17T16:36:54.545Z</time>
</trkpt>
<trkpt lat="31.7799430" lon="35.1142220">
<ele>695.799988</ele>
<time>2025-10-17T16:36:54.545Z</time>
</trkpt>
<trkpt lat="31.7799530" lon="35.1142480">
<ele>696.200012</ele>
<time>2025-10-17T16:36:54.545Z</time>
</trkpt>
<trkpt lat="31.7799660" lon="35.1142720">
<ele>696.200012</ele>
<time>2025-10-17T16:36:54.545Z</time>
</trkpt>
<trkpt lat="31.7799760" lon="35.1142960">
<ele>696.399963</ele>
<time>2025-10-17T16:36:54.546Z</time>
</trkpt>
<trkpt lat="31.7799870" lon="35.1143210">
<ele>696.399963</ele>
<time>2025-10-17T16:36:54.546Z</time>
</trkpt>
<trkpt lat="31.7800000" lon="35.1143440">
<ele>696.399963</ele>
<time>2025-10-17T16:36:54.546Z</time>
</trkpt>
<trkpt lat="31.7800130" lon="35.1143710">
<ele>696.600037</ele>
<time>2025-10-17T16:36:54.546Z</time>
</trkpt>
<trkpt lat="31.7800260" lon="35.1143980">
<ele>696.600037</ele>
<time>2025-10-17T16:36:54.546Z</time>
</trkpt>
<trkpt lat="31.7800400" lon="35.1144230">
<ele>696.800049</ele>
<time>2025-10-17T16:36:54.546Z</time>
</trkpt>
<trkpt lat="31.7800520" lon="35.1144480">
<ele>696.800049</ele>
<time>2025-10-17T16:36:54.546Z</time>
</trkpt>
<trkpt lat="31.7800650" lon="35.1144730">
<ele>696.800049</ele>
<time>2025-10-17T16:36:54.546Z</time>
</trkpt>
<trkpt lat="31.7800790" lon="35.1145010">
<ele>696.800049</ele>
<time>2025-10-17T16:36:54.546Z</time>
</trkpt>
<trkpt lat="31.7800930" lon="35.1145310">
<ele>697.000000</ele>
<time>2025-10-17T16:36:54.546Z</time>
</trkpt>
<trkpt lat="31.7801070" lon="35.1145570">
<ele>697.000000</ele>
<time>2025-10-17T16:36:54.546Z</time>
</trkpt>
<trkpt lat="31.7801190" lon="35.1145820">
<ele>697.200012</ele>
<time>2025-10-17T16:36:54.546Z</time>
</trkpt>
<trkpt lat="31.7801330" lon="35.1146050">
<ele>697.200012</ele>
<time>2025-10-17T16:36:54.546Z</time>
</trkpt>
<trkpt lat="31.7801450" lon="35.1146280">
<ele>697.400024</ele>
<time>2025-10-17T16:36:54.546Z</time>
</trkpt>
<trkpt lat="31.7801570" lon="35.1146500">
<ele>697.400024</ele>
<time>2025-10-17T16:36:54.546Z</time>
</trkpt>
<trkpt lat="31.7801680" lon="35.1146710">
<ele>697.599976</ele>
<time>2025-10-17T16:36:54.546Z</time>
</trkpt>
<trkpt lat="31.7801790" lon="35.1146940">
<ele>697.599976</ele>
<time>2025-10-17T16:36:54.546Z</time>
</trkpt>
<trkpt lat="31.7801910" lon="35.1147160">
<ele>697.599976</ele>
<time>2025-10-17T16:36:54.546Z</time>
</trkpt>
<trkpt lat="31.7802050" lon="35.1147390">
<ele>697.599976</ele>
<time>2025-10-17T16:36:54.546Z</time>
</trkpt>
<trkpt lat="31.7802180" lon="35.1147660">
<ele>697.599976</ele>
<time>2025-10-17T16:36:54.546Z</time>
</trkpt>
<trkpt lat="31.7802970" lon="35.1148990">
<ele>698.400024</ele>
<time>2025-10-17T16:36:54.546Z</time>
</trkpt>
<trkpt lat="31.7804450" lon="35.1151050">
<ele>698.599976</ele>
<time>2025-10-17T16:36:54.546Z</time>
</trkpt>
<trkpt lat="31.7805010" lon="35.1151620">
<ele>698.599976</ele>
<time>2025-10-17T16:36:54.546Z</time>
</trkpt>
<trkpt lat="31.7805210" lon="35.1151800">
<ele>698.799988</ele>
<time>2025-10-17T16:36:54.546Z</time>
</trkpt>
<trkpt lat="31.7805370" lon="35.1151920">
<ele>698.799988</ele>
<time>2025-10-17T16:36:54.546Z</time>
</trkpt>
<trkpt lat="31.7805370" lon="35.1151920">
<ele>699.000000</ele>
<time>2025-10-17T16:36:54.546Z</time>
</trkpt>
<trkpt lat="31.7805610" lon="35.1152090">
<ele>699.000000</ele>
<time>2025-10-17T16:36:54.546Z</time>
</trkpt>
<trkpt lat="31.7806030" lon="35.1152320">
<ele>699.199951</ele>
<time>2025-10-17T16:36:54.546Z</time>
</trkpt>
<trkpt lat="31.7808300" lon="35.1153160">
<ele>699.399963</ele>
<time>2025-10-17T16:36:54.547Z</time>
</trkpt>
<trkpt lat="31.7808880" lon="35.1153210">
<ele>699.600037</ele>
<time>2025-10-17T16:36:54.547Z</time>
</trkpt>
<trkpt lat="31.7810600" lon="35.1153160">
<ele>699.600037</ele>
<time>2025-10-17T16:36:54.547Z</time>
</trkpt>
<trkpt lat="31.7811620" lon="35.1153240">
<ele>699.799988</ele>
<time>2025-10-17T16:36:54.547Z</time>
</trkpt>
<trkpt lat="31.7811850" lon="35.1153220">
<ele>700.000000</ele>
<time>2025-10-17T16:36:54.547Z</time>
</trkpt>
<trkpt lat="31.7812090" lon="35.1153210">
<ele>700.000000</ele>
<time>2025-10-17T16:36:54.547Z</time>
</trkpt>
<trkpt lat="31.7812330" lon="35.1153210">
<ele>700.000000</ele>
<time>2025-10-17T16:36:54.547Z</time>
</trkpt>
<trkpt lat="31.7812570" lon="35.1153190">
<ele>700.000000</ele>
<time>2025-10-17T16:36:54.547Z</time>
</trkpt>
<trkpt lat="31.7812800" lon="35.1153180">
<ele>700.399963</ele>
<time>2025-10-17T16:36:54.547Z</time>
</trkpt>
<trkpt lat="31.7813040" lon="35.1153160">
<ele>700.599976</ele>
<time>2025-10-17T16:36:54.547Z</time>
</trkpt>
<trkpt lat="31.7813280" lon="35.1153140">
<ele>700.599976</ele>
<time>2025-10-17T16:36:54.547Z</time>
</trkpt>
<trkpt lat="31.7814010" lon="35.1152990">
<ele>700.799988</ele>
<time>2025-10-17T16:36:54.547Z</time>
</trkpt>
<trkpt lat="31.7815170" lon="35.1152870">
<ele>701.799988</ele>
<time>2025-10-17T16:36:54.547Z</time>
</trkpt>
<trkpt lat="31.7815420" lon="35.1152840">
<ele>702.000000</ele>
<time>2025-10-17T16:36:54.547Z</time>
</trkpt>
<trkpt lat="31.7815880" lon="35.1152830">
<ele>702.199951</ele>
<time>2025-10-17T16:36:54.547Z</time>
</trkpt>
<trkpt lat="31.7816070" lon="35.1152810">
<ele>702.600037</ele>
<time>2025-10-17T16:36:54.547Z</time>
</trkpt>
<trkpt lat="31.7816270" lon="35.1152760">
<ele>702.600037</ele>
<time>2025-10-17T16:36:54.547Z</time>
</trkpt>
<trkpt lat="31.7816500" lon="35.1152720">
<ele>702.799988</ele>
<time>2025-10-17T16:36:54.547Z</time>
</trkpt>
<trkpt lat="31.7816720" lon="35.1152680">
<ele>702.799988</ele>
<time>2025-10-17T16:36:54.547Z</time>
</trkpt>
<trkpt lat="31.7816930" lon="35.1152620">
<ele>703.200012</ele>
<time>2025-10-17T16:36:54.547Z</time>
</trkpt>
<trkpt lat="31.7817150" lon="35.1152560">
<ele>703.200012</ele>
<time>2025-10-17T16:36:54.547Z</time>
</trkpt>
<trkpt lat="31.7817370" lon="35.1152550">
<ele>703.599976</ele>
<time>2025-10-17T16:36:54.547Z</time>
</trkpt>
<trkpt lat="31.7817580" lon="35.1152550">
<ele>703.799988</ele>
<time>2025-10-17T16:36:54.547Z</time>
</trkpt>
<trkpt lat="31.7817770" lon="35.1152510">
<ele>703.999939</ele>
<time>2025-10-17T16:36:54.547Z</time>
</trkpt>
<trkpt lat="31.7817970" lon="35.1152460">
<ele>704.200012</ele>
<time>2025-10-17T16:36:54.547Z</time>
</trkpt>
<trkpt lat="31.7818180" lon="35.1152390">
<ele>704.200012</ele>
<time>2025-10-17T16:36:54.547Z</time>
</trkpt>
<trkpt lat="31.7818390" lon="35.1152330">
<ele>704.400024</ele>
<time>2025-10-17T16:36:54.547Z</time>
</trkpt>
<trkpt lat="31.7818600" lon="35.1152300">
<ele>704.400024</ele>
<time>2025-10-17T16:36:54.547Z</time>
</trkpt>
<trkpt lat="31.7818830" lon="35.1152270">
<ele>704.400024</ele>
<time>2025-10-17T16:36:54.548Z</time>
</trkpt>
<trkpt lat="31.7819070" lon="35.1152230">
<ele>704.599976</ele>
<time>2025-10-17T16:36:54.548Z</time>
</trkpt>
<trkpt lat="31.7819280" lon="35.1152200">
<ele>704.799988</ele>
<time>2025-10-17T16:36:54.548Z</time>
</trkpt>
<trkpt lat="31.7819490" lon="35.1152190">
<ele>705.199951</ele>
<time>2025-10-17T16:36:54.548Z</time>
</trkpt>
<trkpt lat="31.7819730" lon="35.1152190">
<ele>705.400024</ele>
<time>2025-10-17T16:36:54.548Z</time>
</trkpt>
<trkpt lat="31.7819970" lon="35.1152200">
<ele>705.600037</ele>
<time>2025-10-17T16:36:54.548Z</time>
</trkpt>
<trkpt lat="31.7820230" lon="35.1152160">
<ele>705.799988</ele>
<time>2025-10-17T16:36:54.548Z</time>
</trkpt>
<trkpt lat="31.7820480" lon="35.1152140">
<ele>705.799988</ele>
<time>2025-10-17T16:36:54.548Z</time>
</trkpt>
<trkpt lat="31.7820730" lon="35.1152130">
<ele>706.000000</ele>
<time>2025-10-17T16:36:54.548Z</time>
</trkpt>
<trkpt lat="31.7820950" lon="35.1152120">
<ele>706.200012</ele>
<time>2025-10-17T16:36:54.548Z</time>
</trkpt>
<trkpt lat="31.7821100" lon="35.1152110">
<ele>706.200012</ele>
<time>2025-10-17T16:36:54.548Z</time>
</trkpt>
<trkpt lat="31.7821270" lon="35.1152080">
<ele>706.200012</ele>
<time>2025-10-17T16:36:54.548Z</time>
</trkpt>
<trkpt lat="31.7821460" lon="35.1152070">
<ele>706.399963</ele>
<time>2025-10-17T16:36:54.548Z</time>
</trkpt>
<trkpt lat="31.7821660" lon="35.1152050">
<ele>706.399963</ele>
<time>2025-10-17T16:36:54.548Z</time>
</trkpt>
<trkpt lat="31.7821850" lon="35.1152050">
<ele>706.399963</ele>
<time>2025-10-17T16:36:54.548Z</time>
</trkpt>
<trkpt lat="31.7822030" lon="35.1152020">
<ele>706.599976</ele>
<time>2025-10-17T16:36:54.548Z</time>
</trkpt>
<trkpt lat="31.7822230" lon="35.1151940">
<ele>706.599976</ele>
<time>2025-10-17T16:36:54.548Z</time>
</trkpt>
<trkpt lat="31.7822430" lon="35.1151850">
<ele>706.800049</ele>
<time>2025-10-17T16:36:54.548Z</time>
</trkpt>
<trkpt lat="31.7822610" lon="35.1151770">
<ele>707.000000</ele>
<time>2025-10-17T16:36:54.548Z</time>
</trkpt>
<trkpt lat="31.7822790" lon="35.1151680">
<ele>707.200012</ele>
<time>2025-10-17T16:36:54.548Z</time>
</trkpt>
<trkpt lat="31.7822980" lon="35.1151630">
<ele>707.599976</ele>
<time>2025-10-17T16:36:54.548Z</time>
</trkpt>
<trkpt lat="31.7823170" lon="35.1151580">
<ele>707.599976</ele>
<time>2025-10-17T16:36:54.548Z</time>
</trkpt>
<trkpt lat="31.7823340" lon="35.1151550">
<ele>708.000000</ele>
<time>2025-10-17T16:36:54.548Z</time>
</trkpt>
<trkpt lat="31.7823510" lon="35.1151510">
<ele>708.199951</ele>
<time>2025-10-17T16:36:54.548Z</time>
</trkpt>
<trkpt lat="31.7823680" lon="35.1151450">
<ele>708.400024</ele>
<time>2025-10-17T16:36:54.548Z</time>
</trkpt>
<trkpt lat="31.7823860" lon="35.1151390">
<ele>708.600037</ele>
<time>2025-10-17T16:36:54.548Z</time>
</trkpt>
<trkpt lat="31.7824040" lon="35.1151300">
<ele>708.600037</ele>
<time>2025-10-17T16:36:54.548Z</time>
</trkpt>
<trkpt lat="31.7824200" lon="35.1151230">
<ele>708.799988</ele>
<time>2025-10-17T16:36:54.549Z</time>
</trkpt>
<trkpt lat="31.7824380" lon="35.1151170">
<ele>708.799988</ele>
<time>2025-10-17T16:36:54.549Z</time>
</trkpt>
<trkpt lat="31.7824550" lon="35.1151100">
<ele>709.000000</ele>
<time>2025-10-17T16:36:54.549Z</time>
</trkpt>
<trkpt lat="31.7824720" lon="35.1151000">
<ele>709.000000</ele>
<time>2025-10-17T16:36:54.549Z</time>
</trkpt>
<trkpt lat="31.7824880" lon="35.1150900">
<ele>709.399963</ele>
<time>2025-10-17T16:36:54.549Z</time>
</trkpt>
<trkpt lat="31.7825040" lon="35.1150800">
<ele>709.800049</ele>
<time>2025-10-17T16:36:54.549Z</time>
</trkpt>
<trkpt lat="31.7825210" lon="35.1150710">
<ele>709.800049</ele>
<time>2025-10-17T16:36:54.549Z</time>
</trkpt>
<trkpt lat="31.7825390" lon="35.1150640">
<ele>710.000000</ele>
<time>2025-10-17T16:36:54.549Z</time>
</trkpt>
<trkpt lat="31.7825570" lon="35.1150510">
<ele>710.200012</ele>
<time>2025-10-17T16:36:54.549Z</time>
</trkpt>
<trkpt lat="31.7825710" lon="35.1150410">
<ele>710.400024</ele>
<time>2025-10-17T16:36:54.549Z</time>
</trkpt>
<trkpt lat="31.7825870" lon="35.1150340">
<ele>710.400024</ele>
<time>2025-10-17T16:36:54.549Z</time>
</trkpt>
<trkpt lat="31.7826030" lon="35.1150270">
<ele>710.599976</ele>
<time>2025-10-17T16:36:54.549Z</time>
</trkpt>
<trkpt lat="31.7826200" lon="35.1150180">
<ele>710.599976</ele>
<time>2025-10-17T16:36:54.549Z</time>
</trkpt>
<trkpt lat="31.7826370" lon="35.1150080">
<ele>710.799988</ele>
<time>2025-10-17T16:36:54.549Z</time>
</trkpt>
<trkpt lat="31.7826490" lon="35.1149990">
<ele>710.799988</ele>
<time>2025-10-17T16:36:54.549Z</time>
</trkpt>
<trkpt lat="31.7826620" lon="35.1149880">
<ele>711.000000</ele>
<time>2025-10-17T16:36:54.549Z</time>
</trkpt>
<trkpt lat="31.7826740" lon="35.1149780">
<ele>711.000000</ele>
<time>2025-10-17T16:36:54.549Z</time>
</trkpt>
<trkpt lat="31.7826870" lon="35.1149670">
<ele>711.000000</ele>
<time>2025-10-17T16:36:54.549Z</time>
</trkpt>
<trkpt lat="31.7827000" lon="35.1149580">
<ele>711.199951</ele>
<time>2025-10-17T16:36:54.549Z</time>
</trkpt>
<trkpt lat="31.7827110" lon="35.1149470">
<ele>711.199951</ele>
<time>2025-10-17T16:36:54.549Z</time>
</trkpt>
<trkpt lat="31.7827200" lon="35.1149370">
<ele>711.400024</ele>
<time>2025-10-17T16:36:54.549Z</time>
</trkpt>
<trkpt lat="31.7827300" lon="35.1149270">
<ele>711.600037</ele>
<time>2025-10-17T16:36:54.549Z</time>
</trkpt>
<trkpt lat="31.7827410" lon="35.1149160">
<ele>711.799988</ele>
<time>2025-10-17T16:36:54.549Z</time>
</trkpt>
<trkpt lat="31.7827520" lon="35.1149050">
<ele>711.799988</ele>
<time>2025-10-17T16:36:54.549Z</time>
</trkpt>
<trkpt lat="31.7827620" lon="35.1148930">
<ele>712.000000</ele>
<time>2025-10-17T16:36:54.549Z</time>
</trkpt>
<trkpt lat="31.7827730" lon="35.1148820">
<ele>712.200012</ele>
<time>2025-10-17T16:36:54.549Z</time>
</trkpt>
<trkpt lat="31.7827850" lon="35.1148720">
<ele>712.399963</ele>
<time>2025-10-17T16:36:54.549Z</time>
</trkpt>
<trkpt lat="31.7827960" lon="35.1148600">
<ele>712.599976</ele>
<time>2025-10-17T16:36:54.549Z</time>
</trkpt>
<trkpt lat="31.7828070" lon="35.1148480">
<ele>712.599976</ele>
<time>2025-10-17T16:36:54.550Z</time>
</trkpt>
<trkpt lat="31.7828180" lon="35.1148370">
<ele>712.800049</ele>
<time>2025-10-17T16:36:54.550Z</time>
</trkpt>
<trkpt lat="31.7828280" lon="35.1148270">
<ele>713.000000</ele>
<time>2025-10-17T16:36:54.550Z</time>
</trkpt>
<trkpt lat="31.7828410" lon="35.1148160">
<ele>713.200012</ele>
<time>2025-10-17T16:36:54.550Z</time>
</trkpt>
<trkpt lat="31.7828520" lon="35.1148050">
<ele>713.400024</ele>
<time>2025-10-17T16:36:54.550Z</time>
</trkpt>
<trkpt lat="31.7828650" lon="35.1147930">
<ele>713.599976</ele>
<time>2025-10-17T16:36:54.550Z</time>
</trkpt>
<trkpt lat="31.7828770" lon="35.1147850">
<ele>713.599976</ele>
<time>2025-10-17T16:36:54.550Z</time>
</trkpt>
<trkpt lat="31.7828860" lon="35.1147720">
<ele>713.799988</ele>
<time>2025-10-17T16:36:54.550Z</time>
</trkpt>
<trkpt lat="31.7828950" lon="35.1147580">
<ele>714.000000</ele>
<time>2025-10-17T16:36:54.550Z</time>
</trkpt>
<trkpt lat="31.7829050" lon="35.1147440">
<ele>714.000000</ele>
<time>2025-10-17T16:36:54.550Z</time>
</trkpt>
<trkpt lat="31.7829160" lon="35.1147290">
<ele>714.400024</ele>
<time>2025-10-17T16:36:54.550Z</time>
</trkpt>
<trkpt lat="31.7829270" lon="35.1147130">
<ele>714.400024</ele>
<time>2025-10-17T16:36:54.550Z</time>
</trkpt>
<trkpt lat="31.7829360" lon="35.1146970">
<ele>714.600037</ele>
<time>2025-10-17T16:36:54.550Z</time>
</trkpt>
<trkpt lat="31.7829460" lon="35.1146810">
<ele>714.799988</ele>
<time>2025-10-17T16:36:54.550Z</time>
</trkpt>
<trkpt lat="31.7829570" lon="35.1146660">
<ele>714.799988</ele>
<time>2025-10-17T16:36:54.550Z</time>
</trkpt>
<trkpt lat="31.7829670" lon="35.1146500">
<ele>714.799988</ele>
<time>2025-10-17T16:36:54.550Z</time>
</trkpt>
<trkpt lat="31.7829760" lon="35.1146320">
<ele>715.000000</ele>
<time>2025-10-17T16:36:54.550Z</time>
</trkpt>
<trkpt lat="31.7829900" lon="35.1146130">
<ele>715.000000</ele>
<time>2025-10-17T16:36:54.550Z</time>
</trkpt>
<trkpt lat="31.7830040" lon="35.1145960">
<ele>715.000000</ele>
<time>2025-10-17T16:36:54.550Z</time>
</trkpt>
<trkpt lat="31.7830190" lon="35.1145790">
<ele>715.200012</ele>
<time>2025-10-17T16:36:54.550Z</time>
</trkpt>
<trkpt lat="31.7830320" lon="35.1145660">
<ele>715.399963</ele>
<time>2025-10-17T16:36:54.550Z</time>
</trkpt>
<trkpt lat="31.7830490" lon="35.1145560">
<ele>715.599976</ele>
<time>2025-10-17T16:36:54.550Z</time>
</trkpt>
<trkpt lat="31.7830660" lon="35.1145500">
<ele>715.599976</ele>
<time>2025-10-17T16:36:54.550Z</time>
</trkpt>
<trkpt lat="31.7830900" lon="35.1145460">
<ele>715.599976</ele>
<time>2025-10-17T16:36:54.550Z</time>
</trkpt>
<trkpt lat="31.7831200" lon="35.1145450">
<ele>715.599976</ele>
<time>2025-10-17T16:36:54.550Z</time>
</trkpt>
<trkpt lat="31.7831590" lon="35.1145510">
<ele>715.599976</ele>
<time>2025-10-17T16:36:54.550Z</time>
</trkpt>
<trkpt lat="31.7832080" lon="35.1145650">
<ele>715.599976</ele>
<time>2025-10-17T16:36:54.550Z</time>
</trkpt>
<trkpt lat="31.7832650" lon="35.1145820">
<ele>715.599976</ele>
<time>2025-10-17T16:36:54.550Z</time>
</trkpt>
<trkpt lat="31.7833300" lon="35.1146040">
<ele>715.200012</ele>
<time>2025-10-17T16:36:54.551Z</time>
</trkpt>
<trkpt lat="31.7833970" lon="35.1146330">
<ele>714.799988</ele>
<time>2025-10-17T16:36:54.551Z</time>
</trkpt>
<trkpt lat="31.7834590" lon="35.1146660">
<ele>714.199951</ele>
<time>2025-10-17T16:36:54.551Z</time>
</trkpt>
<trkpt lat="31.7835120" lon="35.1147050">
<ele>713.799988</ele>
<time>2025-10-17T16:36:54.551Z</time>
</trkpt>
<trkpt lat="31.7835520" lon="35.1147520">
<ele>713.400024</ele>
<time>2025-10-17T16:36:54.551Z</time>
</trkpt>
<trkpt lat="31.7835810" lon="35.1147950">
<ele>713.000000</ele>
<time>2025-10-17T16:36:54.551Z</time>
</trkpt>
<trkpt lat="31.7836070" lon="35.1148300">
<ele>711.799988</ele>
<time>2025-10-17T16:36:54.551Z</time>
</trkpt>
<trkpt lat="31.7836280" lon="35.1148480">
<ele>711.199951</ele>
<time>2025-10-17T16:36:54.551Z</time>
</trkpt>
<trkpt lat="31.7836570" lon="35.1148730">
<ele>710.400024</ele>
<time>2025-10-17T16:36:54.551Z</time>
</trkpt>
<trkpt lat="31.7836790" lon="35.1148860">
<ele>709.800049</ele>
<time>2025-10-17T16:36:54.551Z</time>
</trkpt>
<trkpt lat="31.7836970" lon="35.1148950">
<ele>709.599976</ele>
<time>2025-10-17T16:36:54.551Z</time>
</trkpt>
<trkpt lat="31.7837160" lon="35.1149050">
<ele>709.200012</ele>
<time>2025-10-17T16:36:54.551Z</time>
</trkpt>
<trkpt lat="31.7837340" lon="35.1149150">
<ele>709.200012</ele>
<time>2025-10-17T16:36:54.551Z</time>
</trkpt>
<trkpt lat="31.7837550" lon="35.1149190">
<ele>708.799988</ele>
<time>2025-10-17T16:36:54.551Z</time>
</trkpt>
<trkpt lat="31.7837710" lon="35.1149140">
<ele>708.799988</ele>
<time>2025-10-17T16:36:54.551Z</time>
</trkpt>
<trkpt lat="31.7837850" lon="35.1149080">
<ele>708.600037</ele>
<time>2025-10-17T16:36:54.551Z</time>
</trkpt>
<trkpt lat="31.7838020" lon="35.1148980">
<ele>708.600037</ele>
<time>2025-10-17T16:36:54.551Z</time>
</trkpt>
<trkpt lat="31.7838190" lon="35.1148840">
<ele>709.000000</ele>
<time>2025-10-17T16:36:54.551Z</time>
</trkpt>
<trkpt lat="31.7838360" lon="35.1148660">
<ele>709.000000</ele>
<time>2025-10-17T16:36:54.551Z</time>
</trkpt>
<trkpt lat="31.7838560" lon="35.1148330">
<ele>709.200012</ele>
<time>2025-10-17T16:36:54.551Z</time>
</trkpt>
<trkpt lat="31.7838640" lon="35.1148150">
<ele>709.200012</ele>
<time>2025-10-17T16:36:54.551Z</time>
</trkpt>
<trkpt lat="31.7838900" lon="35.1147770">
<ele>709.399963</ele>
<time>2025-10-17T16:36:54.551Z</time>
</trkpt>
<trkpt lat="31.7839410" lon="35.1147620">
<ele>709.599976</ele>
<time>2025-10-17T16:36:54.551Z</time>
</trkpt>
<trkpt lat="31.7839610" lon="35.1147540">
<ele>709.599976</ele>
<time>2025-10-17T16:36:54.551Z</time>
</trkpt>
<trkpt lat="31.7840820" lon="35.1146790">
<ele>710.200012</ele>
<time>2025-10-17T16:36:54.551Z</time>
</trkpt>
<trkpt lat="31.7841180" lon="35.1146610">
<ele>710.799988</ele>
<time>2025-10-17T16:36:54.551Z</time>
</trkpt>
<trkpt lat="31.7841380" lon="35.1146580">
<ele>710.799988</ele>
<time>2025-10-17T16:36:54.551Z</time>
</trkpt>
<trkpt lat="31.7841550" lon="35.1146600">
<ele>711.000000</ele>
<time>2025-10-17T16:36:54.552Z</time>
</trkpt>
<trkpt lat="31.7841720" lon="35.1146690">
<ele>711.199951</ele>
<time>2025-10-17T16:36:54.552Z</time>
</trkpt>
<trkpt lat="31.7841960" lon="35.1146930">
<ele>711.400024</ele>
<time>2025-10-17T16:36:54.552Z</time>
</trkpt>
<trkpt lat="31.7842050" lon="35.1147040">
<ele>711.400024</ele>
<time>2025-10-17T16:36:54.552Z</time>
</trkpt>
<trkpt lat="31.7842140" lon="35.1147180">
<ele>711.400024</ele>
<time>2025-10-17T16:36:54.552Z</time>
</trkpt>
<trkpt lat="31.7842220" lon="35.1147350">
<ele>711.600037</ele>
<time>2025-10-17T16:36:54.552Z</time>
</trkpt>
<trkpt lat="31.7842270" lon="35.1147580">
<ele>711.600037</ele>
<time>2025-10-17T16:36:54.552Z</time>
</trkpt>
<trkpt lat="31.7842240" lon="35.1147780">
<ele>711.799988</ele>
<time>2025-10-17T16:36:54.552Z</time>
</trkpt>
<trkpt lat="31.7842200" lon="35.1147930">
<ele>711.799988</ele>
<time>2025-10-17T16:36:54.552Z</time>
</trkpt>
<trkpt lat="31.7842190" lon="35.1148120">
<ele>712.000000</ele>
<time>2025-10-17T16:36:54.552Z</time>
</trkpt>
<trkpt lat="31.7842180" lon="35.1148300">
<ele>712.200012</ele>
<time>2025-10-17T16:36:54.552Z</time>
</trkpt>
<trkpt lat="31.7842090" lon="35.1148500">
<ele>712.399963</ele>
<time>2025-10-17T16:36:54.552Z</time>
</trkpt>
<trkpt lat="31.7841990" lon="35.1148620">
<ele>712.399963</ele>
<time>2025-10-17T16:36:54.552Z</time>
</trkpt>
<trkpt lat="31.7841910" lon="35.1148660">
<ele>712.399963</ele>
<time>2025-10-17T16:36:54.552Z</time>
</trkpt>
<trkpt lat="31.7841720" lon="35.1148710">
<ele>712.399963</ele>
<time>2025-10-17T16:36:54.552Z</time>
</trkpt>
<trkpt lat="31.7841470" lon="35.1148820">
<ele>712.399963</ele>
<time>2025-10-17T16:36:54.552Z</time>
</trkpt>
<trkpt lat="31.7841210" lon="35.1149120">
<ele>712.399963</ele>
<time>2025-10-17T16:36:54.552Z</time>
</trkpt>
<trkpt lat="31.7841010" lon="35.1149490">
<ele>712.399963</ele>
<time>2025-10-17T16:36:54.552Z</time>
</trkpt>
<trkpt lat="31.7840800" lon="35.1149870">
<ele>712.399963</ele>
<time>2025-10-17T16:36:54.552Z</time>
</trkpt>
<trkpt lat="31.7840600" lon="35.1150160">
<ele>712.000000</ele>
<time>2025-10-17T16:36:54.552Z</time>
</trkpt>
<trkpt lat="31.7839990" lon="35.1151030">
<ele>711.600037</ele>
<time>2025-10-17T16:36:54.552Z</time>
</trkpt>
<trkpt lat="31.7839760" lon="35.1151380">
<ele>711.400024</ele>
<time>2025-10-17T16:36:54.552Z</time>
</trkpt>
<trkpt lat="31.7839570" lon="35.1151640">
<ele>711.000000</ele>
<time>2025-10-17T16:36:54.552Z</time>
</trkpt>
<trkpt lat="31.7839450" lon="35.1151810">
<ele>710.799988</ele>
<time>2025-10-17T16:36:54.552Z</time>
</trkpt>
<trkpt lat="31.7839310" lon="35.1152040">
<ele>710.799988</ele>
<time>2025-10-17T16:36:54.552Z</time>
</trkpt>
<trkpt lat="31.7839310" lon="35.1152040">
<ele>710.599976</ele>
<time>2025-10-17T16:36:54.552Z</time>
</trkpt>
<trkpt lat="31.7838350" lon="35.1153370">
<ele>710.400024</ele>
<time>2025-10-17T16:36:54.552Z</time>
</trkpt>
<trkpt lat="31.7838160" lon="35.1153670">
<ele>710.400024</ele>
<time>2025-10-17T16:36:54.552Z</time>
</trkpt>
<trkpt lat="31.7837970" lon="35.1153980">
<ele>710.200012</ele>
<time>2025-10-17T16:36:54.553Z</time>
</trkpt>
<trkpt lat="31.7837820" lon="35.1154190">
<ele>710.000000</ele>
<time>2025-10-17T16:36:54.553Z</time>
</trkpt>
<trkpt lat="31.7837680" lon="35.1154330">
<ele>710.000000</ele>
<time>2025-10-17T16:36:54.553Z</time>
</trkpt>
<trkpt lat="31.7837530" lon="35.1154480">
<ele>710.000000</ele>
<time>2025-10-17T16:36:54.553Z</time>
</trkpt>
<trkpt lat="31.7837420" lon="35.1154580">
<ele>710.000000</ele>
<time>2025-10-17T16:36:54.553Z</time>
</trkpt>
<trkpt lat="31.7837300" lon="35.1154640">
<ele>709.800049</ele>
<time>2025-10-17T16:36:54.553Z</time>
</trkpt>
<trkpt lat="31.7837210" lon="35.1154660">
<ele>709.800049</ele>
<time>2025-10-17T16:36:54.553Z</time>
</trkpt>
<trkpt lat="31.7837160" lon="35.1154660">
<ele>709.599976</ele>
<time>2025-10-17T16:36:54.553Z</time>
</trkpt>
<trkpt lat="31.7837110" lon="35.1154710">
<ele>709.599976</ele>
<time>2025-10-17T16:36:54.553Z</time>
</trkpt>
<trkpt lat="31.7836940" lon="35.1154860">
<ele>709.399963</ele>
<time>2025-10-17T16:36:54.553Z</time>
</trkpt>
<trkpt lat="31.7836910" lon="35.1154900">
<ele>709.200012</ele>
<time>2025-10-17T16:36:54.553Z</time>
</trkpt>
<trkpt lat="31.7836900" lon="35.1154920">
<ele>709.200012</ele>
<time>2025-10-17T16:36:54.553Z</time>
</trkpt>
<trkpt lat="31.7836760" lon="35.1155670">
<ele>709.200012</ele>
<time>2025-10-17T16:36:54.553Z</time>
</trkpt>
<trkpt lat="31.7836630" lon="35.1155950">
<ele>709.200012</ele>
<time>2025-10-17T16:36:54.553Z</time>
</trkpt>
<trkpt lat="31.7835480" lon="35.1157920">
<ele>708.600037</ele>
<time>2025-10-17T16:36:54.553Z</time>
</trkpt>
<trkpt lat="31.7835150" lon="35.1158360">
<ele>708.600037</ele>
<time>2025-10-17T16:36:54.553Z</time>
</trkpt>
<trkpt lat="31.7834300" lon="35.1159150">
<ele>707.799988</ele>
<time>2025-10-17T16:36:54.553Z</time>
</trkpt>
<trkpt lat="31.7833740" lon="35.1159650">
<ele>707.200012</ele>
<time>2025-10-17T16:36:54.553Z</time>
</trkpt>
<trkpt lat="31.7833080" lon="35.1160360">
<ele>707.000000</ele>
<time>2025-10-17T16:36:54.553Z</time>
</trkpt>
<trkpt lat="31.7832210" lon="35.1161640">
<ele>706.399963</ele>
<time>2025-10-17T16:36:54.553Z</time>
</trkpt>
<trkpt lat="31.7831720" lon="35.1162380">
<ele>705.400024</ele>
<time>2025-10-17T16:36:54.553Z</time>
</trkpt>
<trkpt lat="31.7831160" lon="35.1163130">
<ele>705.000000</ele>
<time>2025-10-17T16:36:54.553Z</time>
</trkpt>
<trkpt lat="31.7830480" lon="35.1164040">
<ele>703.999939</ele>
<time>2025-10-17T16:36:54.553Z</time>
</trkpt>
<trkpt lat="31.7830000" lon="35.1164850">
<ele>703.599976</ele>
<time>2025-10-17T16:36:54.553Z</time>
</trkpt>
<trkpt lat="31.7829650" lon="35.1165510">
<ele>702.600037</ele>
<time>2025-10-17T16:36:54.553Z</time>
</trkpt>
<trkpt lat="31.7829230" lon="35.1166310">
<ele>702.000000</ele>
<time>2025-10-17T16:36:54.553Z</time>
</trkpt>
<trkpt lat="31.7828850" lon="35.1167100">
<ele>701.799988</ele>
<time>2025-10-17T16:36:54.553Z</time>
</trkpt>
<trkpt lat="31.7828490" lon="35.1168040">
<ele>701.400024</ele>
<time>2025-10-17T16:36:54.553Z</time>
</trkpt>
<trkpt lat="31.7828190" lon="35.1168800">
<ele>701.200012</ele>
<time>2025-10-17T16:36:54.554Z</time>
</trkpt>
<trkpt lat="31.7827920" lon="35.1169360">
<ele>700.999939</ele>
<time>2025-10-17T16:36:54.554Z</time>
</trkpt>
<trkpt lat="31.7827530" lon="35.1169980">
<ele>700.799988</ele>
<time>2025-10-17T16:36:54.554Z</time>
</trkpt>
<trkpt lat="31.7827040" lon="35.1170440">
<ele>700.599976</ele>
<time>2025-10-17T16:36:54.554Z</time>
</trkpt>
<trkpt lat="31.7826360" lon="35.1170830">
<ele>700.399963</ele>
<time>2025-10-17T16:36:54.554Z</time>
</trkpt>
<trkpt lat="31.7825730" lon="35.1171060">
<ele>700.399963</ele>
<time>2025-10-17T16:36:54.554Z</time>
</trkpt>
<trkpt lat="31.7824990" lon="35.1171220">
<ele>700.399963</ele>
<time>2025-10-17T16:36:54.554Z</time>
</trkpt>
<trkpt lat="31.7824370" lon="35.1171390">
<ele>700.200012</ele>
<time>2025-10-17T16:36:54.554Z</time>
</trkpt>
<trkpt lat="31.7823570" lon="35.1171690">
<ele>700.000000</ele>
<time>2025-10-17T16:36:54.554Z</time>
</trkpt>
<trkpt lat="31.7821810" lon="35.1172450">
<ele>700.000000</ele>
<time>2025-10-17T16:36:54.554Z</time>
</trkpt>
<trkpt lat="31.7820050" lon="35.1173210">
<ele>698.799988</ele>
<time>2025-10-17T16:36:54.554Z</time>
</trkpt>
<trkpt lat="31.7819390" lon="35.1173510">
<ele>698.400024</ele>
<time>2025-10-17T16:36:54.554Z</time>
</trkpt>
<trkpt lat="31.7818470" lon="35.1173890">
<ele>697.400024</ele>
<time>2025-10-17T16:36:54.554Z</time>
</trkpt>
<trkpt lat="31.7816480" lon="35.1174660">
<ele>695.600037</ele>
<time>2025-10-17T16:36:54.554Z</time>
</trkpt>
<trkpt lat="31.7814120" lon="35.1175700">
<ele>694.400024</ele>
<time>2025-10-17T16:36:54.554Z</time>
</trkpt>
<trkpt lat="31.7813300" lon="35.1176170">
<ele>694.200012</ele>
<time>2025-10-17T16:36:54.554Z</time>
</trkpt>
<trkpt lat="31.7812840" lon="35.1176580">
<ele>693.600037</ele>
<time>2025-10-17T16:36:54.554Z</time>
</trkpt>
<trkpt lat="31.7812590" lon="35.1176910">
<ele>693.200012</ele>
<time>2025-10-17T16:36:54.554Z</time>
</trkpt>
<trkpt lat="31.7812380" lon="35.1177260">
<ele>692.199951</ele>
<time>2025-10-17T16:36:54.554Z</time>
</trkpt>
<trkpt lat="31.7812210" lon="35.1177540">
<ele>691.799988</ele>
<time>2025-10-17T16:36:54.554Z</time>
</trkpt>
<trkpt lat="31.7812020" lon="35.1177890">
<ele>691.599976</ele>
<time>2025-10-17T16:36:54.554Z</time>
</trkpt>
<trkpt lat="31.7811860" lon="35.1178190">
<ele>691.400024</ele>
<time>2025-10-17T16:36:54.554Z</time>
</trkpt>
<trkpt lat="31.7811720" lon="35.1178400">
<ele>691.400024</ele>
<time>2025-10-17T16:36:54.554Z</time>
</trkpt>
<trkpt lat="31.7811390" lon="35.1178910">
<ele>691.599976</ele>
<time>2025-10-17T16:36:54.554Z</time>
</trkpt>
<trkpt lat="31.7811160" lon="35.1179220">
<ele>692.199951</ele>
<time>2025-10-17T16:36:54.554Z</time>
</trkpt>
<trkpt lat="31.7810940" lon="35.1179500">
<ele>692.400024</ele>
<time>2025-10-17T16:36:54.554Z</time>
</trkpt>
<trkpt lat="31.7810440" lon="35.1180030">
<ele>692.600037</ele>
<time>2025-10-17T16:36:54.554Z</time>
</trkpt>
<trkpt lat="31.7809680" lon="35.1180700">
<ele>692.600037</ele>
<time>2025-10-17T16:36:54.554Z</time>
</trkpt>
<trkpt lat="31.7809320" lon="35.1180930">
<ele>692.799988</ele>
<time>2025-10-17T16:36:54.555Z</time>
</trkpt>
<trkpt lat="31.7808590" lon="35.1181310">
<ele>693.000000</ele>
<time>2025-10-17T16:36:54.555Z</time>
</trkpt>
<trkpt lat="31.7808140" lon="35.1181470">
<ele>693.000000</ele>
<time>2025-10-17T16:36:54.555Z</time>
</trkpt>
<trkpt lat="31.7806340" lon="35.1181670">
<ele>693.200012</ele>
<time>2025-10-17T16:36:54.555Z</time>
</trkpt>
<trkpt lat="31.7805310" lon="35.1181690">
<ele>693.200012</ele>
<time>2025-10-17T16:36:54.555Z</time>
</trkpt>
<trkpt lat="31.7803290" lon="35.1181840">
<ele>692.799988</ele>
<time>2025-10-17T16:36:54.555Z</time>
</trkpt>
<trkpt lat="31.7801930" lon="35.1182010">
<ele>692.000061</ele>
<time>2025-10-17T16:36:54.555Z</time>
</trkpt>
<trkpt lat="31.7800860" lon="35.1182180">
<ele>692.000061</ele>
<time>2025-10-17T16:36:54.555Z</time>
</trkpt>
<trkpt lat="31.7800290" lon="35.1182240">
<ele>692.000061</ele>
<time>2025-10-17T16:36:54.555Z</time>
</trkpt>
<trkpt lat="31.7799750" lon="35.1182280">
<ele>691.799988</ele>
<time>2025-10-17T16:36:54.555Z</time>
</trkpt>
<trkpt lat="31.7799070" lon="35.1182310">
<ele>692.000061</ele>
<time>2025-10-17T16:36:54.555Z</time>
</trkpt>
<trkpt lat="31.7795550" lon="35.1182510">
<ele>691.400024</ele>
<time>2025-10-17T16:36:54.555Z</time>
</trkpt>
<trkpt lat="31.7793760" lon="35.1182870">
<ele>691.200012</ele>
<time>2025-10-17T16:36:54.555Z</time>
</trkpt>
<trkpt lat="31.7791660" lon="35.1183450">
<ele>691.000000</ele>
<time>2025-10-17T16:36:54.555Z</time>
</trkpt>
<trkpt lat="31.7791120" lon="35.1183670">
<ele>690.800049</ele>
<time>2025-10-17T16:36:54.555Z</time>
</trkpt>
<trkpt lat="31.7789450" lon="35.1185260">
<ele>689.400024</ele>
<time>2025-10-17T16:36:54.555Z</time>
</trkpt>
<trkpt lat="31.7789090" lon="35.1185940">
<ele>689.400024</ele>
<time>2025-10-17T16:36:54.555Z</time>
</trkpt>
<trkpt lat="31.7788860" lon="35.1186510">
<ele>689.000000</ele>
<time>2025-10-17T16:36:54.555Z</time>
</trkpt>
<trkpt lat="31.7788610" lon="35.1187260">
<ele>688.799988</ele>
<time>2025-10-17T16:36:54.555Z</time>
</trkpt>
<trkpt lat="31.7788430" lon="35.1188010">
<ele>688.599976</ele>
<time>2025-10-17T16:36:54.555Z</time>
</trkpt>
<trkpt lat="31.7788060" lon="35.1189650">
<ele>688.400024</ele>
<time>2025-10-17T16:36:54.555Z</time>
</trkpt>
<trkpt lat="31.7787630" lon="35.1193450">
<ele>687.200012</ele>
<time>2025-10-17T16:36:54.555Z</time>
</trkpt>
<trkpt lat="31.7787680" lon="35.1194790">
<ele>687.000000</ele>
<time>2025-10-17T16:36:54.555Z</time>
</trkpt>
<trkpt lat="31.7787790" lon="35.1195490">
<ele>686.799988</ele>
<time>2025-10-17T16:36:54.555Z</time>
</trkpt>
<trkpt lat="31.7787940" lon="35.1196300">
<ele>686.799988</ele>
<time>2025-10-17T16:36:54.555Z</time>
</trkpt>
<trkpt lat="31.7788050" lon="35.1197010">
<ele>686.799988</ele>
<time>2025-10-17T16:36:54.555Z</time>
</trkpt>
<trkpt lat="31.7788130" lon="35.1197580">
<ele>686.799988</ele>
<time>2025-10-17T16:36:54.555Z</time>
</trkpt>
<trkpt lat="31.7788280" lon="35.1198230">
<ele>686.600037</ele>
<time>2025-10-17T16:36:54.555Z</time>
</trkpt>
<trkpt lat="31.7788950" lon="35.1200600">
<ele>686.400024</ele>
<time>2025-10-17T16:36:54.556Z</time>
</trkpt>
<trkpt lat="31.7789110" lon="35.1201210">
<ele>686.000000</ele>
<time>2025-10-17T16:36:54.556Z</time>
</trkpt>
<trkpt lat="31.7789980" lon="35.1203480">
<ele>685.200012</ele>
<time>2025-10-17T16:36:54.556Z</time>
</trkpt>
<trkpt lat="31.7790320" lon="35.1204080">
<ele>684.599976</ele>
<time>2025-10-17T16:36:54.556Z</time>
</trkpt>
<trkpt lat="31.7792950" lon="35.1207390">
<ele>683.799988</ele>
<time>2025-10-17T16:36:54.556Z</time>
</trkpt>
<trkpt lat="31.7793330" lon="35.1207790">
<ele>683.799988</ele>
<time>2025-10-17T16:36:54.556Z</time>
</trkpt>
<trkpt lat="31.7793800" lon="35.1208290">
<ele>683.799988</ele>
<time>2025-10-17T16:36:54.556Z</time>
</trkpt>
<trkpt lat="31.7794270" lon="35.1208790">
<ele>683.799988</ele>
<time>2025-10-17T16:36:54.556Z</time>
</trkpt>
<trkpt lat="31.7794900" lon="35.1209420">
<ele>683.600037</ele>
<time>2025-10-17T16:36:54.556Z</time>
</trkpt>
<trkpt lat="31.7796570" lon="35.1210830">
<ele>682.799988</ele>
<time>2025-10-17T16:36:54.556Z</time>
</trkpt>
<trkpt lat="31.7797180" lon="35.1211310">
<ele>682.400024</ele>
<time>2025-10-17T16:36:54.556Z</time>
</trkpt>
<trkpt lat="31.7799040" lon="35.1212700">
<ele>681.200012</ele>
<time>2025-10-17T16:36:54.556Z</time>
</trkpt>
<trkpt lat="31.7799640" lon="35.1213280">
<ele>680.400024</ele>
<time>2025-10-17T16:36:54.556Z</time>
</trkpt>
<trkpt lat="31.7800170" lon="35.1213940">
<ele>680.199951</ele>
<time>2025-10-17T16:36:54.556Z</time>
</trkpt>
<trkpt lat="31.7800640" lon="35.1214770">
<ele>679.599976</ele>
<time>2025-10-17T16:36:54.556Z</time>
</trkpt>
<trkpt lat="31.7800780" lon="35.1215450">
<ele>679.400024</ele>
<time>2025-10-17T16:36:54.556Z</time>
</trkpt>
<trkpt lat="31.7800760" lon="35.1215990">
<ele>679.200012</ele>
<time>2025-10-17T16:36:54.556Z</time>
</trkpt>
<trkpt lat="31.7800680" lon="35.1216820">
<ele>678.799988</ele>
<time>2025-10-17T16:36:54.556Z</time>
</trkpt>
<trkpt lat="31.7800580" lon="35.1217510">
<ele>678.200012</ele>
<time>2025-10-17T16:36:54.556Z</time>
</trkpt>
<trkpt lat="31.7800460" lon="35.1218170">
<ele>677.600037</ele>
<time>2025-10-17T16:36:54.556Z</time>
</trkpt>
<trkpt lat="31.7800350" lon="35.1218800">
<ele>677.600037</ele>
<time>2025-10-17T16:36:54.556Z</time>
</trkpt>
<trkpt lat="31.7800290" lon="35.1219420">
<ele>677.399963</ele>
<time>2025-10-17T16:36:54.556Z</time>
</trkpt>
<trkpt lat="31.7800230" lon="35.1220010">
<ele>677.199951</ele>
<time>2025-10-17T16:36:54.556Z</time>
</trkpt>
<trkpt lat="31.7800140" lon="35.1220600">
<ele>677.000000</ele>
<time>2025-10-17T16:36:54.556Z</time>
</trkpt>
<trkpt lat="31.7800090" lon="35.1221210">
<ele>677.000000</ele>
<time>2025-10-17T16:36:54.556Z</time>
</trkpt>
<trkpt lat="31.7800040" lon="35.1222540">
<ele>676.799988</ele>
<time>2025-10-17T16:36:54.556Z</time>
</trkpt>
<trkpt lat="31.7800210" lon="35.1223780">
<ele>677.000000</ele>
<time>2025-10-17T16:36:54.556Z</time>
</trkpt>
<trkpt lat="31.7800410" lon="35.1224380">
<ele>677.000000</ele>
<time>2025-10-17T16:36:54.557Z</time>
</trkpt>
<trkpt lat="31.7801210" lon="35.1226180">
<ele>676.799988</ele>
<time>2025-10-17T16:36:54.557Z</time>
</trkpt>
<trkpt lat="31.7801650" lon="35.1226750">
<ele>676.599976</ele>
<time>2025-10-17T16:36:54.557Z</time>
</trkpt>
<trkpt lat="31.7803130" lon="35.1228170">
<ele>676.599976</ele>
<time>2025-10-17T16:36:54.557Z</time>
</trkpt>
<trkpt lat="31.7803520" lon="35.1228480">
<ele>676.799988</ele>
<time>2025-10-17T16:36:54.557Z</time>
</trkpt>
<trkpt lat="31.7803890" lon="35.1228780">
<ele>676.799988</ele>
<time>2025-10-17T16:36:54.557Z</time>
</trkpt>
<trkpt lat="31.7804240" lon="35.1229080">
<ele>676.799988</ele>
<time>2025-10-17T16:36:54.557Z</time>
</trkpt>
<trkpt lat="31.7804580" lon="35.1229370">
<ele>676.799988</ele>
<time>2025-10-17T16:36:54.557Z</time>
</trkpt>
<trkpt lat="31.7804910" lon="35.1229680">
<ele>676.799988</ele>
<time>2025-10-17T16:36:54.557Z</time>
</trkpt>
<trkpt lat="31.7805940" lon="35.1230760">
<ele>676.799988</ele>
<time>2025-10-17T16:36:54.557Z</time>
</trkpt>
<trkpt lat="31.7806280" lon="35.1231110">
<ele>677.000000</ele>
<time>2025-10-17T16:36:54.557Z</time>
</trkpt>
<trkpt lat="31.7807560" lon="35.1232060">
<ele>677.199951</ele>
<time>2025-10-17T16:36:54.557Z</time>
</trkpt>
<trkpt lat="31.7808880" lon="35.1232710">
<ele>676.799988</ele>
<time>2025-10-17T16:36:54.557Z</time>
</trkpt>
<trkpt lat="31.7809790" lon="35.1233060">
<ele>676.599976</ele>
<time>2025-10-17T16:36:54.557Z</time>
</trkpt>
<trkpt lat="31.7811520" lon="35.1233380">
<ele>676.200012</ele>
<time>2025-10-17T16:36:54.557Z</time>
</trkpt>
<trkpt lat="31.7813300" lon="35.1233570">
<ele>675.799988</ele>
<time>2025-10-17T16:36:54.557Z</time>
</trkpt>
<trkpt lat="31.7813860" lon="35.1233630">
<ele>675.799988</ele>
<time>2025-10-17T16:36:54.557Z</time>
</trkpt>
<trkpt lat="31.7814370" lon="35.1233710">
<ele>675.599976</ele>
<time>2025-10-17T16:36:54.557Z</time>
</trkpt>
<trkpt lat="31.7814840" lon="35.1233790">
<ele>675.599976</ele>
<time>2025-10-17T16:36:54.557Z</time>
</trkpt>
<trkpt lat="31.7815290" lon="35.1233870">
<ele>675.599976</ele>
<time>2025-10-17T16:36:54.557Z</time>
</trkpt>
<trkpt lat="31.7815710" lon="35.1233920">
<ele>675.599976</ele>
<time>2025-10-17T16:36:54.557Z</time>
</trkpt>
<trkpt lat="31.7816130" lon="35.1233960">
<ele>675.399963</ele>
<time>2025-10-17T16:36:54.557Z</time>
</trkpt>
<trkpt lat="31.7816530" lon="35.1234010">
<ele>675.399963</ele>
<time>2025-10-17T16:36:54.557Z</time>
</trkpt>
<trkpt lat="31.7816910" lon="35.1234060">
<ele>675.599976</ele>
<time>2025-10-17T16:36:54.557Z</time>
</trkpt>
<trkpt lat="31.7817270" lon="35.1234100">
<ele>675.599976</ele>
<time>2025-10-17T16:36:54.557Z</time>
</trkpt>
<trkpt lat="31.7817630" lon="35.1234140">
<ele>675.799988</ele>
<time>2025-10-17T16:36:54.557Z</time>
</trkpt>
<trkpt lat="31.7817960" lon="35.1234140">
<ele>675.799988</ele>
<time>2025-10-17T16:36:54.558Z</time>
</trkpt>
<trkpt lat="31.7818290" lon="35.1234150">
<ele>675.999939</ele>
<time>2025-10-17T16:36:54.558Z</time>
</trkpt>
<trkpt lat="31.7819340" lon="35.1234250">
<ele>676.400024</ele>
<time>2025-10-17T16:36:54.558Z</time>
</trkpt>
<trkpt lat="31.7819640" lon="35.1234280">
<ele>676.599976</ele>
<time>2025-10-17T16:36:54.558Z</time>
</trkpt>
<trkpt lat="31.7819900" lon="35.1234340">
<ele>677.000000</ele>
<time>2025-10-17T16:36:54.558Z</time>
</trkpt>
<trkpt lat="31.7820090" lon="35.1234490">
<ele>677.399963</ele>
<time>2025-10-17T16:36:54.558Z</time>
</trkpt>
<trkpt lat="31.7820250" lon="35.1234740">
<ele>677.799988</ele>
<time>2025-10-17T16:36:54.558Z</time>
</trkpt>
<trkpt lat="31.7820370" lon="35.1235440">
<ele>678.200012</ele>
<time>2025-10-17T16:36:54.558Z</time>
</trkpt>
<trkpt lat="31.7820400" lon="35.1235790">
<ele>678.200012</ele>
<time>2025-10-17T16:36:54.558Z</time>
</trkpt>
<trkpt lat="31.7820430" lon="35.1236140">
<ele>678.399963</ele>
<time>2025-10-17T16:36:54.558Z</time>
</trkpt>
<trkpt lat="31.7820450" lon="35.1236520">
<ele>678.399963</ele>
<time>2025-10-17T16:36:54.558Z</time>
</trkpt>
<trkpt lat="31.7820600" lon="35.1237900">
<ele>678.999939</ele>
<time>2025-10-17T16:36:54.558Z</time>
</trkpt>
<trkpt lat="31.7820560" lon="35.1238170">
<ele>679.200012</ele>
<time>2025-10-17T16:36:54.558Z</time>
</trkpt>
<trkpt lat="31.7820500" lon="35.1238440">
<ele>679.200012</ele>
<time>2025-10-17T16:36:54.558Z</time>
</trkpt>
<trkpt lat="31.7820410" lon="35.1238710">
<ele>679.400024</ele>
<time>2025-10-17T16:36:54.558Z</time>
</trkpt>
<trkpt lat="31.7820340" lon="35.1238970">
<ele>679.799988</ele>
<time>2025-10-17T16:36:54.558Z</time>
</trkpt>
<trkpt lat="31.7820260" lon="35.1239220">
<ele>680.199951</ele>
<time>2025-10-17T16:36:54.558Z</time>
</trkpt>
<trkpt lat="31.7820140" lon="35.1239460">
<ele>680.400024</ele>
<time>2025-10-17T16:36:54.558Z</time>
</trkpt>
<trkpt lat="31.7820030" lon="35.1239690">
<ele>680.799988</ele>
<time>2025-10-17T16:36:54.558Z</time>
</trkpt>
<trkpt lat="31.7819910" lon="35.1239910">
<ele>681.000000</ele>
<time>2025-10-17T16:36:54.558Z</time>
</trkpt>
<trkpt lat="31.7819790" lon="35.1240110">
<ele>681.200012</ele>
<time>2025-10-17T16:36:54.558Z</time>
</trkpt>
<trkpt lat="31.7819670" lon="35.1240300">
<ele>681.399963</ele>
<time>2025-10-17T16:36:54.559Z</time>
</trkpt>
<trkpt lat="31.7819570" lon="35.1240510">
<ele>681.599976</ele>
<time>2025-10-17T16:36:54.559Z</time>
</trkpt>
<trkpt lat="31.7819480" lon="35.1240710">
<ele>681.599976</ele>
<time>2025-10-17T16:36:54.559Z</time>
</trkpt>
<trkpt lat="31.7819380" lon="35.1240860">
<ele>681.800049</ele>
<time>2025-10-17T16:36:54.559Z</time>
</trkpt>
<trkpt lat="31.7819270" lon="35.1241020">
<ele>682.200012</ele>
<time>2025-10-17T16:36:54.559Z</time>
</trkpt>
<trkpt lat="31.7819160" lon="35.1241170">
<ele>682.400024</ele>
<time>2025-10-17T16:36:54.559Z</time>
</trkpt>
<trkpt lat="31.7819090" lon="35.1241350">
<ele>682.599976</ele>
<time>2025-10-17T16:36:54.559Z</time>
</trkpt>
<trkpt lat="31.7819040" lon="35.1241530">
<ele>682.599976</ele>
<time>2025-10-17T16:36:54.559Z</time>
</trkpt>
<trkpt lat="31.7819030" lon="35.1241690">
<ele>682.799988</ele>
<time>2025-10-17T16:36:54.559Z</time>
</trkpt>
<trkpt lat="31.7819030" lon="35.1241860">
<ele>683.000000</ele>
<time>2025-10-17T16:36:54.559Z</time>
</trkpt>
<trkpt lat="31.7819070" lon="35.1242030">
<ele>683.199951</ele>
<time>2025-10-17T16:36:54.559Z</time>
</trkpt>
<trkpt lat="31.7819180" lon="35.1242170">
<ele>683.600037</ele>
<time>2025-10-17T16:36:54.559Z</time>
</trkpt>
<trkpt lat="31.7819320" lon="35.1242250">
<ele>683.600037</ele>
<time>2025-10-17T16:36:54.559Z</time>
</trkpt>
<trkpt lat="31.7819470" lon="35.1242230">
<ele>684.200012</ele>
<time>2025-10-17T16:36:54.559Z</time>
</trkpt>
<trkpt lat="31.7819640" lon="35.1242110">
<ele>684.200012</ele>
<time>2025-10-17T16:36:54.559Z</time>
</trkpt>
<trkpt lat="31.7819810" lon="35.1242030">
<ele>684.599976</ele>
<time>2025-10-17T16:36:54.559Z</time>
</trkpt>
<trkpt lat="31.7819960" lon="35.1241910">
<ele>684.800049</ele>
<time>2025-10-17T16:36:54.559Z</time>
</trkpt>
<trkpt lat="31.7820130" lon="35.1241760">
<ele>685.400024</ele>
<time>2025-10-17T16:36:54.559Z</time>
</trkpt>
<trkpt lat="31.7820300" lon="35.1241580">
<ele>685.599976</ele>
<time>2025-10-17T16:36:54.559Z</time>
</trkpt>
<trkpt lat="31.7820470" lon="35.1241380">
<ele>686.000000</ele>
<time>2025-10-17T16:36:54.559Z</time>
</trkpt>
<trkpt lat="31.7820660" lon="35.1241160">
<ele>686.000000</ele>
<time>2025-10-17T16:36:54.559Z</time>
</trkpt>
<trkpt lat="31.7820890" lon="35.1240930">
<ele>686.199951</ele>
<time>2025-10-17T16:36:54.559Z</time>
</trkpt>
<trkpt lat="31.7821130" lon="35.1240680">
<ele>686.199951</ele>
<time>2025-10-17T16:36:54.559Z</time>
</trkpt>
<trkpt lat="31.7821350" lon="35.1240440">
<ele>686.199951</ele>
<time>2025-10-17T16:36:54.559Z</time>
</trkpt>
<trkpt lat="31.7821540" lon="35.1240220">
<ele>686.400024</ele>
<time>2025-10-17T16:36:54.559Z</time>
</trkpt>
<trkpt lat="31.7821730" lon="35.1240000">
<ele>686.400024</ele>
<time>2025-10-17T16:36:54.559Z</time>
</trkpt>
<trkpt lat="31.7821950" lon="35.1239770">
<ele>686.400024</ele>
<time>2025-10-17T16:36:54.559Z</time>
</trkpt>
<trkpt lat="31.7822180" lon="35.1239520">
<ele>686.400024</ele>
<time>2025-10-17T16:36:54.560Z</time>
</trkpt>
<trkpt lat="31.7822410" lon="35.1239250">
<ele>686.600037</ele>
<time>2025-10-17T16:36:54.560Z</time>
</trkpt>
<trkpt lat="31.7822640" lon="35.1238980">
<ele>686.600037</ele>
<time>2025-10-17T16:36:54.560Z</time>
</trkpt>
<trkpt lat="31.7822880" lon="35.1238720">
<ele>686.400024</ele>
<time>2025-10-17T16:36:54.560Z</time>
</trkpt>
<trkpt lat="31.7823100" lon="35.1238490">
<ele>686.600037</ele>
<time>2025-10-17T16:36:54.560Z</time>
</trkpt>
<trkpt lat="31.7823320" lon="35.1238260">
<ele>686.799988</ele>
<time>2025-10-17T16:36:54.560Z</time>
</trkpt>
<trkpt lat="31.7823510" lon="35.1238030">
<ele>686.799988</ele>
<time>2025-10-17T16:36:54.560Z</time>
</trkpt>
<trkpt lat="31.7823710" lon="35.1237790">
<ele>686.799988</ele>
<time>2025-10-17T16:36:54.560Z</time>
</trkpt>
<trkpt lat="31.7823890" lon="35.1237550">
<ele>686.799988</ele>
<time>2025-10-17T16:36:54.560Z</time>
</trkpt>
<trkpt lat="31.7824070" lon="35.1237300">
<ele>686.799988</ele>
<time>2025-10-17T16:36:54.560Z</time>
</trkpt>
<trkpt lat="31.7824230" lon="35.1237040">
<ele>687.000000</ele>
<time>2025-10-17T16:36:54.560Z</time>
</trkpt>
<trkpt lat="31.7824390" lon="35.1236790">
<ele>687.000000</ele>
<time>2025-10-17T16:36:54.560Z</time>
</trkpt>
<trkpt lat="31.7824560" lon="35.1236550">
<ele>687.000000</ele>
<time>2025-10-17T16:36:54.560Z</time>
</trkpt>
<trkpt lat="31.7824730" lon="35.1236320">
<ele>687.200012</ele>
<time>2025-10-17T16:36:54.560Z</time>
</trkpt>
<trkpt lat="31.7824900" lon="35.1236100">
<ele>687.200012</ele>
<time>2025-10-17T16:36:54.560Z</time>
</trkpt>
<trkpt lat="31.7825040" lon="35.1235850">
<ele>687.399963</ele>
<time>2025-10-17T16:36:54.560Z</time>
</trkpt>
<trkpt lat="31.7825170" lon="35.1235630">
<ele>687.399963</ele>
<time>2025-10-17T16:36:54.560Z</time>
</trkpt>
<trkpt lat="31.7825310" lon="35.1235430">
<ele>687.399963</ele>
<time>2025-10-17T16:36:54.560Z</time>
</trkpt>
<trkpt lat="31.7825440" lon="35.1235230">
<ele>687.399963</ele>
<time>2025-10-17T16:36:54.560Z</time>
</trkpt>
<trkpt lat="31.7825580" lon="35.1235010">
<ele>687.599976</ele>
<time>2025-10-17T16:36:54.560Z</time>
</trkpt>
<trkpt lat="31.7825730" lon="35.1234800">
<ele>687.599976</ele>
<time>2025-10-17T16:36:54.560Z</time>
</trkpt>
<trkpt lat="31.7825890" lon="35.1234600">
<ele>687.599976</ele>
<time>2025-10-17T16:36:54.560Z</time>
</trkpt>
<trkpt lat="31.7826030" lon="35.1234400">
<ele>687.800049</ele>
<time>2025-10-17T16:36:54.560Z</time>
</trkpt>
<trkpt lat="31.7826160" lon="35.1234210">
<ele>688.000000</ele>
<time>2025-10-17T16:36:54.560Z</time>
</trkpt>
<trkpt lat="31.7826280" lon="35.1234010">
<ele>688.200012</ele>
<time>2025-10-17T16:36:54.560Z</time>
</trkpt>
<trkpt lat="31.7826410" lon="35.1233800">
<ele>688.599976</ele>
<time>2025-10-17T16:36:54.560Z</time>
</trkpt>
<trkpt lat="31.7826550" lon="35.1233630">
<ele>688.799988</ele>
<time>2025-10-17T16:36:54.560Z</time>
</trkpt>
<trkpt lat="31.7826700" lon="35.1233470">
<ele>689.000000</ele>
<time>2025-10-17T16:36:54.561Z</time>
</trkpt>
<trkpt lat="31.7826840" lon="35.1233300">
<ele>689.199951</ele>
<time>2025-10-17T16:36:54.561Z</time>
</trkpt>
<trkpt lat="31.7826980" lon="35.1233150">
<ele>689.199951</ele>
<time>2025-10-17T16:36:54.561Z</time>
</trkpt>
<trkpt lat="31.7827120" lon="35.1232980">
<ele>689.400024</ele>
<time>2025-10-17T16:36:54.561Z</time>
</trkpt>
<trkpt lat="31.7827260" lon="35.1232850">
<ele>689.600037</ele>
<time>2025-10-17T16:36:54.561Z</time>
</trkpt>
<trkpt lat="31.7827420" lon="35.1232780">
<ele>689.600037</ele>
<time>2025-10-17T16:36:54.561Z</time>
</trkpt>
<trkpt lat="31.7827550" lon="35.1232670">
<ele>689.799988</ele>
<time>2025-10-17T16:36:54.561Z</time>
</trkpt>
<trkpt lat="31.7827680" lon="35.1232570">
<ele>690.200012</ele>
<time>2025-10-17T16:36:54.561Z</time>
</trkpt>
<trkpt lat="31.7827820" lon="35.1232480">
<ele>690.399963</ele>
<time>2025-10-17T16:36:54.561Z</time>
</trkpt>
<trkpt lat="31.7827970" lon="35.1232410">
<ele>690.599976</ele>
<time>2025-10-17T16:36:54.561Z</time>
</trkpt>
<trkpt lat="31.7828110" lon="35.1232330">
<ele>690.800049</ele>
<time>2025-10-17T16:36:54.561Z</time>
</trkpt>
<trkpt lat="31.7828250" lon="35.1232250">
<ele>690.800049</ele>
<time>2025-10-17T16:36:54.561Z</time>
</trkpt>
<trkpt lat="31.7828370" lon="35.1232160">
<ele>691.000000</ele>
<time>2025-10-17T16:36:54.561Z</time>
</trkpt>
<trkpt lat="31.7828480" lon="35.1232060">
<ele>691.000000</ele>
<time>2025-10-17T16:36:54.561Z</time>
</trkpt>
<trkpt lat="31.7828570" lon="35.1231930">
<ele>691.000000</ele>
<time>2025-10-17T16:36:54.561Z</time>
</trkpt>
<trkpt lat="31.7828690" lon="35.1231820">
<ele>691.400024</ele>
<time>2025-10-17T16:36:54.561Z</time>
</trkpt>
<trkpt lat="31.7828790" lon="35.1231740">
<ele>691.599976</ele>
<time>2025-10-17T16:36:54.561Z</time>
</trkpt>
<trkpt lat="31.7828890" lon="35.1231640">
<ele>691.599976</ele>
<time>2025-10-17T16:36:54.561Z</time>
</trkpt>
<trkpt lat="31.7829000" lon="35.1231570">
<ele>692.000061</ele>
<time>2025-10-17T16:36:54.561Z</time>
</trkpt>
<trkpt lat="31.7829090" lon="35.1231450">
<ele>692.199951</ele>
<time>2025-10-17T16:36:54.562Z</time>
</trkpt>
<trkpt lat="31.7829190" lon="35.1231340">
<ele>692.400024</ele>
<time>2025-10-17T16:36:54.562Z</time>
</trkpt>
<trkpt lat="31.7829290" lon="35.1231250">
<ele>692.600037</ele>
<time>2025-10-17T16:36:54.562Z</time>
</trkpt>
<trkpt lat="31.7829390" lon="35.1231150">
<ele>692.600037</ele>
<time>2025-10-17T16:36:54.562Z</time>
</trkpt>
<trkpt lat="31.7829490" lon="35.1231060">
<ele>692.799988</ele>
<time>2025-10-17T16:36:54.562Z</time>
</trkpt>
<trkpt lat="31.7829600" lon="35.1230950">
<ele>693.200012</ele>
<time>2025-10-17T16:36:54.562Z</time>
</trkpt>
<trkpt lat="31.7829680" lon="35.1230800">
<ele>693.600037</ele>
<time>2025-10-17T16:36:54.562Z</time>
</trkpt>
<trkpt lat="31.7829720" lon="35.1230620">
<ele>693.600037</ele>
<time>2025-10-17T16:36:54.562Z</time>
</trkpt>
<trkpt lat="31.7829760" lon="35.1230490">
<ele>693.800049</ele>
<time>2025-10-17T16:36:54.562Z</time>
</trkpt>
<trkpt lat="31.7829810" lon="35.1230330">
<ele>694.000000</ele>
<time>2025-10-17T16:36:54.562Z</time>
</trkpt>
<trkpt lat="31.7829880" lon="35.1230160">
<ele>694.200012</ele>
<time>2025-10-17T16:36:54.562Z</time>
</trkpt>
<trkpt lat="31.7829910" lon="35.1230000">
<ele>694.400024</ele>
<time>2025-10-17T16:36:54.562Z</time>
</trkpt>
<trkpt lat="31.7829920" lon="35.1229850">
<ele>694.599976</ele>
<time>2025-10-17T16:36:54.562Z</time>
</trkpt>
<trkpt lat="31.7829920" lon="35.1229670">
<ele>694.799988</ele>
<time>2025-10-17T16:36:54.562Z</time>
</trkpt>
<trkpt lat="31.7829900" lon="35.1229490">
<ele>694.799988</ele>
<time>2025-10-17T16:36:54.562Z</time>
</trkpt>
<trkpt lat="31.7829870" lon="35.1229330">
<ele>695.200012</ele>
<time>2025-10-17T16:36:54.562Z</time>
</trkpt>
<trkpt lat="31.7829830" lon="35.1229210">
<ele>695.400024</ele>
<time>2025-10-17T16:36:54.562Z</time>
</trkpt>
<trkpt lat="31.7829800" lon="35.1229090">
<ele>695.600037</ele>
<time>2025-10-17T16:36:54.562Z</time>
</trkpt>
<trkpt lat="31.7829770" lon="35.1228960">
<ele>695.600037</ele>
<time>2025-10-17T16:36:54.562Z</time>
</trkpt>
<trkpt lat="31.7829740" lon="35.1228830">
<ele>695.799988</ele>
<time>2025-10-17T16:36:54.562Z</time>
</trkpt>
<trkpt lat="31.7829700" lon="35.1228700">
<ele>695.799988</ele>
<time>2025-10-17T16:36:54.562Z</time>
</trkpt>
<trkpt lat="31.7829680" lon="35.1228550">
<ele>696.000000</ele>
<time>2025-10-17T16:36:54.562Z</time>
</trkpt>
<trkpt lat="31.7829680" lon="35.1228400">
<ele>696.000000</ele>
<time>2025-10-17T16:36:54.562Z</time>
</trkpt>
<trkpt lat="31.7829680" lon="35.1228240">
<ele>696.200012</ele>
<time>2025-10-17T16:36:54.562Z</time>
</trkpt>
<trkpt lat="31.7829690" lon="35.1228090">
<ele>696.399963</ele>
<time>2025-10-17T16:36:54.563Z</time>
</trkpt>
<trkpt lat="31.7829720" lon="35.1227940">
<ele>696.800049</ele>
<time>2025-10-17T16:36:54.563Z</time>
</trkpt>
<trkpt lat="31.7829790" lon="35.1227810">
<ele>697.000000</ele>
<time>2025-10-17T16:36:54.563Z</time>
</trkpt>
<trkpt lat="31.7829890" lon="35.1227700">
<ele>697.200012</ele>
<time>2025-10-17T16:36:54.563Z</time>
</trkpt>
<trkpt lat="31.7830000" lon="35.1227600">
<ele>697.200012</ele>
<time>2025-10-17T16:36:54.563Z</time>
</trkpt>
<trkpt lat="31.7830100" lon="35.1227510">
<ele>697.400024</ele>
<time>2025-10-17T16:36:54.563Z</time>
</trkpt>
<trkpt lat="31.7830220" lon="35.1227430">
<ele>697.799988</ele>
<time>2025-10-17T16:36:54.563Z</time>
</trkpt>
<trkpt lat="31.7830300" lon="35.1227370">
<ele>698.200012</ele>
<time>2025-10-17T16:36:54.563Z</time>
</trkpt>
<trkpt lat="31.7830410" lon="35.1227290">
<ele>698.400024</ele>
<time>2025-10-17T16:36:54.563Z</time>
</trkpt>
<trkpt lat="31.7830520" lon="35.1227270">
<ele>698.599976</ele>
<time>2025-10-17T16:36:54.563Z</time>
</trkpt>
<trkpt lat="31.7830640" lon="35.1227280">
<ele>698.799988</ele>
<time>2025-10-17T16:36:54.563Z</time>
</trkpt>
<trkpt lat="31.7830750" lon="35.1227310">
<ele>699.000000</ele>
<time>2025-10-17T16:36:54.563Z</time>
</trkpt>
<trkpt lat="31.7830850" lon="35.1227360">
<ele>699.199951</ele>
<time>2025-10-17T16:36:54.563Z</time>
</trkpt>
<trkpt lat="31.7830970" lon="35.1227420">
<ele>699.399963</ele>
<time>2025-10-17T16:36:54.563Z</time>
</trkpt>
<trkpt lat="31.7831090" lon="35.1227460">
<ele>699.600037</ele>
<time>2025-10-17T16:36:54.563Z</time>
</trkpt>
<trkpt lat="31.7831210" lon="35.1227490">
<ele>699.600037</ele>
<time>2025-10-17T16:36:54.563Z</time>
</trkpt>
<trkpt lat="31.7831310" lon="35.1227560">
<ele>699.799988</ele>
<time>2025-10-17T16:36:54.563Z</time>
</trkpt>
<trkpt lat="31.7831370" lon="35.1227660">
<ele>700.200012</ele>
<time>2025-10-17T16:36:54.563Z</time>
</trkpt>
<trkpt lat="31.7831460" lon="35.1227730">
<ele>700.399963</ele>
<time>2025-10-17T16:36:54.563Z</time>
</trkpt>
<trkpt lat="31.7831570" lon="35.1227760">
<ele>700.599976</ele>
<time>2025-10-17T16:36:54.563Z</time>
</trkpt>
<trkpt lat="31.7831670" lon="35.1227780">
<ele>700.799988</ele>
<time>2025-10-17T16:36:54.563Z</time>
</trkpt>
<trkpt lat="31.7831760" lon="35.1227860">
<ele>700.999939</ele>
<time>2025-10-17T16:36:54.563Z</time>
</trkpt>
<trkpt lat="31.7831860" lon="35.1227930">
<ele>701.200012</ele>
<time>2025-10-17T16:36:54.563Z</time>
</trkpt>
<trkpt lat="31.7831950" lon="35.1227990">
<ele>701.400024</ele>
<time>2025-10-17T16:36:54.563Z</time>
</trkpt>
<trkpt lat="31.7832070" lon="35.1228060">
<ele>701.799988</ele>
<time>2025-10-17T16:36:54.563Z</time>
</trkpt>
<trkpt lat="31.7832190" lon="35.1228110">
<ele>702.000000</ele>
<time>2025-10-17T16:36:54.564Z</time>
</trkpt>
<trkpt lat="31.7832280" lon="35.1228200">
<ele>702.399963</ele>
<time>2025-10-17T16:36:54.564Z</time>
</trkpt>
<trkpt lat="31.7832390" lon="35.1228290">
<ele>702.600037</ele>
<time>2025-10-17T16:36:54.564Z</time>
</trkpt>
<trkpt lat="31.7832490" lon="35.1228390">
<ele>702.799988</ele>
<time>2025-10-17T16:36:54.564Z</time>
</trkpt>
<trkpt lat="31.7832570" lon="35.1228490">
<ele>703.200012</ele>
<time>2025-10-17T16:36:54.564Z</time>
</trkpt>
<trkpt lat="31.7832650" lon="35.1228540">
<ele>703.200012</ele>
<time>2025-10-17T16:36:54.564Z</time>
</trkpt>
<trkpt lat="31.7832740" lon="35.1228550">
<ele>703.599976</ele>
<time>2025-10-17T16:36:54.564Z</time>
</trkpt>
<trkpt lat="31.7832880" lon="35.1228590">
<ele>703.799988</ele>
<time>2025-10-17T16:36:54.564Z</time>
</trkpt>
<trkpt lat="31.7833010" lon="35.1228640">
<ele>704.200012</ele>
<time>2025-10-17T16:36:54.564Z</time>
</trkpt>
<trkpt lat="31.7833120" lon="35.1228690">
<ele>704.400024</ele>
<time>2025-10-17T16:36:54.564Z</time>
</trkpt>
<trkpt lat="31.7833200" lon="35.1228800">
<ele>704.599976</ele>
<time>2025-10-17T16:36:54.564Z</time>
</trkpt>
<trkpt lat="31.7833230" lon="35.1228950">
<ele>704.799988</ele>
<time>2025-10-17T16:36:54.564Z</time>
</trkpt>
<trkpt lat="31.7833180" lon="35.1229120">
<ele>704.799988</ele>
<time>2025-10-17T16:36:54.564Z</time>
</trkpt>
<trkpt lat="31.7833100" lon="35.1229300">
<ele>704.799988</ele>
<time>2025-10-17T16:36:54.564Z</time>
</trkpt>
<trkpt lat="31.7833020" lon="35.1229510">
<ele>705.000000</ele>
<time>2025-10-17T16:36:54.564Z</time>
</trkpt>
<trkpt lat="31.7832970" lon="35.1229740">
<ele>705.000000</ele>
<time>2025-10-17T16:36:54.564Z</time>
</trkpt>
<trkpt lat="31.7832900" lon="35.1229960">
<ele>705.000000</ele>
<time>2025-10-17T16:36:54.564Z</time>
</trkpt>
<trkpt lat="31.7832810" lon="35.1230160">
<ele>705.199951</ele>
<time>2025-10-17T16:36:54.564Z</time>
</trkpt>
<trkpt lat="31.7832690" lon="35.1230370">
<ele>705.199951</ele>
<time>2025-10-17T16:36:54.564Z</time>
</trkpt>
<trkpt lat="31.7832580" lon="35.1230580">
<ele>705.199951</ele>
<time>2025-10-17T16:36:54.564Z</time>
</trkpt>
<trkpt lat="31.7832470" lon="35.1230780">
<ele>705.199951</ele>
<time>2025-10-17T16:36:54.564Z</time>
</trkpt>
<trkpt lat="31.7832350" lon="35.1230980">
<ele>705.199951</ele>
<time>2025-10-17T16:36:54.564Z</time>
</trkpt>
<trkpt lat="31.7832200" lon="35.1231200">
<ele>705.199951</ele>
<time>2025-10-17T16:36:54.564Z</time>
</trkpt>
<trkpt lat="31.7832050" lon="35.1231420">
<ele>705.199951</ele>
<time>2025-10-17T16:36:54.564Z</time>
</trkpt>
<trkpt lat="31.7831870" lon="35.1231710">
<ele>705.199951</ele>
<time>2025-10-17T16:36:54.564Z</time>
</trkpt>
<trkpt lat="31.7831690" lon="35.1232000">
<ele>705.199951</ele>
<time>2025-10-17T16:36:54.564Z</time>
</trkpt>
<trkpt lat="31.7831520" lon="35.1232300">
<ele>705.199951</ele>
<time>2025-10-17T16:36:54.564Z</time>
</trkpt>
<trkpt lat="31.7831330" lon="35.1232640">
<ele>705.199951</ele>
<time>2025-10-17T16:36:54.565Z</time>
</trkpt>
<trkpt lat="31.7831120" lon="35.1232980">
<ele>705.000000</ele>
<time>2025-10-17T16:36:54.565Z</time>
</trkpt>
<trkpt lat="31.7830930" lon="35.1233340">
<ele>705.000000</ele>
<time>2025-10-17T16:36:54.565Z</time>
</trkpt>
<trkpt lat="31.7830720" lon="35.1233740">
<ele>705.000000</ele>
<time>2025-10-17T16:36:54.565Z</time>
</trkpt>
<trkpt lat="31.7830490" lon="35.1234150">
<ele>705.000000</ele>
<time>2025-10-17T16:36:54.565Z</time>
</trkpt>
<trkpt lat="31.7829800" lon="35.1235620">
<ele>704.599976</ele>
<time>2025-10-17T16:36:54.565Z</time>
</trkpt>
<trkpt lat="31.7829040" lon="35.1237120">
<ele>703.999939</ele>
<time>2025-10-17T16:36:54.565Z</time>
</trkpt>
<trkpt lat="31.7828810" lon="35.1237530">
<ele>703.999939</ele>
<time>2025-10-17T16:36:54.565Z</time>
</trkpt>
<trkpt lat="31.7828570" lon="35.1237900">
<ele>703.999939</ele>
<time>2025-10-17T16:36:54.565Z</time>
</trkpt>
<trkpt lat="31.7828290" lon="35.1238250">
<ele>703.999939</ele>
<time>2025-10-17T16:36:54.565Z</time>
</trkpt>
<trkpt lat="31.7828030" lon="35.1238570">
<ele>703.799988</ele>
<time>2025-10-17T16:36:54.565Z</time>
</trkpt>
<trkpt lat="31.7827760" lon="35.1238930">
<ele>703.799988</ele>
<time>2025-10-17T16:36:54.565Z</time>
</trkpt>
<trkpt lat="31.7825670" lon="35.1241370">
<ele>703.399963</ele>
<time>2025-10-17T16:36:54.565Z</time>
</trkpt>
<trkpt lat="31.7824310" lon="35.1242740">
<ele>703.399963</ele>
<time>2025-10-17T16:36:54.565Z</time>
</trkpt>
<trkpt lat="31.7822860" lon="35.1244040">
<ele>702.399963</ele>
<time>2025-10-17T16:36:54.565Z</time>
</trkpt>
<trkpt lat="31.7822380" lon="35.1244420">
<ele>702.199951</ele>
<time>2025-10-17T16:36:54.565Z</time>
</trkpt>
<trkpt lat="31.7821950" lon="35.1244770">
<ele>702.000000</ele>
<time>2025-10-17T16:36:54.565Z</time>
</trkpt>
<trkpt lat="31.7821590" lon="35.1245120">
<ele>702.000000</ele>
<time>2025-10-17T16:36:54.565Z</time>
</trkpt>
<trkpt lat="31.7821250" lon="35.1245440">
<ele>702.000000</ele>
<time>2025-10-17T16:36:54.565Z</time>
</trkpt>
<trkpt lat="31.7820900" lon="35.1245740">
<ele>702.000000</ele>
<time>2025-10-17T16:36:54.565Z</time>
</trkpt>
<trkpt lat="31.7820510" lon="35.1246040">
<ele>702.000000</ele>
<time>2025-10-17T16:36:54.565Z</time>
</trkpt>
<trkpt lat="31.7819010" lon="35.1247260">
<ele>701.799988</ele>
<time>2025-10-17T16:36:54.565Z</time>
</trkpt>
<trkpt lat="31.7818750" lon="35.1247500">
<ele>701.799988</ele>
<time>2025-10-17T16:36:54.565Z</time>
</trkpt>
<trkpt lat="31.7818420" lon="35.1247790">
<ele>702.000000</ele>
<time>2025-10-17T16:36:54.565Z</time>
</trkpt>
<trkpt lat="31.7816750" lon="35.1249660">
<ele>701.799988</ele>
<time>2025-10-17T16:36:54.565Z</time>
</trkpt>
<trkpt lat="31.7816200" lon="35.1250740">
<ele>701.799988</ele>
<time>2025-10-17T16:36:54.565Z</time>
</trkpt>
<trkpt lat="31.7816070" lon="35.1251320">
<ele>702.000000</ele>
<time>2025-10-17T16:36:54.565Z</time>
</trkpt>
<trkpt lat="31.7816010" lon="35.1251780">
<ele>702.000000</ele>
<time>2025-10-17T16:36:54.565Z</time>
</trkpt>
<trkpt lat="31.7815960" lon="35.1252380">
<ele>702.000000</ele>
<time>2025-10-17T16:36:54.566Z</time>
</trkpt>
<trkpt lat="31.7815960" lon="35.1253700">
<ele>702.000000</ele>
<time>2025-10-17T16:36:54.566Z</time>
</trkpt>
<trkpt lat="31.7816010" lon="35.1256360">
<ele>701.799988</ele>
<time>2025-10-17T16:36:54.566Z</time>
</trkpt>
<trkpt lat="31.7815990" lon="35.1256840">
<ele>701.799988</ele>
<time>2025-10-17T16:36:54.566Z</time>
</trkpt>
<trkpt lat="31.7815960" lon="35.1257230">
<ele>701.799988</ele>
<time>2025-10-17T16:36:54.566Z</time>
</trkpt>
<trkpt lat="31.7815850" lon="35.1258170">
<ele>701.799988</ele>
<time>2025-10-17T16:36:54.566Z</time>
</trkpt>
<trkpt lat="31.7815790" lon="35.1258720">
<ele>701.799988</ele>
<time>2025-10-17T16:36:54.566Z</time>
</trkpt>
<trkpt lat="31.7815770" lon="35.1259120">
<ele>701.799988</ele>
<time>2025-10-17T16:36:54.566Z</time>
</trkpt>
<trkpt lat="31.7815760" lon="35.1259400">
<ele>702.000000</ele>
<time>2025-10-17T16:36:54.566Z</time>
</trkpt>
<trkpt lat="31.7815740" lon="35.1259700">
<ele>702.000000</ele>
<time>2025-10-17T16:36:54.566Z</time>
</trkpt>
<trkpt lat="31.7815730" lon="35.1259990">
<ele>702.199951</ele>
<time>2025-10-17T16:36:54.566Z</time>
</trkpt>
<trkpt lat="31.7815750" lon="35.1260380">
<ele>702.199951</ele>
<time>2025-10-17T16:36:54.566Z</time>
</trkpt>
<trkpt lat="31.7815770" lon="35.1261440">
<ele>702.000000</ele>
<time>2025-10-17T16:36:54.566Z</time>
</trkpt>
<trkpt lat="31.7815870" lon="35.1264040">
<ele>701.799988</ele>
<time>2025-10-17T16:36:54.566Z</time>
</trkpt>
<trkpt lat="31.7815940" lon="35.1265980">
<ele>701.599976</ele>
<time>2025-10-17T16:36:54.566Z</time>
</trkpt>
<trkpt lat="31.7816070" lon="35.1267240">
<ele>700.999939</ele>
<time>2025-10-17T16:36:54.566Z</time>
</trkpt>
<trkpt lat="31.7816210" lon="35.1268120">
<ele>700.799988</ele>
<time>2025-10-17T16:36:54.566Z</time>
</trkpt>
<trkpt lat="31.7816730" lon="35.1270340">
<ele>699.600037</ele>
<time>2025-10-17T16:36:54.566Z</time>
</trkpt>
<trkpt lat="31.7817320" lon="35.1271800">
<ele>699.199951</ele>
<time>2025-10-17T16:36:54.566Z</time>
</trkpt>
<trkpt lat="31.7817620" lon="35.1272540">
<ele>699.000000</ele>
<time>2025-10-17T16:36:54.566Z</time>
</trkpt>
<trkpt lat="31.7817990" lon="35.1274160">
<ele>698.599976</ele>
<time>2025-10-17T16:36:54.566Z</time>
</trkpt>
<trkpt lat="31.7818000" lon="35.1275040">
<ele>697.799988</ele>
<time>2025-10-17T16:36:54.566Z</time>
</trkpt>
<trkpt lat="31.7817960" lon="35.1275940">
<ele>697.000000</ele>
<time>2025-10-17T16:36:54.566Z</time>
</trkpt>
<trkpt lat="31.7817960" lon="35.1276870">
<ele>696.600037</ele>
<time>2025-10-17T16:36:54.566Z</time>
</trkpt>
<trkpt lat="31.7818080" lon="35.1277820">
<ele>695.600037</ele>
<time>2025-10-17T16:36:54.566Z</time>
</trkpt>
<trkpt lat="31.7818300" lon="35.1278760">
<ele>695.200012</ele>
<time>2025-10-17T16:36:54.566Z</time>
</trkpt>
<trkpt lat="31.7818630" lon="35.1279690">
<ele>694.599976</ele>
<time>2025-10-17T16:36:54.566Z</time>
</trkpt>
<trkpt lat="31.7819040" lon="35.1280580">
<ele>694.200012</ele>
<time>2025-10-17T16:36:54.566Z</time>
</trkpt>
<trkpt lat="31.7820080" lon="35.1282070">
<ele>693.800049</ele>
<time>2025-10-17T16:36:54.567Z</time>
</trkpt>
<trkpt lat="31.7820730" lon="35.1282630">
<ele>692.799988</ele>
<time>2025-10-17T16:36:54.567Z</time>
</trkpt>
<trkpt lat="31.7821450" lon="35.1283040">
<ele>692.199951</ele>
<time>2025-10-17T16:36:54.567Z</time>
</trkpt>
<trkpt lat="31.7822190" lon="35.1283330">
<ele>692.000061</ele>
<time>2025-10-17T16:36:54.567Z</time>
</trkpt>
<trkpt lat="31.7822800" lon="35.1283540">
<ele>691.599976</ele>
<time>2025-10-17T16:36:54.567Z</time>
</trkpt>
<trkpt lat="31.7823670" lon="35.1283860">
<ele>691.599976</ele>
<time>2025-10-17T16:36:54.567Z</time>
</trkpt>
<trkpt lat="31.7824310" lon="35.1284080">
<ele>691.799988</ele>
<time>2025-10-17T16:36:54.567Z</time>
</trkpt>
<trkpt lat="31.7824790" lon="35.1284250">
<ele>691.799988</ele>
<time>2025-10-17T16:36:54.567Z</time>
</trkpt>
<trkpt lat="31.7825350" lon="35.1284390">
<ele>691.799988</ele>
<time>2025-10-17T16:36:54.567Z</time>
</trkpt>
<trkpt lat="31.7826030" lon="35.1284520">
<ele>691.799988</ele>
<time>2025-10-17T16:36:54.567Z</time>
</trkpt>
<trkpt lat="31.7826600" lon="35.1284590">
<ele>691.599976</ele>
<time>2025-10-17T16:36:54.567Z</time>
</trkpt>
<trkpt lat="31.7827160" lon="35.1284670">
<ele>691.599976</ele>
<time>2025-10-17T16:36:54.567Z</time>
</trkpt>
<trkpt lat="31.7829290" lon="35.1285270">
<ele>691.000000</ele>
<time>2025-10-17T16:36:54.567Z</time>
</trkpt>
<trkpt lat="31.7829810" lon="35.1285420">
<ele>690.800049</ele>
<time>2025-10-17T16:36:54.567Z</time>
</trkpt>
<trkpt lat="31.7830360" lon="35.1285580">
<ele>691.000000</ele>
<time>2025-10-17T16:36:54.567Z</time>
</trkpt>
<trkpt lat="31.7831500" lon="35.1285760">
<ele>690.800049</ele>
<time>2025-10-17T16:36:54.567Z</time>
</trkpt>
<trkpt lat="31.7832620" lon="35.1285880">
<ele>690.800049</ele>
<time>2025-10-17T16:36:54.567Z</time>
</trkpt>
<trkpt lat="31.7833140" lon="35.1285960">
<ele>690.800049</ele>
<time>2025-10-17T16:36:54.567Z</time>
</trkpt>
<trkpt lat="31.7833580" lon="35.1286010">
<ele>691.000000</ele>
<time>2025-10-17T16:36:54.567Z</time>
</trkpt>
<trkpt lat="31.7833970" lon="35.1286050">
<ele>691.000000</ele>
<time>2025-10-17T16:36:54.567Z</time>
</trkpt>
<trkpt lat="31.7834300" lon="35.1286080">
<ele>691.000000</ele>
<time>2025-10-17T16:36:54.567Z</time>
</trkpt>
<trkpt lat="31.7834590" lon="35.1286110">
<ele>691.599976</ele>
<time>2025-10-17T16:36:54.567Z</time>
</trkpt>
<trkpt lat="31.7834870" lon="35.1286130">
<ele>691.799988</ele>
<time>2025-10-17T16:36:54.567Z</time>
</trkpt>
<trkpt lat="31.7835140" lon="35.1286150">
<ele>692.000061</ele>
<time>2025-10-17T16:36:54.567Z</time>
</trkpt>
<trkpt lat="31.7835410" lon="35.1286170">
<ele>692.000061</ele>
<time>2025-10-17T16:36:54.567Z</time>
</trkpt>
<trkpt lat="31.7837200" lon="35.1286490">
<ele>693.000000</ele>
<time>2025-10-17T16:36:54.567Z</time>
</trkpt>
<trkpt lat="31.7837470" lon="35.1286540">
<ele>693.000000</ele>
<time>2025-10-17T16:36:54.567Z</time>
</trkpt>
<trkpt lat="31.7837720" lon="35.1286640">
<ele>693.200012</ele>
<time>2025-10-17T16:36:54.567Z</time>
</trkpt>
<trkpt lat="31.7837970" lon="35.1286770">
<ele>693.399963</ele>
<time>2025-10-17T16:36:54.568Z</time>
</trkpt>
<trkpt lat="31.7838210" lon="35.1286930">
<ele>693.200012</ele>
<time>2025-10-17T16:36:54.568Z</time>
</trkpt>
<trkpt lat="31.7838420" lon="35.1287140">
<ele>693.399963</ele>
<time>2025-10-17T16:36:54.568Z</time>
</trkpt>
<trkpt lat="31.7838800" lon="35.1287680">
<ele>693.600037</ele>
<time>2025-10-17T16:36:54.568Z</time>
</trkpt>
<trkpt lat="31.7838920" lon="35.1288080">
<ele>693.800049</ele>
<time>2025-10-17T16:36:54.568Z</time>
</trkpt>
<trkpt lat="31.7838970" lon="35.1288550">
<ele>693.800049</ele>
<time>2025-10-17T16:36:54.568Z</time>
</trkpt>
<trkpt lat="31.7838940" lon="35.1289120">
<ele>693.800049</ele>
<time>2025-10-17T16:36:54.568Z</time>
</trkpt>
<trkpt lat="31.7838860" lon="35.1289760">
<ele>694.000000</ele>
<time>2025-10-17T16:36:54.568Z</time>
</trkpt>
<trkpt lat="31.7838730" lon="35.1290430">
<ele>694.000000</ele>
<time>2025-10-17T16:36:54.568Z</time>
</trkpt>
<trkpt lat="31.7838540" lon="35.1291120">
<ele>694.000000</ele>
<time>2025-10-17T16:36:54.568Z</time>
</trkpt>
<trkpt lat="31.7838280" lon="35.1291810">
<ele>693.800049</ele>
<time>2025-10-17T16:36:54.568Z</time>
</trkpt>
<trkpt lat="31.7837250" lon="35.1293800">
<ele>692.199951</ele>
<time>2025-10-17T16:36:54.568Z</time>
</trkpt>
<trkpt lat="31.7836220" lon="35.1294900">
<ele>691.400024</ele>
<time>2025-10-17T16:36:54.568Z</time>
</trkpt>
<trkpt lat="31.7835670" lon="35.1295370">
<ele>691.000000</ele>
<time>2025-10-17T16:36:54.568Z</time>
</trkpt>
<trkpt lat="31.7835160" lon="35.1295880">
<ele>690.800049</ele>
<time>2025-10-17T16:36:54.568Z</time>
</trkpt>
<trkpt lat="31.7834740" lon="35.1296410">
<ele>690.000000</ele>
<time>2025-10-17T16:36:54.568Z</time>
</trkpt>
<trkpt lat="31.7834460" lon="35.1296890">
<ele>689.600037</ele>
<time>2025-10-17T16:36:54.568Z</time>
</trkpt>
<trkpt lat="31.7834280" lon="35.1297370">
<ele>689.199951</ele>
<time>2025-10-17T16:36:54.568Z</time>
</trkpt>
<trkpt lat="31.7834160" lon="35.1297860">
<ele>689.000000</ele>
<time>2025-10-17T16:36:54.568Z</time>
</trkpt>
<trkpt lat="31.7834070" lon="35.1298290">
<ele>688.799988</ele>
<time>2025-10-17T16:36:54.568Z</time>
</trkpt>
<trkpt lat="31.7833990" lon="35.1298680">
<ele>688.799988</ele>
<time>2025-10-17T16:36:54.568Z</time>
</trkpt>
<trkpt lat="31.7833910" lon="35.1299010">
<ele>688.599976</ele>
<time>2025-10-17T16:36:54.568Z</time>
</trkpt>
<trkpt lat="31.7833830" lon="35.1299280">
<ele>688.400024</ele>
<time>2025-10-17T16:36:54.568Z</time>
</trkpt>
<trkpt lat="31.7833740" lon="35.1299500">
<ele>688.200012</ele>
<time>2025-10-17T16:36:54.568Z</time>
</trkpt>
<trkpt lat="31.7833660" lon="35.1299690">
<ele>688.200012</ele>
<time>2025-10-17T16:36:54.568Z</time>
</trkpt>
<trkpt lat="31.7833610" lon="35.1299860">
<ele>688.200012</ele>
<time>2025-10-17T16:36:54.568Z</time>
</trkpt>
<trkpt lat="31.7833620" lon="35.1300040">
<ele>688.200012</ele>
<time>2025-10-17T16:36:54.569Z</time>
</trkpt>
<trkpt lat="31.7833640" lon="35.1300200">
<ele>688.200012</ele>
<time>2025-10-17T16:36:54.569Z</time>
</trkpt>
<trkpt lat="31.7833630" lon="35.1300340">
<ele>688.200012</ele>
<time>2025-10-17T16:36:54.569Z</time>
</trkpt>
<trkpt lat="31.7833570" lon="35.1300670">
<ele>688.400024</ele>
<time>2025-10-17T16:36:54.569Z</time>
</trkpt>
<trkpt lat="31.7833500" lon="35.1300760">
<ele>688.599976</ele>
<time>2025-10-17T16:36:54.569Z</time>
</trkpt>
<trkpt lat="31.7833430" lon="35.1300730">
<ele>688.799988</ele>
<time>2025-10-17T16:36:54.569Z</time>
</trkpt>
<trkpt lat="31.7833360" lon="35.1300610">
<ele>688.799988</ele>
<time>2025-10-17T16:36:54.569Z</time>
</trkpt>
<trkpt lat="31.7833390" lon="35.1300470">
<ele>688.799988</ele>
<time>2025-10-17T16:36:54.569Z</time>
</trkpt>
<trkpt lat="31.7833450" lon="35.1300300">
<ele>689.000000</ele>
<time>2025-10-17T16:36:54.569Z</time>
</trkpt>
<trkpt lat="31.7833600" lon="35.1299850">
<ele>689.000000</ele>
<time>2025-10-17T16:36:54.569Z</time>
</trkpt>
<trkpt lat="31.7833710" lon="35.1299440">
<ele>689.000000</ele>
<time>2025-10-17T16:36:54.569Z</time>
</trkpt>
<trkpt lat="31.7833820" lon="35.1299040">
<ele>689.000000</ele>
<time>2025-10-17T16:36:54.569Z</time>
</trkpt>
<trkpt lat="31.7834410" lon="35.1297120">
<ele>688.799988</ele>
<time>2025-10-17T16:36:54.569Z</time>
</trkpt>
<trkpt lat="31.7834360" lon="35.1296920">
<ele>688.799988</ele>
<time>2025-10-17T16:36:54.569Z</time>
</trkpt>
<trkpt lat="31.7834240" lon="35.1296810">
<ele>688.599976</ele>
<time>2025-10-17T16:36:54.569Z</time>
</trkpt>
<trkpt lat="31.7834040" lon="35.1296700">
<ele>688.599976</ele>
<time>2025-10-17T16:36:54.569Z</time>
</trkpt>
<trkpt lat="31.7833850" lon="35.1296590">
<ele>688.400024</ele>
<time>2025-10-17T16:36:54.569Z</time>
</trkpt>
<trkpt lat="31.7833740" lon="35.1296430">
<ele>688.400024</ele>
<time>2025-10-17T16:36:54.569Z</time>
</trkpt>
<trkpt lat="31.7833680" lon="35.1296330">
<ele>688.000000</ele>
<time>2025-10-17T16:36:54.569Z</time>
</trkpt>
<trkpt lat="31.7833140" lon="35.1295880">
<ele>687.000000</ele>
<time>2025-10-17T16:36:54.569Z</time>
</trkpt>
<trkpt lat="31.7832350" lon="35.1295360">
<ele>686.799988</ele>
<time>2025-10-17T16:36:54.569Z</time>
</trkpt>
<trkpt lat="31.7831550" lon="35.1294790">
<ele>686.600037</ele>
<time>2025-10-17T16:36:54.569Z</time>
</trkpt>
<trkpt lat="31.7831240" lon="35.1294560">
<ele>685.400024</ele>
<time>2025-10-17T16:36:54.569Z</time>
</trkpt>
<trkpt lat="31.7830980" lon="35.1294460">
<ele>684.800049</ele>
<time>2025-10-17T16:36:54.569Z</time>
</trkpt>
<trkpt lat="31.7830740" lon="35.1294520">
<ele>684.000000</ele>
<time>2025-10-17T16:36:54.569Z</time>
</trkpt>
<trkpt lat="31.7830540" lon="35.1294650">
<ele>683.600037</ele>
<time>2025-10-17T16:36:54.569Z</time>
</trkpt>
<trkpt lat="31.7830340" lon="35.1294780">
<ele>683.000000</ele>
<time>2025-10-17T16:36:54.569Z</time>
</trkpt>
<trkpt lat="31.7830110" lon="35.1294880">
<ele>682.799988</ele>
<time>2025-10-17T16:36:54.569Z</time>
</trkpt>
<trkpt lat="31.7829910" lon="35.1294930">
<ele>682.599976</ele>
<time>2025-10-17T16:36:54.570Z</time>
</trkpt>
<trkpt lat="31.7829760" lon="35.1295030">
<ele>682.400024</ele>
<time>2025-10-17T16:36:54.570Z</time>
</trkpt>
<trkpt lat="31.7829680" lon="35.1295160">
<ele>682.200012</ele>
<time>2025-10-17T16:36:54.570Z</time>
</trkpt>
<trkpt lat="31.7829660" lon="35.1295220">
<ele>682.000000</ele>
<time>2025-10-17T16:36:54.570Z</time>
</trkpt>
<trkpt lat="31.7829660" lon="35.1295220">
<ele>681.800049</ele>
<time>2025-10-17T16:36:54.570Z</time>
</trkpt>
<trkpt lat="31.7829080" lon="35.1292760">
<ele>681.800049</ele>
<time>2025-10-17T16:36:54.570Z</time>
</trkpt>
<trkpt lat="31.7829260" lon="35.1292770">
<ele>681.599976</ele>
<time>2025-10-17T16:36:54.570Z</time>
</trkpt>
<trkpt lat="31.7829410" lon="35.1292720">
<ele>681.599976</ele>
<time>2025-10-17T16:36:54.570Z</time>
</trkpt>
<trkpt lat="31.7830390" lon="35.1292640">
<ele>682.200012</ele>
<time>2025-10-17T16:36:54.570Z</time>
</trkpt>
<trkpt lat="31.7830680" lon="35.1292760">
<ele>682.200012</ele>
<time>2025-10-17T16:36:54.570Z</time>
</trkpt>
<trkpt lat="31.7830840" lon="35.1292820">
<ele>682.400024</ele>
<time>2025-10-17T16:36:54.570Z</time>
</trkpt>
<trkpt lat="31.7831370" lon="35.1292830">
<ele>682.599976</ele>
<time>2025-10-17T16:36:54.570Z</time>
</trkpt>
<trkpt lat="31.7831590" lon="35.1292800">
<ele>682.799988</ele>
<time>2025-10-17T16:36:54.570Z</time>
</trkpt>
<trkpt lat="31.7831770" lon="35.1292790">
<ele>683.000000</ele>
<time>2025-10-17T16:36:54.570Z</time>
</trkpt>
<trkpt lat="31.7832800" lon="35.1292680">
<ele>683.600037</ele>
<time>2025-10-17T16:36:54.570Z</time>
</trkpt>
<trkpt lat="31.7833360" lon="35.1292770">
<ele>684.000000</ele>
<time>2025-10-17T16:36:54.570Z</time>
</trkpt>
<trkpt lat="31.7833520" lon="35.1292830">
<ele>684.599976</ele>
<time>2025-10-17T16:36:54.570Z</time>
</trkpt>
<trkpt lat="31.7833640" lon="35.1292870">
<ele>684.800049</ele>
<time>2025-10-17T16:36:54.570Z</time>
</trkpt>
<trkpt lat="31.7833820" lon="35.1292960">
<ele>685.200012</ele>
<time>2025-10-17T16:36:54.570Z</time>
</trkpt>
<trkpt lat="31.7833890" lon="35.1293040">
<ele>685.400024</ele>
<time>2025-10-17T16:36:54.570Z</time>
</trkpt>
<trkpt lat="31.7834020" lon="35.1293150">
<ele>685.599976</ele>
<time>2025-10-17T16:36:54.570Z</time>
</trkpt>
<trkpt lat="31.7834120" lon="35.1293230">
<ele>685.599976</ele>
<time>2025-10-17T16:36:54.570Z</time>
</trkpt>
<trkpt lat="31.7834170" lon="35.1293340">
<ele>685.799988</ele>
<time>2025-10-17T16:36:54.570Z</time>
</trkpt>
<trkpt lat="31.7834190" lon="35.1293490">
<ele>685.799988</ele>
<time>2025-10-17T16:36:54.570Z</time>
</trkpt>
<trkpt lat="31.7834200" lon="35.1293640">
<ele>685.799988</ele>
<time>2025-10-17T16:36:54.570Z</time>
</trkpt>
<trkpt lat="31.7834230" lon="35.1293810">
<ele>685.799988</ele>
<time>2025-10-17T16:36:54.570Z</time>
</trkpt>
<trkpt lat="31.7834300" lon="35.1293960">
<ele>686.000000</ele>
<time>2025-10-17T16:36:54.570Z</time>
</trkpt>
<trkpt lat="31.7834330" lon="35.1294080">
<ele>686.199951</ele>
<time>2025-10-17T16:36:54.570Z</time>
</trkpt>
<trkpt lat="31.7834290" lon="35.1294230">
<ele>686.199951</ele>
<time>2025-10-17T16:36:54.571Z</time>
</trkpt>
<trkpt lat="31.7834290" lon="35.1294430">
<ele>686.400024</ele>
<time>2025-10-17T16:36:54.571Z</time>
</trkpt>
<trkpt lat="31.7834330" lon="35.1294570">
<ele>686.600037</ele>
<time>2025-10-17T16:36:54.571Z</time>
</trkpt>
<trkpt lat="31.7834350" lon="35.1294720">
<ele>686.600037</ele>
<time>2025-10-17T16:36:54.571Z</time>
</trkpt>
<trkpt lat="31.7834360" lon="35.1294880">
<ele>686.799988</ele>
<time>2025-10-17T16:36:54.571Z</time>
</trkpt>
<trkpt lat="31.7834370" lon="35.1295000">
<ele>686.799988</ele>
<time>2025-10-17T16:36:54.571Z</time>
</trkpt>
<trkpt lat="31.7834370" lon="35.1295150">
<ele>686.799988</ele>
<time>2025-10-17T16:36:54.571Z</time>
</trkpt>
<trkpt lat="31.7834360" lon="35.1295220">
<ele>686.799988</ele>
<time>2025-10-17T16:36:54.571Z</time>
</trkpt>
<trkpt lat="31.7834360" lon="35.1295220">
<ele>687.000000</ele>
<time>2025-10-17T16:36:54.571Z</time>
</trkpt>
<trkpt lat="31.7834290" lon="35.1296280">
<ele>688.000000</ele>
<time>2025-10-17T16:36:54.571Z</time>
</trkpt>
<trkpt lat="31.7834200" lon="35.1296660">
<ele>688.000000</ele>
<time>2025-10-17T16:36:54.571Z</time>
</trkpt>
<trkpt lat="31.7834050" lon="35.1297480">
<ele>688.000000</ele>
<time>2025-10-17T16:36:54.571Z</time>
</trkpt>
<trkpt lat="31.7833780" lon="35.1298650">
<ele>688.200012</ele>
<time>2025-10-17T16:36:54.571Z</time>
</trkpt>
<trkpt lat="31.7833690" lon="35.1298980">
<ele>688.200012</ele>
<time>2025-10-17T16:36:54.571Z</time>
</trkpt>
<trkpt lat="31.7833610" lon="35.1299300">
<ele>688.400024</ele>
<time>2025-10-17T16:36:54.571Z</time>
</trkpt>
<trkpt lat="31.7833350" lon="35.1301170">
<ele>689.000000</ele>
<time>2025-10-17T16:36:54.571Z</time>
</trkpt>
<trkpt lat="31.7833300" lon="35.1301580">
<ele>689.199951</ele>
<time>2025-10-17T16:36:54.571Z</time>
</trkpt>
<trkpt lat="31.7832950" lon="35.1303330">
<ele>689.600037</ele>
<time>2025-10-17T16:36:54.571Z</time>
</trkpt>
<trkpt lat="31.7832870" lon="35.1303620">
<ele>689.400024</ele>
<time>2025-10-17T16:36:54.571Z</time>
</trkpt>
<trkpt lat="31.7832790" lon="35.1303840">
<ele>689.400024</ele>
<time>2025-10-17T16:36:54.571Z</time>
</trkpt>
<trkpt lat="31.7832700" lon="35.1304010">
<ele>689.400024</ele>
<time>2025-10-17T16:36:54.571Z</time>
</trkpt>
<trkpt lat="31.7832590" lon="35.1304160">
<ele>689.199951</ele>
<time>2025-10-17T16:36:54.571Z</time>
</trkpt>
<trkpt lat="31.7832470" lon="35.1304270">
<ele>689.199951</ele>
<time>2025-10-17T16:36:54.571Z</time>
</trkpt>
<trkpt lat="31.7832330" lon="35.1304330">
<ele>689.000000</ele>
<time>2025-10-17T16:36:54.571Z</time>
</trkpt>
<trkpt lat="31.7832150" lon="35.1304360">
<ele>688.799988</ele>
<time>2025-10-17T16:36:54.571Z</time>
</trkpt>
<trkpt lat="31.7831920" lon="35.1304410">
<ele>688.799988</ele>
<time>2025-10-17T16:36:54.571Z</time>
</trkpt>
<trkpt lat="31.7831640" lon="35.1304500">
<ele>688.599976</ele>
<time>2025-10-17T16:36:54.571Z</time>
</trkpt>
<trkpt lat="31.7831160" lon="35.1304890">
<ele>688.400024</ele>
<time>2025-10-17T16:36:54.571Z</time>
</trkpt>
<trkpt lat="31.7830990" lon="35.1305240">
<ele>688.000000</ele>
<time>2025-10-17T16:36:54.571Z</time>
</trkpt>
<trkpt lat="31.7830830" lon="35.1305570">
<ele>688.000000</ele>
<time>2025-10-17T16:36:54.571Z</time>
</trkpt>
<trkpt lat="31.7830690" lon="35.1305850">
<ele>687.200012</ele>
<time>2025-10-17T16:36:54.572Z</time>
</trkpt>
<trkpt lat="31.7830530" lon="35.1306060">
<ele>686.799988</ele>
<time>2025-10-17T16:36:54.572Z</time>
</trkpt>
<trkpt lat="31.7830310" lon="35.1306270">
<ele>686.000000</ele>
<time>2025-10-17T16:36:54.572Z</time>
</trkpt>
<trkpt lat="31.7829980" lon="35.1306490">
<ele>685.400024</ele>
<time>2025-10-17T16:36:54.572Z</time>
</trkpt>
<trkpt lat="31.7829610" lon="35.1306720">
<ele>684.800049</ele>
<time>2025-10-17T16:36:54.572Z</time>
</trkpt>
<trkpt lat="31.7829200" lon="35.1306980">
<ele>684.399963</ele>
<time>2025-10-17T16:36:54.572Z</time>
</trkpt>
<trkpt lat="31.7828050" lon="35.1307680">
<ele>683.400024</ele>
<time>2025-10-17T16:36:54.572Z</time>
</trkpt>
<trkpt lat="31.7827780" lon="35.1307910">
<ele>683.000000</ele>
<time>2025-10-17T16:36:54.572Z</time>
</trkpt>
<trkpt lat="31.7827560" lon="35.1308140">
<ele>682.599976</ele>
<time>2025-10-17T16:36:54.572Z</time>
</trkpt>
<trkpt lat="31.7827410" lon="35.1308300">
<ele>681.599976</ele>
<time>2025-10-17T16:36:54.572Z</time>
</trkpt>
<trkpt lat="31.7827210" lon="35.1308490">
<ele>681.000000</ele>
<time>2025-10-17T16:36:54.572Z</time>
</trkpt>
<trkpt lat="31.7826900" lon="35.1308760">
<ele>680.199951</ele>
<time>2025-10-17T16:36:54.572Z</time>
</trkpt>
<trkpt lat="31.7826550" lon="35.1309200">
<ele>680.000000</ele>
<time>2025-10-17T16:36:54.572Z</time>
</trkpt>
<trkpt lat="31.7826080" lon="35.1310360">
<ele>678.799988</ele>
<time>2025-10-17T16:36:54.572Z</time>
</trkpt>
<trkpt lat="31.7826020" lon="35.1311040">
<ele>678.599976</ele>
<time>2025-10-17T16:36:54.572Z</time>
</trkpt>
<trkpt lat="31.7826040" lon="35.1311770">
<ele>677.600037</ele>
<time>2025-10-17T16:36:54.572Z</time>
</trkpt>
<trkpt lat="31.7826060" lon="35.1312530">
<ele>677.000000</ele>
<time>2025-10-17T16:36:54.572Z</time>
</trkpt>
<trkpt lat="31.7826060" lon="35.1313330">
<ele>675.999939</ele>
<time>2025-10-17T16:36:54.572Z</time>
</trkpt>
<trkpt lat="31.7826010" lon="35.1314100">
<ele>675.599976</ele>
<time>2025-10-17T16:36:54.572Z</time>
</trkpt>
<trkpt lat="31.7825900" lon="35.1314790">
<ele>674.399963</ele>
<time>2025-10-17T16:36:54.572Z</time>
</trkpt>
<trkpt lat="31.7825700" lon="35.1315290">
<ele>674.000000</ele>
<time>2025-10-17T16:36:54.572Z</time>
</trkpt>
<trkpt lat="31.7825470" lon="35.1315620">
<ele>672.799988</ele>
<time>2025-10-17T16:36:54.572Z</time>
</trkpt>
<trkpt lat="31.7825220" lon="35.1315870">
<ele>672.400024</ele>
<time>2025-10-17T16:36:54.572Z</time>
</trkpt>
<trkpt lat="31.7824910" lon="35.1316080">
<ele>671.800049</ele>
<time>2025-10-17T16:36:54.572Z</time>
</trkpt>
<trkpt lat="31.7824650" lon="35.1316240">
<ele>671.399963</ele>
<time>2025-10-17T16:36:54.572Z</time>
</trkpt>
<trkpt lat="31.7824480" lon="35.1316350">
<ele>671.000000</ele>
<time>2025-10-17T16:36:54.572Z</time>
</trkpt>
<trkpt lat="31.7824380" lon="35.1316390">
<ele>670.400024</ele>
<time>2025-10-17T16:36:54.572Z</time>
</trkpt>
<trkpt lat="31.7824340" lon="35.1316410">
<ele>669.599976</ele>
<time>2025-10-17T16:36:54.572Z</time>
</trkpt>
<trkpt lat="31.7823470" lon="35.1316430">
<ele>668.600037</ele>
<time>2025-10-17T16:36:54.572Z</time>
</trkpt>
<trkpt lat="31.7823040" lon="35.1316200">
<ele>668.200012</ele>
<time>2025-10-17T16:36:54.572Z</time>
</trkpt>
<trkpt lat="31.7822750" lon="35.1316000">
<ele>668.000000</ele>
<time>2025-10-17T16:36:54.572Z</time>
</trkpt>
<trkpt lat="31.7822440" lon="35.1315780">
<ele>668.000000</ele>
<time>2025-10-17T16:36:54.572Z</time>
</trkpt>
<trkpt lat="31.7821550" lon="35.1315170">
<ele>667.400024</ele>
<time>2025-10-17T16:36:54.573Z</time>
</trkpt>
<trkpt lat="31.7820930" lon="35.1314670">
<ele>667.400024</ele>
<time>2025-10-17T16:36:54.573Z</time>
</trkpt>
<trkpt lat="31.7819940" lon="35.1314100">
<ele>667.200012</ele>
<time>2025-10-17T16:36:54.573Z</time>
</trkpt>
<trkpt lat="31.7819640" lon="35.1313880">
<ele>667.200012</ele>
<time>2025-10-17T16:36:54.573Z</time>
</trkpt>
<trkpt lat="31.7819360" lon="35.1313670">
<ele>667.200012</ele>
<time>2025-10-17T16:36:54.573Z</time>
</trkpt>
<trkpt lat="31.7819120" lon="35.1313500">
<ele>667.200012</ele>
<time>2025-10-17T16:36:54.573Z</time>
</trkpt>
<trkpt lat="31.7818710" lon="35.1313040">
<ele>667.200012</ele>
<time>2025-10-17T16:36:54.573Z</time>
</trkpt>
<trkpt lat="31.7818490" lon="35.1312820">
<ele>667.400024</ele>
<time>2025-10-17T16:36:54.573Z</time>
</trkpt>
<trkpt lat="31.7818260" lon="35.1312670">
<ele>667.600037</ele>
<time>2025-10-17T16:36:54.573Z</time>
</trkpt>
<trkpt lat="31.7818060" lon="35.1312530">
<ele>667.600037</ele>
<time>2025-10-17T16:36:54.573Z</time>
</trkpt>
<trkpt lat="31.7817870" lon="35.1312360">
<ele>668.200012</ele>
<time>2025-10-17T16:36:54.573Z</time>
</trkpt>
<trkpt lat="31.7817690" lon="35.1312200">
<ele>668.399963</ele>
<time>2025-10-17T16:36:54.573Z</time>
</trkpt>
<trkpt lat="31.7817490" lon="35.1312060">
<ele>668.600037</ele>
<time>2025-10-17T16:36:54.573Z</time>
</trkpt>
<trkpt lat="31.7817290" lon="35.1311910">
<ele>668.800049</ele>
<time>2025-10-17T16:36:54.573Z</time>
</trkpt>
<trkpt lat="31.7817080" lon="35.1311760">
<ele>669.200012</ele>
<time>2025-10-17T16:36:54.573Z</time>
</trkpt>
<trkpt lat="31.7816880" lon="35.1311560">
<ele>669.599976</ele>
<time>2025-10-17T16:36:54.573Z</time>
</trkpt>
<trkpt lat="31.7816680" lon="35.1311370">
<ele>669.799988</ele>
<time>2025-10-17T16:36:54.573Z</time>
</trkpt>
<trkpt lat="31.7816290" lon="35.1311040">
<ele>670.000061</ele>
<time>2025-10-17T16:36:54.573Z</time>
</trkpt>
<trkpt lat="31.7815420" lon="35.1310370">
<ele>670.600037</ele>
<time>2025-10-17T16:36:54.573Z</time>
</trkpt>
<trkpt lat="31.7815150" lon="35.1310200">
<ele>671.000000</ele>
<time>2025-10-17T16:36:54.573Z</time>
</trkpt>
<trkpt lat="31.7814850" lon="35.1310070">
<ele>671.000000</ele>
<time>2025-10-17T16:36:54.573Z</time>
</trkpt>
<trkpt lat="31.7814520" lon="35.1309900">
<ele>671.000000</ele>
<time>2025-10-17T16:36:54.573Z</time>
</trkpt>
<trkpt lat="31.7814170" lon="35.1309720">
<ele>671.000000</ele>
<time>2025-10-17T16:36:54.573Z</time>
</trkpt>
<trkpt lat="31.7813810" lon="35.1309520">
<ele>671.200012</ele>
<time>2025-10-17T16:36:54.573Z</time>
</trkpt>
<trkpt lat="31.7813450" lon="35.1309360">
<ele>671.200012</ele>
<time>2025-10-17T16:36:54.573Z</time>
</trkpt>
<trkpt lat="31.7813080" lon="35.1309180">
<ele>671.200012</ele>
<time>2025-10-17T16:36:54.573Z</time>
</trkpt>
<trkpt lat="31.7812710" lon="35.1308990">
<ele>671.000000</ele>
<time>2025-10-17T16:36:54.573Z</time>
</trkpt>
<trkpt lat="31.7812320" lon="35.1308830">
<ele>671.000000</ele>
<time>2025-10-17T16:36:54.573Z</time>
</trkpt>
<trkpt lat="31.7811920" lon="35.1308700">
<ele>671.000000</ele>
<time>2025-10-17T16:36:54.573Z</time>
</trkpt>
<trkpt lat="31.7811510" lon="35.1308660">
<ele>671.000000</ele>
<time>2025-10-17T16:36:54.574Z</time>
</trkpt>
<trkpt lat="31.7811110" lon="35.1308660">
<ele>670.799988</ele>
<time>2025-10-17T16:36:54.574Z</time>
</trkpt>
<trkpt lat="31.7810670" lon="35.1308690">
<ele>670.600037</ele>
<time>2025-10-17T16:36:54.574Z</time>
</trkpt>
<trkpt lat="31.7810260" lon="35.1308710">
<ele>670.600037</ele>
<time>2025-10-17T16:36:54.574Z</time>
</trkpt>
<trkpt lat="31.7809830" lon="35.1308730">
<ele>670.600037</ele>
<time>2025-10-17T16:36:54.574Z</time>
</trkpt>
<trkpt lat="31.7809400" lon="35.1308750">
<ele>670.600037</ele>
<time>2025-10-17T16:36:54.574Z</time>
</trkpt>
<trkpt lat="31.7808550" lon="35.1308720">
<ele>670.600037</ele>
<time>2025-10-17T16:36:54.574Z</time>
</trkpt>
<trkpt lat="31.7807200" lon="35.1308570">
<ele>670.600037</ele>
<time>2025-10-17T16:36:54.574Z</time>
</trkpt>
<trkpt lat="31.7806670" lon="35.1308580">
<ele>670.600037</ele>
<time>2025-10-17T16:36:54.574Z</time>
</trkpt>
<trkpt lat="31.7806120" lon="35.1308600">
<ele>670.400024</ele>
<time>2025-10-17T16:36:54.574Z</time>
</trkpt>
<trkpt lat="31.7805100" lon="35.1308810">
<ele>670.000061</ele>
<time>2025-10-17T16:36:54.574Z</time>
</trkpt>
<trkpt lat="31.7804560" lon="35.1308970">
<ele>669.599976</ele>
<time>2025-10-17T16:36:54.574Z</time>
</trkpt>
<trkpt lat="31.7803870" lon="35.1309120">
<ele>669.400024</ele>
<time>2025-10-17T16:36:54.574Z</time>
</trkpt>
<trkpt lat="31.7802800" lon="35.1308910">
<ele>668.800049</ele>
<time>2025-10-17T16:36:54.574Z</time>
</trkpt>
<trkpt lat="31.7802210" lon="35.1308500">
<ele>668.399963</ele>
<time>2025-10-17T16:36:54.574Z</time>
</trkpt>
<trkpt lat="31.7801770" lon="35.1308140">
<ele>668.200012</ele>
<time>2025-10-17T16:36:54.574Z</time>
</trkpt>
<trkpt lat="31.7801400" lon="35.1307740">
<ele>668.200012</ele>
<time>2025-10-17T16:36:54.574Z</time>
</trkpt>
<trkpt lat="31.7801070" lon="35.1307310">
<ele>668.000000</ele>
<time>2025-10-17T16:36:54.574Z</time>
</trkpt>
<trkpt lat="31.7800760" lon="35.1306830">
<ele>668.000000</ele>
<time>2025-10-17T16:36:54.574Z</time>
</trkpt>
<trkpt lat="31.7800520" lon="35.1306350">
<ele>668.000000</ele>
<time>2025-10-17T16:36:54.574Z</time>
</trkpt>
<trkpt lat="31.7800260" lon="35.1305900">
<ele>668.000000</ele>
<time>2025-10-17T16:36:54.575Z</time>
</trkpt>
<trkpt lat="31.7800010" lon="35.1305540">
<ele>668.000000</ele>
<time>2025-10-17T16:36:54.575Z</time>
</trkpt>
<trkpt lat="31.7799730" lon="35.1305210">
<ele>668.000000</ele>
<time>2025-10-17T16:36:54.575Z</time>
</trkpt>
<trkpt lat="31.7799460" lon="35.1304920">
<ele>668.200012</ele>
<time>2025-10-17T16:36:54.575Z</time>
</trkpt>
<trkpt lat="31.7799220" lon="35.1304660">
<ele>668.200012</ele>
<time>2025-10-17T16:36:54.575Z</time>
</trkpt>
<trkpt lat="31.7799000" lon="35.1304390">
<ele>668.600037</ele>
<time>2025-10-17T16:36:54.575Z</time>
</trkpt>
<trkpt lat="31.7798810" lon="35.1304110">
<ele>668.600037</ele>
<time>2025-10-17T16:36:54.575Z</time>
</trkpt>
<trkpt lat="31.7798600" lon="35.1303890">
<ele>669.000000</ele>
<time>2025-10-17T16:36:54.575Z</time>
</trkpt>
<trkpt lat="31.7798410" lon="35.1303660">
<ele>669.200012</ele>
<time>2025-10-17T16:36:54.575Z</time>
</trkpt>
<trkpt lat="31.7798120" lon="35.1303070">
<ele>669.599976</ele>
<time>2025-10-17T16:36:54.575Z</time>
</trkpt>
<trkpt lat="31.7797970" lon="35.1302770">
<ele>669.599976</ele>
<time>2025-10-17T16:36:54.575Z</time>
</trkpt>
<trkpt lat="31.7797800" lon="35.1302430">
<ele>669.599976</ele>
<time>2025-10-17T16:36:54.575Z</time>
</trkpt>
<trkpt lat="31.7797630" lon="35.1302140">
<ele>669.799988</ele>
<time>2025-10-17T16:36:54.575Z</time>
</trkpt>
<trkpt lat="31.7797480" lon="35.1301850">
<ele>669.799988</ele>
<time>2025-10-17T16:36:54.575Z</time>
</trkpt>
<trkpt lat="31.7797340" lon="35.1301570">
<ele>670.000061</ele>
<time>2025-10-17T16:36:54.575Z</time>
</trkpt>
<trkpt lat="31.7797210" lon="35.1301270">
<ele>670.000061</ele>
<time>2025-10-17T16:36:54.575Z</time>
</trkpt>
<trkpt lat="31.7797060" lon="35.1300990">
<ele>670.200012</ele>
<time>2025-10-17T16:36:54.575Z</time>
</trkpt>
<trkpt lat="31.7796910" lon="35.1300720">
<ele>670.400024</ele>
<time>2025-10-17T16:36:54.575Z</time>
</trkpt>
<trkpt lat="31.7796800" lon="35.1300470">
<ele>670.600037</ele>
<time>2025-10-17T16:36:54.575Z</time>
</trkpt>
<trkpt lat="31.7796680" lon="35.1300220">
<ele>671.200012</ele>
<time>2025-10-17T16:36:54.575Z</time>
</trkpt>
<trkpt lat="31.7796220" lon="35.1299440">
<ele>672.000000</ele>
<time>2025-10-17T16:36:54.576Z</time>
</trkpt>
<trkpt lat="31.7795570" lon="35.1298810">
<ele>672.200012</ele>
<time>2025-10-17T16:36:54.576Z</time>
</trkpt>
<trkpt lat="31.7795390" lon="35.1298720">
<ele>672.400024</ele>
<time>2025-10-17T16:36:54.576Z</time>
</trkpt>
<trkpt lat="31.7795180" lon="35.1298620">
<ele>672.400024</ele>
<time>2025-10-17T16:36:54.576Z</time>
</trkpt>
<trkpt lat="31.7794980" lon="35.1298510">
<ele>672.400024</ele>
<time>2025-10-17T16:36:54.576Z</time>
</trkpt>
<trkpt lat="31.7794780" lon="35.1298390">
<ele>672.400024</ele>
<time>2025-10-17T16:36:54.576Z</time>
</trkpt>
<trkpt lat="31.7794550" lon="35.1298320">
<ele>672.599976</ele>
<time>2025-10-17T16:36:54.576Z</time>
</trkpt>
<trkpt lat="31.7794290" lon="35.1298270">
<ele>673.000061</ele>
<time>2025-10-17T16:36:54.576Z</time>
</trkpt>
<trkpt lat="31.7794020" lon="35.1298190">
<ele>673.000061</ele>
<time>2025-10-17T16:36:54.576Z</time>
</trkpt>
<trkpt lat="31.7793780" lon="35.1298070">
<ele>673.400024</ele>
<time>2025-10-17T16:36:54.576Z</time>
</trkpt>
<trkpt lat="31.7793570" lon="35.1297920">
<ele>673.599976</ele>
<time>2025-10-17T16:36:54.576Z</time>
</trkpt>
<trkpt lat="31.7793370" lon="35.1297730">
<ele>673.799988</ele>
<time>2025-10-17T16:36:54.576Z</time>
</trkpt>
<trkpt lat="31.7793190" lon="35.1297520">
<ele>673.799988</ele>
<time>2025-10-17T16:36:54.576Z</time>
</trkpt>
<trkpt lat="31.7793020" lon="35.1297280">
<ele>673.799988</ele>
<time>2025-10-17T16:36:54.576Z</time>
</trkpt>
<trkpt lat="31.7792850" lon="35.1297060">
<ele>674.000000</ele>
<time>2025-10-17T16:36:54.576Z</time>
</trkpt>
<trkpt lat="31.7792670" lon="35.1296840">
<ele>674.000000</ele>
<time>2025-10-17T16:36:54.576Z</time>
</trkpt>
<trkpt lat="31.7792470" lon="35.1296630">
<ele>674.000000</ele>
<time>2025-10-17T16:36:54.576Z</time>
</trkpt>
<trkpt lat="31.7792270" lon="35.1296410">
<ele>674.000000</ele>
<time>2025-10-17T16:36:54.576Z</time>
</trkpt>
<trkpt lat="31.7792070" lon="35.1296160">
<ele>674.000000</ele>
<time>2025-10-17T16:36:54.576Z</time>
</trkpt>
<trkpt lat="31.7791880" lon="35.1295950">
<ele>674.000000</ele>
<time>2025-10-17T16:36:54.576Z</time>
</trkpt>
<trkpt lat="31.7791710" lon="35.1295720">
<ele>674.199951</ele>
<time>2025-10-17T16:36:54.576Z</time>
</trkpt>
<trkpt lat="31.7791570" lon="35.1295490">
<ele>674.199951</ele>
<time>2025-10-17T16:36:54.577Z</time>
</trkpt>
<trkpt lat="31.7791430" lon="35.1295250">
<ele>674.199951</ele>
<time>2025-10-17T16:36:54.577Z</time>
</trkpt>
<trkpt lat="31.7791280" lon="35.1295010">
<ele>674.399963</ele>
<time>2025-10-17T16:36:54.577Z</time>
</trkpt>
<trkpt lat="31.7791120" lon="35.1294780">
<ele>674.600037</ele>
<time>2025-10-17T16:36:54.577Z</time>
</trkpt>
<trkpt lat="31.7790930" lon="35.1294550">
<ele>675.000000</ele>
<time>2025-10-17T16:36:54.577Z</time>
</trkpt>
<trkpt lat="31.7790750" lon="35.1294340">
<ele>675.000000</ele>
<time>2025-10-17T16:36:54.577Z</time>
</trkpt>
<trkpt lat="31.7790500" lon="35.1294080">
<ele>675.200012</ele>
<time>2025-10-17T16:36:54.577Z</time>
</trkpt>
<trkpt lat="31.7790160" lon="35.1293850">
<ele>675.200012</ele>
<time>2025-10-17T16:36:54.577Z</time>
</trkpt>
<trkpt lat="31.7789840" lon="35.1293680">
<ele>675.200012</ele>
<time>2025-10-17T16:36:54.577Z</time>
</trkpt>
<trkpt lat="31.7789500" lon="35.1293570">
<ele>675.200012</ele>
<time>2025-10-17T16:36:54.577Z</time>
</trkpt>
<trkpt lat="31.7789190" lon="35.1293480">
<ele>675.000000</ele>
<time>2025-10-17T16:36:54.577Z</time>
</trkpt>
<trkpt lat="31.7788800" lon="35.1293350">
<ele>675.000000</ele>
<time>2025-10-17T16:36:54.577Z</time>
</trkpt>
<trkpt lat="31.7788370" lon="35.1293220">
<ele>675.000000</ele>
<time>2025-10-17T16:36:54.577Z</time>
</trkpt>
<trkpt lat="31.7788080" lon="35.1293140">
<ele>675.000000</ele>
<time>2025-10-17T16:36:54.577Z</time>
</trkpt>
<trkpt lat="31.7786740" lon="35.1293040">
<ele>675.399963</ele>
<time>2025-10-17T16:36:54.577Z</time>
</trkpt>
<trkpt lat="31.7786460" lon="35.1293070">
<ele>675.599976</ele>
<time>2025-10-17T16:36:54.577Z</time>
</trkpt>
<trkpt lat="31.7786250" lon="35.1293090">
<ele>675.799988</ele>
<time>2025-10-17T16:36:54.577Z</time>
</trkpt>
<trkpt lat="31.7785960" lon="35.1293100">
<ele>676.200012</ele>
<time>2025-10-17T16:36:54.577Z</time>
</trkpt>
<trkpt lat="31.7785650" lon="35.1293100">
<ele>676.200012</ele>
<time>2025-10-17T16:36:54.578Z</time>
</trkpt>
<trkpt lat="31.7785380" lon="35.1293070">
<ele>676.599976</ele>
<time>2025-10-17T16:36:54.578Z</time>
</trkpt>
<trkpt lat="31.7784880" lon="35.1293100">
<ele>676.799988</ele>
<time>2025-10-17T16:36:54.578Z</time>
</trkpt>
<trkpt lat="31.7784040" lon="35.1293100">
<ele>677.000000</ele>
<time>2025-10-17T16:36:54.578Z</time>
</trkpt>
<trkpt lat="31.7783570" lon="35.1293100">
<ele>677.399963</ele>
<time>2025-10-17T16:36:54.578Z</time>
</trkpt>
<trkpt lat="31.7783320" lon="35.1293100">
<ele>677.399963</ele>
<time>2025-10-17T16:36:54.578Z</time>
</trkpt>
<trkpt lat="31.7783070" lon="35.1293140">
<ele>677.399963</ele>
<time>2025-10-17T16:36:54.578Z</time>
</trkpt>
<trkpt lat="31.7782770" lon="35.1293160">
<ele>677.600037</ele>
<time>2025-10-17T16:36:54.578Z</time>
</trkpt>
<trkpt lat="31.7782520" lon="35.1293150">
<ele>677.799988</ele>
<time>2025-10-17T16:36:54.578Z</time>
</trkpt>
<trkpt lat="31.7782310" lon="35.1293120">
<ele>678.000000</ele>
<time>2025-10-17T16:36:54.578Z</time>
</trkpt>
<trkpt lat="31.7782050" lon="35.1293080">
<ele>678.000000</ele>
<time>2025-10-17T16:36:54.578Z</time>
</trkpt>
<trkpt lat="31.7781780" lon="35.1293050">
<ele>678.000000</ele>
<time>2025-10-17T16:36:54.578Z</time>
</trkpt>
<trkpt lat="31.7781470" lon="35.1293010">
<ele>678.200012</ele>
<time>2025-10-17T16:36:54.578Z</time>
</trkpt>
<trkpt lat="31.7781240" lon="35.1292970">
<ele>678.200012</ele>
<time>2025-10-17T16:36:54.578Z</time>
</trkpt>
<trkpt lat="31.7781030" lon="35.1292940">
<ele>678.399963</ele>
<time>2025-10-17T16:36:54.578Z</time>
</trkpt>
<trkpt lat="31.7780770" lon="35.1292900">
<ele>678.599976</ele>
<time>2025-10-17T16:36:54.578Z</time>
</trkpt>
<trkpt lat="31.7780510" lon="35.1292820">
<ele>678.599976</ele>
<time>2025-10-17T16:36:54.578Z</time>
</trkpt>
<trkpt lat="31.7780220" lon="35.1292720">
<ele>678.599976</ele>
<time>2025-10-17T16:36:54.578Z</time>
</trkpt>
<trkpt lat="31.7779980" lon="35.1292620">
<ele>678.799988</ele>
<time>2025-10-17T16:36:54.578Z</time>
</trkpt>
<trkpt lat="31.7779840" lon="35.1292530">
<ele>678.799988</ele>
<time>2025-10-17T16:36:54.578Z</time>
</trkpt>
<trkpt lat="31.7779670" lon="35.1292360">
<ele>678.799988</ele>
<time>2025-10-17T16:36:54.578Z</time>
</trkpt>
<trkpt lat="31.7779510" lon="35.1292180">
<ele>678.799988</ele>
<time>2025-10-17T16:36:54.578Z</time>
</trkpt>
<trkpt lat="31.7779380" lon="35.1291950">
<ele>678.999939</ele>
<time>2025-10-17T16:36:54.578Z</time>
</trkpt>
<trkpt lat="31.7779370" lon="35.1291750">
<ele>678.999939</ele>
<time>2025-10-17T16:36:54.578Z</time>
</trkpt>
<trkpt lat="31.7779410" lon="35.1291510">
<ele>679.200012</ele>
<time>2025-10-17T16:36:54.578Z</time>
</trkpt>
<trkpt lat="31.7779470" lon="35.1291220">
<ele>679.200012</ele>
<time>2025-10-17T16:36:54.578Z</time>
</trkpt>
<trkpt lat="31.7779480" lon="35.1290900">
<ele>679.200012</ele>
<time>2025-10-17T16:36:54.579Z</time>
</trkpt>
<trkpt lat="31.7779350" lon="35.1290680">
<ele>679.200012</ele>
<time>2025-10-17T16:36:54.579Z</time>
</trkpt>
<trkpt lat="31.7779160" lon="35.1290610">
<ele>679.200012</ele>
<time>2025-10-17T16:36:54.579Z</time>
</trkpt>
<trkpt lat="31.7778930" lon="35.1290640">
<ele>679.200012</ele>
<time>2025-10-17T16:36:54.579Z</time>
</trkpt>
<trkpt lat="31.7778500" lon="35.1290600">
<ele>678.799988</ele>
<time>2025-10-17T16:36:54.579Z</time>
</trkpt>
<trkpt lat="31.7778340" lon="35.1290060">
<ele>678.399963</ele>
<time>2025-10-17T16:36:54.579Z</time>
</trkpt>
<trkpt lat="31.7778130" lon="35.1289300">
<ele>678.000000</ele>
<time>2025-10-17T16:36:54.579Z</time>
</trkpt>
<trkpt lat="31.7777940" lon="35.1288960">
<ele>678.000000</ele>
<time>2025-10-17T16:36:54.579Z</time>
</trkpt>
<trkpt lat="31.7777730" lon="35.1288640">
<ele>678.000000</ele>
<time>2025-10-17T16:36:54.579Z</time>
</trkpt>
<trkpt lat="31.7777530" lon="35.1288340">
<ele>677.799988</ele>
<time>2025-10-17T16:36:54.579Z</time>
</trkpt>
<trkpt lat="31.7776430" lon="35.1287320">
<ele>677.799988</ele>
<time>2025-10-17T16:36:54.579Z</time>
</trkpt>
<trkpt lat="31.7775890" lon="35.1286470">
<ele>677.799988</ele>
<time>2025-10-17T16:36:54.579Z</time>
</trkpt>
<trkpt lat="31.7775860" lon="35.1286140">
<ele>678.000000</ele>
<time>2025-10-17T16:36:54.579Z</time>
</trkpt>
<trkpt lat="31.7775870" lon="35.1285790">
<ele>678.000000</ele>
<time>2025-10-17T16:36:54.579Z</time>
</trkpt>
<trkpt lat="31.7775940" lon="35.1285470">
<ele>678.000000</ele>
<time>2025-10-17T16:36:54.579Z</time>
</trkpt>
<trkpt lat="31.7776010" lon="35.1285150">
<ele>678.000000</ele>
<time>2025-10-17T16:36:54.579Z</time>
</trkpt>
<trkpt lat="31.7776110" lon="35.1284830">
<ele>678.200012</ele>
<time>2025-10-17T16:36:54.579Z</time>
</trkpt>
<trkpt lat="31.7776230" lon="35.1284540">
<ele>678.200012</ele>
<time>2025-10-17T16:36:54.579Z</time>
</trkpt>
<trkpt lat="31.7776360" lon="35.1284270">
<ele>678.200012</ele>
<time>2025-10-17T16:36:54.579Z</time>
</trkpt>
<trkpt lat="31.7776500" lon="35.1284000">
<ele>678.399963</ele>
<time>2025-10-17T16:36:54.579Z</time>
</trkpt>
<trkpt lat="31.7776660" lon="35.1283770">
<ele>678.399963</ele>
<time>2025-10-17T16:36:54.579Z</time>
</trkpt>
<trkpt lat="31.7776800" lon="35.1283530">
<ele>678.599976</ele>
<time>2025-10-17T16:36:54.579Z</time>
</trkpt>
<trkpt lat="31.7776930" lon="35.1283290">
<ele>678.799988</ele>
<time>2025-10-17T16:36:54.579Z</time>
</trkpt>
<trkpt lat="31.7777050" lon="35.1283040">
<ele>678.999939</ele>
<time>2025-10-17T16:36:54.579Z</time>
</trkpt>
<trkpt lat="31.7777190" lon="35.1282790">
<ele>679.200012</ele>
<time>2025-10-17T16:36:54.579Z</time>
</trkpt>
<trkpt lat="31.7777290" lon="35.1282550">
<ele>679.200012</ele>
<time>2025-10-17T16:36:54.579Z</time>
</trkpt>
<trkpt lat="31.7777420" lon="35.1282310">
<ele>679.400024</ele>
<time>2025-10-17T16:36:54.579Z</time>
</trkpt>
<trkpt lat="31.7777550" lon="35.1282080">
<ele>679.400024</ele>
<time>2025-10-17T16:36:54.580Z</time>
</trkpt>
<trkpt lat="31.7777650" lon="35.1281810">
<ele>679.599976</ele>
<time>2025-10-17T16:36:54.580Z</time>
</trkpt>
<trkpt lat="31.7777740" lon="35.1281540">
<ele>679.799988</ele>
<time>2025-10-17T16:36:54.580Z</time>
</trkpt>
<trkpt lat="31.7777830" lon="35.1281290">
<ele>680.000000</ele>
<time>2025-10-17T16:36:54.580Z</time>
</trkpt>
<trkpt lat="31.7778020" lon="35.1280840">
<ele>680.400024</ele>
<time>2025-10-17T16:36:54.580Z</time>
</trkpt>
<trkpt lat="31.7778110" lon="35.1280610">
<ele>680.400024</ele>
<time>2025-10-17T16:36:54.580Z</time>
</trkpt>
<trkpt lat="31.7778180" lon="35.1280380">
<ele>680.799988</ele>
<time>2025-10-17T16:36:54.580Z</time>
</trkpt>
<trkpt lat="31.7778260" lon="35.1280140">
<ele>681.000000</ele>
<time>2025-10-17T16:36:54.580Z</time>
</trkpt>
<trkpt lat="31.7778320" lon="35.1279890">
<ele>681.000000</ele>
<time>2025-10-17T16:36:54.580Z</time>
</trkpt>
<trkpt lat="31.7778360" lon="35.1279640">
<ele>681.200012</ele>
<time>2025-10-17T16:36:54.580Z</time>
</trkpt>
<trkpt lat="31.7778380" lon="35.1279380">
<ele>681.399963</ele>
<time>2025-10-17T16:36:54.580Z</time>
</trkpt>
<trkpt lat="31.7778420" lon="35.1279110">
<ele>681.599976</ele>
<time>2025-10-17T16:36:54.580Z</time>
</trkpt>
<trkpt lat="31.7778430" lon="35.1278820">
<ele>681.599976</ele>
<time>2025-10-17T16:36:54.580Z</time>
</trkpt>
<trkpt lat="31.7778430" lon="35.1278540">
<ele>681.599976</ele>
<time>2025-10-17T16:36:54.580Z</time>
</trkpt>
<trkpt lat="31.7778440" lon="35.1278280">
<ele>681.800049</ele>
<time>2025-10-17T16:36:54.580Z</time>
</trkpt>
<trkpt lat="31.7778470" lon="35.1277980">
<ele>681.800049</ele>
<time>2025-10-17T16:36:54.580Z</time>
</trkpt>
<trkpt lat="31.7778460" lon="35.1277690">
<ele>681.800049</ele>
<time>2025-10-17T16:36:54.580Z</time>
</trkpt>
<trkpt lat="31.7778440" lon="35.1277400">
<ele>681.800049</ele>
<time>2025-10-17T16:36:54.580Z</time>
</trkpt>
<trkpt lat="31.7778460" lon="35.1277120">
<ele>682.000000</ele>
<time>2025-10-17T16:36:54.580Z</time>
</trkpt>
<trkpt lat="31.7778480" lon="35.1276850">
<ele>682.000000</ele>
<time>2025-10-17T16:36:54.580Z</time>
</trkpt>
<trkpt lat="31.7778500" lon="35.1276550">
<ele>682.400024</ele>
<time>2025-10-17T16:36:54.580Z</time>
</trkpt>
<trkpt lat="31.7778510" lon="35.1276260">
<ele>682.599976</ele>
<time>2025-10-17T16:36:54.580Z</time>
</trkpt>
<trkpt lat="31.7778510" lon="35.1275960">
<ele>682.599976</ele>
<time>2025-10-17T16:36:54.580Z</time>
</trkpt>
<trkpt lat="31.7778490" lon="35.1275670">
<ele>682.599976</ele>
<time>2025-10-17T16:36:54.580Z</time>
</trkpt>
<trkpt lat="31.7778470" lon="35.1275380">
<ele>683.000000</ele>
<time>2025-10-17T16:36:54.580Z</time>
</trkpt>
<trkpt lat="31.7778450" lon="35.1275080">
<ele>683.000000</ele>
<time>2025-10-17T16:36:54.580Z</time>
</trkpt>
<trkpt lat="31.7778430" lon="35.1274800">
<ele>683.000000</ele>
<time>2025-10-17T16:36:54.580Z</time>
</trkpt>
<trkpt lat="31.7778400" lon="35.1274510">
<ele>683.000000</ele>
<time>2025-10-17T16:36:54.580Z</time>
</trkpt>
<trkpt lat="31.7778350" lon="35.1274230">
<ele>683.199951</ele>
<time>2025-10-17T16:36:54.580Z</time>
</trkpt>
<trkpt lat="31.7778300" lon="35.1273950">
<ele>683.400024</ele>
<time>2025-10-17T16:36:54.580Z</time>
</trkpt>
<trkpt lat="31.7778240" lon="35.1273700">
<ele>683.600037</ele>
<time>2025-10-17T16:36:54.580Z</time>
</trkpt>
<trkpt lat="31.7778150" lon="35.1273450">
<ele>683.600037</ele>
<time>2025-10-17T16:36:54.581Z</time>
</trkpt>
<trkpt lat="31.7778060" lon="35.1273200">
<ele>683.600037</ele>
<time>2025-10-17T16:36:54.581Z</time>
</trkpt>
<trkpt lat="31.7777950" lon="35.1272940">
<ele>683.799988</ele>
<time>2025-10-17T16:36:54.581Z</time>
</trkpt>
<trkpt lat="31.7777820" lon="35.1272690">
<ele>683.799988</ele>
<time>2025-10-17T16:36:54.581Z</time>
</trkpt>
<trkpt lat="31.7777690" lon="35.1272420">
<ele>684.000000</ele>
<time>2025-10-17T16:36:54.581Z</time>
</trkpt>
<trkpt lat="31.7777570" lon="35.1272160">
<ele>684.000000</ele>
<time>2025-10-17T16:36:54.581Z</time>
</trkpt>
<trkpt lat="31.7777420" lon="35.1271920">
<ele>684.000000</ele>
<time>2025-10-17T16:36:54.581Z</time>
</trkpt>
<trkpt lat="31.7777260" lon="35.1271680">
<ele>684.200012</ele>
<time>2025-10-17T16:36:54.581Z</time>
</trkpt>
<trkpt lat="31.7777100" lon="35.1271440">
<ele>684.200012</ele>
<time>2025-10-17T16:36:54.581Z</time>
</trkpt>
<trkpt lat="31.7776940" lon="35.1271190">
<ele>684.399963</ele>
<time>2025-10-17T16:36:54.581Z</time>
</trkpt>
<trkpt lat="31.7776800" lon="35.1270970">
<ele>684.399963</ele>
<time>2025-10-17T16:36:54.581Z</time>
</trkpt>
<trkpt lat="31.7776110" lon="35.1270120">
<ele>685.000000</ele>
<time>2025-10-17T16:36:54.581Z</time>
</trkpt>
<trkpt lat="31.7775510" lon="35.1269520">
<ele>685.400024</ele>
<time>2025-10-17T16:36:54.581Z</time>
</trkpt>
<trkpt lat="31.7775300" lon="35.1269310">
<ele>685.599976</ele>
<time>2025-10-17T16:36:54.581Z</time>
</trkpt>
<trkpt lat="31.7775070" lon="35.1269100">
<ele>685.599976</ele>
<time>2025-10-17T16:36:54.581Z</time>
</trkpt>
<trkpt lat="31.7774830" lon="35.1268860">
<ele>685.799988</ele>
<time>2025-10-17T16:36:54.581Z</time>
</trkpt>
<trkpt lat="31.7774610" lon="35.1268620">
<ele>686.000000</ele>
<time>2025-10-17T16:36:54.581Z</time>
</trkpt>
<trkpt lat="31.7774380" lon="35.1268370">
<ele>686.000000</ele>
<time>2025-10-17T16:36:54.581Z</time>
</trkpt>
<trkpt lat="31.7774170" lon="35.1268140">
<ele>686.000000</ele>
<time>2025-10-17T16:36:54.581Z</time>
</trkpt>
<trkpt lat="31.7773960" lon="35.1267930">
<ele>686.000000</ele>
<time>2025-10-17T16:36:54.581Z</time>
</trkpt>
<trkpt lat="31.7773730" lon="35.1267730">
<ele>686.000000</ele>
<time>2025-10-17T16:36:54.581Z</time>
</trkpt>
<trkpt lat="31.7773510" lon="35.1267530">
<ele>686.199951</ele>
<time>2025-10-17T16:36:54.581Z</time>
</trkpt>
<trkpt lat="31.7773280" lon="35.1267340">
<ele>686.199951</ele>
<time>2025-10-17T16:36:54.581Z</time>
</trkpt>
<trkpt lat="31.7773020" lon="35.1267160">
<ele>686.400024</ele>
<time>2025-10-17T16:36:54.581Z</time>
</trkpt>
<trkpt lat="31.7772780" lon="35.1266990">
<ele>686.799988</ele>
<time>2025-10-17T16:36:54.581Z</time>
</trkpt>
<trkpt lat="31.7772520" lon="35.1266800">
<ele>687.000000</ele>
<time>2025-10-17T16:36:54.581Z</time>
</trkpt>
<trkpt lat="31.7772250" lon="35.1266640">
<ele>687.200012</ele>
<time>2025-10-17T16:36:54.581Z</time>
</trkpt>
<trkpt lat="31.7771970" lon="35.1266480">
<ele>687.399963</ele>
<time>2025-10-17T16:36:54.581Z</time>
</trkpt>
<trkpt lat="31.7771720" lon="35.1266320">
<ele>687.599976</ele>
<time>2025-10-17T16:36:54.581Z</time>
</trkpt>
<trkpt lat="31.7771460" lon="35.1266170">
<ele>687.800049</ele>
<time>2025-10-17T16:36:54.581Z</time>
</trkpt>
<trkpt lat="31.7771200" lon="35.1266010">
<ele>687.800049</ele>
<time>2025-10-17T16:36:54.581Z</time>
</trkpt>
<trkpt lat="31.7770950" lon="35.1265850">
<ele>687.800049</ele>
<time>2025-10-17T16:36:54.581Z</time>
</trkpt>
<trkpt lat="31.7770680" lon="35.1265690">
<ele>687.800049</ele>
<time>2025-10-17T16:36:54.582Z</time>
</trkpt>
<trkpt lat="31.7770410" lon="35.1265550">
<ele>688.200012</ele>
<time>2025-10-17T16:36:54.582Z</time>
</trkpt>
<trkpt lat="31.7770180" lon="35.1265390">
<ele>688.200012</ele>
<time>2025-10-17T16:36:54.582Z</time>
</trkpt>
<trkpt lat="31.7769930" lon="35.1265220">
<ele>688.400024</ele>
<time>2025-10-17T16:36:54.582Z</time>
</trkpt>
<trkpt lat="31.7769670" lon="35.1265080">
<ele>688.400024</ele>
<time>2025-10-17T16:36:54.582Z</time>
</trkpt>
<trkpt lat="31.7769430" lon="35.1264950">
<ele>688.599976</ele>
<time>2025-10-17T16:36:54.582Z</time>
</trkpt>
<trkpt lat="31.7769200" lon="35.1264820">
<ele>688.599976</ele>
<time>2025-10-17T16:36:54.582Z</time>
</trkpt>
<trkpt lat="31.7768970" lon="35.1264690">
<ele>688.599976</ele>
<time>2025-10-17T16:36:54.582Z</time>
</trkpt>
<trkpt lat="31.7768740" lon="35.1264560">
<ele>688.799988</ele>
<time>2025-10-17T16:36:54.582Z</time>
</trkpt>
<trkpt lat="31.7768520" lon="35.1264420">
<ele>688.799988</ele>
<time>2025-10-17T16:36:54.582Z</time>
</trkpt>
<trkpt lat="31.7768280" lon="35.1264300">
<ele>688.799988</ele>
<time>2025-10-17T16:36:54.582Z</time>
</trkpt>
<trkpt lat="31.7768040" lon="35.1264180">
<ele>688.799988</ele>
<time>2025-10-17T16:36:54.582Z</time>
</trkpt>
<trkpt lat="31.7767810" lon="35.1264060">
<ele>689.000000</ele>
<time>2025-10-17T16:36:54.582Z</time>
</trkpt>
<trkpt lat="31.7767580" lon="35.1263920">
<ele>689.199951</ele>
<time>2025-10-17T16:36:54.582Z</time>
</trkpt>
<trkpt lat="31.7767350" lon="35.1263770">
<ele>689.199951</ele>
<time>2025-10-17T16:36:54.582Z</time>
</trkpt>
<trkpt lat="31.7767110" lon="35.1263610">
<ele>689.400024</ele>
<time>2025-10-17T16:36:54.582Z</time>
</trkpt>
<trkpt lat="31.7766850" lon="35.1263470">
<ele>689.400024</ele>
<time>2025-10-17T16:36:54.582Z</time>
</trkpt>
<trkpt lat="31.7766610" lon="35.1263350">
<ele>689.600037</ele>
<time>2025-10-17T16:36:54.582Z</time>
</trkpt>
<trkpt lat="31.7766370" lon="35.1263240">
<ele>689.799988</ele>
<time>2025-10-17T16:36:54.582Z</time>
</trkpt>
<trkpt lat="31.7766120" lon="35.1263100">
<ele>690.000000</ele>
<time>2025-10-17T16:36:54.582Z</time>
</trkpt>
<trkpt lat="31.7765870" lon="35.1262980">
<ele>690.200012</ele>
<time>2025-10-17T16:36:54.582Z</time>
</trkpt>
<trkpt lat="31.7765640" lon="35.1262830">
<ele>690.399963</ele>
<time>2025-10-17T16:36:54.582Z</time>
</trkpt>
<trkpt lat="31.7765410" lon="35.1262670">
<ele>690.399963</ele>
<time>2025-10-17T16:36:54.582Z</time>
</trkpt>
<trkpt lat="31.7765160" lon="35.1262520">
<ele>690.599976</ele>
<time>2025-10-17T16:36:54.582Z</time>
</trkpt>
<trkpt lat="31.7764920" lon="35.1262380">
<ele>690.599976</ele>
<time>2025-10-17T16:36:54.582Z</time>
</trkpt>
<trkpt lat="31.7764670" lon="35.1262240">
<ele>690.800049</ele>
<time>2025-10-17T16:36:54.582Z</time>
</trkpt>
<trkpt lat="31.7764420" lon="35.1262090">
<ele>691.000000</ele>
<time>2025-10-17T16:36:54.582Z</time>
</trkpt>
<trkpt lat="31.7764180" lon="35.1261960">
<ele>691.200012</ele>
<time>2025-10-17T16:36:54.582Z</time>
</trkpt>
<trkpt lat="31.7763950" lon="35.1261830">
<ele>691.200012</ele>
<time>2025-10-17T16:36:54.582Z</time>
</trkpt>
<trkpt lat="31.7763720" lon="35.1261700">
<ele>691.400024</ele>
<time>2025-10-17T16:36:54.582Z</time>
</trkpt>
<trkpt lat="31.7763510" lon="35.1261580">
<ele>691.400024</ele>
<time>2025-10-17T16:36:54.583Z</time>
</trkpt>
<trkpt lat="31.7763280" lon="35.1261440">
<ele>691.400024</ele>
<time>2025-10-17T16:36:54.583Z</time>
</trkpt>
<trkpt lat="31.7763060" lon="35.1261290">
<ele>691.599976</ele>
<time>2025-10-17T16:36:54.583Z</time>
</trkpt>
<trkpt lat="31.7762820" lon="35.1261170">
<ele>691.599976</ele>
<time>2025-10-17T16:36:54.583Z</time>
</trkpt>
<trkpt lat="31.7762580" lon="35.1261060">
<ele>691.799988</ele>
<time>2025-10-17T16:36:54.583Z</time>
</trkpt>
<trkpt lat="31.7762380" lon="35.1260930">
<ele>692.000061</ele>
<time>2025-10-17T16:36:54.583Z</time>
</trkpt>
<trkpt lat="31.7762170" lon="35.1260810">
<ele>692.199951</ele>
<time>2025-10-17T16:36:54.583Z</time>
</trkpt>
<trkpt lat="31.7761920" lon="35.1260710">
<ele>692.199951</ele>
<time>2025-10-17T16:36:54.583Z</time>
</trkpt>
<trkpt lat="31.7761700" lon="35.1260610">
<ele>692.400024</ele>
<time>2025-10-17T16:36:54.583Z</time>
</trkpt>
<trkpt lat="31.7761480" lon="35.1260480">
<ele>692.400024</ele>
<time>2025-10-17T16:36:54.583Z</time>
</trkpt>
<trkpt lat="31.7761250" lon="35.1260350">
<ele>692.400024</ele>
<time>2025-10-17T16:36:54.583Z</time>
</trkpt>
<trkpt lat="31.7761040" lon="35.1260220">
<ele>692.600037</ele>
<time>2025-10-17T16:36:54.583Z</time>
</trkpt>
<trkpt lat="31.7760840" lon="35.1260080">
<ele>692.799988</ele>
<time>2025-10-17T16:36:54.583Z</time>
</trkpt>
<trkpt lat="31.7760660" lon="35.1259930">
<ele>693.000000</ele>
<time>2025-10-17T16:36:54.583Z</time>
</trkpt>
<trkpt lat="31.7760450" lon="35.1259760">
<ele>693.200012</ele>
<time>2025-10-17T16:36:54.583Z</time>
</trkpt>
<trkpt lat="31.7760230" lon="35.1259630">
<ele>693.600037</ele>
<time>2025-10-17T16:36:54.583Z</time>
</trkpt>
<trkpt lat="31.7760000" lon="35.1259520">
<ele>693.600037</ele>
<time>2025-10-17T16:36:54.583Z</time>
</trkpt>
<trkpt lat="31.7759780" lon="35.1259410">
<ele>693.800049</ele>
<time>2025-10-17T16:36:54.583Z</time>
</trkpt>
<trkpt lat="31.7759550" lon="35.1259310">
<ele>694.000000</ele>
<time>2025-10-17T16:36:54.583Z</time>
</trkpt>
<trkpt lat="31.7759350" lon="35.1259190">
<ele>694.000000</ele>
<time>2025-10-17T16:36:54.583Z</time>
</trkpt>
<trkpt lat="31.7759160" lon="35.1259050">
<ele>694.400024</ele>
<time>2025-10-17T16:36:54.583Z</time>
</trkpt>
<trkpt lat="31.7758970" lon="35.1258920">
<ele>694.400024</ele>
<time>2025-10-17T16:36:54.583Z</time>
</trkpt>
<trkpt lat="31.7758780" lon="35.1258800">
<ele>694.599976</ele>
<time>2025-10-17T16:36:54.583Z</time>
</trkpt>
<trkpt lat="31.7758610" lon="35.1258700">
<ele>694.599976</ele>
<time>2025-10-17T16:36:54.583Z</time>
</trkpt>
<trkpt lat="31.7758430" lon="35.1258590">
<ele>694.799988</ele>
<time>2025-10-17T16:36:54.583Z</time>
</trkpt>
<trkpt lat="31.7758270" lon="35.1258480">
<ele>695.000061</ele>
<time>2025-10-17T16:36:54.583Z</time>
</trkpt>
<trkpt lat="31.7758110" lon="35.1258360">
<ele>695.200012</ele>
<time>2025-10-17T16:36:54.583Z</time>
</trkpt>
<trkpt lat="31.7757950" lon="35.1258230">
<ele>695.600037</ele>
<time>2025-10-17T16:36:54.583Z</time>
</trkpt>
<trkpt lat="31.7757780" lon="35.1258090">
<ele>695.600037</ele>
<time>2025-10-17T16:36:54.583Z</time>
</trkpt>
<trkpt lat="31.7757610" lon="35.1257930">
<ele>696.000000</ele>
<time>2025-10-17T16:36:54.583Z</time>
</trkpt>
<trkpt lat="31.7757440" lon="35.1257780">
<ele>696.000000</ele>
<time>2025-10-17T16:36:54.583Z</time>
</trkpt>
<trkpt lat="31.7757240" lon="35.1257680">
<ele>696.200012</ele>
<time>2025-10-17T16:36:54.583Z</time>
</trkpt>
<trkpt lat="31.7757030" lon="35.1257570">
<ele>696.399963</ele>
<time>2025-10-17T16:36:54.584Z</time>
</trkpt>
<trkpt lat="31.7756850" lon="35.1257450">
<ele>696.600037</ele>
<time>2025-10-17T16:36:54.584Z</time>
</trkpt>
<trkpt lat="31.7756670" lon="35.1257360">
<ele>696.800049</ele>
<time>2025-10-17T16:36:54.584Z</time>
</trkpt>
<trkpt lat="31.7756500" lon="35.1257260">
<ele>697.200012</ele>
<time>2025-10-17T16:36:54.584Z</time>
</trkpt>
<trkpt lat="31.7756320" lon="35.1257150">
<ele>697.200012</ele>
<time>2025-10-17T16:36:54.584Z</time>
</trkpt>
<trkpt lat="31.7756160" lon="35.1257010">
<ele>697.400024</ele>
<time>2025-10-17T16:36:54.584Z</time>
</trkpt>
<trkpt lat="31.7755990" lon="35.1256890">
<ele>697.599976</ele>
<time>2025-10-17T16:36:54.584Z</time>
</trkpt>
<trkpt lat="31.7755780" lon="35.1256790">
<ele>697.599976</ele>
<time>2025-10-17T16:36:54.584Z</time>
</trkpt>
<trkpt lat="31.7755580" lon="35.1256670">
<ele>697.799988</ele>
<time>2025-10-17T16:36:54.584Z</time>
</trkpt>
<trkpt lat="31.7755400" lon="35.1256570">
<ele>698.000061</ele>
<time>2025-10-17T16:36:54.584Z</time>
</trkpt>
<trkpt lat="31.7755210" lon="35.1256480">
<ele>698.200012</ele>
<time>2025-10-17T16:36:54.584Z</time>
</trkpt>
<trkpt lat="31.7755020" lon="35.1256390">
<ele>698.400024</ele>
<time>2025-10-17T16:36:54.584Z</time>
</trkpt>
<trkpt lat="31.7754830" lon="35.1256300">
<ele>698.599976</ele>
<time>2025-10-17T16:36:54.584Z</time>
</trkpt>
<trkpt lat="31.7754620" lon="35.1256210">
<ele>698.599976</ele>
<time>2025-10-17T16:36:54.584Z</time>
</trkpt>
<trkpt lat="31.7754430" lon="35.1256110">
<ele>698.799988</ele>
<time>2025-10-17T16:36:54.584Z</time>
</trkpt>
<trkpt lat="31.7754260" lon="35.1256000">
<ele>699.000000</ele>
<time>2025-10-17T16:36:54.584Z</time>
</trkpt>
<trkpt lat="31.7754080" lon="35.1255870">
<ele>699.199951</ele>
<time>2025-10-17T16:36:54.584Z</time>
</trkpt>
<trkpt lat="31.7753920" lon="35.1255750">
<ele>699.600037</ele>
<time>2025-10-17T16:36:54.584Z</time>
</trkpt>
<trkpt lat="31.7753760" lon="35.1255650">
<ele>699.600037</ele>
<time>2025-10-17T16:36:54.584Z</time>
</trkpt>
<trkpt lat="31.7753580" lon="35.1255550">
<ele>700.000000</ele>
<time>2025-10-17T16:36:54.584Z</time>
</trkpt>
<trkpt lat="31.7753410" lon="35.1255460">
<ele>700.000000</ele>
<time>2025-10-17T16:36:54.584Z</time>
</trkpt>
<trkpt lat="31.7753230" lon="35.1255380">
<ele>700.399963</ele>
<time>2025-10-17T16:36:54.584Z</time>
</trkpt>
<trkpt lat="31.7753040" lon="35.1255300">
<ele>700.399963</ele>
<time>2025-10-17T16:36:54.584Z</time>
</trkpt>
<trkpt lat="31.7752870" lon="35.1255200">
<ele>700.799988</ele>
<time>2025-10-17T16:36:54.584Z</time>
</trkpt>
<trkpt lat="31.7752680" lon="35.1255140">
<ele>700.999939</ele>
<time>2025-10-17T16:36:54.584Z</time>
</trkpt>
<trkpt lat="31.7752500" lon="35.1255000">
<ele>701.200012</ele>
<time>2025-10-17T16:36:54.584Z</time>
</trkpt>
<trkpt lat="31.7752310" lon="35.1254870">
<ele>701.400024</ele>
<time>2025-10-17T16:36:54.584Z</time>
</trkpt>
<trkpt lat="31.7752120" lon="35.1254770">
<ele>701.599976</ele>
<time>2025-10-17T16:36:54.584Z</time>
</trkpt>
<trkpt lat="31.7751930" lon="35.1254700">
<ele>701.599976</ele>
<time>2025-10-17T16:36:54.584Z</time>
</trkpt>
<trkpt lat="31.7751730" lon="35.1254600">
<ele>701.599976</ele>
<time>2025-10-17T16:36:54.585Z</time>
</trkpt>
<trkpt lat="31.7751540" lon="35.1254490">
<ele>701.799988</ele>
<time>2025-10-17T16:36:54.585Z</time>
</trkpt>
<trkpt lat="31.7751350" lon="35.1254410">
<ele>701.799988</ele>
<time>2025-10-17T16:36:54.585Z</time>
</trkpt>
<trkpt lat="31.7751170" lon="35.1254310">
<ele>702.000000</ele>
<time>2025-10-17T16:36:54.585Z</time>
</trkpt>
<trkpt lat="31.7751000" lon="35.1254180">
<ele>702.199951</ele>
<time>2025-10-17T16:36:54.585Z</time>
</trkpt>
<trkpt lat="31.7750840" lon="35.1254060">
<ele>702.600037</ele>
<time>2025-10-17T16:36:54.585Z</time>
</trkpt>
<trkpt lat="31.7750660" lon="35.1253980">
<ele>702.799988</ele>
<time>2025-10-17T16:36:54.585Z</time>
</trkpt>
<trkpt lat="31.7750480" lon="35.1253890">
<ele>703.000000</ele>
<time>2025-10-17T16:36:54.585Z</time>
</trkpt>
<trkpt lat="31.7750300" lon="35.1253740">
<ele>703.000000</ele>
<time>2025-10-17T16:36:54.585Z</time>
</trkpt>
<trkpt lat="31.7750140" lon="35.1253610">
<ele>703.200012</ele>
<time>2025-10-17T16:36:54.585Z</time>
</trkpt>
<trkpt lat="31.7749960" lon="35.1253490">
<ele>703.200012</ele>
<time>2025-10-17T16:36:54.585Z</time>
</trkpt>
<trkpt lat="31.7749780" lon="35.1253380">
<ele>703.399963</ele>
<time>2025-10-17T16:36:54.585Z</time>
</trkpt>
<trkpt lat="31.7749600" lon="35.1253290">
<ele>703.399963</ele>
<time>2025-10-17T16:36:54.585Z</time>
</trkpt>
<trkpt lat="31.7749420" lon="35.1253180">
<ele>703.599976</ele>
<time>2025-10-17T16:36:54.585Z</time>
</trkpt>
<trkpt lat="31.7749220" lon="35.1253070">
<ele>703.799988</ele>
<time>2025-10-17T16:36:54.585Z</time>
</trkpt>
<trkpt lat="31.7749010" lon="35.1252950">
<ele>703.999939</ele>
<time>2025-10-17T16:36:54.585Z</time>
</trkpt>
<trkpt lat="31.7748800" lon="35.1252800">
<ele>703.999939</ele>
<time>2025-10-17T16:36:54.585Z</time>
</trkpt>
<trkpt lat="31.7748600" lon="35.1252670">
<ele>704.400024</ele>
<time>2025-10-17T16:36:54.585Z</time>
</trkpt>
<trkpt lat="31.7748390" lon="35.1252570">
<ele>704.400024</ele>
<time>2025-10-17T16:36:54.585Z</time>
</trkpt>
<trkpt lat="31.7748200" lon="35.1252470">
<ele>704.599976</ele>
<time>2025-10-17T16:36:54.585Z</time>
</trkpt>
<trkpt lat="31.7748000" lon="35.1252370">
<ele>704.599976</ele>
<time>2025-10-17T16:36:54.585Z</time>
</trkpt>
<trkpt lat="31.7747780" lon="35.1252270">
<ele>704.799988</ele>
<time>2025-10-17T16:36:54.585Z</time>
</trkpt>
<trkpt lat="31.7747590" lon="35.1252160">
<ele>705.000000</ele>
<time>2025-10-17T16:36:54.585Z</time>
</trkpt>
<trkpt lat="31.7747400" lon="35.1252020">
<ele>705.400024</ele>
<time>2025-10-17T16:36:54.585Z</time>
</trkpt>
<trkpt lat="31.7747200" lon="35.1251870">
<ele>705.400024</ele>
<time>2025-10-17T16:36:54.585Z</time>
</trkpt>
<trkpt lat="31.7747000" lon="35.1251720">
<ele>705.600037</ele>
<time>2025-10-17T16:36:54.585Z</time>
</trkpt>
<trkpt lat="31.7746790" lon="35.1251580">
<ele>705.799988</ele>
<time>2025-10-17T16:36:54.585Z</time>
</trkpt>
<trkpt lat="31.7746580" lon="35.1251460">
<ele>706.000000</ele>
<time>2025-10-17T16:36:54.585Z</time>
</trkpt>
<trkpt lat="31.7746380" lon="35.1251340">
<ele>706.200012</ele>
<time>2025-10-17T16:36:54.585Z</time>
</trkpt>
<trkpt lat="31.7746210" lon="35.1251250">
<ele>706.200012</ele>
<time>2025-10-17T16:36:54.585Z</time>
</trkpt>
<trkpt lat="31.7746000" lon="35.1251120">
<ele>706.599976</ele>
<time>2025-10-17T16:36:54.585Z</time>
</trkpt>
<trkpt lat="31.7745770" lon="35.1250960">
<ele>706.800049</ele>
<time>2025-10-17T16:36:54.586Z</time>
</trkpt>
<trkpt lat="31.7745570" lon="35.1250830">
<ele>707.000000</ele>
<time>2025-10-17T16:36:54.586Z</time>
</trkpt>
<trkpt lat="31.7745400" lon="35.1250730">
<ele>707.000000</ele>
<time>2025-10-17T16:36:54.586Z</time>
</trkpt>
<trkpt lat="31.7745150" lon="35.1250600">
<ele>707.200012</ele>
<time>2025-10-17T16:36:54.586Z</time>
</trkpt>
<trkpt lat="31.7745000" lon="35.1250490">
<ele>707.400024</ele>
<time>2025-10-17T16:36:54.586Z</time>
</trkpt>
<trkpt lat="31.7744790" lon="35.1250350">
<ele>707.599976</ele>
<time>2025-10-17T16:36:54.586Z</time>
</trkpt>
<trkpt lat="31.7744550" lon="35.1250190">
<ele>707.799988</ele>
<time>2025-10-17T16:36:54.586Z</time>
</trkpt>
<trkpt lat="31.7744370" lon="35.1250080">
<ele>707.799988</ele>
<time>2025-10-17T16:36:54.586Z</time>
</trkpt>
<trkpt lat="31.7744210" lon="35.1250010">
<ele>708.000000</ele>
<time>2025-10-17T16:36:54.586Z</time>
</trkpt>
<trkpt lat="31.7743960" lon="35.1249910">
<ele>708.000000</ele>
<time>2025-10-17T16:36:54.586Z</time>
</trkpt>
<trkpt lat="31.7743770" lon="35.1249820">
<ele>708.199951</ele>
<time>2025-10-17T16:36:54.586Z</time>
</trkpt>
<trkpt lat="31.7743560" lon="35.1249700">
<ele>708.400024</ele>
<time>2025-10-17T16:36:54.586Z</time>
</trkpt>
<trkpt lat="31.7743400" lon="35.1249580">
<ele>708.600037</ele>
<time>2025-10-17T16:36:54.586Z</time>
</trkpt>
<trkpt lat="31.7743200" lon="35.1249450">
<ele>708.799988</ele>
<time>2025-10-17T16:36:54.586Z</time>
</trkpt>
<trkpt lat="31.7742950" lon="35.1249290">
<ele>709.000000</ele>
<time>2025-10-17T16:36:54.586Z</time>
</trkpt>
<trkpt lat="31.7742770" lon="35.1249160">
<ele>709.200012</ele>
<time>2025-10-17T16:36:54.586Z</time>
</trkpt>
<trkpt lat="31.7742570" lon="35.1249010">
<ele>709.399963</ele>
<time>2025-10-17T16:36:54.586Z</time>
</trkpt>
<trkpt lat="31.7742410" lon="35.1248890">
<ele>709.599976</ele>
<time>2025-10-17T16:36:54.586Z</time>
</trkpt>
<trkpt lat="31.7742230" lon="35.1248740">
<ele>709.599976</ele>
<time>2025-10-17T16:36:54.586Z</time>
</trkpt>
<trkpt lat="31.7742010" lon="35.1248580">
<ele>709.800049</ele>
<time>2025-10-17T16:36:54.586Z</time>
</trkpt>
<trkpt lat="31.7741790" lon="35.1248480">
<ele>709.800049</ele>
<time>2025-10-17T16:36:54.586Z</time>
</trkpt>
<trkpt lat="31.7741620" lon="35.1248380">
<ele>710.000000</ele>
<time>2025-10-17T16:36:54.586Z</time>
</trkpt>
<trkpt lat="31.7741410" lon="35.1248270">
<ele>710.000000</ele>
<time>2025-10-17T16:36:54.586Z</time>
</trkpt>
<trkpt lat="31.7741200" lon="35.1248160">
<ele>710.200012</ele>
<time>2025-10-17T16:36:54.586Z</time>
</trkpt>
<trkpt lat="31.7740960" lon="35.1248050">
<ele>710.400024</ele>
<time>2025-10-17T16:36:54.586Z</time>
</trkpt>
<trkpt lat="31.7740750" lon="35.1247950">
<ele>710.400024</ele>
<time>2025-10-17T16:36:54.587Z</time>
</trkpt>
<trkpt lat="31.7740600" lon="35.1247840">
<ele>710.799988</ele>
<time>2025-10-17T16:36:54.587Z</time>
</trkpt>
<trkpt lat="31.7740430" lon="35.1247660">
<ele>711.000000</ele>
<time>2025-10-17T16:36:54.587Z</time>
</trkpt>
<trkpt lat="31.7740230" lon="35.1247470">
<ele>711.199951</ele>
<time>2025-10-17T16:36:54.587Z</time>
</trkpt>
<trkpt lat="31.7740040" lon="35.1247350">
<ele>711.199951</ele>
<time>2025-10-17T16:36:54.587Z</time>
</trkpt>
<trkpt lat="31.7739860" lon="35.1247230">
<ele>711.600037</ele>
<time>2025-10-17T16:36:54.587Z</time>
</trkpt>
<trkpt lat="31.7739680" lon="35.1247110">
<ele>711.600037</ele>
<time>2025-10-17T16:36:54.587Z</time>
</trkpt>
<trkpt lat="31.7739500" lon="35.1246960">
<ele>711.799988</ele>
<time>2025-10-17T16:36:54.587Z</time>
</trkpt>
<trkpt lat="31.7739320" lon="35.1246830">
<ele>712.000000</ele>
<time>2025-10-17T16:36:54.587Z</time>
</trkpt>
<trkpt lat="31.7739120" lon="35.1246700">
<ele>712.000000</ele>
<time>2025-10-17T16:36:54.587Z</time>
</trkpt>
<trkpt lat="31.7738930" lon="35.1246550">
<ele>712.200012</ele>
<time>2025-10-17T16:36:54.587Z</time>
</trkpt>
<trkpt lat="31.7738760" lon="35.1246380">
<ele>712.399963</ele>
<time>2025-10-17T16:36:54.587Z</time>
</trkpt>
<trkpt lat="31.7738580" lon="35.1246210">
<ele>712.599976</ele>
<time>2025-10-17T16:36:54.587Z</time>
</trkpt>
<trkpt lat="31.7738400" lon="35.1246050">
<ele>712.599976</ele>
<time>2025-10-17T16:36:54.587Z</time>
</trkpt>
<trkpt lat="31.7738220" lon="35.1245920">
<ele>712.800049</ele>
<time>2025-10-17T16:36:54.587Z</time>
</trkpt>
<trkpt lat="31.7738060" lon="35.1245800">
<ele>713.000000</ele>
<time>2025-10-17T16:36:54.587Z</time>
</trkpt>
</trkseg>
</trk>
</gpx>
